<?xml version="1.0" encoding="UTF-8" standalone="no" ?>
<gpx xmlns="http://www.topografix.com/GPX/1/1" xmlns:xsi="http://www.w3.org/2001/XMLSchema-instance" xsi:schemaLocation="http://www.topografix.com/GPX/1/1 http://www.topografix.com/GPX/1/1/gpx.xsd" version="1.1" creator="VisuGPX - https://www.visugpx.com">
  <metadata>
    <name>Tour d'Europe: étape 043</name>
    <desc><![CDATA[Étape 043]]></desc>
  </metadata>
  <trk>
    <name><![CDATA[Tour d'Europe: étape 043]]></name>
    <trkseg>
      <trkpt lat="64.30076" lon="10.50009">
        <ele>46.153706</ele>
        <time>2020-08-10T07:09:43.385Z</time>
      </trkpt>
      <trkpt lat="64.3007" lon="10.49989">
        <ele>46.153706</ele>
        <time>2020-08-10T07:09:48.402Z</time>
      </trkpt>
      <trkpt lat="64.30065" lon="10.49968">
        <ele>46.153706</ele>
        <time>2020-08-10T07:09:53.377Z</time>
      </trkpt>
      <trkpt lat="64.30054" lon="10.4993">
        <ele>46.153706</ele>
        <time>2020-08-10T07:10:29.415Z</time>
      </trkpt>
      <trkpt lat="64.30047" lon="10.49916">
        <ele>46.153706</ele>
        <time>2020-08-10T07:10:33.392Z</time>
      </trkpt>
      <trkpt lat="64.30039" lon="10.49906">
        <ele>46.153706</ele>
        <time>2020-08-10T07:10:37.400Z</time>
      </trkpt>
      <trkpt lat="64.3003" lon="10.49897">
        <ele>46.153706</ele>
        <time>2020-08-10T07:10:41.383Z</time>
      </trkpt>
      <trkpt lat="64.30021" lon="10.4989">
        <ele>46.153706</ele>
        <time>2020-08-10T07:10:45.395Z</time>
      </trkpt>
      <trkpt lat="64.3001" lon="10.49877">
        <ele>46.180445</ele>
        <time>2020-08-10T07:10:49.418Z</time>
      </trkpt>
      <trkpt lat="64.3" lon="10.49863">
        <ele>46.470621</ele>
        <time>2020-08-10T07:10:52.406Z</time>
      </trkpt>
      <trkpt lat="64.29992" lon="10.49846">
        <ele>46.767206</ele>
        <time>2020-08-10T07:10:55.385Z</time>
      </trkpt>
      <trkpt lat="64.29984" lon="10.49823">
        <ele>47.109043</ele>
        <time>2020-08-10T07:10:58.394Z</time>
      </trkpt>
      <trkpt lat="64.29975" lon="10.49802">
        <ele>47.434011</ele>
        <time>2020-08-10T07:11:01.376Z</time>
      </trkpt>
      <trkpt lat="64.29966" lon="10.49789">
        <ele>47.730327</ele>
        <time>2020-08-10T07:11:04.394Z</time>
      </trkpt>
      <trkpt lat="64.29956" lon="10.49786">
        <ele>47.981228</ele>
        <time>2020-08-10T07:11:07.418Z</time>
      </trkpt>
      <trkpt lat="64.29946" lon="10.49786">
        <ele>48.25593</ele>
        <time>2020-08-10T07:11:11.409Z</time>
      </trkpt>
      <trkpt lat="64.29943" lon="10.4979">
        <ele>48.348966</ele>
        <time>2020-08-10T07:19:59.892Z</time>
      </trkpt>
      <trkpt lat="64.29935" lon="10.49809">
        <ele>48.645692</ele>
        <time>2020-08-10T08:31:17.733Z</time>
      </trkpt>
      <trkpt lat="64.29927" lon="10.49823">
        <ele>48.916055</ele>
        <time>2020-08-10T08:31:21.726Z</time>
      </trkpt>
      <trkpt lat="64.29923" lon="10.49842">
        <ele>49.158744</ele>
        <time>2020-08-10T08:31:26.716Z</time>
      </trkpt>
      <trkpt lat="64.29923" lon="10.49869">
        <ele>49.461161</ele>
        <time>2020-08-10T08:31:31.722Z</time>
      </trkpt>
      <trkpt lat="64.29924" lon="10.49893">
        <ele>49.738466</ele>
        <time>2020-08-10T08:31:35.726Z</time>
      </trkpt>
      <trkpt lat="64.29926" lon="10.49916">
        <ele>50.012103</ele>
        <time>2020-08-10T08:31:39.706Z</time>
      </trkpt>
      <trkpt lat="64.29927" lon="10.49941">
        <ele>50.294804</ele>
        <time>2020-08-10T08:31:43.725Z</time>
      </trkpt>
      <trkpt lat="64.29928" lon="10.49966">
        <ele>50.583441</ele>
        <time>2020-08-10T08:31:47.721Z</time>
      </trkpt>
      <trkpt lat="64.29929" lon="10.49991">
        <ele>50.877844</ele>
        <time>2020-08-10T08:31:51.707Z</time>
      </trkpt>
      <trkpt lat="64.29928" lon="10.50014">
        <ele>51.038971</ele>
        <time>2020-08-10T08:31:54.718Z</time>
      </trkpt>
      <trkpt lat="64.29929" lon="10.50039">
        <ele>51.210816</ele>
        <time>2020-08-10T08:31:58.719Z</time>
      </trkpt>
      <trkpt lat="64.29931" lon="10.50065">
        <ele>51.39359</ele>
        <time>2020-08-10T08:32:02.739Z</time>
      </trkpt>
      <trkpt lat="64.29931" lon="10.50087">
        <ele>51.540393</ele>
        <time>2020-08-10T08:32:05.734Z</time>
      </trkpt>
      <trkpt lat="64.2993" lon="10.50113">
        <ele>51.719349</ele>
        <time>2020-08-10T08:32:09.725Z</time>
      </trkpt>
      <trkpt lat="64.2993" lon="10.50135">
        <ele>51.871224</ele>
        <time>2020-08-10T08:32:12.767Z</time>
      </trkpt>
      <trkpt lat="64.29929" lon="10.50158">
        <ele>52.031257</ele>
        <time>2020-08-10T08:32:15.722Z</time>
      </trkpt>
      <trkpt lat="64.29928" lon="10.5018">
        <ele>52.179834</ele>
        <time>2020-08-10T08:32:18.722Z</time>
      </trkpt>
      <trkpt lat="64.29926" lon="10.50204">
        <ele>52.345001</ele>
        <time>2020-08-10T08:32:21.710Z</time>
      </trkpt>
      <trkpt lat="64.29924" lon="10.50225">
        <ele>52.493449</ele>
        <time>2020-08-10T08:32:24.717Z</time>
      </trkpt>
      <trkpt lat="64.29923" lon="10.50249">
        <ele>52.65361</ele>
        <time>2020-08-10T08:32:27.713Z</time>
      </trkpt>
      <trkpt lat="64.29922" lon="10.50269">
        <ele>52.796007</ele>
        <time>2020-08-10T08:32:30.722Z</time>
      </trkpt>
      <trkpt lat="64.2992" lon="10.50296">
        <ele>52.98118</ele>
        <time>2020-08-10T08:32:34.747Z</time>
      </trkpt>
      <trkpt lat="64.29918" lon="10.50316">
        <ele>53.123389</ele>
        <time>2020-08-10T08:32:37.737Z</time>
      </trkpt>
      <trkpt lat="64.29915" lon="10.50338">
        <ele>53.274058</ele>
        <time>2020-08-10T08:32:40.720Z</time>
      </trkpt>
      <trkpt lat="64.29912" lon="10.50358">
        <ele>53.423467</ele>
        <time>2020-08-10T08:32:43.706Z</time>
      </trkpt>
      <trkpt lat="64.2991" lon="10.5038">
        <ele>53.576115</ele>
        <time>2020-08-10T08:32:46.726Z</time>
      </trkpt>
      <trkpt lat="64.29907" lon="10.50402">
        <ele>53.732668</ele>
        <time>2020-08-10T08:32:49.708Z</time>
      </trkpt>
      <trkpt lat="64.29904" lon="10.50424">
        <ele>53.860254</ele>
        <time>2020-08-10T08:32:52.724Z</time>
      </trkpt>
      <trkpt lat="64.299" lon="10.50445">
        <ele>53.983959</ele>
        <time>2020-08-10T08:32:55.717Z</time>
      </trkpt>
      <trkpt lat="64.29896" lon="10.50467">
        <ele>54.11195</ele>
        <time>2020-08-10T08:32:58.729Z</time>
      </trkpt>
      <trkpt lat="64.29892" lon="10.5049">
        <ele>54.249409</ele>
        <time>2020-08-10T08:33:01.766Z</time>
      </trkpt>
      <trkpt lat="64.29887" lon="10.50512">
        <ele>54.383378</ele>
        <time>2020-08-10T08:33:04.718Z</time>
      </trkpt>
      <trkpt lat="64.29881" lon="10.50532">
        <ele>54.51123</ele>
        <time>2020-08-10T08:33:07.727Z</time>
      </trkpt>
      <trkpt lat="64.29876" lon="10.50553">
        <ele>54.642487</ele>
        <time>2020-08-10T08:33:10.715Z</time>
      </trkpt>
      <trkpt lat="64.29871" lon="10.50573">
        <ele>54.771099</ele>
        <time>2020-08-10T08:33:13.724Z</time>
      </trkpt>
      <trkpt lat="64.29867" lon="10.50593">
        <ele>54.888726</ele>
        <time>2020-08-10T08:33:16.724Z</time>
      </trkpt>
      <trkpt lat="64.29862" lon="10.50611">
        <ele>55.008247</ele>
        <time>2020-08-10T08:33:19.729Z</time>
      </trkpt>
      <trkpt lat="64.29856" lon="10.50629">
        <ele>55.130114</ele>
        <time>2020-08-10T08:33:22.719Z</time>
      </trkpt>
      <trkpt lat="64.29848" lon="10.50645">
        <ele>55.254748</ele>
        <time>2020-08-10T08:33:25.718Z</time>
      </trkpt>
      <trkpt lat="64.29842" lon="10.5066">
        <ele>55.374184</ele>
        <time>2020-08-10T08:33:28.749Z</time>
      </trkpt>
      <trkpt lat="64.29834" lon="10.5068">
        <ele>55.516059</ele>
        <time>2020-08-10T08:33:32.734Z</time>
      </trkpt>
      <trkpt lat="64.29827" lon="10.50694">
        <ele>55.63324</ele>
        <time>2020-08-10T08:33:35.773Z</time>
      </trkpt>
      <trkpt lat="64.29819" lon="10.50709">
        <ele>55.763572</ele>
        <time>2020-08-10T08:33:38.722Z</time>
      </trkpt>
      <trkpt lat="64.29812" lon="10.50723">
        <ele>55.87876</ele>
        <time>2020-08-10T08:33:41.746Z</time>
      </trkpt>
      <trkpt lat="64.29802" lon="10.50739">
        <ele>56.225645</ele>
        <time>2020-08-10T08:33:45.704Z</time>
      </trkpt>
      <trkpt lat="64.29793" lon="10.50752">
        <ele>57.034014</ele>
        <time>2020-08-10T08:33:49.730Z</time>
      </trkpt>
      <trkpt lat="64.29785" lon="10.50768">
        <ele>57.856833</ele>
        <time>2020-08-10T08:33:54.726Z</time>
      </trkpt>
      <trkpt lat="64.29776" lon="10.50785">
        <ele>58.70598</ele>
        <time>2020-08-10T08:33:58.737Z</time>
      </trkpt>
      <trkpt lat="64.29769" lon="10.50798">
        <ele>59.420479</ele>
        <time>2020-08-10T08:34:02.718Z</time>
      </trkpt>
      <trkpt lat="64.29762" lon="10.50813">
        <ele>60.14673</ele>
        <time>2020-08-10T08:34:07.705Z</time>
      </trkpt>
      <trkpt lat="64.29758" lon="10.50833">
        <ele>60.871415</ele>
        <time>2020-08-10T08:34:12.774Z</time>
      </trkpt>
      <trkpt lat="64.29757" lon="10.50855">
        <ele>61.60135</ele>
        <time>2020-08-10T08:34:17.738Z</time>
      </trkpt>
      <trkpt lat="64.29758" lon="10.50877">
        <ele>62.314889</ele>
        <time>2020-08-10T08:34:22.756Z</time>
      </trkpt>
      <trkpt lat="64.29757" lon="10.509">
        <ele>63.080298</ele>
        <time>2020-08-10T08:34:27.727Z</time>
      </trkpt>
      <trkpt lat="64.2976" lon="10.50924">
        <ele>63.882553</ele>
        <time>2020-08-10T08:34:33.714Z</time>
      </trkpt>
      <trkpt lat="64.2976" lon="10.50946">
        <ele>64.596533</ele>
        <time>2020-08-10T08:34:38.745Z</time>
      </trkpt>
      <trkpt lat="64.29761" lon="10.50967">
        <ele>65.29349</ele>
        <time>2020-08-10T08:34:43.746Z</time>
      </trkpt>
      <trkpt lat="64.29761" lon="10.50989">
        <ele>66.032292</ele>
        <time>2020-08-10T08:34:49.721Z</time>
      </trkpt>
      <trkpt lat="64.2976" lon="10.5101">
        <ele>66.717955</ele>
        <time>2020-08-10T08:34:55.738Z</time>
      </trkpt>
      <trkpt lat="64.29758" lon="10.5103">
        <ele>67.396179</ele>
        <time>2020-08-10T08:35:00.721Z</time>
      </trkpt>
      <trkpt lat="64.2975" lon="10.51044">
        <ele>68.156563</ele>
        <time>2020-08-10T08:35:06.742Z</time>
      </trkpt>
      <trkpt lat="64.29741" lon="10.5105">
        <ele>68.886842</ele>
        <time>2020-08-10T08:35:09.728Z</time>
      </trkpt>
      <trkpt lat="64.29729" lon="10.51062">
        <ele>69.52924</ele>
        <time>2020-08-10T08:35:12.739Z</time>
      </trkpt>
      <trkpt lat="64.29721" lon="10.51079">
        <ele>69.2445</ele>
        <time>2020-08-10T08:35:14.718Z</time>
      </trkpt>
      <trkpt lat="64.29712" lon="10.51096">
        <ele>68.942863</ele>
        <time>2020-08-10T08:35:16.720Z</time>
      </trkpt>
      <trkpt lat="64.29701" lon="10.51115">
        <ele>68.615511</ele>
        <time>2020-08-10T08:35:18.763Z</time>
      </trkpt>
      <trkpt lat="64.2969" lon="10.51138">
        <ele>68.220674</ele>
        <time>2020-08-10T08:35:20.719Z</time>
      </trkpt>
      <trkpt lat="64.29678" lon="10.51164">
        <ele>67.813382</ele>
        <time>2020-08-10T08:35:22.723Z</time>
      </trkpt>
      <trkpt lat="64.29666" lon="10.51189">
        <ele>67.411608</ele>
        <time>2020-08-10T08:35:24.750Z</time>
      </trkpt>
      <trkpt lat="64.29655" lon="10.51216">
        <ele>66.991638</ele>
        <time>2020-08-10T08:35:26.717Z</time>
      </trkpt>
      <trkpt lat="64.29646" lon="10.51243">
        <ele>66.623338</ele>
        <time>2020-08-10T08:35:28.712Z</time>
      </trkpt>
      <trkpt lat="64.2964" lon="10.51271">
        <ele>66.277712</ele>
        <time>2020-08-10T08:35:30.713Z</time>
      </trkpt>
      <trkpt lat="64.29634" lon="10.51298">
        <ele>65.948225</ele>
        <time>2020-08-10T08:35:32.727Z</time>
      </trkpt>
      <trkpt lat="64.29627" lon="10.51322">
        <ele>65.635362</ele>
        <time>2020-08-10T08:35:34.727Z</time>
      </trkpt>
      <trkpt lat="64.29622" lon="10.51346">
        <ele>65.342841</ele>
        <time>2020-08-10T08:35:36.736Z</time>
      </trkpt>
      <trkpt lat="64.29616" lon="10.51368">
        <ele>65.053774</ele>
        <time>2020-08-10T08:35:38.731Z</time>
      </trkpt>
      <trkpt lat="64.29608" lon="10.51388">
        <ele>64.576386</ele>
        <time>2020-08-10T08:35:40.722Z</time>
      </trkpt>
      <trkpt lat="64.296" lon="10.51407">
        <ele>64.106827</ele>
        <time>2020-08-10T08:35:42.720Z</time>
      </trkpt>
      <trkpt lat="64.29592" lon="10.51425">
        <ele>63.639743</ele>
        <time>2020-08-10T08:35:44.743Z</time>
      </trkpt>
      <trkpt lat="64.29584" lon="10.5144">
        <ele>63.222154</ele>
        <time>2020-08-10T08:35:46.718Z</time>
      </trkpt>
      <trkpt lat="64.29575" lon="10.51452">
        <ele>62.800706</ele>
        <time>2020-08-10T08:35:48.746Z</time>
      </trkpt>
      <trkpt lat="64.29567" lon="10.51463">
        <ele>62.408781</ele>
        <time>2020-08-10T08:35:50.716Z</time>
      </trkpt>
      <trkpt lat="64.29558" lon="10.51474">
        <ele>61.998232</ele>
        <time>2020-08-10T08:35:52.720Z</time>
      </trkpt>
      <trkpt lat="64.29549" lon="10.51484">
        <ele>61.587778</ele>
        <time>2020-08-10T08:35:54.738Z</time>
      </trkpt>
      <trkpt lat="64.2954" lon="10.51495">
        <ele>61.169189</ele>
        <time>2020-08-10T08:35:56.748Z</time>
      </trkpt>
      <trkpt lat="64.29531" lon="10.51503">
        <ele>60.784812</ele>
        <time>2020-08-10T08:35:58.712Z</time>
      </trkpt>
      <trkpt lat="64.29522" lon="10.51511">
        <ele>60.396978</ele>
        <time>2020-08-10T08:36:00.727Z</time>
      </trkpt>
      <trkpt lat="64.29509" lon="10.51519">
        <ele>59.854727</ele>
        <time>2020-08-10T08:36:03.717Z</time>
      </trkpt>
      <trkpt lat="64.29501" lon="10.51527">
        <ele>59.469489</ele>
        <time>2020-08-10T08:36:05.711Z</time>
      </trkpt>
      <trkpt lat="64.29489" lon="10.51537">
        <ele>58.949248</ele>
        <time>2020-08-10T08:36:08.719Z</time>
      </trkpt>
      <trkpt lat="64.29477" lon="10.5155">
        <ele>58.428709</ele>
        <time>2020-08-10T08:36:11.745Z</time>
      </trkpt>
      <trkpt lat="64.29467" lon="10.51565">
        <ele>57.934909</ele>
        <time>2020-08-10T08:36:14.714Z</time>
      </trkpt>
      <trkpt lat="64.29457" lon="10.51581">
        <ele>57.911633</ele>
        <time>2020-08-10T08:36:17.716Z</time>
      </trkpt>
      <trkpt lat="64.29447" lon="10.51598">
        <ele>58.351418</ele>
        <time>2020-08-10T08:36:20.713Z</time>
      </trkpt>
      <trkpt lat="64.29436" lon="10.51616">
        <ele>58.816861</ele>
        <time>2020-08-10T08:36:23.726Z</time>
      </trkpt>
      <trkpt lat="64.29429" lon="10.5163">
        <ele>59.136144</ele>
        <time>2020-08-10T08:36:25.718Z</time>
      </trkpt>
      <trkpt lat="64.29419" lon="10.5165">
        <ele>59.580732</ele>
        <time>2020-08-10T08:36:28.747Z</time>
      </trkpt>
      <trkpt lat="64.2941" lon="10.51668">
        <ele>59.991756</ele>
        <time>2020-08-10T08:36:31.723Z</time>
      </trkpt>
      <trkpt lat="64.29401" lon="10.51687">
        <ele>60.406024</ele>
        <time>2020-08-10T08:36:34.706Z</time>
      </trkpt>
      <trkpt lat="64.29392" lon="10.51706">
        <ele>60.836693</ele>
        <time>2020-08-10T08:36:37.723Z</time>
      </trkpt>
      <trkpt lat="64.29382" lon="10.51724">
        <ele>61.27191</ele>
        <time>2020-08-10T08:36:40.736Z</time>
      </trkpt>
      <trkpt lat="64.29372" lon="10.51744">
        <ele>61.708968</ele>
        <time>2020-08-10T08:36:43.722Z</time>
      </trkpt>
      <trkpt lat="64.29363" lon="10.51762">
        <ele>62.122728</ele>
        <time>2020-08-10T08:36:46.724Z</time>
      </trkpt>
      <trkpt lat="64.29355" lon="10.5178">
        <ele>62.515297</ele>
        <time>2020-08-10T08:36:49.721Z</time>
      </trkpt>
      <trkpt lat="64.29347" lon="10.51799">
        <ele>62.907367</ele>
        <time>2020-08-10T08:36:52.720Z</time>
      </trkpt>
      <trkpt lat="64.2934" lon="10.51818">
        <ele>63.280039</ele>
        <time>2020-08-10T08:36:55.749Z</time>
      </trkpt>
      <trkpt lat="64.29333" lon="10.51835">
        <ele>63.620079</ele>
        <time>2020-08-10T08:36:58.720Z</time>
      </trkpt>
      <trkpt lat="64.29327" lon="10.51853">
        <ele>63.953607</ele>
        <time>2020-08-10T08:37:02.723Z</time>
      </trkpt>
      <trkpt lat="64.29322" lon="10.51871">
        <ele>64.260058</ele>
        <time>2020-08-10T08:37:06.726Z</time>
      </trkpt>
      <trkpt lat="64.29317" lon="10.51889">
        <ele>64.558799</ele>
        <time>2020-08-10T08:37:10.716Z</time>
      </trkpt>
      <trkpt lat="64.29311" lon="10.51908">
        <ele>64.886382</ele>
        <time>2020-08-10T08:37:15.739Z</time>
      </trkpt>
      <trkpt lat="64.29306" lon="10.5193">
        <ele>65.235341</ele>
        <time>2020-08-10T08:37:20.737Z</time>
      </trkpt>
      <trkpt lat="64.29302" lon="10.51952">
        <ele>65.578121</ele>
        <time>2020-08-10T08:37:25.731Z</time>
      </trkpt>
      <trkpt lat="64.29298" lon="10.51974">
        <ele>65.901348</ele>
        <time>2020-08-10T08:37:29.726Z</time>
      </trkpt>
      <trkpt lat="64.29294" lon="10.51993">
        <ele>66.208234</ele>
        <time>2020-08-10T08:37:33.746Z</time>
      </trkpt>
      <trkpt lat="64.2929" lon="10.52015">
        <ele>66.525222</ele>
        <time>2020-08-10T08:37:37.715Z</time>
      </trkpt>
      <trkpt lat="64.29287" lon="10.52035">
        <ele>66.836172</ele>
        <time>2020-08-10T08:37:41.720Z</time>
      </trkpt>
      <trkpt lat="64.29282" lon="10.5206">
        <ele>67.212003</ele>
        <time>2020-08-10T08:37:46.716Z</time>
      </trkpt>
      <trkpt lat="64.29279" lon="10.52081">
        <ele>67.521866</ele>
        <time>2020-08-10T08:37:49.716Z</time>
      </trkpt>
      <trkpt lat="64.29276" lon="10.52105">
        <ele>67.861741</ele>
        <time>2020-08-10T08:37:52.720Z</time>
      </trkpt>
      <trkpt lat="64.29273" lon="10.52129">
        <ele>68.213176</ele>
        <time>2020-08-10T08:37:55.741Z</time>
      </trkpt>
      <trkpt lat="64.2927" lon="10.52153">
        <ele>68.574507</ele>
        <time>2020-08-10T08:37:58.718Z</time>
      </trkpt>
      <trkpt lat="64.29266" lon="10.52176">
        <ele>68.913956</ele>
        <time>2020-08-10T08:38:01.705Z</time>
      </trkpt>
      <trkpt lat="64.29263" lon="10.52198">
        <ele>69.230421</ele>
        <time>2020-08-10T08:38:04.718Z</time>
      </trkpt>
      <trkpt lat="64.29259" lon="10.52218">
        <ele>69.536963</ele>
        <time>2020-08-10T08:38:07.730Z</time>
      </trkpt>
      <trkpt lat="64.29255" lon="10.52237">
        <ele>69.587504</ele>
        <time>2020-08-10T08:38:10.727Z</time>
      </trkpt>
      <trkpt lat="64.29252" lon="10.52258">
        <ele>69.430616</ele>
        <time>2020-08-10T08:38:13.747Z</time>
      </trkpt>
      <trkpt lat="64.2925" lon="10.52279">
        <ele>69.274024</ele>
        <time>2020-08-10T08:38:16.714Z</time>
      </trkpt>
      <trkpt lat="64.29247" lon="10.523">
        <ele>69.1163</ele>
        <time>2020-08-10T08:38:19.732Z</time>
      </trkpt>
      <trkpt lat="64.29244" lon="10.5232">
        <ele>68.963231</ele>
        <time>2020-08-10T08:38:22.719Z</time>
      </trkpt>
      <trkpt lat="64.2924" lon="10.52341">
        <ele>68.80002</ele>
        <time>2020-08-10T08:38:25.757Z</time>
      </trkpt>
      <trkpt lat="64.29235" lon="10.52365">
        <ele>68.606277</ele>
        <time>2020-08-10T08:38:28.756Z</time>
      </trkpt>
      <trkpt lat="64.29231" lon="10.52392">
        <ele>68.396556</ele>
        <time>2020-08-10T08:38:31.780Z</time>
      </trkpt>
      <trkpt lat="64.29226" lon="10.52418">
        <ele>68.194975</ele>
        <time>2020-08-10T08:38:34.721Z</time>
      </trkpt>
      <trkpt lat="64.29222" lon="10.52442">
        <ele>68.013115</ele>
        <time>2020-08-10T08:38:37.728Z</time>
      </trkpt>
      <trkpt lat="64.29219" lon="10.52465">
        <ele>67.840031</ele>
        <time>2020-08-10T08:38:40.718Z</time>
      </trkpt>
      <trkpt lat="64.29216" lon="10.52486">
        <ele>67.676023</ele>
        <time>2020-08-10T08:38:43.734Z</time>
      </trkpt>
      <trkpt lat="64.29212" lon="10.52506">
        <ele>67.520767</ele>
        <time>2020-08-10T08:38:46.719Z</time>
      </trkpt>
      <trkpt lat="64.29209" lon="10.52529">
        <ele>67.351949</ele>
        <time>2020-08-10T08:38:49.721Z</time>
      </trkpt>
      <trkpt lat="64.29206" lon="10.5255">
        <ele>67.186902</ele>
        <time>2020-08-10T08:38:52.750Z</time>
      </trkpt>
      <trkpt lat="64.29203" lon="10.52573">
        <ele>67.017758</ele>
        <time>2020-08-10T08:38:55.712Z</time>
      </trkpt>
      <trkpt lat="64.29199" lon="10.52595">
        <ele>66.843594</ele>
        <time>2020-08-10T08:38:58.728Z</time>
      </trkpt>
      <trkpt lat="64.29196" lon="10.52619">
        <ele>66.73558</ele>
        <time>2020-08-10T08:39:01.713Z</time>
      </trkpt>
      <trkpt lat="64.29192" lon="10.52642">
        <ele>67.136761</ele>
        <time>2020-08-10T08:39:04.725Z</time>
      </trkpt>
      <trkpt lat="64.29189" lon="10.52663">
        <ele>67.514394</ele>
        <time>2020-08-10T08:39:07.806Z</time>
      </trkpt>
      <trkpt lat="64.29185" lon="10.52684">
        <ele>67.879717</ele>
        <time>2020-08-10T08:39:10.759Z</time>
      </trkpt>
      <trkpt lat="64.29181" lon="10.52705">
        <ele>68.250877</ele>
        <time>2020-08-10T08:39:13.752Z</time>
      </trkpt>
      <trkpt lat="64.29178" lon="10.52726">
        <ele>68.606349</ele>
        <time>2020-08-10T08:39:16.735Z</time>
      </trkpt>
      <trkpt lat="64.29175" lon="10.52746">
        <ele>68.955104</ele>
        <time>2020-08-10T08:39:19.723Z</time>
      </trkpt>
      <trkpt lat="64.29171" lon="10.52771">
        <ele>69.389518</ele>
        <time>2020-08-10T08:39:23.709Z</time>
      </trkpt>
      <trkpt lat="64.29167" lon="10.52794">
        <ele>69.773524</ele>
        <time>2020-08-10T08:39:27.729Z</time>
      </trkpt>
      <trkpt lat="64.29163" lon="10.52815">
        <ele>70.161026</ele>
        <time>2020-08-10T08:39:31.729Z</time>
      </trkpt>
      <trkpt lat="64.29159" lon="10.52836">
        <ele>70.529234</ele>
        <time>2020-08-10T08:39:35.727Z</time>
      </trkpt>
      <trkpt lat="64.29156" lon="10.52861">
        <ele>70.948284</ele>
        <time>2020-08-10T08:39:40.719Z</time>
      </trkpt>
      <trkpt lat="64.29152" lon="10.52885">
        <ele>71.365514</ele>
        <time>2020-08-10T08:39:45.724Z</time>
      </trkpt>
      <trkpt lat="64.29149" lon="10.52908">
        <ele>71.749476</ele>
        <time>2020-08-10T08:39:50.714Z</time>
      </trkpt>
      <trkpt lat="64.29146" lon="10.52931">
        <ele>72.151593</ele>
        <time>2020-08-10T08:39:55.717Z</time>
      </trkpt>
      <trkpt lat="64.29142" lon="10.52955">
        <ele>72.556478</ele>
        <time>2020-08-10T08:40:00.737Z</time>
      </trkpt>
      <trkpt lat="64.29138" lon="10.52977">
        <ele>72.963514</ele>
        <time>2020-08-10T08:40:05.735Z</time>
      </trkpt>
      <trkpt lat="64.29135" lon="10.52998">
        <ele>73.308029</ele>
        <time>2020-08-10T08:40:09.710Z</time>
      </trkpt>
      <trkpt lat="64.29132" lon="10.53017">
        <ele>73.352089</ele>
        <time>2020-08-10T08:40:13.738Z</time>
      </trkpt>
      <trkpt lat="64.29128" lon="10.53038">
        <ele>73.23353</ele>
        <time>2020-08-10T08:40:17.735Z</time>
      </trkpt>
      <trkpt lat="64.29125" lon="10.5306">
        <ele>73.108677</ele>
        <time>2020-08-10T08:40:21.717Z</time>
      </trkpt>
      <trkpt lat="64.29121" lon="10.5308">
        <ele>72.99397</ele>
        <time>2020-08-10T08:40:25.756Z</time>
      </trkpt>
      <trkpt lat="64.29118" lon="10.53104">
        <ele>72.866449</ele>
        <time>2020-08-10T08:40:29.718Z</time>
      </trkpt>
      <trkpt lat="64.29115" lon="10.5313">
        <ele>72.723435</ele>
        <time>2020-08-10T08:40:33.718Z</time>
      </trkpt>
      <trkpt lat="64.29111" lon="10.53149">
        <ele>72.612004</ele>
        <time>2020-08-10T08:40:36.741Z</time>
      </trkpt>
      <trkpt lat="64.29107" lon="10.53173">
        <ele>72.48085</ele>
        <time>2020-08-10T08:40:39.728Z</time>
      </trkpt>
      <trkpt lat="64.29103" lon="10.53199">
        <ele>72.333343</ele>
        <time>2020-08-10T08:40:42.726Z</time>
      </trkpt>
      <trkpt lat="64.29099" lon="10.53229">
        <ele>72.171832</ele>
        <time>2020-08-10T08:40:45.728Z</time>
      </trkpt>
      <trkpt lat="64.29097" lon="10.5325">
        <ele>72.054388</ele>
        <time>2020-08-10T08:40:47.741Z</time>
      </trkpt>
      <trkpt lat="64.29095" lon="10.53274">
        <ele>71.929539</ele>
        <time>2020-08-10T08:40:49.742Z</time>
      </trkpt>
      <trkpt lat="64.29094" lon="10.533">
        <ele>71.789501</ele>
        <time>2020-08-10T08:40:51.743Z</time>
      </trkpt>
      <trkpt lat="64.29092" lon="10.5333">
        <ele>71.633077</ele>
        <time>2020-08-10T08:40:53.722Z</time>
      </trkpt>
      <trkpt lat="64.29093" lon="10.53361">
        <ele>71.465802</ele>
        <time>2020-08-10T08:40:55.722Z</time>
      </trkpt>
      <trkpt lat="64.29095" lon="10.53401">
        <ele>71.258302</ele>
        <time>2020-08-10T08:40:57.744Z</time>
      </trkpt>
      <trkpt lat="64.29097" lon="10.53422">
        <ele>70.825099</ele>
        <time>2020-08-10T08:40:58.751Z</time>
      </trkpt>
      <trkpt lat="64.291" lon="10.53443">
        <ele>70.360773</ele>
        <time>2020-08-10T08:40:59.730Z</time>
      </trkpt>
      <trkpt lat="64.29104" lon="10.53464">
        <ele>69.894996</ele>
        <time>2020-08-10T08:41:00.727Z</time>
      </trkpt>
      <trkpt lat="64.29108" lon="10.53486">
        <ele>69.404603</ele>
        <time>2020-08-10T08:41:01.728Z</time>
      </trkpt>
      <trkpt lat="64.29112" lon="10.53508">
        <ele>68.891086</ele>
        <time>2020-08-10T08:41:02.719Z</time>
      </trkpt>
      <trkpt lat="64.29117" lon="10.53531">
        <ele>68.361566</ele>
        <time>2020-08-10T08:41:03.705Z</time>
      </trkpt>
      <trkpt lat="64.29122" lon="10.53553">
        <ele>67.818096</ele>
        <time>2020-08-10T08:41:04.740Z</time>
      </trkpt>
      <trkpt lat="64.29128" lon="10.53575">
        <ele>67.26411</ele>
        <time>2020-08-10T08:41:05.710Z</time>
      </trkpt>
      <trkpt lat="64.29134" lon="10.53598">
        <ele>66.694406</ele>
        <time>2020-08-10T08:41:06.726Z</time>
      </trkpt>
      <trkpt lat="64.29141" lon="10.53621">
        <ele>66.108695</ele>
        <time>2020-08-10T08:41:07.735Z</time>
      </trkpt>
      <trkpt lat="64.29149" lon="10.53644">
        <ele>65.505588</ele>
        <time>2020-08-10T08:41:08.717Z</time>
      </trkpt>
      <trkpt lat="64.29156" lon="10.53668">
        <ele>64.890889</ele>
        <time>2020-08-10T08:41:09.742Z</time>
      </trkpt>
      <trkpt lat="64.29164" lon="10.53692">
        <ele>64.258478</ele>
        <time>2020-08-10T08:41:10.758Z</time>
      </trkpt>
      <trkpt lat="64.2917" lon="10.53719">
        <ele>63.620244</ele>
        <time>2020-08-10T08:41:11.734Z</time>
      </trkpt>
      <trkpt lat="64.29175" lon="10.53747">
        <ele>62.973515</ele>
        <time>2020-08-10T08:41:12.716Z</time>
      </trkpt>
      <trkpt lat="64.29179" lon="10.53777">
        <ele>62.240283</ele>
        <time>2020-08-10T08:41:13.714Z</time>
      </trkpt>
      <trkpt lat="64.2918" lon="10.53806">
        <ele>61.35006</ele>
        <time>2020-08-10T08:41:14.723Z</time>
      </trkpt>
      <trkpt lat="64.2918" lon="10.53835">
        <ele>60.467079</ele>
        <time>2020-08-10T08:41:15.763Z</time>
      </trkpt>
      <trkpt lat="64.29178" lon="10.53862">
        <ele>59.629621</ele>
        <time>2020-08-10T08:41:16.745Z</time>
      </trkpt>
      <trkpt lat="64.29176" lon="10.53889">
        <ele>58.795289</ele>
        <time>2020-08-10T08:41:17.733Z</time>
      </trkpt>
      <trkpt lat="64.29172" lon="10.53916">
        <ele>57.929027</ele>
        <time>2020-08-10T08:41:18.710Z</time>
      </trkpt>
      <trkpt lat="64.29168" lon="10.53942">
        <ele>57.101408</ele>
        <time>2020-08-10T08:41:19.756Z</time>
      </trkpt>
      <trkpt lat="64.29164" lon="10.53967">
        <ele>56.302169</ele>
        <time>2020-08-10T08:41:20.750Z</time>
      </trkpt>
      <trkpt lat="64.2916" lon="10.5399">
        <ele>55.549184</ele>
        <time>2020-08-10T08:41:21.705Z</time>
      </trkpt>
      <trkpt lat="64.29157" lon="10.54012">
        <ele>54.856949</ele>
        <time>2020-08-10T08:41:22.724Z</time>
      </trkpt>
      <trkpt lat="64.29155" lon="10.54032">
        <ele>54.21183</ele>
        <time>2020-08-10T08:41:23.718Z</time>
      </trkpt>
      <trkpt lat="64.29151" lon="10.54071">
        <ele>53.01145</ele>
        <time>2020-08-10T08:41:25.737Z</time>
      </trkpt>
      <trkpt lat="64.29149" lon="10.54108">
        <ele>51.882515</ele>
        <time>2020-08-10T08:41:27.719Z</time>
      </trkpt>
      <trkpt lat="64.29147" lon="10.54142">
        <ele>50.841518</ele>
        <time>2020-08-10T08:41:29.735Z</time>
      </trkpt>
      <trkpt lat="64.29146" lon="10.54173">
        <ele>49.954249</ele>
        <time>2020-08-10T08:41:31.738Z</time>
      </trkpt>
      <trkpt lat="64.29146" lon="10.54201">
        <ele>50.141293</ele>
        <time>2020-08-10T08:41:33.714Z</time>
      </trkpt>
      <trkpt lat="64.29147" lon="10.5423">
        <ele>50.327715</ele>
        <time>2020-08-10T08:41:35.706Z</time>
      </trkpt>
      <trkpt lat="64.29147" lon="10.54257">
        <ele>50.50694</ele>
        <time>2020-08-10T08:41:37.721Z</time>
      </trkpt>
      <trkpt lat="64.29147" lon="10.54282">
        <ele>50.668546</ele>
        <time>2020-08-10T08:41:39.717Z</time>
      </trkpt>
      <trkpt lat="64.29146" lon="10.54306">
        <ele>50.821798</ele>
        <time>2020-08-10T08:41:41.732Z</time>
      </trkpt>
      <trkpt lat="64.29146" lon="10.54327">
        <ele>50.962751</ele>
        <time>2020-08-10T08:41:43.734Z</time>
      </trkpt>
      <trkpt lat="64.29145" lon="10.54356">
        <ele>51.151941</ele>
        <time>2020-08-10T08:41:46.716Z</time>
      </trkpt>
      <trkpt lat="64.29145" lon="10.54383">
        <ele>51.328636</ele>
        <time>2020-08-10T08:41:49.720Z</time>
      </trkpt>
      <trkpt lat="64.29145" lon="10.5441">
        <ele>51.502623</ele>
        <time>2020-08-10T08:41:52.739Z</time>
      </trkpt>
      <trkpt lat="64.29143" lon="10.54438">
        <ele>51.687718</ele>
        <time>2020-08-10T08:41:55.720Z</time>
      </trkpt>
      <trkpt lat="64.29142" lon="10.54465">
        <ele>51.863357</ele>
        <time>2020-08-10T08:41:58.721Z</time>
      </trkpt>
      <trkpt lat="64.29139" lon="10.54493">
        <ele>52.046498</ele>
        <time>2020-08-10T08:42:01.713Z</time>
      </trkpt>
      <trkpt lat="64.29136" lon="10.54521">
        <ele>52.242022</ele>
        <time>2020-08-10T08:42:04.704Z</time>
      </trkpt>
      <trkpt lat="64.29132" lon="10.54549">
        <ele>52.432759</ele>
        <time>2020-08-10T08:42:07.708Z</time>
      </trkpt>
      <trkpt lat="64.29128" lon="10.54575">
        <ele>52.612255</ele>
        <time>2020-08-10T08:42:10.728Z</time>
      </trkpt>
      <trkpt lat="64.29125" lon="10.54598">
        <ele>52.953509</ele>
        <time>2020-08-10T08:42:13.708Z</time>
      </trkpt>
      <trkpt lat="64.29123" lon="10.5462">
        <ele>53.340444</ele>
        <time>2020-08-10T08:42:16.719Z</time>
      </trkpt>
      <trkpt lat="64.2912" lon="10.54643">
        <ele>53.728955</ele>
        <time>2020-08-10T08:42:19.735Z</time>
      </trkpt>
      <trkpt lat="64.29118" lon="10.54667">
        <ele>54.138108</ele>
        <time>2020-08-10T08:42:22.708Z</time>
      </trkpt>
      <trkpt lat="64.29117" lon="10.54688">
        <ele>54.500237</ele>
        <time>2020-08-10T08:42:25.715Z</time>
      </trkpt>
      <trkpt lat="64.29117" lon="10.5471">
        <ele>54.872231</ele>
        <time>2020-08-10T08:42:28.719Z</time>
      </trkpt>
      <trkpt lat="64.29116" lon="10.54732">
        <ele>55.237511</ele>
        <time>2020-08-10T08:42:31.748Z</time>
      </trkpt>
      <trkpt lat="64.29116" lon="10.54754">
        <ele>55.609183</ele>
        <time>2020-08-10T08:42:34.728Z</time>
      </trkpt>
      <trkpt lat="64.29117" lon="10.54781">
        <ele>56.06867</ele>
        <time>2020-08-10T08:42:38.711Z</time>
      </trkpt>
      <trkpt lat="64.29118" lon="10.54802">
        <ele>56.41908</ele>
        <time>2020-08-10T08:42:41.719Z</time>
      </trkpt>
      <trkpt lat="64.29118" lon="10.54823">
        <ele>56.7721</ele>
        <time>2020-08-10T08:42:44.724Z</time>
      </trkpt>
      <trkpt lat="64.29117" lon="10.54844">
        <ele>57.121823</ele>
        <time>2020-08-10T08:42:47.720Z</time>
      </trkpt>
      <trkpt lat="64.29117" lon="10.54868">
        <ele>57.523644</ele>
        <time>2020-08-10T08:42:50.711Z</time>
      </trkpt>
      <trkpt lat="64.29117" lon="10.54891">
        <ele>57.918743</ele>
        <time>2020-08-10T08:42:53.721Z</time>
      </trkpt>
      <trkpt lat="64.29117" lon="10.54915">
        <ele>58.322189</ele>
        <time>2020-08-10T08:42:56.710Z</time>
      </trkpt>
      <trkpt lat="64.29117" lon="10.54939">
        <ele>58.729145</ele>
        <time>2020-08-10T08:42:59.735Z</time>
      </trkpt>
      <trkpt lat="64.29116" lon="10.54967">
        <ele>59.19853</ele>
        <time>2020-08-10T08:43:02.727Z</time>
      </trkpt>
      <trkpt lat="64.29116" lon="10.54988">
        <ele>59.555417</ele>
        <time>2020-08-10T08:43:04.716Z</time>
      </trkpt>
      <trkpt lat="64.29114" lon="10.55012">
        <ele>59.460853</ele>
        <time>2020-08-10T08:43:06.729Z</time>
      </trkpt>
      <trkpt lat="64.29113" lon="10.55037">
        <ele>59.255416</ele>
        <time>2020-08-10T08:43:08.723Z</time>
      </trkpt>
      <trkpt lat="64.2911" lon="10.55066">
        <ele>59.027112</ele>
        <time>2020-08-10T08:43:10.704Z</time>
      </trkpt>
      <trkpt lat="64.29107" lon="10.55096">
        <ele>58.778868</ele>
        <time>2020-08-10T08:43:12.709Z</time>
      </trkpt>
      <trkpt lat="64.29103" lon="10.55126">
        <ele>58.527828</ele>
        <time>2020-08-10T08:43:14.719Z</time>
      </trkpt>
      <trkpt lat="64.29099" lon="10.55157">
        <ele>58.274022</ele>
        <time>2020-08-10T08:43:16.722Z</time>
      </trkpt>
      <trkpt lat="64.29094" lon="10.55187">
        <ele>58.022093</ele>
        <time>2020-08-10T08:43:18.740Z</time>
      </trkpt>
      <trkpt lat="64.2909" lon="10.55218">
        <ele>57.763469</ele>
        <time>2020-08-10T08:43:20.764Z</time>
      </trkpt>
      <trkpt lat="64.29085" lon="10.55248">
        <ele>57.518289</ele>
        <time>2020-08-10T08:43:22.702Z</time>
      </trkpt>
      <trkpt lat="64.29083" lon="10.55275">
        <ele>57.295066</ele>
        <time>2020-08-10T08:43:24.748Z</time>
      </trkpt>
      <trkpt lat="64.2908" lon="10.55299">
        <ele>57.101607</ele>
        <time>2020-08-10T08:43:26.733Z</time>
      </trkpt>
      <trkpt lat="64.29078" lon="10.55322">
        <ele>56.918913</ele>
        <time>2020-08-10T08:43:28.706Z</time>
      </trkpt>
      <trkpt lat="64.29077" lon="10.55343">
        <ele>56.752312</ele>
        <time>2020-08-10T08:43:30.703Z</time>
      </trkpt>
      <trkpt lat="64.29076" lon="10.55363">
        <ele>56.587026</ele>
        <time>2020-08-10T08:43:32.719Z</time>
      </trkpt>
      <trkpt lat="64.29074" lon="10.55384">
        <ele>56.423289</ele>
        <time>2020-08-10T08:43:34.719Z</time>
      </trkpt>
      <trkpt lat="64.29073" lon="10.55404">
        <ele>56.176202</ele>
        <time>2020-08-10T08:43:36.707Z</time>
      </trkpt>
      <trkpt lat="64.2907" lon="10.55426">
        <ele>55.83172</ele>
        <time>2020-08-10T08:43:38.730Z</time>
      </trkpt>
      <trkpt lat="64.29067" lon="10.55446">
        <ele>55.50259</ele>
        <time>2020-08-10T08:43:40.730Z</time>
      </trkpt>
      <trkpt lat="64.29064" lon="10.55465">
        <ele>55.179083</ele>
        <time>2020-08-10T08:43:42.722Z</time>
      </trkpt>
      <trkpt lat="64.29061" lon="10.55485">
        <ele>54.853908</ele>
        <time>2020-08-10T08:43:44.714Z</time>
      </trkpt>
      <trkpt lat="64.29056" lon="10.55514">
        <ele>54.379346</ele>
        <time>2020-08-10T08:43:47.741Z</time>
      </trkpt>
      <trkpt lat="64.29053" lon="10.55534">
        <ele>54.047114</ele>
        <time>2020-08-10T08:43:49.719Z</time>
      </trkpt>
      <trkpt lat="64.2905" lon="10.55554">
        <ele>53.716096</ele>
        <time>2020-08-10T08:43:51.708Z</time>
      </trkpt>
      <trkpt lat="64.29046" lon="10.55583">
        <ele>53.250878</ele>
        <time>2020-08-10T08:43:54.723Z</time>
      </trkpt>
      <trkpt lat="64.29043" lon="10.55611">
        <ele>52.801981</ele>
        <time>2020-08-10T08:43:57.751Z</time>
      </trkpt>
      <trkpt lat="64.2904" lon="10.55638">
        <ele>52.364234</ele>
        <time>2020-08-10T08:44:00.726Z</time>
      </trkpt>
      <trkpt lat="64.29036" lon="10.55664">
        <ele>51.929732</ele>
        <time>2020-08-10T08:44:03.789Z</time>
      </trkpt>
      <trkpt lat="64.29028" lon="10.55682">
        <ele>51.547524</ele>
        <time>2020-08-10T08:44:06.718Z</time>
      </trkpt>
      <trkpt lat="64.29018" lon="10.5569">
        <ele>51.16162</ele>
        <time>2020-08-10T08:44:09.727Z</time>
      </trkpt>
      <trkpt lat="64.29011" lon="10.55705">
        <ele>50.808117</ele>
        <time>2020-08-10T08:44:13.723Z</time>
      </trkpt>
      <trkpt lat="64.29005" lon="10.55726">
        <ele>50.421187</ele>
        <time>2020-08-10T08:44:18.738Z</time>
      </trkpt>
      <trkpt lat="64.29014" lon="10.55726">
        <ele>50.095593</ele>
        <time>2020-08-10T08:48:49.720Z</time>
      </trkpt>
      <trkpt lat="64.29017" lon="10.55704">
        <ele>50.123573</ele>
        <time>2020-08-10T08:48:53.724Z</time>
      </trkpt>
      <trkpt lat="64.29023" lon="10.55685">
        <ele>50.60349</ele>
        <time>2020-08-10T08:48:57.731Z</time>
      </trkpt>
      <trkpt lat="64.2903" lon="10.55701">
        <ele>51.079574</ele>
        <time>2020-08-10T08:49:02.709Z</time>
      </trkpt>
      <trkpt lat="64.29026" lon="10.55722">
        <ele>51.528388</ele>
        <time>2020-08-10T08:49:05.716Z</time>
      </trkpt>
      <trkpt lat="64.29021" lon="10.55741">
        <ele>51.986055</ele>
        <time>2020-08-10T08:49:08.719Z</time>
      </trkpt>
      <trkpt lat="64.29016" lon="10.55764">
        <ele>52.484396</ele>
        <time>2020-08-10T08:49:12.748Z</time>
      </trkpt>
      <trkpt lat="64.29011" lon="10.55787">
        <ele>53.005688</ele>
        <time>2020-08-10T08:49:16.716Z</time>
      </trkpt>
      <trkpt lat="64.29007" lon="10.55806">
        <ele>53.419721</ele>
        <time>2020-08-10T08:49:19.720Z</time>
      </trkpt>
      <trkpt lat="64.29002" lon="10.5583">
        <ele>53.952645</ele>
        <time>2020-08-10T08:49:23.735Z</time>
      </trkpt>
      <trkpt lat="64.28998" lon="10.55853">
        <ele>54.453175</ele>
        <time>2020-08-10T08:49:27.708Z</time>
      </trkpt>
      <trkpt lat="64.28994" lon="10.55873">
        <ele>54.901897</ele>
        <time>2020-08-10T08:49:31.725Z</time>
      </trkpt>
      <trkpt lat="64.2899" lon="10.55896">
        <ele>55.375641</ele>
        <time>2020-08-10T08:49:36.702Z</time>
      </trkpt>
      <trkpt lat="64.28987" lon="10.55917">
        <ele>55.834676</ele>
        <time>2020-08-10T08:49:41.707Z</time>
      </trkpt>
      <trkpt lat="64.28982" lon="10.55939">
        <ele>56.320225</ele>
        <time>2020-08-10T08:49:46.743Z</time>
      </trkpt>
      <trkpt lat="64.2898" lon="10.55961">
        <ele>56.769207</ele>
        <time>2020-08-10T08:49:52.718Z</time>
      </trkpt>
      <trkpt lat="64.28975" lon="10.55981">
        <ele>57.222747</ele>
        <time>2020-08-10T08:49:56.710Z</time>
      </trkpt>
      <trkpt lat="64.2897" lon="10.56001">
        <ele>57.683012</ele>
        <time>2020-08-10T08:50:01.712Z</time>
      </trkpt>
      <trkpt lat="64.28965" lon="10.5602">
        <ele>58.129789</ele>
        <time>2020-08-10T08:50:06.725Z</time>
      </trkpt>
      <trkpt lat="64.28959" lon="10.56035">
        <ele>58.721182</ele>
        <time>2020-08-10T08:50:10.721Z</time>
      </trkpt>
      <trkpt lat="64.28952" lon="10.56052">
        <ele>59.410757</ele>
        <time>2020-08-10T08:50:15.722Z</time>
      </trkpt>
      <trkpt lat="64.28945" lon="10.56068">
        <ele>60.05437</ele>
        <time>2020-08-10T08:50:20.709Z</time>
      </trkpt>
      <trkpt lat="64.28938" lon="10.56088">
        <ele>60.797058</ele>
        <time>2020-08-10T08:50:26.704Z</time>
      </trkpt>
      <trkpt lat="64.28931" lon="10.561">
        <ele>61.419223</ele>
        <time>2020-08-10T08:50:32.714Z</time>
      </trkpt>
      <trkpt lat="64.28922" lon="10.56114">
        <ele>62.137485</ele>
        <time>2020-08-10T08:50:37.730Z</time>
      </trkpt>
      <trkpt lat="64.28913" lon="10.56124">
        <ele>62.824232</ele>
        <time>2020-08-10T08:50:43.719Z</time>
      </trkpt>
      <trkpt lat="64.28904" lon="10.56133">
        <ele>63.447118</ele>
        <time>2020-08-10T08:50:48.730Z</time>
      </trkpt>
      <trkpt lat="64.28895" lon="10.56144">
        <ele>64.140125</ele>
        <time>2020-08-10T08:50:53.744Z</time>
      </trkpt>
      <trkpt lat="64.28887" lon="10.56155">
        <ele>64.810365</ele>
        <time>2020-08-10T08:51:00.759Z</time>
      </trkpt>
      <trkpt lat="64.28879" lon="10.56165">
        <ele>65.425921</ele>
        <time>2020-08-10T08:51:05.723Z</time>
      </trkpt>
      <trkpt lat="64.2887" lon="10.56176">
        <ele>66.079377</ele>
        <time>2020-08-10T08:51:10.721Z</time>
      </trkpt>
      <trkpt lat="64.28862" lon="10.56186">
        <ele>66.694732</ele>
        <time>2020-08-10T08:51:15.710Z</time>
      </trkpt>
      <trkpt lat="64.28855" lon="10.56203">
        <ele>67.380379</ele>
        <time>2020-08-10T08:51:21.726Z</time>
      </trkpt>
      <trkpt lat="64.28848" lon="10.56219">
        <ele>68.075599</ele>
        <time>2020-08-10T08:51:27.714Z</time>
      </trkpt>
      <trkpt lat="64.28842" lon="10.56239">
        <ele>68.793009</ele>
        <time>2020-08-10T08:51:33.720Z</time>
      </trkpt>
      <trkpt lat="64.28835" lon="10.56257">
        <ele>69.469151</ele>
        <time>2020-08-10T08:51:38.725Z</time>
      </trkpt>
      <trkpt lat="64.28832" lon="10.56277">
        <ele>70.099124</ele>
        <time>2020-08-10T08:51:43.728Z</time>
      </trkpt>
      <trkpt lat="64.28826" lon="10.56297">
        <ele>70.565193</ele>
        <time>2020-08-10T08:51:48.722Z</time>
      </trkpt>
      <trkpt lat="64.28822" lon="10.56315">
        <ele>70.870769</ele>
        <time>2020-08-10T08:51:53.724Z</time>
      </trkpt>
      <trkpt lat="64.28817" lon="10.56336">
        <ele>71.21615</ele>
        <time>2020-08-10T08:51:58.746Z</time>
      </trkpt>
      <trkpt lat="64.28814" lon="10.5636">
        <ele>71.580018</ele>
        <time>2020-08-10T08:52:04.707Z</time>
      </trkpt>
      <trkpt lat="64.28812" lon="10.56382">
        <ele>71.904025</ele>
        <time>2020-08-10T08:52:09.709Z</time>
      </trkpt>
      <trkpt lat="64.28809" lon="10.56402">
        <ele>72.226349</ele>
        <time>2020-08-10T08:52:14.712Z</time>
      </trkpt>
      <trkpt lat="64.28808" lon="10.56427">
        <ele>72.590806</ele>
        <time>2020-08-10T08:52:19.737Z</time>
      </trkpt>
      <trkpt lat="64.28808" lon="10.56448">
        <ele>72.897683</ele>
        <time>2020-08-10T08:52:23.746Z</time>
      </trkpt>
      <trkpt lat="64.28808" lon="10.56471">
        <ele>73.227831</ele>
        <time>2020-08-10T08:52:27.714Z</time>
      </trkpt>
      <trkpt lat="64.2881" lon="10.56494">
        <ele>73.56804</ele>
        <time>2020-08-10T08:52:31.737Z</time>
      </trkpt>
      <trkpt lat="64.28812" lon="10.56517">
        <ele>73.918464</ele>
        <time>2020-08-10T08:52:35.718Z</time>
      </trkpt>
      <trkpt lat="64.28816" lon="10.56542">
        <ele>74.300112</ele>
        <time>2020-08-10T08:52:39.713Z</time>
      </trkpt>
      <trkpt lat="64.28818" lon="10.56567">
        <ele>74.677214</ele>
        <time>2020-08-10T08:52:43.747Z</time>
      </trkpt>
      <trkpt lat="64.28823" lon="10.56591">
        <ele>75.070013</ele>
        <time>2020-08-10T08:52:47.722Z</time>
      </trkpt>
      <trkpt lat="64.28828" lon="10.56611">
        <ele>75.394925</ele>
        <time>2020-08-10T08:52:50.755Z</time>
      </trkpt>
      <trkpt lat="64.28833" lon="10.56632">
        <ele>75.738316</ele>
        <time>2020-08-10T08:52:53.757Z</time>
      </trkpt>
      <trkpt lat="64.28838" lon="10.56653">
        <ele>76.087857</ele>
        <time>2020-08-10T08:52:56.723Z</time>
      </trkpt>
      <trkpt lat="64.28842" lon="10.56674">
        <ele>76.417667</ele>
        <time>2020-08-10T08:52:59.728Z</time>
      </trkpt>
      <trkpt lat="64.28845" lon="10.567">
        <ele>76.604325</ele>
        <time>2020-08-10T08:53:02.729Z</time>
      </trkpt>
      <trkpt lat="64.28847" lon="10.56729">
        <ele>76.807873</ele>
        <time>2020-08-10T08:53:05.707Z</time>
      </trkpt>
      <trkpt lat="64.28849" lon="10.5675">
        <ele>76.959305</ele>
        <time>2020-08-10T08:53:07.706Z</time>
      </trkpt>
      <trkpt lat="64.2885" lon="10.56781">
        <ele>77.170988</ele>
        <time>2020-08-10T08:53:10.714Z</time>
      </trkpt>
      <trkpt lat="64.28848" lon="10.56802">
        <ele>77.319578</ele>
        <time>2020-08-10T08:53:12.723Z</time>
      </trkpt>
      <trkpt lat="64.28846" lon="10.56823">
        <ele>77.46755</ele>
        <time>2020-08-10T08:53:14.729Z</time>
      </trkpt>
      <trkpt lat="64.28841" lon="10.56845">
        <ele>77.639612</ele>
        <time>2020-08-10T08:53:16.719Z</time>
      </trkpt>
      <trkpt lat="64.28836" lon="10.56867">
        <ele>77.811466</ele>
        <time>2020-08-10T08:53:18.736Z</time>
      </trkpt>
      <trkpt lat="64.2883" lon="10.56888">
        <ele>77.988035</ele>
        <time>2020-08-10T08:53:20.756Z</time>
      </trkpt>
      <trkpt lat="64.28824" lon="10.56906">
        <ele>78.142333</ele>
        <time>2020-08-10T08:53:22.720Z</time>
      </trkpt>
      <trkpt lat="64.28816" lon="10.5692">
        <ele>78.296173</ele>
        <time>2020-08-10T08:53:24.724Z</time>
      </trkpt>
      <trkpt lat="64.28808" lon="10.56934">
        <ele>78.461811</ele>
        <time>2020-08-10T08:53:26.738Z</time>
      </trkpt>
      <trkpt lat="64.28799" lon="10.56949">
        <ele>78.639794</ele>
        <time>2020-08-10T08:53:29.714Z</time>
      </trkpt>
      <trkpt lat="64.2879" lon="10.56965">
        <ele>78.813866</ele>
        <time>2020-08-10T08:53:32.737Z</time>
      </trkpt>
      <trkpt lat="64.28781" lon="10.56977">
        <ele>78.979651</ele>
        <time>2020-08-10T08:53:35.757Z</time>
      </trkpt>
      <trkpt lat="64.28774" lon="10.56991">
        <ele>79.128794</ele>
        <time>2020-08-10T08:53:38.744Z</time>
      </trkpt>
      <trkpt lat="64.28767" lon="10.57011">
        <ele>79.406527</ele>
        <time>2020-08-10T08:53:42.711Z</time>
      </trkpt>
      <trkpt lat="64.2876" lon="10.5703">
        <ele>80.019934</ele>
        <time>2020-08-10T08:53:47.720Z</time>
      </trkpt>
      <trkpt lat="64.28755" lon="10.57049">
        <ele>80.585482</ele>
        <time>2020-08-10T08:53:52.717Z</time>
      </trkpt>
      <trkpt lat="64.28751" lon="10.57068">
        <ele>81.120539</ele>
        <time>2020-08-10T08:53:56.715Z</time>
      </trkpt>
      <trkpt lat="64.2875" lon="10.57089">
        <ele>81.643156</ele>
        <time>2020-08-10T08:54:01.717Z</time>
      </trkpt>
      <trkpt lat="64.28744" lon="10.57107">
        <ele>82.231478</ele>
        <time>2020-08-10T08:54:06.768Z</time>
      </trkpt>
      <trkpt lat="64.28737" lon="10.57123">
        <ele>82.801045</ele>
        <time>2020-08-10T08:54:11.713Z</time>
      </trkpt>
      <trkpt lat="64.28731" lon="10.57138">
        <ele>83.320122</ele>
        <time>2020-08-10T08:54:16.723Z</time>
      </trkpt>
      <trkpt lat="64.28723" lon="10.57153">
        <ele>83.883062</ele>
        <time>2020-08-10T08:54:22.716Z</time>
      </trkpt>
      <trkpt lat="64.28715" lon="10.57163">
        <ele>84.428202</ele>
        <time>2020-08-10T08:54:27.745Z</time>
      </trkpt>
      <trkpt lat="64.28706" lon="10.57171">
        <ele>84.987966</ele>
        <time>2020-08-10T08:54:33.721Z</time>
      </trkpt>
      <trkpt lat="64.28698" lon="10.57181">
        <ele>85.518839</ele>
        <time>2020-08-10T08:54:39.738Z</time>
      </trkpt>
      <trkpt lat="64.28689" lon="10.57185">
        <ele>86.050044</ele>
        <time>2020-08-10T08:54:46.706Z</time>
      </trkpt>
      <trkpt lat="64.28679" lon="10.5719">
        <ele>86.64201</ele>
        <time>2020-08-10T08:54:53.719Z</time>
      </trkpt>
      <trkpt lat="64.2867" lon="10.57195">
        <ele>87.191233</ele>
        <time>2020-08-10T08:54:59.714Z</time>
      </trkpt>
      <trkpt lat="64.2866" lon="10.57196">
        <ele>87.759351</ele>
        <time>2020-08-10T08:55:05.705Z</time>
      </trkpt>
      <trkpt lat="64.2865" lon="10.57194">
        <ele>88.333994</ele>
        <time>2020-08-10T08:55:11.714Z</time>
      </trkpt>
      <trkpt lat="64.28641" lon="10.57197">
        <ele>88.876435</ele>
        <time>2020-08-10T08:55:18.729Z</time>
      </trkpt>
      <trkpt lat="64.28631" lon="10.57196">
        <ele>89.45612</ele>
        <time>2020-08-10T08:55:25.730Z</time>
      </trkpt>
      <trkpt lat="64.28621" lon="10.57192">
        <ele>90.205145</ele>
        <time>2020-08-10T08:55:31.721Z</time>
      </trkpt>
      <trkpt lat="64.28611" lon="10.57191">
        <ele>91.108169</ele>
        <time>2020-08-10T08:55:38.751Z</time>
      </trkpt>
      <trkpt lat="64.28602" lon="10.57193">
        <ele>92.006981</ele>
        <time>2020-08-10T08:55:44.742Z</time>
      </trkpt>
      <trkpt lat="64.28591" lon="10.57193">
        <ele>92.944797</ele>
        <time>2020-08-10T08:55:51.726Z</time>
      </trkpt>
      <trkpt lat="64.28581" lon="10.572">
        <ele>93.921057</ele>
        <time>2020-08-10T08:55:58.767Z</time>
      </trkpt>
      <trkpt lat="64.28572" lon="10.57207">
        <ele>94.796974</ele>
        <time>2020-08-10T08:56:04.730Z</time>
      </trkpt>
      <trkpt lat="64.28563" lon="10.57219">
        <ele>95.733146</ele>
        <time>2020-08-10T08:56:11.714Z</time>
      </trkpt>
      <trkpt lat="64.28554" lon="10.5723">
        <ele>96.704242</ele>
        <time>2020-08-10T08:56:18.706Z</time>
      </trkpt>
      <trkpt lat="64.28546" lon="10.5724">
        <ele>97.544834</ele>
        <time>2020-08-10T08:56:24.717Z</time>
      </trkpt>
      <trkpt lat="64.28538" lon="10.57251">
        <ele>98.393266</ele>
        <time>2020-08-10T08:56:30.732Z</time>
      </trkpt>
      <trkpt lat="64.2853" lon="10.57263">
        <ele>99.278591</ele>
        <time>2020-08-10T08:56:38.742Z</time>
      </trkpt>
      <trkpt lat="64.28522" lon="10.57273">
        <ele>100.113457</ele>
        <time>2020-08-10T08:56:44.719Z</time>
      </trkpt>
      <trkpt lat="64.28514" lon="10.57286">
        <ele>101.000825</ele>
        <time>2020-08-10T08:56:52.745Z</time>
      </trkpt>
      <trkpt lat="64.28506" lon="10.57297">
        <ele>101.847893</ele>
        <time>2020-08-10T08:56:58.714Z</time>
      </trkpt>
      <trkpt lat="64.28498" lon="10.57308">
        <ele>102.718236</ele>
        <time>2020-08-10T08:57:04.733Z</time>
      </trkpt>
      <trkpt lat="64.28489" lon="10.57319">
        <ele>103.696716</ele>
        <time>2020-08-10T08:57:10.728Z</time>
      </trkpt>
      <trkpt lat="64.28481" lon="10.57331">
        <ele>104.521806</ele>
        <time>2020-08-10T08:57:17.738Z</time>
      </trkpt>
      <trkpt lat="64.28474" lon="10.57345">
        <ele>105.384854</ele>
        <time>2020-08-10T08:57:24.710Z</time>
      </trkpt>
      <trkpt lat="64.28468" lon="10.5736">
        <ele>106.223439</ele>
        <time>2020-08-10T08:57:30.750Z</time>
      </trkpt>
      <trkpt lat="64.2846" lon="10.57373">
        <ele>106.444983</ele>
        <time>2020-08-10T08:57:37.730Z</time>
      </trkpt>
      <trkpt lat="64.28453" lon="10.57388">
        <ele>106.664966</ele>
        <time>2020-08-10T08:57:43.718Z</time>
      </trkpt>
      <trkpt lat="64.28446" lon="10.57401">
        <ele>106.87581</ele>
        <time>2020-08-10T08:57:48.734Z</time>
      </trkpt>
      <trkpt lat="64.28438" lon="10.57415">
        <ele>107.103763</ele>
        <time>2020-08-10T08:57:54.729Z</time>
      </trkpt>
      <trkpt lat="64.28431" lon="10.57431">
        <ele>107.323053</ele>
        <time>2020-08-10T08:58:00.728Z</time>
      </trkpt>
      <trkpt lat="64.28424" lon="10.57445">
        <ele>107.542797</ele>
        <time>2020-08-10T08:58:06.721Z</time>
      </trkpt>
      <trkpt lat="64.28416" lon="10.57461">
        <ele>107.785552</ele>
        <time>2020-08-10T08:58:11.725Z</time>
      </trkpt>
      <trkpt lat="64.28408" lon="10.57475">
        <ele>108.017953</ele>
        <time>2020-08-10T08:58:16.758Z</time>
      </trkpt>
      <trkpt lat="64.28399" lon="10.57489">
        <ele>108.277801</ele>
        <time>2020-08-10T08:58:21.747Z</time>
      </trkpt>
      <trkpt lat="64.28391" lon="10.57499">
        <ele>108.485699</ele>
        <time>2020-08-10T08:58:25.705Z</time>
      </trkpt>
      <trkpt lat="64.28382" lon="10.57508">
        <ele>108.721417</ele>
        <time>2020-08-10T08:58:29.727Z</time>
      </trkpt>
      <trkpt lat="64.28373" lon="10.57514">
        <ele>108.935061</ele>
        <time>2020-08-10T08:58:33.722Z</time>
      </trkpt>
      <trkpt lat="64.28363" lon="10.5752">
        <ele>109.174106</ele>
        <time>2020-08-10T08:58:37.758Z</time>
      </trkpt>
      <trkpt lat="64.28353" lon="10.57522">
        <ele>109.402173</ele>
        <time>2020-08-10T08:58:41.741Z</time>
      </trkpt>
      <trkpt lat="64.28343" lon="10.57521">
        <ele>109.635784</ele>
        <time>2020-08-10T08:58:45.727Z</time>
      </trkpt>
      <trkpt lat="64.28333" lon="10.57518">
        <ele>109.863429</ele>
        <time>2020-08-10T08:58:49.713Z</time>
      </trkpt>
      <trkpt lat="64.28323" lon="10.57514">
        <ele>110.09927</ele>
        <time>2020-08-10T08:58:53.733Z</time>
      </trkpt>
      <trkpt lat="64.28312" lon="10.57509">
        <ele>110.354558</ele>
        <time>2020-08-10T08:58:57.743Z</time>
      </trkpt>
      <trkpt lat="64.28303" lon="10.57505">
        <ele>109.978906</ele>
        <time>2020-08-10T08:59:00.705Z</time>
      </trkpt>
      <trkpt lat="64.28293" lon="10.57501">
        <ele>109.457845</ele>
        <time>2020-08-10T08:59:03.737Z</time>
      </trkpt>
      <trkpt lat="64.28282" lon="10.57496">
        <ele>108.900147</ele>
        <time>2020-08-10T08:59:06.718Z</time>
      </trkpt>
      <trkpt lat="64.2827" lon="10.57492">
        <ele>108.315962</ele>
        <time>2020-08-10T08:59:09.714Z</time>
      </trkpt>
      <trkpt lat="64.28258" lon="10.5749">
        <ele>107.729998</ele>
        <time>2020-08-10T08:59:12.720Z</time>
      </trkpt>
      <trkpt lat="64.28246" lon="10.57489">
        <ele>107.100715</ele>
        <time>2020-08-10T08:59:15.725Z</time>
      </trkpt>
      <trkpt lat="64.28233" lon="10.57487">
        <ele>106.446517</ele>
        <time>2020-08-10T08:59:18.708Z</time>
      </trkpt>
      <trkpt lat="64.28224" lon="10.57488">
        <ele>105.997363</ele>
        <time>2020-08-10T08:59:20.716Z</time>
      </trkpt>
      <trkpt lat="64.28214" lon="10.57488">
        <ele>105.498469</ele>
        <time>2020-08-10T08:59:22.730Z</time>
      </trkpt>
      <trkpt lat="64.28203" lon="10.5749">
        <ele>104.983626</ele>
        <time>2020-08-10T08:59:24.727Z</time>
      </trkpt>
      <trkpt lat="64.28193" lon="10.57491">
        <ele>104.458827</ele>
        <time>2020-08-10T08:59:26.711Z</time>
      </trkpt>
      <trkpt lat="64.28182" lon="10.57494">
        <ele>103.902669</ele>
        <time>2020-08-10T08:59:28.751Z</time>
      </trkpt>
      <trkpt lat="64.28172" lon="10.57496">
        <ele>103.386446</ele>
        <time>2020-08-10T08:59:30.727Z</time>
      </trkpt>
      <trkpt lat="64.28161" lon="10.575">
        <ele>102.869173</ele>
        <time>2020-08-10T08:59:32.732Z</time>
      </trkpt>
      <trkpt lat="64.28151" lon="10.57504">
        <ele>102.355048</ele>
        <time>2020-08-10T08:59:35.223Z</time>
      </trkpt>
      <trkpt lat="64.28141" lon="10.57508">
        <ele>101.833622</ele>
        <time>2020-08-10T08:59:36.726Z</time>
      </trkpt>
      <trkpt lat="64.28131" lon="10.57512">
        <ele>101.429543</ele>
        <time>2020-08-10T08:59:38.734Z</time>
      </trkpt>
      <trkpt lat="64.28122" lon="10.57518">
        <ele>101.562434</ele>
        <time>2020-08-10T08:59:40.738Z</time>
      </trkpt>
      <trkpt lat="64.28113" lon="10.57523">
        <ele>101.691785</ele>
        <time>2020-08-10T08:59:42.750Z</time>
      </trkpt>
      <trkpt lat="64.28101" lon="10.57532">
        <ele>101.879031</ele>
        <time>2020-08-10T08:59:45.709Z</time>
      </trkpt>
      <trkpt lat="64.28088" lon="10.5754">
        <ele>102.063964</ele>
        <time>2020-08-10T08:59:48.727Z</time>
      </trkpt>
      <trkpt lat="64.28077" lon="10.57549">
        <ele>102.235546</ele>
        <time>2020-08-10T08:59:51.719Z</time>
      </trkpt>
      <trkpt lat="64.28066" lon="10.57557">
        <ele>102.404613</ele>
        <time>2020-08-10T08:59:54.716Z</time>
      </trkpt>
      <trkpt lat="64.28055" lon="10.57568">
        <ele>102.576132</ele>
        <time>2020-08-10T08:59:57.721Z</time>
      </trkpt>
      <trkpt lat="64.28044" lon="10.57576">
        <ele>102.729199</ele>
        <time>2020-08-10T09:00:00.721Z</time>
      </trkpt>
      <trkpt lat="64.28034" lon="10.57587">
        <ele>102.886894</ele>
        <time>2020-08-10T09:00:03.721Z</time>
      </trkpt>
      <trkpt lat="64.28025" lon="10.57599">
        <ele>103.038836</ele>
        <time>2020-08-10T09:00:06.721Z</time>
      </trkpt>
      <trkpt lat="64.28016" lon="10.57613">
        <ele>103.196518</ele>
        <time>2020-08-10T09:00:09.734Z</time>
      </trkpt>
      <trkpt lat="64.28006" lon="10.57626">
        <ele>103.354976</ele>
        <time>2020-08-10T09:00:12.716Z</time>
      </trkpt>
      <trkpt lat="64.27998" lon="10.57641">
        <ele>103.508036</ele>
        <time>2020-08-10T09:00:15.716Z</time>
      </trkpt>
      <trkpt lat="64.2799" lon="10.57657">
        <ele>103.655013</ele>
        <time>2020-08-10T09:00:18.724Z</time>
      </trkpt>
      <trkpt lat="64.27983" lon="10.57671">
        <ele>103.78919</ele>
        <time>2020-08-10T09:00:21.720Z</time>
      </trkpt>
      <trkpt lat="64.27976" lon="10.57688">
        <ele>103.935596</ele>
        <time>2020-08-10T09:00:24.725Z</time>
      </trkpt>
      <trkpt lat="64.27969" lon="10.57706">
        <ele>104.013844</ele>
        <time>2020-08-10T09:00:27.733Z</time>
      </trkpt>
      <trkpt lat="64.27961" lon="10.57724">
        <ele>104.071095</ele>
        <time>2020-08-10T09:00:30.717Z</time>
      </trkpt>
      <trkpt lat="64.27952" lon="10.57747">
        <ele>104.138709</ele>
        <time>2020-08-10T09:00:33.721Z</time>
      </trkpt>
      <trkpt lat="64.27946" lon="10.57763">
        <ele>104.185193</ele>
        <time>2020-08-10T09:00:35.744Z</time>
      </trkpt>
      <trkpt lat="64.27941" lon="10.5778">
        <ele>104.232374</ele>
        <time>2020-08-10T09:00:37.723Z</time>
      </trkpt>
      <trkpt lat="64.27937" lon="10.578">
        <ele>104.282445</ele>
        <time>2020-08-10T09:00:39.730Z</time>
      </trkpt>
      <trkpt lat="64.27932" lon="10.57821">
        <ele>104.335371</ele>
        <time>2020-08-10T09:00:41.739Z</time>
      </trkpt>
      <trkpt lat="64.27927" lon="10.57843">
        <ele>104.39052</ele>
        <time>2020-08-10T09:00:43.726Z</time>
      </trkpt>
      <trkpt lat="64.27922" lon="10.57868">
        <ele>104.45335</ele>
        <time>2020-08-10T09:00:45.705Z</time>
      </trkpt>
      <trkpt lat="64.27917" lon="10.57898">
        <ele>104.524469</ele>
        <time>2020-08-10T09:00:47.735Z</time>
      </trkpt>
      <trkpt lat="64.27913" lon="10.57931">
        <ele>104.60132</ele>
        <time>2020-08-10T09:00:49.726Z</time>
      </trkpt>
      <trkpt lat="64.2791" lon="10.57968">
        <ele>104.686423</ele>
        <time>2020-08-10T09:00:51.720Z</time>
      </trkpt>
      <trkpt lat="64.27908" lon="10.58007">
        <ele>104.773703</ele>
        <time>2020-08-10T09:00:53.758Z</time>
      </trkpt>
      <trkpt lat="64.27905" lon="10.58049">
        <ele>104.86779</ele>
        <time>2020-08-10T09:00:55.727Z</time>
      </trkpt>
      <trkpt lat="64.27904" lon="10.58071">
        <ele>104.849221</ele>
        <time>2020-08-10T09:00:56.760Z</time>
      </trkpt>
      <trkpt lat="64.27903" lon="10.58094">
        <ele>104.692829</ele>
        <time>2020-08-10T09:00:57.743Z</time>
      </trkpt>
      <trkpt lat="64.27901" lon="10.58117">
        <ele>104.534426</ele>
        <time>2020-08-10T09:00:58.744Z</time>
      </trkpt>
      <trkpt lat="64.27899" lon="10.5814">
        <ele>104.375276</ele>
        <time>2020-08-10T09:00:59.756Z</time>
      </trkpt>
      <trkpt lat="64.27898" lon="10.58163">
        <ele>104.222375</ele>
        <time>2020-08-10T09:01:00.714Z</time>
      </trkpt>
      <trkpt lat="64.27897" lon="10.58184">
        <ele>104.077328</ele>
        <time>2020-08-10T09:01:01.719Z</time>
      </trkpt>
      <trkpt lat="64.27896" lon="10.58206">
        <ele>103.932812</ele>
        <time>2020-08-10T09:01:02.727Z</time>
      </trkpt>
      <trkpt lat="64.27895" lon="10.58226">
        <ele>103.791493</ele>
        <time>2020-08-10T09:01:03.731Z</time>
      </trkpt>
      <trkpt lat="64.27894" lon="10.58266">
        <ele>103.520483</ele>
        <time>2020-08-10T09:01:05.742Z</time>
      </trkpt>
      <trkpt lat="64.27893" lon="10.58303">
        <ele>103.274092</ele>
        <time>2020-08-10T09:01:07.727Z</time>
      </trkpt>
      <trkpt lat="64.27891" lon="10.58337">
        <ele>103.043819</ele>
        <time>2020-08-10T09:01:09.719Z</time>
      </trkpt>
      <trkpt lat="64.27889" lon="10.58368">
        <ele>102.832847</ele>
        <time>2020-08-10T09:01:11.726Z</time>
      </trkpt>
      <trkpt lat="64.27884" lon="10.58395">
        <ele>102.632089</ele>
        <time>2020-08-10T09:01:13.723Z</time>
      </trkpt>
      <trkpt lat="64.27878" lon="10.58418">
        <ele>102.450702</ele>
        <time>2020-08-10T09:01:15.722Z</time>
      </trkpt>
      <trkpt lat="64.27872" lon="10.58437">
        <ele>102.294938</ele>
        <time>2020-08-10T09:01:17.777Z</time>
      </trkpt>
      <trkpt lat="64.27864" lon="10.58459">
        <ele>102.095662</ele>
        <time>2020-08-10T09:01:20.747Z</time>
      </trkpt>
      <trkpt lat="64.27857" lon="10.58481">
        <ele>101.932882</ele>
        <time>2020-08-10T09:01:23.719Z</time>
      </trkpt>
      <trkpt lat="64.2785" lon="10.58503">
        <ele>101.763622</ele>
        <time>2020-08-10T09:01:26.744Z</time>
      </trkpt>
      <trkpt lat="64.27842" lon="10.58524">
        <ele>101.590121</ele>
        <time>2020-08-10T09:01:29.716Z</time>
      </trkpt>
      <trkpt lat="64.27835" lon="10.58542">
        <ele>101.443049</ele>
        <time>2020-08-10T09:01:32.723Z</time>
      </trkpt>
      <trkpt lat="64.2783" lon="10.58561">
        <ele>101.303265</ele>
        <time>2020-08-10T09:01:35.720Z</time>
      </trkpt>
      <trkpt lat="64.27823" lon="10.58581">
        <ele>101.154425</ele>
        <time>2020-08-10T09:01:38.710Z</time>
      </trkpt>
      <trkpt lat="64.27816" lon="10.58601">
        <ele>100.997072</ele>
        <time>2020-08-10T09:01:41.735Z</time>
      </trkpt>
      <trkpt lat="64.2781" lon="10.58619">
        <ele>100.852515</ele>
        <time>2020-08-10T09:01:44.714Z</time>
      </trkpt>
      <trkpt lat="64.27803" lon="10.58637">
        <ele>100.702643</ele>
        <time>2020-08-10T09:01:47.711Z</time>
      </trkpt>
      <trkpt lat="64.27795" lon="10.58656">
        <ele>100.542504</ele>
        <time>2020-08-10T09:01:50.708Z</time>
      </trkpt>
      <trkpt lat="64.27789" lon="10.58677">
        <ele>100.384593</ele>
        <time>2020-08-10T09:01:53.745Z</time>
      </trkpt>
      <trkpt lat="64.27781" lon="10.58698">
        <ele>100.216798</ele>
        <time>2020-08-10T09:01:56.726Z</time>
      </trkpt>
      <trkpt lat="64.27775" lon="10.5872">
        <ele>100.053518</ele>
        <time>2020-08-10T09:01:59.729Z</time>
      </trkpt>
      <trkpt lat="64.27767" lon="10.5874">
        <ele>99.890658</ele>
        <time>2020-08-10T09:02:02.720Z</time>
      </trkpt>
      <trkpt lat="64.27761" lon="10.58759">
        <ele>99.743483</ele>
        <time>2020-08-10T09:02:05.712Z</time>
      </trkpt>
      <trkpt lat="64.27755" lon="10.58779">
        <ele>99.593336</ele>
        <time>2020-08-10T09:02:08.719Z</time>
      </trkpt>
      <trkpt lat="64.27749" lon="10.58798">
        <ele>99.266758</ele>
        <time>2020-08-10T09:02:11.717Z</time>
      </trkpt>
      <trkpt lat="64.27742" lon="10.58816">
        <ele>98.886621</ele>
        <time>2020-08-10T09:02:14.713Z</time>
      </trkpt>
      <trkpt lat="64.27735" lon="10.58835">
        <ele>98.464013</ele>
        <time>2020-08-10T09:02:18.717Z</time>
      </trkpt>
      <trkpt lat="64.27729" lon="10.58851">
        <ele>98.098537</ele>
        <time>2020-08-10T09:02:21.722Z</time>
      </trkpt>
      <trkpt lat="64.27721" lon="10.58871">
        <ele>97.651933</ele>
        <time>2020-08-10T09:02:25.724Z</time>
      </trkpt>
      <trkpt lat="64.27715" lon="10.58889">
        <ele>97.269068</ele>
        <time>2020-08-10T09:02:28.726Z</time>
      </trkpt>
      <trkpt lat="64.27708" lon="10.5891">
        <ele>96.829548</ele>
        <time>2020-08-10T09:02:31.730Z</time>
      </trkpt>
      <trkpt lat="64.27702" lon="10.58933">
        <ele>96.394034</ele>
        <time>2020-08-10T09:02:34.721Z</time>
      </trkpt>
      <trkpt lat="64.27695" lon="10.58957">
        <ele>95.899378</ele>
        <time>2020-08-10T09:02:37.774Z</time>
      </trkpt>
      <trkpt lat="64.27689" lon="10.58974">
        <ele>95.540164</ele>
        <time>2020-08-10T09:02:39.746Z</time>
      </trkpt>
      <trkpt lat="64.27683" lon="10.58994">
        <ele>95.147878</ele>
        <time>2020-08-10T09:02:41.718Z</time>
      </trkpt>
      <trkpt lat="64.27677" lon="10.59016">
        <ele>94.720019</ele>
        <time>2020-08-10T09:02:43.722Z</time>
      </trkpt>
      <trkpt lat="64.27671" lon="10.59041">
        <ele>94.24875</ele>
        <time>2020-08-10T09:02:45.720Z</time>
      </trkpt>
      <trkpt lat="64.27664" lon="10.59066">
        <ele>93.743698</ele>
        <time>2020-08-10T09:02:47.719Z</time>
      </trkpt>
      <trkpt lat="64.27656" lon="10.59094">
        <ele>93.201865</ele>
        <time>2020-08-10T09:02:49.722Z</time>
      </trkpt>
      <trkpt lat="64.27649" lon="10.59122">
        <ele>92.625002</ele>
        <time>2020-08-10T09:02:51.727Z</time>
      </trkpt>
      <trkpt lat="64.27639" lon="10.59151">
        <ele>91.809477</ele>
        <time>2020-08-10T09:02:53.721Z</time>
      </trkpt>
      <trkpt lat="64.27629" lon="10.5918">
        <ele>90.953987</ele>
        <time>2020-08-10T09:02:55.765Z</time>
      </trkpt>
      <trkpt lat="64.27617" lon="10.59206">
        <ele>90.121565</ele>
        <time>2020-08-10T09:02:57.724Z</time>
      </trkpt>
      <trkpt lat="64.27606" lon="10.5923">
        <ele>89.29316</ele>
        <time>2020-08-10T09:02:59.705Z</time>
      </trkpt>
      <trkpt lat="64.27593" lon="10.59254">
        <ele>88.452568</ele>
        <time>2020-08-10T09:03:01.732Z</time>
      </trkpt>
      <trkpt lat="64.27579" lon="10.59275">
        <ele>87.590458</ele>
        <time>2020-08-10T09:03:03.727Z</time>
      </trkpt>
      <trkpt lat="64.27566" lon="10.59296">
        <ele>86.743362</ele>
        <time>2020-08-10T09:03:05.722Z</time>
      </trkpt>
      <trkpt lat="64.27553" lon="10.59318">
        <ele>85.895722</ele>
        <time>2020-08-10T09:03:07.762Z</time>
      </trkpt>
      <trkpt lat="64.2754" lon="10.59342">
        <ele>85.044321</ele>
        <time>2020-08-10T09:03:09.733Z</time>
      </trkpt>
      <trkpt lat="64.27528" lon="10.59365">
        <ele>84.197978</ele>
        <time>2020-08-10T09:03:11.716Z</time>
      </trkpt>
      <trkpt lat="64.27516" lon="10.59388">
        <ele>83.400703</ele>
        <time>2020-08-10T09:03:13.749Z</time>
      </trkpt>
      <trkpt lat="64.27505" lon="10.59412">
        <ele>83.156688</ele>
        <time>2020-08-10T09:03:15.739Z</time>
      </trkpt>
      <trkpt lat="64.27493" lon="10.59437">
        <ele>82.997564</ele>
        <time>2020-08-10T09:03:17.722Z</time>
      </trkpt>
      <trkpt lat="64.27482" lon="10.59464">
        <ele>82.833476</ele>
        <time>2020-08-10T09:03:19.745Z</time>
      </trkpt>
      <trkpt lat="64.27472" lon="10.59492">
        <ele>82.668017</ele>
        <time>2020-08-10T09:03:21.754Z</time>
      </trkpt>
      <trkpt lat="64.27461" lon="10.59522">
        <ele>82.500384</ele>
        <time>2020-08-10T09:03:23.716Z</time>
      </trkpt>
      <trkpt lat="64.27451" lon="10.59552">
        <ele>82.329858</ele>
        <time>2020-08-10T09:03:25.720Z</time>
      </trkpt>
      <trkpt lat="64.2744" lon="10.59581">
        <ele>82.161986</ele>
        <time>2020-08-10T09:03:27.728Z</time>
      </trkpt>
      <trkpt lat="64.27431" lon="10.5961">
        <ele>82.000617</ele>
        <time>2020-08-10T09:03:29.714Z</time>
      </trkpt>
      <trkpt lat="64.27422" lon="10.59638">
        <ele>81.848381</ele>
        <time>2020-08-10T09:03:31.716Z</time>
      </trkpt>
      <trkpt lat="64.27414" lon="10.59665">
        <ele>81.702596</ele>
        <time>2020-08-10T09:03:33.746Z</time>
      </trkpt>
      <trkpt lat="64.27406" lon="10.59692">
        <ele>81.560999</ele>
        <time>2020-08-10T09:03:35.741Z</time>
      </trkpt>
      <trkpt lat="64.27398" lon="10.59719">
        <ele>81.396863</ele>
        <time>2020-08-10T09:03:37.733Z</time>
      </trkpt>
      <trkpt lat="64.27391" lon="10.59745">
        <ele>81.19083</ele>
        <time>2020-08-10T09:03:39.748Z</time>
      </trkpt>
      <trkpt lat="64.27384" lon="10.59771">
        <ele>80.984798</ele>
        <time>2020-08-10T09:03:41.723Z</time>
      </trkpt>
      <trkpt lat="64.27376" lon="10.59798">
        <ele>80.766983</ele>
        <time>2020-08-10T09:03:43.755Z</time>
      </trkpt>
      <trkpt lat="64.27368" lon="10.59828">
        <ele>80.527118</ele>
        <time>2020-08-10T09:03:45.716Z</time>
      </trkpt>
      <trkpt lat="64.27359" lon="10.59861">
        <ele>80.269287</ele>
        <time>2020-08-10T09:03:47.719Z</time>
      </trkpt>
      <trkpt lat="64.27349" lon="10.59896">
        <ele>79.992984</ele>
        <time>2020-08-10T09:03:49.721Z</time>
      </trkpt>
      <trkpt lat="64.27345" lon="10.59915">
        <ele>79.849757</ele>
        <time>2020-08-10T09:03:50.721Z</time>
      </trkpt>
      <trkpt lat="64.2734" lon="10.59934">
        <ele>79.705934</ele>
        <time>2020-08-10T09:03:51.735Z</time>
      </trkpt>
      <trkpt lat="64.27336" lon="10.59953">
        <ele>79.563564</ele>
        <time>2020-08-10T09:03:52.714Z</time>
      </trkpt>
      <trkpt lat="64.27331" lon="10.59971">
        <ele>79.422473</ele>
        <time>2020-08-10T09:03:53.746Z</time>
      </trkpt>
      <trkpt lat="64.27327" lon="10.59989">
        <ele>79.283111</ele>
        <time>2020-08-10T09:03:54.751Z</time>
      </trkpt>
      <trkpt lat="64.27322" lon="10.60007">
        <ele>79.143364</ele>
        <time>2020-08-10T09:03:55.719Z</time>
      </trkpt>
      <trkpt lat="64.27314" lon="10.60043">
        <ele>78.872574</ele>
        <time>2020-08-10T09:03:57.728Z</time>
      </trkpt>
      <trkpt lat="64.27306" lon="10.60077">
        <ele>78.700286</ele>
        <time>2020-08-10T09:03:59.775Z</time>
      </trkpt>
      <trkpt lat="64.273" lon="10.60108">
        <ele>78.714325</ele>
        <time>2020-08-10T09:04:01.710Z</time>
      </trkpt>
      <trkpt lat="64.27293" lon="10.60136">
        <ele>78.72745</ele>
        <time>2020-08-10T09:04:03.744Z</time>
      </trkpt>
      <trkpt lat="64.27288" lon="10.60165">
        <ele>78.739985</ele>
        <time>2020-08-10T09:04:05.711Z</time>
      </trkpt>
      <trkpt lat="64.27284" lon="10.60192">
        <ele>78.751776</ele>
        <time>2020-08-10T09:04:07.724Z</time>
      </trkpt>
      <trkpt lat="64.2728" lon="10.60217">
        <ele>78.762636</ele>
        <time>2020-08-10T09:04:09.730Z</time>
      </trkpt>
      <trkpt lat="64.27277" lon="10.6024">
        <ele>78.772406</ele>
        <time>2020-08-10T09:04:11.717Z</time>
      </trkpt>
      <trkpt lat="64.27274" lon="10.6026">
        <ele>78.780922</ele>
        <time>2020-08-10T09:04:13.734Z</time>
      </trkpt>
      <trkpt lat="64.27272" lon="10.6028">
        <ele>78.789478</ele>
        <time>2020-08-10T09:04:15.719Z</time>
      </trkpt>
      <trkpt lat="64.27268" lon="10.60299">
        <ele>78.798047</ele>
        <time>2020-08-10T09:04:17.720Z</time>
      </trkpt>
      <trkpt lat="64.27265" lon="10.60319">
        <ele>78.80673</ele>
        <time>2020-08-10T09:04:19.744Z</time>
      </trkpt>
      <trkpt lat="64.27262" lon="10.6034">
        <ele>78.815535</ele>
        <time>2020-08-10T09:04:21.747Z</time>
      </trkpt>
      <trkpt lat="64.27257" lon="10.60369">
        <ele>78.82813</ele>
        <time>2020-08-10T09:04:24.731Z</time>
      </trkpt>
      <trkpt lat="64.27254" lon="10.60389">
        <ele>78.837185</ele>
        <time>2020-08-10T09:04:26.728Z</time>
      </trkpt>
      <trkpt lat="64.27249" lon="10.60409">
        <ele>78.846615</ele>
        <time>2020-08-10T09:04:28.751Z</time>
      </trkpt>
      <trkpt lat="64.27244" lon="10.6043">
        <ele>78.856253</ele>
        <time>2020-08-10T09:04:30.720Z</time>
      </trkpt>
      <trkpt lat="64.2724" lon="10.60452">
        <ele>78.831799</ele>
        <time>2020-08-10T09:04:32.760Z</time>
      </trkpt>
      <trkpt lat="64.27237" lon="10.60476">
        <ele>78.578139</ele>
        <time>2020-08-10T09:04:34.734Z</time>
      </trkpt>
      <trkpt lat="64.27233" lon="10.60501">
        <ele>78.320931</ele>
        <time>2020-08-10T09:04:36.714Z</time>
      </trkpt>
      <trkpt lat="64.2723" lon="10.60526">
        <ele>78.059905</ele>
        <time>2020-08-10T09:04:38.730Z</time>
      </trkpt>
      <trkpt lat="64.27227" lon="10.60553">
        <ele>77.786527</ele>
        <time>2020-08-10T09:04:40.738Z</time>
      </trkpt>
      <trkpt lat="64.27226" lon="10.60581">
        <ele>77.505023</ele>
        <time>2020-08-10T09:04:42.723Z</time>
      </trkpt>
      <trkpt lat="64.27225" lon="10.60611">
        <ele>77.203735</ele>
        <time>2020-08-10T09:04:44.743Z</time>
      </trkpt>
      <trkpt lat="64.27223" lon="10.60641">
        <ele>76.90516</ele>
        <time>2020-08-10T09:04:46.734Z</time>
      </trkpt>
      <trkpt lat="64.27221" lon="10.6067">
        <ele>76.609799</ele>
        <time>2020-08-10T09:04:48.721Z</time>
      </trkpt>
      <trkpt lat="64.27218" lon="10.60699">
        <ele>76.321901</ele>
        <time>2020-08-10T09:04:50.738Z</time>
      </trkpt>
      <trkpt lat="64.27215" lon="10.60727">
        <ele>76.034099</ele>
        <time>2020-08-10T09:04:52.737Z</time>
      </trkpt>
      <trkpt lat="64.27212" lon="10.60754">
        <ele>75.748217</ele>
        <time>2020-08-10T09:04:54.727Z</time>
      </trkpt>
      <trkpt lat="64.27207" lon="10.60781">
        <ele>75.464783</ele>
        <time>2020-08-10T09:04:56.738Z</time>
      </trkpt>
      <trkpt lat="64.27203" lon="10.60807">
        <ele>75.179873</ele>
        <time>2020-08-10T09:04:58.731Z</time>
      </trkpt>
      <trkpt lat="64.27198" lon="10.60831">
        <ele>74.915711</ele>
        <time>2020-08-10T09:05:00.725Z</time>
      </trkpt>
      <trkpt lat="64.27191" lon="10.60855">
        <ele>74.670953</ele>
        <time>2020-08-10T09:05:02.733Z</time>
      </trkpt>
      <trkpt lat="64.27185" lon="10.60879">
        <ele>74.490614</ele>
        <time>2020-08-10T09:05:04.717Z</time>
      </trkpt>
      <trkpt lat="64.27178" lon="10.60901">
        <ele>74.314697</ele>
        <time>2020-08-10T09:05:06.719Z</time>
      </trkpt>
      <trkpt lat="64.27171" lon="10.60919">
        <ele>74.145755</ele>
        <time>2020-08-10T09:05:08.721Z</time>
      </trkpt>
      <trkpt lat="64.27163" lon="10.60935">
        <ele>73.987341</ele>
        <time>2020-08-10T09:05:10.715Z</time>
      </trkpt>
      <trkpt lat="64.27154" lon="10.6095">
        <ele>73.827971</ele>
        <time>2020-08-10T09:05:12.718Z</time>
      </trkpt>
      <trkpt lat="64.27147" lon="10.60965">
        <ele>73.679583</ele>
        <time>2020-08-10T09:05:14.731Z</time>
      </trkpt>
      <trkpt lat="64.2714" lon="10.60979">
        <ele>73.533827</ele>
        <time>2020-08-10T09:05:16.737Z</time>
      </trkpt>
      <trkpt lat="64.27132" lon="10.60991">
        <ele>73.389575</ele>
        <time>2020-08-10T09:05:18.744Z</time>
      </trkpt>
      <trkpt lat="64.27124" lon="10.61003">
        <ele>73.249539</ele>
        <time>2020-08-10T09:05:20.722Z</time>
      </trkpt>
      <trkpt lat="64.27113" lon="10.61021">
        <ele>73.050355</ele>
        <time>2020-08-10T09:05:23.758Z</time>
      </trkpt>
      <trkpt lat="64.27101" lon="10.61035">
        <ele>72.849073</ele>
        <time>2020-08-10T09:05:26.758Z</time>
      </trkpt>
      <trkpt lat="64.2709" lon="10.61049">
        <ele>72.651251</ele>
        <time>2020-08-10T09:05:29.759Z</time>
      </trkpt>
      <trkpt lat="64.27079" lon="10.61065">
        <ele>72.456</ele>
        <time>2020-08-10T09:05:32.747Z</time>
      </trkpt>
      <trkpt lat="64.27068" lon="10.6108">
        <ele>72.257528</ele>
        <time>2020-08-10T09:05:35.719Z</time>
      </trkpt>
      <trkpt lat="64.2706" lon="10.6109">
        <ele>72.118063</ele>
        <time>2020-08-10T09:05:37.725Z</time>
      </trkpt>
      <trkpt lat="64.27047" lon="10.61105">
        <ele>72.262354</ele>
        <time>2020-08-10T09:05:40.758Z</time>
      </trkpt>
      <trkpt lat="64.27039" lon="10.61116">
        <ele>72.598023</ele>
        <time>2020-08-10T09:05:42.748Z</time>
      </trkpt>
      <trkpt lat="64.2703" lon="10.61126">
        <ele>72.936034</ele>
        <time>2020-08-10T09:05:44.724Z</time>
      </trkpt>
      <trkpt lat="64.27022" lon="10.61135">
        <ele>73.260494</ele>
        <time>2020-08-10T09:05:46.718Z</time>
      </trkpt>
      <trkpt lat="64.27013" lon="10.61144">
        <ele>73.583066</ele>
        <time>2020-08-10T09:05:48.761Z</time>
      </trkpt>
      <trkpt lat="64.27005" lon="10.61153">
        <ele>73.899414</ele>
        <time>2020-08-10T09:05:50.716Z</time>
      </trkpt>
      <trkpt lat="64.26996" lon="10.61161">
        <ele>74.212802</ele>
        <time>2020-08-10T09:05:52.739Z</time>
      </trkpt>
      <trkpt lat="64.26987" lon="10.6117">
        <ele>74.544766</ele>
        <time>2020-08-10T09:05:54.737Z</time>
      </trkpt>
      <trkpt lat="64.26978" lon="10.6118">
        <ele>74.892969</ele>
        <time>2020-08-10T09:05:56.726Z</time>
      </trkpt>
      <trkpt lat="64.26969" lon="10.61189">
        <ele>75.224933</ele>
        <time>2020-08-10T09:05:58.716Z</time>
      </trkpt>
      <trkpt lat="64.2696" lon="10.61198">
        <ele>75.570009</ele>
        <time>2020-08-10T09:06:00.730Z</time>
      </trkpt>
      <trkpt lat="64.26952" lon="10.61208">
        <ele>75.902588</ele>
        <time>2020-08-10T09:06:02.721Z</time>
      </trkpt>
      <trkpt lat="64.26939" lon="10.61217">
        <ele>76.349524</ele>
        <time>2020-08-10T09:06:05.752Z</time>
      </trkpt>
      <trkpt lat="64.26928" lon="10.6122">
        <ele>76.743482</ele>
        <time>2020-08-10T09:06:08.738Z</time>
      </trkpt>
      <trkpt lat="64.26918" lon="10.61225">
        <ele>77.086222</ele>
        <time>2020-08-10T09:06:11.734Z</time>
      </trkpt>
      <trkpt lat="64.26909" lon="10.61229">
        <ele>77.421442</ele>
        <time>2020-08-10T09:06:14.720Z</time>
      </trkpt>
      <trkpt lat="64.26896" lon="10.6123">
        <ele>77.842064</ele>
        <time>2020-08-10T09:06:17.744Z</time>
      </trkpt>
      <trkpt lat="64.26884" lon="10.61228">
        <ele>78.242209</ele>
        <time>2020-08-10T09:06:20.729Z</time>
      </trkpt>
      <trkpt lat="64.26873" lon="10.61229">
        <ele>78.503122</ele>
        <time>2020-08-10T09:06:23.754Z</time>
      </trkpt>
      <trkpt lat="64.26862" lon="10.61229">
        <ele>78.76403</ele>
        <time>2020-08-10T09:06:26.738Z</time>
      </trkpt>
      <trkpt lat="64.26852" lon="10.61228">
        <ele>78.985795</ele>
        <time>2020-08-10T09:06:29.707Z</time>
      </trkpt>
      <trkpt lat="64.26842" lon="10.61231">
        <ele>79.208861</ele>
        <time>2020-08-10T09:06:33.751Z</time>
      </trkpt>
      <trkpt lat="64.26833" lon="10.61234">
        <ele>79.424158</ele>
        <time>2020-08-10T09:06:37.721Z</time>
      </trkpt>
      <trkpt lat="64.26824" lon="10.61237">
        <ele>79.648121</ele>
        <time>2020-08-10T09:06:41.733Z</time>
      </trkpt>
      <trkpt lat="64.26814" lon="10.61239">
        <ele>79.866081</ele>
        <time>2020-08-10T09:06:45.758Z</time>
      </trkpt>
      <trkpt lat="64.26804" lon="10.61239">
        <ele>80.094662</ele>
        <time>2020-08-10T09:06:49.742Z</time>
      </trkpt>
      <trkpt lat="64.26794" lon="10.61242">
        <ele>80.329098</ele>
        <time>2020-08-10T09:06:53.738Z</time>
      </trkpt>
      <trkpt lat="64.26785" lon="10.61242">
        <ele>80.550863</ele>
        <time>2020-08-10T09:06:57.716Z</time>
      </trkpt>
      <trkpt lat="64.26773" lon="10.61244">
        <ele>80.810236</ele>
        <time>2020-08-10T09:07:01.718Z</time>
      </trkpt>
      <trkpt lat="64.26763" lon="10.61248">
        <ele>81.048197</ele>
        <time>2020-08-10T09:07:05.721Z</time>
      </trkpt>
      <trkpt lat="64.26753" lon="10.61252">
        <ele>81.294433</ele>
        <time>2020-08-10T09:07:09.709Z</time>
      </trkpt>
      <trkpt lat="64.26742" lon="10.61251">
        <ele>81.546231</ele>
        <time>2020-08-10T09:07:13.743Z</time>
      </trkpt>
      <trkpt lat="64.26732" lon="10.61252">
        <ele>81.765853</ele>
        <time>2020-08-10T09:07:16.765Z</time>
      </trkpt>
      <trkpt lat="64.26723" lon="10.61252">
        <ele>81.985281</ele>
        <time>2020-08-10T09:07:19.734Z</time>
      </trkpt>
      <trkpt lat="64.26712" lon="10.61252">
        <ele>82.22544</ele>
        <time>2020-08-10T09:07:22.737Z</time>
      </trkpt>
      <trkpt lat="64.26701" lon="10.61251">
        <ele>82.159287</ele>
        <time>2020-08-10T09:07:25.728Z</time>
      </trkpt>
      <trkpt lat="64.26688" lon="10.61254">
        <ele>81.705026</ele>
        <time>2020-08-10T09:07:28.736Z</time>
      </trkpt>
      <trkpt lat="64.26679" lon="10.61257">
        <ele>81.385311</ele>
        <time>2020-08-10T09:07:30.708Z</time>
      </trkpt>
      <trkpt lat="64.26669" lon="10.6126">
        <ele>81.040841</ele>
        <time>2020-08-10T09:07:32.737Z</time>
      </trkpt>
      <trkpt lat="64.26659" lon="10.61264">
        <ele>80.69104</ele>
        <time>2020-08-10T09:07:34.762Z</time>
      </trkpt>
      <trkpt lat="64.2665" lon="10.6127">
        <ele>80.354096</ele>
        <time>2020-08-10T09:07:36.713Z</time>
      </trkpt>
      <trkpt lat="64.2664" lon="10.6128">
        <ele>79.995613</ele>
        <time>2020-08-10T09:07:38.765Z</time>
      </trkpt>
      <trkpt lat="64.26633" lon="10.61293">
        <ele>79.667478</ele>
        <time>2020-08-10T09:07:40.737Z</time>
      </trkpt>
      <trkpt lat="64.26622" lon="10.6131">
        <ele>79.214636</ele>
        <time>2020-08-10T09:07:43.741Z</time>
      </trkpt>
      <trkpt lat="64.26614" lon="10.61322">
        <ele>78.893943</ele>
        <time>2020-08-10T09:07:45.719Z</time>
      </trkpt>
      <trkpt lat="64.26607" lon="10.61336">
        <ele>78.547924</ele>
        <time>2020-08-10T09:07:47.725Z</time>
      </trkpt>
      <trkpt lat="64.26598" lon="10.61349">
        <ele>78.191143</ele>
        <time>2020-08-10T09:07:49.738Z</time>
      </trkpt>
      <trkpt lat="64.26589" lon="10.61364">
        <ele>77.805177</ele>
        <time>2020-08-10T09:07:51.715Z</time>
      </trkpt>
      <trkpt lat="64.26579" lon="10.61381">
        <ele>77.380055</ele>
        <time>2020-08-10T09:07:53.730Z</time>
      </trkpt>
      <trkpt lat="64.26568" lon="10.61397">
        <ele>76.915222</ele>
        <time>2020-08-10T09:07:55.728Z</time>
      </trkpt>
      <trkpt lat="64.26557" lon="10.61413">
        <ele>76.456544</ele>
        <time>2020-08-10T09:07:57.730Z</time>
      </trkpt>
      <trkpt lat="64.26545" lon="10.61426">
        <ele>76.080714</ele>
        <time>2020-08-10T09:07:59.726Z</time>
      </trkpt>
      <trkpt lat="64.26534" lon="10.61438">
        <ele>75.996022</ele>
        <time>2020-08-10T09:08:01.778Z</time>
      </trkpt>
      <trkpt lat="64.26523" lon="10.61449">
        <ele>75.917786</ele>
        <time>2020-08-10T09:08:03.760Z</time>
      </trkpt>
      <trkpt lat="64.26513" lon="10.6146">
        <ele>75.843388</ele>
        <time>2020-08-10T09:08:05.723Z</time>
      </trkpt>
      <trkpt lat="64.26504" lon="10.6147">
        <ele>75.772807</ele>
        <time>2020-08-10T09:08:07.752Z</time>
      </trkpt>
      <trkpt lat="64.26495" lon="10.6148">
        <ele>75.70571</ele>
        <time>2020-08-10T09:08:09.730Z</time>
      </trkpt>
      <trkpt lat="64.26486" lon="10.61491">
        <ele>75.637478</ele>
        <time>2020-08-10T09:08:11.720Z</time>
      </trkpt>
      <trkpt lat="64.26477" lon="10.61501">
        <ele>75.568279</ele>
        <time>2020-08-10T09:08:13.724Z</time>
      </trkpt>
      <trkpt lat="64.26468" lon="10.6151">
        <ele>75.503407</ele>
        <time>2020-08-10T09:08:15.747Z</time>
      </trkpt>
      <trkpt lat="64.26459" lon="10.61518">
        <ele>75.437342</ele>
        <time>2020-08-10T09:08:17.733Z</time>
      </trkpt>
      <trkpt lat="64.26451" lon="10.61528">
        <ele>75.371602</ele>
        <time>2020-08-10T09:08:19.742Z</time>
      </trkpt>
      <trkpt lat="64.26442" lon="10.61537">
        <ele>75.306732</ele>
        <time>2020-08-10T09:08:21.714Z</time>
      </trkpt>
      <trkpt lat="64.26434" lon="10.61547">
        <ele>75.243306</ele>
        <time>2020-08-10T09:08:23.758Z</time>
      </trkpt>
      <trkpt lat="64.26425" lon="10.61556">
        <ele>75.177693</ele>
        <time>2020-08-10T09:08:25.742Z</time>
      </trkpt>
      <trkpt lat="64.26416" lon="10.61565">
        <ele>75.111064</ele>
        <time>2020-08-10T09:08:27.744Z</time>
      </trkpt>
      <trkpt lat="64.26407" lon="10.61574">
        <ele>75.044318</ele>
        <time>2020-08-10T09:08:29.727Z</time>
      </trkpt>
      <trkpt lat="64.26399" lon="10.61583">
        <ele>74.980063</ele>
        <time>2020-08-10T09:08:31.740Z</time>
      </trkpt>
      <trkpt lat="64.26386" lon="10.61595">
        <ele>74.889544</ele>
        <time>2020-08-10T09:08:34.738Z</time>
      </trkpt>
      <trkpt lat="64.26375" lon="10.61607">
        <ele>75.226779</ele>
        <time>2020-08-10T09:08:37.728Z</time>
      </trkpt>
      <trkpt lat="64.26363" lon="10.61621">
        <ele>75.659649</ele>
        <time>2020-08-10T09:08:40.712Z</time>
      </trkpt>
      <trkpt lat="64.26352" lon="10.61637">
        <ele>76.10745</ele>
        <time>2020-08-10T09:08:43.737Z</time>
      </trkpt>
      <trkpt lat="64.26343" lon="10.61648">
        <ele>76.436203</ele>
        <time>2020-08-10T09:08:45.744Z</time>
      </trkpt>
      <trkpt lat="64.26335" lon="10.61661">
        <ele>76.757066</ele>
        <time>2020-08-10T09:08:47.733Z</time>
      </trkpt>
      <trkpt lat="64.26325" lon="10.6168">
        <ele>77.195605</ele>
        <time>2020-08-10T09:08:50.737Z</time>
      </trkpt>
      <trkpt lat="64.26315" lon="10.61698">
        <ele>77.609986</ele>
        <time>2020-08-10T09:08:53.708Z</time>
      </trkpt>
      <trkpt lat="64.26306" lon="10.61717">
        <ele>78.027002</ele>
        <time>2020-08-10T09:08:56.741Z</time>
      </trkpt>
      <trkpt lat="64.26297" lon="10.61736">
        <ele>78.429939</ele>
        <time>2020-08-10T09:08:59.714Z</time>
      </trkpt>
      <trkpt lat="64.26287" lon="10.61755">
        <ele>78.848969</ele>
        <time>2020-08-10T09:09:02.722Z</time>
      </trkpt>
      <trkpt lat="64.26277" lon="10.61774">
        <ele>79.293292</ele>
        <time>2020-08-10T09:09:05.716Z</time>
      </trkpt>
      <trkpt lat="64.26267" lon="10.61793">
        <ele>79.716765</ele>
        <time>2020-08-10T09:09:08.725Z</time>
      </trkpt>
      <trkpt lat="64.26258" lon="10.61808">
        <ele>80.099773</ele>
        <time>2020-08-10T09:09:11.719Z</time>
      </trkpt>
      <trkpt lat="64.26251" lon="10.61826">
        <ele>80.453234</ele>
        <time>2020-08-10T09:09:14.721Z</time>
      </trkpt>
      <trkpt lat="64.26244" lon="10.61844">
        <ele>80.788255</ele>
        <time>2020-08-10T09:09:17.719Z</time>
      </trkpt>
      <trkpt lat="64.26237" lon="10.61859">
        <ele>81.120094</ele>
        <time>2020-08-10T09:09:20.728Z</time>
      </trkpt>
      <trkpt lat="64.2623" lon="10.61876">
        <ele>81.461042</ele>
        <time>2020-08-10T09:09:23.734Z</time>
      </trkpt>
      <trkpt lat="64.26223" lon="10.61892">
        <ele>81.791963</ele>
        <time>2020-08-10T09:09:26.709Z</time>
      </trkpt>
      <trkpt lat="64.26216" lon="10.6191">
        <ele>82.152056</ele>
        <time>2020-08-10T09:09:30.719Z</time>
      </trkpt>
      <trkpt lat="64.26207" lon="10.61924">
        <ele>82.519358</ele>
        <time>2020-08-10T09:09:35.718Z</time>
      </trkpt>
      <trkpt lat="64.26198" lon="10.61934">
        <ele>82.867399</ele>
        <time>2020-08-10T09:09:40.731Z</time>
      </trkpt>
      <trkpt lat="64.26188" lon="10.61939">
        <ele>83.193939</ele>
        <time>2020-08-10T09:09:45.754Z</time>
      </trkpt>
      <trkpt lat="64.26178" lon="10.61947">
        <ele>83.549859</ele>
        <time>2020-08-10T09:09:51.725Z</time>
      </trkpt>
      <trkpt lat="64.26169" lon="10.61958">
        <ele>83.895292</ele>
        <time>2020-08-10T09:09:56.745Z</time>
      </trkpt>
      <trkpt lat="64.26161" lon="10.6197">
        <ele>84.222056</ele>
        <time>2020-08-10T09:10:01.735Z</time>
      </trkpt>
      <trkpt lat="64.26154" lon="10.61982">
        <ele>84.528143</ele>
        <time>2020-08-10T09:10:06.734Z</time>
      </trkpt>
      <trkpt lat="64.26147" lon="10.61996">
        <ele>84.858209</ele>
        <time>2020-08-10T09:10:11.729Z</time>
      </trkpt>
      <trkpt lat="64.2614" lon="10.62015">
        <ele>85.200606</ele>
        <time>2020-08-10T09:10:16.769Z</time>
      </trkpt>
      <trkpt lat="64.26135" lon="10.62037">
        <ele>85.581057</ele>
        <time>2020-08-10T09:10:21.730Z</time>
      </trkpt>
      <trkpt lat="64.2613" lon="10.62057">
        <ele>85.919122</ele>
        <time>2020-08-10T09:10:25.722Z</time>
      </trkpt>
      <trkpt lat="64.26125" lon="10.62081">
        <ele>86.30882</ele>
        <time>2020-08-10T09:10:29.735Z</time>
      </trkpt>
      <trkpt lat="64.26121" lon="10.62101">
        <ele>86.625525</ele>
        <time>2020-08-10T09:10:32.731Z</time>
      </trkpt>
      <trkpt lat="64.26117" lon="10.62122">
        <ele>86.966723</ele>
        <time>2020-08-10T09:10:35.729Z</time>
      </trkpt>
      <trkpt lat="64.26113" lon="10.62149">
        <ele>86.795635</ele>
        <time>2020-08-10T09:10:38.729Z</time>
      </trkpt>
      <trkpt lat="64.26111" lon="10.62168">
        <ele>86.668026</ele>
        <time>2020-08-10T09:10:40.723Z</time>
      </trkpt>
      <trkpt lat="64.26107" lon="10.62188">
        <ele>86.539267</ele>
        <time>2020-08-10T09:10:42.726Z</time>
      </trkpt>
      <trkpt lat="64.26103" lon="10.6221">
        <ele>86.393015</ele>
        <time>2020-08-10T09:10:44.732Z</time>
      </trkpt>
      <trkpt lat="64.26099" lon="10.62235">
        <ele>86.224664</ele>
        <time>2020-08-10T09:10:46.722Z</time>
      </trkpt>
      <trkpt lat="64.26094" lon="10.62263">
        <ele>86.04158</ele>
        <time>2020-08-10T09:10:48.719Z</time>
      </trkpt>
      <trkpt lat="64.26089" lon="10.62292">
        <ele>85.849775</ele>
        <time>2020-08-10T09:10:50.721Z</time>
      </trkpt>
      <trkpt lat="64.26084" lon="10.62322">
        <ele>85.648173</ele>
        <time>2020-08-10T09:10:52.750Z</time>
      </trkpt>
      <trkpt lat="64.26077" lon="10.62353">
        <ele>85.437283</ele>
        <time>2020-08-10T09:10:54.748Z</time>
      </trkpt>
      <trkpt lat="64.26069" lon="10.62383">
        <ele>85.222038</ele>
        <time>2020-08-10T09:10:56.717Z</time>
      </trkpt>
      <trkpt lat="64.26062" lon="10.62411">
        <ele>85.017716</ele>
        <time>2020-08-10T09:10:58.719Z</time>
      </trkpt>
      <trkpt lat="64.26054" lon="10.62434">
        <ele>84.842974</ele>
        <time>2020-08-10T09:11:00.717Z</time>
      </trkpt>
      <trkpt lat="64.26047" lon="10.62454">
        <ele>84.685368</ele>
        <time>2020-08-10T09:11:02.710Z</time>
      </trkpt>
      <trkpt lat="64.26041" lon="10.6247">
        <ele>84.549131</ele>
        <time>2020-08-10T09:11:04.717Z</time>
      </trkpt>
      <trkpt lat="64.26033" lon="10.6249">
        <ele>84.294774</ele>
        <time>2020-08-10T09:11:07.722Z</time>
      </trkpt>
      <trkpt lat="64.26025" lon="10.62506">
        <ele>83.852871</ele>
        <time>2020-08-10T09:11:10.754Z</time>
      </trkpt>
      <trkpt lat="64.2602" lon="10.62522">
        <ele>83.459687</ele>
        <time>2020-08-10T09:11:13.719Z</time>
      </trkpt>
      <trkpt lat="64.26015" lon="10.62542">
        <ele>83.034338</ele>
        <time>2020-08-10T09:11:16.739Z</time>
      </trkpt>
      <trkpt lat="64.26009" lon="10.62562">
        <ele>82.590846</ele>
        <time>2020-08-10T09:11:19.724Z</time>
      </trkpt>
      <trkpt lat="64.26003" lon="10.62583">
        <ele>82.088073</ele>
        <time>2020-08-10T09:11:22.706Z</time>
      </trkpt>
      <trkpt lat="64.25997" lon="10.62605">
        <ele>81.60544</ele>
        <time>2020-08-10T09:11:25.744Z</time>
      </trkpt>
      <trkpt lat="64.25992" lon="10.62626">
        <ele>81.16128</ele>
        <time>2020-08-10T09:11:28.735Z</time>
      </trkpt>
      <trkpt lat="64.25987" lon="10.62649">
        <ele>80.661189</ele>
        <time>2020-08-10T09:11:31.717Z</time>
      </trkpt>
      <trkpt lat="64.2598" lon="10.62676">
        <ele>80.082581</ele>
        <time>2020-08-10T09:11:34.723Z</time>
      </trkpt>
      <trkpt lat="64.25976" lon="10.62697">
        <ele>79.64897</ele>
        <time>2020-08-10T09:11:36.716Z</time>
      </trkpt>
      <trkpt lat="64.25972" lon="10.62717">
        <ele>79.220494</ele>
        <time>2020-08-10T09:11:38.724Z</time>
      </trkpt>
      <trkpt lat="64.25967" lon="10.62738">
        <ele>78.777267</ele>
        <time>2020-08-10T09:11:40.747Z</time>
      </trkpt>
      <trkpt lat="64.25961" lon="10.6276">
        <ele>78.298817</ele>
        <time>2020-08-10T09:11:42.756Z</time>
      </trkpt>
      <trkpt lat="64.25955" lon="10.62782">
        <ele>77.794341</ele>
        <time>2020-08-10T09:11:44.722Z</time>
      </trkpt>
      <trkpt lat="64.25948" lon="10.62806">
        <ele>77.250078</ele>
        <time>2020-08-10T09:11:46.743Z</time>
      </trkpt>
      <trkpt lat="64.25939" lon="10.62829">
        <ele>76.662083</ele>
        <time>2020-08-10T09:11:48.751Z</time>
      </trkpt>
      <trkpt lat="64.25929" lon="10.62852">
        <ele>76.634801</ele>
        <time>2020-08-10T09:11:50.725Z</time>
      </trkpt>
      <trkpt lat="64.25918" lon="10.62869">
        <ele>76.68133</ele>
        <time>2020-08-10T09:11:52.729Z</time>
      </trkpt>
      <trkpt lat="64.25906" lon="10.62881">
        <ele>76.727984</ele>
        <time>2020-08-10T09:11:54.746Z</time>
      </trkpt>
      <trkpt lat="64.25894" lon="10.62888">
        <ele>76.771537</ele>
        <time>2020-08-10T09:11:56.739Z</time>
      </trkpt>
      <trkpt lat="64.25882" lon="10.62894">
        <ele>76.81582</ele>
        <time>2020-08-10T09:11:58.739Z</time>
      </trkpt>
      <trkpt lat="64.2587" lon="10.62897">
        <ele>76.858492</ele>
        <time>2020-08-10T09:12:00.728Z</time>
      </trkpt>
      <trkpt lat="64.25858" lon="10.62896">
        <ele>76.900224</ele>
        <time>2020-08-10T09:12:02.748Z</time>
      </trkpt>
      <trkpt lat="64.25847" lon="10.62895">
        <ele>76.937737</ele>
        <time>2020-08-10T09:12:04.734Z</time>
      </trkpt>
      <trkpt lat="64.25838" lon="10.62895">
        <ele>76.972771</ele>
        <time>2020-08-10T09:12:06.725Z</time>
      </trkpt>
      <trkpt lat="64.25828" lon="10.62892">
        <ele>77.005282</ele>
        <time>2020-08-10T09:12:08.740Z</time>
      </trkpt>
      <trkpt lat="64.25816" lon="10.62885">
        <ele>77.048844</ele>
        <time>2020-08-10T09:12:11.707Z</time>
      </trkpt>
      <trkpt lat="64.25805" lon="10.6288">
        <ele>77.089691</ele>
        <time>2020-08-10T09:12:14.717Z</time>
      </trkpt>
      <trkpt lat="64.25795" lon="10.62875">
        <ele>77.12547</ele>
        <time>2020-08-10T09:12:17.724Z</time>
      </trkpt>
      <trkpt lat="64.25786" lon="10.62868">
        <ele>77.161242</ele>
        <time>2020-08-10T09:12:20.740Z</time>
      </trkpt>
      <trkpt lat="64.25777" lon="10.62863">
        <ele>77.193613</ele>
        <time>2020-08-10T09:12:23.741Z</time>
      </trkpt>
      <trkpt lat="64.25768" lon="10.62857">
        <ele>77.228961</ele>
        <time>2020-08-10T09:12:26.729Z</time>
      </trkpt>
      <trkpt lat="64.25758" lon="10.62851">
        <ele>77.837719</ele>
        <time>2020-08-10T09:12:30.730Z</time>
      </trkpt>
      <trkpt lat="64.25748" lon="10.62845">
        <ele>78.540357</ele>
        <time>2020-08-10T09:12:35.738Z</time>
      </trkpt>
      <trkpt lat="64.25738" lon="10.62838">
        <ele>79.173814</ele>
        <time>2020-08-10T09:12:40.738Z</time>
      </trkpt>
      <trkpt lat="64.25728" lon="10.6283">
        <ele>79.849907</ele>
        <time>2020-08-10T09:12:45.718Z</time>
      </trkpt>
      <trkpt lat="64.25719" lon="10.62824">
        <ele>80.476866</ele>
        <time>2020-08-10T09:12:50.739Z</time>
      </trkpt>
      <trkpt lat="64.25709" lon="10.62817">
        <ele>81.132347</ele>
        <time>2020-08-10T09:12:56.754Z</time>
      </trkpt>
      <trkpt lat="64.257" lon="10.62813">
        <ele>81.737816</ele>
        <time>2020-08-10T09:13:02.736Z</time>
      </trkpt>
      <trkpt lat="64.25689" lon="10.62808">
        <ele>82.43626</ele>
        <time>2020-08-10T09:13:08.750Z</time>
      </trkpt>
      <trkpt lat="64.2568" lon="10.62807">
        <ele>83.033213</ele>
        <time>2020-08-10T09:13:13.727Z</time>
      </trkpt>
      <trkpt lat="64.2567" lon="10.62802">
        <ele>83.715591</ele>
        <time>2020-08-10T09:13:19.719Z</time>
      </trkpt>
      <trkpt lat="64.25661" lon="10.62801">
        <ele>84.299874</ele>
        <time>2020-08-10T09:13:25.722Z</time>
      </trkpt>
      <trkpt lat="64.25651" lon="10.62801">
        <ele>84.909001</ele>
        <time>2020-08-10T09:13:30.746Z</time>
      </trkpt>
      <trkpt lat="64.2564" lon="10.62801">
        <ele>85.588659</ele>
        <time>2020-08-10T09:13:35.705Z</time>
      </trkpt>
      <trkpt lat="64.2563" lon="10.62802">
        <ele>86.26248</ele>
        <time>2020-08-10T09:13:40.747Z</time>
      </trkpt>
      <trkpt lat="64.2562" lon="10.62806">
        <ele>86.915271</ele>
        <time>2020-08-10T09:13:45.727Z</time>
      </trkpt>
      <trkpt lat="64.25611" lon="10.62812">
        <ele>87.494495</ele>
        <time>2020-08-10T09:13:49.712Z</time>
      </trkpt>
      <trkpt lat="64.25602" lon="10.62818">
        <ele>88.115295</ele>
        <time>2020-08-10T09:13:53.730Z</time>
      </trkpt>
      <trkpt lat="64.25592" lon="10.62824">
        <ele>88.758913</ele>
        <time>2020-08-10T09:13:57.727Z</time>
      </trkpt>
      <trkpt lat="64.25582" lon="10.62833">
        <ele>88.711632</ele>
        <time>2020-08-10T09:14:01.751Z</time>
      </trkpt>
      <trkpt lat="64.25572" lon="10.62843">
        <ele>88.66457</ele>
        <time>2020-08-10T09:14:05.788Z</time>
      </trkpt>
      <trkpt lat="64.25562" lon="10.62856">
        <ele>88.618301</ele>
        <time>2020-08-10T09:14:09.715Z</time>
      </trkpt>
      <trkpt lat="64.25552" lon="10.62869">
        <ele>88.567503</ele>
        <time>2020-08-10T09:14:13.750Z</time>
      </trkpt>
      <trkpt lat="64.25543" lon="10.62881">
        <ele>88.52224</ele>
        <time>2020-08-10T09:14:17.734Z</time>
      </trkpt>
      <trkpt lat="64.25534" lon="10.62899">
        <ele>88.473258</ele>
        <time>2020-08-10T09:14:21.721Z</time>
      </trkpt>
      <trkpt lat="64.25526" lon="10.62917">
        <ele>88.425944</ele>
        <time>2020-08-10T09:14:25.734Z</time>
      </trkpt>
      <trkpt lat="64.25518" lon="10.62935">
        <ele>88.378314</ele>
        <time>2020-08-10T09:14:29.724Z</time>
      </trkpt>
      <trkpt lat="64.25511" lon="10.62956">
        <ele>88.329052</ele>
        <time>2020-08-10T09:14:33.759Z</time>
      </trkpt>
      <trkpt lat="64.25505" lon="10.62972">
        <ele>88.2908</ele>
        <time>2020-08-10T09:14:36.727Z</time>
      </trkpt>
      <trkpt lat="64.255" lon="10.6299">
        <ele>88.250317</ele>
        <time>2020-08-10T09:14:39.747Z</time>
      </trkpt>
      <trkpt lat="64.25495" lon="10.63011">
        <ele>88.206775</ele>
        <time>2020-08-10T09:14:42.736Z</time>
      </trkpt>
      <trkpt lat="64.2549" lon="10.6303">
        <ele>88.16595</ele>
        <time>2020-08-10T09:14:45.737Z</time>
      </trkpt>
      <trkpt lat="64.25485" lon="10.63049">
        <ele>88.123379</ele>
        <time>2020-08-10T09:14:48.751Z</time>
      </trkpt>
      <trkpt lat="64.25479" lon="10.63069">
        <ele>88.079102</ele>
        <time>2020-08-10T09:14:51.721Z</time>
      </trkpt>
      <trkpt lat="64.25472" lon="10.6309">
        <ele>88.030924</ele>
        <time>2020-08-10T09:14:54.737Z</time>
      </trkpt>
      <trkpt lat="64.25465" lon="10.63109">
        <ele>87.964129</ele>
        <time>2020-08-10T09:14:57.723Z</time>
      </trkpt>
      <trkpt lat="64.25458" lon="10.6313">
        <ele>87.793835</ele>
        <time>2020-08-10T09:15:00.721Z</time>
      </trkpt>
      <trkpt lat="64.25451" lon="10.63151">
        <ele>87.62594</ele>
        <time>2020-08-10T09:15:03.738Z</time>
      </trkpt>
      <trkpt lat="64.25444" lon="10.63172">
        <ele>87.456877</ele>
        <time>2020-08-10T09:15:06.752Z</time>
      </trkpt>
      <trkpt lat="64.25436" lon="10.63192">
        <ele>87.289284</ele>
        <time>2020-08-10T09:15:09.727Z</time>
      </trkpt>
      <trkpt lat="64.25428" lon="10.63209">
        <ele>87.126647</ele>
        <time>2020-08-10T09:15:12.734Z</time>
      </trkpt>
      <trkpt lat="64.2542" lon="10.63227">
        <ele>86.963305</ele>
        <time>2020-08-10T09:15:15.745Z</time>
      </trkpt>
      <trkpt lat="64.25411" lon="10.63242">
        <ele>86.80497</ele>
        <time>2020-08-10T09:15:18.741Z</time>
      </trkpt>
      <trkpt lat="64.25402" lon="10.63256">
        <ele>86.646364</ele>
        <time>2020-08-10T09:15:21.739Z</time>
      </trkpt>
      <trkpt lat="64.25393" lon="10.63271">
        <ele>86.476258</ele>
        <time>2020-08-10T09:15:24.720Z</time>
      </trkpt>
      <trkpt lat="64.25383" lon="10.63286">
        <ele>86.299013</ele>
        <time>2020-08-10T09:15:27.723Z</time>
      </trkpt>
      <trkpt lat="64.25372" lon="10.63297">
        <ele>86.124718</ele>
        <time>2020-08-10T09:15:30.729Z</time>
      </trkpt>
      <trkpt lat="64.25361" lon="10.63307">
        <ele>85.958851</ele>
        <time>2020-08-10T09:15:33.758Z</time>
      </trkpt>
      <trkpt lat="64.25351" lon="10.63316">
        <ele>85.797275</ele>
        <time>2020-08-10T09:15:36.735Z</time>
      </trkpt>
      <trkpt lat="64.25339" lon="10.63325">
        <ele>85.616535</ele>
        <time>2020-08-10T09:15:39.715Z</time>
      </trkpt>
      <trkpt lat="64.25329" lon="10.63333">
        <ele>85.458207</ele>
        <time>2020-08-10T09:15:42.733Z</time>
      </trkpt>
      <trkpt lat="64.25317" lon="10.63336">
        <ele>85.399674</ele>
        <time>2020-08-10T09:15:45.745Z</time>
      </trkpt>
      <trkpt lat="64.25307" lon="10.63341">
        <ele>85.463438</ele>
        <time>2020-08-10T09:15:48.748Z</time>
      </trkpt>
      <trkpt lat="64.25297" lon="10.63347">
        <ele>85.522264</ele>
        <time>2020-08-10T09:15:51.741Z</time>
      </trkpt>
      <trkpt lat="64.25286" lon="10.63348">
        <ele>85.590242</ele>
        <time>2020-08-10T09:15:54.753Z</time>
      </trkpt>
      <trkpt lat="64.25274" lon="10.63349">
        <ele>85.656417</ele>
        <time>2020-08-10T09:15:57.732Z</time>
      </trkpt>
      <trkpt lat="64.25263" lon="10.6335">
        <ele>85.725558</ele>
        <time>2020-08-10T09:16:00.715Z</time>
      </trkpt>
      <trkpt lat="64.25251" lon="10.63351">
        <ele>85.79479</ele>
        <time>2020-08-10T09:16:03.727Z</time>
      </trkpt>
      <trkpt lat="64.2524" lon="10.63352">
        <ele>85.859778</ele>
        <time>2020-08-10T09:16:06.715Z</time>
      </trkpt>
      <trkpt lat="64.2523" lon="10.63352">
        <ele>85.920031</ele>
        <time>2020-08-10T09:16:09.720Z</time>
      </trkpt>
      <trkpt lat="64.25219" lon="10.63351">
        <ele>85.984467</ele>
        <time>2020-08-10T09:16:12.740Z</time>
      </trkpt>
      <trkpt lat="64.25208" lon="10.6335">
        <ele>86.048877</ele>
        <time>2020-08-10T09:16:15.759Z</time>
      </trkpt>
      <trkpt lat="64.25196" lon="10.6335">
        <ele>86.117396</ele>
        <time>2020-08-10T09:16:18.728Z</time>
      </trkpt>
      <trkpt lat="64.25185" lon="10.63349">
        <ele>86.187145</ele>
        <time>2020-08-10T09:16:21.764Z</time>
      </trkpt>
      <trkpt lat="64.25173" lon="10.63348">
        <ele>86.255132</ele>
        <time>2020-08-10T09:16:24.723Z</time>
      </trkpt>
      <trkpt lat="64.25161" lon="10.63348">
        <ele>86.323656</ele>
        <time>2020-08-10T09:16:27.726Z</time>
      </trkpt>
      <trkpt lat="64.25151" lon="10.6335">
        <ele>86.387583</ele>
        <time>2020-08-10T09:16:30.757Z</time>
      </trkpt>
      <trkpt lat="64.2514" lon="10.6335">
        <ele>86.393465</ele>
        <time>2020-08-10T09:16:33.739Z</time>
      </trkpt>
      <trkpt lat="64.25129" lon="10.63352">
        <ele>86.28795</ele>
        <time>2020-08-10T09:16:36.731Z</time>
      </trkpt>
      <trkpt lat="64.25118" lon="10.63353">
        <ele>86.182375</ele>
        <time>2020-08-10T09:16:39.709Z</time>
      </trkpt>
      <trkpt lat="64.25108" lon="10.63359">
        <ele>86.077635</ele>
        <time>2020-08-10T09:16:42.721Z</time>
      </trkpt>
      <trkpt lat="64.25098" lon="10.63365">
        <ele>85.976683</ele>
        <time>2020-08-10T09:16:45.706Z</time>
      </trkpt>
      <trkpt lat="64.25088" lon="10.6337">
        <ele>85.868146</ele>
        <time>2020-08-10T09:16:48.726Z</time>
      </trkpt>
      <trkpt lat="64.25077" lon="10.63376">
        <ele>85.758442</ele>
        <time>2020-08-10T09:16:51.742Z</time>
      </trkpt>
      <trkpt lat="64.25066" lon="10.63382">
        <ele>85.647881</ele>
        <time>2020-08-10T09:16:54.735Z</time>
      </trkpt>
      <trkpt lat="64.25055" lon="10.6339">
        <ele>85.530576</ele>
        <time>2020-08-10T09:16:57.749Z</time>
      </trkpt>
      <trkpt lat="64.25043" lon="10.63398">
        <ele>85.407066</ele>
        <time>2020-08-10T09:17:00.743Z</time>
      </trkpt>
      <trkpt lat="64.25032" lon="10.63406">
        <ele>85.291403</ele>
        <time>2020-08-10T09:17:03.761Z</time>
      </trkpt>
      <trkpt lat="64.25021" lon="10.63412">
        <ele>85.18436</ele>
        <time>2020-08-10T09:17:06.730Z</time>
      </trkpt>
      <trkpt lat="64.25011" lon="10.63419">
        <ele>85.078513</ele>
        <time>2020-08-10T09:17:09.742Z</time>
      </trkpt>
      <trkpt lat="64.25001" lon="10.63426">
        <ele>84.977561</ele>
        <time>2020-08-10T09:17:12.725Z</time>
      </trkpt>
      <trkpt lat="64.24991" lon="10.63433">
        <ele>84.873624</ele>
        <time>2020-08-10T09:17:15.734Z</time>
      </trkpt>
      <trkpt lat="64.24981" lon="10.63439">
        <ele>84.770976</ele>
        <time>2020-08-10T09:17:18.726Z</time>
      </trkpt>
      <trkpt lat="64.24971" lon="10.63445">
        <ele>84.665441</ele>
        <time>2020-08-10T09:17:21.738Z</time>
      </trkpt>
      <trkpt lat="64.24961" lon="10.63453">
        <ele>84.765172</ele>
        <time>2020-08-10T09:17:24.732Z</time>
      </trkpt>
      <trkpt lat="64.2495" lon="10.63461">
        <ele>84.924031</ele>
        <time>2020-08-10T09:17:27.720Z</time>
      </trkpt>
      <trkpt lat="64.24939" lon="10.63469">
        <ele>85.090449</ele>
        <time>2020-08-10T09:17:30.738Z</time>
      </trkpt>
      <trkpt lat="64.24929" lon="10.6348">
        <ele>85.259477</ele>
        <time>2020-08-10T09:17:33.719Z</time>
      </trkpt>
      <trkpt lat="64.24918" lon="10.63491">
        <ele>85.424223</ele>
        <time>2020-08-10T09:17:36.734Z</time>
      </trkpt>
      <trkpt lat="64.24908" lon="10.63501">
        <ele>85.58041</ele>
        <time>2020-08-10T09:17:39.715Z</time>
      </trkpt>
      <trkpt lat="64.24899" lon="10.63513">
        <ele>85.735645</ele>
        <time>2020-08-10T09:17:42.724Z</time>
      </trkpt>
      <trkpt lat="64.2489" lon="10.63526">
        <ele>85.880647</ele>
        <time>2020-08-10T09:17:45.712Z</time>
      </trkpt>
      <trkpt lat="64.24882" lon="10.63542">
        <ele>86.031802</ele>
        <time>2020-08-10T09:17:48.734Z</time>
      </trkpt>
      <trkpt lat="64.24876" lon="10.63561">
        <ele>86.184528</ele>
        <time>2020-08-10T09:17:51.729Z</time>
      </trkpt>
      <trkpt lat="64.24869" lon="10.6358">
        <ele>86.333176</ele>
        <time>2020-08-10T09:17:54.716Z</time>
      </trkpt>
      <trkpt lat="64.24863" lon="10.63598">
        <ele>86.47351</ele>
        <time>2020-08-10T09:17:57.728Z</time>
      </trkpt>
      <trkpt lat="64.24858" lon="10.63615">
        <ele>86.607813</ele>
        <time>2020-08-10T09:18:00.715Z</time>
      </trkpt>
      <trkpt lat="64.24851" lon="10.63634">
        <ele>86.764277</ele>
        <time>2020-08-10T09:18:04.742Z</time>
      </trkpt>
      <trkpt lat="64.24842" lon="10.63654">
        <ele>86.936336</ele>
        <time>2020-08-10T09:18:08.726Z</time>
      </trkpt>
      <trkpt lat="64.24835" lon="10.63673">
        <ele>87.094195</ele>
        <time>2020-08-10T09:18:11.741Z</time>
      </trkpt>
      <trkpt lat="64.24828" lon="10.63692">
        <ele>87.239621</ele>
        <time>2020-08-10T09:18:14.725Z</time>
      </trkpt>
      <trkpt lat="64.2482" lon="10.63711">
        <ele>87.357212</ele>
        <time>2020-08-10T09:18:17.719Z</time>
      </trkpt>
      <trkpt lat="64.24812" lon="10.63729">
        <ele>87.465676</ele>
        <time>2020-08-10T09:18:20.720Z</time>
      </trkpt>
      <trkpt lat="64.24805" lon="10.63748">
        <ele>87.576156</ele>
        <time>2020-08-10T09:18:23.738Z</time>
      </trkpt>
      <trkpt lat="64.24797" lon="10.63763">
        <ele>87.678948</ele>
        <time>2020-08-10T09:18:26.731Z</time>
      </trkpt>
      <trkpt lat="64.24788" lon="10.63777">
        <ele>87.782253</ele>
        <time>2020-08-10T09:18:29.721Z</time>
      </trkpt>
      <trkpt lat="64.2478" lon="10.63788">
        <ele>87.883335</ele>
        <time>2020-08-10T09:18:32.761Z</time>
      </trkpt>
      <trkpt lat="64.24771" lon="10.63804">
        <ele>87.997699</ele>
        <time>2020-08-10T09:18:35.741Z</time>
      </trkpt>
      <trkpt lat="64.24762" lon="10.63821">
        <ele>88.112894</ele>
        <time>2020-08-10T09:18:38.721Z</time>
      </trkpt>
      <trkpt lat="64.24752" lon="10.63836">
        <ele>88.227724</ele>
        <time>2020-08-10T09:18:41.722Z</time>
      </trkpt>
      <trkpt lat="64.24745" lon="10.63854">
        <ele>88.338084</ele>
        <time>2020-08-10T09:18:44.712Z</time>
      </trkpt>
      <trkpt lat="64.24735" lon="10.6387">
        <ele>88.45405</ele>
        <time>2020-08-10T09:18:47.737Z</time>
      </trkpt>
      <trkpt lat="64.24727" lon="10.63886">
        <ele>88.56717</ele>
        <time>2020-08-10T09:18:50.717Z</time>
      </trkpt>
      <trkpt lat="64.24718" lon="10.63904">
        <ele>88.682829</ele>
        <time>2020-08-10T09:18:53.723Z</time>
      </trkpt>
      <trkpt lat="64.24708" lon="10.63921">
        <ele>88.804888</ele>
        <time>2020-08-10T09:18:56.759Z</time>
      </trkpt>
      <trkpt lat="64.24699" lon="10.63936">
        <ele>88.919825</ele>
        <time>2020-08-10T09:18:59.737Z</time>
      </trkpt>
      <trkpt lat="64.2469" lon="10.63952">
        <ele>89.071059</ele>
        <time>2020-08-10T09:19:02.710Z</time>
      </trkpt>
      <trkpt lat="64.2468" lon="10.63968">
        <ele>89.487879</ele>
        <time>2020-08-10T09:19:05.744Z</time>
      </trkpt>
      <trkpt lat="64.24671" lon="10.63981">
        <ele>89.872219</ele>
        <time>2020-08-10T09:19:08.716Z</time>
      </trkpt>
      <trkpt lat="64.24661" lon="10.63996">
        <ele>90.284214</ele>
        <time>2020-08-10T09:19:11.731Z</time>
      </trkpt>
      <trkpt lat="64.24653" lon="10.64011">
        <ele>90.679216</ele>
        <time>2020-08-10T09:19:14.718Z</time>
      </trkpt>
      <trkpt lat="64.24643" lon="10.64025">
        <ele>91.08312</ele>
        <time>2020-08-10T09:19:17.728Z</time>
      </trkpt>
      <trkpt lat="64.24635" lon="10.64037">
        <ele>91.419217</ele>
        <time>2020-08-10T09:19:20.730Z</time>
      </trkpt>
      <trkpt lat="64.24626" lon="10.64052">
        <ele>91.814156</ele>
        <time>2020-08-10T09:19:24.783Z</time>
      </trkpt>
      <trkpt lat="64.24618" lon="10.64064">
        <ele>92.153223</ele>
        <time>2020-08-10T09:19:27.723Z</time>
      </trkpt>
      <trkpt lat="64.24609" lon="10.64078">
        <ele>92.545762</ele>
        <time>2020-08-10T09:19:31.728Z</time>
      </trkpt>
      <trkpt lat="64.246" lon="10.64085">
        <ele>92.889172</ele>
        <time>2020-08-10T09:19:35.727Z</time>
      </trkpt>
      <trkpt lat="64.24591" lon="10.64089">
        <ele>93.214106</ele>
        <time>2020-08-10T09:19:39.718Z</time>
      </trkpt>
      <trkpt lat="64.24581" lon="10.64094">
        <ele>93.568291</ele>
        <time>2020-08-10T09:19:43.721Z</time>
      </trkpt>
      <trkpt lat="64.24571" lon="10.64103">
        <ele>93.967519</ele>
        <time>2020-08-10T09:19:47.731Z</time>
      </trkpt>
      <trkpt lat="64.2456" lon="10.64113">
        <ele>94.378999</ele>
        <time>2020-08-10T09:19:51.765Z</time>
      </trkpt>
      <trkpt lat="64.24549" lon="10.64121">
        <ele>94.790714</ele>
        <time>2020-08-10T09:19:55.710Z</time>
      </trkpt>
      <trkpt lat="64.24538" lon="10.64129">
        <ele>95.211358</ele>
        <time>2020-08-10T09:19:59.745Z</time>
      </trkpt>
      <trkpt lat="64.24528" lon="10.64137">
        <ele>95.59519</ele>
        <time>2020-08-10T09:20:03.748Z</time>
      </trkpt>
      <trkpt lat="64.24519" lon="10.64144">
        <ele>95.911306</ele>
        <time>2020-08-10T09:20:07.738Z</time>
      </trkpt>
      <trkpt lat="64.24508" lon="10.6415">
        <ele>96.282121</ele>
        <time>2020-08-10T09:20:11.726Z</time>
      </trkpt>
      <trkpt lat="64.24497" lon="10.64157">
        <ele>96.660934</ele>
        <time>2020-08-10T09:20:15.722Z</time>
      </trkpt>
      <trkpt lat="64.24486" lon="10.64166">
        <ele>97.050634</ele>
        <time>2020-08-10T09:20:19.714Z</time>
      </trkpt>
      <trkpt lat="64.24475" lon="10.64173">
        <ele>97.421761</ele>
        <time>2020-08-10T09:20:23.738Z</time>
      </trkpt>
      <trkpt lat="64.24465" lon="10.64179">
        <ele>97.784537</ele>
        <time>2020-08-10T09:20:27.731Z</time>
      </trkpt>
      <trkpt lat="64.24454" lon="10.64188">
        <ele>98.175578</ele>
        <time>2020-08-10T09:20:31.754Z</time>
      </trkpt>
      <trkpt lat="64.24445" lon="10.64196">
        <ele>98.486557</ele>
        <time>2020-08-10T09:20:34.713Z</time>
      </trkpt>
      <trkpt lat="64.24437" lon="10.64204">
        <ele>98.789416</ele>
        <time>2020-08-10T09:20:37.723Z</time>
      </trkpt>
      <trkpt lat="64.24427" lon="10.64212">
        <ele>99.158276</ele>
        <time>2020-08-10T09:20:41.724Z</time>
      </trkpt>
      <trkpt lat="64.24416" lon="10.64221">
        <ele>99.517187</ele>
        <time>2020-08-10T09:20:45.721Z</time>
      </trkpt>
      <trkpt lat="64.24406" lon="10.6423">
        <ele>99.879799</ele>
        <time>2020-08-10T09:20:49.724Z</time>
      </trkpt>
      <trkpt lat="64.24397" lon="10.6424">
        <ele>100.236243</ele>
        <time>2020-08-10T09:20:53.732Z</time>
      </trkpt>
      <trkpt lat="64.24387" lon="10.6425">
        <ele>100.594418</ele>
        <time>2020-08-10T09:20:57.719Z</time>
      </trkpt>
      <trkpt lat="64.24376" lon="10.64262">
        <ele>100.987407</ele>
        <time>2020-08-10T09:21:01.740Z</time>
      </trkpt>
      <trkpt lat="64.24366" lon="10.64272">
        <ele>101.363501</ele>
        <time>2020-08-10T09:21:05.735Z</time>
      </trkpt>
      <trkpt lat="64.24356" lon="10.64282">
        <ele>101.834745</ele>
        <time>2020-08-10T09:21:09.723Z</time>
      </trkpt>
      <trkpt lat="64.24346" lon="10.64293">
        <ele>102.325861</ele>
        <time>2020-08-10T09:21:13.733Z</time>
      </trkpt>
      <trkpt lat="64.24337" lon="10.64305">
        <ele>102.830179</ele>
        <time>2020-08-10T09:21:17.745Z</time>
      </trkpt>
      <trkpt lat="64.24328" lon="10.64315">
        <ele>103.289656</ele>
        <time>2020-08-10T09:21:21.727Z</time>
      </trkpt>
      <trkpt lat="64.2432" lon="10.64329">
        <ele>103.772815</ele>
        <time>2020-08-10T09:21:25.736Z</time>
      </trkpt>
      <trkpt lat="64.24311" lon="10.6434">
        <ele>104.230989</ele>
        <time>2020-08-10T09:21:29.749Z</time>
      </trkpt>
      <trkpt lat="64.24302" lon="10.6435">
        <ele>104.69926</ele>
        <time>2020-08-10T09:21:33.710Z</time>
      </trkpt>
      <trkpt lat="64.24293" lon="10.64361">
        <ele>105.154612</ele>
        <time>2020-08-10T09:21:37.746Z</time>
      </trkpt>
      <trkpt lat="64.24285" lon="10.64373">
        <ele>105.613138</ele>
        <time>2020-08-10T09:21:41.738Z</time>
      </trkpt>
      <trkpt lat="64.24276" lon="10.64383">
        <ele>106.069883</ele>
        <time>2020-08-10T09:21:45.729Z</time>
      </trkpt>
      <trkpt lat="64.24268" lon="10.64395">
        <ele>106.501918</ele>
        <time>2020-08-10T09:21:49.726Z</time>
      </trkpt>
      <trkpt lat="64.24259" lon="10.64408">
        <ele>107.00548</ele>
        <time>2020-08-10T09:21:54.763Z</time>
      </trkpt>
      <trkpt lat="64.2425" lon="10.64421">
        <ele>107.491725</ele>
        <time>2020-08-10T09:21:59.746Z</time>
      </trkpt>
      <trkpt lat="64.24243" lon="10.64432">
        <ele>107.908473</ele>
        <time>2020-08-10T09:22:03.726Z</time>
      </trkpt>
      <trkpt lat="64.24234" lon="10.64446">
        <ele>108.403656</ele>
        <time>2020-08-10T09:22:08.744Z</time>
      </trkpt>
      <trkpt lat="64.24225" lon="10.64456">
        <ele>108.855346</ele>
        <time>2020-08-10T09:22:13.746Z</time>
      </trkpt>
      <trkpt lat="64.24216" lon="10.64468">
        <ele>109.349587</ele>
        <time>2020-08-10T09:22:19.706Z</time>
      </trkpt>
      <trkpt lat="64.24207" lon="10.6448">
        <ele>109.825432</ele>
        <time>2020-08-10T09:22:25.710Z</time>
      </trkpt>
      <trkpt lat="64.24198" lon="10.64492">
        <ele>109.97769</ele>
        <time>2020-08-10T09:22:31.752Z</time>
      </trkpt>
      <trkpt lat="64.2419" lon="10.64499">
        <ele>110.117061</ele>
        <time>2020-08-10T09:22:36.720Z</time>
      </trkpt>
      <trkpt lat="64.24181" lon="10.64509">
        <ele>110.259957</ele>
        <time>2020-08-10T09:22:41.719Z</time>
      </trkpt>
      <trkpt lat="64.24172" lon="10.64524">
        <ele>110.421906</ele>
        <time>2020-08-10T09:22:47.721Z</time>
      </trkpt>
      <trkpt lat="64.24164" lon="10.64538">
        <ele>110.575182</ele>
        <time>2020-08-10T09:22:53.744Z</time>
      </trkpt>
      <trkpt lat="64.24155" lon="10.64547">
        <ele>110.725209</ele>
        <time>2020-08-10T09:22:58.764Z</time>
      </trkpt>
      <trkpt lat="64.24145" lon="10.64551">
        <ele>110.868418</ele>
        <time>2020-08-10T09:23:03.753Z</time>
      </trkpt>
      <trkpt lat="64.24136" lon="10.64558">
        <ele>111.014299</ele>
        <time>2020-08-10T09:23:08.745Z</time>
      </trkpt>
      <trkpt lat="64.24126" lon="10.64565">
        <ele>111.166962</ele>
        <time>2020-08-10T09:23:13.735Z</time>
      </trkpt>
      <trkpt lat="64.24117" lon="10.64571">
        <ele>111.306536</ele>
        <time>2020-08-10T09:23:18.732Z</time>
      </trkpt>
      <trkpt lat="64.24108" lon="10.64579">
        <ele>111.459708</ele>
        <time>2020-08-10T09:23:23.711Z</time>
      </trkpt>
      <trkpt lat="64.24097" lon="10.64584">
        <ele>111.623818</ele>
        <time>2020-08-10T09:23:28.735Z</time>
      </trkpt>
      <trkpt lat="64.24088" lon="10.64591">
        <ele>111.769275</ele>
        <time>2020-08-10T09:23:32.715Z</time>
      </trkpt>
      <trkpt lat="64.24078" lon="10.646">
        <ele>111.932794</ele>
        <time>2020-08-10T09:23:37.724Z</time>
      </trkpt>
      <trkpt lat="64.24069" lon="10.64608">
        <ele>112.066994</ele>
        <time>2020-08-10T09:23:41.740Z</time>
      </trkpt>
      <trkpt lat="64.24059" lon="10.64617">
        <ele>112.225855</ele>
        <time>2020-08-10T09:23:45.735Z</time>
      </trkpt>
      <trkpt lat="64.24049" lon="10.64629">
        <ele>112.396301</ele>
        <time>2020-08-10T09:23:49.737Z</time>
      </trkpt>
      <trkpt lat="64.24039" lon="10.6464">
        <ele>112.403916</ele>
        <time>2020-08-10T09:23:53.715Z</time>
      </trkpt>
      <trkpt lat="64.2403" lon="10.6465">
        <ele>112.156842</ele>
        <time>2020-08-10T09:23:56.757Z</time>
      </trkpt>
      <trkpt lat="64.24021" lon="10.64662">
        <ele>111.867488</ele>
        <time>2020-08-10T09:23:59.707Z</time>
      </trkpt>
      <trkpt lat="64.24012" lon="10.64678">
        <ele>111.564272</ele>
        <time>2020-08-10T09:24:02.743Z</time>
      </trkpt>
      <trkpt lat="64.24003" lon="10.64698">
        <ele>111.230589</ele>
        <time>2020-08-10T09:24:05.741Z</time>
      </trkpt>
      <trkpt lat="64.23997" lon="10.64712">
        <ele>110.978425</ele>
        <time>2020-08-10T09:24:07.734Z</time>
      </trkpt>
      <trkpt lat="64.23989" lon="10.64728">
        <ele>110.709169</ele>
        <time>2020-08-10T09:24:09.731Z</time>
      </trkpt>
      <trkpt lat="64.23981" lon="10.64746">
        <ele>110.409519</ele>
        <time>2020-08-10T09:24:11.742Z</time>
      </trkpt>
      <trkpt lat="64.23974" lon="10.64767">
        <ele>110.088534</ele>
        <time>2020-08-10T09:24:13.754Z</time>
      </trkpt>
      <trkpt lat="64.23966" lon="10.6479">
        <ele>109.746077</ele>
        <time>2020-08-10T09:24:15.728Z</time>
      </trkpt>
      <trkpt lat="64.23959" lon="10.64816">
        <ele>109.393668</ele>
        <time>2020-08-10T09:24:17.724Z</time>
      </trkpt>
      <trkpt lat="64.23952" lon="10.64843">
        <ele>109.02741</ele>
        <time>2020-08-10T09:24:19.748Z</time>
      </trkpt>
      <trkpt lat="64.23947" lon="10.64873">
        <ele>108.644984</ele>
        <time>2020-08-10T09:24:21.717Z</time>
      </trkpt>
      <trkpt lat="64.23942" lon="10.64905">
        <ele>108.246247</ele>
        <time>2020-08-10T09:24:23.749Z</time>
      </trkpt>
      <trkpt lat="64.23938" lon="10.64938">
        <ele>107.841574</ele>
        <time>2020-08-10T09:24:25.723Z</time>
      </trkpt>
      <trkpt lat="64.23935" lon="10.64971">
        <ele>107.499913</ele>
        <time>2020-08-10T09:24:27.743Z</time>
      </trkpt>
      <trkpt lat="64.23933" lon="10.65004">
        <ele>107.205453</ele>
        <time>2020-08-10T09:24:29.718Z</time>
      </trkpt>
      <trkpt lat="64.23933" lon="10.65037">
        <ele>106.91269</ele>
        <time>2020-08-10T09:24:31.740Z</time>
      </trkpt>
      <trkpt lat="64.23932" lon="10.65067">
        <ele>106.650223</ele>
        <time>2020-08-10T09:24:33.727Z</time>
      </trkpt>
      <trkpt lat="64.23932" lon="10.65095">
        <ele>106.403793</ele>
        <time>2020-08-10T09:24:35.726Z</time>
      </trkpt>
      <trkpt lat="64.23933" lon="10.65122">
        <ele>106.168099</ele>
        <time>2020-08-10T09:24:37.749Z</time>
      </trkpt>
      <trkpt lat="64.23935" lon="10.65148">
        <ele>105.93176</ele>
        <time>2020-08-10T09:24:39.742Z</time>
      </trkpt>
      <trkpt lat="64.23936" lon="10.65175">
        <ele>105.691905</ele>
        <time>2020-08-10T09:24:41.753Z</time>
      </trkpt>
      <trkpt lat="64.23938" lon="10.65201">
        <ele>105.458998</ele>
        <time>2020-08-10T09:24:43.722Z</time>
      </trkpt>
      <trkpt lat="64.23941" lon="10.65227">
        <ele>105.225441</ele>
        <time>2020-08-10T09:24:45.746Z</time>
      </trkpt>
      <trkpt lat="64.23943" lon="10.65254">
        <ele>104.986989</ele>
        <time>2020-08-10T09:24:47.731Z</time>
      </trkpt>
      <trkpt lat="64.23944" lon="10.6528">
        <ele>104.754806</ele>
        <time>2020-08-10T09:24:49.724Z</time>
      </trkpt>
      <trkpt lat="64.23944" lon="10.65304">
        <ele>104.541811</ele>
        <time>2020-08-10T09:24:51.738Z</time>
      </trkpt>
      <trkpt lat="64.23944" lon="10.65327">
        <ele>104.342018</ele>
        <time>2020-08-10T09:24:53.732Z</time>
      </trkpt>
      <trkpt lat="64.23945" lon="10.6535">
        <ele>104.133959</ele>
        <time>2020-08-10T09:24:55.710Z</time>
      </trkpt>
      <trkpt lat="64.23947" lon="10.65372">
        <ele>104.005126</ele>
        <time>2020-08-10T09:24:57.734Z</time>
      </trkpt>
      <trkpt lat="64.23947" lon="10.65396">
        <ele>103.991475</ele>
        <time>2020-08-10T09:24:59.722Z</time>
      </trkpt>
      <trkpt lat="64.23946" lon="10.6542">
        <ele>103.978037</ele>
        <time>2020-08-10T09:25:01.737Z</time>
      </trkpt>
      <trkpt lat="64.23945" lon="10.65444">
        <ele>103.964451</ele>
        <time>2020-08-10T09:25:03.738Z</time>
      </trkpt>
      <trkpt lat="64.23945" lon="10.65468">
        <ele>103.950648</ele>
        <time>2020-08-10T09:25:05.732Z</time>
      </trkpt>
      <trkpt lat="64.23943" lon="10.65492">
        <ele>103.936887</ele>
        <time>2020-08-10T09:25:07.736Z</time>
      </trkpt>
      <trkpt lat="64.23941" lon="10.65513">
        <ele>103.924299</ele>
        <time>2020-08-10T09:25:09.726Z</time>
      </trkpt>
      <trkpt lat="64.23936" lon="10.65534">
        <ele>103.911245</ele>
        <time>2020-08-10T09:25:11.724Z</time>
      </trkpt>
      <trkpt lat="64.23932" lon="10.65553">
        <ele>103.898861</ele>
        <time>2020-08-10T09:25:13.744Z</time>
      </trkpt>
      <trkpt lat="64.23927" lon="10.65571">
        <ele>103.887051</ele>
        <time>2020-08-10T09:25:15.710Z</time>
      </trkpt>
      <trkpt lat="64.23923" lon="10.6559">
        <ele>103.875207</ele>
        <time>2020-08-10T09:25:17.717Z</time>
      </trkpt>
      <trkpt lat="64.23917" lon="10.65615">
        <ele>103.858476</ele>
        <time>2020-08-10T09:25:20.714Z</time>
      </trkpt>
      <trkpt lat="64.2391" lon="10.65638">
        <ele>103.842414</ele>
        <time>2020-08-10T09:25:23.732Z</time>
      </trkpt>
      <trkpt lat="64.23902" lon="10.65659">
        <ele>103.827215</ele>
        <time>2020-08-10T09:25:26.711Z</time>
      </trkpt>
      <trkpt lat="64.23894" lon="10.65678">
        <ele>103.811558</ele>
        <time>2020-08-10T09:25:29.731Z</time>
      </trkpt>
      <trkpt lat="64.23886" lon="10.65694">
        <ele>103.797884</ele>
        <time>2020-08-10T09:25:32.734Z</time>
      </trkpt>
      <trkpt lat="64.23878" lon="10.65708">
        <ele>103.78487</ele>
        <time>2020-08-10T09:25:35.734Z</time>
      </trkpt>
      <trkpt lat="64.2387" lon="10.6572">
        <ele>103.874506</ele>
        <time>2020-08-10T09:25:38.740Z</time>
      </trkpt>
      <trkpt lat="64.23863" lon="10.65731">
        <ele>104.507654</ele>
        <time>2020-08-10T09:25:41.734Z</time>
      </trkpt>
      <trkpt lat="64.23852" lon="10.65744">
        <ele>105.334143</ele>
        <time>2020-08-10T09:25:45.713Z</time>
      </trkpt>
      <trkpt lat="64.23842" lon="10.65756">
        <ele>106.142101</ele>
        <time>2020-08-10T09:25:49.761Z</time>
      </trkpt>
      <trkpt lat="64.23833" lon="10.65766">
        <ele>106.824261</ele>
        <time>2020-08-10T09:25:53.717Z</time>
      </trkpt>
      <trkpt lat="64.23825" lon="10.65779">
        <ele>107.471492</ele>
        <time>2020-08-10T09:25:57.743Z</time>
      </trkpt>
      <trkpt lat="64.23819" lon="10.65793">
        <ele>108.118958</ele>
        <time>2020-08-10T09:26:01.740Z</time>
      </trkpt>
      <trkpt lat="64.2381" lon="10.65809">
        <ele>108.874666</ele>
        <time>2020-08-10T09:26:06.720Z</time>
      </trkpt>
      <trkpt lat="64.23803" lon="10.65828">
        <ele>109.650008</ele>
        <time>2020-08-10T09:26:11.723Z</time>
      </trkpt>
      <trkpt lat="64.23796" lon="10.65846">
        <ele>110.359273</ele>
        <time>2020-08-10T09:26:16.787Z</time>
      </trkpt>
      <trkpt lat="64.23791" lon="10.65864">
        <ele>111.005831</ele>
        <time>2020-08-10T09:26:21.737Z</time>
      </trkpt>
      <trkpt lat="64.23786" lon="10.65883">
        <ele>111.673228</ele>
        <time>2020-08-10T09:26:26.720Z</time>
      </trkpt>
      <trkpt lat="64.23781" lon="10.65904">
        <ele>112.416471</ele>
        <time>2020-08-10T09:26:32.742Z</time>
      </trkpt>
      <trkpt lat="64.23776" lon="10.65924">
        <ele>113.079321</ele>
        <time>2020-08-10T09:26:37.720Z</time>
      </trkpt>
      <trkpt lat="64.23772" lon="10.65947">
        <ele>113.824702</ele>
        <time>2020-08-10T09:26:43.756Z</time>
      </trkpt>
      <trkpt lat="64.23771" lon="10.65968">
        <ele>114.481878</ele>
        <time>2020-08-10T09:26:48.749Z</time>
      </trkpt>
      <trkpt lat="64.23769" lon="10.65989">
        <ele>115.137621</ele>
        <time>2020-08-10T09:26:53.735Z</time>
      </trkpt>
      <trkpt lat="64.23768" lon="10.6601">
        <ele>115.761603</ele>
        <time>2020-08-10T09:26:58.746Z</time>
      </trkpt>
      <trkpt lat="64.23768" lon="10.66031">
        <ele>116.322172</ele>
        <time>2020-08-10T09:27:03.728Z</time>
      </trkpt>
      <trkpt lat="64.23768" lon="10.66051">
        <ele>116.590784</ele>
        <time>2020-08-10T09:27:08.780Z</time>
      </trkpt>
      <trkpt lat="64.2377" lon="10.66073">
        <ele>116.875752</ele>
        <time>2020-08-10T09:27:13.722Z</time>
      </trkpt>
      <trkpt lat="64.23772" lon="10.66097">
        <ele>117.197088</ele>
        <time>2020-08-10T09:27:18.719Z</time>
      </trkpt>
      <trkpt lat="64.23775" lon="10.6612">
        <ele>117.497554</ele>
        <time>2020-08-10T09:27:23.740Z</time>
      </trkpt>
      <trkpt lat="64.23778" lon="10.66142">
        <ele>117.807486</ele>
        <time>2020-08-10T09:27:28.719Z</time>
      </trkpt>
      <trkpt lat="64.23783" lon="10.66164">
        <ele>118.118034</ele>
        <time>2020-08-10T09:27:33.735Z</time>
      </trkpt>
      <trkpt lat="64.23788" lon="10.66186">
        <ele>118.450565</ele>
        <time>2020-08-10T09:27:38.742Z</time>
      </trkpt>
      <trkpt lat="64.23794" lon="10.66208">
        <ele>118.7872</ele>
        <time>2020-08-10T09:27:43.718Z</time>
      </trkpt>
      <trkpt lat="64.238" lon="10.66226">
        <ele>119.089654</ele>
        <time>2020-08-10T09:27:47.736Z</time>
      </trkpt>
      <trkpt lat="64.23809" lon="10.66245">
        <ele>119.434815</ele>
        <time>2020-08-10T09:27:51.747Z</time>
      </trkpt>
      <trkpt lat="64.23816" lon="10.6626">
        <ele>119.722908</ele>
        <time>2020-08-10T09:27:54.754Z</time>
      </trkpt>
      <trkpt lat="64.23824" lon="10.66274">
        <ele>120.027557</ele>
        <time>2020-08-10T09:27:57.736Z</time>
      </trkpt>
      <trkpt lat="64.23833" lon="10.66292">
        <ele>120.383119</ele>
        <time>2020-08-10T09:28:00.717Z</time>
      </trkpt>
      <trkpt lat="64.23843" lon="10.6631">
        <ele>120.768276</ele>
        <time>2020-08-10T09:28:03.743Z</time>
      </trkpt>
      <trkpt lat="64.23851" lon="10.66322">
        <ele>121.055741</ele>
        <time>2020-08-10T09:28:05.737Z</time>
      </trkpt>
      <trkpt lat="64.2386" lon="10.66335">
        <ele>121.358159</ele>
        <time>2020-08-10T09:28:07.747Z</time>
      </trkpt>
      <trkpt lat="64.23868" lon="10.6635">
        <ele>121.61908</ele>
        <time>2020-08-10T09:28:09.734Z</time>
      </trkpt>
      <trkpt lat="64.23875" lon="10.66365">
        <ele>121.274685</ele>
        <time>2020-08-10T09:28:11.733Z</time>
      </trkpt>
      <trkpt lat="64.23882" lon="10.66383">
        <ele>120.935396</ele>
        <time>2020-08-10T09:28:13.746Z</time>
      </trkpt>
      <trkpt lat="64.23887" lon="10.66403">
        <ele>120.595023</ele>
        <time>2020-08-10T09:28:15.716Z</time>
      </trkpt>
      <trkpt lat="64.23893" lon="10.66423">
        <ele>120.251248</ele>
        <time>2020-08-10T09:28:17.746Z</time>
      </trkpt>
      <trkpt lat="64.23897" lon="10.66444">
        <ele>119.911129</ele>
        <time>2020-08-10T09:28:19.733Z</time>
      </trkpt>
      <trkpt lat="64.239" lon="10.66465">
        <ele>119.589222</ele>
        <time>2020-08-10T09:28:21.719Z</time>
      </trkpt>
      <trkpt lat="64.23903" lon="10.66485">
        <ele>119.281867</ele>
        <time>2020-08-10T09:28:23.729Z</time>
      </trkpt>
      <trkpt lat="64.23906" lon="10.66514">
        <ele>118.846303</ele>
        <time>2020-08-10T09:28:26.758Z</time>
      </trkpt>
      <trkpt lat="64.23907" lon="10.66544">
        <ele>118.407365</ele>
        <time>2020-08-10T09:28:29.723Z</time>
      </trkpt>
      <trkpt lat="64.23908" lon="10.66572">
        <ele>117.993618</ele>
        <time>2020-08-10T09:28:32.734Z</time>
      </trkpt>
      <trkpt lat="64.23909" lon="10.66593">
        <ele>117.692662</ele>
        <time>2020-08-10T09:28:34.742Z</time>
      </trkpt>
      <trkpt lat="64.23909" lon="10.66622">
        <ele>117.262071</ele>
        <time>2020-08-10T09:28:37.735Z</time>
      </trkpt>
      <trkpt lat="64.23909" lon="10.66651">
        <ele>116.838971</ele>
        <time>2020-08-10T09:28:40.717Z</time>
      </trkpt>
      <trkpt lat="64.2391" lon="10.6668">
        <ele>116.415091</ele>
        <time>2020-08-10T09:28:43.738Z</time>
      </trkpt>
      <trkpt lat="64.23911" lon="10.66701">
        <ele>116.109397</ele>
        <time>2020-08-10T09:28:45.719Z</time>
      </trkpt>
      <trkpt lat="64.23912" lon="10.66732">
        <ele>115.658535</ele>
        <time>2020-08-10T09:28:48.732Z</time>
      </trkpt>
      <trkpt lat="64.23913" lon="10.66752">
        <ele>115.525822</ele>
        <time>2020-08-10T09:28:50.745Z</time>
      </trkpt>
      <trkpt lat="64.23914" lon="10.66783">
        <ele>115.384428</ele>
        <time>2020-08-10T09:28:53.735Z</time>
      </trkpt>
      <trkpt lat="64.23915" lon="10.66804">
        <ele>115.285652</ele>
        <time>2020-08-10T09:28:55.718Z</time>
      </trkpt>
      <trkpt lat="64.23915" lon="10.66825">
        <ele>115.189745</ele>
        <time>2020-08-10T09:28:57.735Z</time>
      </trkpt>
      <trkpt lat="64.23916" lon="10.66856">
        <ele>115.046516</ele>
        <time>2020-08-10T09:29:00.756Z</time>
      </trkpt>
      <trkpt lat="64.23917" lon="10.66886">
        <ele>114.903527</ele>
        <time>2020-08-10T09:29:03.749Z</time>
      </trkpt>
      <trkpt lat="64.23917" lon="10.66909">
        <ele>114.800095</ele>
        <time>2020-08-10T09:29:05.741Z</time>
      </trkpt>
      <trkpt lat="64.23918" lon="10.66931">
        <ele>114.697989</ele>
        <time>2020-08-10T09:29:07.740Z</time>
      </trkpt>
      <trkpt lat="64.23918" lon="10.66953">
        <ele>114.594094</ele>
        <time>2020-08-10T09:29:09.734Z</time>
      </trkpt>
      <trkpt lat="64.23919" lon="10.66975">
        <ele>114.491989</ele>
        <time>2020-08-10T09:29:11.717Z</time>
      </trkpt>
      <trkpt lat="64.23919" lon="10.66996">
        <ele>114.396545</ele>
        <time>2020-08-10T09:29:13.723Z</time>
      </trkpt>
      <trkpt lat="64.2392" lon="10.67025">
        <ele>114.25887</ele>
        <time>2020-08-10T09:29:16.772Z</time>
      </trkpt>
      <trkpt lat="64.2392" lon="10.67055">
        <ele>114.122484</ele>
        <time>2020-08-10T09:29:19.717Z</time>
      </trkpt>
      <trkpt lat="64.23921" lon="10.67085">
        <ele>113.984383</ele>
        <time>2020-08-10T09:29:22.732Z</time>
      </trkpt>
      <trkpt lat="64.23921" lon="10.67115">
        <ele>113.844029</ele>
        <time>2020-08-10T09:29:25.742Z</time>
      </trkpt>
      <trkpt lat="64.23921" lon="10.67145">
        <ele>113.706453</ele>
        <time>2020-08-10T09:29:28.732Z</time>
      </trkpt>
      <trkpt lat="64.2392" lon="10.67173">
        <ele>113.768789</ele>
        <time>2020-08-10T09:29:31.728Z</time>
      </trkpt>
      <trkpt lat="64.23919" lon="10.67203">
        <ele>113.864505</ele>
        <time>2020-08-10T09:29:34.737Z</time>
      </trkpt>
      <trkpt lat="64.23918" lon="10.67233">
        <ele>113.963021</ele>
        <time>2020-08-10T09:29:37.716Z</time>
      </trkpt>
      <trkpt lat="64.23918" lon="10.67263">
        <ele>114.059708</ele>
        <time>2020-08-10T09:29:40.730Z</time>
      </trkpt>
      <trkpt lat="64.23917" lon="10.67284">
        <ele>114.127131</ele>
        <time>2020-08-10T09:29:42.734Z</time>
      </trkpt>
      <trkpt lat="64.23917" lon="10.67305">
        <ele>114.194493</ele>
        <time>2020-08-10T09:29:44.726Z</time>
      </trkpt>
      <trkpt lat="64.23916" lon="10.67336">
        <ele>114.296275</ele>
        <time>2020-08-10T09:29:47.730Z</time>
      </trkpt>
      <trkpt lat="64.23917" lon="10.67358">
        <ele>114.367846</ele>
        <time>2020-08-10T09:29:49.719Z</time>
      </trkpt>
      <trkpt lat="64.23916" lon="10.67381">
        <ele>114.44136</ele>
        <time>2020-08-10T09:29:51.738Z</time>
      </trkpt>
      <trkpt lat="64.23917" lon="10.67403">
        <ele>114.513024</ele>
        <time>2020-08-10T09:29:53.719Z</time>
      </trkpt>
      <trkpt lat="64.23917" lon="10.67434">
        <ele>114.612129</ele>
        <time>2020-08-10T09:29:56.736Z</time>
      </trkpt>
      <trkpt lat="64.23918" lon="10.67462">
        <ele>114.705176</ele>
        <time>2020-08-10T09:29:59.718Z</time>
      </trkpt>
      <trkpt lat="64.2392" lon="10.67492">
        <ele>114.801222</ele>
        <time>2020-08-10T09:30:02.732Z</time>
      </trkpt>
      <trkpt lat="64.23922" lon="10.67512">
        <ele>114.870057</ele>
        <time>2020-08-10T09:30:04.714Z</time>
      </trkpt>
      <trkpt lat="64.23925" lon="10.67541">
        <ele>114.963884</ele>
        <time>2020-08-10T09:30:07.743Z</time>
      </trkpt>
      <trkpt lat="64.23929" lon="10.6757">
        <ele>114.993294</ele>
        <time>2020-08-10T09:30:10.733Z</time>
      </trkpt>
      <trkpt lat="64.23932" lon="10.67597">
        <ele>114.900635</ele>
        <time>2020-08-10T09:30:13.725Z</time>
      </trkpt>
      <trkpt lat="64.23937" lon="10.67624">
        <ele>114.804849</ele>
        <time>2020-08-10T09:30:16.716Z</time>
      </trkpt>
      <trkpt lat="64.23941" lon="10.67651">
        <ele>114.709543</ele>
        <time>2020-08-10T09:30:19.754Z</time>
      </trkpt>
      <trkpt lat="64.23948" lon="10.67677">
        <ele>114.613492</ele>
        <time>2020-08-10T09:30:22.743Z</time>
      </trkpt>
      <trkpt lat="64.23954" lon="10.67701">
        <ele>114.52216</ele>
        <time>2020-08-10T09:30:25.729Z</time>
      </trkpt>
      <trkpt lat="64.23961" lon="10.67727">
        <ele>114.422987</ele>
        <time>2020-08-10T09:30:28.736Z</time>
      </trkpt>
      <trkpt lat="64.23966" lon="10.67743">
        <ele>114.354052</ele>
        <time>2020-08-10T09:30:30.779Z</time>
      </trkpt>
      <trkpt lat="64.23972" lon="10.6776">
        <ele>114.285216</ele>
        <time>2020-08-10T09:30:32.743Z</time>
      </trkpt>
      <trkpt lat="64.23978" lon="10.67785">
        <ele>114.190631</ele>
        <time>2020-08-10T09:30:35.739Z</time>
      </trkpt>
      <trkpt lat="64.23986" lon="10.67809">
        <ele>114.093428</ele>
        <time>2020-08-10T09:30:38.732Z</time>
      </trkpt>
      <trkpt lat="64.2399" lon="10.67829">
        <ele>114.01998</ele>
        <time>2020-08-10T09:30:40.717Z</time>
      </trkpt>
      <trkpt lat="64.23996" lon="10.67849">
        <ele>113.942411</ele>
        <time>2020-08-10T09:30:42.721Z</time>
      </trkpt>
      <trkpt lat="64.24001" lon="10.67869">
        <ele>113.864798</ele>
        <time>2020-08-10T09:30:44.711Z</time>
      </trkpt>
      <trkpt lat="64.24007" lon="10.6789">
        <ele>113.784329</ele>
        <time>2020-08-10T09:30:46.744Z</time>
      </trkpt>
      <trkpt lat="64.24012" lon="10.67912">
        <ele>113.70095</ele>
        <time>2020-08-10T09:30:48.738Z</time>
      </trkpt>
      <trkpt lat="64.24017" lon="10.67935">
        <ele>113.708792</ele>
        <time>2020-08-10T09:30:50.722Z</time>
      </trkpt>
      <trkpt lat="64.24022" lon="10.67958">
        <ele>113.764584</ele>
        <time>2020-08-10T09:30:52.739Z</time>
      </trkpt>
      <trkpt lat="64.24026" lon="10.67981">
        <ele>113.818587</ele>
        <time>2020-08-10T09:30:54.730Z</time>
      </trkpt>
      <trkpt lat="64.24029" lon="10.68002">
        <ele>113.866765</ele>
        <time>2020-08-10T09:30:56.726Z</time>
      </trkpt>
      <trkpt lat="64.24033" lon="10.68022">
        <ele>113.916316</ele>
        <time>2020-08-10T09:30:58.721Z</time>
      </trkpt>
      <trkpt lat="64.24036" lon="10.68043">
        <ele>113.96466</ele>
        <time>2020-08-10T09:31:00.713Z</time>
      </trkpt>
      <trkpt lat="64.2404" lon="10.68072">
        <ele>114.030532</ele>
        <time>2020-08-10T09:31:03.747Z</time>
      </trkpt>
      <trkpt lat="64.24043" lon="10.68099">
        <ele>114.092115</ele>
        <time>2020-08-10T09:31:06.717Z</time>
      </trkpt>
      <trkpt lat="64.24046" lon="10.68124">
        <ele>114.150814</ele>
        <time>2020-08-10T09:31:09.734Z</time>
      </trkpt>
      <trkpt lat="64.24049" lon="10.68148">
        <ele>114.205297</ele>
        <time>2020-08-10T09:31:12.765Z</time>
      </trkpt>
      <trkpt lat="64.24053" lon="10.68172">
        <ele>114.260049</ele>
        <time>2020-08-10T09:31:15.742Z</time>
      </trkpt>
      <trkpt lat="64.24057" lon="10.68195">
        <ele>114.314632</ele>
        <time>2020-08-10T09:31:18.724Z</time>
      </trkpt>
      <trkpt lat="64.24061" lon="10.68216">
        <ele>114.364791</ele>
        <time>2020-08-10T09:31:21.761Z</time>
      </trkpt>
      <trkpt lat="64.24065" lon="10.68238">
        <ele>114.416756</ele>
        <time>2020-08-10T09:31:24.736Z</time>
      </trkpt>
      <trkpt lat="64.2407" lon="10.68259">
        <ele>114.468165</ele>
        <time>2020-08-10T09:31:27.735Z</time>
      </trkpt>
      <trkpt lat="64.24074" lon="10.6828">
        <ele>114.520363</ele>
        <time>2020-08-10T09:31:30.743Z</time>
      </trkpt>
      <trkpt lat="64.24079" lon="10.68302">
        <ele>114.573551</ele>
        <time>2020-08-10T09:31:33.728Z</time>
      </trkpt>
      <trkpt lat="64.24083" lon="10.68324">
        <ele>114.597803</ele>
        <time>2020-08-10T09:31:36.762Z</time>
      </trkpt>
      <trkpt lat="64.24088" lon="10.68347">
        <ele>114.618554</ele>
        <time>2020-08-10T09:31:39.720Z</time>
      </trkpt>
      <trkpt lat="64.24092" lon="10.68371">
        <ele>114.639362</ele>
        <time>2020-08-10T09:31:42.735Z</time>
      </trkpt>
      <trkpt lat="64.24096" lon="10.68394">
        <ele>114.660018</ele>
        <time>2020-08-10T09:31:45.737Z</time>
      </trkpt>
      <trkpt lat="64.241" lon="10.68418">
        <ele>114.680161</ele>
        <time>2020-08-10T09:31:48.719Z</time>
      </trkpt>
      <trkpt lat="64.24104" lon="10.68442">
        <ele>114.701287</ele>
        <time>2020-08-10T09:31:51.725Z</time>
      </trkpt>
      <trkpt lat="64.24108" lon="10.68468">
        <ele>114.72354</ele>
        <time>2020-08-10T09:31:54.755Z</time>
      </trkpt>
      <trkpt lat="64.24111" lon="10.68492">
        <ele>114.743926</ele>
        <time>2020-08-10T09:31:57.717Z</time>
      </trkpt>
      <trkpt lat="64.24115" lon="10.68516">
        <ele>114.763975</ele>
        <time>2020-08-10T09:32:00.716Z</time>
      </trkpt>
      <trkpt lat="64.24117" lon="10.68541">
        <ele>114.785</ele>
        <time>2020-08-10T09:32:03.739Z</time>
      </trkpt>
      <trkpt lat="64.24121" lon="10.68566">
        <ele>114.807037</ele>
        <time>2020-08-10T09:32:06.729Z</time>
      </trkpt>
      <trkpt lat="64.24125" lon="10.68591">
        <ele>114.82839</ele>
        <time>2020-08-10T09:32:09.735Z</time>
      </trkpt>
      <trkpt lat="64.24129" lon="10.68615">
        <ele>114.848828</ele>
        <time>2020-08-10T09:32:12.729Z</time>
      </trkpt>
      <trkpt lat="64.24133" lon="10.68636">
        <ele>114.867552</ele>
        <time>2020-08-10T09:32:15.743Z</time>
      </trkpt>
      <trkpt lat="64.24137" lon="10.68658">
        <ele>114.887031</ele>
        <time>2020-08-10T09:32:18.731Z</time>
      </trkpt>
      <trkpt lat="64.2414" lon="10.6868">
        <ele>114.905756</ele>
        <time>2020-08-10T09:32:21.724Z</time>
      </trkpt>
      <trkpt lat="64.24144" lon="10.68706">
        <ele>114.955733</ele>
        <time>2020-08-10T09:32:25.729Z</time>
      </trkpt>
      <trkpt lat="64.24149" lon="10.6873">
        <ele>115.026244</ele>
        <time>2020-08-10T09:32:29.722Z</time>
      </trkpt>
      <trkpt lat="64.24153" lon="10.68753">
        <ele>115.092817</ele>
        <time>2020-08-10T09:32:33.727Z</time>
      </trkpt>
      <trkpt lat="64.24158" lon="10.68776">
        <ele>115.163967</ele>
        <time>2020-08-10T09:32:37.748Z</time>
      </trkpt>
      <trkpt lat="64.24163" lon="10.68794">
        <ele>115.219935</ele>
        <time>2020-08-10T09:32:40.780Z</time>
      </trkpt>
      <trkpt lat="64.24166" lon="10.68819">
        <ele>115.288282</ele>
        <time>2020-08-10T09:32:44.749Z</time>
      </trkpt>
      <trkpt lat="64.2417" lon="10.68842">
        <ele>115.355605</ele>
        <time>2020-08-10T09:32:48.746Z</time>
      </trkpt>
      <trkpt lat="64.24173" lon="10.68866">
        <ele>115.422198</ele>
        <time>2020-08-10T09:32:52.717Z</time>
      </trkpt>
      <trkpt lat="64.24175" lon="10.68892">
        <ele>115.49402</ele>
        <time>2020-08-10T09:32:56.738Z</time>
      </trkpt>
      <trkpt lat="64.24178" lon="10.68918">
        <ele>115.565634</ele>
        <time>2020-08-10T09:33:00.754Z</time>
      </trkpt>
      <trkpt lat="64.2418" lon="10.68943">
        <ele>115.635908</ele>
        <time>2020-08-10T09:33:04.730Z</time>
      </trkpt>
      <trkpt lat="64.24182" lon="10.68964">
        <ele>115.692937</ele>
        <time>2020-08-10T09:33:07.718Z</time>
      </trkpt>
      <trkpt lat="64.24184" lon="10.68985">
        <ele>115.750721</ele>
        <time>2020-08-10T09:33:10.718Z</time>
      </trkpt>
      <trkpt lat="64.24185" lon="10.69008">
        <ele>115.811004</ele>
        <time>2020-08-10T09:33:13.759Z</time>
      </trkpt>
      <trkpt lat="64.24186" lon="10.6903">
        <ele>115.871248</ele>
        <time>2020-08-10T09:33:16.739Z</time>
      </trkpt>
      <trkpt lat="64.24187" lon="10.69052">
        <ele>115.931914</ele>
        <time>2020-08-10T09:33:19.734Z</time>
      </trkpt>
      <trkpt lat="64.24188" lon="10.69076">
        <ele>115.995711</ele>
        <time>2020-08-10T09:33:22.735Z</time>
      </trkpt>
      <trkpt lat="64.24188" lon="10.69103">
        <ele>115.958496</ele>
        <time>2020-08-10T09:33:25.742Z</time>
      </trkpt>
      <trkpt lat="64.24189" lon="10.69133">
        <ele>115.821964</ele>
        <time>2020-08-10T09:33:28.767Z</time>
      </trkpt>
      <trkpt lat="64.24192" lon="10.69164">
        <ele>115.675132</ele>
        <time>2020-08-10T09:33:31.719Z</time>
      </trkpt>
      <trkpt lat="64.24193" lon="10.69189">
        <ele>115.558024</ele>
        <time>2020-08-10T09:33:33.723Z</time>
      </trkpt>
      <trkpt lat="64.24193" lon="10.69215">
        <ele>115.440225</ele>
        <time>2020-08-10T09:33:35.746Z</time>
      </trkpt>
      <trkpt lat="64.24193" lon="10.6924">
        <ele>115.324272</ele>
        <time>2020-08-10T09:33:37.757Z</time>
      </trkpt>
      <trkpt lat="64.24193" lon="10.69266">
        <ele>115.204867</ele>
        <time>2020-08-10T09:33:39.733Z</time>
      </trkpt>
      <trkpt lat="64.24194" lon="10.6929">
        <ele>115.09393</ele>
        <time>2020-08-10T09:33:41.718Z</time>
      </trkpt>
      <trkpt lat="64.24194" lon="10.69313">
        <ele>114.988511</ele>
        <time>2020-08-10T09:33:43.738Z</time>
      </trkpt>
      <trkpt lat="64.24194" lon="10.69336">
        <ele>114.884473</ele>
        <time>2020-08-10T09:33:45.728Z</time>
      </trkpt>
      <trkpt lat="64.24194" lon="10.69358">
        <ele>114.784164</ele>
        <time>2020-08-10T09:33:47.729Z</time>
      </trkpt>
      <trkpt lat="64.24195" lon="10.69379">
        <ele>114.685491</ele>
        <time>2020-08-10T09:33:49.745Z</time>
      </trkpt>
      <trkpt lat="64.24195" lon="10.694">
        <ele>114.588858</ele>
        <time>2020-08-10T09:33:51.759Z</time>
      </trkpt>
      <trkpt lat="64.24195" lon="10.69421">
        <ele>114.492667</ele>
        <time>2020-08-10T09:33:53.723Z</time>
      </trkpt>
      <trkpt lat="64.24196" lon="10.69442">
        <ele>114.395434</ele>
        <time>2020-08-10T09:33:55.763Z</time>
      </trkpt>
      <trkpt lat="64.24196" lon="10.69463">
        <ele>114.298202</ele>
        <time>2020-08-10T09:33:57.740Z</time>
      </trkpt>
      <trkpt lat="64.24197" lon="10.69484">
        <ele>114.19937</ele>
        <time>2020-08-10T09:33:59.751Z</time>
      </trkpt>
      <trkpt lat="64.24198" lon="10.69506">
        <ele>114.10299</ele>
        <time>2020-08-10T09:34:01.726Z</time>
      </trkpt>
      <trkpt lat="64.24198" lon="10.69527">
        <ele>114.016044</ele>
        <time>2020-08-10T09:34:03.749Z</time>
      </trkpt>
      <trkpt lat="64.24199" lon="10.69556">
        <ele>113.891869</ele>
        <time>2020-08-10T09:34:06.766Z</time>
      </trkpt>
      <trkpt lat="64.242" lon="10.69586">
        <ele>113.766236</ele>
        <time>2020-08-10T09:34:09.742Z</time>
      </trkpt>
      <trkpt lat="64.242" lon="10.69615">
        <ele>113.647863</ele>
        <time>2020-08-10T09:34:12.727Z</time>
      </trkpt>
      <trkpt lat="64.24201" lon="10.69642">
        <ele>113.531266</ele>
        <time>2020-08-10T09:34:15.739Z</time>
      </trkpt>
      <trkpt lat="64.24201" lon="10.69671">
        <ele>113.412972</ele>
        <time>2020-08-10T09:34:18.737Z</time>
      </trkpt>
      <trkpt lat="64.24201" lon="10.69698">
        <ele>113.297182</ele>
        <time>2020-08-10T09:34:21.720Z</time>
      </trkpt>
      <trkpt lat="64.24202" lon="10.69726">
        <ele>113.180522</ele>
        <time>2020-08-10T09:34:24.743Z</time>
      </trkpt>
      <trkpt lat="64.24203" lon="10.69756">
        <ele>113.056128</ele>
        <time>2020-08-10T09:34:27.717Z</time>
      </trkpt>
      <trkpt lat="64.24204" lon="10.69786">
        <ele>112.931448</ele>
        <time>2020-08-10T09:34:30.747Z</time>
      </trkpt>
      <trkpt lat="64.24204" lon="10.69813">
        <ele>112.81906</ele>
        <time>2020-08-10T09:34:33.730Z</time>
      </trkpt>
      <trkpt lat="64.24204" lon="10.69838">
        <ele>112.712522</ele>
        <time>2020-08-10T09:34:36.717Z</time>
      </trkpt>
      <trkpt lat="64.24204" lon="10.69864">
        <ele>112.606296</ele>
        <time>2020-08-10T09:34:39.716Z</time>
      </trkpt>
      <trkpt lat="64.24204" lon="10.69888">
        <ele>112.503033</ele>
        <time>2020-08-10T09:34:42.726Z</time>
      </trkpt>
      <trkpt lat="64.24204" lon="10.69914">
        <ele>112.394823</ele>
        <time>2020-08-10T09:34:45.737Z</time>
      </trkpt>
      <trkpt lat="64.24204" lon="10.69942">
        <ele>112.594547</ele>
        <time>2020-08-10T09:34:48.717Z</time>
      </trkpt>
      <trkpt lat="64.24204" lon="10.69971">
        <ele>112.803076</ele>
        <time>2020-08-10T09:34:51.735Z</time>
      </trkpt>
      <trkpt lat="64.24205" lon="10.69999">
        <ele>113.006051</ele>
        <time>2020-08-10T09:34:54.745Z</time>
      </trkpt>
      <trkpt lat="64.24206" lon="10.70026">
        <ele>113.205724</ele>
        <time>2020-08-10T09:34:57.777Z</time>
      </trkpt>
      <trkpt lat="64.24207" lon="10.70053">
        <ele>113.399622</ele>
        <time>2020-08-10T09:35:00.719Z</time>
      </trkpt>
      <trkpt lat="64.24208" lon="10.70081">
        <ele>113.601943</ele>
        <time>2020-08-10T09:35:03.744Z</time>
      </trkpt>
      <trkpt lat="64.24211" lon="10.70106">
        <ele>113.79645</ele>
        <time>2020-08-10T09:35:06.728Z</time>
      </trkpt>
      <trkpt lat="64.24214" lon="10.70132">
        <ele>113.982886</ele>
        <time>2020-08-10T09:35:09.731Z</time>
      </trkpt>
      <trkpt lat="64.24214" lon="10.70156">
        <ele>114.160657</ele>
        <time>2020-08-10T09:35:12.718Z</time>
      </trkpt>
      <trkpt lat="64.24214" lon="10.7018">
        <ele>114.33226</ele>
        <time>2020-08-10T09:35:15.733Z</time>
      </trkpt>
      <trkpt lat="64.24213" lon="10.70203">
        <ele>114.503781</ele>
        <time>2020-08-10T09:35:18.723Z</time>
      </trkpt>
      <trkpt lat="64.24212" lon="10.70229">
        <ele>114.688167</ele>
        <time>2020-08-10T09:35:21.735Z</time>
      </trkpt>
      <trkpt lat="64.24212" lon="10.70255">
        <ele>114.880875</ele>
        <time>2020-08-10T09:35:24.755Z</time>
      </trkpt>
      <trkpt lat="64.24212" lon="10.70281">
        <ele>115.067705</ele>
        <time>2020-08-10T09:35:27.726Z</time>
      </trkpt>
      <trkpt lat="64.24212" lon="10.70306">
        <ele>115.250434</ele>
        <time>2020-08-10T09:35:30.723Z</time>
      </trkpt>
      <trkpt lat="64.24213" lon="10.70332">
        <ele>115.408522</ele>
        <time>2020-08-10T09:35:33.743Z</time>
      </trkpt>
      <trkpt lat="64.24214" lon="10.70359">
        <ele>115.480181</ele>
        <time>2020-08-10T09:35:36.719Z</time>
      </trkpt>
      <trkpt lat="64.24214" lon="10.70385">
        <ele>115.548128</ele>
        <time>2020-08-10T09:35:39.743Z</time>
      </trkpt>
      <trkpt lat="64.24215" lon="10.7041">
        <ele>115.615108</ele>
        <time>2020-08-10T09:35:42.735Z</time>
      </trkpt>
      <trkpt lat="64.24215" lon="10.70437">
        <ele>115.687911</ele>
        <time>2020-08-10T09:35:45.730Z</time>
      </trkpt>
      <trkpt lat="64.24217" lon="10.70465">
        <ele>115.761326</ele>
        <time>2020-08-10T09:35:48.739Z</time>
      </trkpt>
      <trkpt lat="64.24218" lon="10.70492">
        <ele>115.832541</ele>
        <time>2020-08-10T09:35:51.740Z</time>
      </trkpt>
      <trkpt lat="64.24219" lon="10.70517">
        <ele>115.900643</ele>
        <time>2020-08-10T09:35:54.724Z</time>
      </trkpt>
      <trkpt lat="64.2422" lon="10.70541">
        <ele>115.965123</ele>
        <time>2020-08-10T09:35:57.749Z</time>
      </trkpt>
      <trkpt lat="64.24221" lon="10.70565">
        <ele>116.027433</ele>
        <time>2020-08-10T09:36:00.740Z</time>
      </trkpt>
      <trkpt lat="64.24221" lon="10.70588">
        <ele>116.089528</ele>
        <time>2020-08-10T09:36:03.719Z</time>
      </trkpt>
      <trkpt lat="64.24221" lon="10.70612">
        <ele>116.152154</ele>
        <time>2020-08-10T09:36:06.738Z</time>
      </trkpt>
      <trkpt lat="64.24223" lon="10.70637">
        <ele>116.220321</ele>
        <time>2020-08-10T09:36:09.727Z</time>
      </trkpt>
      <trkpt lat="64.24224" lon="10.70662">
        <ele>116.287262</ele>
        <time>2020-08-10T09:36:12.764Z</time>
      </trkpt>
      <trkpt lat="64.24225" lon="10.70687">
        <ele>116.353062</ele>
        <time>2020-08-10T09:36:15.754Z</time>
      </trkpt>
      <trkpt lat="64.24226" lon="10.7071">
        <ele>116.415034</ele>
        <time>2020-08-10T09:36:18.756Z</time>
      </trkpt>
      <trkpt lat="64.24228" lon="10.70732">
        <ele>116.47253</ele>
        <time>2020-08-10T09:36:21.756Z</time>
      </trkpt>
      <trkpt lat="64.24229" lon="10.70753">
        <ele>116.539791</ele>
        <time>2020-08-10T09:36:24.737Z</time>
      </trkpt>
      <trkpt lat="64.24231" lon="10.70775">
        <ele>116.613531</ele>
        <time>2020-08-10T09:36:27.738Z</time>
      </trkpt>
      <trkpt lat="64.24232" lon="10.70801">
        <ele>116.701799</ele>
        <time>2020-08-10T09:36:31.757Z</time>
      </trkpt>
      <trkpt lat="64.24234" lon="10.70829">
        <ele>116.793351</ele>
        <time>2020-08-10T09:36:35.721Z</time>
      </trkpt>
      <trkpt lat="64.24235" lon="10.7085">
        <ele>116.864032</ele>
        <time>2020-08-10T09:36:38.718Z</time>
      </trkpt>
      <trkpt lat="64.24237" lon="10.70873">
        <ele>116.940354</ele>
        <time>2020-08-10T09:36:41.745Z</time>
      </trkpt>
      <trkpt lat="64.24239" lon="10.70894">
        <ele>117.011456</ele>
        <time>2020-08-10T09:36:44.758Z</time>
      </trkpt>
      <trkpt lat="64.24241" lon="10.70917">
        <ele>117.088658</ele>
        <time>2020-08-10T09:36:47.717Z</time>
      </trkpt>
      <trkpt lat="64.24242" lon="10.70941">
        <ele>117.167145</ele>
        <time>2020-08-10T09:36:50.718Z</time>
      </trkpt>
      <trkpt lat="64.24243" lon="10.70965">
        <ele>117.24646</ele>
        <time>2020-08-10T09:36:53.730Z</time>
      </trkpt>
      <trkpt lat="64.24244" lon="10.70988">
        <ele>117.32282</ele>
        <time>2020-08-10T09:36:56.743Z</time>
      </trkpt>
      <trkpt lat="64.24244" lon="10.7101">
        <ele>117.395238</ele>
        <time>2020-08-10T09:36:59.752Z</time>
      </trkpt>
      <trkpt lat="64.24246" lon="10.71032">
        <ele>117.467526</ele>
        <time>2020-08-10T09:37:02.731Z</time>
      </trkpt>
      <trkpt lat="64.24247" lon="10.71052">
        <ele>117.536156</ele>
        <time>2020-08-10T09:37:05.728Z</time>
      </trkpt>
      <trkpt lat="64.24249" lon="10.71073">
        <ele>117.604916</ele>
        <time>2020-08-10T09:37:08.753Z</time>
      </trkpt>
      <trkpt lat="64.2425" lon="10.71099">
        <ele>117.692307</ele>
        <time>2020-08-10T09:37:12.725Z</time>
      </trkpt>
      <trkpt lat="64.24252" lon="10.71121">
        <ele>117.76575</ele>
        <time>2020-08-10T09:37:15.726Z</time>
      </trkpt>
      <trkpt lat="64.24253" lon="10.71145">
        <ele>117.845321</ele>
        <time>2020-08-10T09:37:19.769Z</time>
      </trkpt>
      <trkpt lat="64.24256" lon="10.7117">
        <ele>118.464623</ele>
        <time>2020-08-10T09:37:23.737Z</time>
      </trkpt>
      <trkpt lat="64.24257" lon="10.71191">
        <ele>118.991693</ele>
        <time>2020-08-10T09:37:26.720Z</time>
      </trkpt>
      <trkpt lat="64.24259" lon="10.71211">
        <ele>119.517754</ele>
        <time>2020-08-10T09:37:30.737Z</time>
      </trkpt>
      <trkpt lat="64.24262" lon="10.71233">
        <ele>120.10406</ele>
        <time>2020-08-10T09:37:36.771Z</time>
      </trkpt>
      <trkpt lat="64.24264" lon="10.71258">
        <ele>120.739966</ele>
        <time>2020-08-10T09:37:41.721Z</time>
      </trkpt>
      <trkpt lat="64.24265" lon="10.71278">
        <ele>121.276754</ele>
        <time>2020-08-10T09:37:45.724Z</time>
      </trkpt>
      <trkpt lat="64.24267" lon="10.71299">
        <ele>121.802287</ele>
        <time>2020-08-10T09:37:50.756Z</time>
      </trkpt>
      <trkpt lat="64.24268" lon="10.71319">
        <ele>122.330231</ele>
        <time>2020-08-10T09:37:55.724Z</time>
      </trkpt>
      <trkpt lat="64.24271" lon="10.71341">
        <ele>122.896853</ele>
        <time>2020-08-10T09:38:01.737Z</time>
      </trkpt>
      <trkpt lat="64.24271" lon="10.71361">
        <ele>123.420793</ele>
        <time>2020-08-10T09:38:07.738Z</time>
      </trkpt>
      <trkpt lat="64.24273" lon="10.71385">
        <ele>124.018097</ele>
        <time>2020-08-10T09:38:13.721Z</time>
      </trkpt>
      <trkpt lat="64.24274" lon="10.71408">
        <ele>124.621035</ele>
        <time>2020-08-10T09:38:19.757Z</time>
      </trkpt>
      <trkpt lat="64.24273" lon="10.7143">
        <ele>125.188554</ele>
        <time>2020-08-10T09:38:25.725Z</time>
      </trkpt>
      <trkpt lat="64.24274" lon="10.71451">
        <ele>125.715341</ele>
        <time>2020-08-10T09:38:31.722Z</time>
      </trkpt>
      <trkpt lat="64.24275" lon="10.71472">
        <ele>126.261031</ele>
        <time>2020-08-10T09:38:37.727Z</time>
      </trkpt>
      <trkpt lat="64.24274" lon="10.71494">
        <ele>126.804658</ele>
        <time>2020-08-10T09:38:43.740Z</time>
      </trkpt>
      <trkpt lat="64.24274" lon="10.71516">
        <ele>127.37959</ele>
        <time>2020-08-10T09:38:50.750Z</time>
      </trkpt>
      <trkpt lat="64.24274" lon="10.7154">
        <ele>127.982934</ele>
        <time>2020-08-10T09:38:57.727Z</time>
      </trkpt>
      <trkpt lat="64.24272" lon="10.71563">
        <ele>128.62359</ele>
        <time>2020-08-10T09:39:03.755Z</time>
      </trkpt>
      <trkpt lat="64.24272" lon="10.71584">
        <ele>129.321717</ele>
        <time>2020-08-10T09:39:09.739Z</time>
      </trkpt>
      <trkpt lat="64.2427" lon="10.71607">
        <ele>130.082229</ele>
        <time>2020-08-10T09:39:16.753Z</time>
      </trkpt>
      <trkpt lat="64.24269" lon="10.7163">
        <ele>130.822658</ele>
        <time>2020-08-10T09:39:22.743Z</time>
      </trkpt>
      <trkpt lat="64.24268" lon="10.71652">
        <ele>131.570985</ele>
        <time>2020-08-10T09:39:28.745Z</time>
      </trkpt>
      <trkpt lat="64.24265" lon="10.71673">
        <ele>132.276165</ele>
        <time>2020-08-10T09:39:34.741Z</time>
      </trkpt>
      <trkpt lat="64.24263" lon="10.71694">
        <ele>132.975926</ele>
        <time>2020-08-10T09:39:40.738Z</time>
      </trkpt>
      <trkpt lat="64.2426" lon="10.71717">
        <ele>133.764584</ele>
        <time>2020-08-10T09:39:47.721Z</time>
      </trkpt>
      <trkpt lat="64.24257" lon="10.7174">
        <ele>134.536418</ele>
        <time>2020-08-10T09:39:54.758Z</time>
      </trkpt>
      <trkpt lat="64.24253" lon="10.71762">
        <ele>135.298716</ele>
        <time>2020-08-10T09:40:01.743Z</time>
      </trkpt>
      <trkpt lat="64.2425" lon="10.71783">
        <ele>136.030815</ele>
        <time>2020-08-10T09:40:08.734Z</time>
      </trkpt>
      <trkpt lat="64.24246" lon="10.71803">
        <ele>136.764992</ele>
        <time>2020-08-10T09:40:15.737Z</time>
      </trkpt>
      <trkpt lat="64.24242" lon="10.71823">
        <ele>137.471641</ele>
        <time>2020-08-10T09:40:22.727Z</time>
      </trkpt>
      <trkpt lat="64.24239" lon="10.71843">
        <ele>138.163107</ele>
        <time>2020-08-10T09:40:28.780Z</time>
      </trkpt>
      <trkpt lat="64.24234" lon="10.71863">
        <ele>138.901951</ele>
        <time>2020-08-10T09:40:35.733Z</time>
      </trkpt>
      <trkpt lat="64.24228" lon="10.71882">
        <ele>139.66639</ele>
        <time>2020-08-10T09:40:42.758Z</time>
      </trkpt>
      <trkpt lat="64.24222" lon="10.71901">
        <ele>140.444094</ele>
        <time>2020-08-10T09:40:49.747Z</time>
      </trkpt>
      <trkpt lat="64.24218" lon="10.71921">
        <ele>141.171122</ele>
        <time>2020-08-10T09:40:56.752Z</time>
      </trkpt>
      <trkpt lat="64.24213" lon="10.7194">
        <ele>141.919386</ele>
        <time>2020-08-10T09:41:03.783Z</time>
      </trkpt>
      <trkpt lat="64.24209" lon="10.71959">
        <ele>142.888921</ele>
        <time>2020-08-10T09:41:10.747Z</time>
      </trkpt>
      <trkpt lat="64.24204" lon="10.7198">
        <ele>144.00171</ele>
        <time>2020-08-10T09:41:18.718Z</time>
      </trkpt>
      <trkpt lat="64.24199" lon="10.71998">
        <ele>144.965471</ele>
        <time>2020-08-10T09:41:24.747Z</time>
      </trkpt>
      <trkpt lat="64.24193" lon="10.72017">
        <ele>146.038344</ele>
        <time>2020-08-10T09:41:32.756Z</time>
      </trkpt>
      <trkpt lat="64.24188" lon="10.72035">
        <ele>147.031776</ele>
        <time>2020-08-10T09:41:39.745Z</time>
      </trkpt>
      <trkpt lat="64.24183" lon="10.72054">
        <ele>148.033567</ele>
        <time>2020-08-10T09:41:46.719Z</time>
      </trkpt>
      <trkpt lat="64.24178" lon="10.72074">
        <ele>149.066755</ele>
        <time>2020-08-10T09:41:53.765Z</time>
      </trkpt>
      <trkpt lat="64.24173" lon="10.72094">
        <ele>150.110482</ele>
        <time>2020-08-10T09:42:00.747Z</time>
      </trkpt>
      <trkpt lat="64.24169" lon="10.72115">
        <ele>151.176571</ele>
        <time>2020-08-10T09:42:08.767Z</time>
      </trkpt>
      <trkpt lat="64.24165" lon="10.72135">
        <ele>152.216935</ele>
        <time>2020-08-10T09:42:14.780Z</time>
      </trkpt>
      <trkpt lat="64.24158" lon="10.72152">
        <ele>153.293998</ele>
        <time>2020-08-10T09:42:21.780Z</time>
      </trkpt>
      <trkpt lat="64.24154" lon="10.7217">
        <ele>154.266537</ele>
        <time>2020-08-10T09:42:28.717Z</time>
      </trkpt>
      <trkpt lat="64.24151" lon="10.72192">
        <ele>155.325437</ele>
        <time>2020-08-10T09:42:36.729Z</time>
      </trkpt>
      <trkpt lat="64.24146" lon="10.72213">
        <ele>156.374572</ele>
        <time>2020-08-10T09:42:44.729Z</time>
      </trkpt>
      <trkpt lat="64.24141" lon="10.72231">
        <ele>157.363397</ele>
        <time>2020-08-10T09:42:51.726Z</time>
      </trkpt>
      <trkpt lat="64.24137" lon="10.72252">
        <ele>158.41217</ele>
        <time>2020-08-10T09:42:58.770Z</time>
      </trkpt>
      <trkpt lat="64.24134" lon="10.72273">
        <ele>159.449361</ele>
        <time>2020-08-10T09:43:05.783Z</time>
      </trkpt>
      <trkpt lat="64.2413" lon="10.72296">
        <ele>160.556367</ele>
        <time>2020-08-10T09:43:12.756Z</time>
      </trkpt>
      <trkpt lat="64.24127" lon="10.72316">
        <ele>161.399911</ele>
        <time>2020-08-10T09:43:19.744Z</time>
      </trkpt>
      <trkpt lat="64.24124" lon="10.72337">
        <ele>162.191547</ele>
        <time>2020-08-10T09:43:26.728Z</time>
      </trkpt>
      <trkpt lat="64.2412" lon="10.72356">
        <ele>162.961467</ele>
        <time>2020-08-10T09:43:33.724Z</time>
      </trkpt>
      <trkpt lat="64.24118" lon="10.72377">
        <ele>163.742807</ele>
        <time>2020-08-10T09:43:40.732Z</time>
      </trkpt>
      <trkpt lat="64.24114" lon="10.72397">
        <ele>164.55881</ele>
        <time>2020-08-10T09:43:47.755Z</time>
      </trkpt>
      <trkpt lat="64.24111" lon="10.72419">
        <ele>165.378809</ele>
        <time>2020-08-10T09:43:54.739Z</time>
      </trkpt>
      <trkpt lat="64.24109" lon="10.72442">
        <ele>166.236758</ele>
        <time>2020-08-10T09:44:01.738Z</time>
      </trkpt>
      <trkpt lat="64.24105" lon="10.72461">
        <ele>167.000594</ele>
        <time>2020-08-10T09:44:08.727Z</time>
      </trkpt>
      <trkpt lat="64.24102" lon="10.72481">
        <ele>167.763296</ele>
        <time>2020-08-10T09:44:15.765Z</time>
      </trkpt>
      <trkpt lat="64.241" lon="10.72504">
        <ele>168.611507</ele>
        <time>2020-08-10T09:44:23.804Z</time>
      </trkpt>
      <trkpt lat="64.24096" lon="10.72523">
        <ele>169.383717</ele>
        <time>2020-08-10T09:44:31.722Z</time>
      </trkpt>
      <trkpt lat="64.24094" lon="10.72543">
        <ele>170.146678</ele>
        <time>2020-08-10T09:44:38.723Z</time>
      </trkpt>
      <trkpt lat="64.24092" lon="10.72565">
        <ele>170.964844</ele>
        <time>2020-08-10T09:44:45.774Z</time>
      </trkpt>
      <trkpt lat="64.2409" lon="10.72586">
        <ele>171.731441</ele>
        <time>2020-08-10T09:44:52.730Z</time>
      </trkpt>
      <trkpt lat="64.24089" lon="10.72606">
        <ele>172.489797</ele>
        <time>2020-08-10T09:44:58.733Z</time>
      </trkpt>
      <trkpt lat="64.24087" lon="10.72627">
        <ele>173.261705</ele>
        <time>2020-08-10T09:45:05.743Z</time>
      </trkpt>
      <trkpt lat="64.24087" lon="10.72649">
        <ele>174.068956</ele>
        <time>2020-08-10T09:45:12.744Z</time>
      </trkpt>
      <trkpt lat="64.24085" lon="10.72672">
        <ele>174.921186</ele>
        <time>2020-08-10T09:45:20.762Z</time>
      </trkpt>
      <trkpt lat="64.24082" lon="10.72694">
        <ele>175.74302</ele>
        <time>2020-08-10T09:45:28.753Z</time>
      </trkpt>
      <trkpt lat="64.24081" lon="10.72714">
        <ele>176.254108</ele>
        <time>2020-08-10T09:45:35.793Z</time>
      </trkpt>
      <trkpt lat="64.24079" lon="10.72735">
        <ele>176.686944</ele>
        <time>2020-08-10T09:45:42.735Z</time>
      </trkpt>
      <trkpt lat="64.24079" lon="10.72756">
        <ele>177.138241</ele>
        <time>2020-08-10T09:45:49.727Z</time>
      </trkpt>
      <trkpt lat="64.24078" lon="10.72777">
        <ele>177.572764</ele>
        <time>2020-08-10T09:45:55.733Z</time>
      </trkpt>
      <trkpt lat="64.24078" lon="10.72798">
        <ele>178.015857</ele>
        <time>2020-08-10T09:46:02.743Z</time>
      </trkpt>
      <trkpt lat="64.24078" lon="10.72822">
        <ele>178.515549</ele>
        <time>2020-08-10T09:46:10.723Z</time>
      </trkpt>
      <trkpt lat="64.24077" lon="10.72845">
        <ele>179.000035</ele>
        <time>2020-08-10T09:46:17.735Z</time>
      </trkpt>
      <trkpt lat="64.24076" lon="10.72866">
        <ele>179.446923</ele>
        <time>2020-08-10T09:46:24.744Z</time>
      </trkpt>
      <trkpt lat="64.24075" lon="10.72889">
        <ele>179.937679</ele>
        <time>2020-08-10T09:46:32.724Z</time>
      </trkpt>
      <trkpt lat="64.24074" lon="10.72911">
        <ele>180.387916</ele>
        <time>2020-08-10T09:46:39.784Z</time>
      </trkpt>
      <trkpt lat="64.24076" lon="10.72934">
        <ele>180.890306</ele>
        <time>2020-08-10T09:46:45.730Z</time>
      </trkpt>
      <trkpt lat="64.24076" lon="10.72955">
        <ele>181.322597</ele>
        <time>2020-08-10T09:46:50.757Z</time>
      </trkpt>
      <trkpt lat="64.24077" lon="10.72976">
        <ele>181.767397</ele>
        <time>2020-08-10T09:46:56.779Z</time>
      </trkpt>
      <trkpt lat="64.24077" lon="10.72999">
        <ele>182.24844</ele>
        <time>2020-08-10T09:47:02.744Z</time>
      </trkpt>
      <trkpt lat="64.24077" lon="10.73022">
        <ele>182.743774</ele>
        <time>2020-08-10T09:47:08.730Z</time>
      </trkpt>
      <trkpt lat="64.24076" lon="10.73046">
        <ele>183.25061</ele>
        <time>2020-08-10T09:47:14.725Z</time>
      </trkpt>
      <trkpt lat="64.24077" lon="10.73068">
        <ele>183.701218</ele>
        <time>2020-08-10T09:47:19.760Z</time>
      </trkpt>
      <trkpt lat="64.24078" lon="10.7309">
        <ele>184.173637</ele>
        <time>2020-08-10T09:47:24.745Z</time>
      </trkpt>
      <trkpt lat="64.2408" lon="10.73114">
        <ele>184.552214</ele>
        <time>2020-08-10T09:47:29.727Z</time>
      </trkpt>
      <trkpt lat="64.24081" lon="10.73137">
        <ele>184.264283</ele>
        <time>2020-08-10T09:47:34.734Z</time>
      </trkpt>
      <trkpt lat="64.24081" lon="10.73163">
        <ele>183.945034</ele>
        <time>2020-08-10T09:47:39.731Z</time>
      </trkpt>
      <trkpt lat="64.24082" lon="10.73187">
        <ele>183.652487</ele>
        <time>2020-08-10T09:47:43.744Z</time>
      </trkpt>
      <trkpt lat="64.24084" lon="10.73212">
        <ele>183.336038</ele>
        <time>2020-08-10T09:47:47.733Z</time>
      </trkpt>
      <trkpt lat="64.24086" lon="10.7324">
        <ele>182.993038</ele>
        <time>2020-08-10T09:47:51.743Z</time>
      </trkpt>
      <trkpt lat="64.24089" lon="10.73264">
        <ele>182.689812</ele>
        <time>2020-08-10T09:47:54.735Z</time>
      </trkpt>
      <trkpt lat="64.24092" lon="10.7329">
        <ele>182.362297</ele>
        <time>2020-08-10T09:47:57.730Z</time>
      </trkpt>
      <trkpt lat="64.24095" lon="10.73319">
        <ele>181.998838</ele>
        <time>2020-08-10T09:48:00.754Z</time>
      </trkpt>
      <trkpt lat="64.24098" lon="10.7334">
        <ele>181.728017</ele>
        <time>2020-08-10T09:48:02.739Z</time>
      </trkpt>
      <trkpt lat="64.24101" lon="10.73363">
        <ele>181.439316</ele>
        <time>2020-08-10T09:48:04.729Z</time>
      </trkpt>
      <trkpt lat="64.24104" lon="10.73385">
        <ele>181.152266</ele>
        <time>2020-08-10T09:48:06.744Z</time>
      </trkpt>
      <trkpt lat="64.24107" lon="10.7341">
        <ele>180.826924</ele>
        <time>2020-08-10T09:48:08.739Z</time>
      </trkpt>
      <trkpt lat="64.24111" lon="10.73437">
        <ele>180.482658</ele>
        <time>2020-08-10T09:48:10.745Z</time>
      </trkpt>
      <trkpt lat="64.24115" lon="10.73467">
        <ele>180.103172</ele>
        <time>2020-08-10T09:48:12.745Z</time>
      </trkpt>
      <trkpt lat="64.24119" lon="10.73498">
        <ele>179.708439</ele>
        <time>2020-08-10T09:48:14.759Z</time>
      </trkpt>
      <trkpt lat="64.24123" lon="10.73531">
        <ele>179.101168</ele>
        <time>2020-08-10T09:48:16.742Z</time>
      </trkpt>
      <trkpt lat="64.24126" lon="10.73565">
        <ele>178.337078</ele>
        <time>2020-08-10T09:48:18.766Z</time>
      </trkpt>
      <trkpt lat="64.2413" lon="10.736">
        <ele>177.533495</ele>
        <time>2020-08-10T09:48:20.779Z</time>
      </trkpt>
      <trkpt lat="64.24133" lon="10.73639">
        <ele>176.680965</ele>
        <time>2020-08-10T09:48:22.793Z</time>
      </trkpt>
      <trkpt lat="64.24134" lon="10.73678">
        <ele>175.807006</ele>
        <time>2020-08-10T09:48:24.740Z</time>
      </trkpt>
      <trkpt lat="64.24135" lon="10.7372">
        <ele>174.902383</ele>
        <time>2020-08-10T09:48:26.733Z</time>
      </trkpt>
      <trkpt lat="64.24135" lon="10.73741">
        <ele>174.435987</ele>
        <time>2020-08-10T09:48:27.740Z</time>
      </trkpt>
      <trkpt lat="64.24135" lon="10.73763">
        <ele>173.962943</ele>
        <time>2020-08-10T09:48:28.750Z</time>
      </trkpt>
      <trkpt lat="64.24134" lon="10.73785">
        <ele>173.47403</ele>
        <time>2020-08-10T09:48:29.734Z</time>
      </trkpt>
      <trkpt lat="64.24134" lon="10.73808">
        <ele>172.97609</ele>
        <time>2020-08-10T09:48:30.744Z</time>
      </trkpt>
      <trkpt lat="64.24133" lon="10.7383">
        <ele>172.48437</ele>
        <time>2020-08-10T09:48:31.747Z</time>
      </trkpt>
      <trkpt lat="64.24132" lon="10.73852">
        <ele>171.993903</ele>
        <time>2020-08-10T09:48:32.763Z</time>
      </trkpt>
      <trkpt lat="64.2413" lon="10.73874">
        <ele>171.499441</ele>
        <time>2020-08-10T09:48:33.733Z</time>
      </trkpt>
      <trkpt lat="64.24128" lon="10.73897">
        <ele>170.994482</ele>
        <time>2020-08-10T09:48:34.793Z</time>
      </trkpt>
      <trkpt lat="64.24125" lon="10.7392">
        <ele>170.477501</ele>
        <time>2020-08-10T09:48:35.763Z</time>
      </trkpt>
      <trkpt lat="64.24122" lon="10.73943">
        <ele>170.079137</ele>
        <time>2020-08-10T09:48:36.798Z</time>
      </trkpt>
      <trkpt lat="64.24119" lon="10.73966">
        <ele>169.678151</ele>
        <time>2020-08-10T09:48:37.729Z</time>
      </trkpt>
      <trkpt lat="64.24116" lon="10.73989">
        <ele>169.277164</ele>
        <time>2020-08-10T09:48:38.779Z</time>
      </trkpt>
      <trkpt lat="64.24112" lon="10.7401">
        <ele>168.891069</ele>
        <time>2020-08-10T09:48:39.776Z</time>
      </trkpt>
      <trkpt lat="64.24109" lon="10.74032">
        <ele>168.508688</ele>
        <time>2020-08-10T09:48:40.734Z</time>
      </trkpt>
      <trkpt lat="64.24105" lon="10.74053">
        <ele>168.128</ele>
        <time>2020-08-10T09:48:41.737Z</time>
      </trkpt>
      <trkpt lat="64.24101" lon="10.74073">
        <ele>167.751816</ele>
        <time>2020-08-10T09:48:42.729Z</time>
      </trkpt>
      <trkpt lat="64.24097" lon="10.74093">
        <ele>167.381776</ele>
        <time>2020-08-10T09:48:43.726Z</time>
      </trkpt>
      <trkpt lat="64.24093" lon="10.74113">
        <ele>167.017874</ele>
        <time>2020-08-10T09:48:44.797Z</time>
      </trkpt>
      <trkpt lat="64.24088" lon="10.74132">
        <ele>166.658063</ele>
        <time>2020-08-10T09:48:45.727Z</time>
      </trkpt>
      <trkpt lat="64.24084" lon="10.74151">
        <ele>166.307626</ele>
        <time>2020-08-10T09:48:46.739Z</time>
      </trkpt>
      <trkpt lat="64.2408" lon="10.7417">
        <ele>165.964664</ele>
        <time>2020-08-10T09:48:47.756Z</time>
      </trkpt>
      <trkpt lat="64.24074" lon="10.74206">
        <ele>165.298078</ele>
        <time>2020-08-10T09:48:49.768Z</time>
      </trkpt>
      <trkpt lat="64.24067" lon="10.74244">
        <ele>164.620787</ele>
        <time>2020-08-10T09:48:51.765Z</time>
      </trkpt>
      <trkpt lat="64.2406" lon="10.74279">
        <ele>163.986093</ele>
        <time>2020-08-10T09:48:53.753Z</time>
      </trkpt>
      <trkpt lat="64.24057" lon="10.74313">
        <ele>163.418032</ele>
        <time>2020-08-10T09:48:55.738Z</time>
      </trkpt>
      <trkpt lat="64.24055" lon="10.74346">
        <ele>162.905763</ele>
        <time>2020-08-10T09:48:57.737Z</time>
      </trkpt>
      <trkpt lat="64.24052" lon="10.74378">
        <ele>162.401683</ele>
        <time>2020-08-10T09:48:59.763Z</time>
      </trkpt>
      <trkpt lat="64.24051" lon="10.7441">
        <ele>161.899813</ele>
        <time>2020-08-10T09:49:01.763Z</time>
      </trkpt>
      <trkpt lat="64.24051" lon="10.74442">
        <ele>161.408848</ele>
        <time>2020-08-10T09:49:03.729Z</time>
      </trkpt>
      <trkpt lat="64.24051" lon="10.74474">
        <ele>160.914531</ele>
        <time>2020-08-10T09:49:05.745Z</time>
      </trkpt>
      <trkpt lat="64.24053" lon="10.74505">
        <ele>160.429299</ele>
        <time>2020-08-10T09:49:07.762Z</time>
      </trkpt>
      <trkpt lat="64.24054" lon="10.74534">
        <ele>159.982934</ele>
        <time>2020-08-10T09:49:09.771Z</time>
      </trkpt>
      <trkpt lat="64.24056" lon="10.74561">
        <ele>159.548224</ele>
        <time>2020-08-10T09:49:11.750Z</time>
      </trkpt>
      <trkpt lat="64.24058" lon="10.74588">
        <ele>159.134251</ele>
        <time>2020-08-10T09:49:13.736Z</time>
      </trkpt>
      <trkpt lat="64.24061" lon="10.74614">
        <ele>158.711191</ele>
        <time>2020-08-10T09:49:15.723Z</time>
      </trkpt>
      <trkpt lat="64.24064" lon="10.74641">
        <ele>158.288986</ele>
        <time>2020-08-10T09:49:17.769Z</time>
      </trkpt>
      <trkpt lat="64.24067" lon="10.74667">
        <ele>157.868614</ele>
        <time>2020-08-10T09:49:19.749Z</time>
      </trkpt>
      <trkpt lat="64.2407" lon="10.74693">
        <ele>157.447666</ele>
        <time>2020-08-10T09:49:21.743Z</time>
      </trkpt>
      <trkpt lat="64.24073" lon="10.7472">
        <ele>157.235222</ele>
        <time>2020-08-10T09:49:23.760Z</time>
      </trkpt>
      <trkpt lat="64.24077" lon="10.74747">
        <ele>157.419267</ele>
        <time>2020-08-10T09:49:25.747Z</time>
      </trkpt>
      <trkpt lat="64.24081" lon="10.74773">
        <ele>157.602879</ele>
        <time>2020-08-10T09:49:27.742Z</time>
      </trkpt>
      <trkpt lat="64.24085" lon="10.74799">
        <ele>157.785701</ele>
        <time>2020-08-10T09:49:29.735Z</time>
      </trkpt>
      <trkpt lat="64.24089" lon="10.74827">
        <ele>157.973814</ele>
        <time>2020-08-10T09:49:31.722Z</time>
      </trkpt>
      <trkpt lat="64.24092" lon="10.74855">
        <ele>158.162877</ele>
        <time>2020-08-10T09:49:33.770Z</time>
      </trkpt>
      <trkpt lat="64.24094" lon="10.74881">
        <ele>158.34223</ele>
        <time>2020-08-10T09:49:35.740Z</time>
      </trkpt>
      <trkpt lat="64.24096" lon="10.74908">
        <ele>158.520391</ele>
        <time>2020-08-10T09:49:37.756Z</time>
      </trkpt>
      <trkpt lat="64.24097" lon="10.74934">
        <ele>158.690094</ele>
        <time>2020-08-10T09:49:39.718Z</time>
      </trkpt>
      <trkpt lat="64.24098" lon="10.74958">
        <ele>158.84921</ele>
        <time>2020-08-10T09:49:41.756Z</time>
      </trkpt>
      <trkpt lat="64.24099" lon="10.7498">
        <ele>158.997989</ele>
        <time>2020-08-10T09:49:43.752Z</time>
      </trkpt>
      <trkpt lat="64.241" lon="10.75001">
        <ele>159.13774</ele>
        <time>2020-08-10T09:49:45.736Z</time>
      </trkpt>
      <trkpt lat="64.241" lon="10.75028">
        <ele>159.312066</ele>
        <time>2020-08-10T09:49:48.745Z</time>
      </trkpt>
      <trkpt lat="64.241" lon="10.75051">
        <ele>159.462168</ele>
        <time>2020-08-10T09:49:51.717Z</time>
      </trkpt>
      <trkpt lat="64.24099" lon="10.75077">
        <ele>159.632782</ele>
        <time>2020-08-10T09:49:55.736Z</time>
      </trkpt>
      <trkpt lat="64.24098" lon="10.75101">
        <ele>159.790464</ele>
        <time>2020-08-10T09:49:59.728Z</time>
      </trkpt>
      <trkpt lat="64.24099" lon="10.75122">
        <ele>160.055698</ele>
        <time>2020-08-10T09:50:03.763Z</time>
      </trkpt>
      <trkpt lat="64.24097" lon="10.75147">
        <ele>160.740145</ele>
        <time>2020-08-10T09:50:08.729Z</time>
      </trkpt>
      <trkpt lat="64.24097" lon="10.75171">
        <ele>161.409893</ele>
        <time>2020-08-10T09:50:13.735Z</time>
      </trkpt>
      <trkpt lat="64.24098" lon="10.75193">
        <ele>162.00631</ele>
        <time>2020-08-10T09:50:18.761Z</time>
      </trkpt>
      <trkpt lat="64.24098" lon="10.75216">
        <ele>162.646936</ele>
        <time>2020-08-10T09:50:23.725Z</time>
      </trkpt>
      <trkpt lat="64.24099" lon="10.75239">
        <ele>163.288903</ele>
        <time>2020-08-10T09:50:29.755Z</time>
      </trkpt>
      <trkpt lat="64.24097" lon="10.7526">
        <ele>163.879952</ele>
        <time>2020-08-10T09:50:34.712Z</time>
      </trkpt>
      <trkpt lat="64.24095" lon="10.75281">
        <ele>164.459348</ele>
        <time>2020-08-10T09:50:38.760Z</time>
      </trkpt>
      <trkpt lat="64.24094" lon="10.75304">
        <ele>165.088576</ele>
        <time>2020-08-10T09:50:43.738Z</time>
      </trkpt>
      <trkpt lat="64.24094" lon="10.75325">
        <ele>165.672852</ele>
        <time>2020-08-10T09:50:48.721Z</time>
      </trkpt>
      <trkpt lat="64.24092" lon="10.7535">
        <ele>166.357109</ele>
        <time>2020-08-10T09:50:54.737Z</time>
      </trkpt>
      <trkpt lat="64.2409" lon="10.75372">
        <ele>166.984596</ele>
        <time>2020-08-10T09:50:59.718Z</time>
      </trkpt>
      <trkpt lat="64.2409" lon="10.75394">
        <ele>167.58543</ele>
        <time>2020-08-10T09:51:04.742Z</time>
      </trkpt>
      <trkpt lat="64.24089" lon="10.75417">
        <ele>168.20546</ele>
        <time>2020-08-10T09:51:09.716Z</time>
      </trkpt>
      <trkpt lat="64.24089" lon="10.75438">
        <ele>168.788192</ele>
        <time>2020-08-10T09:51:14.768Z</time>
      </trkpt>
      <trkpt lat="64.24089" lon="10.7546">
        <ele>169.386982</ele>
        <time>2020-08-10T09:51:19.742Z</time>
      </trkpt>
      <trkpt lat="64.24089" lon="10.75484">
        <ele>170.048781</ele>
        <time>2020-08-10T09:51:25.727Z</time>
      </trkpt>
      <trkpt lat="64.24087" lon="10.75506">
        <ele>170.653232</ele>
        <time>2020-08-10T09:51:30.750Z</time>
      </trkpt>
      <trkpt lat="64.24086" lon="10.7553">
        <ele>171.280532</ele>
        <time>2020-08-10T09:51:35.760Z</time>
      </trkpt>
      <trkpt lat="64.24084" lon="10.75553">
        <ele>171.528468</ele>
        <time>2020-08-10T09:51:40.740Z</time>
      </trkpt>
      <trkpt lat="64.24083" lon="10.75576">
        <ele>171.770796</ele>
        <time>2020-08-10T09:51:45.731Z</time>
      </trkpt>
      <trkpt lat="64.24081" lon="10.75597">
        <ele>171.994262</ele>
        <time>2020-08-10T09:51:49.723Z</time>
      </trkpt>
      <trkpt lat="64.24078" lon="10.75621">
        <ele>172.249139</ele>
        <time>2020-08-10T09:51:54.751Z</time>
      </trkpt>
      <trkpt lat="64.24076" lon="10.75644">
        <ele>172.500456</ele>
        <time>2020-08-10T09:51:59.759Z</time>
      </trkpt>
      <trkpt lat="64.24075" lon="10.75665">
        <ele>172.724726</ele>
        <time>2020-08-10T09:52:03.753Z</time>
      </trkpt>
      <trkpt lat="64.24073" lon="10.75689">
        <ele>172.981805</ele>
        <time>2020-08-10T09:52:08.759Z</time>
      </trkpt>
      <trkpt lat="64.24073" lon="10.75714">
        <ele>173.250626</ele>
        <time>2020-08-10T09:52:13.736Z</time>
      </trkpt>
      <trkpt lat="64.24074" lon="10.7574">
        <ele>173.518573</ele>
        <time>2020-08-10T09:52:18.738Z</time>
      </trkpt>
      <trkpt lat="64.24074" lon="10.75762">
        <ele>173.75734</ele>
        <time>2020-08-10T09:52:22.726Z</time>
      </trkpt>
      <trkpt lat="64.24077" lon="10.75788">
        <ele>174.029726</ele>
        <time>2020-08-10T09:52:26.739Z</time>
      </trkpt>
      <trkpt lat="64.24079" lon="10.75808">
        <ele>174.252248</ele>
        <time>2020-08-10T09:52:29.742Z</time>
      </trkpt>
      <trkpt lat="64.24083" lon="10.75832">
        <ele>174.519044</ele>
        <time>2020-08-10T09:52:33.735Z</time>
      </trkpt>
      <trkpt lat="64.24087" lon="10.75857">
        <ele>174.802604</ele>
        <time>2020-08-10T09:52:37.758Z</time>
      </trkpt>
      <trkpt lat="64.24092" lon="10.75879">
        <ele>175.062962</ele>
        <time>2020-08-10T09:52:40.736Z</time>
      </trkpt>
      <trkpt lat="64.24097" lon="10.759">
        <ele>175.314374</ele>
        <time>2020-08-10T09:52:43.734Z</time>
      </trkpt>
      <trkpt lat="64.24102" lon="10.75921">
        <ele>175.568154</ele>
        <time>2020-08-10T09:52:46.719Z</time>
      </trkpt>
      <trkpt lat="64.24106" lon="10.7594">
        <ele>175.600759</ele>
        <time>2020-08-10T09:52:49.723Z</time>
      </trkpt>
      <trkpt lat="64.2411" lon="10.75962">
        <ele>175.596216</ele>
        <time>2020-08-10T09:52:52.752Z</time>
      </trkpt>
      <trkpt lat="64.24114" lon="10.75986">
        <ele>175.591588</ele>
        <time>2020-08-10T09:52:55.758Z</time>
      </trkpt>
      <trkpt lat="64.24118" lon="10.76011">
        <ele>175.586611</ele>
        <time>2020-08-10T09:52:58.745Z</time>
      </trkpt>
      <trkpt lat="64.24121" lon="10.76037">
        <ele>175.581594</ele>
        <time>2020-08-10T09:53:01.731Z</time>
      </trkpt>
      <trkpt lat="64.24123" lon="10.76063">
        <ele>175.576764</ele>
        <time>2020-08-10T09:53:04.747Z</time>
      </trkpt>
      <trkpt lat="64.24125" lon="10.76088">
        <ele>175.572006</ele>
        <time>2020-08-10T09:53:07.730Z</time>
      </trkpt>
      <trkpt lat="64.24127" lon="10.76109">
        <ele>175.567956</ele>
        <time>2020-08-10T09:53:10.747Z</time>
      </trkpt>
      <trkpt lat="64.24129" lon="10.76131">
        <ele>175.563947</ele>
        <time>2020-08-10T09:53:13.719Z</time>
      </trkpt>
      <trkpt lat="64.2413" lon="10.76154">
        <ele>175.559569</ele>
        <time>2020-08-10T09:53:16.715Z</time>
      </trkpt>
      <trkpt lat="64.2413" lon="10.76176">
        <ele>175.555581</ele>
        <time>2020-08-10T09:53:19.742Z</time>
      </trkpt>
      <trkpt lat="64.24131" lon="10.76198">
        <ele>175.551404</ele>
        <time>2020-08-10T09:53:22.718Z</time>
      </trkpt>
      <trkpt lat="64.24131" lon="10.76221">
        <ele>175.547078</ele>
        <time>2020-08-10T09:53:25.711Z</time>
      </trkpt>
      <trkpt lat="64.24132" lon="10.76245">
        <ele>175.542617</ele>
        <time>2020-08-10T09:53:28.737Z</time>
      </trkpt>
      <trkpt lat="64.24133" lon="10.76271">
        <ele>175.537939</ele>
        <time>2020-08-10T09:53:31.716Z</time>
      </trkpt>
      <trkpt lat="64.24133" lon="10.76294">
        <ele>175.533537</ele>
        <time>2020-08-10T09:53:34.734Z</time>
      </trkpt>
      <trkpt lat="64.24134" lon="10.76317">
        <ele>175.529324</ele>
        <time>2020-08-10T09:53:37.761Z</time>
      </trkpt>
      <trkpt lat="64.24134" lon="10.76338">
        <ele>175.572532</ele>
        <time>2020-08-10T09:53:40.744Z</time>
      </trkpt>
      <trkpt lat="64.24133" lon="10.76364">
        <ele>175.684885</ele>
        <time>2020-08-10T09:53:44.741Z</time>
      </trkpt>
      <trkpt lat="64.24133" lon="10.76386">
        <ele>175.775329</ele>
        <time>2020-08-10T09:53:47.723Z</time>
      </trkpt>
      <trkpt lat="64.24133" lon="10.76412">
        <ele>175.888435</ele>
        <time>2020-08-10T09:53:51.718Z</time>
      </trkpt>
      <trkpt lat="64.24133" lon="10.76438">
        <ele>176.001216</ele>
        <time>2020-08-10T09:53:55.735Z</time>
      </trkpt>
      <trkpt lat="64.24133" lon="10.76461">
        <ele>176.100686</ele>
        <time>2020-08-10T09:53:59.736Z</time>
      </trkpt>
      <trkpt lat="64.24134" lon="10.76485">
        <ele>176.202954</ele>
        <time>2020-08-10T09:54:03.738Z</time>
      </trkpt>
      <trkpt lat="64.24135" lon="10.76509">
        <ele>176.305577</ele>
        <time>2020-08-10T09:54:07.727Z</time>
      </trkpt>
      <trkpt lat="64.24135" lon="10.76534">
        <ele>176.413398</ele>
        <time>2020-08-10T09:54:11.728Z</time>
      </trkpt>
      <trkpt lat="64.24137" lon="10.76559">
        <ele>176.520962</ele>
        <time>2020-08-10T09:54:15.722Z</time>
      </trkpt>
      <trkpt lat="64.24138" lon="10.76582">
        <ele>176.619187</ele>
        <time>2020-08-10T09:54:19.717Z</time>
      </trkpt>
      <trkpt lat="64.2414" lon="10.76607">
        <ele>176.727669</ele>
        <time>2020-08-10T09:54:23.723Z</time>
      </trkpt>
      <trkpt lat="64.24143" lon="10.76631">
        <ele>176.835512</ele>
        <time>2020-08-10T09:54:27.741Z</time>
      </trkpt>
      <trkpt lat="64.24147" lon="10.76653">
        <ele>176.938701</ele>
        <time>2020-08-10T09:54:31.746Z</time>
      </trkpt>
      <trkpt lat="64.24151" lon="10.76677">
        <ele>177.045046</ele>
        <time>2020-08-10T09:54:35.754Z</time>
      </trkpt>
      <trkpt lat="64.24154" lon="10.76701">
        <ele>177.155844</ele>
        <time>2020-08-10T09:54:39.767Z</time>
      </trkpt>
      <trkpt lat="64.24158" lon="10.76725">
        <ele>177.262675</ele>
        <time>2020-08-10T09:54:43.725Z</time>
      </trkpt>
      <trkpt lat="64.24162" lon="10.76747">
        <ele>177.459357</ele>
        <time>2020-08-10T09:54:47.735Z</time>
      </trkpt>
      <trkpt lat="64.24166" lon="10.76768">
        <ele>177.705606</ele>
        <time>2020-08-10T09:54:51.734Z</time>
      </trkpt>
      <trkpt lat="64.2417" lon="10.76791">
        <ele>177.964339</ele>
        <time>2020-08-10T09:54:55.732Z</time>
      </trkpt>
      <trkpt lat="64.24175" lon="10.76813">
        <ele>178.215181</ele>
        <time>2020-08-10T09:54:59.755Z</time>
      </trkpt>
      <trkpt lat="64.24181" lon="10.76836">
        <ele>178.495688</ele>
        <time>2020-08-10T09:55:03.747Z</time>
      </trkpt>
      <trkpt lat="64.24188" lon="10.76858">
        <ele>178.785902</ele>
        <time>2020-08-10T09:55:07.729Z</time>
      </trkpt>
      <trkpt lat="64.24194" lon="10.76876">
        <ele>179.014984</ele>
        <time>2020-08-10T09:55:10.746Z</time>
      </trkpt>
      <trkpt lat="64.24201" lon="10.76896">
        <ele>179.292777</ele>
        <time>2020-08-10T09:55:14.731Z</time>
      </trkpt>
      <trkpt lat="64.24207" lon="10.76913">
        <ele>179.515016</ele>
        <time>2020-08-10T09:55:17.742Z</time>
      </trkpt>
      <trkpt lat="64.24214" lon="10.76933">
        <ele>179.783091</ele>
        <time>2020-08-10T09:55:21.763Z</time>
      </trkpt>
      <trkpt lat="64.2422" lon="10.76954">
        <ele>180.045631</ele>
        <time>2020-08-10T09:55:25.747Z</time>
      </trkpt>
      <trkpt lat="64.24225" lon="10.76971">
        <ele>180.263543</ele>
        <time>2020-08-10T09:55:28.777Z</time>
      </trkpt>
      <trkpt lat="64.2423" lon="10.7699">
        <ele>180.49458</ele>
        <time>2020-08-10T09:55:31.741Z</time>
      </trkpt>
      <trkpt lat="64.24236" lon="10.77012">
        <ele>180.770249</ele>
        <time>2020-08-10T09:55:35.719Z</time>
      </trkpt>
      <trkpt lat="64.24242" lon="10.77034">
        <ele>181.037645</ele>
        <time>2020-08-10T09:55:39.729Z</time>
      </trkpt>
      <trkpt lat="64.24247" lon="10.77057">
        <ele>181.305362</ele>
        <time>2020-08-10T09:55:43.761Z</time>
      </trkpt>
      <trkpt lat="64.24253" lon="10.77079">
        <ele>181.577129</ele>
        <time>2020-08-10T09:55:47.730Z</time>
      </trkpt>
      <trkpt lat="64.24258" lon="10.771">
        <ele>181.635317</ele>
        <time>2020-08-10T09:55:51.759Z</time>
      </trkpt>
      <trkpt lat="64.24262" lon="10.7712">
        <ele>181.648834</ele>
        <time>2020-08-10T09:55:55.730Z</time>
      </trkpt>
      <trkpt lat="64.24265" lon="10.77141">
        <ele>181.662305</ele>
        <time>2020-08-10T09:55:59.776Z</time>
      </trkpt>
      <trkpt lat="64.24268" lon="10.77163">
        <ele>181.675944</ele>
        <time>2020-08-10T09:56:03.725Z</time>
      </trkpt>
      <trkpt lat="64.24271" lon="10.77186">
        <ele>181.690195</ele>
        <time>2020-08-10T09:56:07.728Z</time>
      </trkpt>
      <trkpt lat="64.24275" lon="10.77207">
        <ele>181.703772</ele>
        <time>2020-08-10T09:56:11.733Z</time>
      </trkpt>
      <trkpt lat="64.24278" lon="10.77232">
        <ele>181.719382</ele>
        <time>2020-08-10T09:56:15.742Z</time>
      </trkpt>
      <trkpt lat="64.24281" lon="10.77257">
        <ele>181.735432</ele>
        <time>2020-08-10T09:56:19.741Z</time>
      </trkpt>
      <trkpt lat="64.24285" lon="10.77281">
        <ele>181.750395</ele>
        <time>2020-08-10T09:56:23.722Z</time>
      </trkpt>
      <trkpt lat="64.24288" lon="10.77305">
        <ele>181.765545</ele>
        <time>2020-08-10T09:56:27.744Z</time>
      </trkpt>
      <trkpt lat="64.24291" lon="10.77328">
        <ele>181.779745</ele>
        <time>2020-08-10T09:56:31.715Z</time>
      </trkpt>
      <trkpt lat="64.24294" lon="10.77351">
        <ele>181.793878</ele>
        <time>2020-08-10T09:56:35.718Z</time>
      </trkpt>
      <trkpt lat="64.24295" lon="10.77376">
        <ele>181.809056</ele>
        <time>2020-08-10T09:56:39.726Z</time>
      </trkpt>
      <trkpt lat="64.24299" lon="10.77399">
        <ele>181.823754</ele>
        <time>2020-08-10T09:56:43.734Z</time>
      </trkpt>
      <trkpt lat="64.24302" lon="10.77424">
        <ele>181.839267</ele>
        <time>2020-08-10T09:56:47.740Z</time>
      </trkpt>
      <trkpt lat="64.24305" lon="10.77449">
        <ele>181.855112</ele>
        <time>2020-08-10T09:56:51.722Z</time>
      </trkpt>
      <trkpt lat="64.24308" lon="10.77475">
        <ele>181.870991</ele>
        <time>2020-08-10T09:56:55.747Z</time>
      </trkpt>
      <trkpt lat="64.24312" lon="10.77501">
        <ele>181.994023</ele>
        <time>2020-08-10T09:56:59.742Z</time>
      </trkpt>
      <trkpt lat="64.24315" lon="10.77528">
        <ele>182.128558</ele>
        <time>2020-08-10T09:57:03.721Z</time>
      </trkpt>
      <trkpt lat="64.24318" lon="10.7755">
        <ele>182.24036</ele>
        <time>2020-08-10T09:57:06.731Z</time>
      </trkpt>
      <trkpt lat="64.24321" lon="10.77574">
        <ele>182.361235</ele>
        <time>2020-08-10T09:57:09.721Z</time>
      </trkpt>
      <trkpt lat="64.24324" lon="10.77599">
        <ele>182.486705</ele>
        <time>2020-08-10T09:57:12.763Z</time>
      </trkpt>
      <trkpt lat="64.24327" lon="10.77624">
        <ele>182.60928</ele>
        <time>2020-08-10T09:57:15.727Z</time>
      </trkpt>
      <trkpt lat="64.24331" lon="10.77648">
        <ele>182.72945</ele>
        <time>2020-08-10T09:57:18.727Z</time>
      </trkpt>
      <trkpt lat="64.24334" lon="10.77672">
        <ele>182.854413</ele>
        <time>2020-08-10T09:57:21.743Z</time>
      </trkpt>
      <trkpt lat="64.24339" lon="10.77698">
        <ele>182.986632</ele>
        <time>2020-08-10T09:57:24.743Z</time>
      </trkpt>
      <trkpt lat="64.24343" lon="10.77726">
        <ele>183.130728</ele>
        <time>2020-08-10T09:57:27.736Z</time>
      </trkpt>
      <trkpt lat="64.24346" lon="10.77755">
        <ele>183.271102</ele>
        <time>2020-08-10T09:57:30.725Z</time>
      </trkpt>
      <trkpt lat="64.24351" lon="10.77784">
        <ele>183.418749</ele>
        <time>2020-08-10T09:57:33.724Z</time>
      </trkpt>
      <trkpt lat="64.24355" lon="10.77813">
        <ele>183.564689</ele>
        <time>2020-08-10T09:57:36.724Z</time>
      </trkpt>
      <trkpt lat="64.24357" lon="10.77835">
        <ele>183.677114</ele>
        <time>2020-08-10T09:57:38.774Z</time>
      </trkpt>
      <trkpt lat="64.2436" lon="10.77856">
        <ele>183.782158</ele>
        <time>2020-08-10T09:57:40.725Z</time>
      </trkpt>
      <trkpt lat="64.24364" lon="10.77884">
        <ele>183.889832</ele>
        <time>2020-08-10T09:57:43.737Z</time>
      </trkpt>
      <trkpt lat="64.24367" lon="10.77911">
        <ele>183.958769</ele>
        <time>2020-08-10T09:57:46.729Z</time>
      </trkpt>
      <trkpt lat="64.2437" lon="10.77936">
        <ele>184.024531</ele>
        <time>2020-08-10T09:57:49.745Z</time>
      </trkpt>
      <trkpt lat="64.24373" lon="10.77963">
        <ele>184.094527</ele>
        <time>2020-08-10T09:57:52.718Z</time>
      </trkpt>
      <trkpt lat="64.24377" lon="10.77991">
        <ele>184.166974</ele>
        <time>2020-08-10T09:57:55.721Z</time>
      </trkpt>
      <trkpt lat="64.24379" lon="10.78018">
        <ele>184.236081</ele>
        <time>2020-08-10T09:57:58.727Z</time>
      </trkpt>
      <trkpt lat="64.2438" lon="10.78045">
        <ele>184.302448</ele>
        <time>2020-08-10T09:58:01.731Z</time>
      </trkpt>
      <trkpt lat="64.24381" lon="10.78071">
        <ele>184.367238</ele>
        <time>2020-08-10T09:58:04.724Z</time>
      </trkpt>
      <trkpt lat="64.24382" lon="10.78098">
        <ele>184.434347</ele>
        <time>2020-08-10T09:58:07.742Z</time>
      </trkpt>
      <trkpt lat="64.24382" lon="10.78124">
        <ele>184.499227</ele>
        <time>2020-08-10T09:58:10.739Z</time>
      </trkpt>
      <trkpt lat="64.24381" lon="10.78149">
        <ele>184.562374</ele>
        <time>2020-08-10T09:58:13.737Z</time>
      </trkpt>
      <trkpt lat="64.24379" lon="10.78173">
        <ele>184.623472</ele>
        <time>2020-08-10T09:58:16.725Z</time>
      </trkpt>
      <trkpt lat="64.24376" lon="10.78196">
        <ele>184.681494</ele>
        <time>2020-08-10T09:58:19.751Z</time>
      </trkpt>
      <trkpt lat="64.24374" lon="10.78219">
        <ele>184.739675</ele>
        <time>2020-08-10T09:58:22.737Z</time>
      </trkpt>
      <trkpt lat="64.24372" lon="10.78241">
        <ele>184.795816</ele>
        <time>2020-08-10T09:58:25.717Z</time>
      </trkpt>
      <trkpt lat="64.24367" lon="10.78266">
        <ele>184.862703</ele>
        <time>2020-08-10T09:58:29.729Z</time>
      </trkpt>
      <trkpt lat="64.24363" lon="10.78288">
        <ele>185.032054</ele>
        <time>2020-08-10T09:58:33.733Z</time>
      </trkpt>
      <trkpt lat="64.24358" lon="10.78309">
        <ele>185.263783</ele>
        <time>2020-08-10T09:58:37.757Z</time>
      </trkpt>
      <trkpt lat="64.24353" lon="10.78329">
        <ele>185.488188</ele>
        <time>2020-08-10T09:58:41.755Z</time>
      </trkpt>
      <trkpt lat="64.24347" lon="10.78348">
        <ele>185.709398</ele>
        <time>2020-08-10T09:58:45.742Z</time>
      </trkpt>
      <trkpt lat="64.2434" lon="10.78363">
        <ele>185.915418</ele>
        <time>2020-08-10T09:58:49.749Z</time>
      </trkpt>
      <trkpt lat="64.24334" lon="10.78379">
        <ele>186.118366</ele>
        <time>2020-08-10T09:58:53.739Z</time>
      </trkpt>
      <trkpt lat="64.24326" lon="10.78396">
        <ele>186.364857</ele>
        <time>2020-08-10T09:58:58.725Z</time>
      </trkpt>
      <trkpt lat="64.24316" lon="10.7841">
        <ele>186.615149</ele>
        <time>2020-08-10T09:59:03.729Z</time>
      </trkpt>
      <trkpt lat="64.24307" lon="10.7841">
        <ele>186.823571</ele>
        <time>2020-08-10T09:59:06.732Z</time>
      </trkpt>
      <trkpt lat="64.24295" lon="10.78409">
        <ele>187.083114</ele>
        <time>2020-08-10T09:59:09.750Z</time>
      </trkpt>
      <trkpt lat="64.24284" lon="10.7841">
        <ele>187.340228</ele>
        <time>2020-08-10T09:59:12.723Z</time>
      </trkpt>
      <trkpt lat="64.24275" lon="10.78408">
        <ele>187.540238</ele>
        <time>2020-08-10T09:59:15.757Z</time>
      </trkpt>
      <trkpt lat="64.24264" lon="10.78407">
        <ele>187.782077</ele>
        <time>2020-08-10T09:59:19.746Z</time>
      </trkpt>
      <trkpt lat="64.24254" lon="10.78407">
        <ele>188.005919</ele>
        <time>2020-08-10T09:59:23.728Z</time>
      </trkpt>
      <trkpt lat="64.24243" lon="10.78408">
        <ele>188.236387</ele>
        <time>2020-08-10T09:59:28.783Z</time>
      </trkpt>
      <trkpt lat="64.24232" lon="10.78409">
        <ele>188.495716</ele>
        <time>2020-08-10T09:59:33.721Z</time>
      </trkpt>
      <trkpt lat="64.24222" lon="10.7841">
        <ele>188.710858</ele>
        <time>2020-08-10T09:59:37.767Z</time>
      </trkpt>
      <trkpt lat="64.24212" lon="10.78414">
        <ele>189.012436</ele>
        <time>2020-08-10T09:59:41.736Z</time>
      </trkpt>
      <trkpt lat="64.24202" lon="10.78418">
        <ele>189.532637</ele>
        <time>2020-08-10T09:59:45.742Z</time>
      </trkpt>
      <trkpt lat="64.24192" lon="10.78426">
        <ele>190.076563</ele>
        <time>2020-08-10T09:59:49.742Z</time>
      </trkpt>
      <trkpt lat="64.24183" lon="10.78435">
        <ele>190.578616</ele>
        <time>2020-08-10T09:59:53.753Z</time>
      </trkpt>
      <trkpt lat="64.24175" lon="10.78444">
        <ele>191.053211</ele>
        <time>2020-08-10T09:59:57.716Z</time>
      </trkpt>
      <trkpt lat="64.24165" lon="10.78456">
        <ele>191.595728</ele>
        <time>2020-08-10T10:00:02.719Z</time>
      </trkpt>
      <trkpt lat="64.24156" lon="10.78466">
        <ele>192.132073</ele>
        <time>2020-08-10T10:00:07.724Z</time>
      </trkpt>
      <trkpt lat="64.24147" lon="10.78477">
        <ele>192.650744</ele>
        <time>2020-08-10T10:00:12.751Z</time>
      </trkpt>
      <trkpt lat="64.24139" lon="10.78489">
        <ele>193.149429</ele>
        <time>2020-08-10T10:00:17.714Z</time>
      </trkpt>
      <trkpt lat="64.2413" lon="10.78503">
        <ele>193.678183</ele>
        <time>2020-08-10T10:00:22.746Z</time>
      </trkpt>
      <trkpt lat="64.24121" lon="10.78514">
        <ele>194.224856</ele>
        <time>2020-08-10T10:00:27.723Z</time>
      </trkpt>
      <trkpt lat="64.24112" lon="10.78525">
        <ele>194.740536</ele>
        <time>2020-08-10T10:00:32.728Z</time>
      </trkpt>
      <trkpt lat="64.24103" lon="10.78536">
        <ele>195.283607</ele>
        <time>2020-08-10T10:00:37.759Z</time>
      </trkpt>
      <trkpt lat="64.24093" lon="10.78547">
        <ele>195.849992</ele>
        <time>2020-08-10T10:00:42.737Z</time>
      </trkpt>
      <trkpt lat="64.24083" lon="10.78558">
        <ele>196.419861</ele>
        <time>2020-08-10T10:00:47.728Z</time>
      </trkpt>
      <trkpt lat="64.24073" lon="10.78564">
        <ele>196.908168</ele>
        <time>2020-08-10T10:00:51.739Z</time>
      </trkpt>
      <trkpt lat="64.24063" lon="10.78569">
        <ele>197.461083</ele>
        <time>2020-08-10T10:00:56.753Z</time>
      </trkpt>
      <trkpt lat="64.24053" lon="10.78574">
        <ele>197.990568</ele>
        <time>2020-08-10T10:01:01.753Z</time>
      </trkpt>
      <trkpt lat="64.24044" lon="10.7858">
        <ele>198.609683</ele>
        <time>2020-08-10T10:01:06.728Z</time>
      </trkpt>
      <trkpt lat="64.24033" lon="10.78584">
        <ele>199.371824</ele>
        <time>2020-08-10T10:01:12.739Z</time>
      </trkpt>
      <trkpt lat="64.24023" lon="10.78587">
        <ele>200.105389</ele>
        <time>2020-08-10T10:01:18.725Z</time>
      </trkpt>
      <trkpt lat="64.24014" lon="10.78591">
        <ele>200.782796</ele>
        <time>2020-08-10T10:01:24.720Z</time>
      </trkpt>
      <trkpt lat="64.24003" lon="10.7859">
        <ele>201.515309</ele>
        <time>2020-08-10T10:01:30.722Z</time>
      </trkpt>
      <trkpt lat="64.23993" lon="10.7859">
        <ele>202.26893</ele>
        <time>2020-08-10T10:01:35.722Z</time>
      </trkpt>
      <trkpt lat="64.23983" lon="10.78589">
        <ele>202.980039</ele>
        <time>2020-08-10T10:01:40.765Z</time>
      </trkpt>
      <trkpt lat="64.23973" lon="10.78594">
        <ele>203.708159</ele>
        <time>2020-08-10T10:01:46.744Z</time>
      </trkpt>
      <trkpt lat="64.23963" lon="10.78595">
        <ele>204.419268</ele>
        <time>2020-08-10T10:01:53.741Z</time>
      </trkpt>
      <trkpt lat="64.23953" lon="10.78595">
        <ele>205.094621</ele>
        <time>2020-08-10T10:01:59.736Z</time>
      </trkpt>
      <trkpt lat="64.23942" lon="10.78595">
        <ele>205.862382</ele>
        <time>2020-08-10T10:02:06.714Z</time>
      </trkpt>
      <trkpt lat="64.23933" lon="10.78596">
        <ele>206.539992</ele>
        <time>2020-08-10T10:02:12.754Z</time>
      </trkpt>
      <trkpt lat="64.23923" lon="10.78596">
        <ele>207.243859</ele>
        <time>2020-08-10T10:02:17.728Z</time>
      </trkpt>
      <trkpt lat="64.23914" lon="10.78596">
        <ele>207.919191</ele>
        <time>2020-08-10T10:02:22.764Z</time>
      </trkpt>
      <trkpt lat="64.23904" lon="10.78595">
        <ele>208.566441</ele>
        <time>2020-08-10T10:02:27.722Z</time>
      </trkpt>
      <trkpt lat="64.23894" lon="10.78596">
        <ele>209.285082</ele>
        <time>2020-08-10T10:02:33.727Z</time>
      </trkpt>
      <trkpt lat="64.23885" lon="10.786">
        <ele>209.941994</ele>
        <time>2020-08-10T10:02:38.744Z</time>
      </trkpt>
      <trkpt lat="64.23875" lon="10.78598">
        <ele>210.654799</ele>
        <time>2020-08-10T10:02:43.754Z</time>
      </trkpt>
      <trkpt lat="64.23866" lon="10.78597">
        <ele>210.842172</ele>
        <time>2020-08-10T10:02:48.758Z</time>
      </trkpt>
      <trkpt lat="64.23856" lon="10.78595">
        <ele>210.79268</ele>
        <time>2020-08-10T10:02:52.722Z</time>
      </trkpt>
      <trkpt lat="64.23846" lon="10.78598">
        <ele>210.737217</ele>
        <time>2020-08-10T10:02:56.738Z</time>
      </trkpt>
      <trkpt lat="64.23835" lon="10.78598">
        <ele>210.680996</ele>
        <time>2020-08-10T10:03:00.795Z</time>
      </trkpt>
      <trkpt lat="64.23825" lon="10.78604">
        <ele>210.623696</ele>
        <time>2020-08-10T10:03:04.716Z</time>
      </trkpt>
      <trkpt lat="64.23814" lon="10.78612">
        <ele>210.563941</ele>
        <time>2020-08-10T10:03:08.759Z</time>
      </trkpt>
      <trkpt lat="64.23802" lon="10.7862">
        <ele>210.501075</ele>
        <time>2020-08-10T10:03:12.740Z</time>
      </trkpt>
      <trkpt lat="64.23791" lon="10.78627">
        <ele>210.441298</ele>
        <time>2020-08-10T10:03:16.755Z</time>
      </trkpt>
      <trkpt lat="64.23782" lon="10.78636">
        <ele>210.386917</ele>
        <time>2020-08-10T10:03:20.730Z</time>
      </trkpt>
      <trkpt lat="64.23773" lon="10.78645">
        <ele>210.335537</ele>
        <time>2020-08-10T10:03:24.726Z</time>
      </trkpt>
      <trkpt lat="64.23763" lon="10.78651">
        <ele>210.28403</ele>
        <time>2020-08-10T10:03:28.763Z</time>
      </trkpt>
      <trkpt lat="64.23755" lon="10.78661">
        <ele>210.232859</ele>
        <time>2020-08-10T10:03:32.743Z</time>
      </trkpt>
      <trkpt lat="64.23746" lon="10.78671">
        <ele>210.182636</ele>
        <time>2020-08-10T10:03:36.745Z</time>
      </trkpt>
      <trkpt lat="64.23736" lon="10.78676">
        <ele>210.128155</ele>
        <time>2020-08-10T10:03:40.738Z</time>
      </trkpt>
      <trkpt lat="64.23726" lon="10.78683">
        <ele>210.073804</ele>
        <time>2020-08-10T10:03:44.757Z</time>
      </trkpt>
      <trkpt lat="64.23716" lon="10.78694">
        <ele>210.016937</ele>
        <time>2020-08-10T10:03:48.727Z</time>
      </trkpt>
      <trkpt lat="64.23707" lon="10.78703">
        <ele>209.961908</ele>
        <time>2020-08-10T10:03:52.730Z</time>
      </trkpt>
      <trkpt lat="64.23697" lon="10.78709">
        <ele>209.948938</ele>
        <time>2020-08-10T10:03:56.719Z</time>
      </trkpt>
      <trkpt lat="64.23688" lon="10.78716">
        <ele>209.994251</ele>
        <time>2020-08-10T10:04:00.731Z</time>
      </trkpt>
      <trkpt lat="64.23678" lon="10.78725">
        <ele>210.040109</ele>
        <time>2020-08-10T10:04:04.756Z</time>
      </trkpt>
      <trkpt lat="64.23669" lon="10.78732">
        <ele>210.083497</ele>
        <time>2020-08-10T10:04:08.754Z</time>
      </trkpt>
      <trkpt lat="64.23659" lon="10.7874">
        <ele>210.133828</ele>
        <time>2020-08-10T10:04:12.712Z</time>
      </trkpt>
      <trkpt lat="64.23648" lon="10.78747">
        <ele>210.184451</ele>
        <time>2020-08-10T10:04:16.734Z</time>
      </trkpt>
      <trkpt lat="64.23638" lon="10.78757">
        <ele>210.234594</ele>
        <time>2020-08-10T10:04:20.719Z</time>
      </trkpt>
      <trkpt lat="64.23628" lon="10.78768">
        <ele>210.286296</ele>
        <time>2020-08-10T10:04:24.743Z</time>
      </trkpt>
      <trkpt lat="64.23617" lon="10.78775">
        <ele>210.337629</ele>
        <time>2020-08-10T10:04:28.736Z</time>
      </trkpt>
      <trkpt lat="64.23606" lon="10.78783">
        <ele>210.390936</ele>
        <time>2020-08-10T10:04:32.723Z</time>
      </trkpt>
      <trkpt lat="64.23595" lon="10.78793">
        <ele>210.444729</ele>
        <time>2020-08-10T10:04:36.726Z</time>
      </trkpt>
      <trkpt lat="64.23584" lon="10.78802">
        <ele>210.496679</ele>
        <time>2020-08-10T10:04:40.742Z</time>
      </trkpt>
      <trkpt lat="64.23574" lon="10.78814">
        <ele>210.546758</ele>
        <time>2020-08-10T10:04:44.724Z</time>
      </trkpt>
      <trkpt lat="64.23564" lon="10.78825">
        <ele>210.598793</ele>
        <time>2020-08-10T10:04:48.727Z</time>
      </trkpt>
      <trkpt lat="64.23553" lon="10.78834">
        <ele>210.652018</ele>
        <time>2020-08-10T10:04:52.732Z</time>
      </trkpt>
      <trkpt lat="64.23543" lon="10.78846">
        <ele>210.703587</ele>
        <time>2020-08-10T10:04:56.757Z</time>
      </trkpt>
      <trkpt lat="64.23535" lon="10.7886">
        <ele>210.747863</ele>
        <time>2020-08-10T10:04:59.719Z</time>
      </trkpt>
      <trkpt lat="64.23527" lon="10.78873">
        <ele>210.704458</ele>
        <time>2020-08-10T10:05:02.758Z</time>
      </trkpt>
      <trkpt lat="64.23518" lon="10.7889">
        <ele>210.644717</ele>
        <time>2020-08-10T10:05:05.739Z</time>
      </trkpt>
      <trkpt lat="64.23508" lon="10.78907">
        <ele>210.581197</ele>
        <time>2020-08-10T10:05:08.741Z</time>
      </trkpt>
      <trkpt lat="64.23498" lon="10.78925">
        <ele>210.517588</ele>
        <time>2020-08-10T10:05:11.744Z</time>
      </trkpt>
      <trkpt lat="64.23488" lon="10.78944">
        <ele>210.451931</ele>
        <time>2020-08-10T10:05:14.727Z</time>
      </trkpt>
      <trkpt lat="64.23478" lon="10.78964">
        <ele>210.385748</ele>
        <time>2020-08-10T10:05:17.741Z</time>
      </trkpt>
      <trkpt lat="64.23469" lon="10.78984">
        <ele>210.322612</ele>
        <time>2020-08-10T10:05:20.751Z</time>
      </trkpt>
      <trkpt lat="64.2346" lon="10.79002">
        <ele>210.262223</ele>
        <time>2020-08-10T10:05:23.725Z</time>
      </trkpt>
      <trkpt lat="64.23451" lon="10.79021">
        <ele>210.20317</ele>
        <time>2020-08-10T10:05:26.726Z</time>
      </trkpt>
      <trkpt lat="64.23443" lon="10.79037">
        <ele>210.146219</ele>
        <time>2020-08-10T10:05:29.729Z</time>
      </trkpt>
      <trkpt lat="64.23434" lon="10.79054">
        <ele>210.088152</ele>
        <time>2020-08-10T10:05:32.779Z</time>
      </trkpt>
      <trkpt lat="64.23425" lon="10.79071">
        <ele>210.031034</ele>
        <time>2020-08-10T10:05:35.719Z</time>
      </trkpt>
      <trkpt lat="64.23416" lon="10.79085">
        <ele>209.976491</ele>
        <time>2020-08-10T10:05:38.720Z</time>
      </trkpt>
      <trkpt lat="64.23406" lon="10.79097">
        <ele>209.919683</ele>
        <time>2020-08-10T10:05:41.746Z</time>
      </trkpt>
      <trkpt lat="64.23395" lon="10.79108">
        <ele>209.856296</ele>
        <time>2020-08-10T10:05:44.742Z</time>
      </trkpt>
      <trkpt lat="64.23384" lon="10.7912">
        <ele>210.261481</ele>
        <time>2020-08-10T10:05:47.743Z</time>
      </trkpt>
      <trkpt lat="64.23373" lon="10.79126">
        <ele>210.756685</ele>
        <time>2020-08-10T10:05:50.735Z</time>
      </trkpt>
      <trkpt lat="64.23362" lon="10.7913">
        <ele>211.252851</ele>
        <time>2020-08-10T10:05:53.737Z</time>
      </trkpt>
      <trkpt lat="64.23352" lon="10.79137">
        <ele>211.689413</ele>
        <time>2020-08-10T10:05:56.729Z</time>
      </trkpt>
      <trkpt lat="64.23342" lon="10.7914">
        <ele>212.164083</ele>
        <time>2020-08-10T10:05:59.736Z</time>
      </trkpt>
      <trkpt lat="64.23331" lon="10.7914">
        <ele>212.643685</ele>
        <time>2020-08-10T10:06:02.748Z</time>
      </trkpt>
      <trkpt lat="64.23321" lon="10.79139">
        <ele>213.07042</ele>
        <time>2020-08-10T10:06:05.773Z</time>
      </trkpt>
      <trkpt lat="64.23309" lon="10.79139">
        <ele>213.60272</ele>
        <time>2020-08-10T10:06:09.754Z</time>
      </trkpt>
      <trkpt lat="64.233" lon="10.79139">
        <ele>214.020639</ele>
        <time>2020-08-10T10:06:12.715Z</time>
      </trkpt>
      <trkpt lat="64.23289" lon="10.79141">
        <ele>214.492221</ele>
        <time>2020-08-10T10:06:15.741Z</time>
      </trkpt>
      <trkpt lat="64.23277" lon="10.7914">
        <ele>214.994438</ele>
        <time>2020-08-10T10:06:18.746Z</time>
      </trkpt>
      <trkpt lat="64.23266" lon="10.79135">
        <ele>215.515666</ele>
        <time>2020-08-10T10:06:21.770Z</time>
      </trkpt>
      <trkpt lat="64.23254" lon="10.79133">
        <ele>216.050106</ele>
        <time>2020-08-10T10:06:24.718Z</time>
      </trkpt>
      <trkpt lat="64.23243" lon="10.79135">
        <ele>216.530988</ele>
        <time>2020-08-10T10:06:27.732Z</time>
      </trkpt>
      <trkpt lat="64.23233" lon="10.79135">
        <ele>216.979701</ele>
        <time>2020-08-10T10:06:30.717Z</time>
      </trkpt>
      <trkpt lat="64.23222" lon="10.79133">
        <ele>217.429212</ele>
        <time>2020-08-10T10:06:33.765Z</time>
      </trkpt>
      <trkpt lat="64.23211" lon="10.79135">
        <ele>217.733244</ele>
        <time>2020-08-10T10:06:37.721Z</time>
      </trkpt>
      <trkpt lat="64.23202" lon="10.79133">
        <ele>217.681492</ele>
        <time>2020-08-10T10:06:40.722Z</time>
      </trkpt>
      <trkpt lat="64.2319" lon="10.79132">
        <ele>217.615701</ele>
        <time>2020-08-10T10:06:44.727Z</time>
      </trkpt>
      <trkpt lat="64.23179" lon="10.79127">
        <ele>217.549751</ele>
        <time>2020-08-10T10:06:48.724Z</time>
      </trkpt>
      <trkpt lat="64.23169" lon="10.79126">
        <ele>217.494106</ele>
        <time>2020-08-10T10:06:51.717Z</time>
      </trkpt>
      <trkpt lat="64.23159" lon="10.79127">
        <ele>217.43846</ele>
        <time>2020-08-10T10:06:54.760Z</time>
      </trkpt>
      <trkpt lat="64.2315" lon="10.79126">
        <ele>217.386804</ele>
        <time>2020-08-10T10:06:57.776Z</time>
      </trkpt>
      <trkpt lat="64.2314" lon="10.79125">
        <ele>217.333518</ele>
        <time>2020-08-10T10:07:00.774Z</time>
      </trkpt>
      <trkpt lat="64.23131" lon="10.79126">
        <ele>217.279644</ele>
        <time>2020-08-10T10:07:03.752Z</time>
      </trkpt>
      <trkpt lat="64.23121" lon="10.79128">
        <ele>217.221619</ele>
        <time>2020-08-10T10:07:06.724Z</time>
      </trkpt>
      <trkpt lat="64.23111" lon="10.79129">
        <ele>217.16666</ele>
        <time>2020-08-10T10:07:09.729Z</time>
      </trkpt>
      <trkpt lat="64.23102" lon="10.79129">
        <ele>217.113984</ele>
        <time>2020-08-10T10:07:12.748Z</time>
      </trkpt>
      <trkpt lat="64.23092" lon="10.7913">
        <ele>217.060708</ele>
        <time>2020-08-10T10:07:15.727Z</time>
      </trkpt>
      <trkpt lat="64.23083" lon="10.7913">
        <ele>217.008601</ele>
        <time>2020-08-10T10:07:18.725Z</time>
      </trkpt>
      <trkpt lat="64.23074" lon="10.79129">
        <ele>216.954148</ele>
        <time>2020-08-10T10:07:21.726Z</time>
      </trkpt>
      <trkpt lat="64.23064" lon="10.79128">
        <ele>216.90026</ele>
        <time>2020-08-10T10:07:24.722Z</time>
      </trkpt>
      <trkpt lat="64.23054" lon="10.79128">
        <ele>216.844754</ele>
        <time>2020-08-10T10:07:27.722Z</time>
      </trkpt>
      <trkpt lat="64.23045" lon="10.79127">
        <ele>216.791494</ele>
        <time>2020-08-10T10:07:30.721Z</time>
      </trkpt>
      <trkpt lat="64.23036" lon="10.79129">
        <ele>216.740206</ele>
        <time>2020-08-10T10:07:33.752Z</time>
      </trkpt>
      <trkpt lat="64.23027" lon="10.79132">
        <ele>216.712593</ele>
        <time>2020-08-10T10:07:36.734Z</time>
      </trkpt>
      <trkpt lat="64.23017" lon="10.79133">
        <ele>216.684693</ele>
        <time>2020-08-10T10:07:39.754Z</time>
      </trkpt>
      <trkpt lat="64.23007" lon="10.79136">
        <ele>216.656297</ele>
        <time>2020-08-10T10:07:42.736Z</time>
      </trkpt>
      <trkpt lat="64.22997" lon="10.79138">
        <ele>216.628216</ele>
        <time>2020-08-10T10:07:45.746Z</time>
      </trkpt>
      <trkpt lat="64.22987" lon="10.79142">
        <ele>216.598942</ele>
        <time>2020-08-10T10:07:48.728Z</time>
      </trkpt>
      <trkpt lat="64.22976" lon="10.79148">
        <ele>216.567989</ele>
        <time>2020-08-10T10:07:51.744Z</time>
      </trkpt>
      <trkpt lat="64.22966" lon="10.79154">
        <ele>216.536839</ele>
        <time>2020-08-10T10:07:54.745Z</time>
      </trkpt>
      <trkpt lat="64.22955" lon="10.79159">
        <ele>216.505384</ele>
        <time>2020-08-10T10:07:57.728Z</time>
      </trkpt>
      <trkpt lat="64.22944" lon="10.79163">
        <ele>216.475077</ele>
        <time>2020-08-10T10:08:00.747Z</time>
      </trkpt>
      <trkpt lat="64.22933" lon="10.79165">
        <ele>216.44262</ele>
        <time>2020-08-10T10:08:03.760Z</time>
      </trkpt>
      <trkpt lat="64.22922" lon="10.79172">
        <ele>216.41003</ele>
        <time>2020-08-10T10:08:06.767Z</time>
      </trkpt>
      <trkpt lat="64.22912" lon="10.7918">
        <ele>216.38089</ele>
        <time>2020-08-10T10:08:09.737Z</time>
      </trkpt>
      <trkpt lat="64.22902" lon="10.79187">
        <ele>216.350054</ele>
        <time>2020-08-10T10:08:12.734Z</time>
      </trkpt>
      <trkpt lat="64.22891" lon="10.79195">
        <ele>216.318044</ele>
        <time>2020-08-10T10:08:15.779Z</time>
      </trkpt>
      <trkpt lat="64.22881" lon="10.79203">
        <ele>216.287359</ele>
        <time>2020-08-10T10:08:18.722Z</time>
      </trkpt>
      <trkpt lat="64.22871" lon="10.79211">
        <ele>216.25717</ele>
        <time>2020-08-10T10:08:21.750Z</time>
      </trkpt>
      <trkpt lat="64.22861" lon="10.79223">
        <ele>216.258856</ele>
        <time>2020-08-10T10:08:24.732Z</time>
      </trkpt>
      <trkpt lat="64.2285" lon="10.79233">
        <ele>216.781241</ele>
        <time>2020-08-10T10:08:27.746Z</time>
      </trkpt>
      <trkpt lat="64.22838" lon="10.79244">
        <ele>217.304682</ele>
        <time>2020-08-10T10:08:30.742Z</time>
      </trkpt>
      <trkpt lat="64.22827" lon="10.79253">
        <ele>217.833088</ele>
        <time>2020-08-10T10:08:33.720Z</time>
      </trkpt>
      <trkpt lat="64.22816" lon="10.79263">
        <ele>218.346669</ele>
        <time>2020-08-10T10:08:36.743Z</time>
      </trkpt>
      <trkpt lat="64.22806" lon="10.79274">
        <ele>218.832563</ele>
        <time>2020-08-10T10:08:39.723Z</time>
      </trkpt>
      <trkpt lat="64.22796" lon="10.79285">
        <ele>219.296221</ele>
        <time>2020-08-10T10:08:42.766Z</time>
      </trkpt>
      <trkpt lat="64.22787" lon="10.79294">
        <ele>219.723741</ele>
        <time>2020-08-10T10:08:45.735Z</time>
      </trkpt>
      <trkpt lat="64.22776" lon="10.79304">
        <ele>220.232668</ele>
        <time>2020-08-10T10:08:49.733Z</time>
      </trkpt>
      <trkpt lat="64.22765" lon="10.79305">
        <ele>220.713621</ele>
        <time>2020-08-10T10:08:52.726Z</time>
      </trkpt>
      <trkpt lat="64.22755" lon="10.7931">
        <ele>221.152185</ele>
        <time>2020-08-10T10:08:55.749Z</time>
      </trkpt>
      <trkpt lat="64.22744" lon="10.79315">
        <ele>221.64593</ele>
        <time>2020-08-10T10:08:59.742Z</time>
      </trkpt>
      <trkpt lat="64.22733" lon="10.79317">
        <ele>222.133636</ele>
        <time>2020-08-10T10:09:03.739Z</time>
      </trkpt>
      <trkpt lat="64.22724" lon="10.79328">
        <ele>222.565124</ele>
        <time>2020-08-10T10:09:07.752Z</time>
      </trkpt>
      <trkpt lat="64.22715" lon="10.79336">
        <ele>222.988395</ele>
        <time>2020-08-10T10:09:11.767Z</time>
      </trkpt>
      <trkpt lat="64.22705" lon="10.79341">
        <ele>223.40289</ele>
        <time>2020-08-10T10:09:15.740Z</time>
      </trkpt>
      <trkpt lat="64.22695" lon="10.79348">
        <ele>223.8748</ele>
        <time>2020-08-10T10:09:19.730Z</time>
      </trkpt>
      <trkpt lat="64.22684" lon="10.79355">
        <ele>223.978046</ele>
        <time>2020-08-10T10:09:23.725Z</time>
      </trkpt>
      <trkpt lat="64.22676" lon="10.79366">
        <ele>223.928149</ele>
        <time>2020-08-10T10:09:27.721Z</time>
      </trkpt>
      <trkpt lat="64.22667" lon="10.79377">
        <ele>223.880103</ele>
        <time>2020-08-10T10:09:31.716Z</time>
      </trkpt>
      <trkpt lat="64.22659" lon="10.79395">
        <ele>223.825265</ele>
        <time>2020-08-10T10:09:35.735Z</time>
      </trkpt>
      <trkpt lat="64.22652" lon="10.79416">
        <ele>223.766841</ele>
        <time>2020-08-10T10:09:39.741Z</time>
      </trkpt>
      <trkpt lat="64.22646" lon="10.79435">
        <ele>223.717722</ele>
        <time>2020-08-10T10:09:42.740Z</time>
      </trkpt>
      <trkpt lat="64.22641" lon="10.79458">
        <ele>223.661367</ele>
        <time>2020-08-10T10:09:46.759Z</time>
      </trkpt>
      <trkpt lat="64.22635" lon="10.79481">
        <ele>223.604534</ele>
        <time>2020-08-10T10:09:50.743Z</time>
      </trkpt>
      <trkpt lat="64.22631" lon="10.79505">
        <ele>223.549566</ele>
        <time>2020-08-10T10:09:54.732Z</time>
      </trkpt>
      <trkpt lat="64.22627" lon="10.79527">
        <ele>223.496965</ele>
        <time>2020-08-10T10:09:58.754Z</time>
      </trkpt>
      <trkpt lat="64.22622" lon="10.79549">
        <ele>223.444367</ele>
        <time>2020-08-10T10:10:02.739Z</time>
      </trkpt>
      <trkpt lat="64.22619" lon="10.79575">
        <ele>223.387559</ele>
        <time>2020-08-10T10:10:06.732Z</time>
      </trkpt>
      <trkpt lat="64.22617" lon="10.79595">
        <ele>223.342989</ele>
        <time>2020-08-10T10:10:09.759Z</time>
      </trkpt>
      <trkpt lat="64.22615" lon="10.79621">
        <ele>223.286274</ele>
        <time>2020-08-10T10:10:13.743Z</time>
      </trkpt>
      <trkpt lat="64.22615" lon="10.79643">
        <ele>223.238839</ele>
        <time>2020-08-10T10:10:16.730Z</time>
      </trkpt>
      <trkpt lat="64.22615" lon="10.79666">
        <ele>223.187918</ele>
        <time>2020-08-10T10:10:19.740Z</time>
      </trkpt>
      <trkpt lat="64.22617" lon="10.7969">
        <ele>223.13653</ele>
        <time>2020-08-10T10:10:22.737Z</time>
      </trkpt>
      <trkpt lat="64.22618" lon="10.79711">
        <ele>223.12553</ele>
        <time>2020-08-10T10:10:25.735Z</time>
      </trkpt>
      <trkpt lat="64.22619" lon="10.79732">
        <ele>223.127046</ele>
        <time>2020-08-10T10:10:28.730Z</time>
      </trkpt>
      <trkpt lat="64.2262" lon="10.79755">
        <ele>223.128714</ele>
        <time>2020-08-10T10:10:31.721Z</time>
      </trkpt>
      <trkpt lat="64.22622" lon="10.79777">
        <ele>223.130336</ele>
        <time>2020-08-10T10:10:34.721Z</time>
      </trkpt>
      <trkpt lat="64.22624" lon="10.798">
        <ele>223.13205</ele>
        <time>2020-08-10T10:10:37.727Z</time>
      </trkpt>
      <trkpt lat="64.22626" lon="10.79824">
        <ele>223.133863</ele>
        <time>2020-08-10T10:10:40.736Z</time>
      </trkpt>
      <trkpt lat="64.22629" lon="10.79848">
        <ele>223.135677</ele>
        <time>2020-08-10T10:10:43.736Z</time>
      </trkpt>
      <trkpt lat="64.22631" lon="10.79869">
        <ele>223.137195</ele>
        <time>2020-08-10T10:10:46.734Z</time>
      </trkpt>
      <trkpt lat="64.22633" lon="10.7989">
        <ele>223.138763</ele>
        <time>2020-08-10T10:10:49.736Z</time>
      </trkpt>
      <trkpt lat="64.22635" lon="10.79911">
        <ele>223.140325</ele>
        <time>2020-08-10T10:10:52.742Z</time>
      </trkpt>
      <trkpt lat="64.22638" lon="10.79931">
        <ele>223.141848</ele>
        <time>2020-08-10T10:10:55.719Z</time>
      </trkpt>
      <trkpt lat="64.2264" lon="10.79951">
        <ele>223.143352</ele>
        <time>2020-08-10T10:10:58.742Z</time>
      </trkpt>
      <trkpt lat="64.22641" lon="10.79972">
        <ele>223.144907</ele>
        <time>2020-08-10T10:11:01.742Z</time>
      </trkpt>
      <trkpt lat="64.22644" lon="10.79992">
        <ele>223.14641</ele>
        <time>2020-08-10T10:11:04.737Z</time>
      </trkpt>
      <trkpt lat="64.22646" lon="10.80013">
        <ele>223.147939</ele>
        <time>2020-08-10T10:11:07.742Z</time>
      </trkpt>
      <trkpt lat="64.22648" lon="10.80034">
        <ele>223.14951</ele>
        <time>2020-08-10T10:11:10.734Z</time>
      </trkpt>
      <trkpt lat="64.22651" lon="10.80055">
        <ele>223.151141</ele>
        <time>2020-08-10T10:11:13.788Z</time>
      </trkpt>
      <trkpt lat="64.22653" lon="10.80079">
        <ele>223.152883</ele>
        <time>2020-08-10T10:11:16.756Z</time>
      </trkpt>
      <trkpt lat="64.22657" lon="10.80104">
        <ele>223.13953</ele>
        <time>2020-08-10T10:11:19.743Z</time>
      </trkpt>
      <trkpt lat="64.22659" lon="10.80127">
        <ele>223.072995</ele>
        <time>2020-08-10T10:11:22.761Z</time>
      </trkpt>
      <trkpt lat="64.22661" lon="10.80151">
        <ele>223.00845</ele>
        <time>2020-08-10T10:11:25.760Z</time>
      </trkpt>
      <trkpt lat="64.22663" lon="10.80174">
        <ele>222.944413</ele>
        <time>2020-08-10T10:11:28.766Z</time>
      </trkpt>
      <trkpt lat="64.22665" lon="10.80197">
        <ele>222.879337</ele>
        <time>2020-08-10T10:11:31.765Z</time>
      </trkpt>
      <trkpt lat="64.22667" lon="10.80219">
        <ele>222.819699</ele>
        <time>2020-08-10T10:11:34.737Z</time>
      </trkpt>
      <trkpt lat="64.2267" lon="10.8024">
        <ele>222.760211</ele>
        <time>2020-08-10T10:11:37.723Z</time>
      </trkpt>
      <trkpt lat="64.22673" lon="10.80261">
        <ele>222.701926</ele>
        <time>2020-08-10T10:11:40.744Z</time>
      </trkpt>
      <trkpt lat="64.22677" lon="10.80285">
        <ele>222.629923</ele>
        <time>2020-08-10T10:11:44.737Z</time>
      </trkpt>
      <trkpt lat="64.2268" lon="10.80311">
        <ele>222.557907</ele>
        <time>2020-08-10T10:11:48.758Z</time>
      </trkpt>
      <trkpt lat="64.22684" lon="10.80334">
        <ele>222.490661</ele>
        <time>2020-08-10T10:11:52.744Z</time>
      </trkpt>
      <trkpt lat="64.22689" lon="10.80356">
        <ele>222.423513</ele>
        <time>2020-08-10T10:11:56.751Z</time>
      </trkpt>
      <trkpt lat="64.22694" lon="10.80378">
        <ele>222.354206</ele>
        <time>2020-08-10T10:12:00.724Z</time>
      </trkpt>
      <trkpt lat="64.22698" lon="10.80401">
        <ele>222.289032</ele>
        <time>2020-08-10T10:12:04.757Z</time>
      </trkpt>
      <trkpt lat="64.22702" lon="10.80424">
        <ele>222.220852</ele>
        <time>2020-08-10T10:12:08.737Z</time>
      </trkpt>
      <trkpt lat="64.22706" lon="10.80445">
        <ele>222.158413</ele>
        <time>2020-08-10T10:12:12.768Z</time>
      </trkpt>
      <trkpt lat="64.22711" lon="10.80468">
        <ele>222.090504</ele>
        <time>2020-08-10T10:12:16.763Z</time>
      </trkpt>
      <trkpt lat="64.22716" lon="10.80491">
        <ele>222.071287</ele>
        <time>2020-08-10T10:12:20.732Z</time>
      </trkpt>
      <trkpt lat="64.2272" lon="10.80512">
        <ele>222.262601</ele>
        <time>2020-08-10T10:12:24.772Z</time>
      </trkpt>
      <trkpt lat="64.22724" lon="10.80534">
        <ele>222.45762</ele>
        <time>2020-08-10T10:12:28.745Z</time>
      </trkpt>
      <trkpt lat="64.22728" lon="10.80557">
        <ele>222.659009</ele>
        <time>2020-08-10T10:12:32.749Z</time>
      </trkpt>
      <trkpt lat="64.22732" lon="10.80582">
        <ele>222.878542</ele>
        <time>2020-08-10T10:12:36.739Z</time>
      </trkpt>
      <trkpt lat="64.22735" lon="10.80602">
        <ele>223.062242</ele>
        <time>2020-08-10T10:12:39.744Z</time>
      </trkpt>
      <trkpt lat="64.22739" lon="10.80623">
        <ele>223.250491</ele>
        <time>2020-08-10T10:12:42.738Z</time>
      </trkpt>
      <trkpt lat="64.22743" lon="10.80648">
        <ele>223.467609</ele>
        <time>2020-08-10T10:12:46.760Z</time>
      </trkpt>
      <trkpt lat="64.22745" lon="10.80672">
        <ele>223.670566</ele>
        <time>2020-08-10T10:12:50.735Z</time>
      </trkpt>
      <trkpt lat="64.22747" lon="10.80698">
        <ele>223.888711</ele>
        <time>2020-08-10T10:12:54.722Z</time>
      </trkpt>
      <trkpt lat="64.22748" lon="10.80724">
        <ele>224.102198</ele>
        <time>2020-08-10T10:12:58.746Z</time>
      </trkpt>
      <trkpt lat="64.22749" lon="10.8075">
        <ele>224.316802</ele>
        <time>2020-08-10T10:13:02.747Z</time>
      </trkpt>
      <trkpt lat="64.2275" lon="10.80771">
        <ele>224.490934</ele>
        <time>2020-08-10T10:13:05.737Z</time>
      </trkpt>
      <trkpt lat="64.22751" lon="10.80791">
        <ele>224.664084</ele>
        <time>2020-08-10T10:13:08.765Z</time>
      </trkpt>
      <trkpt lat="64.22751" lon="10.80816">
        <ele>224.871765</ele>
        <time>2020-08-10T10:13:12.730Z</time>
      </trkpt>
      <trkpt lat="64.22752" lon="10.80837">
        <ele>225.045725</ele>
        <time>2020-08-10T10:13:15.755Z</time>
      </trkpt>
      <trkpt lat="64.22753" lon="10.80863">
        <ele>225.256584</ele>
        <time>2020-08-10T10:13:19.730Z</time>
      </trkpt>
      <trkpt lat="64.22754" lon="10.80888">
        <ele>225.465694</ele>
        <time>2020-08-10T10:13:23.740Z</time>
      </trkpt>
      <trkpt lat="64.22756" lon="10.80912">
        <ele>225.698037</ele>
        <time>2020-08-10T10:13:27.722Z</time>
      </trkpt>
      <trkpt lat="64.22758" lon="10.80936">
        <ele>225.931941</ele>
        <time>2020-08-10T10:13:31.723Z</time>
      </trkpt>
      <trkpt lat="64.22759" lon="10.80961">
        <ele>226.176534</ele>
        <time>2020-08-10T10:13:35.758Z</time>
      </trkpt>
      <trkpt lat="64.22761" lon="10.80984">
        <ele>226.393775</ele>
        <time>2020-08-10T10:13:39.718Z</time>
      </trkpt>
      <trkpt lat="64.22762" lon="10.81008">
        <ele>226.625457</ele>
        <time>2020-08-10T10:13:43.722Z</time>
      </trkpt>
      <trkpt lat="64.22763" lon="10.81031">
        <ele>226.847112</ele>
        <time>2020-08-10T10:13:47.728Z</time>
      </trkpt>
      <trkpt lat="64.22764" lon="10.81056">
        <ele>227.080555</ele>
        <time>2020-08-10T10:13:51.776Z</time>
      </trkpt>
      <trkpt lat="64.22766" lon="10.81081">
        <ele>227.322316</ele>
        <time>2020-08-10T10:13:55.736Z</time>
      </trkpt>
      <trkpt lat="64.22766" lon="10.81103">
        <ele>227.531457</ele>
        <time>2020-08-10T10:13:59.753Z</time>
      </trkpt>
      <trkpt lat="64.22768" lon="10.81125">
        <ele>227.742435</ele>
        <time>2020-08-10T10:14:03.726Z</time>
      </trkpt>
      <trkpt lat="64.2277" lon="10.81147">
        <ele>227.957709</ele>
        <time>2020-08-10T10:14:07.732Z</time>
      </trkpt>
      <trkpt lat="64.22772" lon="10.81167">
        <ele>228.159037</ele>
        <time>2020-08-10T10:14:11.755Z</time>
      </trkpt>
      <trkpt lat="64.22774" lon="10.81188">
        <ele>228.364092</ele>
        <time>2020-08-10T10:14:15.727Z</time>
      </trkpt>
      <trkpt lat="64.22776" lon="10.8121">
        <ele>228.570531</ele>
        <time>2020-08-10T10:14:19.722Z</time>
      </trkpt>
      <trkpt lat="64.22777" lon="10.81233">
        <ele>228.799116</ele>
        <time>2020-08-10T10:14:24.738Z</time>
      </trkpt>
      <trkpt lat="64.2278" lon="10.81258">
        <ele>229.034884</ele>
        <time>2020-08-10T10:14:29.716Z</time>
      </trkpt>
      <trkpt lat="64.22783" lon="10.8128">
        <ele>229.261573</ele>
        <time>2020-08-10T10:14:34.733Z</time>
      </trkpt>
      <trkpt lat="64.22786" lon="10.81303">
        <ele>229.509939</ele>
        <time>2020-08-10T10:14:39.742Z</time>
      </trkpt>
      <trkpt lat="64.2279" lon="10.81325">
        <ele>229.773094</ele>
        <time>2020-08-10T10:14:44.723Z</time>
      </trkpt>
      <trkpt lat="64.22794" lon="10.81345">
        <ele>230.019179</ele>
        <time>2020-08-10T10:14:48.721Z</time>
      </trkpt>
      <trkpt lat="64.22799" lon="10.81368">
        <ele>230.303914</ele>
        <time>2020-08-10T10:14:53.727Z</time>
      </trkpt>
      <trkpt lat="64.22803" lon="10.8139">
        <ele>230.565933</ele>
        <time>2020-08-10T10:14:57.745Z</time>
      </trkpt>
      <trkpt lat="64.22807" lon="10.81411">
        <ele>230.834144</ele>
        <time>2020-08-10T10:15:01.724Z</time>
      </trkpt>
      <trkpt lat="64.22812" lon="10.8143">
        <ele>231.076403</ele>
        <time>2020-08-10T10:15:05.725Z</time>
      </trkpt>
      <trkpt lat="64.22816" lon="10.8145">
        <ele>231.32519</ele>
        <time>2020-08-10T10:15:09.727Z</time>
      </trkpt>
      <trkpt lat="64.22821" lon="10.81472">
        <ele>231.594515</ele>
        <time>2020-08-10T10:15:13.777Z</time>
      </trkpt>
      <trkpt lat="64.22825" lon="10.81493">
        <ele>231.854379</ele>
        <time>2020-08-10T10:15:17.749Z</time>
      </trkpt>
      <trkpt lat="64.22828" lon="10.81515">
        <ele>232.109604</ele>
        <time>2020-08-10T10:15:21.738Z</time>
      </trkpt>
      <trkpt lat="64.22831" lon="10.81539">
        <ele>232.39072</ele>
        <time>2020-08-10T10:15:26.758Z</time>
      </trkpt>
      <trkpt lat="64.22834" lon="10.81561">
        <ele>232.643315</ele>
        <time>2020-08-10T10:15:30.748Z</time>
      </trkpt>
      <trkpt lat="64.22836" lon="10.81586">
        <ele>232.930839</ele>
        <time>2020-08-10T10:15:35.736Z</time>
      </trkpt>
      <trkpt lat="64.22838" lon="10.81609">
        <ele>233.192541</ele>
        <time>2020-08-10T10:15:39.743Z</time>
      </trkpt>
      <trkpt lat="64.22842" lon="10.81631">
        <ele>233.454933</ele>
        <time>2020-08-10T10:15:43.738Z</time>
      </trkpt>
      <trkpt lat="64.22845" lon="10.81654">
        <ele>233.730612</ele>
        <time>2020-08-10T10:15:47.726Z</time>
      </trkpt>
      <trkpt lat="64.22849" lon="10.81676">
        <ele>233.996636</ele>
        <time>2020-08-10T10:15:51.724Z</time>
      </trkpt>
      <trkpt lat="64.22854" lon="10.81696">
        <ele>234.116261</ele>
        <time>2020-08-10T10:15:55.731Z</time>
      </trkpt>
      <trkpt lat="64.2286" lon="10.81716">
        <ele>234.231444</ele>
        <time>2020-08-10T10:15:59.739Z</time>
      </trkpt>
      <trkpt lat="64.22865" lon="10.81735">
        <ele>234.34272</ele>
        <time>2020-08-10T10:16:03.745Z</time>
      </trkpt>
      <trkpt lat="64.22869" lon="10.81753">
        <ele>234.445414</ele>
        <time>2020-08-10T10:16:07.723Z</time>
      </trkpt>
      <trkpt lat="64.22876" lon="10.81773">
        <ele>234.574949</ele>
        <time>2020-08-10T10:16:11.758Z</time>
      </trkpt>
      <trkpt lat="64.22884" lon="10.81794">
        <ele>234.707606</ele>
        <time>2020-08-10T10:16:15.743Z</time>
      </trkpt>
      <trkpt lat="64.22889" lon="10.81811">
        <ele>234.816534</ele>
        <time>2020-08-10T10:16:18.763Z</time>
      </trkpt>
      <trkpt lat="64.22897" lon="10.8183">
        <ele>234.942622</ele>
        <time>2020-08-10T10:16:22.736Z</time>
      </trkpt>
      <trkpt lat="64.22903" lon="10.81845">
        <ele>235.048542</ele>
        <time>2020-08-10T10:16:25.755Z</time>
      </trkpt>
      <trkpt lat="64.22911" lon="10.81863">
        <ele>235.171782</ele>
        <time>2020-08-10T10:16:29.739Z</time>
      </trkpt>
      <trkpt lat="64.22919" lon="10.81884">
        <ele>235.30985</ele>
        <time>2020-08-10T10:16:33.726Z</time>
      </trkpt>
      <trkpt lat="64.22925" lon="10.819">
        <ele>235.415345</ele>
        <time>2020-08-10T10:16:36.763Z</time>
      </trkpt>
      <trkpt lat="64.22932" lon="10.81915">
        <ele>235.523576</ele>
        <time>2020-08-10T10:16:39.732Z</time>
      </trkpt>
      <trkpt lat="64.22939" lon="10.81932">
        <ele>235.642727</ele>
        <time>2020-08-10T10:16:43.730Z</time>
      </trkpt>
      <trkpt lat="64.22947" lon="10.81951">
        <ele>235.771823</ele>
        <time>2020-08-10T10:16:47.740Z</time>
      </trkpt>
      <trkpt lat="64.22954" lon="10.81972">
        <ele>235.907289</ele>
        <time>2020-08-10T10:16:51.749Z</time>
      </trkpt>
      <trkpt lat="64.22962" lon="10.81993">
        <ele>236.040528</ele>
        <time>2020-08-10T10:16:55.766Z</time>
      </trkpt>
      <trkpt lat="64.22969" lon="10.82012">
        <ele>236.156887</ele>
        <time>2020-08-10T10:16:59.747Z</time>
      </trkpt>
      <trkpt lat="64.22976" lon="10.82033">
        <ele>236.263634</ele>
        <time>2020-08-10T10:17:03.742Z</time>
      </trkpt>
      <trkpt lat="64.22981" lon="10.82055">
        <ele>236.372888</ele>
        <time>2020-08-10T10:17:07.758Z</time>
      </trkpt>
      <trkpt lat="64.22987" lon="10.82078">
        <ele>236.482736</ele>
        <time>2020-08-10T10:17:11.768Z</time>
      </trkpt>
      <trkpt lat="64.22992" lon="10.821">
        <ele>236.591447</ele>
        <time>2020-08-10T10:17:15.731Z</time>
      </trkpt>
      <trkpt lat="64.22997" lon="10.82117">
        <ele>236.679673</ele>
        <time>2020-08-10T10:17:18.738Z</time>
      </trkpt>
      <trkpt lat="64.23004" lon="10.82137">
        <ele>236.787921</ele>
        <time>2020-08-10T10:17:22.734Z</time>
      </trkpt>
      <trkpt lat="64.23009" lon="10.82154">
        <ele>236.875889</ele>
        <time>2020-08-10T10:17:25.757Z</time>
      </trkpt>
      <trkpt lat="64.23016" lon="10.82175">
        <ele>236.984946</ele>
        <time>2020-08-10T10:17:29.745Z</time>
      </trkpt>
      <trkpt lat="64.23022" lon="10.82196">
        <ele>237.095329</ele>
        <time>2020-08-10T10:17:33.759Z</time>
      </trkpt>
      <trkpt lat="64.23029" lon="10.82218">
        <ele>237.208146</ele>
        <time>2020-08-10T10:17:37.775Z</time>
      </trkpt>
      <trkpt lat="64.23035" lon="10.8224">
        <ele>237.318571</ele>
        <time>2020-08-10T10:17:41.736Z</time>
      </trkpt>
      <trkpt lat="64.23041" lon="10.82264">
        <ele>237.436358</ele>
        <time>2020-08-10T10:17:45.728Z</time>
      </trkpt>
      <trkpt lat="64.23047" lon="10.82282">
        <ele>237.534214</ele>
        <time>2020-08-10T10:17:48.734Z</time>
      </trkpt>
      <trkpt lat="64.23053" lon="10.82303">
        <ele>237.639903</ele>
        <time>2020-08-10T10:17:51.732Z</time>
      </trkpt>
      <trkpt lat="64.23059" lon="10.82326">
        <ele>237.752928</ele>
        <time>2020-08-10T10:17:54.776Z</time>
      </trkpt>
      <trkpt lat="64.23065" lon="10.82353">
        <ele>237.868455</ele>
        <time>2020-08-10T10:17:57.730Z</time>
      </trkpt>
      <trkpt lat="64.2307" lon="10.82372">
        <ele>237.936147</ele>
        <time>2020-08-10T10:17:59.735Z</time>
      </trkpt>
      <trkpt lat="64.23074" lon="10.8239">
        <ele>238.002067</ele>
        <time>2020-08-10T10:18:01.749Z</time>
      </trkpt>
      <trkpt lat="64.2308" lon="10.82414">
        <ele>238.084471</ele>
        <time>2020-08-10T10:18:04.754Z</time>
      </trkpt>
      <trkpt lat="64.23086" lon="10.82438">
        <ele>238.168869</ele>
        <time>2020-08-10T10:18:07.739Z</time>
      </trkpt>
      <trkpt lat="64.23092" lon="10.82461">
        <ele>238.254725</ele>
        <time>2020-08-10T10:18:10.765Z</time>
      </trkpt>
      <trkpt lat="64.23098" lon="10.82482">
        <ele>238.331338</ele>
        <time>2020-08-10T10:18:13.767Z</time>
      </trkpt>
      <trkpt lat="64.23104" lon="10.82501">
        <ele>238.404842</ele>
        <time>2020-08-10T10:18:16.731Z</time>
      </trkpt>
      <trkpt lat="64.23109" lon="10.82521">
        <ele>238.474934</ele>
        <time>2020-08-10T10:18:19.754Z</time>
      </trkpt>
      <trkpt lat="64.23115" lon="10.82542">
        <ele>238.552321</ele>
        <time>2020-08-10T10:18:22.725Z</time>
      </trkpt>
      <trkpt lat="64.23121" lon="10.82561">
        <ele>238.625877</ele>
        <time>2020-08-10T10:18:25.731Z</time>
      </trkpt>
      <trkpt lat="64.23127" lon="10.82579">
        <ele>238.699377</ele>
        <time>2020-08-10T10:18:28.732Z</time>
      </trkpt>
      <trkpt lat="64.23133" lon="10.826">
        <ele>238.774555</ele>
        <time>2020-08-10T10:18:31.766Z</time>
      </trkpt>
      <trkpt lat="64.23138" lon="10.82621">
        <ele>238.850665</ele>
        <time>2020-08-10T10:18:34.726Z</time>
      </trkpt>
      <trkpt lat="64.23145" lon="10.82642">
        <ele>238.931164</ele>
        <time>2020-08-10T10:18:37.764Z</time>
      </trkpt>
      <trkpt lat="64.23151" lon="10.82665">
        <ele>239.013368</ele>
        <time>2020-08-10T10:18:40.747Z</time>
      </trkpt>
      <trkpt lat="64.23157" lon="10.8269">
        <ele>239.102037</ele>
        <time>2020-08-10T10:18:43.744Z</time>
      </trkpt>
      <trkpt lat="64.23161" lon="10.82712">
        <ele>239.030428</ele>
        <time>2020-08-10T10:18:45.774Z</time>
      </trkpt>
      <trkpt lat="64.23164" lon="10.82737">
        <ele>238.941332</ele>
        <time>2020-08-10T10:18:47.741Z</time>
      </trkpt>
      <trkpt lat="64.23167" lon="10.82764">
        <ele>238.847631</ele>
        <time>2020-08-10T10:18:49.725Z</time>
      </trkpt>
      <trkpt lat="64.23169" lon="10.8279">
        <ele>238.757045</ele>
        <time>2020-08-10T10:18:51.739Z</time>
      </trkpt>
      <trkpt lat="64.23168" lon="10.82815">
        <ele>238.671886</ele>
        <time>2020-08-10T10:18:53.717Z</time>
      </trkpt>
      <trkpt lat="64.23166" lon="10.82837">
        <ele>238.597443</ele>
        <time>2020-08-10T10:18:55.770Z</time>
      </trkpt>
      <trkpt lat="64.23163" lon="10.82865">
        <ele>238.499988</ele>
        <time>2020-08-10T10:18:58.755Z</time>
      </trkpt>
      <trkpt lat="64.2316" lon="10.82887">
        <ele>238.422533</ele>
        <time>2020-08-10T10:19:01.724Z</time>
      </trkpt>
      <trkpt lat="64.23161" lon="10.82912">
        <ele>238.338434</ele>
        <time>2020-08-10T10:19:05.734Z</time>
      </trkpt>
      <trkpt lat="64.23164" lon="10.82935">
        <ele>238.25789</ele>
        <time>2020-08-10T10:19:09.730Z</time>
      </trkpt>
      <trkpt lat="64.23166" lon="10.82955">
        <ele>238.188074</ele>
        <time>2020-08-10T10:19:13.735Z</time>
      </trkpt>
      <trkpt lat="64.23172" lon="10.82989">
        <ele>238.061657</ele>
        <time>2020-08-10T10:26:57.751Z</time>
      </trkpt>
      <trkpt lat="64.23168" lon="10.83009">
        <ele>237.990853</ele>
        <time>2020-08-10T10:27:02.744Z</time>
      </trkpt>
      <trkpt lat="64.23163" lon="10.8303">
        <ele>237.909857</ele>
        <time>2020-08-10T10:27:07.730Z</time>
      </trkpt>
      <trkpt lat="64.23159" lon="10.83053">
        <ele>237.824776</ele>
        <time>2020-08-10T10:27:12.797Z</time>
      </trkpt>
      <trkpt lat="64.2316" lon="10.83074">
        <ele>237.751141</ele>
        <time>2020-08-10T10:27:16.751Z</time>
      </trkpt>
      <trkpt lat="64.23162" lon="10.831">
        <ele>237.613574</ele>
        <time>2020-08-10T10:27:20.748Z</time>
      </trkpt>
      <trkpt lat="64.23165" lon="10.83124">
        <ele>237.443919</ele>
        <time>2020-08-10T10:27:23.749Z</time>
      </trkpt>
      <trkpt lat="64.23168" lon="10.8315">
        <ele>237.257728</ele>
        <time>2020-08-10T10:27:26.764Z</time>
      </trkpt>
      <trkpt lat="64.23171" lon="10.83176">
        <ele>237.06882</ele>
        <time>2020-08-10T10:27:29.761Z</time>
      </trkpt>
      <trkpt lat="64.23174" lon="10.83201">
        <ele>236.883986</ele>
        <time>2020-08-10T10:27:32.732Z</time>
      </trkpt>
      <trkpt lat="64.23176" lon="10.83224">
        <ele>236.716658</ele>
        <time>2020-08-10T10:27:35.759Z</time>
      </trkpt>
      <trkpt lat="64.23179" lon="10.83245">
        <ele>236.566441</ele>
        <time>2020-08-10T10:27:38.775Z</time>
      </trkpt>
      <trkpt lat="64.23182" lon="10.83269">
        <ele>236.389059</ele>
        <time>2020-08-10T10:27:42.727Z</time>
      </trkpt>
      <trkpt lat="64.23184" lon="10.83289">
        <ele>236.243415</ele>
        <time>2020-08-10T10:27:45.726Z</time>
      </trkpt>
      <trkpt lat="64.23188" lon="10.83309">
        <ele>236.097912</ele>
        <time>2020-08-10T10:27:48.743Z</time>
      </trkpt>
      <trkpt lat="64.23192" lon="10.83327">
        <ele>235.952395</ele>
        <time>2020-08-10T10:27:51.733Z</time>
      </trkpt>
      <trkpt lat="64.23196" lon="10.83351">
        <ele>235.772924</ele>
        <time>2020-08-10T10:27:55.744Z</time>
      </trkpt>
      <trkpt lat="64.232" lon="10.83374">
        <ele>235.595391</ele>
        <time>2020-08-10T10:27:59.736Z</time>
      </trkpt>
      <trkpt lat="64.23205" lon="10.83394">
        <ele>235.436473</ele>
        <time>2020-08-10T10:28:03.747Z</time>
      </trkpt>
      <trkpt lat="64.23209" lon="10.83414">
        <ele>235.280541</ele>
        <time>2020-08-10T10:28:07.714Z</time>
      </trkpt>
      <trkpt lat="64.23214" lon="10.83437">
        <ele>235.101234</ele>
        <time>2020-08-10T10:28:11.752Z</time>
      </trkpt>
      <trkpt lat="64.23219" lon="10.8346">
        <ele>234.920066</ele>
        <time>2020-08-10T10:28:15.750Z</time>
      </trkpt>
      <trkpt lat="64.23223" lon="10.8348">
        <ele>234.847125</ele>
        <time>2020-08-10T10:28:18.739Z</time>
      </trkpt>
      <trkpt lat="64.23227" lon="10.83502">
        <ele>235.034696</ele>
        <time>2020-08-10T10:28:21.739Z</time>
      </trkpt>
      <trkpt lat="64.23231" lon="10.83526">
        <ele>235.247938</ele>
        <time>2020-08-10T10:28:24.731Z</time>
      </trkpt>
      <trkpt lat="64.23236" lon="10.83551">
        <ele>235.466298</ele>
        <time>2020-08-10T10:28:27.728Z</time>
      </trkpt>
      <trkpt lat="64.23239" lon="10.83571">
        <ele>235.635937</ele>
        <time>2020-08-10T10:28:29.719Z</time>
      </trkpt>
      <trkpt lat="64.23243" lon="10.83593">
        <ele>235.821725</ele>
        <time>2020-08-10T10:28:31.773Z</time>
      </trkpt>
      <trkpt lat="64.23246" lon="10.83617">
        <ele>236.020789</ele>
        <time>2020-08-10T10:28:33.787Z</time>
      </trkpt>
      <trkpt lat="64.2325" lon="10.83641">
        <ele>236.224742</ele>
        <time>2020-08-10T10:28:35.741Z</time>
      </trkpt>
      <trkpt lat="64.23253" lon="10.83663">
        <ele>236.407376</ele>
        <time>2020-08-10T10:28:37.746Z</time>
      </trkpt>
      <trkpt lat="64.23256" lon="10.83683">
        <ele>236.579049</ele>
        <time>2020-08-10T10:28:39.766Z</time>
      </trkpt>
      <trkpt lat="64.2326" lon="10.83708">
        <ele>236.794667</ele>
        <time>2020-08-10T10:28:42.730Z</time>
      </trkpt>
      <trkpt lat="64.23263" lon="10.83729">
        <ele>236.969942</ele>
        <time>2020-08-10T10:28:45.730Z</time>
      </trkpt>
      <trkpt lat="64.23267" lon="10.83753">
        <ele>237.178069</ele>
        <time>2020-08-10T10:28:49.723Z</time>
      </trkpt>
      <trkpt lat="64.23271" lon="10.83775">
        <ele>237.364928</ele>
        <time>2020-08-10T10:28:53.726Z</time>
      </trkpt>
      <trkpt lat="64.23275" lon="10.83797">
        <ele>237.555623</ele>
        <time>2020-08-10T10:28:57.726Z</time>
      </trkpt>
      <trkpt lat="64.23278" lon="10.8382">
        <ele>237.747064</ele>
        <time>2020-08-10T10:29:01.735Z</time>
      </trkpt>
      <trkpt lat="64.23282" lon="10.83842">
        <ele>237.9391</ele>
        <time>2020-08-10T10:29:05.742Z</time>
      </trkpt>
      <trkpt lat="64.23287" lon="10.83865">
        <ele>238.161881</ele>
        <time>2020-08-10T10:29:09.724Z</time>
      </trkpt>
      <trkpt lat="64.23291" lon="10.83885">
        <ele>238.421525</ele>
        <time>2020-08-10T10:29:12.759Z</time>
      </trkpt>
      <trkpt lat="64.23295" lon="10.83908">
        <ele>238.696891</ele>
        <time>2020-08-10T10:29:15.739Z</time>
      </trkpt>
      <trkpt lat="64.23299" lon="10.83932">
        <ele>238.992552</ele>
        <time>2020-08-10T10:29:18.738Z</time>
      </trkpt>
      <trkpt lat="64.23303" lon="10.83959">
        <ele>239.316276</ele>
        <time>2020-08-10T10:29:21.772Z</time>
      </trkpt>
      <trkpt lat="64.23305" lon="10.83989">
        <ele>239.668149</ele>
        <time>2020-08-10T10:29:24.737Z</time>
      </trkpt>
      <trkpt lat="64.23307" lon="10.8401">
        <ele>239.923869</ele>
        <time>2020-08-10T10:29:26.731Z</time>
      </trkpt>
      <trkpt lat="64.23309" lon="10.84032">
        <ele>240.175109</ele>
        <time>2020-08-10T10:29:28.728Z</time>
      </trkpt>
      <trkpt lat="64.23312" lon="10.84052">
        <ele>240.420086</ele>
        <time>2020-08-10T10:29:30.746Z</time>
      </trkpt>
      <trkpt lat="64.23316" lon="10.8408">
        <ele>240.764061</ele>
        <time>2020-08-10T10:29:33.727Z</time>
      </trkpt>
      <trkpt lat="64.23321" lon="10.84103">
        <ele>241.058832</ele>
        <time>2020-08-10T10:29:36.742Z</time>
      </trkpt>
      <trkpt lat="64.23328" lon="10.84125">
        <ele>241.360904</ele>
        <time>2020-08-10T10:29:40.719Z</time>
      </trkpt>
      <trkpt lat="64.23333" lon="10.84147">
        <ele>241.643406</ele>
        <time>2020-08-10T10:29:45.741Z</time>
      </trkpt>
      <trkpt lat="64.23337" lon="10.84165">
        <ele>241.889556</ele>
        <time>2020-08-10T10:29:50.767Z</time>
      </trkpt>
      <trkpt lat="64.23342" lon="10.84184">
        <ele>242.136389</ele>
        <time>2020-08-10T10:29:55.767Z</time>
      </trkpt>
      <trkpt lat="64.23347" lon="10.84202">
        <ele>242.391754</ele>
        <time>2020-08-10T10:30:00.722Z</time>
      </trkpt>
      <trkpt lat="64.23353" lon="10.84219">
        <ele>242.636435</ele>
        <time>2020-08-10T10:30:05.779Z</time>
      </trkpt>
      <trkpt lat="64.23358" lon="10.84241">
        <ele>242.979034</ele>
        <time>2020-08-10T10:30:11.739Z</time>
      </trkpt>
      <trkpt lat="64.23363" lon="10.84261">
        <ele>243.693586</ele>
        <time>2020-08-10T10:30:17.746Z</time>
      </trkpt>
      <trkpt lat="64.23366" lon="10.84282">
        <ele>244.35661</ele>
        <time>2020-08-10T10:30:22.788Z</time>
      </trkpt>
      <trkpt lat="64.23368" lon="10.84304">
        <ele>245.020801</ele>
        <time>2020-08-10T10:30:27.760Z</time>
      </trkpt>
      <trkpt lat="64.23371" lon="10.84326">
        <ele>245.722139</ele>
        <time>2020-08-10T10:30:32.776Z</time>
      </trkpt>
      <trkpt lat="64.23374" lon="10.84347">
        <ele>246.364331</ele>
        <time>2020-08-10T10:30:36.761Z</time>
      </trkpt>
      <trkpt lat="64.23375" lon="10.84369">
        <ele>247.04108</ele>
        <time>2020-08-10T10:30:40.726Z</time>
      </trkpt>
      <trkpt lat="64.23377" lon="10.84392">
        <ele>247.738863</ele>
        <time>2020-08-10T10:30:44.737Z</time>
      </trkpt>
      <trkpt lat="64.23379" lon="10.84414">
        <ele>248.41591</ele>
        <time>2020-08-10T10:30:48.782Z</time>
      </trkpt>
      <trkpt lat="64.23381" lon="10.84436">
        <ele>249.089988</ele>
        <time>2020-08-10T10:30:53.763Z</time>
      </trkpt>
      <trkpt lat="64.23383" lon="10.84457">
        <ele>249.73357</ele>
        <time>2020-08-10T10:30:59.744Z</time>
      </trkpt>
      <trkpt lat="64.23383" lon="10.84478">
        <ele>250.352411</ele>
        <time>2020-08-10T10:31:05.730Z</time>
      </trkpt>
      <trkpt lat="64.23384" lon="10.84499">
        <ele>250.97539</ele>
        <time>2020-08-10T10:31:11.753Z</time>
      </trkpt>
      <trkpt lat="64.23385" lon="10.8452">
        <ele>251.604528</ele>
        <time>2020-08-10T10:31:17.739Z</time>
      </trkpt>
      <trkpt lat="64.23385" lon="10.84543">
        <ele>252.287054</ele>
        <time>2020-08-10T10:31:24.746Z</time>
      </trkpt>
      <trkpt lat="64.23384" lon="10.84566">
        <ele>252.985353</ele>
        <time>2020-08-10T10:31:31.764Z</time>
      </trkpt>
      <trkpt lat="64.23384" lon="10.84588">
        <ele>253.650504</ele>
        <time>2020-08-10T10:31:38.750Z</time>
      </trkpt>
      <trkpt lat="64.23382" lon="10.84609">
        <ele>254.289661</ele>
        <time>2020-08-10T10:31:45.743Z</time>
      </trkpt>
      <trkpt lat="64.2338" lon="10.84632">
        <ele>254.981838</ele>
        <time>2020-08-10T10:31:52.729Z</time>
      </trkpt>
      <trkpt lat="64.23378" lon="10.84654">
        <ele>255.649648</ele>
        <time>2020-08-10T10:31:59.753Z</time>
      </trkpt>
      <trkpt lat="64.23374" lon="10.84673">
        <ele>256.236103</ele>
        <time>2020-08-10T10:32:06.727Z</time>
      </trkpt>
      <trkpt lat="64.2337" lon="10.84694">
        <ele>256.885071</ele>
        <time>2020-08-10T10:32:13.729Z</time>
      </trkpt>
      <trkpt lat="64.23366" lon="10.84714">
        <ele>257.495722</ele>
        <time>2020-08-10T10:32:20.735Z</time>
      </trkpt>
      <trkpt lat="64.23361" lon="10.84733">
        <ele>258.118464</ele>
        <time>2020-08-10T10:32:27.734Z</time>
      </trkpt>
      <trkpt lat="64.23356" lon="10.84751">
        <ele>258.751645</ele>
        <time>2020-08-10T10:32:33.726Z</time>
      </trkpt>
      <trkpt lat="64.23351" lon="10.84772">
        <ele>259.428065</ele>
        <time>2020-08-10T10:32:40.786Z</time>
      </trkpt>
      <trkpt lat="64.23344" lon="10.84788">
        <ele>260.042992</ele>
        <time>2020-08-10T10:32:46.758Z</time>
      </trkpt>
      <trkpt lat="64.23337" lon="10.84805">
        <ele>260.736891</ele>
        <time>2020-08-10T10:32:52.776Z</time>
      </trkpt>
      <trkpt lat="64.2333" lon="10.84823">
        <ele>261.379762</ele>
        <time>2020-08-10T10:32:58.752Z</time>
      </trkpt>
      <trkpt lat="64.23324" lon="10.84838">
        <ele>261.967141</ele>
        <time>2020-08-10T10:33:04.729Z</time>
      </trkpt>
      <trkpt lat="64.23318" lon="10.84856">
        <ele>262.631181</ele>
        <time>2020-08-10T10:33:11.739Z</time>
      </trkpt>
      <trkpt lat="64.23311" lon="10.8487">
        <ele>263.215496</ele>
        <time>2020-08-10T10:33:16.726Z</time>
      </trkpt>
      <trkpt lat="64.23304" lon="10.84885">
        <ele>263.831453</ele>
        <time>2020-08-10T10:33:21.757Z</time>
      </trkpt>
      <trkpt lat="64.23297" lon="10.84901">
        <ele>264.472689</ele>
        <time>2020-08-10T10:33:26.734Z</time>
      </trkpt>
      <trkpt lat="64.2329" lon="10.84918">
        <ele>265.125554</ele>
        <time>2020-08-10T10:33:31.748Z</time>
      </trkpt>
      <trkpt lat="64.23281" lon="10.84934">
        <ele>265.873083</ele>
        <time>2020-08-10T10:33:36.729Z</time>
      </trkpt>
      <trkpt lat="64.23273" lon="10.84952">
        <ele>266.624127</ele>
        <time>2020-08-10T10:33:40.729Z</time>
      </trkpt>
      <trkpt lat="64.23265" lon="10.84971">
        <ele>266.886802</ele>
        <time>2020-08-10T10:33:44.749Z</time>
      </trkpt>
      <trkpt lat="64.23257" lon="10.84988">
        <ele>266.758815</ele>
        <time>2020-08-10T10:33:48.751Z</time>
      </trkpt>
      <trkpt lat="64.23249" lon="10.85009">
        <ele>266.619512</ele>
        <time>2020-08-10T10:33:52.733Z</time>
      </trkpt>
      <trkpt lat="64.23241" lon="10.85026">
        <ele>266.49787</ele>
        <time>2020-08-10T10:33:55.759Z</time>
      </trkpt>
      <trkpt lat="64.23232" lon="10.85049">
        <ele>266.344561</ele>
        <time>2020-08-10T10:33:58.763Z</time>
      </trkpt>
      <trkpt lat="64.23226" lon="10.85068">
        <ele>266.219164</ele>
        <time>2020-08-10T10:34:00.740Z</time>
      </trkpt>
      <trkpt lat="64.23218" lon="10.85093">
        <ele>266.066448</ele>
        <time>2020-08-10T10:34:02.737Z</time>
      </trkpt>
      <trkpt lat="64.23212" lon="10.85123">
        <ele>265.903046</ele>
        <time>2020-08-10T10:34:04.745Z</time>
      </trkpt>
      <trkpt lat="64.23207" lon="10.85154">
        <ele>265.735955</ele>
        <time>2020-08-10T10:34:06.772Z</time>
      </trkpt>
      <trkpt lat="64.23203" lon="10.85186">
        <ele>265.569452</ele>
        <time>2020-08-10T10:34:08.722Z</time>
      </trkpt>
      <trkpt lat="64.23199" lon="10.85216">
        <ele>265.413452</ele>
        <time>2020-08-10T10:34:10.748Z</time>
      </trkpt>
      <trkpt lat="64.23196" lon="10.85243">
        <ele>265.272839</ele>
        <time>2020-08-10T10:34:12.739Z</time>
      </trkpt>
      <trkpt lat="64.23193" lon="10.85268">
        <ele>265.145661</ele>
        <time>2020-08-10T10:34:14.737Z</time>
      </trkpt>
      <trkpt lat="64.23189" lon="10.8529">
        <ele>265.026852</ele>
        <time>2020-08-10T10:34:16.722Z</time>
      </trkpt>
      <trkpt lat="64.23185" lon="10.85308">
        <ele>264.922042</ele>
        <time>2020-08-10T10:34:18.747Z</time>
      </trkpt>
      <trkpt lat="64.2318" lon="10.85329">
        <ele>265.196934</ele>
        <time>2020-08-10T10:34:21.737Z</time>
      </trkpt>
      <trkpt lat="64.23176" lon="10.85348">
        <ele>265.603494</ele>
        <time>2020-08-10T10:34:25.768Z</time>
      </trkpt>
      <trkpt lat="64.23171" lon="10.85368">
        <ele>266.037075</ele>
        <time>2020-08-10T10:34:31.759Z</time>
      </trkpt>
      <trkpt lat="64.23166" lon="10.85388">
        <ele>266.456119</ele>
        <time>2020-08-10T10:34:37.739Z</time>
      </trkpt>
      <trkpt lat="64.23162" lon="10.85407">
        <ele>266.863721</ele>
        <time>2020-08-10T10:34:42.787Z</time>
      </trkpt>
      <trkpt lat="64.23158" lon="10.85428">
        <ele>267.290759</ele>
        <time>2020-08-10T10:34:47.761Z</time>
      </trkpt>
      <trkpt lat="64.23155" lon="10.8545">
        <ele>267.714409</ele>
        <time>2020-08-10T10:34:52.751Z</time>
      </trkpt>
      <trkpt lat="64.23153" lon="10.85471">
        <ele>268.117032</ele>
        <time>2020-08-10T10:34:57.742Z</time>
      </trkpt>
      <trkpt lat="64.23151" lon="10.85493">
        <ele>268.544957</ele>
        <time>2020-08-10T10:35:02.739Z</time>
      </trkpt>
      <trkpt lat="64.23149" lon="10.85518">
        <ele>269.026423</ele>
        <time>2020-08-10T10:35:07.729Z</time>
      </trkpt>
      <trkpt lat="64.23148" lon="10.8554">
        <ele>269.439537</ele>
        <time>2020-08-10T10:35:11.769Z</time>
      </trkpt>
      <trkpt lat="64.23146" lon="10.85563">
        <ele>269.883169</ele>
        <time>2020-08-10T10:35:15.753Z</time>
      </trkpt>
      <trkpt lat="64.23144" lon="10.85588">
        <ele>270.356525</ele>
        <time>2020-08-10T10:35:19.743Z</time>
      </trkpt>
      <trkpt lat="64.23142" lon="10.8561">
        <ele>270.784877</ele>
        <time>2020-08-10T10:35:23.763Z</time>
      </trkpt>
      <trkpt lat="64.23139" lon="10.85633">
        <ele>271.232749</ele>
        <time>2020-08-10T10:35:27.742Z</time>
      </trkpt>
      <trkpt lat="64.23134" lon="10.85654">
        <ele>271.670509</ele>
        <time>2020-08-10T10:35:31.753Z</time>
      </trkpt>
      <trkpt lat="64.23131" lon="10.85675">
        <ele>272.088796</ele>
        <time>2020-08-10T10:35:35.755Z</time>
      </trkpt>
      <trkpt lat="64.23127" lon="10.85697">
        <ele>272.533301</ele>
        <time>2020-08-10T10:35:39.755Z</time>
      </trkpt>
      <trkpt lat="64.23122" lon="10.85722">
        <ele>272.593868</ele>
        <time>2020-08-10T10:35:43.741Z</time>
      </trkpt>
      <trkpt lat="64.23116" lon="10.85742">
        <ele>272.525672</ele>
        <time>2020-08-10T10:35:46.736Z</time>
      </trkpt>
      <trkpt lat="64.23111" lon="10.85763">
        <ele>272.459995</ele>
        <time>2020-08-10T10:35:49.742Z</time>
      </trkpt>
      <trkpt lat="64.23106" lon="10.85781">
        <ele>272.397807</ele>
        <time>2020-08-10T10:35:52.725Z</time>
      </trkpt>
      <trkpt lat="64.231" lon="10.85797">
        <ele>272.337772</ele>
        <time>2020-08-10T10:35:55.723Z</time>
      </trkpt>
      <trkpt lat="64.23093" lon="10.85813">
        <ele>272.274641</ele>
        <time>2020-08-10T10:35:58.757Z</time>
      </trkpt>
      <trkpt lat="64.23087" lon="10.8583">
        <ele>272.215854</ele>
        <time>2020-08-10T10:36:01.734Z</time>
      </trkpt>
      <trkpt lat="64.23081" lon="10.85845">
        <ele>272.157286</ele>
        <time>2020-08-10T10:36:04.747Z</time>
      </trkpt>
      <trkpt lat="64.23073" lon="10.85864">
        <ele>272.081439</ele>
        <time>2020-08-10T10:36:08.739Z</time>
      </trkpt>
      <trkpt lat="64.23066" lon="10.8588">
        <ele>272.021313</ele>
        <time>2020-08-10T10:36:11.746Z</time>
      </trkpt>
      <trkpt lat="64.23059" lon="10.85896">
        <ele>271.9551</ele>
        <time>2020-08-10T10:36:14.747Z</time>
      </trkpt>
      <trkpt lat="64.23051" lon="10.85914">
        <ele>271.885259</ele>
        <time>2020-08-10T10:36:17.755Z</time>
      </trkpt>
      <trkpt lat="64.23045" lon="10.85931">
        <ele>271.821412</ele>
        <time>2020-08-10T10:36:20.766Z</time>
      </trkpt>
      <trkpt lat="64.23038" lon="10.85946">
        <ele>271.761088</ele>
        <time>2020-08-10T10:36:23.738Z</time>
      </trkpt>
      <trkpt lat="64.23031" lon="10.85962">
        <ele>271.696906</ele>
        <time>2020-08-10T10:36:26.738Z</time>
      </trkpt>
      <trkpt lat="64.23024" lon="10.8598">
        <ele>271.629029</ele>
        <time>2020-08-10T10:36:29.748Z</time>
      </trkpt>
      <trkpt lat="64.23017" lon="10.86">
        <ele>271.557286</ele>
        <time>2020-08-10T10:36:32.744Z</time>
      </trkpt>
      <trkpt lat="64.23011" lon="10.86021">
        <ele>271.52146</ele>
        <time>2020-08-10T10:36:35.727Z</time>
      </trkpt>
      <trkpt lat="64.23004" lon="10.86043">
        <ele>271.852089</ele>
        <time>2020-08-10T10:36:38.737Z</time>
      </trkpt>
      <trkpt lat="64.22998" lon="10.86067">
        <ele>272.190816</ele>
        <time>2020-08-10T10:36:41.729Z</time>
      </trkpt>
      <trkpt lat="64.22992" lon="10.86093">
        <ele>272.536287</ele>
        <time>2020-08-10T10:36:44.779Z</time>
      </trkpt>
      <trkpt lat="64.22989" lon="10.86121">
        <ele>272.873305</ele>
        <time>2020-08-10T10:36:47.739Z</time>
      </trkpt>
      <trkpt lat="64.22987" lon="10.86149">
        <ele>273.214143</ele>
        <time>2020-08-10T10:36:50.755Z</time>
      </trkpt>
      <trkpt lat="64.22987" lon="10.86176">
        <ele>273.545227</ele>
        <time>2020-08-10T10:36:53.760Z</time>
      </trkpt>
      <trkpt lat="64.22988" lon="10.86205">
        <ele>273.893574</ele>
        <time>2020-08-10T10:36:56.736Z</time>
      </trkpt>
      <trkpt lat="64.22991" lon="10.86235">
        <ele>274.258214</ele>
        <time>2020-08-10T10:36:59.758Z</time>
      </trkpt>
      <trkpt lat="64.22991" lon="10.86262">
        <ele>274.587353</ele>
        <time>2020-08-10T10:37:02.758Z</time>
      </trkpt>
      <trkpt lat="64.22992" lon="10.86287">
        <ele>274.880627</ele>
        <time>2020-08-10T10:37:05.742Z</time>
      </trkpt>
      <trkpt lat="64.22994" lon="10.86311">
        <ele>275.175606</ele>
        <time>2020-08-10T10:37:09.757Z</time>
      </trkpt>
      <trkpt lat="64.22994" lon="10.86333">
        <ele>275.440448</ele>
        <time>2020-08-10T10:37:14.760Z</time>
      </trkpt>
      <trkpt lat="64.22995" lon="10.86354">
        <ele>275.691079</ele>
        <time>2020-08-10T10:37:19.743Z</time>
      </trkpt>
      <trkpt lat="64.22995" lon="10.86375">
        <ele>275.946367</ele>
        <time>2020-08-10T10:37:24.755Z</time>
      </trkpt>
      <trkpt lat="64.22994" lon="10.86396">
        <ele>276.196311</ele>
        <time>2020-08-10T10:37:29.738Z</time>
      </trkpt>
      <trkpt lat="64.22996" lon="10.8642">
        <ele>276.468104</ele>
        <time>2020-08-10T10:37:35.762Z</time>
      </trkpt>
      <trkpt lat="64.22997" lon="10.86442">
        <ele>276.605599</ele>
        <time>2020-08-10T10:37:41.732Z</time>
      </trkpt>
      <trkpt lat="64.22998" lon="10.86465">
        <ele>276.743193</ele>
        <time>2020-08-10T10:37:47.747Z</time>
      </trkpt>
      <trkpt lat="64.22997" lon="10.86489">
        <ele>276.885351</ele>
        <time>2020-08-10T10:37:53.743Z</time>
      </trkpt>
      <trkpt lat="64.22999" lon="10.86512">
        <ele>277.026143</ele>
        <time>2020-08-10T10:38:00.726Z</time>
      </trkpt>
      <trkpt lat="64.22999" lon="10.86536">
        <ele>277.166503</ele>
        <time>2020-08-10T10:38:07.751Z</time>
      </trkpt>
      <trkpt lat="64.23" lon="10.86558">
        <ele>277.299233</ele>
        <time>2020-08-10T10:38:13.760Z</time>
      </trkpt>
      <trkpt lat="64.23" lon="10.86582">
        <ele>277.443108</ele>
        <time>2020-08-10T10:38:19.739Z</time>
      </trkpt>
      <trkpt lat="64.23001" lon="10.86604">
        <ele>277.576775</ele>
        <time>2020-08-10T10:38:24.738Z</time>
      </trkpt>
      <trkpt lat="64.23002" lon="10.86627">
        <ele>277.716652</ele>
        <time>2020-08-10T10:38:28.764Z</time>
      </trkpt>
      <trkpt lat="64.23003" lon="10.86651">
        <ele>277.859966</ele>
        <time>2020-08-10T10:38:31.744Z</time>
      </trkpt>
      <trkpt lat="64.23004" lon="10.86682">
        <ele>278.045683</ele>
        <time>2020-08-10T10:38:34.759Z</time>
      </trkpt>
      <trkpt lat="64.23006" lon="10.86707">
        <ele>278.199141</ele>
        <time>2020-08-10T10:38:36.744Z</time>
      </trkpt>
      <trkpt lat="64.23008" lon="10.86737">
        <ele>278.384446</ele>
        <time>2020-08-10T10:38:38.757Z</time>
      </trkpt>
      <trkpt lat="64.23011" lon="10.86772">
        <ele>278.595011</ele>
        <time>2020-08-10T10:38:40.723Z</time>
      </trkpt>
      <trkpt lat="64.23015" lon="10.8681">
        <ele>278.828853</ele>
        <time>2020-08-10T10:38:42.756Z</time>
      </trkpt>
      <trkpt lat="64.23018" lon="10.8683">
        <ele>278.889925</ele>
        <time>2020-08-10T10:38:43.744Z</time>
      </trkpt>
      <trkpt lat="64.2302" lon="10.8685">
        <ele>278.655237</ele>
        <time>2020-08-10T10:38:44.773Z</time>
      </trkpt>
      <trkpt lat="64.23023" lon="10.86871">
        <ele>278.419505</ele>
        <time>2020-08-10T10:38:45.732Z</time>
      </trkpt>
      <trkpt lat="64.23026" lon="10.86892">
        <ele>278.182729</ele>
        <time>2020-08-10T10:38:46.738Z</time>
      </trkpt>
      <trkpt lat="64.23029" lon="10.86912">
        <ele>277.951466</ele>
        <time>2020-08-10T10:38:47.730Z</time>
      </trkpt>
      <trkpt lat="64.23035" lon="10.86949">
        <ele>277.516777</ele>
        <time>2020-08-10T10:38:49.778Z</time>
      </trkpt>
      <trkpt lat="64.2304" lon="10.86982">
        <ele>277.131282</ele>
        <time>2020-08-10T10:38:51.741Z</time>
      </trkpt>
      <trkpt lat="64.23046" lon="10.87011">
        <ele>276.794172</ele>
        <time>2020-08-10T10:38:53.767Z</time>
      </trkpt>
      <trkpt lat="64.2305" lon="10.87036">
        <ele>276.500813</ele>
        <time>2020-08-10T10:38:55.758Z</time>
      </trkpt>
      <trkpt lat="64.23054" lon="10.87058">
        <ele>276.232702</ele>
        <time>2020-08-10T10:38:57.748Z</time>
      </trkpt>
      <trkpt lat="64.23059" lon="10.87081">
        <ele>275.957861</ele>
        <time>2020-08-10T10:38:59.754Z</time>
      </trkpt>
      <trkpt lat="64.23063" lon="10.87105">
        <ele>275.673276</ele>
        <time>2020-08-10T10:39:01.744Z</time>
      </trkpt>
      <trkpt lat="64.23067" lon="10.8713">
        <ele>275.385909</ele>
        <time>2020-08-10T10:39:03.730Z</time>
      </trkpt>
      <trkpt lat="64.23071" lon="10.87154">
        <ele>275.099561</ele>
        <time>2020-08-10T10:39:05.737Z</time>
      </trkpt>
      <trkpt lat="64.23075" lon="10.87179">
        <ele>274.81357</ele>
        <time>2020-08-10T10:39:07.738Z</time>
      </trkpt>
      <trkpt lat="64.23079" lon="10.87207">
        <ele>274.501025</ele>
        <time>2020-08-10T10:39:09.764Z</time>
      </trkpt>
      <trkpt lat="64.23081" lon="10.87234">
        <ele>274.653586</ele>
        <time>2020-08-10T10:39:11.732Z</time>
      </trkpt>
      <trkpt lat="64.23083" lon="10.87264">
        <ele>274.980984</ele>
        <time>2020-08-10T10:39:13.738Z</time>
      </trkpt>
      <trkpt lat="64.23085" lon="10.87293">
        <ele>275.306601</ele>
        <time>2020-08-10T10:39:15.734Z</time>
      </trkpt>
      <trkpt lat="64.23085" lon="10.87322">
        <ele>275.631906</ele>
        <time>2020-08-10T10:39:17.739Z</time>
      </trkpt>
      <trkpt lat="64.23084" lon="10.87351">
        <ele>275.953745</ele>
        <time>2020-08-10T10:39:19.738Z</time>
      </trkpt>
      <trkpt lat="64.23082" lon="10.87378">
        <ele>276.262859</ele>
        <time>2020-08-10T10:39:21.754Z</time>
      </trkpt>
      <trkpt lat="64.2308" lon="10.87402">
        <ele>276.530279</ele>
        <time>2020-08-10T10:39:23.737Z</time>
      </trkpt>
      <trkpt lat="64.23077" lon="10.87429">
        <ele>276.840581</ele>
        <time>2020-08-10T10:39:26.738Z</time>
      </trkpt>
      <trkpt lat="64.23075" lon="10.87453">
        <ele>277.113968</ele>
        <time>2020-08-10T10:39:30.747Z</time>
      </trkpt>
      <trkpt lat="64.23072" lon="10.87475">
        <ele>277.366482</ele>
        <time>2020-08-10T10:39:36.748Z</time>
      </trkpt>
      <trkpt lat="64.23067" lon="10.87496">
        <ele>277.627272</ele>
        <time>2020-08-10T10:39:43.742Z</time>
      </trkpt>
      <trkpt lat="64.23065" lon="10.87516">
        <ele>277.856884</ele>
        <time>2020-08-10T10:39:50.747Z</time>
      </trkpt>
      <trkpt lat="64.23061" lon="10.87535">
        <ele>278.088007</ele>
        <time>2020-08-10T10:39:57.724Z</time>
      </trkpt>
      <trkpt lat="64.23058" lon="10.87556">
        <ele>278.335509</ele>
        <time>2020-08-10T10:40:04.722Z</time>
      </trkpt>
      <trkpt lat="64.23055" lon="10.87577">
        <ele>278.581708</ele>
        <time>2020-08-10T10:40:11.735Z</time>
      </trkpt>
      <trkpt lat="64.23053" lon="10.87599">
        <ele>278.827826</ele>
        <time>2020-08-10T10:40:18.778Z</time>
      </trkpt>
      <trkpt lat="64.23051" lon="10.87619">
        <ele>279.015526</ele>
        <time>2020-08-10T10:40:24.759Z</time>
      </trkpt>
      <trkpt lat="64.23048" lon="10.87641">
        <ele>279.032969</ele>
        <time>2020-08-10T10:40:30.755Z</time>
      </trkpt>
      <trkpt lat="64.23044" lon="10.87663">
        <ele>279.050905</ele>
        <time>2020-08-10T10:40:35.757Z</time>
      </trkpt>
      <trkpt lat="64.2304" lon="10.87686">
        <ele>279.070454</ele>
        <time>2020-08-10T10:40:39.770Z</time>
      </trkpt>
      <trkpt lat="64.23037" lon="10.8771">
        <ele>279.089338</ele>
        <time>2020-08-10T10:40:42.742Z</time>
      </trkpt>
      <trkpt lat="64.23034" lon="10.8774">
        <ele>279.113197</ele>
        <time>2020-08-10T10:40:45.750Z</time>
      </trkpt>
      <trkpt lat="64.23031" lon="10.87765">
        <ele>279.132535</ele>
        <time>2020-08-10T10:40:47.741Z</time>
      </trkpt>
      <trkpt lat="64.23028" lon="10.87793">
        <ele>279.154576</ele>
        <time>2020-08-10T10:40:49.740Z</time>
      </trkpt>
      <trkpt lat="64.23025" lon="10.87826">
        <ele>279.180328</ele>
        <time>2020-08-10T10:40:51.761Z</time>
      </trkpt>
      <trkpt lat="64.23022" lon="10.87863">
        <ele>279.209259</ele>
        <time>2020-08-10T10:40:53.747Z</time>
      </trkpt>
      <trkpt lat="64.2302" lon="10.87902">
        <ele>279.239095</ele>
        <time>2020-08-10T10:40:55.738Z</time>
      </trkpt>
      <trkpt lat="64.23018" lon="10.87942">
        <ele>279.269623</ele>
        <time>2020-08-10T10:40:57.736Z</time>
      </trkpt>
      <trkpt lat="64.23017" lon="10.87962">
        <ele>279.285325</ele>
        <time>2020-08-10T10:40:58.746Z</time>
      </trkpt>
      <trkpt lat="64.23015" lon="10.88001">
        <ele>279.315171</ele>
        <time>2020-08-10T10:41:00.723Z</time>
      </trkpt>
      <trkpt lat="64.23014" lon="10.88034">
        <ele>279.346879</ele>
        <time>2020-08-10T10:41:02.730Z</time>
      </trkpt>
      <trkpt lat="64.23012" lon="10.88061">
        <ele>279.376275</ele>
        <time>2020-08-10T10:41:04.739Z</time>
      </trkpt>
      <trkpt lat="64.23012" lon="10.88088">
        <ele>279.406706</ele>
        <time>2020-08-10T10:41:07.726Z</time>
      </trkpt>
      <trkpt lat="64.23012" lon="10.88109">
        <ele>279.430203</ele>
        <time>2020-08-10T10:41:10.744Z</time>
      </trkpt>
      <trkpt lat="64.23013" lon="10.88131">
        <ele>279.455589</ele>
        <time>2020-08-10T10:41:14.737Z</time>
      </trkpt>
      <trkpt lat="64.23014" lon="10.88157">
        <ele>279.483815</ele>
        <time>2020-08-10T10:41:19.744Z</time>
      </trkpt>
      <trkpt lat="64.23014" lon="10.88178">
        <ele>279.507804</ele>
        <time>2020-08-10T10:41:23.742Z</time>
      </trkpt>
      <trkpt lat="64.23016" lon="10.882">
        <ele>279.532733</ele>
        <time>2020-08-10T10:41:27.726Z</time>
      </trkpt>
      <trkpt lat="64.23017" lon="10.88221">
        <ele>279.556665</ele>
        <time>2020-08-10T10:41:31.741Z</time>
      </trkpt>
      <trkpt lat="64.23018" lon="10.88242">
        <ele>279.580524</ele>
        <time>2020-08-10T10:41:35.740Z</time>
      </trkpt>
      <trkpt lat="64.2302" lon="10.88265">
        <ele>279.606364</ele>
        <time>2020-08-10T10:41:39.744Z</time>
      </trkpt>
      <trkpt lat="64.23022" lon="10.88291">
        <ele>279.63576</ele>
        <time>2020-08-10T10:41:43.737Z</time>
      </trkpt>
      <trkpt lat="64.23023" lon="10.88318">
        <ele>279.665777</ele>
        <time>2020-08-10T10:41:47.787Z</time>
      </trkpt>
      <trkpt lat="64.23025" lon="10.88344">
        <ele>279.695979</ele>
        <time>2020-08-10T10:41:51.740Z</time>
      </trkpt>
      <trkpt lat="64.23027" lon="10.88366">
        <ele>279.720066</ele>
        <time>2020-08-10T10:41:54.731Z</time>
      </trkpt>
      <trkpt lat="64.23029" lon="10.88387">
        <ele>279.744153</ele>
        <time>2020-08-10T10:41:57.752Z</time>
      </trkpt>
      <trkpt lat="64.23031" lon="10.88407">
        <ele>279.767764</ele>
        <time>2020-08-10T10:42:00.769Z</time>
      </trkpt>
      <trkpt lat="64.23034" lon="10.88429">
        <ele>279.792851</ele>
        <time>2020-08-10T10:42:03.730Z</time>
      </trkpt>
      <trkpt lat="64.23037" lon="10.88451">
        <ele>279.812347</ele>
        <time>2020-08-10T10:42:06.729Z</time>
      </trkpt>
      <trkpt lat="64.23039" lon="10.88474">
        <ele>279.831753</ele>
        <time>2020-08-10T10:42:09.730Z</time>
      </trkpt>
      <trkpt lat="64.23043" lon="10.885">
        <ele>279.854829</ele>
        <time>2020-08-10T10:42:12.730Z</time>
      </trkpt>
      <trkpt lat="64.23046" lon="10.88521">
        <ele>279.873227</ele>
        <time>2020-08-10T10:42:14.747Z</time>
      </trkpt>
      <trkpt lat="64.2305" lon="10.88545">
        <ele>279.895118</ele>
        <time>2020-08-10T10:42:16.736Z</time>
      </trkpt>
      <trkpt lat="64.23054" lon="10.88572">
        <ele>279.918326</ele>
        <time>2020-08-10T10:42:18.743Z</time>
      </trkpt>
      <trkpt lat="64.23058" lon="10.88601">
        <ele>279.944113</ele>
        <time>2020-08-10T10:42:20.749Z</time>
      </trkpt>
      <trkpt lat="64.23063" lon="10.88632">
        <ele>279.972345</ele>
        <time>2020-08-10T10:42:22.778Z</time>
      </trkpt>
      <trkpt lat="64.23068" lon="10.88664">
        <ele>280.001173</ele>
        <time>2020-08-10T10:42:24.727Z</time>
      </trkpt>
      <trkpt lat="64.23073" lon="10.88696">
        <ele>280.029406</ele>
        <time>2020-08-10T10:42:26.778Z</time>
      </trkpt>
      <trkpt lat="64.23077" lon="10.88725">
        <ele>280.054909</ele>
        <time>2020-08-10T10:42:28.730Z</time>
      </trkpt>
      <trkpt lat="64.23081" lon="10.88749">
        <ele>280.076748</ele>
        <time>2020-08-10T10:42:30.762Z</time>
      </trkpt>
      <trkpt lat="64.23085" lon="10.88776">
        <ele>280.100137</ele>
        <time>2020-08-10T10:42:33.726Z</time>
      </trkpt>
      <trkpt lat="64.23088" lon="10.88798">
        <ele>280.119952</ele>
        <time>2020-08-10T10:42:37.772Z</time>
      </trkpt>
      <trkpt lat="64.23092" lon="10.88819">
        <ele>280.145988</ele>
        <time>2020-08-10T10:42:42.723Z</time>
      </trkpt>
      <trkpt lat="64.23095" lon="10.88842">
        <ele>280.381169</ele>
        <time>2020-08-10T10:42:48.753Z</time>
      </trkpt>
      <trkpt lat="64.23099" lon="10.88864">
        <ele>280.610149</ele>
        <time>2020-08-10T10:42:54.733Z</time>
      </trkpt>
      <trkpt lat="64.23103" lon="10.88886">
        <ele>280.832424</ele>
        <time>2020-08-10T10:43:00.739Z</time>
      </trkpt>
      <trkpt lat="64.23106" lon="10.88908">
        <ele>281.04897</ele>
        <time>2020-08-10T10:43:06.728Z</time>
      </trkpt>
      <trkpt lat="64.23108" lon="10.88929">
        <ele>281.251904</ele>
        <time>2020-08-10T10:43:11.736Z</time>
      </trkpt>
      <trkpt lat="64.2311" lon="10.88949">
        <ele>281.452971</ele>
        <time>2020-08-10T10:43:16.724Z</time>
      </trkpt>
      <trkpt lat="64.23113" lon="10.88971">
        <ele>281.673833</ele>
        <time>2020-08-10T10:43:22.762Z</time>
      </trkpt>
      <trkpt lat="64.23117" lon="10.88992">
        <ele>281.891394</ele>
        <time>2020-08-10T10:43:28.753Z</time>
      </trkpt>
      <trkpt lat="64.23121" lon="10.89015">
        <ele>282.122472</ele>
        <time>2020-08-10T10:43:34.746Z</time>
      </trkpt>
      <trkpt lat="64.23124" lon="10.89038">
        <ele>282.355182</ele>
        <time>2020-08-10T10:43:40.754Z</time>
      </trkpt>
      <trkpt lat="64.23127" lon="10.89061">
        <ele>282.580301</ele>
        <time>2020-08-10T10:43:45.747Z</time>
      </trkpt>
      <trkpt lat="64.2313" lon="10.89081">
        <ele>282.783469</ele>
        <time>2020-08-10T10:43:49.735Z</time>
      </trkpt>
      <trkpt lat="64.23133" lon="10.891">
        <ele>282.980004</ele>
        <time>2020-08-10T10:43:52.748Z</time>
      </trkpt>
      <trkpt lat="64.23137" lon="10.89125">
        <ele>283.227267</ele>
        <time>2020-08-10T10:43:55.735Z</time>
      </trkpt>
      <trkpt lat="64.23141" lon="10.89152">
        <ele>283.496857</ele>
        <time>2020-08-10T10:43:58.743Z</time>
      </trkpt>
      <trkpt lat="64.23145" lon="10.89181">
        <ele>283.790185</ele>
        <time>2020-08-10T10:44:01.759Z</time>
      </trkpt>
      <trkpt lat="64.23149" lon="10.8921">
        <ele>284.076867</ele>
        <time>2020-08-10T10:44:04.726Z</time>
      </trkpt>
      <trkpt lat="64.23153" lon="10.89231">
        <ele>283.954759</ele>
        <time>2020-08-10T10:44:06.731Z</time>
      </trkpt>
      <trkpt lat="64.23157" lon="10.89253">
        <ele>283.828719</ele>
        <time>2020-08-10T10:44:08.758Z</time>
      </trkpt>
      <trkpt lat="64.23161" lon="10.89276">
        <ele>283.698177</ele>
        <time>2020-08-10T10:44:10.733Z</time>
      </trkpt>
      <trkpt lat="64.23165" lon="10.89298">
        <ele>283.57263</ele>
        <time>2020-08-10T10:44:12.728Z</time>
      </trkpt>
      <trkpt lat="64.23168" lon="10.89319">
        <ele>283.453113</ele>
        <time>2020-08-10T10:44:14.756Z</time>
      </trkpt>
      <trkpt lat="64.23171" lon="10.89348">
        <ele>283.294066</ele>
        <time>2020-08-10T10:44:17.722Z</time>
      </trkpt>
      <trkpt lat="64.23174" lon="10.89373">
        <ele>283.155751</ele>
        <time>2020-08-10T10:44:20.729Z</time>
      </trkpt>
      <trkpt lat="64.23177" lon="10.89397">
        <ele>283.022331</ele>
        <time>2020-08-10T10:44:23.730Z</time>
      </trkpt>
      <trkpt lat="64.23181" lon="10.89421">
        <ele>282.887301</ele>
        <time>2020-08-10T10:44:26.757Z</time>
      </trkpt>
      <trkpt lat="64.23186" lon="10.89447">
        <ele>282.736355</ele>
        <time>2020-08-10T10:44:29.738Z</time>
      </trkpt>
      <trkpt lat="64.23189" lon="10.89466">
        <ele>282.624354</ele>
        <time>2020-08-10T10:44:31.753Z</time>
      </trkpt>
      <trkpt lat="64.23192" lon="10.89488">
        <ele>282.503327</ele>
        <time>2020-08-10T10:44:33.740Z</time>
      </trkpt>
      <trkpt lat="64.23196" lon="10.89511">
        <ele>282.372289</ele>
        <time>2020-08-10T10:44:35.746Z</time>
      </trkpt>
      <trkpt lat="64.232" lon="10.89535">
        <ele>282.235567</ele>
        <time>2020-08-10T10:44:37.783Z</time>
      </trkpt>
      <trkpt lat="64.23204" lon="10.89561">
        <ele>282.088962</ele>
        <time>2020-08-10T10:44:39.757Z</time>
      </trkpt>
      <trkpt lat="64.23209" lon="10.89588">
        <ele>281.936395</ele>
        <time>2020-08-10T10:44:41.721Z</time>
      </trkpt>
      <trkpt lat="64.23212" lon="10.89612">
        <ele>282.017049</ele>
        <time>2020-08-10T10:44:43.746Z</time>
      </trkpt>
      <trkpt lat="64.23215" lon="10.89634">
        <ele>282.240627</ele>
        <time>2020-08-10T10:44:45.742Z</time>
      </trkpt>
      <trkpt lat="64.23219" lon="10.89655">
        <ele>282.450603</ele>
        <time>2020-08-10T10:44:47.738Z</time>
      </trkpt>
      <trkpt lat="64.23222" lon="10.89675">
        <ele>282.652916</ele>
        <time>2020-08-10T10:44:49.750Z</time>
      </trkpt>
      <trkpt lat="64.23226" lon="10.89702">
        <ele>282.929634</ele>
        <time>2020-08-10T10:44:52.761Z</time>
      </trkpt>
      <trkpt lat="64.2323" lon="10.89728">
        <ele>283.194549</ele>
        <time>2020-08-10T10:44:55.734Z</time>
      </trkpt>
      <trkpt lat="64.23234" lon="10.89751">
        <ele>283.431547</ele>
        <time>2020-08-10T10:44:58.742Z</time>
      </trkpt>
      <trkpt lat="64.23237" lon="10.89774">
        <ele>283.661926</ele>
        <time>2020-08-10T10:45:01.747Z</time>
      </trkpt>
      <trkpt lat="64.2324" lon="10.89796">
        <ele>283.881501</ele>
        <time>2020-08-10T10:45:04.734Z</time>
      </trkpt>
      <trkpt lat="64.23242" lon="10.89817">
        <ele>284.098644</ele>
        <time>2020-08-10T10:45:07.745Z</time>
      </trkpt>
      <trkpt lat="64.23246" lon="10.89839">
        <ele>284.312576</ele>
        <time>2020-08-10T10:45:10.758Z</time>
      </trkpt>
      <trkpt lat="64.23249" lon="10.89859">
        <ele>284.527617</ele>
        <time>2020-08-10T10:45:13.731Z</time>
      </trkpt>
      <trkpt lat="64.23253" lon="10.8988">
        <ele>284.742573</ele>
        <time>2020-08-10T10:45:16.762Z</time>
      </trkpt>
      <trkpt lat="64.23256" lon="10.89902">
        <ele>284.96793</ele>
        <time>2020-08-10T10:45:19.779Z</time>
      </trkpt>
      <trkpt lat="64.23259" lon="10.89925">
        <ele>285.199546</ele>
        <time>2020-08-10T10:45:22.764Z</time>
      </trkpt>
      <trkpt lat="64.23262" lon="10.89948">
        <ele>285.428761</ele>
        <time>2020-08-10T10:45:25.747Z</time>
      </trkpt>
      <trkpt lat="64.23266" lon="10.89968">
        <ele>285.634955</ele>
        <time>2020-08-10T10:45:28.744Z</time>
      </trkpt>
      <trkpt lat="64.2327" lon="10.89992">
        <ele>285.89431</ele>
        <time>2020-08-10T10:45:32.750Z</time>
      </trkpt>
      <trkpt lat="64.23273" lon="10.90016">
        <ele>286.253275</ele>
        <time>2020-08-10T10:45:37.725Z</time>
      </trkpt>
      <trkpt lat="64.23275" lon="10.90036">
        <ele>286.556477</ele>
        <time>2020-08-10T10:45:41.737Z</time>
      </trkpt>
      <trkpt lat="64.23278" lon="10.9006">
        <ele>286.8968</ele>
        <time>2020-08-10T10:45:46.734Z</time>
      </trkpt>
      <trkpt lat="64.23281" lon="10.90081">
        <ele>287.217616</ele>
        <time>2020-08-10T10:45:51.726Z</time>
      </trkpt>
      <trkpt lat="64.23285" lon="10.90105">
        <ele>287.571211</ele>
        <time>2020-08-10T10:45:56.746Z</time>
      </trkpt>
      <trkpt lat="64.23287" lon="10.90126">
        <ele>287.890345</ele>
        <time>2020-08-10T10:46:01.758Z</time>
      </trkpt>
      <trkpt lat="64.23291" lon="10.9015">
        <ele>288.246617</ele>
        <time>2020-08-10T10:46:06.761Z</time>
      </trkpt>
      <trkpt lat="64.23294" lon="10.90175">
        <ele>288.614677</ele>
        <time>2020-08-10T10:46:11.738Z</time>
      </trkpt>
      <trkpt lat="64.23297" lon="10.90195">
        <ele>288.91428</ele>
        <time>2020-08-10T10:46:15.736Z</time>
      </trkpt>
      <trkpt lat="64.23301" lon="10.90219">
        <ele>289.280601</ele>
        <time>2020-08-10T10:46:20.728Z</time>
      </trkpt>
      <trkpt lat="64.23304" lon="10.90242">
        <ele>289.623507</ele>
        <time>2020-08-10T10:46:24.734Z</time>
      </trkpt>
      <trkpt lat="64.23308" lon="10.90267">
        <ele>289.998711</ele>
        <time>2020-08-10T10:46:28.744Z</time>
      </trkpt>
      <trkpt lat="64.23313" lon="10.90291">
        <ele>290.376414</ele>
        <time>2020-08-10T10:46:32.726Z</time>
      </trkpt>
      <trkpt lat="64.23318" lon="10.90314">
        <ele>290.751298</ele>
        <time>2020-08-10T10:46:36.768Z</time>
      </trkpt>
      <trkpt lat="64.23323" lon="10.90333">
        <ele>291.066484</ele>
        <time>2020-08-10T10:46:39.736Z</time>
      </trkpt>
      <trkpt lat="64.23329" lon="10.90354">
        <ele>291.411079</ele>
        <time>2020-08-10T10:46:42.736Z</time>
      </trkpt>
      <trkpt lat="64.23334" lon="10.90376">
        <ele>291.621988</ele>
        <time>2020-08-10T10:46:45.733Z</time>
      </trkpt>
      <trkpt lat="64.23341" lon="10.90399">
        <ele>290.937455</ele>
        <time>2020-08-10T10:46:48.731Z</time>
      </trkpt>
      <trkpt lat="64.23348" lon="10.90421">
        <ele>290.220153</ele>
        <time>2020-08-10T10:46:51.736Z</time>
      </trkpt>
      <trkpt lat="64.23357" lon="10.90444">
        <ele>289.463731</ele>
        <time>2020-08-10T10:46:54.746Z</time>
      </trkpt>
      <trkpt lat="64.23363" lon="10.9046">
        <ele>288.917107</ele>
        <time>2020-08-10T10:46:56.743Z</time>
      </trkpt>
      <trkpt lat="64.23369" lon="10.90477">
        <ele>288.355246</ele>
        <time>2020-08-10T10:46:58.738Z</time>
      </trkpt>
      <trkpt lat="64.23376" lon="10.90494">
        <ele>287.768406</ele>
        <time>2020-08-10T10:47:00.736Z</time>
      </trkpt>
      <trkpt lat="64.23383" lon="10.90508">
        <ele>287.213258</ele>
        <time>2020-08-10T10:47:02.738Z</time>
      </trkpt>
      <trkpt lat="64.23391" lon="10.90523">
        <ele>286.597321</ele>
        <time>2020-08-10T10:47:04.725Z</time>
      </trkpt>
      <trkpt lat="64.23401" lon="10.90538">
        <ele>285.923436</ele>
        <time>2020-08-10T10:47:06.772Z</time>
      </trkpt>
      <trkpt lat="64.23411" lon="10.90555">
        <ele>285.164116</ele>
        <time>2020-08-10T10:47:08.724Z</time>
      </trkpt>
      <trkpt lat="64.23423" lon="10.90572">
        <ele>284.338899</ele>
        <time>2020-08-10T10:47:10.751Z</time>
      </trkpt>
      <trkpt lat="64.23436" lon="10.9059">
        <ele>283.459987</ele>
        <time>2020-08-10T10:47:12.749Z</time>
      </trkpt>
      <trkpt lat="64.2345" lon="10.90612">
        <ele>282.487322</ele>
        <time>2020-08-10T10:47:14.744Z</time>
      </trkpt>
      <trkpt lat="64.23464" lon="10.90634">
        <ele>281.492939</ele>
        <time>2020-08-10T10:47:16.744Z</time>
      </trkpt>
      <trkpt lat="64.23477" lon="10.90658">
        <ele>280.728536</ele>
        <time>2020-08-10T10:47:18.736Z</time>
      </trkpt>
      <trkpt lat="64.2349" lon="10.90684">
        <ele>280.070787</ele>
        <time>2020-08-10T10:47:20.726Z</time>
      </trkpt>
      <trkpt lat="64.23502" lon="10.90711">
        <ele>279.437269</ele>
        <time>2020-08-10T10:47:22.738Z</time>
      </trkpt>
      <trkpt lat="64.23514" lon="10.90738">
        <ele>278.804281</ele>
        <time>2020-08-10T10:47:24.751Z</time>
      </trkpt>
      <trkpt lat="64.23525" lon="10.90768">
        <ele>278.158149</ele>
        <time>2020-08-10T10:47:26.749Z</time>
      </trkpt>
      <trkpt lat="64.23535" lon="10.90801">
        <ele>277.479139</ele>
        <time>2020-08-10T10:47:28.725Z</time>
      </trkpt>
      <trkpt lat="64.2354" lon="10.90819">
        <ele>277.131691</ele>
        <time>2020-08-10T10:47:29.745Z</time>
      </trkpt>
      <trkpt lat="64.23545" lon="10.90837">
        <ele>276.775104</ele>
        <time>2020-08-10T10:47:30.758Z</time>
      </trkpt>
      <trkpt lat="64.2355" lon="10.90857">
        <ele>276.405564</ele>
        <time>2020-08-10T10:47:31.725Z</time>
      </trkpt>
      <trkpt lat="64.23554" lon="10.90878">
        <ele>276.021106</ele>
        <time>2020-08-10T10:47:32.776Z</time>
      </trkpt>
      <trkpt lat="64.23559" lon="10.90899">
        <ele>275.620226</ele>
        <time>2020-08-10T10:47:33.778Z</time>
      </trkpt>
      <trkpt lat="64.23564" lon="10.90921">
        <ele>275.218293</ele>
        <time>2020-08-10T10:47:34.738Z</time>
      </trkpt>
      <trkpt lat="64.23568" lon="10.90944">
        <ele>274.80759</ele>
        <time>2020-08-10T10:47:35.743Z</time>
      </trkpt>
      <trkpt lat="64.23572" lon="10.90967">
        <ele>274.398387</ele>
        <time>2020-08-10T10:47:36.747Z</time>
      </trkpt>
      <trkpt lat="64.23576" lon="10.90989">
        <ele>274.422034</ele>
        <time>2020-08-10T10:47:37.742Z</time>
      </trkpt>
      <trkpt lat="64.23579" lon="10.91011">
        <ele>274.520534</ele>
        <time>2020-08-10T10:47:38.769Z</time>
      </trkpt>
      <trkpt lat="64.23582" lon="10.9103">
        <ele>274.610662</ele>
        <time>2020-08-10T10:47:39.736Z</time>
      </trkpt>
      <trkpt lat="64.23587" lon="10.91064">
        <ele>274.766844</ele>
        <time>2020-08-10T10:47:41.759Z</time>
      </trkpt>
      <trkpt lat="64.23592" lon="10.91092">
        <ele>274.895975</ele>
        <time>2020-08-10T10:47:43.747Z</time>
      </trkpt>
      <trkpt lat="64.23595" lon="10.91116">
        <ele>275.007116</ele>
        <time>2020-08-10T10:47:45.720Z</time>
      </trkpt>
      <trkpt lat="64.23599" lon="10.91137">
        <ele>275.105321</ele>
        <time>2020-08-10T10:47:47.738Z</time>
      </trkpt>
      <trkpt lat="64.23602" lon="10.91157">
        <ele>275.198247</ele>
        <time>2020-08-10T10:47:49.729Z</time>
      </trkpt>
      <trkpt lat="64.23607" lon="10.91184">
        <ele>275.323137</ele>
        <time>2020-08-10T10:47:52.759Z</time>
      </trkpt>
      <trkpt lat="64.23611" lon="10.91208">
        <ele>275.435919</ele>
        <time>2020-08-10T10:47:55.757Z</time>
      </trkpt>
      <trkpt lat="64.23614" lon="10.9123">
        <ele>275.537325</ele>
        <time>2020-08-10T10:47:58.755Z</time>
      </trkpt>
      <trkpt lat="64.23617" lon="10.91252">
        <ele>275.638001</ele>
        <time>2020-08-10T10:48:01.730Z</time>
      </trkpt>
      <trkpt lat="64.23621" lon="10.91274">
        <ele>275.739942</ele>
        <time>2020-08-10T10:48:04.742Z</time>
      </trkpt>
      <trkpt lat="64.23624" lon="10.91298">
        <ele>275.848289</ele>
        <time>2020-08-10T10:48:07.734Z</time>
      </trkpt>
      <trkpt lat="64.23627" lon="10.91321">
        <ele>275.951884</ele>
        <time>2020-08-10T10:48:10.727Z</time>
      </trkpt>
      <trkpt lat="64.23631" lon="10.91343">
        <ele>276.054917</ele>
        <time>2020-08-10T10:48:13.794Z</time>
      </trkpt>
      <trkpt lat="64.23634" lon="10.91366">
        <ele>276.12181</ele>
        <time>2020-08-10T10:48:16.726Z</time>
      </trkpt>
      <trkpt lat="64.23638" lon="10.91391">
        <ele>276.073742</ele>
        <time>2020-08-10T10:48:19.753Z</time>
      </trkpt>
      <trkpt lat="64.23642" lon="10.91417">
        <ele>276.021833</ele>
        <time>2020-08-10T10:48:22.734Z</time>
      </trkpt>
      <trkpt lat="64.23645" lon="10.91444">
        <ele>275.96926</ele>
        <time>2020-08-10T10:48:25.721Z</time>
      </trkpt>
      <trkpt lat="64.2365" lon="10.9147">
        <ele>275.916179</ele>
        <time>2020-08-10T10:48:28.758Z</time>
      </trkpt>
      <trkpt lat="64.23655" lon="10.91499">
        <ele>275.860323</ele>
        <time>2020-08-10T10:48:31.766Z</time>
      </trkpt>
      <trkpt lat="64.23658" lon="10.91518">
        <ele>275.821525</ele>
        <time>2020-08-10T10:48:33.741Z</time>
      </trkpt>
      <trkpt lat="64.23661" lon="10.91538">
        <ele>275.78175</ele>
        <time>2020-08-10T10:48:35.787Z</time>
      </trkpt>
      <trkpt lat="64.23665" lon="10.91557">
        <ele>275.742676</ele>
        <time>2020-08-10T10:48:37.726Z</time>
      </trkpt>
      <trkpt lat="64.23668" lon="10.91577">
        <ele>275.70342</ele>
        <time>2020-08-10T10:48:39.727Z</time>
      </trkpt>
      <trkpt lat="64.23672" lon="10.91596">
        <ele>275.66484</ele>
        <time>2020-08-10T10:48:41.741Z</time>
      </trkpt>
      <trkpt lat="64.23675" lon="10.91615">
        <ele>275.62593</ele>
        <time>2020-08-10T10:48:43.765Z</time>
      </trkpt>
      <trkpt lat="64.23678" lon="10.91635">
        <ele>275.587331</ele>
        <time>2020-08-10T10:48:45.752Z</time>
      </trkpt>
      <trkpt lat="64.23682" lon="10.91654">
        <ele>275.548752</ele>
        <time>2020-08-10T10:48:47.749Z</time>
      </trkpt>
      <trkpt lat="64.23686" lon="10.91683">
        <ele>275.49174</ele>
        <time>2020-08-10T10:48:50.728Z</time>
      </trkpt>
      <trkpt lat="64.23689" lon="10.91703">
        <ele>275.45256</ele>
        <time>2020-08-10T10:48:52.740Z</time>
      </trkpt>
      <trkpt lat="64.23693" lon="10.91723">
        <ele>275.412184</ele>
        <time>2020-08-10T10:48:54.745Z</time>
      </trkpt>
      <trkpt lat="64.23696" lon="10.91744">
        <ele>275.371141</ele>
        <time>2020-08-10T10:48:56.730Z</time>
      </trkpt>
      <trkpt lat="64.23699" lon="10.91765">
        <ele>275.257555</ele>
        <time>2020-08-10T10:48:58.727Z</time>
      </trkpt>
      <trkpt lat="64.23702" lon="10.91784">
        <ele>275.13233</ele>
        <time>2020-08-10T10:49:00.755Z</time>
      </trkpt>
      <trkpt lat="64.23704" lon="10.91804">
        <ele>275.006982</ele>
        <time>2020-08-10T10:49:02.756Z</time>
      </trkpt>
      <trkpt lat="64.23708" lon="10.91826">
        <ele>274.873663</ele>
        <time>2020-08-10T10:49:04.749Z</time>
      </trkpt>
      <trkpt lat="64.23711" lon="10.91847">
        <ele>274.736683</ele>
        <time>2020-08-10T10:49:06.747Z</time>
      </trkpt>
      <trkpt lat="64.23715" lon="10.9187">
        <ele>274.591434</ele>
        <time>2020-08-10T10:49:08.734Z</time>
      </trkpt>
      <trkpt lat="64.23719" lon="10.91895">
        <ele>274.434725</ele>
        <time>2020-08-10T10:49:10.735Z</time>
      </trkpt>
      <trkpt lat="64.23723" lon="10.91922">
        <ele>274.264325</ele>
        <time>2020-08-10T10:49:12.741Z</time>
      </trkpt>
      <trkpt lat="64.23728" lon="10.9195">
        <ele>274.087212</ele>
        <time>2020-08-10T10:49:14.741Z</time>
      </trkpt>
      <trkpt lat="64.23732" lon="10.9198">
        <ele>273.897239</ele>
        <time>2020-08-10T10:49:16.746Z</time>
      </trkpt>
      <trkpt lat="64.23735" lon="10.92013">
        <ele>273.700873</ele>
        <time>2020-08-10T10:49:18.793Z</time>
      </trkpt>
      <trkpt lat="64.23736" lon="10.92045">
        <ele>273.505976</ele>
        <time>2020-08-10T10:49:20.726Z</time>
      </trkpt>
      <trkpt lat="64.23736" lon="10.92078">
        <ele>273.312157</ele>
        <time>2020-08-10T10:49:22.757Z</time>
      </trkpt>
      <trkpt lat="64.23736" lon="10.9211">
        <ele>273.119358</ele>
        <time>2020-08-10T10:49:24.726Z</time>
      </trkpt>
      <trkpt lat="64.23735" lon="10.9214">
        <ele>272.939292</ele>
        <time>2020-08-10T10:49:26.733Z</time>
      </trkpt>
      <trkpt lat="64.23732" lon="10.92169">
        <ele>272.843362</ele>
        <time>2020-08-10T10:49:28.727Z</time>
      </trkpt>
      <trkpt lat="64.2373" lon="10.92196">
        <ele>272.772609</ele>
        <time>2020-08-10T10:49:30.762Z</time>
      </trkpt>
      <trkpt lat="64.23727" lon="10.9222">
        <ele>272.706615</ele>
        <time>2020-08-10T10:49:32.776Z</time>
      </trkpt>
      <trkpt lat="64.23723" lon="10.92243">
        <ele>272.644009</ele>
        <time>2020-08-10T10:49:34.742Z</time>
      </trkpt>
      <trkpt lat="64.2372" lon="10.92265">
        <ele>272.585605</ele>
        <time>2020-08-10T10:49:36.735Z</time>
      </trkpt>
      <trkpt lat="64.23717" lon="10.92285">
        <ele>272.528275</ele>
        <time>2020-08-10T10:49:38.764Z</time>
      </trkpt>
      <trkpt lat="64.23714" lon="10.92306">
        <ele>272.473557</ele>
        <time>2020-08-10T10:49:40.727Z</time>
      </trkpt>
      <trkpt lat="64.23711" lon="10.92325">
        <ele>272.419893</ele>
        <time>2020-08-10T10:49:42.759Z</time>
      </trkpt>
      <trkpt lat="64.23707" lon="10.92354">
        <ele>272.342272</ele>
        <time>2020-08-10T10:49:45.731Z</time>
      </trkpt>
      <trkpt lat="64.23703" lon="10.92383">
        <ele>272.262575</ele>
        <time>2020-08-10T10:49:48.764Z</time>
      </trkpt>
      <trkpt lat="64.23699" lon="10.92412">
        <ele>272.182878</ele>
        <time>2020-08-10T10:49:51.732Z</time>
      </trkpt>
      <trkpt lat="64.23695" lon="10.92441">
        <ele>272.104206</ele>
        <time>2020-08-10T10:49:54.776Z</time>
      </trkpt>
      <trkpt lat="64.23692" lon="10.92461">
        <ele>272.049754</ele>
        <time>2020-08-10T10:49:56.728Z</time>
      </trkpt>
      <trkpt lat="64.23689" lon="10.92482">
        <ele>271.993011</ele>
        <time>2020-08-10T10:49:58.780Z</time>
      </trkpt>
      <trkpt lat="64.23686" lon="10.92503">
        <ele>271.934651</ele>
        <time>2020-08-10T10:50:00.738Z</time>
      </trkpt>
      <trkpt lat="64.23683" lon="10.92525">
        <ele>271.875445</ele>
        <time>2020-08-10T10:50:02.747Z</time>
      </trkpt>
      <trkpt lat="64.2368" lon="10.92547">
        <ele>271.887414</ele>
        <time>2020-08-10T10:50:04.718Z</time>
      </trkpt>
      <trkpt lat="64.23678" lon="10.92567">
        <ele>272.089259</ele>
        <time>2020-08-10T10:50:06.736Z</time>
      </trkpt>
      <trkpt lat="64.23674" lon="10.92594">
        <ele>272.365153</ele>
        <time>2020-08-10T10:50:09.750Z</time>
      </trkpt>
      <trkpt lat="64.2367" lon="10.92619">
        <ele>272.616854</ele>
        <time>2020-08-10T10:50:12.747Z</time>
      </trkpt>
      <trkpt lat="64.23666" lon="10.92644">
        <ele>272.861919</ele>
        <time>2020-08-10T10:50:15.764Z</time>
      </trkpt>
      <trkpt lat="64.23663" lon="10.92666">
        <ele>273.089769</ele>
        <time>2020-08-10T10:50:18.743Z</time>
      </trkpt>
      <trkpt lat="64.2366" lon="10.92688">
        <ele>273.307211</ele>
        <time>2020-08-10T10:50:21.728Z</time>
      </trkpt>
      <trkpt lat="64.23658" lon="10.92709">
        <ele>273.516715</ele>
        <time>2020-08-10T10:50:24.750Z</time>
      </trkpt>
      <trkpt lat="64.23654" lon="10.92735">
        <ele>273.774026</ele>
        <time>2020-08-10T10:50:28.735Z</time>
      </trkpt>
      <trkpt lat="64.2365" lon="10.92759">
        <ele>274.013664</ele>
        <time>2020-08-10T10:50:32.768Z</time>
      </trkpt>
      <trkpt lat="64.23647" lon="10.92783">
        <ele>274.25919</ele>
        <time>2020-08-10T10:50:36.737Z</time>
      </trkpt>
      <trkpt lat="64.23645" lon="10.92809">
        <ele>274.512818</ele>
        <time>2020-08-10T10:50:40.730Z</time>
      </trkpt>
      <trkpt lat="64.2364" lon="10.92834">
        <ele>274.764105</ele>
        <time>2020-08-10T10:50:44.753Z</time>
      </trkpt>
      <trkpt lat="64.23636" lon="10.92858">
        <ele>275.006593</ele>
        <time>2020-08-10T10:50:48.728Z</time>
      </trkpt>
      <trkpt lat="64.23633" lon="10.92883">
        <ele>275.258689</ele>
        <time>2020-08-10T10:50:52.729Z</time>
      </trkpt>
      <trkpt lat="64.23629" lon="10.92908">
        <ele>275.512194</ele>
        <time>2020-08-10T10:50:56.749Z</time>
      </trkpt>
      <trkpt lat="64.23626" lon="10.92929">
        <ele>275.721445</ele>
        <time>2020-08-10T10:50:59.736Z</time>
      </trkpt>
      <trkpt lat="64.23623" lon="10.9295">
        <ele>275.720103</ele>
        <time>2020-08-10T10:51:02.723Z</time>
      </trkpt>
      <trkpt lat="64.23619" lon="10.92972">
        <ele>275.635591</ele>
        <time>2020-08-10T10:51:05.748Z</time>
      </trkpt>
      <trkpt lat="64.23616" lon="10.92995">
        <ele>275.547143</ele>
        <time>2020-08-10T10:51:08.741Z</time>
      </trkpt>
      <trkpt lat="64.23611" lon="10.93019">
        <ele>275.453145</ele>
        <time>2020-08-10T10:51:11.776Z</time>
      </trkpt>
      <trkpt lat="64.23606" lon="10.93045">
        <ele>275.351287</ele>
        <time>2020-08-10T10:51:14.744Z</time>
      </trkpt>
      <trkpt lat="64.236" lon="10.93073">
        <ele>275.239217</ele>
        <time>2020-08-10T10:51:17.727Z</time>
      </trkpt>
      <trkpt lat="64.23596" lon="10.93093">
        <ele>275.160344</ele>
        <time>2020-08-10T10:51:19.740Z</time>
      </trkpt>
      <trkpt lat="64.23592" lon="10.93114">
        <ele>275.078065</ele>
        <time>2020-08-10T10:51:21.754Z</time>
      </trkpt>
      <trkpt lat="64.23586" lon="10.93136">
        <ele>274.988662</ele>
        <time>2020-08-10T10:51:23.726Z</time>
      </trkpt>
      <trkpt lat="64.23581" lon="10.93159">
        <ele>274.895838</ele>
        <time>2020-08-10T10:51:25.727Z</time>
      </trkpt>
      <trkpt lat="64.23576" lon="10.93182">
        <ele>274.801305</ele>
        <time>2020-08-10T10:51:27.753Z</time>
      </trkpt>
      <trkpt lat="64.2357" lon="10.93206">
        <ele>274.704736</ele>
        <time>2020-08-10T10:51:29.727Z</time>
      </trkpt>
      <trkpt lat="64.23565" lon="10.9323">
        <ele>274.607011</ele>
        <time>2020-08-10T10:51:31.760Z</time>
      </trkpt>
      <trkpt lat="64.2356" lon="10.93256">
        <ele>274.505613</ele>
        <time>2020-08-10T10:51:33.759Z</time>
      </trkpt>
      <trkpt lat="64.23554" lon="10.93281">
        <ele>274.403344</ele>
        <time>2020-08-10T10:51:35.738Z</time>
      </trkpt>
      <trkpt lat="64.23549" lon="10.93307">
        <ele>274.301998</ele>
        <time>2020-08-10T10:51:37.764Z</time>
      </trkpt>
      <trkpt lat="64.23543" lon="10.93333">
        <ele>273.816704</ele>
        <time>2020-08-10T10:51:39.727Z</time>
      </trkpt>
      <trkpt lat="64.23537" lon="10.9336">
        <ele>273.294683</ele>
        <time>2020-08-10T10:51:41.739Z</time>
      </trkpt>
      <trkpt lat="64.23531" lon="10.93387">
        <ele>272.762937</ele>
        <time>2020-08-10T10:51:43.730Z</time>
      </trkpt>
      <trkpt lat="64.23525" lon="10.93416">
        <ele>272.207862</ele>
        <time>2020-08-10T10:51:45.739Z</time>
      </trkpt>
      <trkpt lat="64.23518" lon="10.93446">
        <ele>271.623887</ele>
        <time>2020-08-10T10:51:47.745Z</time>
      </trkpt>
      <trkpt lat="64.23511" lon="10.93477">
        <ele>271.015132</ele>
        <time>2020-08-10T10:51:49.732Z</time>
      </trkpt>
      <trkpt lat="64.23503" lon="10.9351">
        <ele>270.369678</ele>
        <time>2020-08-10T10:51:51.760Z</time>
      </trkpt>
      <trkpt lat="64.23495" lon="10.93545">
        <ele>269.694686</ele>
        <time>2020-08-10T10:51:53.819Z</time>
      </trkpt>
      <trkpt lat="64.23487" lon="10.93582">
        <ele>268.986427</ele>
        <time>2020-08-10T10:51:55.751Z</time>
      </trkpt>
      <trkpt lat="64.23483" lon="10.93601">
        <ele>268.616723</ele>
        <time>2020-08-10T10:51:56.740Z</time>
      </trkpt>
      <trkpt lat="64.23479" lon="10.93622">
        <ele>268.237606</ele>
        <time>2020-08-10T10:51:57.766Z</time>
      </trkpt>
      <trkpt lat="64.23475" lon="10.93642">
        <ele>267.852112</ele>
        <time>2020-08-10T10:51:58.739Z</time>
      </trkpt>
      <trkpt lat="64.23472" lon="10.93663">
        <ele>267.466349</ele>
        <time>2020-08-10T10:51:59.741Z</time>
      </trkpt>
      <trkpt lat="64.23468" lon="10.93685">
        <ele>267.047523</ele>
        <time>2020-08-10T10:52:00.737Z</time>
      </trkpt>
      <trkpt lat="64.23465" lon="10.93706">
        <ele>266.562057</ele>
        <time>2020-08-10T10:52:01.738Z</time>
      </trkpt>
      <trkpt lat="64.23461" lon="10.93728">
        <ele>266.072684</ele>
        <time>2020-08-10T10:52:02.741Z</time>
      </trkpt>
      <trkpt lat="64.23457" lon="10.93749">
        <ele>265.592655</ele>
        <time>2020-08-10T10:52:03.737Z</time>
      </trkpt>
      <trkpt lat="64.23454" lon="10.9377">
        <ele>265.12415</ele>
        <time>2020-08-10T10:52:04.745Z</time>
      </trkpt>
      <trkpt lat="64.23451" lon="10.93791">
        <ele>264.668465</ele>
        <time>2020-08-10T10:52:05.725Z</time>
      </trkpt>
      <trkpt lat="64.23448" lon="10.93811">
        <ele>264.219851</ele>
        <time>2020-08-10T10:52:06.738Z</time>
      </trkpt>
      <trkpt lat="64.23446" lon="10.93831">
        <ele>263.784963</ele>
        <time>2020-08-10T10:52:07.735Z</time>
      </trkpt>
      <trkpt lat="64.23441" lon="10.93869">
        <ele>262.956186</ele>
        <time>2020-08-10T10:52:09.744Z</time>
      </trkpt>
      <trkpt lat="64.23436" lon="10.93904">
        <ele>262.187112</ele>
        <time>2020-08-10T10:52:11.747Z</time>
      </trkpt>
      <trkpt lat="64.23432" lon="10.93936">
        <ele>261.479266</ele>
        <time>2020-08-10T10:52:13.741Z</time>
      </trkpt>
      <trkpt lat="64.23429" lon="10.93967">
        <ele>260.814548</ele>
        <time>2020-08-10T10:52:15.743Z</time>
      </trkpt>
      <trkpt lat="64.23426" lon="10.93997">
        <ele>260.173283</ele>
        <time>2020-08-10T10:52:17.735Z</time>
      </trkpt>
      <trkpt lat="64.23423" lon="10.94026">
        <ele>259.5455</ele>
        <time>2020-08-10T10:52:19.737Z</time>
      </trkpt>
      <trkpt lat="64.2342" lon="10.94055">
        <ele>258.929858</ele>
        <time>2020-08-10T10:52:21.761Z</time>
      </trkpt>
      <trkpt lat="64.23418" lon="10.94083">
        <ele>258.462684</ele>
        <time>2020-08-10T10:52:23.750Z</time>
      </trkpt>
      <trkpt lat="64.23416" lon="10.94113">
        <ele>258.386266</ele>
        <time>2020-08-10T10:52:25.737Z</time>
      </trkpt>
      <trkpt lat="64.23415" lon="10.94143">
        <ele>258.310258</ele>
        <time>2020-08-10T10:52:27.781Z</time>
      </trkpt>
      <trkpt lat="64.23413" lon="10.94173">
        <ele>258.234517</ele>
        <time>2020-08-10T10:52:29.722Z</time>
      </trkpt>
      <trkpt lat="64.23412" lon="10.94202">
        <ele>258.159783</ele>
        <time>2020-08-10T10:52:31.774Z</time>
      </trkpt>
      <trkpt lat="64.23411" lon="10.94231">
        <ele>258.086921</ele>
        <time>2020-08-10T10:52:33.739Z</time>
      </trkpt>
      <trkpt lat="64.2341" lon="10.94259">
        <ele>258.016212</ele>
        <time>2020-08-10T10:52:35.732Z</time>
      </trkpt>
      <trkpt lat="64.23409" lon="10.94286">
        <ele>257.948487</ele>
        <time>2020-08-10T10:52:37.741Z</time>
      </trkpt>
      <trkpt lat="64.23408" lon="10.9431">
        <ele>257.885745</ele>
        <time>2020-08-10T10:52:39.758Z</time>
      </trkpt>
      <trkpt lat="64.23408" lon="10.94335">
        <ele>257.824157</ele>
        <time>2020-08-10T10:52:41.780Z</time>
      </trkpt>
      <trkpt lat="64.23407" lon="10.94358">
        <ele>257.765919</ele>
        <time>2020-08-10T10:52:43.744Z</time>
      </trkpt>
      <trkpt lat="64.23406" lon="10.94379">
        <ele>257.710985</ele>
        <time>2020-08-10T10:52:45.768Z</time>
      </trkpt>
      <trkpt lat="64.23406" lon="10.94401">
        <ele>257.655744</ele>
        <time>2020-08-10T10:52:47.737Z</time>
      </trkpt>
      <trkpt lat="64.23406" lon="10.94423">
        <ele>257.599599</ele>
        <time>2020-08-10T10:52:49.733Z</time>
      </trkpt>
      <trkpt lat="64.23405" lon="10.94446">
        <ele>257.543177</ele>
        <time>2020-08-10T10:52:51.731Z</time>
      </trkpt>
      <trkpt lat="64.23405" lon="10.94469">
        <ele>257.483565</ele>
        <time>2020-08-10T10:52:53.727Z</time>
      </trkpt>
      <trkpt lat="64.23404" lon="10.94493">
        <ele>257.356521</ele>
        <time>2020-08-10T10:52:55.778Z</time>
      </trkpt>
      <trkpt lat="64.23403" lon="10.9452">
        <ele>256.986577</ele>
        <time>2020-08-10T10:52:57.734Z</time>
      </trkpt>
      <trkpt lat="64.23404" lon="10.94549">
        <ele>256.594631</ele>
        <time>2020-08-10T10:52:59.745Z</time>
      </trkpt>
      <trkpt lat="64.23403" lon="10.94579">
        <ele>256.180103</ele>
        <time>2020-08-10T10:53:01.769Z</time>
      </trkpt>
      <trkpt lat="64.23402" lon="10.94612">
        <ele>255.725889</ele>
        <time>2020-08-10T10:53:03.728Z</time>
      </trkpt>
      <trkpt lat="64.23402" lon="10.94647">
        <ele>255.245567</ele>
        <time>2020-08-10T10:53:05.771Z</time>
      </trkpt>
      <trkpt lat="64.23401" lon="10.94683">
        <ele>254.750402</ele>
        <time>2020-08-10T10:53:07.729Z</time>
      </trkpt>
      <trkpt lat="64.23402" lon="10.9472">
        <ele>254.233286</ele>
        <time>2020-08-10T10:53:09.782Z</time>
      </trkpt>
      <trkpt lat="64.23401" lon="10.9476">
        <ele>253.693974</ele>
        <time>2020-08-10T10:53:11.759Z</time>
      </trkpt>
      <trkpt lat="64.234" lon="10.948">
        <ele>253.131144</ele>
        <time>2020-08-10T10:53:13.758Z</time>
      </trkpt>
      <trkpt lat="64.23398" lon="10.94821">
        <ele>252.845319</ele>
        <time>2020-08-10T10:53:14.741Z</time>
      </trkpt>
      <trkpt lat="64.23396" lon="10.94842">
        <ele>252.551019</ele>
        <time>2020-08-10T10:53:15.789Z</time>
      </trkpt>
      <trkpt lat="64.23394" lon="10.94863">
        <ele>252.253342</ele>
        <time>2020-08-10T10:53:16.760Z</time>
      </trkpt>
      <trkpt lat="64.23392" lon="10.94884">
        <ele>251.948222</ele>
        <time>2020-08-10T10:53:17.749Z</time>
      </trkpt>
      <trkpt lat="64.23389" lon="10.94906">
        <ele>251.52463</ele>
        <time>2020-08-10T10:53:18.742Z</time>
      </trkpt>
      <trkpt lat="64.23385" lon="10.94928">
        <ele>250.885329</ele>
        <time>2020-08-10T10:53:19.760Z</time>
      </trkpt>
      <trkpt lat="64.23381" lon="10.94949">
        <ele>250.249425</ele>
        <time>2020-08-10T10:53:20.758Z</time>
      </trkpt>
      <trkpt lat="64.23377" lon="10.94971">
        <ele>249.603625</ele>
        <time>2020-08-10T10:53:21.738Z</time>
      </trkpt>
      <trkpt lat="64.23373" lon="10.94993">
        <ele>248.944881</ele>
        <time>2020-08-10T10:53:22.757Z</time>
      </trkpt>
      <trkpt lat="64.23368" lon="10.95014">
        <ele>248.268369</ele>
        <time>2020-08-10T10:53:23.758Z</time>
      </trkpt>
      <trkpt lat="64.23362" lon="10.95036">
        <ele>247.583052</ele>
        <time>2020-08-10T10:53:24.766Z</time>
      </trkpt>
      <trkpt lat="64.23356" lon="10.95057">
        <ele>246.881697</ele>
        <time>2020-08-10T10:53:25.735Z</time>
      </trkpt>
      <trkpt lat="64.23348" lon="10.95077">
        <ele>246.161958</ele>
        <time>2020-08-10T10:53:26.740Z</time>
      </trkpt>
      <trkpt lat="64.2334" lon="10.95096">
        <ele>245.418598</ele>
        <time>2020-08-10T10:53:27.759Z</time>
      </trkpt>
      <trkpt lat="64.23331" lon="10.95115">
        <ele>244.664372</ele>
        <time>2020-08-10T10:53:28.731Z</time>
      </trkpt>
      <trkpt lat="64.23323" lon="10.95135">
        <ele>243.904477</ele>
        <time>2020-08-10T10:53:29.741Z</time>
      </trkpt>
      <trkpt lat="64.23314" lon="10.95154">
        <ele>243.132686</ele>
        <time>2020-08-10T10:53:30.730Z</time>
      </trkpt>
      <trkpt lat="64.23305" lon="10.95172">
        <ele>242.361766</ele>
        <time>2020-08-10T10:53:31.735Z</time>
      </trkpt>
      <trkpt lat="64.23295" lon="10.95191">
        <ele>241.565828</ele>
        <time>2020-08-10T10:53:32.755Z</time>
      </trkpt>
      <trkpt lat="64.23285" lon="10.95209">
        <ele>240.758709</ele>
        <time>2020-08-10T10:53:33.765Z</time>
      </trkpt>
      <trkpt lat="64.23275" lon="10.95229">
        <ele>239.992544</ele>
        <time>2020-08-10T10:53:34.751Z</time>
      </trkpt>
      <trkpt lat="64.23265" lon="10.95248">
        <ele>239.259528</ele>
        <time>2020-08-10T10:53:35.736Z</time>
      </trkpt>
      <trkpt lat="64.23255" lon="10.95268">
        <ele>238.51595</ele>
        <time>2020-08-10T10:53:36.743Z</time>
      </trkpt>
      <trkpt lat="64.23245" lon="10.95289">
        <ele>237.765366</ele>
        <time>2020-08-10T10:53:37.734Z</time>
      </trkpt>
      <trkpt lat="64.23235" lon="10.9531">
        <ele>237.01958</ele>
        <time>2020-08-10T10:53:38.737Z</time>
      </trkpt>
      <trkpt lat="64.23226" lon="10.95332">
        <ele>236.274578</ele>
        <time>2020-08-10T10:53:39.758Z</time>
      </trkpt>
      <trkpt lat="64.23218" lon="10.95357">
        <ele>235.537511</ele>
        <time>2020-08-10T10:53:40.748Z</time>
      </trkpt>
      <trkpt lat="64.23211" lon="10.95381">
        <ele>234.811503</ele>
        <time>2020-08-10T10:53:41.756Z</time>
      </trkpt>
      <trkpt lat="64.23205" lon="10.95406">
        <ele>234.113296</ele>
        <time>2020-08-10T10:53:42.728Z</time>
      </trkpt>
      <trkpt lat="64.23199" lon="10.95431">
        <ele>233.430362</ele>
        <time>2020-08-10T10:53:43.720Z</time>
      </trkpt>
      <trkpt lat="64.23193" lon="10.95455">
        <ele>232.778187</ele>
        <time>2020-08-10T10:53:44.761Z</time>
      </trkpt>
      <trkpt lat="64.23189" lon="10.95477">
        <ele>232.164818</ele>
        <time>2020-08-10T10:53:45.735Z</time>
      </trkpt>
      <trkpt lat="64.23184" lon="10.95499">
        <ele>231.585126</ele>
        <time>2020-08-10T10:53:46.743Z</time>
      </trkpt>
      <trkpt lat="64.23181" lon="10.95519">
        <ele>231.045641</ele>
        <time>2020-08-10T10:53:47.769Z</time>
      </trkpt>
      <trkpt lat="64.23177" lon="10.95539">
        <ele>230.532677</ele>
        <time>2020-08-10T10:53:48.748Z</time>
      </trkpt>
      <trkpt lat="64.23171" lon="10.95575">
        <ele>229.815565</ele>
        <time>2020-08-10T10:53:50.747Z</time>
      </trkpt>
      <trkpt lat="64.23165" lon="10.95608">
        <ele>229.212019</ele>
        <time>2020-08-10T10:53:52.735Z</time>
      </trkpt>
      <trkpt lat="64.23159" lon="10.95639">
        <ele>228.636592</ele>
        <time>2020-08-10T10:53:54.735Z</time>
      </trkpt>
      <trkpt lat="64.23154" lon="10.95669">
        <ele>228.083034</ele>
        <time>2020-08-10T10:53:56.727Z</time>
      </trkpt>
      <trkpt lat="64.23149" lon="10.957">
        <ele>227.528312</ele>
        <time>2020-08-10T10:53:58.737Z</time>
      </trkpt>
      <trkpt lat="64.23144" lon="10.9573">
        <ele>226.973087</ele>
        <time>2020-08-10T10:54:00.741Z</time>
      </trkpt>
      <trkpt lat="64.23138" lon="10.9576">
        <ele>226.416182</ele>
        <time>2020-08-10T10:54:02.739Z</time>
      </trkpt>
      <trkpt lat="64.23133" lon="10.9579">
        <ele>225.874651</ele>
        <time>2020-08-10T10:54:04.766Z</time>
      </trkpt>
      <trkpt lat="64.23128" lon="10.95819">
        <ele>225.345445</ele>
        <time>2020-08-10T10:54:06.775Z</time>
      </trkpt>
      <trkpt lat="64.23124" lon="10.95849">
        <ele>224.800541</ele>
        <time>2020-08-10T10:54:08.709Z</time>
      </trkpt>
      <trkpt lat="64.23118" lon="10.9588">
        <ele>224.237156</ele>
        <time>2020-08-10T10:54:10.738Z</time>
      </trkpt>
      <trkpt lat="64.23113" lon="10.95911">
        <ele>223.669011</ele>
        <time>2020-08-10T10:54:12.725Z</time>
      </trkpt>
      <trkpt lat="64.23108" lon="10.95942">
        <ele>223.171229</ele>
        <time>2020-08-10T10:54:14.727Z</time>
      </trkpt>
      <trkpt lat="64.23103" lon="10.95972">
        <ele>222.764668</ele>
        <time>2020-08-10T10:54:16.727Z</time>
      </trkpt>
      <trkpt lat="64.23098" lon="10.96002">
        <ele>222.365954</ele>
        <time>2020-08-10T10:54:18.737Z</time>
      </trkpt>
      <trkpt lat="64.23092" lon="10.96034">
        <ele>221.951375</ele>
        <time>2020-08-10T10:54:20.737Z</time>
      </trkpt>
      <trkpt lat="64.23087" lon="10.96065">
        <ele>221.540014</ele>
        <time>2020-08-10T10:54:22.818Z</time>
      </trkpt>
      <trkpt lat="64.23083" lon="10.96096">
        <ele>221.133289</ele>
        <time>2020-08-10T10:54:24.794Z</time>
      </trkpt>
      <trkpt lat="64.23078" lon="10.96128">
        <ele>220.721883</ele>
        <time>2020-08-10T10:54:26.742Z</time>
      </trkpt>
      <trkpt lat="64.23073" lon="10.96159">
        <ele>220.308855</ele>
        <time>2020-08-10T10:54:28.746Z</time>
      </trkpt>
      <trkpt lat="64.23068" lon="10.96191">
        <ele>219.890406</ele>
        <time>2020-08-10T10:54:30.744Z</time>
      </trkpt>
      <trkpt lat="64.23063" lon="10.96222">
        <ele>219.476586</ele>
        <time>2020-08-10T10:54:32.746Z</time>
      </trkpt>
      <trkpt lat="64.23058" lon="10.96253">
        <ele>219.066491</ele>
        <time>2020-08-10T10:54:34.761Z</time>
      </trkpt>
      <trkpt lat="64.23052" lon="10.96284">
        <ele>218.658885</ele>
        <time>2020-08-10T10:54:36.743Z</time>
      </trkpt>
      <trkpt lat="64.23046" lon="10.96313">
        <ele>218.263721</ele>
        <time>2020-08-10T10:54:38.734Z</time>
      </trkpt>
      <trkpt lat="64.23041" lon="10.96341">
        <ele>217.938486</ele>
        <time>2020-08-10T10:54:40.730Z</time>
      </trkpt>
      <trkpt lat="64.23034" lon="10.96368">
        <ele>217.626755</ele>
        <time>2020-08-10T10:54:42.742Z</time>
      </trkpt>
      <trkpt lat="64.23027" lon="10.96393">
        <ele>217.308657</ele>
        <time>2020-08-10T10:54:44.724Z</time>
      </trkpt>
      <trkpt lat="64.23019" lon="10.96418">
        <ele>216.987068</ele>
        <time>2020-08-10T10:54:46.724Z</time>
      </trkpt>
      <trkpt lat="64.2301" lon="10.96445">
        <ele>216.644071</ele>
        <time>2020-08-10T10:54:48.761Z</time>
      </trkpt>
      <trkpt lat="64.23001" lon="10.96473">
        <ele>216.288619</ele>
        <time>2020-08-10T10:54:50.737Z</time>
      </trkpt>
      <trkpt lat="64.22992" lon="10.96502">
        <ele>215.920483</ele>
        <time>2020-08-10T10:54:52.746Z</time>
      </trkpt>
      <trkpt lat="64.22983" lon="10.96532">
        <ele>215.545708</ele>
        <time>2020-08-10T10:54:54.743Z</time>
      </trkpt>
      <trkpt lat="64.22974" lon="10.96564">
        <ele>215.154615</ele>
        <time>2020-08-10T10:54:56.757Z</time>
      </trkpt>
      <trkpt lat="64.22965" lon="10.96597">
        <ele>214.760847</ele>
        <time>2020-08-10T10:54:58.740Z</time>
      </trkpt>
      <trkpt lat="64.22958" lon="10.96629">
        <ele>214.383966</ele>
        <time>2020-08-10T10:55:00.747Z</time>
      </trkpt>
      <trkpt lat="64.22951" lon="10.96662">
        <ele>214.015058</ele>
        <time>2020-08-10T10:55:02.752Z</time>
      </trkpt>
      <trkpt lat="64.22946" lon="10.96695">
        <ele>213.751763</ele>
        <time>2020-08-10T10:55:04.732Z</time>
      </trkpt>
      <trkpt lat="64.22942" lon="10.96728">
        <ele>213.510043</ele>
        <time>2020-08-10T10:55:06.753Z</time>
      </trkpt>
      <trkpt lat="64.22939" lon="10.96762">
        <ele>213.263213</ele>
        <time>2020-08-10T10:55:08.761Z</time>
      </trkpt>
      <trkpt lat="64.22936" lon="10.96796">
        <ele>213.020607</ele>
        <time>2020-08-10T10:55:10.761Z</time>
      </trkpt>
      <trkpt lat="64.22934" lon="10.96831">
        <ele>212.769833</ele>
        <time>2020-08-10T10:55:12.739Z</time>
      </trkpt>
      <trkpt lat="64.22933" lon="10.96866">
        <ele>212.521839</ele>
        <time>2020-08-10T10:55:14.743Z</time>
      </trkpt>
      <trkpt lat="64.22932" lon="10.96902">
        <ele>212.271025</ele>
        <time>2020-08-10T10:55:16.737Z</time>
      </trkpt>
      <trkpt lat="64.22931" lon="10.96937">
        <ele>212.022604</ele>
        <time>2020-08-10T10:55:18.734Z</time>
      </trkpt>
      <trkpt lat="64.2293" lon="10.9697">
        <ele>211.788951</ele>
        <time>2020-08-10T10:55:20.730Z</time>
      </trkpt>
      <trkpt lat="64.22929" lon="10.97002">
        <ele>211.562463</ele>
        <time>2020-08-10T10:55:22.732Z</time>
      </trkpt>
      <trkpt lat="64.22928" lon="10.97033">
        <ele>211.339615</ele>
        <time>2020-08-10T10:55:24.735Z</time>
      </trkpt>
      <trkpt lat="64.22927" lon="10.97065">
        <ele>211.118753</ele>
        <time>2020-08-10T10:55:26.719Z</time>
      </trkpt>
      <trkpt lat="64.22926" lon="10.97096">
        <ele>210.662623</ele>
        <time>2020-08-10T10:55:28.753Z</time>
      </trkpt>
      <trkpt lat="64.22924" lon="10.97127">
        <ele>210.080516</ele>
        <time>2020-08-10T10:55:30.729Z</time>
      </trkpt>
      <trkpt lat="64.22924" lon="10.9716">
        <ele>209.483008</ele>
        <time>2020-08-10T10:55:32.755Z</time>
      </trkpt>
      <trkpt lat="64.22923" lon="10.97193">
        <ele>208.870827</ele>
        <time>2020-08-10T10:55:34.740Z</time>
      </trkpt>
      <trkpt lat="64.22922" lon="10.97227">
        <ele>208.239647</ele>
        <time>2020-08-10T10:55:36.716Z</time>
      </trkpt>
      <trkpt lat="64.2292" lon="10.97264">
        <ele>207.564119</ele>
        <time>2020-08-10T10:55:38.744Z</time>
      </trkpt>
      <trkpt lat="64.22918" lon="10.97304">
        <ele>206.829353</ele>
        <time>2020-08-10T10:55:40.731Z</time>
      </trkpt>
      <trkpt lat="64.22917" lon="10.97325">
        <ele>206.437786</ele>
        <time>2020-08-10T10:55:41.735Z</time>
      </trkpt>
      <trkpt lat="64.22916" lon="10.97347">
        <ele>206.022023</ele>
        <time>2020-08-10T10:55:42.751Z</time>
      </trkpt>
      <trkpt lat="64.22915" lon="10.9737">
        <ele>205.59714</ele>
        <time>2020-08-10T10:55:43.750Z</time>
      </trkpt>
      <trkpt lat="64.22914" lon="10.97394">
        <ele>205.164631</ele>
        <time>2020-08-10T10:55:44.742Z</time>
      </trkpt>
      <trkpt lat="64.22911" lon="10.97418">
        <ele>204.716041</ele>
        <time>2020-08-10T10:55:45.726Z</time>
      </trkpt>
      <trkpt lat="64.22909" lon="10.97441">
        <ele>204.273923</ele>
        <time>2020-08-10T10:55:46.731Z</time>
      </trkpt>
      <trkpt lat="64.22905" lon="10.97463">
        <ele>203.837124</ele>
        <time>2020-08-10T10:55:47.733Z</time>
      </trkpt>
      <trkpt lat="64.22901" lon="10.97485">
        <ele>203.380837</ele>
        <time>2020-08-10T10:55:48.755Z</time>
      </trkpt>
      <trkpt lat="64.22896" lon="10.97505">
        <ele>202.788839</ele>
        <time>2020-08-10T10:55:49.773Z</time>
      </trkpt>
      <trkpt lat="64.2289" lon="10.97523">
        <ele>202.207187</ele>
        <time>2020-08-10T10:55:50.740Z</time>
      </trkpt>
      <trkpt lat="64.22883" lon="10.9754">
        <ele>201.592909</ele>
        <time>2020-08-10T10:55:51.741Z</time>
      </trkpt>
      <trkpt lat="64.22875" lon="10.97555">
        <ele>200.953174</ele>
        <time>2020-08-10T10:55:52.730Z</time>
      </trkpt>
      <trkpt lat="64.22865" lon="10.97566">
        <ele>200.297409</ele>
        <time>2020-08-10T10:55:53.763Z</time>
      </trkpt>
      <trkpt lat="64.22854" lon="10.97576">
        <ele>199.607888</ele>
        <time>2020-08-10T10:55:54.732Z</time>
      </trkpt>
      <trkpt lat="64.22843" lon="10.97583">
        <ele>198.908417</ele>
        <time>2020-08-10T10:55:55.748Z</time>
      </trkpt>
      <trkpt lat="64.22831" lon="10.97587">
        <ele>198.190666</ele>
        <time>2020-08-10T10:55:56.747Z</time>
      </trkpt>
      <trkpt lat="64.22819" lon="10.97588">
        <ele>197.467478</ele>
        <time>2020-08-10T10:55:57.754Z</time>
      </trkpt>
      <trkpt lat="64.22806" lon="10.97589">
        <ele>196.702419</ele>
        <time>2020-08-10T10:55:58.729Z</time>
      </trkpt>
      <trkpt lat="64.22793" lon="10.97591">
        <ele>195.918946</ele>
        <time>2020-08-10T10:55:59.740Z</time>
      </trkpt>
      <trkpt lat="64.22779" lon="10.97592">
        <ele>195.106264</ele>
        <time>2020-08-10T10:56:00.731Z</time>
      </trkpt>
      <trkpt lat="64.22766" lon="10.97593">
        <ele>194.287402</ele>
        <time>2020-08-10T10:56:01.730Z</time>
      </trkpt>
      <trkpt lat="64.22752" lon="10.97596">
        <ele>193.483725</ele>
        <time>2020-08-10T10:56:02.728Z</time>
      </trkpt>
      <trkpt lat="64.22739" lon="10.97602">
        <ele>192.650253</ele>
        <time>2020-08-10T10:56:03.738Z</time>
      </trkpt>
      <trkpt lat="64.22726" lon="10.9761">
        <ele>191.738616</ele>
        <time>2020-08-10T10:56:04.745Z</time>
      </trkpt>
      <trkpt lat="64.22713" lon="10.97621">
        <ele>190.830998</ele>
        <time>2020-08-10T10:56:05.745Z</time>
      </trkpt>
      <trkpt lat="64.22701" lon="10.97633">
        <ele>189.946454</ele>
        <time>2020-08-10T10:56:06.781Z</time>
      </trkpt>
      <trkpt lat="64.2269" lon="10.97647">
        <ele>189.084993</ele>
        <time>2020-08-10T10:56:07.742Z</time>
      </trkpt>
      <trkpt lat="64.2268" lon="10.97662">
        <ele>188.265025</ele>
        <time>2020-08-10T10:56:08.746Z</time>
      </trkpt>
      <trkpt lat="64.2267" lon="10.97677">
        <ele>187.477015</ele>
        <time>2020-08-10T10:56:09.746Z</time>
      </trkpt>
      <trkpt lat="64.22661" lon="10.97693">
        <ele>186.6911</ele>
        <time>2020-08-10T10:56:10.771Z</time>
      </trkpt>
      <trkpt lat="64.22652" lon="10.97708">
        <ele>185.923345</ele>
        <time>2020-08-10T10:56:11.733Z</time>
      </trkpt>
      <trkpt lat="64.22643" lon="10.97724">
        <ele>185.162868</ele>
        <time>2020-08-10T10:56:12.737Z</time>
      </trkpt>
      <trkpt lat="64.22634" lon="10.9774">
        <ele>184.380851</ele>
        <time>2020-08-10T10:56:13.744Z</time>
      </trkpt>
      <trkpt lat="64.22624" lon="10.97756">
        <ele>183.587285</ele>
        <time>2020-08-10T10:56:14.752Z</time>
      </trkpt>
      <trkpt lat="64.22614" lon="10.97772">
        <ele>182.744579</ele>
        <time>2020-08-10T10:56:15.751Z</time>
      </trkpt>
      <trkpt lat="64.22603" lon="10.97788">
        <ele>181.873447</ele>
        <time>2020-08-10T10:56:16.723Z</time>
      </trkpt>
      <trkpt lat="64.22593" lon="10.97806">
        <ele>180.998006</ele>
        <time>2020-08-10T10:56:17.738Z</time>
      </trkpt>
      <trkpt lat="64.22582" lon="10.97825">
        <ele>180.273574</ele>
        <time>2020-08-10T10:56:18.729Z</time>
      </trkpt>
      <trkpt lat="64.22572" lon="10.97844">
        <ele>179.74456</ele>
        <time>2020-08-10T10:56:19.802Z</time>
      </trkpt>
      <trkpt lat="64.22562" lon="10.97864">
        <ele>179.220066</ele>
        <time>2020-08-10T10:56:20.734Z</time>
      </trkpt>
      <trkpt lat="64.22553" lon="10.97884">
        <ele>178.706763</ele>
        <time>2020-08-10T10:56:21.760Z</time>
      </trkpt>
      <trkpt lat="64.22544" lon="10.97904">
        <ele>178.208502</ele>
        <time>2020-08-10T10:56:22.741Z</time>
      </trkpt>
      <trkpt lat="64.22535" lon="10.97924">
        <ele>177.734466</ele>
        <time>2020-08-10T10:56:23.739Z</time>
      </trkpt>
      <trkpt lat="64.22527" lon="10.97943">
        <ele>177.281947</ele>
        <time>2020-08-10T10:56:24.742Z</time>
      </trkpt>
      <trkpt lat="64.2252" lon="10.97962">
        <ele>176.841439</ele>
        <time>2020-08-10T10:56:25.735Z</time>
      </trkpt>
      <trkpt lat="64.22513" lon="10.9798">
        <ele>176.425721</ele>
        <time>2020-08-10T10:56:26.759Z</time>
      </trkpt>
      <trkpt lat="64.22507" lon="10.97998">
        <ele>176.047087</ele>
        <time>2020-08-10T10:56:27.737Z</time>
      </trkpt>
      <trkpt lat="64.22502" lon="10.98015">
        <ele>175.688979</ele>
        <time>2020-08-10T10:56:28.743Z</time>
      </trkpt>
      <trkpt lat="64.22493" lon="10.98046">
        <ele>175.045243</ele>
        <time>2020-08-10T10:56:30.740Z</time>
      </trkpt>
      <trkpt lat="64.22486" lon="10.98073">
        <ele>174.498248</ele>
        <time>2020-08-10T10:56:32.737Z</time>
      </trkpt>
      <trkpt lat="64.22481" lon="10.98098">
        <ele>174.008576</ele>
        <time>2020-08-10T10:56:34.724Z</time>
      </trkpt>
      <trkpt lat="64.22476" lon="10.98122">
        <ele>173.558714</ele>
        <time>2020-08-10T10:56:36.733Z</time>
      </trkpt>
      <trkpt lat="64.22472" lon="10.98145">
        <ele>173.309842</ele>
        <time>2020-08-10T10:56:38.742Z</time>
      </trkpt>
      <trkpt lat="64.22468" lon="10.98166">
        <ele>173.21118</ele>
        <time>2020-08-10T10:56:40.743Z</time>
      </trkpt>
      <trkpt lat="64.22465" lon="10.98187">
        <ele>173.112802</ele>
        <time>2020-08-10T10:56:42.743Z</time>
      </trkpt>
      <trkpt lat="64.22462" lon="10.9821">
        <ele>173.008376</ele>
        <time>2020-08-10T10:56:44.729Z</time>
      </trkpt>
      <trkpt lat="64.22459" lon="10.98232">
        <ele>172.903643</ele>
        <time>2020-08-10T10:56:46.725Z</time>
      </trkpt>
      <trkpt lat="64.22457" lon="10.98257">
        <ele>172.795098</ele>
        <time>2020-08-10T10:56:48.775Z</time>
      </trkpt>
      <trkpt lat="64.22454" lon="10.98282">
        <ele>172.679484</ele>
        <time>2020-08-10T10:56:50.727Z</time>
      </trkpt>
      <trkpt lat="64.22451" lon="10.98308">
        <ele>172.560998</ele>
        <time>2020-08-10T10:56:52.745Z</time>
      </trkpt>
      <trkpt lat="64.22449" lon="10.98336">
        <ele>172.438552</ele>
        <time>2020-08-10T10:56:54.763Z</time>
      </trkpt>
      <trkpt lat="64.22447" lon="10.98365">
        <ele>172.309182</ele>
        <time>2020-08-10T10:56:56.750Z</time>
      </trkpt>
      <trkpt lat="64.22444" lon="10.98396">
        <ele>172.170224</ele>
        <time>2020-08-10T10:56:58.775Z</time>
      </trkpt>
      <trkpt lat="64.22443" lon="10.98427">
        <ele>172.030476</ele>
        <time>2020-08-10T10:57:00.752Z</time>
      </trkpt>
      <trkpt lat="64.22442" lon="10.98463">
        <ele>171.875971</ele>
        <time>2020-08-10T10:57:02.760Z</time>
      </trkpt>
      <trkpt lat="64.22443" lon="10.98502">
        <ele>171.703035</ele>
        <time>2020-08-10T10:57:04.776Z</time>
      </trkpt>
      <trkpt lat="64.22442" lon="10.98523">
        <ele>171.609983</ele>
        <time>2020-08-10T10:57:05.757Z</time>
      </trkpt>
      <trkpt lat="64.22442" lon="10.98545">
        <ele>171.469953</ele>
        <time>2020-08-10T10:57:06.739Z</time>
      </trkpt>
      <trkpt lat="64.22442" lon="10.98567">
        <ele>171.267652</ele>
        <time>2020-08-10T10:57:07.783Z</time>
      </trkpt>
      <trkpt lat="64.22443" lon="10.9859">
        <ele>171.061347</ele>
        <time>2020-08-10T10:57:08.734Z</time>
      </trkpt>
      <trkpt lat="64.22443" lon="10.98612">
        <ele>170.853428</ele>
        <time>2020-08-10T10:57:09.744Z</time>
      </trkpt>
      <trkpt lat="64.22443" lon="10.98635">
        <ele>170.641062</ele>
        <time>2020-08-10T10:57:10.741Z</time>
      </trkpt>
      <trkpt lat="64.22442" lon="10.98659">
        <ele>170.42857</ele>
        <time>2020-08-10T10:57:11.793Z</time>
      </trkpt>
      <trkpt lat="64.22442" lon="10.98682">
        <ele>170.21313</ele>
        <time>2020-08-10T10:57:12.770Z</time>
      </trkpt>
      <trkpt lat="64.22441" lon="10.98706">
        <ele>169.996888</ele>
        <time>2020-08-10T10:57:13.735Z</time>
      </trkpt>
      <trkpt lat="64.22441" lon="10.9873">
        <ele>169.778981</ele>
        <time>2020-08-10T10:57:14.734Z</time>
      </trkpt>
      <trkpt lat="64.22441" lon="10.98753">
        <ele>169.561074</ele>
        <time>2020-08-10T10:57:15.727Z</time>
      </trkpt>
      <trkpt lat="64.2244" lon="10.98777">
        <ele>169.341176</ele>
        <time>2020-08-10T10:57:16.732Z</time>
      </trkpt>
      <trkpt lat="64.2244" lon="10.98801">
        <ele>169.122283</ele>
        <time>2020-08-10T10:57:17.735Z</time>
      </trkpt>
      <trkpt lat="64.22439" lon="10.98825">
        <ele>168.905219</ele>
        <time>2020-08-10T10:57:18.765Z</time>
      </trkpt>
      <trkpt lat="64.22438" lon="10.98848">
        <ele>168.689316</ele>
        <time>2020-08-10T10:57:19.754Z</time>
      </trkpt>
      <trkpt lat="64.22438" lon="10.98871">
        <ele>168.47922</ele>
        <time>2020-08-10T10:57:20.740Z</time>
      </trkpt>
      <trkpt lat="64.22437" lon="10.98893">
        <ele>168.281258</ele>
        <time>2020-08-10T10:57:21.740Z</time>
      </trkpt>
      <trkpt lat="64.22437" lon="10.98914">
        <ele>168.090898</ele>
        <time>2020-08-10T10:57:22.734Z</time>
      </trkpt>
      <trkpt lat="64.22437" lon="10.98954">
        <ele>167.718469</ele>
        <time>2020-08-10T10:57:24.741Z</time>
      </trkpt>
      <trkpt lat="64.22437" lon="10.98992">
        <ele>167.323121</ele>
        <time>2020-08-10T10:57:26.754Z</time>
      </trkpt>
      <trkpt lat="64.22437" lon="10.99028">
        <ele>166.939231</ele>
        <time>2020-08-10T10:57:28.745Z</time>
      </trkpt>
      <trkpt lat="64.22438" lon="10.99063">
        <ele>166.577471</ele>
        <time>2020-08-10T10:57:30.766Z</time>
      </trkpt>
      <trkpt lat="64.22438" lon="10.99096">
        <ele>166.236558</ele>
        <time>2020-08-10T10:57:32.739Z</time>
      </trkpt>
      <trkpt lat="64.22438" lon="10.99126">
        <ele>165.920252</ele>
        <time>2020-08-10T10:57:34.769Z</time>
      </trkpt>
      <trkpt lat="64.2244" lon="10.99155">
        <ele>165.614502</ele>
        <time>2020-08-10T10:57:36.747Z</time>
      </trkpt>
      <trkpt lat="64.22441" lon="10.99183">
        <ele>165.319376</ele>
        <time>2020-08-10T10:57:38.745Z</time>
      </trkpt>
      <trkpt lat="64.22443" lon="10.99211">
        <ele>165.032526</ele>
        <time>2020-08-10T10:57:40.748Z</time>
      </trkpt>
      <trkpt lat="64.22445" lon="10.99237">
        <ele>164.752384</ele>
        <time>2020-08-10T10:57:42.760Z</time>
      </trkpt>
      <trkpt lat="64.22449" lon="10.99262">
        <ele>164.47833</ele>
        <time>2020-08-10T10:57:44.739Z</time>
      </trkpt>
      <trkpt lat="64.22453" lon="10.99285">
        <ele>164.2154</ele>
        <time>2020-08-10T10:57:46.742Z</time>
      </trkpt>
      <trkpt lat="64.22458" lon="10.99309">
        <ele>163.938116</ele>
        <time>2020-08-10T10:57:48.735Z</time>
      </trkpt>
      <trkpt lat="64.22464" lon="10.99331">
        <ele>163.675386</ele>
        <time>2020-08-10T10:57:50.730Z</time>
      </trkpt>
      <trkpt lat="64.2247" lon="10.9935">
        <ele>163.488605</ele>
        <time>2020-08-10T10:57:52.744Z</time>
      </trkpt>
      <trkpt lat="64.22478" lon="10.99372">
        <ele>163.848374</ele>
        <time>2020-08-10T10:57:55.751Z</time>
      </trkpt>
      <trkpt lat="64.22485" lon="10.99391">
        <ele>164.16323</ele>
        <time>2020-08-10T10:57:58.734Z</time>
      </trkpt>
      <trkpt lat="64.22493" lon="10.99405">
        <ele>164.437505</ele>
        <time>2020-08-10T10:58:01.750Z</time>
      </trkpt>
      <trkpt lat="64.22502" lon="10.99419">
        <ele>164.760804</ele>
        <time>2020-08-10T10:58:05.738Z</time>
      </trkpt>
      <trkpt lat="64.22511" lon="10.99431">
        <ele>165.063979</ele>
        <time>2020-08-10T10:58:09.741Z</time>
      </trkpt>
      <trkpt lat="64.2252" lon="10.99441">
        <ele>165.330211</ele>
        <time>2020-08-10T10:58:13.758Z</time>
      </trkpt>
      <trkpt lat="64.22527" lon="10.99453">
        <ele>165.597873</ele>
        <time>2020-08-10T10:58:17.727Z</time>
      </trkpt>
      <trkpt lat="64.22536" lon="10.99464">
        <ele>165.868925</ele>
        <time>2020-08-10T10:58:21.747Z</time>
      </trkpt>
      <trkpt lat="64.22544" lon="10.99477">
        <ele>166.167166</ele>
        <time>2020-08-10T10:58:26.729Z</time>
      </trkpt>
      <trkpt lat="64.22552" lon="10.9949">
        <ele>166.439294</ele>
        <time>2020-08-10T10:58:31.753Z</time>
      </trkpt>
      <trkpt lat="64.22561" lon="10.99501">
        <ele>166.733977</ele>
        <time>2020-08-10T10:58:36.730Z</time>
      </trkpt>
      <trkpt lat="64.22571" lon="10.99513">
        <ele>167.038839</ele>
        <time>2020-08-10T10:58:41.727Z</time>
      </trkpt>
      <trkpt lat="64.22579" lon="10.99527">
        <ele>167.344053</ele>
        <time>2020-08-10T10:58:46.770Z</time>
      </trkpt>
      <trkpt lat="64.22587" lon="10.99539">
        <ele>167.602105</ele>
        <time>2020-08-10T10:58:50.730Z</time>
      </trkpt>
      <trkpt lat="64.22596" lon="10.99554">
        <ele>167.919321</ele>
        <time>2020-08-10T10:58:55.725Z</time>
      </trkpt>
      <trkpt lat="64.22603" lon="10.99568">
        <ele>168.186827</ele>
        <time>2020-08-10T10:58:59.745Z</time>
      </trkpt>
      <trkpt lat="64.22611" lon="10.99582">
        <ele>168.464093</ele>
        <time>2020-08-10T10:59:03.755Z</time>
      </trkpt>
      <trkpt lat="64.22619" lon="10.99597">
        <ele>168.707039</ele>
        <time>2020-08-10T10:59:07.756Z</time>
      </trkpt>
      <trkpt lat="64.22627" lon="10.99614">
        <ele>168.949129</ele>
        <time>2020-08-10T10:59:11.747Z</time>
      </trkpt>
      <trkpt lat="64.22634" lon="10.99628">
        <ele>169.149325</ele>
        <time>2020-08-10T10:59:14.747Z</time>
      </trkpt>
      <trkpt lat="64.22642" lon="10.99644">
        <ele>169.369581</ele>
        <time>2020-08-10T10:59:17.739Z</time>
      </trkpt>
      <trkpt lat="64.2265" lon="10.99663">
        <ele>169.608184</ele>
        <time>2020-08-10T10:59:20.763Z</time>
      </trkpt>
      <trkpt lat="64.22657" lon="10.99683">
        <ele>169.843945</ele>
        <time>2020-08-10T10:59:23.730Z</time>
      </trkpt>
      <trkpt lat="64.22664" lon="10.99703">
        <ele>170.08734</ele>
        <time>2020-08-10T10:59:26.742Z</time>
      </trkpt>
      <trkpt lat="64.22672" lon="10.99723">
        <ele>170.337691</ele>
        <time>2020-08-10T10:59:29.723Z</time>
      </trkpt>
      <trkpt lat="64.2268" lon="10.99743">
        <ele>170.583234</ele>
        <time>2020-08-10T10:59:32.743Z</time>
      </trkpt>
      <trkpt lat="64.22687" lon="10.99762">
        <ele>170.818291</ele>
        <time>2020-08-10T10:59:35.745Z</time>
      </trkpt>
      <trkpt lat="64.22694" lon="10.99782">
        <ele>171.048213</ele>
        <time>2020-08-10T10:59:38.726Z</time>
      </trkpt>
      <trkpt lat="64.22701" lon="10.99805">
        <ele>171.305668</ele>
        <time>2020-08-10T10:59:41.755Z</time>
      </trkpt>
      <trkpt lat="64.22707" lon="10.99827">
        <ele>171.551988</ele>
        <time>2020-08-10T10:59:44.762Z</time>
      </trkpt>
      <trkpt lat="64.22715" lon="10.99851">
        <ele>171.82486</ele>
        <time>2020-08-10T10:59:47.757Z</time>
      </trkpt>
      <trkpt lat="64.22721" lon="10.99877">
        <ele>172.097856</ele>
        <time>2020-08-10T10:59:50.735Z</time>
      </trkpt>
      <trkpt lat="64.22726" lon="10.99895">
        <ele>172.289763</ele>
        <time>2020-08-10T10:59:52.726Z</time>
      </trkpt>
      <trkpt lat="64.2273" lon="10.99914">
        <ele>172.506465</ele>
        <time>2020-08-10T10:59:54.749Z</time>
      </trkpt>
      <trkpt lat="64.22735" lon="10.99934">
        <ele>172.749526</ele>
        <time>2020-08-10T10:59:56.739Z</time>
      </trkpt>
      <trkpt lat="64.22739" lon="10.99954">
        <ele>172.990635</ele>
        <time>2020-08-10T10:59:58.748Z</time>
      </trkpt>
      <trkpt lat="64.22743" lon="10.99974">
        <ele>173.239091</ele>
        <time>2020-08-10T11:00:00.737Z</time>
      </trkpt>
      <trkpt lat="64.22748" lon="10.99995">
        <ele>173.486412</ele>
        <time>2020-08-10T11:00:02.744Z</time>
      </trkpt>
      <trkpt lat="64.22752" lon="11.00015">
        <ele>173.723444</ele>
        <time>2020-08-10T11:00:04.736Z</time>
      </trkpt>
      <trkpt lat="64.22756" lon="11.00033">
        <ele>173.946827</ele>
        <time>2020-08-10T11:00:06.723Z</time>
      </trkpt>
      <trkpt lat="64.22762" lon="11.00059">
        <ele>174.266026</ele>
        <time>2020-08-10T11:00:09.740Z</time>
      </trkpt>
      <trkpt lat="64.22767" lon="11.00081">
        <ele>174.530392</ele>
        <time>2020-08-10T11:00:12.736Z</time>
      </trkpt>
      <trkpt lat="64.22771" lon="11.00101">
        <ele>174.772152</ele>
        <time>2020-08-10T11:00:15.759Z</time>
      </trkpt>
      <trkpt lat="64.22776" lon="11.00121">
        <ele>175.011312</ele>
        <time>2020-08-10T11:00:18.732Z</time>
      </trkpt>
      <trkpt lat="64.2278" lon="11.00145">
        <ele>175.303804</ele>
        <time>2020-08-10T11:00:22.737Z</time>
      </trkpt>
      <trkpt lat="64.22785" lon="11.00169">
        <ele>175.578448</ele>
        <time>2020-08-10T11:00:26.775Z</time>
      </trkpt>
      <trkpt lat="64.2279" lon="11.00192">
        <ele>175.857432</ele>
        <time>2020-08-10T11:00:30.744Z</time>
      </trkpt>
      <trkpt lat="64.22792" lon="11.00212">
        <ele>176.085194</ele>
        <time>2020-08-10T11:00:34.740Z</time>
      </trkpt>
      <trkpt lat="64.22795" lon="11.00236">
        <ele>176.354264</ele>
        <time>2020-08-10T11:00:39.743Z</time>
      </trkpt>
      <trkpt lat="64.22798" lon="11.00258">
        <ele>176.600771</ele>
        <time>2020-08-10T11:00:43.739Z</time>
      </trkpt>
      <trkpt lat="64.22802" lon="11.0028">
        <ele>176.853404</ele>
        <time>2020-08-10T11:00:47.737Z</time>
      </trkpt>
      <trkpt lat="64.22804" lon="11.00304">
        <ele>177.162463</ele>
        <time>2020-08-10T11:00:51.763Z</time>
      </trkpt>
      <trkpt lat="64.22806" lon="11.00326">
        <ele>177.449958</ele>
        <time>2020-08-10T11:00:55.747Z</time>
      </trkpt>
      <trkpt lat="64.22808" lon="11.00348">
        <ele>177.723154</ele>
        <time>2020-08-10T11:00:59.726Z</time>
      </trkpt>
      <trkpt lat="64.22809" lon="11.0037">
        <ele>178.000978</ele>
        <time>2020-08-10T11:01:03.727Z</time>
      </trkpt>
      <trkpt lat="64.2281" lon="11.00393">
        <ele>178.281689</ele>
        <time>2020-08-10T11:01:07.774Z</time>
      </trkpt>
      <trkpt lat="64.2281" lon="11.00416">
        <ele>178.576501</ele>
        <time>2020-08-10T11:01:11.759Z</time>
      </trkpt>
      <trkpt lat="64.2281" lon="11.0044">
        <ele>178.878805</ele>
        <time>2020-08-10T11:01:15.732Z</time>
      </trkpt>
      <trkpt lat="64.22809" lon="11.00465">
        <ele>179.182427</ele>
        <time>2020-08-10T11:01:19.783Z</time>
      </trkpt>
      <trkpt lat="64.22809" lon="11.00487">
        <ele>179.466175</ele>
        <time>2020-08-10T11:01:23.724Z</time>
      </trkpt>
      <trkpt lat="64.22809" lon="11.00511">
        <ele>179.764691</ele>
        <time>2020-08-10T11:01:27.739Z</time>
      </trkpt>
      <trkpt lat="64.22809" lon="11.00536">
        <ele>180.075684</ele>
        <time>2020-08-10T11:01:31.723Z</time>
      </trkpt>
      <trkpt lat="64.22809" lon="11.00559">
        <ele>180.361697</ele>
        <time>2020-08-10T11:01:35.762Z</time>
      </trkpt>
      <trkpt lat="64.22808" lon="11.00581">
        <ele>180.635462</ele>
        <time>2020-08-10T11:01:39.747Z</time>
      </trkpt>
      <trkpt lat="64.22808" lon="11.00603">
        <ele>180.910295</ele>
        <time>2020-08-10T11:01:43.738Z</time>
      </trkpt>
      <trkpt lat="64.22808" lon="11.00626">
        <ele>181.201814</ele>
        <time>2020-08-10T11:01:47.724Z</time>
      </trkpt>
      <trkpt lat="64.22808" lon="11.00651">
        <ele>181.507932</ele>
        <time>2020-08-10T11:01:51.739Z</time>
      </trkpt>
      <trkpt lat="64.22807" lon="11.00676">
        <ele>181.821493</ele>
        <time>2020-08-10T11:01:55.745Z</time>
      </trkpt>
      <trkpt lat="64.22805" lon="11.007">
        <ele>181.936547</ele>
        <time>2020-08-10T11:01:59.749Z</time>
      </trkpt>
      <trkpt lat="64.22803" lon="11.00727">
        <ele>181.583863</ele>
        <time>2020-08-10T11:02:03.768Z</time>
      </trkpt>
      <trkpt lat="64.22801" lon="11.00749">
        <ele>181.289312</ele>
        <time>2020-08-10T11:02:06.739Z</time>
      </trkpt>
      <trkpt lat="64.22798" lon="11.00776">
        <ele>180.933808</ele>
        <time>2020-08-10T11:02:09.742Z</time>
      </trkpt>
      <trkpt lat="64.22796" lon="11.00797">
        <ele>180.651862</ele>
        <time>2020-08-10T11:02:11.738Z</time>
      </trkpt>
      <trkpt lat="64.22794" lon="11.0082">
        <ele>180.351567</ele>
        <time>2020-08-10T11:02:13.735Z</time>
      </trkpt>
      <trkpt lat="64.22792" lon="11.00846">
        <ele>180.013468</ele>
        <time>2020-08-10T11:02:15.741Z</time>
      </trkpt>
      <trkpt lat="64.22789" lon="11.00874">
        <ele>179.63962</ele>
        <time>2020-08-10T11:02:17.757Z</time>
      </trkpt>
      <trkpt lat="64.22786" lon="11.00907">
        <ele>179.20285</ele>
        <time>2020-08-10T11:02:19.784Z</time>
      </trkpt>
      <trkpt lat="64.22782" lon="11.00945">
        <ele>178.70315</ele>
        <time>2020-08-10T11:02:21.735Z</time>
      </trkpt>
      <trkpt lat="64.22781" lon="11.00965">
        <ele>178.436936</ele>
        <time>2020-08-10T11:02:22.751Z</time>
      </trkpt>
      <trkpt lat="64.22779" lon="11.00986">
        <ele>178.160642</ele>
        <time>2020-08-10T11:02:23.736Z</time>
      </trkpt>
      <trkpt lat="64.22777" lon="11.01008">
        <ele>177.872394</ele>
        <time>2020-08-10T11:02:24.742Z</time>
      </trkpt>
      <trkpt lat="64.22775" lon="11.01031">
        <ele>177.573907</ele>
        <time>2020-08-10T11:02:25.727Z</time>
      </trkpt>
      <trkpt lat="64.22773" lon="11.01055">
        <ele>177.263697</ele>
        <time>2020-08-10T11:02:26.722Z</time>
      </trkpt>
      <trkpt lat="64.22771" lon="11.01079">
        <ele>176.940596</ele>
        <time>2020-08-10T11:02:27.743Z</time>
      </trkpt>
      <trkpt lat="64.2277" lon="11.01105">
        <ele>176.528935</ele>
        <time>2020-08-10T11:02:28.746Z</time>
      </trkpt>
      <trkpt lat="64.22768" lon="11.01131">
        <ele>175.898716</ele>
        <time>2020-08-10T11:02:29.728Z</time>
      </trkpt>
      <trkpt lat="64.22767" lon="11.01158">
        <ele>175.259779</ele>
        <time>2020-08-10T11:02:30.739Z</time>
      </trkpt>
      <trkpt lat="64.22765" lon="11.01185">
        <ele>174.613791</ele>
        <time>2020-08-10T11:02:31.758Z</time>
      </trkpt>
      <trkpt lat="64.22764" lon="11.01213">
        <ele>173.957744</ele>
        <time>2020-08-10T11:02:32.735Z</time>
      </trkpt>
      <trkpt lat="64.22762" lon="11.0124">
        <ele>173.300253</ele>
        <time>2020-08-10T11:02:33.740Z</time>
      </trkpt>
      <trkpt lat="64.22761" lon="11.01268">
        <ele>172.642509</ele>
        <time>2020-08-10T11:02:34.782Z</time>
      </trkpt>
      <trkpt lat="64.22759" lon="11.01295">
        <ele>171.99887</ele>
        <time>2020-08-10T11:02:35.758Z</time>
      </trkpt>
      <trkpt lat="64.22758" lon="11.01321">
        <ele>171.365263</ele>
        <time>2020-08-10T11:02:36.729Z</time>
      </trkpt>
      <trkpt lat="64.22757" lon="11.01347">
        <ele>170.748283</ele>
        <time>2020-08-10T11:02:37.736Z</time>
      </trkpt>
      <trkpt lat="64.22756" lon="11.01373">
        <ele>170.137513</ele>
        <time>2020-08-10T11:02:38.749Z</time>
      </trkpt>
      <trkpt lat="64.22755" lon="11.01399">
        <ele>169.523877</ele>
        <time>2020-08-10T11:02:39.741Z</time>
      </trkpt>
      <trkpt lat="64.22754" lon="11.01424">
        <ele>168.927251</ele>
        <time>2020-08-10T11:02:40.737Z</time>
      </trkpt>
      <trkpt lat="64.22754" lon="11.01448">
        <ele>168.367957</ele>
        <time>2020-08-10T11:02:41.731Z</time>
      </trkpt>
      <trkpt lat="64.22753" lon="11.0147">
        <ele>167.838724</ele>
        <time>2020-08-10T11:02:42.741Z</time>
      </trkpt>
      <trkpt lat="64.22752" lon="11.01491">
        <ele>167.340393</ele>
        <time>2020-08-10T11:02:43.776Z</time>
      </trkpt>
      <trkpt lat="64.22749" lon="11.0153">
        <ele>166.726857</ele>
        <time>2020-08-10T11:02:45.745Z</time>
      </trkpt>
      <trkpt lat="64.22748" lon="11.01565">
        <ele>166.419363</ele>
        <time>2020-08-10T11:02:47.726Z</time>
      </trkpt>
      <trkpt lat="64.22746" lon="11.01595">
        <ele>166.146851</ele>
        <time>2020-08-10T11:02:49.748Z</time>
      </trkpt>
      <trkpt lat="64.22745" lon="11.01623">
        <ele>165.905469</ele>
        <time>2020-08-10T11:02:51.727Z</time>
      </trkpt>
      <trkpt lat="64.22743" lon="11.01648">
        <ele>165.679107</ele>
        <time>2020-08-10T11:02:53.778Z</time>
      </trkpt>
      <trkpt lat="64.22741" lon="11.01673">
        <ele>165.459746</ele>
        <time>2020-08-10T11:02:55.741Z</time>
      </trkpt>
      <trkpt lat="64.2274" lon="11.01696">
        <ele>165.255954</ele>
        <time>2020-08-10T11:02:57.747Z</time>
      </trkpt>
      <trkpt lat="64.22739" lon="11.0172">
        <ele>165.048285</ele>
        <time>2020-08-10T11:02:59.734Z</time>
      </trkpt>
      <trkpt lat="64.22738" lon="11.01742">
        <ele>164.853673</ele>
        <time>2020-08-10T11:03:01.740Z</time>
      </trkpt>
      <trkpt lat="64.22738" lon="11.01763">
        <ele>164.669892</ele>
        <time>2020-08-10T11:03:03.725Z</time>
      </trkpt>
      <trkpt lat="64.22737" lon="11.01785">
        <ele>164.475896</ele>
        <time>2020-08-10T11:03:05.734Z</time>
      </trkpt>
      <trkpt lat="64.22736" lon="11.01808">
        <ele>164.271706</ele>
        <time>2020-08-10T11:03:07.734Z</time>
      </trkpt>
      <trkpt lat="64.22735" lon="11.0183">
        <ele>164.082051</ele>
        <time>2020-08-10T11:03:09.765Z</time>
      </trkpt>
      <trkpt lat="64.22734" lon="11.01851">
        <ele>163.898721</ele>
        <time>2020-08-10T11:03:11.725Z</time>
      </trkpt>
      <trkpt lat="64.22732" lon="11.01879">
        <ele>163.644689</ele>
        <time>2020-08-10T11:03:14.749Z</time>
      </trkpt>
      <trkpt lat="64.22731" lon="11.01906">
        <ele>163.411642</ele>
        <time>2020-08-10T11:03:17.740Z</time>
      </trkpt>
      <trkpt lat="64.22731" lon="11.01932">
        <ele>163.687569</ele>
        <time>2020-08-10T11:03:20.758Z</time>
      </trkpt>
      <trkpt lat="64.22731" lon="11.01958">
        <ele>164.552192</ele>
        <time>2020-08-10T11:03:23.724Z</time>
      </trkpt>
      <trkpt lat="64.2273" lon="11.01986">
        <ele>165.453969</ele>
        <time>2020-08-10T11:03:26.718Z</time>
      </trkpt>
      <trkpt lat="64.22728" lon="11.02014">
        <ele>166.377583</ele>
        <time>2020-08-10T11:03:29.752Z</time>
      </trkpt>
      <trkpt lat="64.22727" lon="11.02039">
        <ele>167.221307</ele>
        <time>2020-08-10T11:03:32.727Z</time>
      </trkpt>
      <trkpt lat="64.22727" lon="11.02064">
        <ele>168.017604</ele>
        <time>2020-08-10T11:03:35.735Z</time>
      </trkpt>
      <trkpt lat="64.22726" lon="11.02086">
        <ele>168.762309</ele>
        <time>2020-08-10T11:03:38.753Z</time>
      </trkpt>
      <trkpt lat="64.22726" lon="11.02112">
        <ele>169.620286</ele>
        <time>2020-08-10T11:03:42.763Z</time>
      </trkpt>
      <trkpt lat="64.22726" lon="11.02133">
        <ele>170.301568</ele>
        <time>2020-08-10T11:03:46.735Z</time>
      </trkpt>
      <trkpt lat="64.22725" lon="11.02158">
        <ele>171.129038</ele>
        <time>2020-08-10T11:03:51.761Z</time>
      </trkpt>
      <trkpt lat="64.22724" lon="11.02182">
        <ele>171.911334</ele>
        <time>2020-08-10T11:03:56.757Z</time>
      </trkpt>
      <trkpt lat="64.22723" lon="11.02203">
        <ele>172.598372</ele>
        <time>2020-08-10T11:04:01.728Z</time>
      </trkpt>
      <trkpt lat="64.22722" lon="11.02225">
        <ele>173.317025</ele>
        <time>2020-08-10T11:04:06.768Z</time>
      </trkpt>
      <trkpt lat="64.22722" lon="11.02248">
        <ele>174.071538</ele>
        <time>2020-08-10T11:04:11.733Z</time>
      </trkpt>
      <trkpt lat="64.22723" lon="11.0227">
        <ele>174.808938</ele>
        <time>2020-08-10T11:04:16.767Z</time>
      </trkpt>
      <trkpt lat="64.22721" lon="11.02293">
        <ele>175.565186</ele>
        <time>2020-08-10T11:04:21.758Z</time>
      </trkpt>
      <trkpt lat="64.2272" lon="11.02318">
        <ele>176.37862</ele>
        <time>2020-08-10T11:04:26.748Z</time>
      </trkpt>
      <trkpt lat="64.22719" lon="11.02341">
        <ele>176.932481</ele>
        <time>2020-08-10T11:04:31.739Z</time>
      </trkpt>
      <trkpt lat="64.22719" lon="11.02365">
        <ele>177.16765</ele>
        <time>2020-08-10T11:04:36.743Z</time>
      </trkpt>
      <trkpt lat="64.22717" lon="11.02389">
        <ele>177.397935</ele>
        <time>2020-08-10T11:04:41.726Z</time>
      </trkpt>
      <trkpt lat="64.22716" lon="11.02412">
        <ele>177.62876</ele>
        <time>2020-08-10T11:04:46.773Z</time>
      </trkpt>
      <trkpt lat="64.22716" lon="11.02437">
        <ele>177.871777</ele>
        <time>2020-08-10T11:04:51.726Z</time>
      </trkpt>
      <trkpt lat="64.22715" lon="11.02458">
        <ele>178.075352</ele>
        <time>2020-08-10T11:04:55.759Z</time>
      </trkpt>
      <trkpt lat="64.22713" lon="11.02482">
        <ele>178.310707</ele>
        <time>2020-08-10T11:05:00.739Z</time>
      </trkpt>
      <trkpt lat="64.22713" lon="11.02503">
        <ele>178.523418</ele>
        <time>2020-08-10T11:05:05.773Z</time>
      </trkpt>
      <trkpt lat="64.22712" lon="11.02525">
        <ele>178.736439</ele>
        <time>2020-08-10T11:05:10.736Z</time>
      </trkpt>
      <trkpt lat="64.22713" lon="11.02547">
        <ele>178.951316</ele>
        <time>2020-08-10T11:05:15.725Z</time>
      </trkpt>
      <trkpt lat="64.22713" lon="11.02569">
        <ele>179.16805</ele>
        <time>2020-08-10T11:05:20.738Z</time>
      </trkpt>
      <trkpt lat="64.22714" lon="11.0259">
        <ele>179.371287</ele>
        <time>2020-08-10T11:05:25.771Z</time>
      </trkpt>
      <trkpt lat="64.22715" lon="11.02613">
        <ele>179.602669</ele>
        <time>2020-08-10T11:05:30.757Z</time>
      </trkpt>
      <trkpt lat="64.22716" lon="11.02637">
        <ele>179.838223</ele>
        <time>2020-08-10T11:05:35.722Z</time>
      </trkpt>
      <trkpt lat="64.22717" lon="11.02659">
        <ele>180.053907</ele>
        <time>2020-08-10T11:05:39.731Z</time>
      </trkpt>
      <trkpt lat="64.22719" lon="11.02682">
        <ele>180.280373</ele>
        <time>2020-08-10T11:05:43.767Z</time>
      </trkpt>
      <trkpt lat="64.22721" lon="11.02706">
        <ele>180.521296</ele>
        <time>2020-08-10T11:05:47.730Z</time>
      </trkpt>
      <trkpt lat="64.22724" lon="11.02732">
        <ele>180.777471</ele>
        <time>2020-08-10T11:05:51.741Z</time>
      </trkpt>
      <trkpt lat="64.22728" lon="11.02758">
        <ele>180.711405</ele>
        <time>2020-08-10T11:05:55.758Z</time>
      </trkpt>
      <trkpt lat="64.22731" lon="11.02779">
        <ele>180.503288</ele>
        <time>2020-08-10T11:05:58.727Z</time>
      </trkpt>
      <trkpt lat="64.22735" lon="11.02803">
        <ele>180.258835</ele>
        <time>2020-08-10T11:06:01.725Z</time>
      </trkpt>
      <trkpt lat="64.2274" lon="11.02828">
        <ele>179.99791</ele>
        <time>2020-08-10T11:06:04.771Z</time>
      </trkpt>
      <trkpt lat="64.22746" lon="11.02853">
        <ele>179.736634</ele>
        <time>2020-08-10T11:06:07.765Z</time>
      </trkpt>
      <trkpt lat="64.22752" lon="11.02879">
        <ele>179.456396</ele>
        <time>2020-08-10T11:06:10.780Z</time>
      </trkpt>
      <trkpt lat="64.22757" lon="11.02897">
        <ele>179.254049</ele>
        <time>2020-08-10T11:06:12.730Z</time>
      </trkpt>
      <trkpt lat="64.22763" lon="11.02916">
        <ele>179.030378</ele>
        <time>2020-08-10T11:06:14.737Z</time>
      </trkpt>
      <trkpt lat="64.22771" lon="11.02937">
        <ele>178.766799</ele>
        <time>2020-08-10T11:06:16.752Z</time>
      </trkpt>
      <trkpt lat="64.22779" lon="11.0296">
        <ele>178.488273</ele>
        <time>2020-08-10T11:06:18.739Z</time>
      </trkpt>
      <trkpt lat="64.22788" lon="11.02983">
        <ele>178.199824</ele>
        <time>2020-08-10T11:06:20.746Z</time>
      </trkpt>
      <trkpt lat="64.22798" lon="11.03008">
        <ele>177.883444</ele>
        <time>2020-08-10T11:06:22.734Z</time>
      </trkpt>
      <trkpt lat="64.22808" lon="11.03035">
        <ele>177.54808</ele>
        <time>2020-08-10T11:06:24.746Z</time>
      </trkpt>
      <trkpt lat="64.22818" lon="11.03063">
        <ele>177.205244</ele>
        <time>2020-08-10T11:06:26.743Z</time>
      </trkpt>
      <trkpt lat="64.22827" lon="11.03094">
        <ele>176.697111</ele>
        <time>2020-08-10T11:06:28.736Z</time>
      </trkpt>
      <trkpt lat="64.22836" lon="11.03125">
        <ele>175.8989</ele>
        <time>2020-08-10T11:06:30.754Z</time>
      </trkpt>
      <trkpt lat="64.22845" lon="11.03159">
        <ele>175.083074</ele>
        <time>2020-08-10T11:06:32.765Z</time>
      </trkpt>
      <trkpt lat="64.22855" lon="11.03192">
        <ele>174.242848</ele>
        <time>2020-08-10T11:06:34.725Z</time>
      </trkpt>
      <trkpt lat="64.22864" lon="11.03227">
        <ele>173.406729</ele>
        <time>2020-08-10T11:06:36.750Z</time>
      </trkpt>
      <trkpt lat="64.22873" lon="11.03261">
        <ele>172.567314</ele>
        <time>2020-08-10T11:06:38.738Z</time>
      </trkpt>
      <trkpt lat="64.22883" lon="11.03295">
        <ele>171.708752</ele>
        <time>2020-08-10T11:06:40.743Z</time>
      </trkpt>
      <trkpt lat="64.22888" lon="11.03313">
        <ele>171.272021</ele>
        <time>2020-08-10T11:06:41.727Z</time>
      </trkpt>
      <trkpt lat="64.22893" lon="11.0333">
        <ele>170.836092</ele>
        <time>2020-08-10T11:06:42.746Z</time>
      </trkpt>
      <trkpt lat="64.22902" lon="11.03365">
        <ele>169.975779</ele>
        <time>2020-08-10T11:06:44.745Z</time>
      </trkpt>
      <trkpt lat="64.22912" lon="11.03399">
        <ele>169.133803</ele>
        <time>2020-08-10T11:06:46.745Z</time>
      </trkpt>
      <trkpt lat="64.22921" lon="11.03432">
        <ele>168.322937</ele>
        <time>2020-08-10T11:06:48.721Z</time>
      </trkpt>
      <trkpt lat="64.2293" lon="11.03466">
        <ele>167.918122</ele>
        <time>2020-08-10T11:06:50.743Z</time>
      </trkpt>
      <trkpt lat="64.22939" lon="11.03498">
        <ele>167.522754</ele>
        <time>2020-08-10T11:06:52.737Z</time>
      </trkpt>
      <trkpt lat="64.22948" lon="11.03532">
        <ele>167.114881</ele>
        <time>2020-08-10T11:06:54.771Z</time>
      </trkpt>
      <trkpt lat="64.22957" lon="11.03565">
        <ele>166.712205</ele>
        <time>2020-08-10T11:06:56.743Z</time>
      </trkpt>
      <trkpt lat="64.22967" lon="11.03597">
        <ele>166.315978</ele>
        <time>2020-08-10T11:06:58.766Z</time>
      </trkpt>
      <trkpt lat="64.22975" lon="11.03627">
        <ele>165.95022</ele>
        <time>2020-08-10T11:07:00.734Z</time>
      </trkpt>
      <trkpt lat="64.22983" lon="11.03654">
        <ele>165.620508</ele>
        <time>2020-08-10T11:07:02.729Z</time>
      </trkpt>
      <trkpt lat="64.2299" lon="11.03679">
        <ele>165.319983</ele>
        <time>2020-08-10T11:07:04.739Z</time>
      </trkpt>
      <trkpt lat="64.22996" lon="11.03701">
        <ele>165.045675</ele>
        <time>2020-08-10T11:07:06.750Z</time>
      </trkpt>
      <trkpt lat="64.23002" lon="11.03722">
        <ele>164.788069</ele>
        <time>2020-08-10T11:07:08.726Z</time>
      </trkpt>
      <trkpt lat="64.23006" lon="11.03741">
        <ele>164.564269</ele>
        <time>2020-08-10T11:07:10.731Z</time>
      </trkpt>
      <trkpt lat="64.23012" lon="11.03765">
        <ele>164.290921</ele>
        <time>2020-08-10T11:07:13.727Z</time>
      </trkpt>
      <trkpt lat="64.23016" lon="11.03785">
        <ele>164.163473</ele>
        <time>2020-08-10T11:07:16.751Z</time>
      </trkpt>
      <trkpt lat="64.23022" lon="11.03806">
        <ele>164.730889</ele>
        <time>2020-08-10T11:07:20.733Z</time>
      </trkpt>
      <trkpt lat="64.23028" lon="11.03825">
        <ele>165.251002</ele>
        <time>2020-08-10T11:07:24.738Z</time>
      </trkpt>
      <trkpt lat="64.23033" lon="11.03844">
        <ele>165.750875</ele>
        <time>2020-08-10T11:07:28.739Z</time>
      </trkpt>
      <trkpt lat="64.23039" lon="11.03864">
        <ele>166.304605</ele>
        <time>2020-08-10T11:07:33.731Z</time>
      </trkpt>
      <trkpt lat="64.23045" lon="11.03885">
        <ele>166.860301</ele>
        <time>2020-08-10T11:07:38.756Z</time>
      </trkpt>
      <trkpt lat="64.23051" lon="11.03907">
        <ele>167.435483</ele>
        <time>2020-08-10T11:07:43.737Z</time>
      </trkpt>
      <trkpt lat="64.23056" lon="11.03925">
        <ele>167.943003</ele>
        <time>2020-08-10T11:07:48.734Z</time>
      </trkpt>
      <trkpt lat="64.23061" lon="11.03942">
        <ele>168.413823</ele>
        <time>2020-08-10T11:07:53.746Z</time>
      </trkpt>
      <trkpt lat="64.23067" lon="11.03962">
        <ele>168.938255</ele>
        <time>2020-08-10T11:07:58.725Z</time>
      </trkpt>
      <trkpt lat="64.23071" lon="11.03981">
        <ele>169.432864</ele>
        <time>2020-08-10T11:08:03.751Z</time>
      </trkpt>
      <trkpt lat="64.23076" lon="11.04">
        <ele>169.94102</ele>
        <time>2020-08-10T11:08:08.742Z</time>
      </trkpt>
      <trkpt lat="64.23082" lon="11.04019">
        <ele>170.455042</ele>
        <time>2020-08-10T11:08:13.750Z</time>
      </trkpt>
      <trkpt lat="64.23087" lon="11.04038">
        <ele>170.960757</ele>
        <time>2020-08-10T11:08:18.728Z</time>
      </trkpt>
      <trkpt lat="64.23093" lon="11.04057">
        <ele>171.498621</ele>
        <time>2020-08-10T11:08:23.745Z</time>
      </trkpt>
      <trkpt lat="64.23099" lon="11.04077">
        <ele>172.03252</ele>
        <time>2020-08-10T11:08:28.749Z</time>
      </trkpt>
      <trkpt lat="64.23103" lon="11.04096">
        <ele>172.51109</ele>
        <time>2020-08-10T11:08:32.730Z</time>
      </trkpt>
      <trkpt lat="64.23109" lon="11.04116">
        <ele>173.051607</ele>
        <time>2020-08-10T11:08:36.751Z</time>
      </trkpt>
      <trkpt lat="64.23115" lon="11.04138">
        <ele>173.370899</ele>
        <time>2020-08-10T11:08:40.735Z</time>
      </trkpt>
      <trkpt lat="64.2312" lon="11.04155">
        <ele>173.241263</ele>
        <time>2020-08-10T11:08:43.781Z</time>
      </trkpt>
      <trkpt lat="64.23126" lon="11.04172">
        <ele>173.108035</ele>
        <time>2020-08-10T11:08:46.746Z</time>
      </trkpt>
      <trkpt lat="64.23131" lon="11.04192">
        <ele>172.965323</ele>
        <time>2020-08-10T11:08:49.756Z</time>
      </trkpt>
      <trkpt lat="64.23136" lon="11.04213">
        <ele>172.818694</ele>
        <time>2020-08-10T11:08:52.768Z</time>
      </trkpt>
      <trkpt lat="64.23141" lon="11.04234">
        <ele>172.668378</ele>
        <time>2020-08-10T11:08:55.742Z</time>
      </trkpt>
      <trkpt lat="64.23147" lon="11.04255">
        <ele>172.518213</ele>
        <time>2020-08-10T11:08:58.736Z</time>
      </trkpt>
      <trkpt lat="64.23153" lon="11.04277">
        <ele>172.360268</ele>
        <time>2020-08-10T11:09:01.757Z</time>
      </trkpt>
      <trkpt lat="64.23159" lon="11.043">
        <ele>172.195715</ele>
        <time>2020-08-10T11:09:04.727Z</time>
      </trkpt>
      <trkpt lat="64.23165" lon="11.04324">
        <ele>172.02234</ele>
        <time>2020-08-10T11:09:07.758Z</time>
      </trkpt>
      <trkpt lat="64.23172" lon="11.0435">
        <ele>171.833619</ele>
        <time>2020-08-10T11:09:10.731Z</time>
      </trkpt>
      <trkpt lat="64.23179" lon="11.04376">
        <ele>171.647733</ele>
        <time>2020-08-10T11:09:13.740Z</time>
      </trkpt>
      <trkpt lat="64.23184" lon="11.04394">
        <ele>171.514362</ele>
        <time>2020-08-10T11:09:15.727Z</time>
      </trkpt>
      <trkpt lat="64.23189" lon="11.04413">
        <ele>171.380469</ele>
        <time>2020-08-10T11:09:17.766Z</time>
      </trkpt>
      <trkpt lat="64.23194" lon="11.04432">
        <ele>171.24223</ele>
        <time>2020-08-10T11:09:19.723Z</time>
      </trkpt>
      <trkpt lat="64.23199" lon="11.0445">
        <ele>171.113699</ele>
        <time>2020-08-10T11:09:21.730Z</time>
      </trkpt>
      <trkpt lat="64.23203" lon="11.04468">
        <ele>170.9857</ele>
        <time>2020-08-10T11:09:23.744Z</time>
      </trkpt>
      <trkpt lat="64.23208" lon="11.04487">
        <ele>170.812227</ele>
        <time>2020-08-10T11:09:25.758Z</time>
      </trkpt>
      <trkpt lat="64.23214" lon="11.04515">
        <ele>170.394194</ele>
        <time>2020-08-10T11:09:28.738Z</time>
      </trkpt>
      <trkpt lat="64.23218" lon="11.04535">
        <ele>170.074766</ele>
        <time>2020-08-10T11:09:30.745Z</time>
      </trkpt>
      <trkpt lat="64.23224" lon="11.04556">
        <ele>169.746283</ele>
        <time>2020-08-10T11:09:32.765Z</time>
      </trkpt>
      <trkpt lat="64.23229" lon="11.04579">
        <ele>169.384233</ele>
        <time>2020-08-10T11:09:34.754Z</time>
      </trkpt>
      <trkpt lat="64.23235" lon="11.04603">
        <ele>169.007898</ele>
        <time>2020-08-10T11:09:36.757Z</time>
      </trkpt>
      <trkpt lat="64.23241" lon="11.04629">
        <ele>168.59154</ele>
        <time>2020-08-10T11:09:38.744Z</time>
      </trkpt>
      <trkpt lat="64.23249" lon="11.04658">
        <ele>168.141719</ele>
        <time>2020-08-10T11:09:40.766Z</time>
      </trkpt>
      <trkpt lat="64.23258" lon="11.04688">
        <ele>167.637736</ele>
        <time>2020-08-10T11:09:42.742Z</time>
      </trkpt>
      <trkpt lat="64.23267" lon="11.04723">
        <ele>167.081502</ele>
        <time>2020-08-10T11:09:44.728Z</time>
      </trkpt>
      <trkpt lat="64.23272" lon="11.0474">
        <ele>166.792753</ele>
        <time>2020-08-10T11:09:45.733Z</time>
      </trkpt>
      <trkpt lat="64.23277" lon="11.04758">
        <ele>166.493664</ele>
        <time>2020-08-10T11:09:46.759Z</time>
      </trkpt>
      <trkpt lat="64.23283" lon="11.04777">
        <ele>166.19054</ele>
        <time>2020-08-10T11:09:47.766Z</time>
      </trkpt>
      <trkpt lat="64.23288" lon="11.04795">
        <ele>165.879049</ele>
        <time>2020-08-10T11:09:48.738Z</time>
      </trkpt>
      <trkpt lat="64.23295" lon="11.04813">
        <ele>165.563003</ele>
        <time>2020-08-10T11:09:49.730Z</time>
      </trkpt>
      <trkpt lat="64.23301" lon="11.04831">
        <ele>165.245486</ele>
        <time>2020-08-10T11:09:50.746Z</time>
      </trkpt>
      <trkpt lat="64.23308" lon="11.04848">
        <ele>164.729592</ele>
        <time>2020-08-10T11:09:51.727Z</time>
      </trkpt>
      <trkpt lat="64.23316" lon="11.04864">
        <ele>164.192532</ele>
        <time>2020-08-10T11:09:52.738Z</time>
      </trkpt>
      <trkpt lat="64.23323" lon="11.04879">
        <ele>163.647452</ele>
        <time>2020-08-10T11:09:53.737Z</time>
      </trkpt>
      <trkpt lat="64.23331" lon="11.04895">
        <ele>163.106855</ele>
        <time>2020-08-10T11:09:54.751Z</time>
      </trkpt>
      <trkpt lat="64.23339" lon="11.0491">
        <ele>162.57579</ele>
        <time>2020-08-10T11:09:55.741Z</time>
      </trkpt>
      <trkpt lat="64.23347" lon="11.04924">
        <ele>162.042761</ele>
        <time>2020-08-10T11:09:56.761Z</time>
      </trkpt>
      <trkpt lat="64.23355" lon="11.04938">
        <ele>161.506992</ele>
        <time>2020-08-10T11:09:57.732Z</time>
      </trkpt>
      <trkpt lat="64.23363" lon="11.04953">
        <ele>160.971223</ele>
        <time>2020-08-10T11:09:58.741Z</time>
      </trkpt>
      <trkpt lat="64.23371" lon="11.04967">
        <ele>160.432621</ele>
        <time>2020-08-10T11:09:59.736Z</time>
      </trkpt>
      <trkpt lat="64.23378" lon="11.04981">
        <ele>159.90929</ele>
        <time>2020-08-10T11:10:00.766Z</time>
      </trkpt>
      <trkpt lat="64.23386" lon="11.04995">
        <ele>159.402615</ele>
        <time>2020-08-10T11:10:01.722Z</time>
      </trkpt>
      <trkpt lat="64.23393" lon="11.05009">
        <ele>158.90995</ele>
        <time>2020-08-10T11:10:02.776Z</time>
      </trkpt>
      <trkpt lat="64.234" lon="11.05022">
        <ele>158.423069</ele>
        <time>2020-08-10T11:10:03.743Z</time>
      </trkpt>
      <trkpt lat="64.23407" lon="11.05035">
        <ele>157.944617</ele>
        <time>2020-08-10T11:10:04.738Z</time>
      </trkpt>
      <trkpt lat="64.2342" lon="11.05061">
        <ele>157.031599</ele>
        <time>2020-08-10T11:10:06.744Z</time>
      </trkpt>
      <trkpt lat="64.23432" lon="11.05085">
        <ele>156.218109</ele>
        <time>2020-08-10T11:10:08.733Z</time>
      </trkpt>
      <trkpt lat="64.23443" lon="11.05109">
        <ele>155.604157</ele>
        <time>2020-08-10T11:10:10.761Z</time>
      </trkpt>
      <trkpt lat="64.23456" lon="11.0513">
        <ele>155.33308</ele>
        <time>2020-08-10T11:10:12.743Z</time>
      </trkpt>
      <trkpt lat="64.23468" lon="11.05151">
        <ele>155.074334</ele>
        <time>2020-08-10T11:10:14.752Z</time>
      </trkpt>
      <trkpt lat="64.23479" lon="11.0517">
        <ele>154.830649</ele>
        <time>2020-08-10T11:10:16.749Z</time>
      </trkpt>
      <trkpt lat="64.23489" lon="11.05189">
        <ele>154.602425</ele>
        <time>2020-08-10T11:10:18.725Z</time>
      </trkpt>
      <trkpt lat="64.23499" lon="11.05207">
        <ele>154.390112</ele>
        <time>2020-08-10T11:10:20.771Z</time>
      </trkpt>
      <trkpt lat="64.23508" lon="11.05224">
        <ele>154.192513</ele>
        <time>2020-08-10T11:10:22.755Z</time>
      </trkpt>
      <trkpt lat="64.23517" lon="11.05239">
        <ele>154.004463</ele>
        <time>2020-08-10T11:10:24.754Z</time>
      </trkpt>
      <trkpt lat="64.23526" lon="11.05253">
        <ele>153.819462</ele>
        <time>2020-08-10T11:10:26.724Z</time>
      </trkpt>
      <trkpt lat="64.23535" lon="11.05267">
        <ele>153.629174</ele>
        <time>2020-08-10T11:10:28.744Z</time>
      </trkpt>
      <trkpt lat="64.23543" lon="11.05281">
        <ele>153.445587</ele>
        <time>2020-08-10T11:10:30.729Z</time>
      </trkpt>
      <trkpt lat="64.23552" lon="11.05296">
        <ele>153.257538</ele>
        <time>2020-08-10T11:10:32.744Z</time>
      </trkpt>
      <trkpt lat="64.23561" lon="11.0531">
        <ele>153.071767</ele>
        <time>2020-08-10T11:10:34.785Z</time>
      </trkpt>
      <trkpt lat="64.2357" lon="11.05325">
        <ele>152.882829</ele>
        <time>2020-08-10T11:10:36.737Z</time>
      </trkpt>
      <trkpt lat="64.23578" lon="11.0534">
        <ele>152.697108</ele>
        <time>2020-08-10T11:10:38.766Z</time>
      </trkpt>
      <trkpt lat="64.23587" lon="11.05355">
        <ele>152.547127</ele>
        <time>2020-08-10T11:10:40.724Z</time>
      </trkpt>
      <trkpt lat="64.23595" lon="11.05371">
        <ele>152.434585</ele>
        <time>2020-08-10T11:10:42.744Z</time>
      </trkpt>
      <trkpt lat="64.23604" lon="11.05388">
        <ele>152.319005</ele>
        <time>2020-08-10T11:10:44.724Z</time>
      </trkpt>
      <trkpt lat="64.23611" lon="11.05404">
        <ele>152.209615</ele>
        <time>2020-08-10T11:10:46.727Z</time>
      </trkpt>
      <trkpt lat="64.23619" lon="11.05422">
        <ele>152.100384</ele>
        <time>2020-08-10T11:10:48.729Z</time>
      </trkpt>
      <trkpt lat="64.23626" lon="11.0544">
        <ele>151.990374</ele>
        <time>2020-08-10T11:10:50.754Z</time>
      </trkpt>
      <trkpt lat="64.23634" lon="11.05458">
        <ele>151.871002</ele>
        <time>2020-08-10T11:10:52.767Z</time>
      </trkpt>
      <trkpt lat="64.23642" lon="11.05476">
        <ele>151.753513</ele>
        <time>2020-08-10T11:10:54.741Z</time>
      </trkpt>
      <trkpt lat="64.23651" lon="11.05494">
        <ele>151.63558</ele>
        <time>2020-08-10T11:10:56.727Z</time>
      </trkpt>
      <trkpt lat="64.23658" lon="11.05514">
        <ele>151.518261</ele>
        <time>2020-08-10T11:10:58.729Z</time>
      </trkpt>
      <trkpt lat="64.23665" lon="11.05533">
        <ele>151.406384</ele>
        <time>2020-08-10T11:11:00.803Z</time>
      </trkpt>
      <trkpt lat="64.23672" lon="11.05551">
        <ele>151.297906</ele>
        <time>2020-08-10T11:11:02.719Z</time>
      </trkpt>
      <trkpt lat="64.23679" lon="11.0557">
        <ele>151.186902</ele>
        <time>2020-08-10T11:11:04.727Z</time>
      </trkpt>
      <trkpt lat="64.23685" lon="11.0559">
        <ele>151.077678</ele>
        <time>2020-08-10T11:11:06.746Z</time>
      </trkpt>
      <trkpt lat="64.23691" lon="11.05609">
        <ele>150.967221</ele>
        <time>2020-08-10T11:11:08.755Z</time>
      </trkpt>
      <trkpt lat="64.23697" lon="11.05629">
        <ele>150.859427</ele>
        <time>2020-08-10T11:11:10.740Z</time>
      </trkpt>
      <trkpt lat="64.23703" lon="11.05649">
        <ele>150.749215</ele>
        <time>2020-08-10T11:11:12.751Z</time>
      </trkpt>
      <trkpt lat="64.23709" lon="11.05671">
        <ele>151.043993</ele>
        <time>2020-08-10T11:11:14.728Z</time>
      </trkpt>
      <trkpt lat="64.23714" lon="11.05692">
        <ele>151.38755</ele>
        <time>2020-08-10T11:11:16.758Z</time>
      </trkpt>
      <trkpt lat="64.23719" lon="11.05711">
        <ele>151.700575</ele>
        <time>2020-08-10T11:11:18.736Z</time>
      </trkpt>
      <trkpt lat="64.23723" lon="11.05732">
        <ele>152.013065</ele>
        <time>2020-08-10T11:11:20.726Z</time>
      </trkpt>
      <trkpt lat="64.23727" lon="11.05751">
        <ele>152.319629</ele>
        <time>2020-08-10T11:11:22.746Z</time>
      </trkpt>
      <trkpt lat="64.23732" lon="11.0577">
        <ele>152.620881</ele>
        <time>2020-08-10T11:11:24.776Z</time>
      </trkpt>
      <trkpt lat="64.23737" lon="11.05787">
        <ele>152.92831</ele>
        <time>2020-08-10T11:11:26.726Z</time>
      </trkpt>
      <trkpt lat="64.23744" lon="11.05804">
        <ele>153.234104</ele>
        <time>2020-08-10T11:11:28.731Z</time>
      </trkpt>
      <trkpt lat="64.23751" lon="11.05819">
        <ele>153.542664</ele>
        <time>2020-08-10T11:11:30.733Z</time>
      </trkpt>
      <trkpt lat="64.23759" lon="11.0583">
        <ele>153.857245</ele>
        <time>2020-08-10T11:11:32.754Z</time>
      </trkpt>
      <trkpt lat="64.23769" lon="11.05836">
        <ele>154.177764</ele>
        <time>2020-08-10T11:11:34.725Z</time>
      </trkpt>
      <trkpt lat="64.23779" lon="11.05837">
        <ele>154.519969</ele>
        <time>2020-08-10T11:11:36.766Z</time>
      </trkpt>
      <trkpt lat="64.23789" lon="11.05836">
        <ele>154.833659</ele>
        <time>2020-08-10T11:11:38.760Z</time>
      </trkpt>
      <trkpt lat="64.23799" lon="11.05833">
        <ele>155.173629</ele>
        <time>2020-08-10T11:11:40.736Z</time>
      </trkpt>
      <trkpt lat="64.2381" lon="11.05831">
        <ele>155.52683</ele>
        <time>2020-08-10T11:11:42.752Z</time>
      </trkpt>
      <trkpt lat="64.2382" lon="11.05829">
        <ele>155.837758</ele>
        <time>2020-08-10T11:11:44.727Z</time>
      </trkpt>
      <trkpt lat="64.23829" lon="11.05826">
        <ele>156.133546</ele>
        <time>2020-08-10T11:11:46.742Z</time>
      </trkpt>
      <trkpt lat="64.23842" lon="11.05824">
        <ele>156.558991</ele>
        <time>2020-08-10T11:11:49.758Z</time>
      </trkpt>
      <trkpt lat="64.23854" lon="11.05824">
        <ele>157.049532</ele>
        <time>2020-08-10T11:11:52.725Z</time>
      </trkpt>
      <trkpt lat="64.23863" lon="11.05821">
        <ele>157.436985</ele>
        <time>2020-08-10T11:11:55.757Z</time>
      </trkpt>
      <trkpt lat="64.23875" lon="11.05819">
        <ele>157.916093</ele>
        <time>2020-08-10T11:11:59.726Z</time>
      </trkpt>
      <trkpt lat="64.23886" lon="11.05819">
        <ele>158.35348</ele>
        <time>2020-08-10T11:12:03.750Z</time>
      </trkpt>
      <trkpt lat="64.23896" lon="11.05815">
        <ele>158.768084</ele>
        <time>2020-08-10T11:12:07.738Z</time>
      </trkpt>
      <trkpt lat="64.23906" lon="11.05815">
        <ele>159.197299</ele>
        <time>2020-08-10T11:12:11.729Z</time>
      </trkpt>
      <trkpt lat="64.23917" lon="11.05818">
        <ele>159.636429</ele>
        <time>2020-08-10T11:12:15.727Z</time>
      </trkpt>
      <trkpt lat="64.23926" lon="11.05822">
        <ele>160.010098</ele>
        <time>2020-08-10T11:12:18.735Z</time>
      </trkpt>
      <trkpt lat="64.23937" lon="11.05826">
        <ele>160.461015</ele>
        <time>2020-08-10T11:12:22.737Z</time>
      </trkpt>
      <trkpt lat="64.23945" lon="11.05833">
        <ele>160.832738</ele>
        <time>2020-08-10T11:12:26.734Z</time>
      </trkpt>
      <trkpt lat="64.23956" lon="11.05843">
        <ele>161.290797</ele>
        <time>2020-08-10T11:12:31.730Z</time>
      </trkpt>
      <trkpt lat="64.23964" lon="11.0585">
        <ele>161.668019</ele>
        <time>2020-08-10T11:12:35.784Z</time>
      </trkpt>
      <trkpt lat="64.23973" lon="11.05863">
        <ele>162.103079</ele>
        <time>2020-08-10T11:12:40.762Z</time>
      </trkpt>
      <trkpt lat="64.2398" lon="11.05877">
        <ele>162.474468</ele>
        <time>2020-08-10T11:12:45.726Z</time>
      </trkpt>
      <trkpt lat="64.23989" lon="11.05892">
        <ele>162.912348</ele>
        <time>2020-08-10T11:12:51.749Z</time>
      </trkpt>
      <trkpt lat="64.23997" lon="11.05906">
        <ele>163.335292</ele>
        <time>2020-08-10T11:12:56.752Z</time>
      </trkpt>
      <trkpt lat="64.24004" lon="11.05924">
        <ele>163.757762</ele>
        <time>2020-08-10T11:13:01.759Z</time>
      </trkpt>
      <trkpt lat="64.2401" lon="11.05943">
        <ele>164.175791</ele>
        <time>2020-08-10T11:13:06.726Z</time>
      </trkpt>
      <trkpt lat="64.24015" lon="11.05962">
        <ele>164.578863</ele>
        <time>2020-08-10T11:13:11.732Z</time>
      </trkpt>
      <trkpt lat="64.24019" lon="11.05983">
        <ele>165.000951</ele>
        <time>2020-08-10T11:13:17.735Z</time>
      </trkpt>
      <trkpt lat="64.24023" lon="11.06006">
        <ele>165.430507</ele>
        <time>2020-08-10T11:13:23.736Z</time>
      </trkpt>
      <trkpt lat="64.24025" lon="11.06028">
        <ele>165.832075</ele>
        <time>2020-08-10T11:13:29.763Z</time>
      </trkpt>
      <trkpt lat="64.24029" lon="11.0605">
        <ele>166.255907</ele>
        <time>2020-08-10T11:13:35.764Z</time>
      </trkpt>
      <trkpt lat="64.24031" lon="11.06071">
        <ele>166.630758</ele>
        <time>2020-08-10T11:13:40.743Z</time>
      </trkpt>
      <trkpt lat="64.24034" lon="11.06091">
        <ele>167.009859</ele>
        <time>2020-08-10T11:13:45.720Z</time>
      </trkpt>
      <trkpt lat="64.24037" lon="11.06113">
        <ele>167.432322</ele>
        <time>2020-08-10T11:13:51.731Z</time>
      </trkpt>
      <trkpt lat="64.2404" lon="11.06136">
        <ele>167.862387</ele>
        <time>2020-08-10T11:13:57.749Z</time>
      </trkpt>
      <trkpt lat="64.24043" lon="11.06158">
        <ele>168.268155</ele>
        <time>2020-08-10T11:14:03.770Z</time>
      </trkpt>
      <trkpt lat="64.24047" lon="11.06179">
        <ele>168.682987</ele>
        <time>2020-08-10T11:14:09.769Z</time>
      </trkpt>
      <trkpt lat="64.2405" lon="11.06199">
        <ele>169.055046</ele>
        <time>2020-08-10T11:14:15.728Z</time>
      </trkpt>
      <trkpt lat="64.24053" lon="11.06222">
        <ele>169.478641</ele>
        <time>2020-08-10T11:14:21.724Z</time>
      </trkpt>
      <trkpt lat="64.24057" lon="11.06241">
        <ele>169.858404</ele>
        <time>2020-08-10T11:14:26.758Z</time>
      </trkpt>
      <trkpt lat="64.24058" lon="11.06262">
        <ele>170.235201</ele>
        <time>2020-08-10T11:14:32.738Z</time>
      </trkpt>
      <trkpt lat="64.24062" lon="11.06283">
        <ele>170.637652</ele>
        <time>2020-08-10T11:14:38.766Z</time>
      </trkpt>
      <trkpt lat="64.24065" lon="11.06304">
        <ele>171.030273</ele>
        <time>2020-08-10T11:14:44.737Z</time>
      </trkpt>
      <trkpt lat="64.24068" lon="11.06326">
        <ele>171.340408</ele>
        <time>2020-08-10T11:14:50.710Z</time>
      </trkpt>
      <trkpt lat="64.24071" lon="11.06346">
        <ele>171.480667</ele>
        <time>2020-08-10T11:14:55.738Z</time>
      </trkpt>
      <trkpt lat="64.24075" lon="11.06366">
        <ele>171.62425</ele>
        <time>2020-08-10T11:15:00.748Z</time>
      </trkpt>
      <trkpt lat="64.24077" lon="11.06387">
        <ele>171.765085</ele>
        <time>2020-08-10T11:15:05.761Z</time>
      </trkpt>
      <trkpt lat="64.2408" lon="11.06408">
        <ele>171.917456</ele>
        <time>2020-08-10T11:15:10.759Z</time>
      </trkpt>
      <trkpt lat="64.24085" lon="11.06427">
        <ele>172.061467</ele>
        <time>2020-08-10T11:15:15.758Z</time>
      </trkpt>
      <trkpt lat="64.24089" lon="11.06447">
        <ele>172.212376</ele>
        <time>2020-08-10T11:15:20.747Z</time>
      </trkpt>
      <trkpt lat="64.24092" lon="11.06469">
        <ele>172.362857</ele>
        <time>2020-08-10T11:15:25.726Z</time>
      </trkpt>
      <trkpt lat="64.24094" lon="11.06491">
        <ele>172.517185</ele>
        <time>2020-08-10T11:15:30.738Z</time>
      </trkpt>
      <trkpt lat="64.24097" lon="11.06514">
        <ele>172.678494</ele>
        <time>2020-08-10T11:15:35.759Z</time>
      </trkpt>
      <trkpt lat="64.24101" lon="11.06538">
        <ele>172.845129</ele>
        <time>2020-08-10T11:15:40.719Z</time>
      </trkpt>
      <trkpt lat="64.24104" lon="11.06561">
        <ele>173.007473</ele>
        <time>2020-08-10T11:15:45.749Z</time>
      </trkpt>
      <trkpt lat="64.24107" lon="11.06585">
        <ele>173.176923</ele>
        <time>2020-08-10T11:15:50.736Z</time>
      </trkpt>
      <trkpt lat="64.24111" lon="11.06609">
        <ele>173.344499</ele>
        <time>2020-08-10T11:15:55.722Z</time>
      </trkpt>
      <trkpt lat="64.24114" lon="11.06633">
        <ele>173.512893</ele>
        <time>2020-08-10T11:16:00.718Z</time>
      </trkpt>
      <trkpt lat="64.24116" lon="11.06655">
        <ele>173.665655</ele>
        <time>2020-08-10T11:16:04.726Z</time>
      </trkpt>
      <trkpt lat="64.24119" lon="11.06678">
        <ele>173.826763</ele>
        <time>2020-08-10T11:16:08.750Z</time>
      </trkpt>
      <trkpt lat="64.24123" lon="11.06697">
        <ele>173.96527</ele>
        <time>2020-08-10T11:16:11.721Z</time>
      </trkpt>
      <trkpt lat="64.24127" lon="11.0672">
        <ele>173.951057</ele>
        <time>2020-08-10T11:16:14.735Z</time>
      </trkpt>
      <trkpt lat="64.24132" lon="11.06748">
        <ele>173.763673</ele>
        <time>2020-08-10T11:16:17.751Z</time>
      </trkpt>
      <trkpt lat="64.24135" lon="11.06771">
        <ele>173.615017</ele>
        <time>2020-08-10T11:16:19.743Z</time>
      </trkpt>
      <trkpt lat="64.24139" lon="11.06795">
        <ele>173.455856</ele>
        <time>2020-08-10T11:16:21.760Z</time>
      </trkpt>
      <trkpt lat="64.24142" lon="11.06821">
        <ele>173.282754</ele>
        <time>2020-08-10T11:16:23.744Z</time>
      </trkpt>
      <trkpt lat="64.24147" lon="11.0685">
        <ele>173.096136</ele>
        <time>2020-08-10T11:16:25.750Z</time>
      </trkpt>
      <trkpt lat="64.24152" lon="11.06881">
        <ele>172.889791</ele>
        <time>2020-08-10T11:16:27.725Z</time>
      </trkpt>
      <trkpt lat="64.24157" lon="11.06914">
        <ele>172.666901</ele>
        <time>2020-08-10T11:16:29.749Z</time>
      </trkpt>
      <trkpt lat="64.24162" lon="11.06949">
        <ele>172.437847</ele>
        <time>2020-08-10T11:16:31.726Z</time>
      </trkpt>
      <trkpt lat="64.24167" lon="11.06984">
        <ele>172.206893</ele>
        <time>2020-08-10T11:16:33.728Z</time>
      </trkpt>
      <trkpt lat="64.24173" lon="11.0702">
        <ele>171.966406</ele>
        <time>2020-08-10T11:16:35.738Z</time>
      </trkpt>
      <trkpt lat="64.24178" lon="11.07057">
        <ele>171.72374</ele>
        <time>2020-08-10T11:16:37.736Z</time>
      </trkpt>
      <trkpt lat="64.24183" lon="11.07094">
        <ele>171.48638</ele>
        <time>2020-08-10T11:16:39.744Z</time>
      </trkpt>
      <trkpt lat="64.24187" lon="11.07128">
        <ele>171.271689</ele>
        <time>2020-08-10T11:16:41.734Z</time>
      </trkpt>
      <trkpt lat="64.24192" lon="11.0716">
        <ele>171.067156</ele>
        <time>2020-08-10T11:16:43.783Z</time>
      </trkpt>
      <trkpt lat="64.24197" lon="11.07192">
        <ele>170.863139</ele>
        <time>2020-08-10T11:16:45.721Z</time>
      </trkpt>
      <trkpt lat="64.24203" lon="11.07221">
        <ele>170.669291</ele>
        <time>2020-08-10T11:16:47.729Z</time>
      </trkpt>
      <trkpt lat="64.24208" lon="11.0725">
        <ele>170.480326</ele>
        <time>2020-08-10T11:16:49.762Z</time>
      </trkpt>
      <trkpt lat="64.24212" lon="11.07281">
        <ele>170.289928</ele>
        <time>2020-08-10T11:16:51.740Z</time>
      </trkpt>
      <trkpt lat="64.24215" lon="11.07311">
        <ele>170.104692</ele>
        <time>2020-08-10T11:16:53.722Z</time>
      </trkpt>
      <trkpt lat="64.2422" lon="11.0734">
        <ele>169.919117</ele>
        <time>2020-08-10T11:16:55.726Z</time>
      </trkpt>
      <trkpt lat="64.24224" lon="11.07368">
        <ele>169.740427</ele>
        <time>2020-08-10T11:16:57.744Z</time>
      </trkpt>
      <trkpt lat="64.24228" lon="11.07395">
        <ele>169.56971</ele>
        <time>2020-08-10T11:16:59.761Z</time>
      </trkpt>
      <trkpt lat="64.24232" lon="11.07421">
        <ele>169.40285</ele>
        <time>2020-08-10T11:17:01.737Z</time>
      </trkpt>
      <trkpt lat="64.24235" lon="11.07447">
        <ele>169.241706</ele>
        <time>2020-08-10T11:17:03.740Z</time>
      </trkpt>
      <trkpt lat="64.24238" lon="11.07472">
        <ele>169.085793</ele>
        <time>2020-08-10T11:17:05.784Z</time>
      </trkpt>
      <trkpt lat="64.24241" lon="11.07494">
        <ele>168.871078</ele>
        <time>2020-08-10T11:17:07.728Z</time>
      </trkpt>
      <trkpt lat="64.24245" lon="11.07517">
        <ele>168.279596</ele>
        <time>2020-08-10T11:17:09.782Z</time>
      </trkpt>
      <trkpt lat="64.2425" lon="11.0754">
        <ele>167.675617</ele>
        <time>2020-08-10T11:17:11.746Z</time>
      </trkpt>
      <trkpt lat="64.24255" lon="11.07562">
        <ele>167.068742</ele>
        <time>2020-08-10T11:17:13.752Z</time>
      </trkpt>
      <trkpt lat="64.24261" lon="11.07585">
        <ele>166.440421</ele>
        <time>2020-08-10T11:17:15.737Z</time>
      </trkpt>
      <trkpt lat="64.24266" lon="11.0761">
        <ele>165.772235</ele>
        <time>2020-08-10T11:17:17.777Z</time>
      </trkpt>
      <trkpt lat="64.24272" lon="11.07637">
        <ele>165.045179</ele>
        <time>2020-08-10T11:17:19.763Z</time>
      </trkpt>
      <trkpt lat="64.24279" lon="11.07666">
        <ele>164.263327</ele>
        <time>2020-08-10T11:17:21.759Z</time>
      </trkpt>
      <trkpt lat="64.24286" lon="11.07697">
        <ele>163.421003</ele>
        <time>2020-08-10T11:17:23.754Z</time>
      </trkpt>
      <trkpt lat="64.24294" lon="11.07731">
        <ele>162.50294</ele>
        <time>2020-08-10T11:17:25.721Z</time>
      </trkpt>
      <trkpt lat="64.24302" lon="11.07765">
        <ele>161.551671</ele>
        <time>2020-08-10T11:17:27.780Z</time>
      </trkpt>
      <trkpt lat="64.24311" lon="11.078">
        <ele>160.60422</ele>
        <time>2020-08-10T11:17:29.735Z</time>
      </trkpt>
      <trkpt lat="64.24319" lon="11.07835">
        <ele>159.643092</ele>
        <time>2020-08-10T11:17:31.744Z</time>
      </trkpt>
      <trkpt lat="64.24327" lon="11.0787">
        <ele>158.77505</ele>
        <time>2020-08-10T11:17:33.747Z</time>
      </trkpt>
      <trkpt lat="64.24335" lon="11.07903">
        <ele>158.044746</ele>
        <time>2020-08-10T11:17:35.744Z</time>
      </trkpt>
      <trkpt lat="64.24343" lon="11.07937">
        <ele>157.314448</ele>
        <time>2020-08-10T11:17:37.725Z</time>
      </trkpt>
      <trkpt lat="64.2435" lon="11.0797">
        <ele>156.614069</ele>
        <time>2020-08-10T11:17:39.763Z</time>
      </trkpt>
      <trkpt lat="64.24354" lon="11.08002">
        <ele>155.955264</ele>
        <time>2020-08-10T11:17:41.731Z</time>
      </trkpt>
      <trkpt lat="64.24358" lon="11.08034">
        <ele>155.330161</ele>
        <time>2020-08-10T11:17:43.743Z</time>
      </trkpt>
      <trkpt lat="64.24361" lon="11.08065">
        <ele>154.722748</ele>
        <time>2020-08-10T11:17:45.766Z</time>
      </trkpt>
      <trkpt lat="64.24363" lon="11.08094">
        <ele>154.156674</ele>
        <time>2020-08-10T11:17:47.722Z</time>
      </trkpt>
      <trkpt lat="64.24365" lon="11.08122">
        <ele>153.612502</ele>
        <time>2020-08-10T11:17:49.753Z</time>
      </trkpt>
      <trkpt lat="64.24367" lon="11.08149">
        <ele>153.088285</ele>
        <time>2020-08-10T11:17:51.732Z</time>
      </trkpt>
      <trkpt lat="64.24371" lon="11.08175">
        <ele>152.571705</ele>
        <time>2020-08-10T11:17:53.772Z</time>
      </trkpt>
      <trkpt lat="64.24375" lon="11.082">
        <ele>152.05892</ele>
        <time>2020-08-10T11:17:55.742Z</time>
      </trkpt>
      <trkpt lat="64.2438" lon="11.08225">
        <ele>151.522242</ele>
        <time>2020-08-10T11:17:57.749Z</time>
      </trkpt>
      <trkpt lat="64.24386" lon="11.08251">
        <ele>150.972609</ele>
        <time>2020-08-10T11:17:59.750Z</time>
      </trkpt>
      <trkpt lat="64.24391" lon="11.08275">
        <ele>150.456751</ele>
        <time>2020-08-10T11:18:01.724Z</time>
      </trkpt>
      <trkpt lat="64.24398" lon="11.083">
        <ele>149.934884</ele>
        <time>2020-08-10T11:18:03.751Z</time>
      </trkpt>
      <trkpt lat="64.24404" lon="11.08323">
        <ele>149.435798</ele>
        <time>2020-08-10T11:18:05.737Z</time>
      </trkpt>
      <trkpt lat="64.2441" lon="11.08344">
        <ele>148.97741</ele>
        <time>2020-08-10T11:18:07.725Z</time>
      </trkpt>
      <trkpt lat="64.24416" lon="11.08365">
        <ele>148.507545</ele>
        <time>2020-08-10T11:18:09.741Z</time>
      </trkpt>
      <trkpt lat="64.24423" lon="11.08385">
        <ele>148.02816</ele>
        <time>2020-08-10T11:18:11.735Z</time>
      </trkpt>
      <trkpt lat="64.2443" lon="11.08405">
        <ele>147.549312</ele>
        <time>2020-08-10T11:18:13.757Z</time>
      </trkpt>
      <trkpt lat="64.24438" lon="11.08424">
        <ele>147.079295</ele>
        <time>2020-08-10T11:18:15.766Z</time>
      </trkpt>
      <trkpt lat="64.24446" lon="11.08441">
        <ele>146.613522</ele>
        <time>2020-08-10T11:18:17.743Z</time>
      </trkpt>
      <trkpt lat="64.24455" lon="11.08458">
        <ele>146.116406</ele>
        <time>2020-08-10T11:18:19.740Z</time>
      </trkpt>
      <trkpt lat="64.24465" lon="11.08475">
        <ele>145.612708</ele>
        <time>2020-08-10T11:18:21.735Z</time>
      </trkpt>
      <trkpt lat="64.24473" lon="11.08492">
        <ele>145.143235</ele>
        <time>2020-08-10T11:18:23.730Z</time>
      </trkpt>
      <trkpt lat="64.24481" lon="11.08509">
        <ele>144.675</ele>
        <time>2020-08-10T11:18:25.768Z</time>
      </trkpt>
      <trkpt lat="64.24489" lon="11.08527">
        <ele>144.20923</ele>
        <time>2020-08-10T11:18:27.759Z</time>
      </trkpt>
      <trkpt lat="64.24496" lon="11.08544">
        <ele>143.766799</ele>
        <time>2020-08-10T11:18:29.742Z</time>
      </trkpt>
      <trkpt lat="64.24504" lon="11.08561">
        <ele>143.828637</ele>
        <time>2020-08-10T11:18:31.787Z</time>
      </trkpt>
      <trkpt lat="64.24511" lon="11.08579">
        <ele>144.562346</ele>
        <time>2020-08-10T11:18:33.729Z</time>
      </trkpt>
      <trkpt lat="64.24518" lon="11.08598">
        <ele>145.308295</ele>
        <time>2020-08-10T11:18:35.747Z</time>
      </trkpt>
      <trkpt lat="64.24527" lon="11.08616">
        <ele>146.075276</ele>
        <time>2020-08-10T11:18:37.739Z</time>
      </trkpt>
      <trkpt lat="64.24534" lon="11.08633">
        <ele>146.804744</ele>
        <time>2020-08-10T11:18:39.729Z</time>
      </trkpt>
      <trkpt lat="64.24541" lon="11.08651">
        <ele>147.521638</ele>
        <time>2020-08-10T11:18:41.758Z</time>
      </trkpt>
      <trkpt lat="64.24547" lon="11.08669">
        <ele>148.200458</ele>
        <time>2020-08-10T11:18:43.727Z</time>
      </trkpt>
      <trkpt lat="64.24554" lon="11.08686">
        <ele>148.854594</ele>
        <time>2020-08-10T11:18:45.746Z</time>
      </trkpt>
      <trkpt lat="64.24562" lon="11.08707">
        <ele>149.715043</ele>
        <time>2020-08-10T11:18:48.735Z</time>
      </trkpt>
      <trkpt lat="64.24569" lon="11.08727">
        <ele>150.487936</ele>
        <time>2020-08-10T11:18:51.730Z</time>
      </trkpt>
      <trkpt lat="64.24576" lon="11.08744">
        <ele>151.160091</ele>
        <time>2020-08-10T11:18:54.734Z</time>
      </trkpt>
      <trkpt lat="64.24582" lon="11.08764">
        <ele>151.906051</ele>
        <time>2020-08-10T11:18:58.726Z</time>
      </trkpt>
      <trkpt lat="64.24587" lon="11.08785">
        <ele>152.60028</ele>
        <time>2020-08-10T11:19:02.737Z</time>
      </trkpt>
      <trkpt lat="64.24594" lon="11.08805">
        <ele>153.346997</ele>
        <time>2020-08-10T11:19:07.737Z</time>
      </trkpt>
      <trkpt lat="64.24599" lon="11.08825">
        <ele>154.050599</ele>
        <time>2020-08-10T11:19:12.744Z</time>
      </trkpt>
      <trkpt lat="64.24606" lon="11.08842">
        <ele>154.741356</ele>
        <time>2020-08-10T11:19:17.740Z</time>
      </trkpt>
      <trkpt lat="64.24613" lon="11.0886">
        <ele>155.443132</ele>
        <time>2020-08-10T11:19:23.730Z</time>
      </trkpt>
      <trkpt lat="64.24619" lon="11.08876">
        <ele>155.908482</ele>
        <time>2020-08-10T11:19:28.786Z</time>
      </trkpt>
      <trkpt lat="64.24625" lon="11.08896">
        <ele>156.200745</ele>
        <time>2020-08-10T11:19:34.736Z</time>
      </trkpt>
      <trkpt lat="64.24627" lon="11.0892">
        <ele>156.502947</ele>
        <time>2020-08-10T11:19:40.733Z</time>
      </trkpt>
      <trkpt lat="64.24626" lon="11.08943">
        <ele>156.78912</ele>
        <time>2020-08-10T11:19:45.752Z</time>
      </trkpt>
      <trkpt lat="64.2463" lon="11.08969">
        <ele>157.115863</ele>
        <time>2020-08-10T11:19:50.751Z</time>
      </trkpt>
      <trkpt lat="64.24635" lon="11.08991">
        <ele>157.427898</ele>
        <time>2020-08-10T11:19:53.780Z</time>
      </trkpt>
      <trkpt lat="64.24639" lon="11.09009">
        <ele>157.682481</ele>
        <time>2020-08-10T11:19:55.755Z</time>
      </trkpt>
      <trkpt lat="64.24643" lon="11.09029">
        <ele>157.940322</ele>
        <time>2020-08-10T11:19:57.735Z</time>
      </trkpt>
      <trkpt lat="64.24642" lon="11.09057">
        <ele>158.285411</ele>
        <time>2020-08-10T11:20:00.766Z</time>
      </trkpt>
      <trkpt lat="64.24634" lon="11.09084">
        <ele>158.665578</ele>
        <time>2020-08-10T11:20:03.765Z</time>
      </trkpt>
      <trkpt lat="64.24629" lon="11.09103">
        <ele>158.940961</ele>
        <time>2020-08-10T11:20:05.750Z</time>
      </trkpt>
      <trkpt lat="64.24625" lon="11.09121">
        <ele>159.193923</ele>
        <time>2020-08-10T11:20:07.726Z</time>
      </trkpt>
      <trkpt lat="64.24618" lon="11.09146">
        <ele>159.553845</ele>
        <time>2020-08-10T11:20:10.746Z</time>
      </trkpt>
      <trkpt lat="64.24614" lon="11.09167">
        <ele>159.832721</ele>
        <time>2020-08-10T11:20:13.767Z</time>
      </trkpt>
      <trkpt lat="64.24608" lon="11.09189">
        <ele>160.152162</ele>
        <time>2020-08-10T11:20:17.758Z</time>
      </trkpt>
      <trkpt lat="64.24602" lon="11.09208">
        <ele>160.43017</ele>
        <time>2020-08-10T11:20:21.790Z</time>
      </trkpt>
      <trkpt lat="64.24596" lon="11.09226">
        <ele>160.709555</ele>
        <time>2020-08-10T11:20:25.744Z</time>
      </trkpt>
      <trkpt lat="64.2459" lon="11.09244">
        <ele>161.132493</ele>
        <time>2020-08-10T11:20:29.739Z</time>
      </trkpt>
      <trkpt lat="64.24579" lon="11.09261">
        <ele>161.877737</ele>
        <time>2020-08-10T11:20:33.736Z</time>
      </trkpt>
      <trkpt lat="64.2457" lon="11.09269">
        <ele>162.456998</ele>
        <time>2020-08-10T11:20:35.735Z</time>
      </trkpt>
      <trkpt lat="64.24559" lon="11.09276">
        <ele>163.058888</ele>
        <time>2020-08-10T11:20:37.821Z</time>
      </trkpt>
      <trkpt lat="64.24549" lon="11.09283">
        <ele>163.643736</ele>
        <time>2020-08-10T11:20:39.729Z</time>
      </trkpt>
      <trkpt lat="64.24541" lon="11.09289">
        <ele>164.17508</ele>
        <time>2020-08-10T11:20:41.727Z</time>
      </trkpt>
      <trkpt lat="64.24529" lon="11.09298">
        <ele>164.873527</ele>
        <time>2020-08-10T11:20:44.744Z</time>
      </trkpt>
      <trkpt lat="64.24519" lon="11.09307">
        <ele>165.486327</ele>
        <time>2020-08-10T11:20:47.754Z</time>
      </trkpt>
      <trkpt lat="64.2451" lon="11.09321">
        <ele>166.072348</ele>
        <time>2020-08-10T11:20:51.725Z</time>
      </trkpt>
      <trkpt lat="64.24504" lon="11.09338">
        <ele>166.64742</ele>
        <time>2020-08-10T11:20:57.726Z</time>
      </trkpt>
      <trkpt lat="64.24501" lon="11.09359">
        <ele>167.190122</ele>
        <time>2020-08-10T11:21:05.755Z</time>
      </trkpt>
      <trkpt lat="64.24501" lon="11.09382">
        <ele>167.744914</ele>
        <time>2020-08-10T11:21:13.725Z</time>
      </trkpt>
      <trkpt lat="64.24501" lon="11.09403">
        <ele>168.262817</ele>
        <time>2020-08-10T11:21:20.723Z</time>
      </trkpt>
      <trkpt lat="64.24504" lon="11.09425">
        <ele>168.841854</ele>
        <time>2020-08-10T11:21:27.738Z</time>
      </trkpt>
      <trkpt lat="64.24507" lon="11.09447">
        <ele>169.412932</ele>
        <time>2020-08-10T11:21:35.727Z</time>
      </trkpt>
      <trkpt lat="64.24511" lon="11.09468">
        <ele>169.978272</ele>
        <time>2020-08-10T11:21:42.739Z</time>
      </trkpt>
      <trkpt lat="64.24514" lon="11.0949">
        <ele>170.555661</ele>
        <time>2020-08-10T11:21:49.745Z</time>
      </trkpt>
      <trkpt lat="64.24518" lon="11.09512">
        <ele>171.171598</ele>
        <time>2020-08-10T11:21:56.727Z</time>
      </trkpt>
      <trkpt lat="64.24524" lon="11.09531">
        <ele>171.874678</ele>
        <time>2020-08-10T11:22:01.768Z</time>
      </trkpt>
      <trkpt lat="64.24528" lon="11.09551">
        <ele>172.550767</ele>
        <time>2020-08-10T11:22:06.728Z</time>
      </trkpt>
      <trkpt lat="64.24534" lon="11.09569">
        <ele>173.26217</ele>
        <time>2020-08-10T11:22:11.735Z</time>
      </trkpt>
      <trkpt lat="64.24541" lon="11.09586">
        <ele>173.970644</ele>
        <time>2020-08-10T11:22:16.735Z</time>
      </trkpt>
      <trkpt lat="64.24549" lon="11.09602">
        <ele>174.672735</ele>
        <time>2020-08-10T11:22:21.741Z</time>
      </trkpt>
      <trkpt lat="64.24556" lon="11.09615">
        <ele>175.355766</ele>
        <time>2020-08-10T11:22:25.738Z</time>
      </trkpt>
      <trkpt lat="64.24564" lon="11.09629">
        <ele>176.031321</ele>
        <time>2020-08-10T11:22:29.742Z</time>
      </trkpt>
      <trkpt lat="64.24573" lon="11.09644">
        <ele>176.833547</ele>
        <time>2020-08-10T11:22:33.744Z</time>
      </trkpt>
      <trkpt lat="64.2458" lon="11.09656">
        <ele>177.475805</ele>
        <time>2020-08-10T11:22:36.746Z</time>
      </trkpt>
      <trkpt lat="64.24589" lon="11.0967">
        <ele>178.190556</ele>
        <time>2020-08-10T11:22:39.740Z</time>
      </trkpt>
      <trkpt lat="64.24598" lon="11.09688">
        <ele>179.042151</ele>
        <time>2020-08-10T11:22:42.792Z</time>
      </trkpt>
      <trkpt lat="64.24607" lon="11.09707">
        <ele>179.922398</ele>
        <time>2020-08-10T11:22:45.733Z</time>
      </trkpt>
      <trkpt lat="64.24615" lon="11.09726">
        <ele>180.73398</ele>
        <time>2020-08-10T11:22:48.750Z</time>
      </trkpt>
      <trkpt lat="64.24623" lon="11.09747">
        <ele>181.557963</ele>
        <time>2020-08-10T11:22:51.777Z</time>
      </trkpt>
      <trkpt lat="64.2463" lon="11.09768">
        <ele>182.383546</ele>
        <time>2020-08-10T11:22:54.728Z</time>
      </trkpt>
      <trkpt lat="64.24636" lon="11.0979">
        <ele>183.157217</ele>
        <time>2020-08-10T11:22:57.758Z</time>
      </trkpt>
      <trkpt lat="64.24642" lon="11.0981">
        <ele>183.601714</ele>
        <time>2020-08-10T11:23:00.736Z</time>
      </trkpt>
      <trkpt lat="64.24649" lon="11.0983">
        <ele>183.200188</ele>
        <time>2020-08-10T11:23:03.722Z</time>
      </trkpt>
      <trkpt lat="64.24656" lon="11.09852">
        <ele>182.761942</ele>
        <time>2020-08-10T11:23:06.734Z</time>
      </trkpt>
      <trkpt lat="64.24663" lon="11.09874">
        <ele>182.336649</ele>
        <time>2020-08-10T11:23:09.759Z</time>
      </trkpt>
      <trkpt lat="64.24668" lon="11.09896">
        <ele>181.932661</ele>
        <time>2020-08-10T11:23:12.730Z</time>
      </trkpt>
      <trkpt lat="64.24674" lon="11.09917">
        <ele>181.546356</ele>
        <time>2020-08-10T11:23:15.747Z</time>
      </trkpt>
      <trkpt lat="64.24679" lon="11.09938">
        <ele>181.149873</ele>
        <time>2020-08-10T11:23:18.745Z</time>
      </trkpt>
      <trkpt lat="64.24683" lon="11.09963">
        <ele>180.724193</ele>
        <time>2020-08-10T11:23:22.746Z</time>
      </trkpt>
      <trkpt lat="64.24685" lon="11.09986">
        <ele>180.360052</ele>
        <time>2020-08-10T11:23:26.725Z</time>
      </trkpt>
      <trkpt lat="64.24687" lon="11.10008">
        <ele>180.007639</ele>
        <time>2020-08-10T11:23:31.739Z</time>
      </trkpt>
      <trkpt lat="64.24688" lon="11.10031">
        <ele>179.629989</ele>
        <time>2020-08-10T11:23:36.731Z</time>
      </trkpt>
      <trkpt lat="64.24686" lon="11.10056">
        <ele>179.230982</ele>
        <time>2020-08-10T11:23:41.749Z</time>
      </trkpt>
      <trkpt lat="64.24683" lon="11.1008">
        <ele>178.83405</ele>
        <time>2020-08-10T11:23:46.758Z</time>
      </trkpt>
      <trkpt lat="64.24679" lon="11.10099">
        <ele>178.495117</ele>
        <time>2020-08-10T11:23:50.745Z</time>
      </trkpt>
      <trkpt lat="64.24674" lon="11.10117">
        <ele>178.143074</ele>
        <time>2020-08-10T11:23:54.726Z</time>
      </trkpt>
      <trkpt lat="64.24667" lon="11.10138">
        <ele>177.744959</ele>
        <time>2020-08-10T11:23:58.743Z</time>
      </trkpt>
      <trkpt lat="64.2466" lon="11.10158">
        <ele>177.322707</ele>
        <time>2020-08-10T11:24:02.741Z</time>
      </trkpt>
      <trkpt lat="64.24653" lon="11.10174">
        <ele>177.058524</ele>
        <time>2020-08-10T11:24:05.735Z</time>
      </trkpt>
      <trkpt lat="64.24645" lon="11.10192">
        <ele>176.869995</ele>
        <time>2020-08-10T11:24:08.745Z</time>
      </trkpt>
      <trkpt lat="64.24636" lon="11.10212">
        <ele>176.667434</ele>
        <time>2020-08-10T11:24:11.740Z</time>
      </trkpt>
      <trkpt lat="64.24628" lon="11.1023">
        <ele>176.483297</ele>
        <time>2020-08-10T11:24:14.749Z</time>
      </trkpt>
      <trkpt lat="64.24621" lon="11.10248">
        <ele>176.303313</ele>
        <time>2020-08-10T11:24:17.745Z</time>
      </trkpt>
      <trkpt lat="64.24613" lon="11.10266">
        <ele>176.123329</ele>
        <time>2020-08-10T11:24:20.782Z</time>
      </trkpt>
      <trkpt lat="64.24607" lon="11.10285">
        <ele>175.948803</ele>
        <time>2020-08-10T11:24:23.734Z</time>
      </trkpt>
      <trkpt lat="64.24601" lon="11.10303">
        <ele>175.78472</ele>
        <time>2020-08-10T11:24:26.753Z</time>
      </trkpt>
      <trkpt lat="64.24595" lon="11.1032">
        <ele>175.630012</ele>
        <time>2020-08-10T11:24:29.728Z</time>
      </trkpt>
      <trkpt lat="64.2459" lon="11.10338">
        <ele>175.476408</ele>
        <time>2020-08-10T11:24:32.744Z</time>
      </trkpt>
      <trkpt lat="64.24586" lon="11.10357">
        <ele>175.32127</ele>
        <time>2020-08-10T11:24:35.756Z</time>
      </trkpt>
      <trkpt lat="64.2458" lon="11.1038">
        <ele>175.129731</ele>
        <time>2020-08-10T11:24:39.733Z</time>
      </trkpt>
      <trkpt lat="64.24577" lon="11.10403">
        <ele>174.949896</ele>
        <time>2020-08-10T11:24:43.744Z</time>
      </trkpt>
      <trkpt lat="64.24584" lon="11.10444">
        <ele>174.628861</ele>
        <time>2020-08-10T11:26:08.750Z</time>
      </trkpt>
      <trkpt lat="64.2459" lon="11.10466">
        <ele>174.445606</ele>
        <time>2020-08-10T11:26:13.722Z</time>
      </trkpt>
      <trkpt lat="64.24595" lon="11.10485">
        <ele>174.281344</ele>
        <time>2020-08-10T11:26:18.784Z</time>
      </trkpt>
      <trkpt lat="64.24601" lon="11.10506">
        <ele>173.943644</ele>
        <time>2020-08-10T11:26:23.732Z</time>
      </trkpt>
      <trkpt lat="64.24609" lon="11.10544">
        <ele>172.294877</ele>
        <time>2020-08-10T11:26:58.740Z</time>
      </trkpt>
      <trkpt lat="64.24615" lon="11.10562">
        <ele>171.412685</ele>
        <time>2020-08-10T11:27:04.737Z</time>
      </trkpt>
      <trkpt lat="64.24624" lon="11.10574">
        <ele>170.495984</ele>
        <time>2020-08-10T11:27:08.731Z</time>
      </trkpt>
      <trkpt lat="64.24635" lon="11.10582">
        <ele>169.466778</ele>
        <time>2020-08-10T11:27:12.731Z</time>
      </trkpt>
      <trkpt lat="64.24644" lon="11.10587">
        <ele>168.661226</ele>
        <time>2020-08-10T11:27:15.737Z</time>
      </trkpt>
      <trkpt lat="64.24653" lon="11.1059">
        <ele>167.792887</ele>
        <time>2020-08-10T11:27:18.728Z</time>
      </trkpt>
      <trkpt lat="64.24663" lon="11.10588">
        <ele>166.962779</ele>
        <time>2020-08-10T11:27:21.745Z</time>
      </trkpt>
      <trkpt lat="64.24673" lon="11.10582">
        <ele>166.0508</ele>
        <time>2020-08-10T11:27:25.741Z</time>
      </trkpt>
      <trkpt lat="64.24684" lon="11.10573">
        <ele>165.022942</ele>
        <time>2020-08-10T11:27:29.751Z</time>
      </trkpt>
      <trkpt lat="64.24694" lon="11.10563">
        <ele>164.058974</ele>
        <time>2020-08-10T11:27:33.792Z</time>
      </trkpt>
      <trkpt lat="64.24703" lon="11.10557">
        <ele>163.197409</ele>
        <time>2020-08-10T11:27:36.743Z</time>
      </trkpt>
      <trkpt lat="64.24713" lon="11.10554">
        <ele>162.266839</ele>
        <time>2020-08-10T11:27:39.730Z</time>
      </trkpt>
      <trkpt lat="64.24724" lon="11.10554">
        <ele>161.298129</ele>
        <time>2020-08-10T11:27:42.747Z</time>
      </trkpt>
      <trkpt lat="64.24733" lon="11.10556">
        <ele>160.483654</ele>
        <time>2020-08-10T11:27:45.741Z</time>
      </trkpt>
      <trkpt lat="64.24744" lon="11.1056">
        <ele>159.521472</ele>
        <time>2020-08-10T11:27:49.737Z</time>
      </trkpt>
      <trkpt lat="64.24754" lon="11.10564">
        <ele>158.576852</ele>
        <time>2020-08-10T11:27:53.740Z</time>
      </trkpt>
      <trkpt lat="64.24764" lon="11.10567">
        <ele>158.373053</ele>
        <time>2020-08-10T11:27:56.737Z</time>
      </trkpt>
      <trkpt lat="64.24773" lon="11.1057">
        <ele>158.798688</ele>
        <time>2020-08-10T11:27:59.722Z</time>
      </trkpt>
      <trkpt lat="64.24782" lon="11.10575">
        <ele>159.222543</ele>
        <time>2020-08-10T11:28:02.741Z</time>
      </trkpt>
      <trkpt lat="64.24792" lon="11.10579">
        <ele>159.678402</ele>
        <time>2020-08-10T11:28:05.736Z</time>
      </trkpt>
      <trkpt lat="64.24801" lon="11.10582">
        <ele>160.087565</ele>
        <time>2020-08-10T11:28:08.733Z</time>
      </trkpt>
      <trkpt lat="64.24811" lon="11.10589">
        <ele>160.548605</ele>
        <time>2020-08-10T11:28:11.773Z</time>
      </trkpt>
      <trkpt lat="64.24818" lon="11.10602">
        <ele>160.961254</ele>
        <time>2020-08-10T11:28:14.745Z</time>
      </trkpt>
      <trkpt lat="64.24821" lon="11.10628">
        <ele>161.495143</ele>
        <time>2020-08-10T11:28:18.747Z</time>
      </trkpt>
      <trkpt lat="64.24818" lon="11.10652">
        <ele>161.986942</ele>
        <time>2020-08-10T11:28:22.742Z</time>
      </trkpt>
      <trkpt lat="64.24814" lon="11.10675">
        <ele>162.476453</ele>
        <time>2020-08-10T11:28:27.756Z</time>
      </trkpt>
      <trkpt lat="64.24812" lon="11.107">
        <ele>162.968788</ele>
        <time>2020-08-10T11:28:31.729Z</time>
      </trkpt>
      <trkpt lat="64.24808" lon="11.10722">
        <ele>163.442341</ele>
        <time>2020-08-10T11:28:34.736Z</time>
      </trkpt>
      <trkpt lat="64.24804" lon="11.10743">
        <ele>163.908643</ele>
        <time>2020-08-10T11:28:39.766Z</time>
      </trkpt>
      <trkpt lat="64.24801" lon="11.10763">
        <ele>164.322692</ele>
        <time>2020-08-10T11:29:01.744Z</time>
      </trkpt>
      <trkpt lat="64.24797" lon="11.10782">
        <ele>164.731425</ele>
        <time>2020-08-10T11:29:17.793Z</time>
      </trkpt>
      <trkpt lat="64.24793" lon="11.10801">
        <ele>165.155003</ele>
        <time>2020-08-10T11:29:32.760Z</time>
      </trkpt>
      <trkpt lat="64.24786" lon="11.10834">
        <ele>165.86778</ele>
        <time>2020-08-10T11:29:59.727Z</time>
      </trkpt>
      <trkpt lat="64.24784" lon="11.10854">
        <ele>166.286889</ele>
        <time>2020-08-10T11:30:14.723Z</time>
      </trkpt>
      <trkpt lat="64.2478" lon="11.10874">
        <ele>166.372655</ele>
        <time>2020-08-10T11:30:26.725Z</time>
      </trkpt>
      <trkpt lat="64.24778" lon="11.10894">
        <ele>166.433004</ele>
        <time>2020-08-10T11:30:37.751Z</time>
      </trkpt>
      <trkpt lat="64.24777" lon="11.10916">
        <ele>166.495647</ele>
        <time>2020-08-10T11:30:49.741Z</time>
      </trkpt>
      <trkpt lat="64.24778" lon="11.10937">
        <ele>166.555969</ele>
        <time>2020-08-10T11:30:58.738Z</time>
      </trkpt>
      <trkpt lat="64.24778" lon="11.1096">
        <ele>166.618721</ele>
        <time>2020-08-10T11:31:06.726Z</time>
      </trkpt>
      <trkpt lat="64.24781" lon="11.10981">
        <ele>166.681324</ele>
        <time>2020-08-10T11:31:15.733Z</time>
      </trkpt>
      <trkpt lat="64.24784" lon="11.11">
        <ele>166.740363</ele>
        <time>2020-08-10T11:31:24.744Z</time>
      </trkpt>
      <trkpt lat="64.24787" lon="11.11021">
        <ele>166.802904</ele>
        <time>2020-08-10T11:31:33.740Z</time>
      </trkpt>
      <trkpt lat="64.24791" lon="11.11042">
        <ele>166.866804</ele>
        <time>2020-08-10T11:31:42.742Z</time>
      </trkpt>
      <trkpt lat="64.24794" lon="11.11064">
        <ele>166.931968</ele>
        <time>2020-08-10T11:31:51.739Z</time>
      </trkpt>
      <trkpt lat="64.24796" lon="11.11112">
        <ele>167.069369</ele>
        <time>2020-08-10T11:32:31.752Z</time>
      </trkpt>
      <trkpt lat="64.24799" lon="11.11132">
        <ele>167.130037</ele>
        <time>2020-08-10T11:32:34.767Z</time>
      </trkpt>
      <trkpt lat="64.24802" lon="11.11153">
        <ele>167.189342</ele>
        <time>2020-08-10T11:32:37.744Z</time>
      </trkpt>
      <trkpt lat="64.24804" lon="11.11173">
        <ele>167.248461</ele>
        <time>2020-08-10T11:32:40.742Z</time>
      </trkpt>
      <trkpt lat="64.24807" lon="11.11194">
        <ele>167.312484</ele>
        <time>2020-08-10T11:32:43.772Z</time>
      </trkpt>
      <trkpt lat="64.2481" lon="11.11217">
        <ele>167.381221</ele>
        <time>2020-08-10T11:32:46.755Z</time>
      </trkpt>
      <trkpt lat="64.24813" lon="11.11242">
        <ele>167.454029</ele>
        <time>2020-08-10T11:32:49.749Z</time>
      </trkpt>
      <trkpt lat="64.24817" lon="11.1127">
        <ele>167.693598</ele>
        <time>2020-08-10T11:32:52.735Z</time>
      </trkpt>
      <trkpt lat="64.24821" lon="11.11297">
        <ele>168.025848</ele>
        <time>2020-08-10T11:32:55.759Z</time>
      </trkpt>
      <trkpt lat="64.24824" lon="11.11318">
        <ele>168.29344</ele>
        <time>2020-08-10T11:32:58.737Z</time>
      </trkpt>
      <trkpt lat="64.24827" lon="11.1134">
        <ele>168.575304</ele>
        <time>2020-08-10T11:33:02.734Z</time>
      </trkpt>
      <trkpt lat="64.2483" lon="11.11362">
        <ele>168.845782</ele>
        <time>2020-08-10T11:33:05.730Z</time>
      </trkpt>
      <trkpt lat="64.24834" lon="11.11388">
        <ele>169.174489</ele>
        <time>2020-08-10T11:33:08.734Z</time>
      </trkpt>
      <trkpt lat="64.24837" lon="11.11415">
        <ele>169.50982</ele>
        <time>2020-08-10T11:33:11.767Z</time>
      </trkpt>
      <trkpt lat="64.24842" lon="11.11442">
        <ele>169.856485</ele>
        <time>2020-08-10T11:33:14.750Z</time>
      </trkpt>
      <trkpt lat="64.24846" lon="11.11469">
        <ele>170.205399</ele>
        <time>2020-08-10T11:33:17.756Z</time>
      </trkpt>
      <trkpt lat="64.2485" lon="11.11499">
        <ele>170.576244</ele>
        <time>2020-08-10T11:33:20.754Z</time>
      </trkpt>
      <trkpt lat="64.24853" lon="11.1152">
        <ele>170.839996</ele>
        <time>2020-08-10T11:33:22.737Z</time>
      </trkpt>
      <trkpt lat="64.24856" lon="11.11541">
        <ele>171.104625</ele>
        <time>2020-08-10T11:33:24.734Z</time>
      </trkpt>
      <trkpt lat="64.24859" lon="11.11562">
        <ele>171.371792</ele>
        <time>2020-08-10T11:33:26.724Z</time>
      </trkpt>
      <trkpt lat="64.24864" lon="11.1159">
        <ele>171.733712</ele>
        <time>2020-08-10T11:33:29.722Z</time>
      </trkpt>
      <trkpt lat="64.24868" lon="11.11615">
        <ele>172.057129</ele>
        <time>2020-08-10T11:33:32.759Z</time>
      </trkpt>
      <trkpt lat="64.24872" lon="11.11641">
        <ele>172.386311</ele>
        <time>2020-08-10T11:33:35.735Z</time>
      </trkpt>
      <trkpt lat="64.24876" lon="11.11668">
        <ele>172.677519</ele>
        <time>2020-08-10T11:33:38.732Z</time>
      </trkpt>
      <trkpt lat="64.24878" lon="11.11693">
        <ele>172.938383</ele>
        <time>2020-08-10T11:33:41.747Z</time>
      </trkpt>
      <trkpt lat="64.2488" lon="11.11718">
        <ele>173.181427</ele>
        <time>2020-08-10T11:33:44.748Z</time>
      </trkpt>
      <trkpt lat="64.24879" lon="11.11739">
        <ele>173.3963</ele>
        <time>2020-08-10T11:33:47.758Z</time>
      </trkpt>
      <trkpt lat="64.24878" lon="11.11761">
        <ele>173.616477</ele>
        <time>2020-08-10T11:33:51.757Z</time>
      </trkpt>
      <trkpt lat="64.24875" lon="11.11781">
        <ele>173.821975</ele>
        <time>2020-08-10T11:33:55.754Z</time>
      </trkpt>
      <trkpt lat="64.24871" lon="11.11801">
        <ele>174.034567</ele>
        <time>2020-08-10T11:33:59.726Z</time>
      </trkpt>
      <trkpt lat="64.24868" lon="11.11825">
        <ele>174.287514</ele>
        <time>2020-08-10T11:34:03.736Z</time>
      </trkpt>
      <trkpt lat="64.24865" lon="11.11851">
        <ele>174.55512</ele>
        <time>2020-08-10T11:34:06.763Z</time>
      </trkpt>
      <trkpt lat="64.24863" lon="11.11872">
        <ele>174.76722</ele>
        <time>2020-08-10T11:34:08.727Z</time>
      </trkpt>
      <trkpt lat="64.24864" lon="11.119">
        <ele>175.040489</ele>
        <time>2020-08-10T11:34:11.732Z</time>
      </trkpt>
      <trkpt lat="64.24868" lon="11.11922">
        <ele>175.279535</ele>
        <time>2020-08-10T11:34:15.733Z</time>
      </trkpt>
      <trkpt lat="64.24873" lon="11.11943">
        <ele>175.515797</ele>
        <time>2020-08-10T11:34:19.735Z</time>
      </trkpt>
      <trkpt lat="64.24878" lon="11.11961">
        <ele>175.721179</ele>
        <time>2020-08-10T11:34:22.735Z</time>
      </trkpt>
      <trkpt lat="64.24883" lon="11.11982">
        <ele>175.955102</ele>
        <time>2020-08-10T11:34:25.736Z</time>
      </trkpt>
      <trkpt lat="64.24888" lon="11.12006">
        <ele>176.226425</ele>
        <time>2020-08-10T11:34:28.742Z</time>
      </trkpt>
      <trkpt lat="64.24893" lon="11.12031">
        <ele>176.495671</ele>
        <time>2020-08-10T11:34:31.761Z</time>
      </trkpt>
      <trkpt lat="64.24899" lon="11.12055">
        <ele>176.490662</ele>
        <time>2020-08-10T11:34:34.760Z</time>
      </trkpt>
      <trkpt lat="64.24904" lon="11.12079">
        <ele>176.420502</ele>
        <time>2020-08-10T11:34:37.741Z</time>
      </trkpt>
      <trkpt lat="64.24909" lon="11.12104">
        <ele>176.34712</ele>
        <time>2020-08-10T11:34:40.763Z</time>
      </trkpt>
      <trkpt lat="64.24913" lon="11.12133">
        <ele>176.264933</ele>
        <time>2020-08-10T11:34:43.726Z</time>
      </trkpt>
      <trkpt lat="64.24915" lon="11.12155">
        <ele>176.206228</ele>
        <time>2020-08-10T11:34:45.764Z</time>
      </trkpt>
      <trkpt lat="64.24916" lon="11.12179">
        <ele>176.140413</ele>
        <time>2020-08-10T11:34:47.735Z</time>
      </trkpt>
      <trkpt lat="64.24919" lon="11.12203">
        <ele>176.074783</ele>
        <time>2020-08-10T11:34:49.765Z</time>
      </trkpt>
      <trkpt lat="64.24922" lon="11.12225">
        <ele>176.013869</ele>
        <time>2020-08-10T11:34:51.737Z</time>
      </trkpt>
      <trkpt lat="64.24928" lon="11.12251">
        <ele>175.933196</ele>
        <time>2020-08-10T11:34:54.747Z</time>
      </trkpt>
      <trkpt lat="64.24934" lon="11.1227">
        <ele>175.870535</ele>
        <time>2020-08-10T11:34:56.736Z</time>
      </trkpt>
      <trkpt lat="64.24941" lon="11.12292">
        <ele>175.798689</ele>
        <time>2020-08-10T11:34:58.773Z</time>
      </trkpt>
      <trkpt lat="64.24946" lon="11.12315">
        <ele>175.728509</ele>
        <time>2020-08-10T11:35:00.742Z</time>
      </trkpt>
      <trkpt lat="64.2495" lon="11.12339">
        <ele>175.660557</ele>
        <time>2020-08-10T11:35:02.730Z</time>
      </trkpt>
      <trkpt lat="64.24953" lon="11.1236">
        <ele>175.602115</ele>
        <time>2020-08-10T11:35:04.753Z</time>
      </trkpt>
      <trkpt lat="64.24956" lon="11.12381">
        <ele>175.544788</ele>
        <time>2020-08-10T11:35:06.741Z</time>
      </trkpt>
      <trkpt lat="64.24958" lon="11.12401">
        <ele>175.488491</ele>
        <time>2020-08-10T11:35:08.747Z</time>
      </trkpt>
      <trkpt lat="64.24961" lon="11.12423">
        <ele>175.465872</ele>
        <time>2020-08-10T11:35:10.738Z</time>
      </trkpt>
      <trkpt lat="64.24963" lon="11.12446">
        <ele>175.52726</ele>
        <time>2020-08-10T11:35:12.726Z</time>
      </trkpt>
      <trkpt lat="64.24963" lon="11.12468">
        <ele>175.583186</ele>
        <time>2020-08-10T11:35:14.756Z</time>
      </trkpt>
      <trkpt lat="64.24964" lon="11.12493">
        <ele>175.649045</ele>
        <time>2020-08-10T11:35:17.726Z</time>
      </trkpt>
      <trkpt lat="64.24964" lon="11.12518">
        <ele>175.715948</ele>
        <time>2020-08-10T11:35:21.738Z</time>
      </trkpt>
      <trkpt lat="64.24963" lon="11.1254">
        <ele>175.771771</ele>
        <time>2020-08-10T11:35:25.729Z</time>
      </trkpt>
      <trkpt lat="64.24963" lon="11.12561">
        <ele>175.828745</ele>
        <time>2020-08-10T11:35:30.748Z</time>
      </trkpt>
      <trkpt lat="64.24963" lon="11.12586">
        <ele>175.891737</ele>
        <time>2020-08-10T11:35:36.774Z</time>
      </trkpt>
      <trkpt lat="64.24962" lon="11.12608">
        <ele>175.950908</ele>
        <time>2020-08-10T11:35:42.733Z</time>
      </trkpt>
      <trkpt lat="64.24962" lon="11.12629">
        <ele>176.005841</ele>
        <time>2020-08-10T11:35:48.751Z</time>
      </trkpt>
      <trkpt lat="64.24962" lon="11.1265">
        <ele>176.05995</ele>
        <time>2020-08-10T11:35:54.753Z</time>
      </trkpt>
      <trkpt lat="64.24962" lon="11.12672">
        <ele>176.117556</ele>
        <time>2020-08-10T11:36:01.757Z</time>
      </trkpt>
      <trkpt lat="64.24963" lon="11.12695">
        <ele>176.178553</ele>
        <time>2020-08-10T11:36:08.753Z</time>
      </trkpt>
      <trkpt lat="64.24965" lon="11.12716">
        <ele>176.23526</ele>
        <time>2020-08-10T11:36:13.792Z</time>
      </trkpt>
      <trkpt lat="64.24967" lon="11.12741">
        <ele>176.301717</ele>
        <time>2020-08-10T11:36:18.733Z</time>
      </trkpt>
      <trkpt lat="64.2497" lon="11.12765">
        <ele>176.367416</ele>
        <time>2020-08-10T11:36:23.728Z</time>
      </trkpt>
      <trkpt lat="64.24974" lon="11.12789">
        <ele>176.433386</ele>
        <time>2020-08-10T11:36:28.736Z</time>
      </trkpt>
      <trkpt lat="64.24976" lon="11.12809">
        <ele>176.487691</ele>
        <time>2020-08-10T11:36:32.730Z</time>
      </trkpt>
      <trkpt lat="64.24978" lon="11.12833">
        <ele>176.330863</ele>
        <time>2020-08-10T11:36:36.760Z</time>
      </trkpt>
      <trkpt lat="64.24981" lon="11.12854">
        <ele>175.773624</ele>
        <time>2020-08-10T11:36:40.725Z</time>
      </trkpt>
      <trkpt lat="64.24985" lon="11.12876">
        <ele>175.178328</ele>
        <time>2020-08-10T11:36:44.737Z</time>
      </trkpt>
      <trkpt lat="64.24989" lon="11.12895">
        <ele>174.656355</ele>
        <time>2020-08-10T11:36:48.771Z</time>
      </trkpt>
      <trkpt lat="64.24994" lon="11.12917">
        <ele>174.052131</ele>
        <time>2020-08-10T11:36:53.728Z</time>
      </trkpt>
      <trkpt lat="64.24995" lon="11.12938">
        <ele>173.507207</ele>
        <time>2020-08-10T11:36:58.741Z</time>
      </trkpt>
      <trkpt lat="64.24997" lon="11.12961">
        <ele>172.942854</ele>
        <time>2020-08-10T11:37:03.720Z</time>
      </trkpt>
      <trkpt lat="64.25" lon="11.12983">
        <ele>172.366576</ele>
        <time>2020-08-10T11:37:08.726Z</time>
      </trkpt>
      <trkpt lat="64.25003" lon="11.13004">
        <ele>171.83</ele>
        <time>2020-08-10T11:37:12.732Z</time>
      </trkpt>
      <trkpt lat="64.25004" lon="11.13025">
        <ele>171.304725</ele>
        <time>2020-08-10T11:37:16.742Z</time>
      </trkpt>
      <trkpt lat="64.25005" lon="11.13049">
        <ele>170.702805</ele>
        <time>2020-08-10T11:37:20.739Z</time>
      </trkpt>
      <trkpt lat="64.25006" lon="11.13072">
        <ele>170.120865</ele>
        <time>2020-08-10T11:37:23.759Z</time>
      </trkpt>
      <trkpt lat="64.25006" lon="11.13101">
        <ele>169.40798</ele>
        <time>2020-08-10T11:37:26.722Z</time>
      </trkpt>
      <trkpt lat="64.25005" lon="11.13122">
        <ele>168.871463</ele>
        <time>2020-08-10T11:37:28.748Z</time>
      </trkpt>
      <trkpt lat="64.25003" lon="11.13146">
        <ele>168.282154</ele>
        <time>2020-08-10T11:37:30.750Z</time>
      </trkpt>
      <trkpt lat="64.25001" lon="11.13168">
        <ele>167.706868</ele>
        <time>2020-08-10T11:37:32.751Z</time>
      </trkpt>
      <trkpt lat="64.24997" lon="11.13197">
        <ele>166.960087</ele>
        <time>2020-08-10T11:37:35.746Z</time>
      </trkpt>
      <trkpt lat="64.24993" lon="11.13222">
        <ele>166.300284</ele>
        <time>2020-08-10T11:37:38.742Z</time>
      </trkpt>
      <trkpt lat="64.24989" lon="11.13244">
        <ele>165.939389</ele>
        <time>2020-08-10T11:37:41.739Z</time>
      </trkpt>
      <trkpt lat="64.24984" lon="11.13264">
        <ele>165.617083</ele>
        <time>2020-08-10T11:37:44.747Z</time>
      </trkpt>
      <trkpt lat="64.24979" lon="11.13284">
        <ele>165.301974</ele>
        <time>2020-08-10T11:37:47.743Z</time>
      </trkpt>
      <trkpt lat="64.24975" lon="11.13306">
        <ele>164.963746</ele>
        <time>2020-08-10T11:37:50.742Z</time>
      </trkpt>
      <trkpt lat="64.24969" lon="11.13333">
        <ele>164.537815</ele>
        <time>2020-08-10T11:37:53.742Z</time>
      </trkpt>
      <trkpt lat="64.24965" lon="11.13357">
        <ele>164.181335</ele>
        <time>2020-08-10T11:37:55.738Z</time>
      </trkpt>
      <trkpt lat="64.24961" lon="11.13385">
        <ele>163.770744</ele>
        <time>2020-08-10T11:37:57.785Z</time>
      </trkpt>
      <trkpt lat="64.24958" lon="11.13415">
        <ele>163.330623</ele>
        <time>2020-08-10T11:37:59.727Z</time>
      </trkpt>
      <trkpt lat="64.24956" lon="11.13445">
        <ele>162.902935</ele>
        <time>2020-08-10T11:38:01.738Z</time>
      </trkpt>
      <trkpt lat="64.24954" lon="11.13475">
        <ele>162.479714</ele>
        <time>2020-08-10T11:38:03.738Z</time>
      </trkpt>
      <trkpt lat="64.24953" lon="11.13505">
        <ele>162.054525</ele>
        <time>2020-08-10T11:38:05.743Z</time>
      </trkpt>
      <trkpt lat="64.24951" lon="11.13536">
        <ele>161.623751</ele>
        <time>2020-08-10T11:38:07.763Z</time>
      </trkpt>
      <trkpt lat="64.2495" lon="11.13567">
        <ele>161.187093</ele>
        <time>2020-08-10T11:38:09.750Z</time>
      </trkpt>
      <trkpt lat="64.24948" lon="11.13596">
        <ele>160.767578</ele>
        <time>2020-08-10T11:38:11.739Z</time>
      </trkpt>
      <trkpt lat="64.24946" lon="11.13627">
        <ele>160.479127</ele>
        <time>2020-08-10T11:38:13.735Z</time>
      </trkpt>
      <trkpt lat="64.24943" lon="11.13658">
        <ele>160.651687</ele>
        <time>2020-08-10T11:38:15.739Z</time>
      </trkpt>
      <trkpt lat="64.2494" lon="11.1369">
        <ele>160.824045</ele>
        <time>2020-08-10T11:38:17.755Z</time>
      </trkpt>
      <trkpt lat="64.24936" lon="11.13716">
        <ele>160.970454</ele>
        <time>2020-08-10T11:38:19.750Z</time>
      </trkpt>
      <trkpt lat="64.24933" lon="11.13735">
        <ele>161.082189</ele>
        <time>2020-08-10T11:38:21.752Z</time>
      </trkpt>
      <trkpt lat="64.24929" lon="11.13756">
        <ele>161.203982</ele>
        <time>2020-08-10T11:38:24.750Z</time>
      </trkpt>
      <trkpt lat="64.24925" lon="11.1378">
        <ele>161.34063</ele>
        <time>2020-08-10T11:38:28.730Z</time>
      </trkpt>
      <trkpt lat="64.24922" lon="11.13801">
        <ele>161.457217</ele>
        <time>2020-08-10T11:38:32.760Z</time>
      </trkpt>
      <trkpt lat="64.24919" lon="11.1382">
        <ele>161.568321</ele>
        <time>2020-08-10T11:38:37.763Z</time>
      </trkpt>
      <trkpt lat="64.24916" lon="11.13843">
        <ele>161.693206</ele>
        <time>2020-08-10T11:38:45.773Z</time>
      </trkpt>
      <trkpt lat="64.24915" lon="11.13866">
        <ele>161.814793</ele>
        <time>2020-08-10T11:38:52.734Z</time>
      </trkpt>
      <trkpt lat="64.24913" lon="11.13887">
        <ele>161.928286</ele>
        <time>2020-08-10T11:38:58.807Z</time>
      </trkpt>
      <trkpt lat="64.24913" lon="11.1391">
        <ele>162.05489</ele>
        <time>2020-08-10T11:39:04.755Z</time>
      </trkpt>
      <trkpt lat="64.24912" lon="11.13933">
        <ele>162.179105</ele>
        <time>2020-08-10T11:39:10.743Z</time>
      </trkpt>
      <trkpt lat="64.24912" lon="11.13957">
        <ele>162.302301</ele>
        <time>2020-08-10T11:39:15.750Z</time>
      </trkpt>
      <trkpt lat="64.24913" lon="11.13978">
        <ele>162.416846</ele>
        <time>2020-08-10T11:39:19.734Z</time>
      </trkpt>
      <trkpt lat="64.24913" lon="11.14001">
        <ele>162.542463</ele>
        <time>2020-08-10T11:39:23.754Z</time>
      </trkpt>
      <trkpt lat="64.24914" lon="11.14031">
        <ele>162.568459</ele>
        <time>2020-08-10T11:39:26.741Z</time>
      </trkpt>
      <trkpt lat="64.24916" lon="11.14058">
        <ele>162.346904</ele>
        <time>2020-08-10T11:39:28.750Z</time>
      </trkpt>
      <trkpt lat="64.24918" lon="11.14089">
        <ele>162.098569</ele>
        <time>2020-08-10T11:39:30.779Z</time>
      </trkpt>
      <trkpt lat="64.24921" lon="11.14119">
        <ele>161.846341</ele>
        <time>2020-08-10T11:39:32.746Z</time>
      </trkpt>
      <trkpt lat="64.24924" lon="11.1415">
        <ele>161.587864</ele>
        <time>2020-08-10T11:39:34.757Z</time>
      </trkpt>
      <trkpt lat="64.24927" lon="11.1418">
        <ele>161.337291</ele>
        <time>2020-08-10T11:39:36.798Z</time>
      </trkpt>
      <trkpt lat="64.24929" lon="11.14208">
        <ele>161.107803</ele>
        <time>2020-08-10T11:39:38.746Z</time>
      </trkpt>
      <trkpt lat="64.24927" lon="11.14232">
        <ele>160.913275</ele>
        <time>2020-08-10T11:39:40.742Z</time>
      </trkpt>
      <trkpt lat="64.24924" lon="11.14262">
        <ele>160.664975</ele>
        <time>2020-08-10T11:39:43.777Z</time>
      </trkpt>
      <trkpt lat="64.24922" lon="11.14289">
        <ele>160.446744</ele>
        <time>2020-08-10T11:39:46.742Z</time>
      </trkpt>
      <trkpt lat="64.24921" lon="11.14314">
        <ele>160.241885</ele>
        <time>2020-08-10T11:39:49.751Z</time>
      </trkpt>
      <trkpt lat="64.24923" lon="11.14339">
        <ele>160.039348</ele>
        <time>2020-08-10T11:39:52.750Z</time>
      </trkpt>
      <trkpt lat="64.24926" lon="11.14362">
        <ele>159.845103</ele>
        <time>2020-08-10T11:39:55.723Z</time>
      </trkpt>
      <trkpt lat="64.2493" lon="11.14382">
        <ele>159.66185</ele>
        <time>2020-08-10T11:39:58.755Z</time>
      </trkpt>
      <trkpt lat="64.24934" lon="11.14402">
        <ele>159.485957</ele>
        <time>2020-08-10T11:40:01.759Z</time>
      </trkpt>
      <trkpt lat="64.24939" lon="11.14423">
        <ele>159.253589</ele>
        <time>2020-08-10T11:40:05.740Z</time>
      </trkpt>
      <trkpt lat="64.24944" lon="11.14445">
        <ele>158.095571</ele>
        <time>2020-08-10T11:40:08.747Z</time>
      </trkpt>
      <trkpt lat="64.2495" lon="11.1447">
        <ele>156.737434</ele>
        <time>2020-08-10T11:40:11.742Z</time>
      </trkpt>
      <trkpt lat="64.24956" lon="11.14496">
        <ele>155.314609</ele>
        <time>2020-08-10T11:40:14.759Z</time>
      </trkpt>
      <trkpt lat="64.24961" lon="11.14517">
        <ele>154.183595</ele>
        <time>2020-08-10T11:40:16.759Z</time>
      </trkpt>
      <trkpt lat="64.24967" lon="11.14542">
        <ele>152.812422</ele>
        <time>2020-08-10T11:40:19.760Z</time>
      </trkpt>
      <trkpt lat="64.24973" lon="11.14565">
        <ele>151.587316</ele>
        <time>2020-08-10T11:40:22.746Z</time>
      </trkpt>
      <trkpt lat="64.24979" lon="11.14591">
        <ele>150.16869</ele>
        <time>2020-08-10T11:40:25.785Z</time>
      </trkpt>
      <trkpt lat="64.24982" lon="11.14611">
        <ele>149.154187</ele>
        <time>2020-08-10T11:40:27.733Z</time>
      </trkpt>
      <trkpt lat="64.24986" lon="11.14632">
        <ele>148.07822</ele>
        <time>2020-08-10T11:40:29.766Z</time>
      </trkpt>
      <trkpt lat="64.24989" lon="11.14654">
        <ele>146.964092</ele>
        <time>2020-08-10T11:40:31.763Z</time>
      </trkpt>
      <trkpt lat="64.24993" lon="11.14673">
        <ele>145.967434</ele>
        <time>2020-08-10T11:40:33.735Z</time>
      </trkpt>
      <trkpt lat="64.24997" lon="11.14692">
        <ele>144.961885</ele>
        <time>2020-08-10T11:40:35.760Z</time>
      </trkpt>
      <trkpt lat="64.25001" lon="11.14711">
        <ele>143.977254</ele>
        <time>2020-08-10T11:40:37.722Z</time>
      </trkpt>
      <trkpt lat="64.25008" lon="11.14738">
        <ele>142.493822</ele>
        <time>2020-08-10T11:40:40.743Z</time>
      </trkpt>
      <trkpt lat="64.25015" lon="11.14763">
        <ele>141.056903</ele>
        <time>2020-08-10T11:40:43.754Z</time>
      </trkpt>
      <trkpt lat="64.25021" lon="11.14782">
        <ele>139.962596</ele>
        <time>2020-08-10T11:40:45.736Z</time>
      </trkpt>
      <trkpt lat="64.25026" lon="11.14801">
        <ele>139.159543</ele>
        <time>2020-08-10T11:40:47.803Z</time>
      </trkpt>
      <trkpt lat="64.2503" lon="11.14822">
        <ele>138.489503</ele>
        <time>2020-08-10T11:40:49.763Z</time>
      </trkpt>
      <trkpt lat="64.25034" lon="11.14842">
        <ele>137.830214</ele>
        <time>2020-08-10T11:40:51.764Z</time>
      </trkpt>
      <trkpt lat="64.25037" lon="11.14863">
        <ele>137.154524</ele>
        <time>2020-08-10T11:40:53.735Z</time>
      </trkpt>
      <trkpt lat="64.2504" lon="11.14885">
        <ele>136.449821</ele>
        <time>2020-08-10T11:40:55.738Z</time>
      </trkpt>
      <trkpt lat="64.25044" lon="11.14906">
        <ele>135.760319</ele>
        <time>2020-08-10T11:40:57.735Z</time>
      </trkpt>
      <trkpt lat="64.25047" lon="11.14927">
        <ele>135.102757</ele>
        <time>2020-08-10T11:40:59.728Z</time>
      </trkpt>
      <trkpt lat="64.25051" lon="11.14947">
        <ele>134.446277</ele>
        <time>2020-08-10T11:41:01.727Z</time>
      </trkpt>
      <trkpt lat="64.25055" lon="11.14968">
        <ele>133.751337</ele>
        <time>2020-08-10T11:41:03.775Z</time>
      </trkpt>
      <trkpt lat="64.25058" lon="11.14988">
        <ele>133.095044</ele>
        <time>2020-08-10T11:41:05.746Z</time>
      </trkpt>
      <trkpt lat="64.25062" lon="11.15008">
        <ele>132.440325</ele>
        <time>2020-08-10T11:41:07.767Z</time>
      </trkpt>
      <trkpt lat="64.25064" lon="11.15029">
        <ele>131.775151</ele>
        <time>2020-08-10T11:41:09.726Z</time>
      </trkpt>
      <trkpt lat="64.25068" lon="11.1505">
        <ele>131.105636</ele>
        <time>2020-08-10T11:41:11.766Z</time>
      </trkpt>
      <trkpt lat="64.25071" lon="11.15077">
        <ele>130.253892</ele>
        <time>2020-08-10T11:41:14.722Z</time>
      </trkpt>
      <trkpt lat="64.25074" lon="11.15102">
        <ele>129.49208</ele>
        <time>2020-08-10T11:41:17.745Z</time>
      </trkpt>
      <trkpt lat="64.25077" lon="11.15128">
        <ele>128.687623</ele>
        <time>2020-08-10T11:41:20.739Z</time>
      </trkpt>
      <trkpt lat="64.25079" lon="11.15154">
        <ele>127.869753</ele>
        <time>2020-08-10T11:41:23.743Z</time>
      </trkpt>
      <trkpt lat="64.2508" lon="11.15183">
        <ele>127.121053</ele>
        <time>2020-08-10T11:41:26.738Z</time>
      </trkpt>
      <trkpt lat="64.2508" lon="11.15208">
        <ele>126.917998</ele>
        <time>2020-08-10T11:41:29.754Z</time>
      </trkpt>
      <trkpt lat="64.2508" lon="11.15231">
        <ele>126.741684</ele>
        <time>2020-08-10T11:41:32.760Z</time>
      </trkpt>
      <trkpt lat="64.25081" lon="11.15252">
        <ele>126.57649</ele>
        <time>2020-08-10T11:41:35.749Z</time>
      </trkpt>
      <trkpt lat="64.25081" lon="11.15276">
        <ele>126.386339</ele>
        <time>2020-08-10T11:41:38.741Z</time>
      </trkpt>
      <trkpt lat="64.25082" lon="11.15302">
        <ele>126.174432</ele>
        <time>2020-08-10T11:41:41.732Z</time>
      </trkpt>
      <trkpt lat="64.25082" lon="11.15332">
        <ele>125.939782</ele>
        <time>2020-08-10T11:41:44.726Z</time>
      </trkpt>
      <trkpt lat="64.25083" lon="11.15361">
        <ele>125.708206</ele>
        <time>2020-08-10T11:41:47.734Z</time>
      </trkpt>
      <trkpt lat="64.25084" lon="11.15385">
        <ele>125.515879</ele>
        <time>2020-08-10T11:41:50.766Z</time>
      </trkpt>
      <trkpt lat="64.25084" lon="11.15413">
        <ele>125.301007</ele>
        <time>2020-08-10T11:41:53.743Z</time>
      </trkpt>
      <trkpt lat="64.25082" lon="11.15441">
        <ele>125.071091</ele>
        <time>2020-08-10T11:41:56.742Z</time>
      </trkpt>
      <trkpt lat="64.25078" lon="11.15469">
        <ele>124.84396</ele>
        <time>2020-08-10T11:41:59.735Z</time>
      </trkpt>
      <trkpt lat="64.25075" lon="11.15495">
        <ele>124.629448</ele>
        <time>2020-08-10T11:42:02.744Z</time>
      </trkpt>
      <trkpt lat="64.25073" lon="11.15518">
        <ele>124.44489</ele>
        <time>2020-08-10T11:42:05.762Z</time>
      </trkpt>
      <trkpt lat="64.2507" lon="11.15544">
        <ele>124.234186</ele>
        <time>2020-08-10T11:42:08.773Z</time>
      </trkpt>
      <trkpt lat="64.25067" lon="11.15564">
        <ele>124.062221</ele>
        <time>2020-08-10T11:42:10.746Z</time>
      </trkpt>
      <trkpt lat="64.25063" lon="11.15583">
        <ele>123.898429</ele>
        <time>2020-08-10T11:42:12.727Z</time>
      </trkpt>
      <trkpt lat="64.25058" lon="11.15611">
        <ele>123.581022</ele>
        <time>2020-08-10T11:42:15.767Z</time>
      </trkpt>
      <trkpt lat="64.25054" lon="11.15636">
        <ele>123.296075</ele>
        <time>2020-08-10T11:42:18.742Z</time>
      </trkpt>
      <trkpt lat="64.25051" lon="11.15662">
        <ele>123.01052</ele>
        <time>2020-08-10T11:42:21.740Z</time>
      </trkpt>
      <trkpt lat="64.25049" lon="11.15685">
        <ele>122.759946</ele>
        <time>2020-08-10T11:42:24.738Z</time>
      </trkpt>
      <trkpt lat="64.25045" lon="11.15708">
        <ele>122.496696</ele>
        <time>2020-08-10T11:42:27.737Z</time>
      </trkpt>
      <trkpt lat="64.25041" lon="11.15733">
        <ele>122.220488</ele>
        <time>2020-08-10T11:42:30.786Z</time>
      </trkpt>
      <trkpt lat="64.25036" lon="11.15758">
        <ele>121.925407</ele>
        <time>2020-08-10T11:42:33.758Z</time>
      </trkpt>
      <trkpt lat="64.25031" lon="11.15784">
        <ele>121.617289</ele>
        <time>2020-08-10T11:42:36.766Z</time>
      </trkpt>
      <trkpt lat="64.25027" lon="11.15804">
        <ele>121.38823</ele>
        <time>2020-08-10T11:42:38.761Z</time>
      </trkpt>
      <trkpt lat="64.25023" lon="11.15824">
        <ele>121.158404</ele>
        <time>2020-08-10T11:42:40.750Z</time>
      </trkpt>
      <trkpt lat="64.25018" lon="11.1585">
        <ele>120.859274</ele>
        <time>2020-08-10T11:42:43.737Z</time>
      </trkpt>
      <trkpt lat="64.25015" lon="11.15877">
        <ele>120.561732</ele>
        <time>2020-08-10T11:42:46.754Z</time>
      </trkpt>
      <trkpt lat="64.25013" lon="11.15908">
        <ele>120.228277</ele>
        <time>2020-08-10T11:42:49.745Z</time>
      </trkpt>
      <trkpt lat="64.25012" lon="11.15932">
        <ele>119.976514</ele>
        <time>2020-08-10T11:42:51.758Z</time>
      </trkpt>
      <trkpt lat="64.25013" lon="11.15956">
        <ele>119.720526</ele>
        <time>2020-08-10T11:42:53.752Z</time>
      </trkpt>
      <trkpt lat="64.25013" lon="11.15982">
        <ele>119.429918</ele>
        <time>2020-08-10T11:42:55.740Z</time>
      </trkpt>
      <trkpt lat="64.25013" lon="11.16011">
        <ele>119.034106</ele>
        <time>2020-08-10T11:42:57.726Z</time>
      </trkpt>
      <trkpt lat="64.25013" lon="11.16043">
        <ele>118.603323</ele>
        <time>2020-08-10T11:42:59.736Z</time>
      </trkpt>
      <trkpt lat="64.25012" lon="11.16075">
        <ele>118.179777</ele>
        <time>2020-08-10T11:43:01.760Z</time>
      </trkpt>
      <trkpt lat="64.2501" lon="11.16104">
        <ele>117.780513</ele>
        <time>2020-08-10T11:43:03.734Z</time>
      </trkpt>
      <trkpt lat="64.25008" lon="11.16132">
        <ele>117.399421</ele>
        <time>2020-08-10T11:43:05.749Z</time>
      </trkpt>
      <trkpt lat="64.25005" lon="11.16162">
        <ele>116.995534</ele>
        <time>2020-08-10T11:43:07.753Z</time>
      </trkpt>
      <trkpt lat="64.25002" lon="11.16189">
        <ele>116.608869</ele>
        <time>2020-08-10T11:43:09.736Z</time>
      </trkpt>
      <trkpt lat="64.24998" lon="11.16212">
        <ele>116.279802</ele>
        <time>2020-08-10T11:43:11.733Z</time>
      </trkpt>
      <trkpt lat="64.24995" lon="11.16234">
        <ele>115.982508</ele>
        <time>2020-08-10T11:43:13.733Z</time>
      </trkpt>
      <trkpt lat="64.24994" lon="11.16255">
        <ele>115.690764</ele>
        <time>2020-08-10T11:43:15.728Z</time>
      </trkpt>
      <trkpt lat="64.24992" lon="11.16283">
        <ele>115.30745</ele>
        <time>2020-08-10T11:43:18.752Z</time>
      </trkpt>
      <trkpt lat="64.24991" lon="11.16311">
        <ele>114.930961</ele>
        <time>2020-08-10T11:43:21.750Z</time>
      </trkpt>
      <trkpt lat="64.24991" lon="11.16342">
        <ele>114.516375</ele>
        <time>2020-08-10T11:43:24.764Z</time>
      </trkpt>
      <trkpt lat="64.24993" lon="11.16365">
        <ele>114.208639</ele>
        <time>2020-08-10T11:43:26.740Z</time>
      </trkpt>
      <trkpt lat="64.24995" lon="11.16391">
        <ele>113.800424</ele>
        <time>2020-08-10T11:43:28.764Z</time>
      </trkpt>
      <trkpt lat="64.24995" lon="11.16417">
        <ele>113.267788</ele>
        <time>2020-08-10T11:43:30.746Z</time>
      </trkpt>
      <trkpt lat="64.24997" lon="11.16443">
        <ele>112.739006</ele>
        <time>2020-08-10T11:43:32.733Z</time>
      </trkpt>
      <trkpt lat="64.24998" lon="11.16467">
        <ele>112.25219</ele>
        <time>2020-08-10T11:43:34.760Z</time>
      </trkpt>
      <trkpt lat="64.25" lon="11.16489">
        <ele>111.778904</ele>
        <time>2020-08-10T11:43:36.743Z</time>
      </trkpt>
      <trkpt lat="64.25004" lon="11.16517">
        <ele>111.189839</ele>
        <time>2020-08-10T11:43:39.733Z</time>
      </trkpt>
      <trkpt lat="64.25008" lon="11.16543">
        <ele>110.636158</ele>
        <time>2020-08-10T11:43:42.732Z</time>
      </trkpt>
      <trkpt lat="64.25013" lon="11.16567">
        <ele>110.082899</ele>
        <time>2020-08-10T11:43:45.747Z</time>
      </trkpt>
      <trkpt lat="64.2502" lon="11.1659">
        <ele>109.515944</ele>
        <time>2020-08-10T11:43:48.728Z</time>
      </trkpt>
      <trkpt lat="64.25027" lon="11.16606">
        <ele>109.054633</ele>
        <time>2020-08-10T11:43:50.763Z</time>
      </trkpt>
      <trkpt lat="64.25035" lon="11.16624">
        <ele>108.53076</ele>
        <time>2020-08-10T11:43:52.738Z</time>
      </trkpt>
      <trkpt lat="64.25044" lon="11.16644">
        <ele>107.947316</ele>
        <time>2020-08-10T11:43:54.741Z</time>
      </trkpt>
      <trkpt lat="64.25051" lon="11.16667">
        <ele>107.35073</ele>
        <time>2020-08-10T11:43:56.735Z</time>
      </trkpt>
      <trkpt lat="64.25058" lon="11.16694">
        <ele>106.731975</ele>
        <time>2020-08-10T11:43:58.736Z</time>
      </trkpt>
      <trkpt lat="64.25063" lon="11.16719">
        <ele>106.17492</ele>
        <time>2020-08-10T11:44:00.748Z</time>
      </trkpt>
      <trkpt lat="64.25067" lon="11.16746">
        <ele>105.580069</ele>
        <time>2020-08-10T11:44:02.731Z</time>
      </trkpt>
      <trkpt lat="64.25071" lon="11.16774">
        <ele>105.111574</ele>
        <time>2020-08-10T11:44:04.741Z</time>
      </trkpt>
      <trkpt lat="64.25076" lon="11.16801">
        <ele>104.661035</ele>
        <time>2020-08-10T11:44:06.745Z</time>
      </trkpt>
      <trkpt lat="64.25081" lon="11.16828">
        <ele>104.208938</ele>
        <time>2020-08-10T11:44:08.798Z</time>
      </trkpt>
      <trkpt lat="64.25087" lon="11.16855">
        <ele>103.74813</ele>
        <time>2020-08-10T11:44:10.758Z</time>
      </trkpt>
      <trkpt lat="64.25092" lon="11.16881">
        <ele>103.306042</ele>
        <time>2020-08-10T11:44:12.746Z</time>
      </trkpt>
      <trkpt lat="64.25097" lon="11.16907">
        <ele>102.868146</ele>
        <time>2020-08-10T11:44:14.734Z</time>
      </trkpt>
      <trkpt lat="64.25102" lon="11.16933">
        <ele>102.440129</ele>
        <time>2020-08-10T11:44:16.739Z</time>
      </trkpt>
      <trkpt lat="64.25106" lon="11.16959">
        <ele>102.002264</ele>
        <time>2020-08-10T11:44:18.733Z</time>
      </trkpt>
      <trkpt lat="64.2511" lon="11.16985">
        <ele>101.575972</ele>
        <time>2020-08-10T11:44:20.746Z</time>
      </trkpt>
      <trkpt lat="64.25114" lon="11.17014">
        <ele>101.110439</ele>
        <time>2020-08-10T11:44:22.733Z</time>
      </trkpt>
      <trkpt lat="64.25115" lon="11.17045">
        <ele>100.641175</ele>
        <time>2020-08-10T11:44:24.768Z</time>
      </trkpt>
      <trkpt lat="64.25116" lon="11.17079">
        <ele>100.112936</ele>
        <time>2020-08-10T11:44:26.728Z</time>
      </trkpt>
      <trkpt lat="64.25115" lon="11.17112">
        <ele>99.615134</ele>
        <time>2020-08-10T11:44:28.749Z</time>
      </trkpt>
      <trkpt lat="64.25114" lon="11.17144">
        <ele>99.126143</ele>
        <time>2020-08-10T11:44:30.764Z</time>
      </trkpt>
      <trkpt lat="64.25113" lon="11.17175">
        <ele>98.683834</ele>
        <time>2020-08-10T11:44:32.736Z</time>
      </trkpt>
      <trkpt lat="64.25111" lon="11.17204">
        <ele>98.260157</ele>
        <time>2020-08-10T11:44:34.768Z</time>
      </trkpt>
      <trkpt lat="64.2511" lon="11.17232">
        <ele>97.858949</ele>
        <time>2020-08-10T11:44:36.757Z</time>
      </trkpt>
      <trkpt lat="64.25109" lon="11.1726">
        <ele>97.468969</ele>
        <time>2020-08-10T11:44:38.756Z</time>
      </trkpt>
      <trkpt lat="64.25108" lon="11.17289">
        <ele>97.053081</ele>
        <time>2020-08-10T11:44:40.736Z</time>
      </trkpt>
      <trkpt lat="64.25106" lon="11.17315">
        <ele>96.680117</ele>
        <time>2020-08-10T11:44:42.745Z</time>
      </trkpt>
      <trkpt lat="64.25105" lon="11.17337">
        <ele>96.374102</ele>
        <time>2020-08-10T11:44:44.730Z</time>
      </trkpt>
      <trkpt lat="64.25104" lon="11.17365">
        <ele>95.972141</ele>
        <time>2020-08-10T11:44:47.774Z</time>
      </trkpt>
      <trkpt lat="64.25103" lon="11.1739">
        <ele>95.615314</ele>
        <time>2020-08-10T11:44:50.733Z</time>
      </trkpt>
      <trkpt lat="64.25103" lon="11.17412">
        <ele>95.303847</ele>
        <time>2020-08-10T11:44:53.735Z</time>
      </trkpt>
      <trkpt lat="64.25104" lon="11.17436">
        <ele>94.958296</ele>
        <time>2020-08-10T11:44:57.762Z</time>
      </trkpt>
      <trkpt lat="64.25107" lon="11.1746">
        <ele>94.612351</ele>
        <time>2020-08-10T11:45:01.742Z</time>
      </trkpt>
      <trkpt lat="64.25112" lon="11.17482">
        <ele>94.251256</ele>
        <time>2020-08-10T11:45:05.733Z</time>
      </trkpt>
      <trkpt lat="64.25115" lon="11.17505">
        <ele>93.91038</ele>
        <time>2020-08-10T11:45:09.758Z</time>
      </trkpt>
      <trkpt lat="64.25116" lon="11.17526">
        <ele>93.616178</ele>
        <time>2020-08-10T11:45:12.768Z</time>
      </trkpt>
      <trkpt lat="64.25116" lon="11.17549">
        <ele>93.287741</ele>
        <time>2020-08-10T11:45:15.746Z</time>
      </trkpt>
      <trkpt lat="64.25115" lon="11.17575">
        <ele>93.155498</ele>
        <time>2020-08-10T11:45:18.769Z</time>
      </trkpt>
      <trkpt lat="64.25114" lon="11.17602">
        <ele>93.013116</ele>
        <time>2020-08-10T11:45:21.749Z</time>
      </trkpt>
      <trkpt lat="64.2511" lon="11.17633">
        <ele>92.851766</ele>
        <time>2020-08-10T11:45:24.744Z</time>
      </trkpt>
      <trkpt lat="64.25105" lon="11.17655">
        <ele>92.721364</ele>
        <time>2020-08-10T11:45:26.733Z</time>
      </trkpt>
      <trkpt lat="64.25098" lon="11.1768">
        <ele>92.575475</ele>
        <time>2020-08-10T11:45:28.736Z</time>
      </trkpt>
      <trkpt lat="64.25091" lon="11.17705">
        <ele>92.421051</ele>
        <time>2020-08-10T11:45:30.732Z</time>
      </trkpt>
      <trkpt lat="64.25084" lon="11.17728">
        <ele>92.277076</ele>
        <time>2020-08-10T11:45:32.734Z</time>
      </trkpt>
      <trkpt lat="64.25077" lon="11.17753">
        <ele>92.128427</ele>
        <time>2020-08-10T11:45:34.734Z</time>
      </trkpt>
      <trkpt lat="64.25069" lon="11.17777">
        <ele>91.973619</ele>
        <time>2020-08-10T11:45:36.757Z</time>
      </trkpt>
      <trkpt lat="64.25061" lon="11.17802">
        <ele>91.814586</ele>
        <time>2020-08-10T11:45:38.754Z</time>
      </trkpt>
      <trkpt lat="64.25053" lon="11.17827">
        <ele>91.65434</ele>
        <time>2020-08-10T11:45:40.727Z</time>
      </trkpt>
      <trkpt lat="64.25045" lon="11.17851">
        <ele>91.498667</ele>
        <time>2020-08-10T11:45:42.738Z</time>
      </trkpt>
      <trkpt lat="64.25037" lon="11.17873">
        <ele>91.352573</ele>
        <time>2020-08-10T11:45:44.740Z</time>
      </trkpt>
      <trkpt lat="64.25028" lon="11.17894">
        <ele>91.205693</ele>
        <time>2020-08-10T11:45:46.756Z</time>
      </trkpt>
      <trkpt lat="64.25021" lon="11.17914">
        <ele>90.751941</ele>
        <time>2020-08-10T11:45:48.758Z</time>
      </trkpt>
      <trkpt lat="64.25016" lon="11.17933">
        <ele>90.277193</ele>
        <time>2020-08-10T11:45:50.743Z</time>
      </trkpt>
      <trkpt lat="64.25015" lon="11.17961">
        <ele>89.671908</ele>
        <time>2020-08-10T11:45:53.726Z</time>
      </trkpt>
      <trkpt lat="64.25016" lon="11.17988">
        <ele>89.096429</ele>
        <time>2020-08-10T11:45:56.734Z</time>
      </trkpt>
      <trkpt lat="64.25011" lon="11.18014">
        <ele>88.504333</ele>
        <time>2020-08-10T11:45:59.759Z</time>
      </trkpt>
      <trkpt lat="64.25005" lon="11.18042">
        <ele>87.851237</ele>
        <time>2020-08-10T11:46:02.734Z</time>
      </trkpt>
      <trkpt lat="64.25002" lon="11.18061">
        <ele>87.409572</ele>
        <time>2020-08-10T11:46:04.778Z</time>
      </trkpt>
      <trkpt lat="64.24998" lon="11.1809">
        <ele>86.765493</ele>
        <time>2020-08-10T11:46:07.745Z</time>
      </trkpt>
      <trkpt lat="64.24994" lon="11.18119">
        <ele>86.112752</ele>
        <time>2020-08-10T11:46:10.742Z</time>
      </trkpt>
      <trkpt lat="64.24991" lon="11.18138">
        <ele>85.667651</ele>
        <time>2020-08-10T11:46:12.775Z</time>
      </trkpt>
      <trkpt lat="64.24988" lon="11.18168">
        <ele>85.008695</ele>
        <time>2020-08-10T11:46:15.734Z</time>
      </trkpt>
      <trkpt lat="64.24984" lon="11.18198">
        <ele>84.368377</ele>
        <time>2020-08-10T11:46:18.738Z</time>
      </trkpt>
      <trkpt lat="64.24983" lon="11.18218">
        <ele>83.926027</ele>
        <time>2020-08-10T11:46:20.759Z</time>
      </trkpt>
      <trkpt lat="64.24981" lon="11.1824">
        <ele>83.450276</ele>
        <time>2020-08-10T11:46:22.739Z</time>
      </trkpt>
      <trkpt lat="64.2498" lon="11.18263">
        <ele>82.958315</ele>
        <time>2020-08-10T11:46:24.752Z</time>
      </trkpt>
      <trkpt lat="64.24979" lon="11.18286">
        <ele>82.454822</ele>
        <time>2020-08-10T11:46:26.742Z</time>
      </trkpt>
      <trkpt lat="64.24978" lon="11.18311">
        <ele>82.301625</ele>
        <time>2020-08-10T11:46:28.736Z</time>
      </trkpt>
      <trkpt lat="64.24978" lon="11.18335">
        <ele>82.23736</ele>
        <time>2020-08-10T11:46:30.760Z</time>
      </trkpt>
      <trkpt lat="64.24978" lon="11.1836">
        <ele>82.172576</ele>
        <time>2020-08-10T11:46:32.814Z</time>
      </trkpt>
      <trkpt lat="64.24978" lon="11.18385">
        <ele>82.108289</ele>
        <time>2020-08-10T11:46:34.733Z</time>
      </trkpt>
      <trkpt lat="64.2498" lon="11.1841">
        <ele>82.040468</ele>
        <time>2020-08-10T11:46:36.766Z</time>
      </trkpt>
      <trkpt lat="64.24982" lon="11.18436">
        <ele>81.972669</ele>
        <time>2020-08-10T11:46:38.733Z</time>
      </trkpt>
      <trkpt lat="64.24985" lon="11.18461">
        <ele>81.905628</ele>
        <time>2020-08-10T11:46:40.726Z</time>
      </trkpt>
      <trkpt lat="64.24987" lon="11.18484">
        <ele>81.841877</ele>
        <time>2020-08-10T11:46:42.740Z</time>
      </trkpt>
      <trkpt lat="64.2499" lon="11.18507">
        <ele>81.779286</ele>
        <time>2020-08-10T11:46:44.746Z</time>
      </trkpt>
      <trkpt lat="64.24995" lon="11.18529">
        <ele>81.716744</ele>
        <time>2020-08-10T11:46:46.757Z</time>
      </trkpt>
      <trkpt lat="64.25001" lon="11.18549">
        <ele>81.652839</ele>
        <time>2020-08-10T11:46:48.748Z</time>
      </trkpt>
      <trkpt lat="64.25007" lon="11.18569">
        <ele>81.589431</ele>
        <time>2020-08-10T11:46:50.738Z</time>
      </trkpt>
      <trkpt lat="64.25013" lon="11.18588">
        <ele>81.526128</ele>
        <time>2020-08-10T11:46:52.730Z</time>
      </trkpt>
      <trkpt lat="64.2502" lon="11.18606">
        <ele>81.464785</ele>
        <time>2020-08-10T11:46:54.732Z</time>
      </trkpt>
      <trkpt lat="64.25027" lon="11.18623">
        <ele>81.402345</ele>
        <time>2020-08-10T11:46:56.728Z</time>
      </trkpt>
      <trkpt lat="64.25035" lon="11.18638">
        <ele>81.341063</ele>
        <time>2020-08-10T11:46:58.753Z</time>
      </trkpt>
      <trkpt lat="64.25043" lon="11.18653">
        <ele>81.278816</ele>
        <time>2020-08-10T11:47:00.743Z</time>
      </trkpt>
      <trkpt lat="64.25051" lon="11.18668">
        <ele>81.20941</ele>
        <time>2020-08-10T11:47:02.796Z</time>
      </trkpt>
      <trkpt lat="64.2506" lon="11.18683">
        <ele>81.139185</ele>
        <time>2020-08-10T11:47:04.750Z</time>
      </trkpt>
      <trkpt lat="64.25068" lon="11.18697">
        <ele>81.070177</ele>
        <time>2020-08-10T11:47:06.753Z</time>
      </trkpt>
      <trkpt lat="64.25077" lon="11.1871">
        <ele>81.001809</ele>
        <time>2020-08-10T11:47:08.768Z</time>
      </trkpt>
      <trkpt lat="64.25085" lon="11.18721">
        <ele>80.93796</ele>
        <time>2020-08-10T11:47:10.724Z</time>
      </trkpt>
      <trkpt lat="64.25094" lon="11.1873">
        <ele>80.87599</ele>
        <time>2020-08-10T11:47:12.770Z</time>
      </trkpt>
      <trkpt lat="64.25103" lon="11.18738">
        <ele>80.80949</ele>
        <time>2020-08-10T11:47:14.741Z</time>
      </trkpt>
      <trkpt lat="64.25112" lon="11.18744">
        <ele>80.745538</ele>
        <time>2020-08-10T11:47:16.749Z</time>
      </trkpt>
      <trkpt lat="64.25124" lon="11.18751">
        <ele>80.669332</ele>
        <time>2020-08-10T11:47:18.760Z</time>
      </trkpt>
      <trkpt lat="64.25134" lon="11.18756">
        <ele>80.595566</ele>
        <time>2020-08-10T11:47:20.748Z</time>
      </trkpt>
      <trkpt lat="64.25145" lon="11.18759">
        <ele>80.527017</ele>
        <time>2020-08-10T11:47:22.806Z</time>
      </trkpt>
      <trkpt lat="64.25156" lon="11.1876">
        <ele>80.453438</ele>
        <time>2020-08-10T11:47:24.742Z</time>
      </trkpt>
      <trkpt lat="64.25167" lon="11.18759">
        <ele>80.379872</ele>
        <time>2020-08-10T11:47:26.752Z</time>
      </trkpt>
      <trkpt lat="64.25178" lon="11.18758">
        <ele>80.308346</ele>
        <time>2020-08-10T11:47:28.761Z</time>
      </trkpt>
      <trkpt lat="64.25189" lon="11.18757">
        <ele>80.236104</ele>
        <time>2020-08-10T11:47:30.748Z</time>
      </trkpt>
      <trkpt lat="64.25199" lon="11.18756">
        <ele>80.165888</ele>
        <time>2020-08-10T11:47:32.729Z</time>
      </trkpt>
      <trkpt lat="64.2521" lon="11.18756">
        <ele>80.093043</ele>
        <time>2020-08-10T11:47:34.740Z</time>
      </trkpt>
      <trkpt lat="64.25222" lon="11.18755">
        <ele>79.523233</ele>
        <time>2020-08-10T11:47:36.740Z</time>
      </trkpt>
      <trkpt lat="64.25234" lon="11.18754">
        <ele>78.843477</ele>
        <time>2020-08-10T11:47:38.736Z</time>
      </trkpt>
      <trkpt lat="64.25246" lon="11.18752">
        <ele>78.122728</ele>
        <time>2020-08-10T11:47:40.733Z</time>
      </trkpt>
      <trkpt lat="64.25259" lon="11.1875">
        <ele>77.355678</ele>
        <time>2020-08-10T11:47:42.765Z</time>
      </trkpt>
      <trkpt lat="64.25274" lon="11.18747">
        <ele>76.51852</ele>
        <time>2020-08-10T11:47:44.756Z</time>
      </trkpt>
      <trkpt lat="64.25289" lon="11.18746">
        <ele>75.595958</ele>
        <time>2020-08-10T11:47:46.738Z</time>
      </trkpt>
      <trkpt lat="64.25307" lon="11.18747">
        <ele>74.563312</ele>
        <time>2020-08-10T11:47:48.754Z</time>
      </trkpt>
      <trkpt lat="64.25317" lon="11.18749">
        <ele>74.010045</ele>
        <time>2020-08-10T11:47:49.756Z</time>
      </trkpt>
      <trkpt lat="64.25327" lon="11.18752">
        <ele>73.419096</ele>
        <time>2020-08-10T11:47:50.728Z</time>
      </trkpt>
      <trkpt lat="64.25337" lon="11.18756">
        <ele>72.808772</ele>
        <time>2020-08-10T11:47:51.732Z</time>
      </trkpt>
      <trkpt lat="64.25348" lon="11.18761">
        <ele>72.176049</ele>
        <time>2020-08-10T11:47:52.768Z</time>
      </trkpt>
      <trkpt lat="64.25359" lon="11.18767">
        <ele>71.526066</ele>
        <time>2020-08-10T11:47:53.731Z</time>
      </trkpt>
      <trkpt lat="64.2537" lon="11.18773">
        <ele>70.851162</ele>
        <time>2020-08-10T11:47:54.743Z</time>
      </trkpt>
      <trkpt lat="64.25381" lon="11.1878">
        <ele>70.173139</ele>
        <time>2020-08-10T11:47:55.744Z</time>
      </trkpt>
      <trkpt lat="64.25393" lon="11.18787">
        <ele>69.516079</ele>
        <time>2020-08-10T11:47:56.764Z</time>
      </trkpt>
      <trkpt lat="64.25404" lon="11.18795">
        <ele>68.944177</ele>
        <time>2020-08-10T11:47:57.736Z</time>
      </trkpt>
      <trkpt lat="64.25416" lon="11.18802">
        <ele>68.376319</ele>
        <time>2020-08-10T11:47:58.750Z</time>
      </trkpt>
      <trkpt lat="64.25427" lon="11.18809">
        <ele>67.812807</ele>
        <time>2020-08-10T11:47:59.735Z</time>
      </trkpt>
      <trkpt lat="64.25439" lon="11.18816">
        <ele>67.231696</ele>
        <time>2020-08-10T11:48:00.758Z</time>
      </trkpt>
      <trkpt lat="64.25451" lon="11.18822">
        <ele>66.652917</ele>
        <time>2020-08-10T11:48:01.747Z</time>
      </trkpt>
      <trkpt lat="64.25462" lon="11.18827">
        <ele>66.080985</ele>
        <time>2020-08-10T11:48:02.739Z</time>
      </trkpt>
      <trkpt lat="64.25474" lon="11.18832">
        <ele>65.51066</ele>
        <time>2020-08-10T11:48:03.723Z</time>
      </trkpt>
      <trkpt lat="64.25485" lon="11.18836">
        <ele>64.962106</ele>
        <time>2020-08-10T11:48:04.782Z</time>
      </trkpt>
      <trkpt lat="64.25497" lon="11.18839">
        <ele>64.427293</ele>
        <time>2020-08-10T11:48:05.748Z</time>
      </trkpt>
      <trkpt lat="64.25507" lon="11.18841">
        <ele>63.908822</ele>
        <time>2020-08-10T11:48:06.723Z</time>
      </trkpt>
      <trkpt lat="64.25518" lon="11.18841">
        <ele>63.410699</ele>
        <time>2020-08-10T11:48:07.762Z</time>
      </trkpt>
      <trkpt lat="64.25528" lon="11.18838">
        <ele>62.924601</ele>
        <time>2020-08-10T11:48:08.786Z</time>
      </trkpt>
      <trkpt lat="64.25537" lon="11.18835">
        <ele>62.462784</ele>
        <time>2020-08-10T11:48:09.733Z</time>
      </trkpt>
      <trkpt lat="64.25546" lon="11.1883">
        <ele>62.019842</ele>
        <time>2020-08-10T11:48:10.747Z</time>
      </trkpt>
      <trkpt lat="64.25555" lon="11.18823">
        <ele>61.569305</ele>
        <time>2020-08-10T11:48:11.733Z</time>
      </trkpt>
      <trkpt lat="64.25564" lon="11.18815">
        <ele>61.119838</ele>
        <time>2020-08-10T11:48:12.744Z</time>
      </trkpt>
      <trkpt lat="64.25573" lon="11.18807">
        <ele>60.783129</ele>
        <time>2020-08-10T11:48:13.750Z</time>
      </trkpt>
      <trkpt lat="64.25581" lon="11.18799">
        <ele>60.488537</ele>
        <time>2020-08-10T11:48:14.746Z</time>
      </trkpt>
      <trkpt lat="64.2559" lon="11.1879">
        <ele>60.196881</ele>
        <time>2020-08-10T11:48:15.741Z</time>
      </trkpt>
      <trkpt lat="64.25598" lon="11.18782">
        <ele>59.9069</ele>
        <time>2020-08-10T11:48:16.729Z</time>
      </trkpt>
      <trkpt lat="64.25607" lon="11.18774">
        <ele>59.606635</ele>
        <time>2020-08-10T11:48:17.742Z</time>
      </trkpt>
      <trkpt lat="64.25616" lon="11.18767">
        <ele>59.300272</ele>
        <time>2020-08-10T11:48:18.741Z</time>
      </trkpt>
      <trkpt lat="64.25625" lon="11.1876">
        <ele>58.993101</ele>
        <time>2020-08-10T11:48:19.738Z</time>
      </trkpt>
      <trkpt lat="64.25634" lon="11.18755">
        <ele>58.682385</ele>
        <time>2020-08-10T11:48:20.739Z</time>
      </trkpt>
      <trkpt lat="64.25644" lon="11.18752">
        <ele>58.362776</ele>
        <time>2020-08-10T11:48:21.750Z</time>
      </trkpt>
      <trkpt lat="64.25654" lon="11.18753">
        <ele>58.035219</ele>
        <time>2020-08-10T11:48:22.779Z</time>
      </trkpt>
      <trkpt lat="64.25664" lon="11.18757">
        <ele>57.714651</ele>
        <time>2020-08-10T11:48:23.734Z</time>
      </trkpt>
      <trkpt lat="64.25673" lon="11.18765">
        <ele>57.39385</ele>
        <time>2020-08-10T11:48:24.756Z</time>
      </trkpt>
      <trkpt lat="64.25682" lon="11.18775">
        <ele>57.069914</ele>
        <time>2020-08-10T11:48:25.758Z</time>
      </trkpt>
      <trkpt lat="64.25691" lon="11.18787">
        <ele>56.758178</ele>
        <time>2020-08-10T11:48:26.746Z</time>
      </trkpt>
      <trkpt lat="64.25699" lon="11.18799">
        <ele>56.442432</ele>
        <time>2020-08-10T11:48:27.730Z</time>
      </trkpt>
      <trkpt lat="64.25707" lon="11.18811">
        <ele>56.148513</ele>
        <time>2020-08-10T11:48:28.744Z</time>
      </trkpt>
      <trkpt lat="64.25721" lon="11.18833">
        <ele>55.592508</ele>
        <time>2020-08-10T11:48:30.765Z</time>
      </trkpt>
      <trkpt lat="64.25735" lon="11.18851">
        <ele>55.434815</ele>
        <time>2020-08-10T11:48:32.738Z</time>
      </trkpt>
      <trkpt lat="64.25747" lon="11.18869">
        <ele>55.878766</ele>
        <time>2020-08-10T11:48:34.726Z</time>
      </trkpt>
      <trkpt lat="64.25758" lon="11.18886">
        <ele>56.272712</ele>
        <time>2020-08-10T11:48:36.736Z</time>
      </trkpt>
      <trkpt lat="64.25767" lon="11.18901">
        <ele>56.627715</ele>
        <time>2020-08-10T11:48:38.753Z</time>
      </trkpt>
      <trkpt lat="64.25776" lon="11.18915">
        <ele>56.95569</ele>
        <time>2020-08-10T11:48:40.738Z</time>
      </trkpt>
      <trkpt lat="64.25786" lon="11.18926">
        <ele>57.2819</ele>
        <time>2020-08-10T11:48:42.756Z</time>
      </trkpt>
      <trkpt lat="64.25795" lon="11.18935">
        <ele>57.598186</ele>
        <time>2020-08-10T11:48:44.778Z</time>
      </trkpt>
      <trkpt lat="64.25804" lon="11.18941">
        <ele>57.88957</ele>
        <time>2020-08-10T11:48:46.745Z</time>
      </trkpt>
      <trkpt lat="64.25814" lon="11.18947">
        <ele>58.19034</ele>
        <time>2020-08-10T11:48:48.739Z</time>
      </trkpt>
      <trkpt lat="64.25823" lon="11.18951">
        <ele>58.470408</ele>
        <time>2020-08-10T11:48:50.750Z</time>
      </trkpt>
      <trkpt lat="64.25832" lon="11.18954">
        <ele>58.761973</ele>
        <time>2020-08-10T11:48:52.729Z</time>
      </trkpt>
      <trkpt lat="64.25841" lon="11.18957">
        <ele>59.037432</ele>
        <time>2020-08-10T11:48:54.728Z</time>
      </trkpt>
      <trkpt lat="64.2585" lon="11.18961">
        <ele>59.324658</ele>
        <time>2020-08-10T11:48:56.749Z</time>
      </trkpt>
      <trkpt lat="64.25859" lon="11.18964">
        <ele>59.607511</ele>
        <time>2020-08-10T11:48:58.727Z</time>
      </trkpt>
      <trkpt lat="64.25872" lon="11.18968">
        <ele>60.004128</ele>
        <time>2020-08-10T11:49:01.727Z</time>
      </trkpt>
      <trkpt lat="64.25883" lon="11.18973">
        <ele>60.350421</ele>
        <time>2020-08-10T11:49:04.768Z</time>
      </trkpt>
      <trkpt lat="64.25894" lon="11.18977">
        <ele>60.683047</ele>
        <time>2020-08-10T11:49:07.745Z</time>
      </trkpt>
      <trkpt lat="64.25904" lon="11.1898">
        <ele>61.17014</ele>
        <time>2020-08-10T11:49:10.762Z</time>
      </trkpt>
      <trkpt lat="64.25914" lon="11.18982">
        <ele>61.749697</ele>
        <time>2020-08-10T11:49:13.743Z</time>
      </trkpt>
      <trkpt lat="64.25924" lon="11.18984">
        <ele>62.296308</ele>
        <time>2020-08-10T11:49:16.740Z</time>
      </trkpt>
      <trkpt lat="64.25933" lon="11.18986">
        <ele>62.812797</ele>
        <time>2020-08-10T11:49:19.734Z</time>
      </trkpt>
      <trkpt lat="64.25943" lon="11.18989">
        <ele>63.421763</ele>
        <time>2020-08-10T11:49:23.744Z</time>
      </trkpt>
      <trkpt lat="64.25955" lon="11.1899">
        <ele>64.072857</ele>
        <time>2020-08-10T11:49:27.730Z</time>
      </trkpt>
      <trkpt lat="64.25966" lon="11.18991">
        <ele>64.70113</ele>
        <time>2020-08-10T11:49:31.738Z</time>
      </trkpt>
      <trkpt lat="64.25976" lon="11.18996">
        <ele>65.299082</ele>
        <time>2020-08-10T11:49:35.730Z</time>
      </trkpt>
      <trkpt lat="64.25987" lon="11.19001">
        <ele>65.89755</ele>
        <time>2020-08-10T11:49:39.724Z</time>
      </trkpt>
      <trkpt lat="64.25997" lon="11.19007">
        <ele>66.516463</ele>
        <time>2020-08-10T11:49:43.728Z</time>
      </trkpt>
      <trkpt lat="64.26008" lon="11.19015">
        <ele>67.124237</ele>
        <time>2020-08-10T11:49:47.750Z</time>
      </trkpt>
      <trkpt lat="64.26016" lon="11.19023">
        <ele>67.634006</ele>
        <time>2020-08-10T11:49:51.731Z</time>
      </trkpt>
      <trkpt lat="64.26024" lon="11.19032">
        <ele>68.149164</ele>
        <time>2020-08-10T11:49:55.763Z</time>
      </trkpt>
      <trkpt lat="64.26033" lon="11.19043">
        <ele>68.747668</ele>
        <time>2020-08-10T11:49:59.742Z</time>
      </trkpt>
      <trkpt lat="64.26043" lon="11.19055">
        <ele>69.34318</ele>
        <time>2020-08-10T11:50:03.738Z</time>
      </trkpt>
      <trkpt lat="64.26051" lon="11.1907">
        <ele>69.951785</ele>
        <time>2020-08-10T11:50:07.740Z</time>
      </trkpt>
      <trkpt lat="64.26061" lon="11.19086">
        <ele>70.631127</ele>
        <time>2020-08-10T11:50:11.760Z</time>
      </trkpt>
      <trkpt lat="64.2607" lon="11.19103">
        <ele>70.799886</ele>
        <time>2020-08-10T11:50:15.742Z</time>
      </trkpt>
      <trkpt lat="64.26078" lon="11.19121">
        <ele>70.490455</ele>
        <time>2020-08-10T11:50:19.736Z</time>
      </trkpt>
      <trkpt lat="64.26085" lon="11.19142">
        <ele>70.171871</ele>
        <time>2020-08-10T11:50:23.744Z</time>
      </trkpt>
      <trkpt lat="64.26091" lon="11.19159">
        <ele>69.919495</ele>
        <time>2020-08-10T11:50:26.739Z</time>
      </trkpt>
      <trkpt lat="64.26096" lon="11.19177">
        <ele>69.66187</ele>
        <time>2020-08-10T11:50:29.724Z</time>
      </trkpt>
      <trkpt lat="64.26101" lon="11.19197">
        <ele>69.380333</ele>
        <time>2020-08-10T11:50:32.731Z</time>
      </trkpt>
      <trkpt lat="64.26106" lon="11.19221">
        <ele>69.066544</ele>
        <time>2020-08-10T11:50:35.767Z</time>
      </trkpt>
      <trkpt lat="64.2611" lon="11.19246">
        <ele>68.737497</ele>
        <time>2020-08-10T11:50:38.724Z</time>
      </trkpt>
      <trkpt lat="64.26114" lon="11.19273">
        <ele>68.40833</ele>
        <time>2020-08-10T11:50:41.725Z</time>
      </trkpt>
      <trkpt lat="64.26117" lon="11.19299">
        <ele>68.087034</ele>
        <time>2020-08-10T11:50:44.773Z</time>
      </trkpt>
      <trkpt lat="64.2612" lon="11.19327">
        <ele>67.738833</ele>
        <time>2020-08-10T11:50:47.730Z</time>
      </trkpt>
      <trkpt lat="64.26121" lon="11.19348">
        <ele>67.490774</ele>
        <time>2020-08-10T11:50:49.736Z</time>
      </trkpt>
      <trkpt lat="64.26122" lon="11.19378">
        <ele>67.128662</ele>
        <time>2020-08-10T11:50:52.746Z</time>
      </trkpt>
      <trkpt lat="64.26122" lon="11.19399">
        <ele>66.881852</ele>
        <time>2020-08-10T11:50:54.741Z</time>
      </trkpt>
      <trkpt lat="64.26123" lon="11.19429">
        <ele>66.518025</ele>
        <time>2020-08-10T11:50:57.751Z</time>
      </trkpt>
      <trkpt lat="64.26124" lon="11.19459">
        <ele>66.165418</ele>
        <time>2020-08-10T11:51:00.756Z</time>
      </trkpt>
      <trkpt lat="64.26124" lon="11.19488">
        <ele>65.897276</ele>
        <time>2020-08-10T11:51:03.757Z</time>
      </trkpt>
      <trkpt lat="64.26125" lon="11.19509">
        <ele>65.75239</ele>
        <time>2020-08-10T11:51:05.725Z</time>
      </trkpt>
      <trkpt lat="64.26125" lon="11.1953">
        <ele>65.60642</ele>
        <time>2020-08-10T11:51:07.759Z</time>
      </trkpt>
      <trkpt lat="64.26125" lon="11.19552">
        <ele>65.450673</ele>
        <time>2020-08-10T11:51:09.750Z</time>
      </trkpt>
      <trkpt lat="64.26125" lon="11.19576">
        <ele>65.286271</ele>
        <time>2020-08-10T11:51:11.777Z</time>
      </trkpt>
      <trkpt lat="64.26126" lon="11.196">
        <ele>65.117072</ele>
        <time>2020-08-10T11:51:13.736Z</time>
      </trkpt>
      <trkpt lat="64.26127" lon="11.19624">
        <ele>64.947446</ele>
        <time>2020-08-10T11:51:15.747Z</time>
      </trkpt>
      <trkpt lat="64.26128" lon="11.1965">
        <ele>64.769592</ele>
        <time>2020-08-10T11:51:17.748Z</time>
      </trkpt>
      <trkpt lat="64.26129" lon="11.19674">
        <ele>64.596016</ele>
        <time>2020-08-10T11:51:19.738Z</time>
      </trkpt>
      <trkpt lat="64.2613" lon="11.19699">
        <ele>64.419833</ele>
        <time>2020-08-10T11:51:21.741Z</time>
      </trkpt>
      <trkpt lat="64.26131" lon="11.19724">
        <ele>64.248816</ele>
        <time>2020-08-10T11:51:23.775Z</time>
      </trkpt>
      <trkpt lat="64.26131" lon="11.19745">
        <ele>64.100053</ele>
        <time>2020-08-10T11:51:25.737Z</time>
      </trkpt>
      <trkpt lat="64.26132" lon="11.19769">
        <ele>63.931511</ele>
        <time>2020-08-10T11:51:28.755Z</time>
      </trkpt>
      <trkpt lat="64.2614" lon="11.19782">
        <ele>63.771929</ele>
        <time>2020-08-10T11:51:31.738Z</time>
      </trkpt>
      <trkpt lat="64.26152" lon="11.19783">
        <ele>63.588437</ele>
        <time>2020-08-10T11:51:34.735Z</time>
      </trkpt>
      <trkpt lat="64.26165" lon="11.19778">
        <ele>63.374417</ele>
        <time>2020-08-10T11:51:37.738Z</time>
      </trkpt>
      <trkpt lat="64.26174" lon="11.19774">
        <ele>63.228721</ele>
        <time>2020-08-10T11:51:39.738Z</time>
      </trkpt>
      <trkpt lat="64.26183" lon="11.19769">
        <ele>63.063054</ele>
        <time>2020-08-10T11:51:41.737Z</time>
      </trkpt>
      <trkpt lat="64.26192" lon="11.19765">
        <ele>62.876417</ele>
        <time>2020-08-10T11:51:43.776Z</time>
      </trkpt>
      <trkpt lat="64.26202" lon="11.19761">
        <ele>62.678511</ele>
        <time>2020-08-10T11:51:45.723Z</time>
      </trkpt>
      <trkpt lat="64.26212" lon="11.19755">
        <ele>62.469626</ele>
        <time>2020-08-10T11:51:47.741Z</time>
      </trkpt>
      <trkpt lat="64.26222" lon="11.1975">
        <ele>62.257008</ele>
        <time>2020-08-10T11:51:49.744Z</time>
      </trkpt>
      <trkpt lat="64.26232" lon="11.19745">
        <ele>62.040823</ele>
        <time>2020-08-10T11:51:51.741Z</time>
      </trkpt>
      <trkpt lat="64.26243" lon="11.1974">
        <ele>61.816571</ele>
        <time>2020-08-10T11:51:53.724Z</time>
      </trkpt>
      <trkpt lat="64.26254" lon="11.19735">
        <ele>61.591024</ele>
        <time>2020-08-10T11:51:55.758Z</time>
      </trkpt>
      <trkpt lat="64.26265" lon="11.1973">
        <ele>61.362998</ele>
        <time>2020-08-10T11:51:57.737Z</time>
      </trkpt>
      <trkpt lat="64.26277" lon="11.19724">
        <ele>61.1305</ele>
        <time>2020-08-10T11:51:59.738Z</time>
      </trkpt>
      <trkpt lat="64.26288" lon="11.19718">
        <ele>60.892358</ele>
        <time>2020-08-10T11:52:01.752Z</time>
      </trkpt>
      <trkpt lat="64.263" lon="11.19712">
        <ele>60.64421</ele>
        <time>2020-08-10T11:52:03.774Z</time>
      </trkpt>
      <trkpt lat="64.26313" lon="11.19706">
        <ele>60.3814</ele>
        <time>2020-08-10T11:52:05.740Z</time>
      </trkpt>
      <trkpt lat="64.26326" lon="11.19701">
        <ele>60.109626</ele>
        <time>2020-08-10T11:52:07.766Z</time>
      </trkpt>
      <trkpt lat="64.2634" lon="11.19695">
        <ele>59.825347</ele>
        <time>2020-08-10T11:52:09.784Z</time>
      </trkpt>
      <trkpt lat="64.26354" lon="11.19688">
        <ele>59.549104</ele>
        <time>2020-08-10T11:52:11.738Z</time>
      </trkpt>
      <trkpt lat="64.26367" lon="11.19682">
        <ele>59.335556</ele>
        <time>2020-08-10T11:52:13.743Z</time>
      </trkpt>
      <trkpt lat="64.2638" lon="11.19675">
        <ele>59.139214</ele>
        <time>2020-08-10T11:52:15.739Z</time>
      </trkpt>
      <trkpt lat="64.26393" lon="11.19668">
        <ele>58.940422</ele>
        <time>2020-08-10T11:52:17.758Z</time>
      </trkpt>
      <trkpt lat="64.26407" lon="11.19662">
        <ele>58.738077</ele>
        <time>2020-08-10T11:52:19.728Z</time>
      </trkpt>
      <trkpt lat="64.2642" lon="11.19656">
        <ele>58.537984</ele>
        <time>2020-08-10T11:52:21.761Z</time>
      </trkpt>
      <trkpt lat="64.26434" lon="11.1965">
        <ele>58.340754</ele>
        <time>2020-08-10T11:52:23.747Z</time>
      </trkpt>
      <trkpt lat="64.26447" lon="11.19644">
        <ele>58.139726</ele>
        <time>2020-08-10T11:52:25.774Z</time>
      </trkpt>
      <trkpt lat="64.26461" lon="11.19637">
        <ele>57.939372</ele>
        <time>2020-08-10T11:52:27.754Z</time>
      </trkpt>
      <trkpt lat="64.26474" lon="11.19631">
        <ele>57.735231</ele>
        <time>2020-08-10T11:52:29.739Z</time>
      </trkpt>
      <trkpt lat="64.26488" lon="11.19624">
        <ele>57.535614</ele>
        <time>2020-08-10T11:52:31.740Z</time>
      </trkpt>
      <trkpt lat="64.26501" lon="11.19617">
        <ele>57.337845</ele>
        <time>2020-08-10T11:52:33.744Z</time>
      </trkpt>
      <trkpt lat="64.26514" lon="11.19611">
        <ele>57.142432</ele>
        <time>2020-08-10T11:52:35.755Z</time>
      </trkpt>
      <trkpt lat="64.26527" lon="11.19604">
        <ele>56.947793</ele>
        <time>2020-08-10T11:52:37.734Z</time>
      </trkpt>
      <trkpt lat="64.26539" lon="11.19598">
        <ele>56.756519</ele>
        <time>2020-08-10T11:52:39.759Z</time>
      </trkpt>
      <trkpt lat="64.26552" lon="11.19593">
        <ele>56.563944</ele>
        <time>2020-08-10T11:52:41.741Z</time>
      </trkpt>
      <trkpt lat="64.26564" lon="11.19587">
        <ele>56.37636</ele>
        <time>2020-08-10T11:52:43.739Z</time>
      </trkpt>
      <trkpt lat="64.26576" lon="11.19582">
        <ele>56.188263</ele>
        <time>2020-08-10T11:52:45.768Z</time>
      </trkpt>
      <trkpt lat="64.26588" lon="11.19576">
        <ele>56.003283</ele>
        <time>2020-08-10T11:52:47.765Z</time>
      </trkpt>
      <trkpt lat="64.266" lon="11.19571">
        <ele>55.815821</ele>
        <time>2020-08-10T11:52:49.731Z</time>
      </trkpt>
      <trkpt lat="64.26612" lon="11.19566">
        <ele>55.629856</ele>
        <time>2020-08-10T11:52:51.757Z</time>
      </trkpt>
      <trkpt lat="64.26624" lon="11.1956">
        <ele>55.444876</ele>
        <time>2020-08-10T11:52:53.745Z</time>
      </trkpt>
      <trkpt lat="64.26636" lon="11.19554">
        <ele>55.256911</ele>
        <time>2020-08-10T11:52:55.735Z</time>
      </trkpt>
      <trkpt lat="64.26648" lon="11.19549">
        <ele>55.074915</ele>
        <time>2020-08-10T11:52:57.760Z</time>
      </trkpt>
      <trkpt lat="64.26659" lon="11.19543">
        <ele>54.899152</ele>
        <time>2020-08-10T11:52:59.733Z</time>
      </trkpt>
      <trkpt lat="64.2667" lon="11.19538">
        <ele>54.722287</ele>
        <time>2020-08-10T11:53:01.763Z</time>
      </trkpt>
      <trkpt lat="64.26682" lon="11.19532">
        <ele>54.543738</ele>
        <time>2020-08-10T11:53:03.782Z</time>
      </trkpt>
      <trkpt lat="64.26693" lon="11.19527">
        <ele>54.368857</ele>
        <time>2020-08-10T11:53:05.740Z</time>
      </trkpt>
      <trkpt lat="64.26704" lon="11.19522">
        <ele>54.19472</ele>
        <time>2020-08-10T11:53:07.737Z</time>
      </trkpt>
      <trkpt lat="64.26716" lon="11.19516">
        <ele>54.159724</ele>
        <time>2020-08-10T11:53:09.750Z</time>
      </trkpt>
      <trkpt lat="64.26727" lon="11.19511">
        <ele>54.203947</ele>
        <time>2020-08-10T11:53:11.757Z</time>
      </trkpt>
      <trkpt lat="64.26739" lon="11.19505">
        <ele>54.2488</ele>
        <time>2020-08-10T11:53:13.737Z</time>
      </trkpt>
      <trkpt lat="64.26751" lon="11.195">
        <ele>54.292109</ele>
        <time>2020-08-10T11:53:15.730Z</time>
      </trkpt>
      <trkpt lat="64.26762" lon="11.19495">
        <ele>54.333905</ele>
        <time>2020-08-10T11:53:17.751Z</time>
      </trkpt>
      <trkpt lat="64.26773" lon="11.19489">
        <ele>54.374802</ele>
        <time>2020-08-10T11:53:19.755Z</time>
      </trkpt>
      <trkpt lat="64.26783" lon="11.19484">
        <ele>54.413966</ele>
        <time>2020-08-10T11:53:21.737Z</time>
      </trkpt>
      <trkpt lat="64.26793" lon="11.19479">
        <ele>54.453612</ele>
        <time>2020-08-10T11:53:23.728Z</time>
      </trkpt>
      <trkpt lat="64.26804" lon="11.19474">
        <ele>54.493196</ele>
        <time>2020-08-10T11:53:25.768Z</time>
      </trkpt>
      <trkpt lat="64.26814" lon="11.19469">
        <ele>54.532022</ele>
        <time>2020-08-10T11:53:27.730Z</time>
      </trkpt>
      <trkpt lat="64.26825" lon="11.19464">
        <ele>54.572095</ele>
        <time>2020-08-10T11:53:29.734Z</time>
      </trkpt>
      <trkpt lat="64.26836" lon="11.1946">
        <ele>54.612682</ele>
        <time>2020-08-10T11:53:31.746Z</time>
      </trkpt>
      <trkpt lat="64.26846" lon="11.19455">
        <ele>54.65372</ele>
        <time>2020-08-10T11:53:33.738Z</time>
      </trkpt>
      <trkpt lat="64.26857" lon="11.1945">
        <ele>54.694326</ele>
        <time>2020-08-10T11:53:35.734Z</time>
      </trkpt>
      <trkpt lat="64.26868" lon="11.19444">
        <ele>54.733709</ele>
        <time>2020-08-10T11:53:37.738Z</time>
      </trkpt>
      <trkpt lat="64.26878" lon="11.19439">
        <ele>54.773453</ele>
        <time>2020-08-10T11:53:39.748Z</time>
      </trkpt>
      <trkpt lat="64.26889" lon="11.19434">
        <ele>54.835752</ele>
        <time>2020-08-10T11:53:41.755Z</time>
      </trkpt>
      <trkpt lat="64.26899" lon="11.19429">
        <ele>54.934306</ele>
        <time>2020-08-10T11:53:43.733Z</time>
      </trkpt>
      <trkpt lat="64.2691" lon="11.19425">
        <ele>55.032625</ele>
        <time>2020-08-10T11:53:45.736Z</time>
      </trkpt>
      <trkpt lat="64.26921" lon="11.19419">
        <ele>55.133042</ele>
        <time>2020-08-10T11:53:47.743Z</time>
      </trkpt>
      <trkpt lat="64.26931" lon="11.19414">
        <ele>55.233378</ele>
        <time>2020-08-10T11:53:49.758Z</time>
      </trkpt>
      <trkpt lat="64.26942" lon="11.19409">
        <ele>55.332182</ele>
        <time>2020-08-10T11:53:51.742Z</time>
      </trkpt>
      <trkpt lat="64.26952" lon="11.19404">
        <ele>55.427595</ele>
        <time>2020-08-10T11:53:53.755Z</time>
      </trkpt>
      <trkpt lat="64.26962" lon="11.194">
        <ele>55.522114</ele>
        <time>2020-08-10T11:53:55.741Z</time>
      </trkpt>
      <trkpt lat="64.26973" lon="11.19395">
        <ele>55.620283</ele>
        <time>2020-08-10T11:53:57.732Z</time>
      </trkpt>
      <trkpt lat="64.26984" lon="11.1939">
        <ele>55.718374</ele>
        <time>2020-08-10T11:53:59.727Z</time>
      </trkpt>
      <trkpt lat="64.26994" lon="11.19384">
        <ele>55.818955</ele>
        <time>2020-08-10T11:54:01.747Z</time>
      </trkpt>
      <trkpt lat="64.27005" lon="11.19379">
        <ele>55.920344</ele>
        <time>2020-08-10T11:54:03.749Z</time>
      </trkpt>
      <trkpt lat="64.27016" lon="11.19373">
        <ele>56.018524</ele>
        <time>2020-08-10T11:54:05.737Z</time>
      </trkpt>
      <trkpt lat="64.27027" lon="11.19368">
        <ele>56.11919</ele>
        <time>2020-08-10T11:54:07.752Z</time>
      </trkpt>
      <trkpt lat="64.27037" lon="11.19362">
        <ele>56.219771</ele>
        <time>2020-08-10T11:54:09.731Z</time>
      </trkpt>
      <trkpt lat="64.27049" lon="11.19357">
        <ele>56.32594</ele>
        <time>2020-08-10T11:54:11.750Z</time>
      </trkpt>
      <trkpt lat="64.2706" lon="11.19351">
        <ele>56.433494</ele>
        <time>2020-08-10T11:54:13.736Z</time>
      </trkpt>
      <trkpt lat="64.27072" lon="11.19346">
        <ele>56.339636</ele>
        <time>2020-08-10T11:54:15.779Z</time>
      </trkpt>
      <trkpt lat="64.27084" lon="11.19341">
        <ele>56.243983</ele>
        <time>2020-08-10T11:54:17.736Z</time>
      </trkpt>
      <trkpt lat="64.27095" lon="11.19335">
        <ele>56.148261</ele>
        <time>2020-08-10T11:54:19.744Z</time>
      </trkpt>
      <trkpt lat="64.27106" lon="11.19332">
        <ele>56.057595</ele>
        <time>2020-08-10T11:54:21.731Z</time>
      </trkpt>
      <trkpt lat="64.27118" lon="11.19329">
        <ele>55.964097</ele>
        <time>2020-08-10T11:54:23.723Z</time>
      </trkpt>
      <trkpt lat="64.27129" lon="11.19326">
        <ele>55.869758</ele>
        <time>2020-08-10T11:54:25.749Z</time>
      </trkpt>
      <trkpt lat="64.27141" lon="11.19324">
        <ele>55.777284</ele>
        <time>2020-08-10T11:54:27.778Z</time>
      </trkpt>
      <trkpt lat="64.27152" lon="11.19322">
        <ele>55.686335</ele>
        <time>2020-08-10T11:54:29.742Z</time>
      </trkpt>
      <trkpt lat="64.27163" lon="11.1932">
        <ele>55.596252</ele>
        <time>2020-08-10T11:54:31.733Z</time>
      </trkpt>
      <trkpt lat="64.27174" lon="11.19318">
        <ele>55.508525</ele>
        <time>2020-08-10T11:54:33.748Z</time>
      </trkpt>
      <trkpt lat="64.27185" lon="11.19315">
        <ele>55.419155</ele>
        <time>2020-08-10T11:54:35.737Z</time>
      </trkpt>
      <trkpt lat="64.27196" lon="11.19314">
        <ele>55.33162</ele>
        <time>2020-08-10T11:54:37.735Z</time>
      </trkpt>
      <trkpt lat="64.27206" lon="11.19312">
        <ele>55.246483</ele>
        <time>2020-08-10T11:54:39.742Z</time>
      </trkpt>
      <trkpt lat="64.27217" lon="11.19311">
        <ele>55.161497</ele>
        <time>2020-08-10T11:54:41.746Z</time>
      </trkpt>
      <trkpt lat="64.27227" lon="11.19311">
        <ele>55.074948</ele>
        <time>2020-08-10T11:54:43.757Z</time>
      </trkpt>
      <trkpt lat="64.27238" lon="11.1931">
        <ele>54.989974</ele>
        <time>2020-08-10T11:54:45.729Z</time>
      </trkpt>
      <trkpt lat="64.27249" lon="11.19309">
        <ele>54.619455</ele>
        <time>2020-08-10T11:54:47.755Z</time>
      </trkpt>
      <trkpt lat="64.2726" lon="11.19307">
        <ele>54.205546</ele>
        <time>2020-08-10T11:54:49.730Z</time>
      </trkpt>
      <trkpt lat="64.27272" lon="11.19305">
        <ele>53.769951</ele>
        <time>2020-08-10T11:54:51.726Z</time>
      </trkpt>
      <trkpt lat="64.27285" lon="11.19304">
        <ele>53.323866</ele>
        <time>2020-08-10T11:54:53.730Z</time>
      </trkpt>
      <trkpt lat="64.27298" lon="11.19303">
        <ele>52.859763</ele>
        <time>2020-08-10T11:54:55.728Z</time>
      </trkpt>
      <trkpt lat="64.27311" lon="11.19302">
        <ele>52.370549</ele>
        <time>2020-08-10T11:54:57.738Z</time>
      </trkpt>
      <trkpt lat="64.27325" lon="11.19301">
        <ele>51.866806</ele>
        <time>2020-08-10T11:54:59.725Z</time>
      </trkpt>
      <trkpt lat="64.2734" lon="11.193">
        <ele>51.334246</ele>
        <time>2020-08-10T11:55:01.761Z</time>
      </trkpt>
      <trkpt lat="64.27355" lon="11.19301">
        <ele>50.76874</ele>
        <time>2020-08-10T11:55:03.760Z</time>
      </trkpt>
      <trkpt lat="64.27371" lon="11.19305">
        <ele>50.183107</ele>
        <time>2020-08-10T11:55:05.751Z</time>
      </trkpt>
      <trkpt lat="64.27388" lon="11.1931">
        <ele>49.579206</ele>
        <time>2020-08-10T11:55:07.754Z</time>
      </trkpt>
      <trkpt lat="64.27405" lon="11.19317">
        <ele>48.958041</ele>
        <time>2020-08-10T11:55:09.741Z</time>
      </trkpt>
      <trkpt lat="64.27421" lon="11.19323">
        <ele>48.443512</ele>
        <time>2020-08-10T11:55:11.726Z</time>
      </trkpt>
      <trkpt lat="64.27437" lon="11.19329">
        <ele>48.330673</ele>
        <time>2020-08-10T11:55:13.753Z</time>
      </trkpt>
      <trkpt lat="64.27452" lon="11.19334">
        <ele>48.22439</ele>
        <time>2020-08-10T11:55:15.759Z</time>
      </trkpt>
      <trkpt lat="64.27466" lon="11.19338">
        <ele>48.127085</ele>
        <time>2020-08-10T11:55:17.744Z</time>
      </trkpt>
      <trkpt lat="64.27479" lon="11.19342">
        <ele>48.035062</ele>
        <time>2020-08-10T11:55:19.726Z</time>
      </trkpt>
      <trkpt lat="64.27491" lon="11.19347">
        <ele>47.948094</ele>
        <time>2020-08-10T11:55:21.732Z</time>
      </trkpt>
      <trkpt lat="64.27503" lon="11.19351">
        <ele>47.866573</ele>
        <time>2020-08-10T11:55:23.753Z</time>
      </trkpt>
      <trkpt lat="64.27514" lon="11.19356">
        <ele>47.785845</ele>
        <time>2020-08-10T11:55:25.746Z</time>
      </trkpt>
      <trkpt lat="64.27525" lon="11.19359">
        <ele>47.710544</ele>
        <time>2020-08-10T11:55:27.726Z</time>
      </trkpt>
      <trkpt lat="64.27536" lon="11.19363">
        <ele>47.635763</ele>
        <time>2020-08-10T11:55:29.756Z</time>
      </trkpt>
      <trkpt lat="64.27546" lon="11.19366">
        <ele>47.561885</ele>
        <time>2020-08-10T11:55:31.723Z</time>
      </trkpt>
      <trkpt lat="64.27556" lon="11.19367">
        <ele>47.491341</ele>
        <time>2020-08-10T11:55:33.779Z</time>
      </trkpt>
      <trkpt lat="64.27566" lon="11.19367">
        <ele>47.423681</ele>
        <time>2020-08-10T11:55:35.782Z</time>
      </trkpt>
      <trkpt lat="64.27576" lon="11.19368">
        <ele>47.355966</ele>
        <time>2020-08-10T11:55:37.733Z</time>
      </trkpt>
      <trkpt lat="64.27585" lon="11.19369">
        <ele>47.288921</ele>
        <time>2020-08-10T11:55:39.776Z</time>
      </trkpt>
      <trkpt lat="64.27595" lon="11.1937">
        <ele>47.21775</ele>
        <time>2020-08-10T11:55:41.743Z</time>
      </trkpt>
      <trkpt lat="64.27606" lon="11.1937">
        <ele>47.433787</ele>
        <time>2020-08-10T11:55:43.729Z</time>
      </trkpt>
      <trkpt lat="64.27616" lon="11.19369">
        <ele>47.680757</ele>
        <time>2020-08-10T11:55:45.775Z</time>
      </trkpt>
      <trkpt lat="64.27626" lon="11.19368">
        <ele>47.925573</ele>
        <time>2020-08-10T11:55:47.769Z</time>
      </trkpt>
      <trkpt lat="64.27636" lon="11.19366">
        <ele>48.16315</ele>
        <time>2020-08-10T11:55:49.747Z</time>
      </trkpt>
      <trkpt lat="64.27645" lon="11.19365">
        <ele>48.400357</ele>
        <time>2020-08-10T11:55:51.721Z</time>
      </trkpt>
      <trkpt lat="64.27655" lon="11.19365">
        <ele>48.642251</ele>
        <time>2020-08-10T11:55:53.728Z</time>
      </trkpt>
      <trkpt lat="64.27665" lon="11.19366">
        <ele>48.877123</ele>
        <time>2020-08-10T11:55:55.736Z</time>
      </trkpt>
      <trkpt lat="64.27674" lon="11.19368">
        <ele>49.1026</ele>
        <time>2020-08-10T11:55:57.733Z</time>
      </trkpt>
      <trkpt lat="64.27683" lon="11.19371">
        <ele>49.331595</ele>
        <time>2020-08-10T11:55:59.742Z</time>
      </trkpt>
      <trkpt lat="64.27692" lon="11.19373">
        <ele>49.551039</ele>
        <time>2020-08-10T11:56:01.739Z</time>
      </trkpt>
      <trkpt lat="64.27705" lon="11.19377">
        <ele>49.865813</ele>
        <time>2020-08-10T11:56:04.725Z</time>
      </trkpt>
      <trkpt lat="64.27717" lon="11.19381">
        <ele>50.162661</ele>
        <time>2020-08-10T11:56:07.765Z</time>
      </trkpt>
      <trkpt lat="64.27729" lon="11.19386">
        <ele>50.455393</ele>
        <time>2020-08-10T11:56:10.734Z</time>
      </trkpt>
      <trkpt lat="64.2774" lon="11.19394">
        <ele>50.752365</ele>
        <time>2020-08-10T11:56:13.741Z</time>
      </trkpt>
      <trkpt lat="64.27752" lon="11.19401">
        <ele>51.053761</ele>
        <time>2020-08-10T11:56:16.739Z</time>
      </trkpt>
      <trkpt lat="64.27764" lon="11.19408">
        <ele>51.354333</ele>
        <time>2020-08-10T11:56:19.750Z</time>
      </trkpt>
      <trkpt lat="64.27776" lon="11.19416">
        <ele>51.604666</ele>
        <time>2020-08-10T11:56:22.759Z</time>
      </trkpt>
      <trkpt lat="64.27789" lon="11.19423">
        <ele>51.608826</ele>
        <time>2020-08-10T11:56:25.735Z</time>
      </trkpt>
      <trkpt lat="64.27801" lon="11.19431">
        <ele>51.613093</ele>
        <time>2020-08-10T11:56:28.746Z</time>
      </trkpt>
      <trkpt lat="64.2781" lon="11.19437">
        <ele>51.616021</ele>
        <time>2020-08-10T11:56:30.745Z</time>
      </trkpt>
      <trkpt lat="64.27819" lon="11.19442">
        <ele>51.619064</ele>
        <time>2020-08-10T11:56:32.730Z</time>
      </trkpt>
      <trkpt lat="64.27828" lon="11.19447">
        <ele>51.622121</ele>
        <time>2020-08-10T11:56:34.724Z</time>
      </trkpt>
      <trkpt lat="64.27837" lon="11.19452">
        <ele>51.625184</ele>
        <time>2020-08-10T11:56:36.737Z</time>
      </trkpt>
      <trkpt lat="64.27847" lon="11.19455">
        <ele>51.628217</ele>
        <time>2020-08-10T11:56:38.730Z</time>
      </trkpt>
      <trkpt lat="64.27859" lon="11.19461">
        <ele>51.632397</ele>
        <time>2020-08-10T11:56:41.720Z</time>
      </trkpt>
      <trkpt lat="64.27872" lon="11.19467">
        <ele>51.636612</ele>
        <time>2020-08-10T11:56:44.738Z</time>
      </trkpt>
      <trkpt lat="64.27885" lon="11.19472">
        <ele>51.640987</ele>
        <time>2020-08-10T11:56:47.747Z</time>
      </trkpt>
      <trkpt lat="64.27895" lon="11.19474">
        <ele>51.64407</ele>
        <time>2020-08-10T11:56:49.757Z</time>
      </trkpt>
      <trkpt lat="64.27904" lon="11.19477">
        <ele>51.647285</ele>
        <time>2020-08-10T11:56:51.772Z</time>
      </trkpt>
      <trkpt lat="64.27914" lon="11.1948">
        <ele>51.65047</ele>
        <time>2020-08-10T11:56:53.745Z</time>
      </trkpt>
      <trkpt lat="64.27924" lon="11.19484">
        <ele>51.653765</ele>
        <time>2020-08-10T11:56:55.746Z</time>
      </trkpt>
      <trkpt lat="64.27934" lon="11.19487">
        <ele>51.656981</ele>
        <time>2020-08-10T11:56:57.730Z</time>
      </trkpt>
      <trkpt lat="64.27944" lon="11.1949">
        <ele>51.660226</ele>
        <time>2020-08-10T11:56:59.745Z</time>
      </trkpt>
      <trkpt lat="64.27954" lon="11.19493">
        <ele>51.681895</ele>
        <time>2020-08-10T11:57:01.738Z</time>
      </trkpt>
      <trkpt lat="64.27964" lon="11.19496">
        <ele>51.743223</ele>
        <time>2020-08-10T11:57:03.737Z</time>
      </trkpt>
      <trkpt lat="64.27974" lon="11.19498">
        <ele>51.803216</ele>
        <time>2020-08-10T11:57:05.738Z</time>
      </trkpt>
      <trkpt lat="64.27985" lon="11.195">
        <ele>51.863093</ele>
        <time>2020-08-10T11:57:07.727Z</time>
      </trkpt>
      <trkpt lat="64.27994" lon="11.19503">
        <ele>51.920204</ele>
        <time>2020-08-10T11:57:09.740Z</time>
      </trkpt>
      <trkpt lat="64.28004" lon="11.19506">
        <ele>51.976961</ele>
        <time>2020-08-10T11:57:11.740Z</time>
      </trkpt>
      <trkpt lat="64.28013" lon="11.19508">
        <ele>52.0323</ele>
        <time>2020-08-10T11:57:13.736Z</time>
      </trkpt>
      <trkpt lat="64.28023" lon="11.1951">
        <ele>52.08693</ele>
        <time>2020-08-10T11:57:15.758Z</time>
      </trkpt>
      <trkpt lat="64.28032" lon="11.19512">
        <ele>52.140372</ele>
        <time>2020-08-10T11:57:17.746Z</time>
      </trkpt>
      <trkpt lat="64.28041" lon="11.19512">
        <ele>52.193036</ele>
        <time>2020-08-10T11:57:19.735Z</time>
      </trkpt>
      <trkpt lat="64.2805" lon="11.19511">
        <ele>52.247481</ele>
        <time>2020-08-10T11:57:21.738Z</time>
      </trkpt>
      <trkpt lat="64.28059" lon="11.1951">
        <ele>52.302069</ele>
        <time>2020-08-10T11:57:23.751Z</time>
      </trkpt>
      <trkpt lat="64.28069" lon="11.19508">
        <ele>52.356073</ele>
        <time>2020-08-10T11:57:25.744Z</time>
      </trkpt>
      <trkpt lat="64.28082" lon="11.19504">
        <ele>52.43382</ele>
        <time>2020-08-10T11:57:28.740Z</time>
      </trkpt>
      <trkpt lat="64.28095" lon="11.19501">
        <ele>52.513368</ele>
        <time>2020-08-10T11:57:31.761Z</time>
      </trkpt>
      <trkpt lat="64.28104" lon="11.19499">
        <ele>52.56615</ele>
        <time>2020-08-10T11:57:33.731Z</time>
      </trkpt>
      <trkpt lat="64.28118" lon="11.19497">
        <ele>52.645376</ele>
        <time>2020-08-10T11:57:36.738Z</time>
      </trkpt>
      <trkpt lat="64.28127" lon="11.19495">
        <ele>52.700547</ele>
        <time>2020-08-10T11:57:38.743Z</time>
      </trkpt>
      <trkpt lat="64.28137" lon="11.19494">
        <ele>52.777167</ele>
        <time>2020-08-10T11:57:40.731Z</time>
      </trkpt>
      <trkpt lat="64.28146" lon="11.19495">
        <ele>52.855809</ele>
        <time>2020-08-10T11:57:42.738Z</time>
      </trkpt>
      <trkpt lat="64.28159" lon="11.19496">
        <ele>52.963937</ele>
        <time>2020-08-10T11:57:45.737Z</time>
      </trkpt>
      <trkpt lat="64.28168" lon="11.19495">
        <ele>53.041759</ele>
        <time>2020-08-10T11:57:47.743Z</time>
      </trkpt>
      <trkpt lat="64.28181" lon="11.19493">
        <ele>53.152433</ele>
        <time>2020-08-10T11:57:50.745Z</time>
      </trkpt>
      <trkpt lat="64.28194" lon="11.19491">
        <ele>53.260829</ele>
        <time>2020-08-10T11:57:53.746Z</time>
      </trkpt>
      <trkpt lat="64.28205" lon="11.19488">
        <ele>53.351998</ele>
        <time>2020-08-10T11:57:56.761Z</time>
      </trkpt>
      <trkpt lat="64.28216" lon="11.19484">
        <ele>53.443906</ele>
        <time>2020-08-10T11:57:59.731Z</time>
      </trkpt>
      <trkpt lat="64.28226" lon="11.19477">
        <ele>53.531421</ele>
        <time>2020-08-10T11:58:02.758Z</time>
      </trkpt>
      <trkpt lat="64.28237" lon="11.19474">
        <ele>53.627706</ele>
        <time>2020-08-10T11:58:05.741Z</time>
      </trkpt>
      <trkpt lat="64.28247" lon="11.19472">
        <ele>53.71327</ele>
        <time>2020-08-10T11:58:08.730Z</time>
      </trkpt>
      <trkpt lat="64.28256" lon="11.1947">
        <ele>53.791144</ele>
        <time>2020-08-10T11:58:11.769Z</time>
      </trkpt>
      <trkpt lat="64.28268" lon="11.19468">
        <ele>53.888514</ele>
        <time>2020-08-10T11:58:15.725Z</time>
      </trkpt>
      <trkpt lat="64.28278" lon="11.19465">
        <ele>53.97769</ele>
        <time>2020-08-10T11:58:19.740Z</time>
      </trkpt>
      <trkpt lat="64.28288" lon="11.19463">
        <ele>54.062445</ele>
        <time>2020-08-10T11:58:23.729Z</time>
      </trkpt>
      <trkpt lat="64.28298" lon="11.19462">
        <ele>54.142751</ele>
        <time>2020-08-10T11:58:27.735Z</time>
      </trkpt>
      <trkpt lat="64.28307" lon="11.1946">
        <ele>54.224951</ele>
        <time>2020-08-10T11:58:31.732Z</time>
      </trkpt>
      <trkpt lat="64.28318" lon="11.19459">
        <ele>54.257674</ele>
        <time>2020-08-10T11:58:35.734Z</time>
      </trkpt>
      <trkpt lat="64.28329" lon="11.19457">
        <ele>54.287317</ele>
        <time>2020-08-10T11:58:39.787Z</time>
      </trkpt>
      <trkpt lat="64.2834" lon="11.19455">
        <ele>54.317774</ele>
        <time>2020-08-10T11:58:43.751Z</time>
      </trkpt>
      <trkpt lat="64.2835" lon="11.19453">
        <ele>54.343689</ele>
        <time>2020-08-10T11:58:46.764Z</time>
      </trkpt>
      <trkpt lat="64.2836" lon="11.19451">
        <ele>54.372099</ele>
        <time>2020-08-10T11:58:49.720Z</time>
      </trkpt>
      <trkpt lat="64.28371" lon="11.19449">
        <ele>54.399892</ele>
        <time>2020-08-10T11:58:52.747Z</time>
      </trkpt>
      <trkpt lat="64.28382" lon="11.19447">
        <ele>54.429543</ele>
        <time>2020-08-10T11:58:55.729Z</time>
      </trkpt>
      <trkpt lat="64.28393" lon="11.19445">
        <ele>54.458426</ele>
        <time>2020-08-10T11:58:58.783Z</time>
      </trkpt>
      <trkpt lat="64.28404" lon="11.19443">
        <ele>54.487821</ele>
        <time>2020-08-10T11:59:01.798Z</time>
      </trkpt>
      <trkpt lat="64.28415" lon="11.1944">
        <ele>54.518604</ele>
        <time>2020-08-10T11:59:04.744Z</time>
      </trkpt>
      <trkpt lat="64.28427" lon="11.19438">
        <ele>54.550618</ele>
        <time>2020-08-10T11:59:07.730Z</time>
      </trkpt>
      <trkpt lat="64.2844" lon="11.19436">
        <ele>54.583758</ele>
        <time>2020-08-10T11:59:10.761Z</time>
      </trkpt>
      <trkpt lat="64.28453" lon="11.19433">
        <ele>54.619061</ele>
        <time>2020-08-10T11:59:13.753Z</time>
      </trkpt>
      <trkpt lat="64.28462" lon="11.19432">
        <ele>54.643609</ele>
        <time>2020-08-10T11:59:15.734Z</time>
      </trkpt>
      <trkpt lat="64.28471" lon="11.19431">
        <ele>54.668702</ele>
        <time>2020-08-10T11:59:17.728Z</time>
      </trkpt>
      <trkpt lat="64.28481" lon="11.1943">
        <ele>54.693776</ele>
        <time>2020-08-10T11:59:19.802Z</time>
      </trkpt>
      <trkpt lat="64.2849" lon="11.19429">
        <ele>54.636357</ele>
        <time>2020-08-10T11:59:21.749Z</time>
      </trkpt>
      <trkpt lat="64.285" lon="11.19428">
        <ele>54.340534</ele>
        <time>2020-08-10T11:59:23.728Z</time>
      </trkpt>
      <trkpt lat="64.28511" lon="11.19428">
        <ele>54.011622</ele>
        <time>2020-08-10T11:59:25.734Z</time>
      </trkpt>
      <trkpt lat="64.28522" lon="11.19429">
        <ele>53.68271</ele>
        <time>2020-08-10T11:59:27.723Z</time>
      </trkpt>
      <trkpt lat="64.28534" lon="11.1943">
        <ele>53.320046</ele>
        <time>2020-08-10T11:59:29.740Z</time>
      </trkpt>
      <trkpt lat="64.28547" lon="11.19433">
        <ele>52.920439</ele>
        <time>2020-08-10T11:59:31.738Z</time>
      </trkpt>
      <trkpt lat="64.2856" lon="11.19436">
        <ele>52.513975</ele>
        <time>2020-08-10T11:59:33.731Z</time>
      </trkpt>
      <trkpt lat="64.28573" lon="11.1944">
        <ele>52.132457</ele>
        <time>2020-08-10T11:59:35.766Z</time>
      </trkpt>
      <trkpt lat="64.28585" lon="11.19444">
        <ele>51.775587</ele>
        <time>2020-08-10T11:59:37.729Z</time>
      </trkpt>
      <trkpt lat="64.28598" lon="11.19449">
        <ele>51.3644</ele>
        <time>2020-08-10T11:59:39.735Z</time>
      </trkpt>
      <trkpt lat="64.28611" lon="11.19455">
        <ele>50.974832</ele>
        <time>2020-08-10T11:59:41.757Z</time>
      </trkpt>
      <trkpt lat="64.28624" lon="11.19461">
        <ele>50.575567</ele>
        <time>2020-08-10T11:59:43.739Z</time>
      </trkpt>
      <trkpt lat="64.28635" lon="11.19466">
        <ele>50.216302</ele>
        <time>2020-08-10T11:59:45.769Z</time>
      </trkpt>
      <trkpt lat="64.28646" lon="11.19471">
        <ele>49.886635</ele>
        <time>2020-08-10T11:59:47.740Z</time>
      </trkpt>
      <trkpt lat="64.28656" lon="11.19476">
        <ele>49.573298</ele>
        <time>2020-08-10T11:59:49.736Z</time>
      </trkpt>
      <trkpt lat="64.28666" lon="11.1948">
        <ele>49.270531</ele>
        <time>2020-08-10T11:59:51.756Z</time>
      </trkpt>
      <trkpt lat="64.28677" lon="11.19486">
        <ele>49.027579</ele>
        <time>2020-08-10T11:59:53.722Z</time>
      </trkpt>
      <trkpt lat="64.28687" lon="11.19491">
        <ele>48.778751</ele>
        <time>2020-08-10T11:59:55.743Z</time>
      </trkpt>
      <trkpt lat="64.28698" lon="11.19497">
        <ele>48.525704</ele>
        <time>2020-08-10T11:59:57.725Z</time>
      </trkpt>
      <trkpt lat="64.28709" lon="11.19504">
        <ele>48.270117</ele>
        <time>2020-08-10T11:59:59.743Z</time>
      </trkpt>
      <trkpt lat="64.2872" lon="11.19512">
        <ele>48.004457</ele>
        <time>2020-08-10T12:00:01.742Z</time>
      </trkpt>
      <trkpt lat="64.28731" lon="11.19521">
        <ele>47.733736</ele>
        <time>2020-08-10T12:00:03.767Z</time>
      </trkpt>
      <trkpt lat="64.28741" lon="11.19531">
        <ele>47.473426</ele>
        <time>2020-08-10T12:00:05.726Z</time>
      </trkpt>
      <trkpt lat="64.28751" lon="11.19542">
        <ele>47.225013</ele>
        <time>2020-08-10T12:00:07.758Z</time>
      </trkpt>
      <trkpt lat="64.28761" lon="11.19553">
        <ele>46.976158</ele>
        <time>2020-08-10T12:00:09.727Z</time>
      </trkpt>
      <trkpt lat="64.2877" lon="11.19564">
        <ele>46.738912</ele>
        <time>2020-08-10T12:00:11.737Z</time>
      </trkpt>
      <trkpt lat="64.28779" lon="11.19575">
        <ele>46.495757</ele>
        <time>2020-08-10T12:00:13.725Z</time>
      </trkpt>
      <trkpt lat="64.28788" lon="11.19586">
        <ele>46.2576</ele>
        <time>2020-08-10T12:00:15.757Z</time>
      </trkpt>
      <trkpt lat="64.28798" lon="11.19597">
        <ele>46.017854</ele>
        <time>2020-08-10T12:00:17.741Z</time>
      </trkpt>
      <trkpt lat="64.28807" lon="11.19607">
        <ele>45.776948</ele>
        <time>2020-08-10T12:00:19.762Z</time>
      </trkpt>
      <trkpt lat="64.28817" lon="11.19618">
        <ele>45.531477</ele>
        <time>2020-08-10T12:00:21.739Z</time>
      </trkpt>
      <trkpt lat="64.28827" lon="11.19629">
        <ele>45.272274</ele>
        <time>2020-08-10T12:00:23.741Z</time>
      </trkpt>
      <trkpt lat="64.28837" lon="11.19639">
        <ele>45.159307</ele>
        <time>2020-08-10T12:00:25.736Z</time>
      </trkpt>
      <trkpt lat="64.28847" lon="11.19647">
        <ele>45.172905</ele>
        <time>2020-08-10T12:00:27.731Z</time>
      </trkpt>
      <trkpt lat="64.28858" lon="11.19655">
        <ele>45.186398</ele>
        <time>2020-08-10T12:00:29.736Z</time>
      </trkpt>
      <trkpt lat="64.28869" lon="11.19662">
        <ele>45.200529</ele>
        <time>2020-08-10T12:00:31.761Z</time>
      </trkpt>
      <trkpt lat="64.2888" lon="11.1967">
        <ele>45.215071</ele>
        <time>2020-08-10T12:00:33.737Z</time>
      </trkpt>
      <trkpt lat="64.28892" lon="11.19676">
        <ele>45.229923</ele>
        <time>2020-08-10T12:00:35.772Z</time>
      </trkpt>
      <trkpt lat="64.28905" lon="11.19681">
        <ele>45.245434</ele>
        <time>2020-08-10T12:00:37.767Z</time>
      </trkpt>
      <trkpt lat="64.28916" lon="11.19687">
        <ele>45.259735</ele>
        <time>2020-08-10T12:00:39.756Z</time>
      </trkpt>
      <trkpt lat="64.28927" lon="11.19695">
        <ele>45.274027</ele>
        <time>2020-08-10T12:00:41.740Z</time>
      </trkpt>
      <trkpt lat="64.28938" lon="11.19702">
        <ele>45.288377</ele>
        <time>2020-08-10T12:00:43.733Z</time>
      </trkpt>
      <trkpt lat="64.2895" lon="11.19711">
        <ele>45.303387</ele>
        <time>2020-08-10T12:00:45.737Z</time>
      </trkpt>
      <trkpt lat="64.28961" lon="11.19719">
        <ele>45.317814</ele>
        <time>2020-08-10T12:00:47.742Z</time>
      </trkpt>
      <trkpt lat="64.28972" lon="11.19727">
        <ele>45.331678</ele>
        <time>2020-08-10T12:00:49.756Z</time>
      </trkpt>
      <trkpt lat="64.28982" lon="11.19733">
        <ele>45.345069</ele>
        <time>2020-08-10T12:00:51.736Z</time>
      </trkpt>
      <trkpt lat="64.28993" lon="11.1974">
        <ele>45.358341</ele>
        <time>2020-08-10T12:00:53.741Z</time>
      </trkpt>
      <trkpt lat="64.29003" lon="11.19747">
        <ele>45.37157</ele>
        <time>2020-08-10T12:00:55.803Z</time>
      </trkpt>
      <trkpt lat="64.29014" lon="11.19754">
        <ele>45.312537</ele>
        <time>2020-08-10T12:00:57.764Z</time>
      </trkpt>
      <trkpt lat="64.29025" lon="11.19761">
        <ele>45.239363</ele>
        <time>2020-08-10T12:00:59.749Z</time>
      </trkpt>
      <trkpt lat="64.29036" lon="11.19769">
        <ele>45.167505</ele>
        <time>2020-08-10T12:01:01.749Z</time>
      </trkpt>
      <trkpt lat="64.29047" lon="11.19776">
        <ele>45.094885</ele>
        <time>2020-08-10T12:01:03.782Z</time>
      </trkpt>
      <trkpt lat="64.29058" lon="11.19783">
        <ele>45.023788</ele>
        <time>2020-08-10T12:01:05.726Z</time>
      </trkpt>
      <trkpt lat="64.29068" lon="11.19791">
        <ele>44.952458</ele>
        <time>2020-08-10T12:01:07.741Z</time>
      </trkpt>
      <trkpt lat="64.29079" lon="11.19798">
        <ele>44.88212</ele>
        <time>2020-08-10T12:01:09.746Z</time>
      </trkpt>
      <trkpt lat="64.2909" lon="11.19805">
        <ele>44.81193</ele>
        <time>2020-08-10T12:01:11.728Z</time>
      </trkpt>
      <trkpt lat="64.29101" lon="11.19812">
        <ele>44.739156</ele>
        <time>2020-08-10T12:01:13.736Z</time>
      </trkpt>
      <trkpt lat="64.29112" lon="11.19819">
        <ele>44.668135</ele>
        <time>2020-08-10T12:01:15.753Z</time>
      </trkpt>
      <trkpt lat="64.29122" lon="11.19826">
        <ele>44.599305</ele>
        <time>2020-08-10T12:01:17.739Z</time>
      </trkpt>
      <trkpt lat="64.29132" lon="11.19834">
        <ele>44.530393</ele>
        <time>2020-08-10T12:01:19.745Z</time>
      </trkpt>
      <trkpt lat="64.29143" lon="11.1984">
        <ele>44.462713</ele>
        <time>2020-08-10T12:01:21.730Z</time>
      </trkpt>
      <trkpt lat="64.29154" lon="11.19847">
        <ele>44.391649</ele>
        <time>2020-08-10T12:01:23.742Z</time>
      </trkpt>
      <trkpt lat="64.29164" lon="11.19853">
        <ele>44.321062</ele>
        <time>2020-08-10T12:01:25.766Z</time>
      </trkpt>
      <trkpt lat="64.29175" lon="11.1986">
        <ele>44.250041</ele>
        <time>2020-08-10T12:01:27.733Z</time>
      </trkpt>
      <trkpt lat="64.29186" lon="11.19867">
        <ele>44.268722</ele>
        <time>2020-08-10T12:01:29.750Z</time>
      </trkpt>
      <trkpt lat="64.29196" lon="11.19874">
        <ele>44.309407</ele>
        <time>2020-08-10T12:01:31.767Z</time>
      </trkpt>
      <trkpt lat="64.29206" lon="11.1988">
        <ele>44.347892</ele>
        <time>2020-08-10T12:01:33.738Z</time>
      </trkpt>
      <trkpt lat="64.29216" lon="11.19886">
        <ele>44.385096</ele>
        <time>2020-08-10T12:01:35.756Z</time>
      </trkpt>
      <trkpt lat="64.29224" lon="11.19894">
        <ele>44.421049</ele>
        <time>2020-08-10T12:01:37.760Z</time>
      </trkpt>
      <trkpt lat="64.29234" lon="11.19901">
        <ele>44.457818</ele>
        <time>2020-08-10T12:01:39.744Z</time>
      </trkpt>
      <trkpt lat="64.29243" lon="11.19907">
        <ele>44.493715</ele>
        <time>2020-08-10T12:01:41.737Z</time>
      </trkpt>
      <trkpt lat="64.29252" lon="11.19913">
        <ele>44.529569</ele>
        <time>2020-08-10T12:01:43.751Z</time>
      </trkpt>
      <trkpt lat="64.29261" lon="11.19919">
        <ele>44.565059</ele>
        <time>2020-08-10T12:01:45.737Z</time>
      </trkpt>
      <trkpt lat="64.29271" lon="11.19925">
        <ele>44.602219</ele>
        <time>2020-08-10T12:01:47.745Z</time>
      </trkpt>
      <trkpt lat="64.2928" lon="11.19931">
        <ele>44.638655</ele>
        <time>2020-08-10T12:01:49.735Z</time>
      </trkpt>
      <trkpt lat="64.2929" lon="11.19937">
        <ele>44.676221</ele>
        <time>2020-08-10T12:01:51.768Z</time>
      </trkpt>
      <trkpt lat="64.29299" lon="11.19945">
        <ele>44.714885</ele>
        <time>2020-08-10T12:01:53.743Z</time>
      </trkpt>
      <trkpt lat="64.29309" lon="11.19953">
        <ele>44.754565</ele>
        <time>2020-08-10T12:01:55.745Z</time>
      </trkpt>
      <trkpt lat="64.29319" lon="11.1996">
        <ele>44.79385</ele>
        <time>2020-08-10T12:01:57.756Z</time>
      </trkpt>
      <trkpt lat="64.2933" lon="11.19967">
        <ele>44.834503</ele>
        <time>2020-08-10T12:01:59.733Z</time>
      </trkpt>
      <trkpt lat="64.2934" lon="11.19975">
        <ele>44.875614</ele>
        <time>2020-08-10T12:02:01.722Z</time>
      </trkpt>
      <trkpt lat="64.29351" lon="11.19984">
        <ele>44.869637</ele>
        <time>2020-08-10T12:02:03.747Z</time>
      </trkpt>
      <trkpt lat="64.29361" lon="11.19995">
        <ele>44.522229</ele>
        <time>2020-08-10T12:02:05.763Z</time>
      </trkpt>
      <trkpt lat="64.29371" lon="11.20009">
        <ele>44.17062</ele>
        <time>2020-08-10T12:02:07.745Z</time>
      </trkpt>
      <trkpt lat="64.29381" lon="11.20024">
        <ele>43.807625</ele>
        <time>2020-08-10T12:02:09.752Z</time>
      </trkpt>
      <trkpt lat="64.2939" lon="11.2004">
        <ele>43.446844</ele>
        <time>2020-08-10T12:02:11.730Z</time>
      </trkpt>
      <trkpt lat="64.294" lon="11.20056">
        <ele>43.082048</ele>
        <time>2020-08-10T12:02:13.779Z</time>
      </trkpt>
      <trkpt lat="64.2941" lon="11.20072">
        <ele>42.723819</ele>
        <time>2020-08-10T12:02:15.744Z</time>
      </trkpt>
      <trkpt lat="64.29419" lon="11.20089">
        <ele>42.364796</ele>
        <time>2020-08-10T12:02:17.757Z</time>
      </trkpt>
      <trkpt lat="64.29428" lon="11.20105">
        <ele>42.005772</ele>
        <time>2020-08-10T12:02:19.729Z</time>
      </trkpt>
      <trkpt lat="64.29437" lon="11.20123">
        <ele>41.642309</ele>
        <time>2020-08-10T12:02:21.762Z</time>
      </trkpt>
      <trkpt lat="64.29446" lon="11.2014">
        <ele>41.294117</ele>
        <time>2020-08-10T12:02:23.761Z</time>
      </trkpt>
      <trkpt lat="64.29455" lon="11.20157">
        <ele>40.949099</ele>
        <time>2020-08-10T12:02:25.730Z</time>
      </trkpt>
      <trkpt lat="64.29464" lon="11.20173">
        <ele>40.601348</ele>
        <time>2020-08-10T12:02:27.745Z</time>
      </trkpt>
      <trkpt lat="64.29473" lon="11.20188">
        <ele>40.26312</ele>
        <time>2020-08-10T12:02:29.748Z</time>
      </trkpt>
      <trkpt lat="64.29481" lon="11.20203">
        <ele>39.932253</ele>
        <time>2020-08-10T12:02:31.749Z</time>
      </trkpt>
      <trkpt lat="64.2949" lon="11.20218">
        <ele>39.619926</ele>
        <time>2020-08-10T12:02:33.724Z</time>
      </trkpt>
      <trkpt lat="64.29498" lon="11.20234">
        <ele>39.486982</ele>
        <time>2020-08-10T12:02:35.767Z</time>
      </trkpt>
      <trkpt lat="64.29506" lon="11.20251">
        <ele>39.611354</ele>
        <time>2020-08-10T12:02:37.752Z</time>
      </trkpt>
      <trkpt lat="64.29514" lon="11.20266">
        <ele>39.732787</ele>
        <time>2020-08-10T12:02:39.739Z</time>
      </trkpt>
      <trkpt lat="64.29522" lon="11.20282">
        <ele>39.846534</ele>
        <time>2020-08-10T12:02:41.734Z</time>
      </trkpt>
      <trkpt lat="64.2953" lon="11.20297">
        <ele>39.964139</ele>
        <time>2020-08-10T12:02:43.754Z</time>
      </trkpt>
      <trkpt lat="64.29538" lon="11.20313">
        <ele>40.085345</ele>
        <time>2020-08-10T12:02:45.727Z</time>
      </trkpt>
      <trkpt lat="64.29547" lon="11.20328">
        <ele>40.208581</ele>
        <time>2020-08-10T12:02:47.750Z</time>
      </trkpt>
      <trkpt lat="64.29556" lon="11.20344">
        <ele>40.335968</ele>
        <time>2020-08-10T12:02:49.748Z</time>
      </trkpt>
      <trkpt lat="64.29564" lon="11.20361">
        <ele>40.458656</ele>
        <time>2020-08-10T12:02:51.768Z</time>
      </trkpt>
      <trkpt lat="64.29572" lon="11.20379">
        <ele>40.589467</ele>
        <time>2020-08-10T12:02:53.754Z</time>
      </trkpt>
      <trkpt lat="64.29581" lon="11.20396">
        <ele>40.716322</ele>
        <time>2020-08-10T12:02:55.788Z</time>
      </trkpt>
      <trkpt lat="64.2959" lon="11.20415">
        <ele>40.855923</ele>
        <time>2020-08-10T12:02:57.745Z</time>
      </trkpt>
      <trkpt lat="64.296" lon="11.20433">
        <ele>40.997442</ele>
        <time>2020-08-10T12:02:59.734Z</time>
      </trkpt>
      <trkpt lat="64.29609" lon="11.20453">
        <ele>41.138669</ele>
        <time>2020-08-10T12:03:01.729Z</time>
      </trkpt>
      <trkpt lat="64.29618" lon="11.20472">
        <ele>41.275254</ele>
        <time>2020-08-10T12:03:03.762Z</time>
      </trkpt>
      <trkpt lat="64.29627" lon="11.20491">
        <ele>41.412357</ele>
        <time>2020-08-10T12:03:05.743Z</time>
      </trkpt>
      <trkpt lat="64.29635" lon="11.2051">
        <ele>41.341916</ele>
        <time>2020-08-10T12:03:07.772Z</time>
      </trkpt>
      <trkpt lat="64.29644" lon="11.20528">
        <ele>41.148854</ele>
        <time>2020-08-10T12:03:09.748Z</time>
      </trkpt>
      <trkpt lat="64.29653" lon="11.20547">
        <ele>40.95888</ele>
        <time>2020-08-10T12:03:11.740Z</time>
      </trkpt>
      <trkpt lat="64.29662" lon="11.20564">
        <ele>40.774758</ele>
        <time>2020-08-10T12:03:13.779Z</time>
      </trkpt>
      <trkpt lat="64.2967" lon="11.20584">
        <ele>40.586637</ele>
        <time>2020-08-10T12:03:15.724Z</time>
      </trkpt>
      <trkpt lat="64.29678" lon="11.20599">
        <ele>40.419414</ele>
        <time>2020-08-10T12:03:17.734Z</time>
      </trkpt>
      <trkpt lat="64.29686" lon="11.20615">
        <ele>40.254082</ele>
        <time>2020-08-10T12:03:19.749Z</time>
      </trkpt>
      <trkpt lat="64.29693" lon="11.20632">
        <ele>40.083853</ele>
        <time>2020-08-10T12:03:21.759Z</time>
      </trkpt>
      <trkpt lat="64.297" lon="11.20649">
        <ele>39.918347</ele>
        <time>2020-08-10T12:03:23.728Z</time>
      </trkpt>
      <trkpt lat="64.29708" lon="11.20666">
        <ele>39.753794</ele>
        <time>2020-08-10T12:03:25.727Z</time>
      </trkpt>
      <trkpt lat="64.29716" lon="11.20681">
        <ele>39.587549</ele>
        <time>2020-08-10T12:03:27.742Z</time>
      </trkpt>
      <trkpt lat="64.29723" lon="11.20697">
        <ele>39.426744</ele>
        <time>2020-08-10T12:03:29.760Z</time>
      </trkpt>
      <trkpt lat="64.2973" lon="11.20713">
        <ele>39.267447</ele>
        <time>2020-08-10T12:03:31.736Z</time>
      </trkpt>
      <trkpt lat="64.29737" lon="11.2073">
        <ele>39.105251</ele>
        <time>2020-08-10T12:03:33.738Z</time>
      </trkpt>
      <trkpt lat="64.29744" lon="11.20746">
        <ele>38.944655</ele>
        <time>2020-08-10T12:03:35.774Z</time>
      </trkpt>
      <trkpt lat="64.29752" lon="11.20762">
        <ele>38.785286</ele>
        <time>2020-08-10T12:03:37.793Z</time>
      </trkpt>
      <trkpt lat="64.29759" lon="11.20778">
        <ele>38.625174</ele>
        <time>2020-08-10T12:03:39.746Z</time>
      </trkpt>
      <trkpt lat="64.29766" lon="11.20794">
        <ele>38.571271</ele>
        <time>2020-08-10T12:03:41.745Z</time>
      </trkpt>
      <trkpt lat="64.29773" lon="11.20809">
        <ele>38.558889</ele>
        <time>2020-08-10T12:03:43.741Z</time>
      </trkpt>
      <trkpt lat="64.2978" lon="11.20824">
        <ele>38.546674</ele>
        <time>2020-08-10T12:03:45.745Z</time>
      </trkpt>
      <trkpt lat="64.29787" lon="11.20841">
        <ele>38.533634</ele>
        <time>2020-08-10T12:03:47.741Z</time>
      </trkpt>
      <trkpt lat="64.29795" lon="11.20857">
        <ele>38.520518</ele>
        <time>2020-08-10T12:03:49.743Z</time>
      </trkpt>
      <trkpt lat="64.29802" lon="11.20873">
        <ele>38.507457</ele>
        <time>2020-08-10T12:03:51.735Z</time>
      </trkpt>
      <trkpt lat="64.2981" lon="11.20889">
        <ele>38.49427</ele>
        <time>2020-08-10T12:03:53.741Z</time>
      </trkpt>
      <trkpt lat="64.29817" lon="11.20906">
        <ele>38.48105</ele>
        <time>2020-08-10T12:03:55.745Z</time>
      </trkpt>
      <trkpt lat="64.29825" lon="11.20922">
        <ele>38.467841</ele>
        <time>2020-08-10T12:03:57.749Z</time>
      </trkpt>
      <trkpt lat="64.29833" lon="11.20938">
        <ele>38.45448</ele>
        <time>2020-08-10T12:03:59.724Z</time>
      </trkpt>
      <trkpt lat="64.29841" lon="11.20955">
        <ele>38.440917</ele>
        <time>2020-08-10T12:04:01.745Z</time>
      </trkpt>
      <trkpt lat="64.29848" lon="11.20972">
        <ele>38.427541</ele>
        <time>2020-08-10T12:04:03.753Z</time>
      </trkpt>
      <trkpt lat="64.29856" lon="11.20988">
        <ele>38.414164</ele>
        <time>2020-08-10T12:04:05.736Z</time>
      </trkpt>
      <trkpt lat="64.29863" lon="11.21005">
        <ele>38.401086</ele>
        <time>2020-08-10T12:04:07.762Z</time>
      </trkpt>
      <trkpt lat="64.29871" lon="11.21021">
        <ele>38.387973</ele>
        <time>2020-08-10T12:04:09.746Z</time>
      </trkpt>
      <trkpt lat="64.29878" lon="11.21037">
        <ele>38.374933</ele>
        <time>2020-08-10T12:04:11.736Z</time>
      </trkpt>
      <trkpt lat="64.29886" lon="11.21054">
        <ele>38.36148</ele>
        <time>2020-08-10T12:04:13.741Z</time>
      </trkpt>
      <trkpt lat="64.29894" lon="11.21071">
        <ele>38.386745</ele>
        <time>2020-08-10T12:04:15.722Z</time>
      </trkpt>
      <trkpt lat="64.29901" lon="11.21086">
        <ele>38.539103</ele>
        <time>2020-08-10T12:04:17.730Z</time>
      </trkpt>
      <trkpt lat="64.2991" lon="11.21101">
        <ele>38.694621</ele>
        <time>2020-08-10T12:04:19.759Z</time>
      </trkpt>
      <trkpt lat="64.29918" lon="11.21116">
        <ele>38.843621</ele>
        <time>2020-08-10T12:04:21.739Z</time>
      </trkpt>
      <trkpt lat="64.29927" lon="11.21129">
        <ele>38.993583</ele>
        <time>2020-08-10T12:04:23.729Z</time>
      </trkpt>
      <trkpt lat="64.29935" lon="11.21142">
        <ele>39.136513</ele>
        <time>2020-08-10T12:04:25.729Z</time>
      </trkpt>
      <trkpt lat="64.29946" lon="11.21159">
        <ele>39.332412</ele>
        <time>2020-08-10T12:04:28.771Z</time>
      </trkpt>
      <trkpt lat="64.29957" lon="11.21171">
        <ele>39.513202</ele>
        <time>2020-08-10T12:04:31.749Z</time>
      </trkpt>
      <trkpt lat="64.29969" lon="11.21184">
        <ele>39.699512</ele>
        <time>2020-08-10T12:04:34.723Z</time>
      </trkpt>
      <trkpt lat="64.29981" lon="11.21196">
        <ele>39.887925</ele>
        <time>2020-08-10T12:04:37.740Z</time>
      </trkpt>
      <trkpt lat="64.29992" lon="11.21208">
        <ele>40.068715</ele>
        <time>2020-08-10T12:04:40.769Z</time>
      </trkpt>
      <trkpt lat="64.30004" lon="11.21219">
        <ele>40.252944</ele>
        <time>2020-08-10T12:04:43.760Z</time>
      </trkpt>
      <trkpt lat="64.30016" lon="11.21231">
        <ele>40.446407</ele>
        <time>2020-08-10T12:04:46.759Z</time>
      </trkpt>
      <trkpt lat="64.30028" lon="11.21242">
        <ele>40.634033</ele>
        <time>2020-08-10T12:04:49.727Z</time>
      </trkpt>
      <trkpt lat="64.3004" lon="11.21254">
        <ele>40.828654</ele>
        <time>2020-08-10T12:04:52.758Z</time>
      </trkpt>
      <trkpt lat="64.30053" lon="11.21266">
        <ele>40.835572</ele>
        <time>2020-08-10T12:04:55.746Z</time>
      </trkpt>
      <trkpt lat="64.30062" lon="11.21274">
        <ele>40.550677</ele>
        <time>2020-08-10T12:04:57.728Z</time>
      </trkpt>
      <trkpt lat="64.30071" lon="11.21284">
        <ele>40.241283</ele>
        <time>2020-08-10T12:04:59.738Z</time>
      </trkpt>
      <trkpt lat="64.3008" lon="11.21293">
        <ele>39.931694</ele>
        <time>2020-08-10T12:05:01.723Z</time>
      </trkpt>
      <trkpt lat="64.3009" lon="11.21302">
        <ele>39.614967</ele>
        <time>2020-08-10T12:05:03.739Z</time>
      </trkpt>
      <trkpt lat="64.30099" lon="11.21311">
        <ele>39.298749</ele>
        <time>2020-08-10T12:05:05.774Z</time>
      </trkpt>
      <trkpt lat="64.30109" lon="11.2132">
        <ele>38.981689</ele>
        <time>2020-08-10T12:05:07.779Z</time>
      </trkpt>
      <trkpt lat="64.3012" lon="11.21329">
        <ele>38.64003</ele>
        <time>2020-08-10T12:05:09.759Z</time>
      </trkpt>
      <trkpt lat="64.3013" lon="11.21339">
        <ele>38.302109</ele>
        <time>2020-08-10T12:05:11.737Z</time>
      </trkpt>
      <trkpt lat="64.3014" lon="11.2135">
        <ele>37.964025</ele>
        <time>2020-08-10T12:05:13.758Z</time>
      </trkpt>
      <trkpt lat="64.30151" lon="11.21363">
        <ele>37.593459</ele>
        <time>2020-08-10T12:05:15.737Z</time>
      </trkpt>
      <trkpt lat="64.30162" lon="11.21377">
        <ele>37.211998</ele>
        <time>2020-08-10T12:05:17.739Z</time>
      </trkpt>
      <trkpt lat="64.30172" lon="11.21392">
        <ele>36.838882</ele>
        <time>2020-08-10T12:05:19.724Z</time>
      </trkpt>
      <trkpt lat="64.30182" lon="11.2141">
        <ele>36.460262</ele>
        <time>2020-08-10T12:05:21.739Z</time>
      </trkpt>
      <trkpt lat="64.30192" lon="11.21428">
        <ele>36.075976</ele>
        <time>2020-08-10T12:05:23.754Z</time>
      </trkpt>
      <trkpt lat="64.30202" lon="11.21445">
        <ele>35.700575</ele>
        <time>2020-08-10T12:05:25.751Z</time>
      </trkpt>
      <trkpt lat="64.30211" lon="11.21462">
        <ele>35.519914</ele>
        <time>2020-08-10T12:05:27.747Z</time>
      </trkpt>
      <trkpt lat="64.3022" lon="11.21478">
        <ele>35.582971</ele>
        <time>2020-08-10T12:05:29.741Z</time>
      </trkpt>
      <trkpt lat="64.30229" lon="11.21493">
        <ele>35.643432</ele>
        <time>2020-08-10T12:05:31.753Z</time>
      </trkpt>
      <trkpt lat="64.30237" lon="11.21507">
        <ele>35.701583</ele>
        <time>2020-08-10T12:05:33.730Z</time>
      </trkpt>
      <trkpt lat="64.30246" lon="11.2152">
        <ele>35.756935</ele>
        <time>2020-08-10T12:05:35.736Z</time>
      </trkpt>
      <trkpt lat="64.30254" lon="11.21532">
        <ele>35.810635</ele>
        <time>2020-08-10T12:05:37.776Z</time>
      </trkpt>
      <trkpt lat="64.30263" lon="11.21543">
        <ele>35.863972</ele>
        <time>2020-08-10T12:05:39.746Z</time>
      </trkpt>
      <trkpt lat="64.30271" lon="11.21555">
        <ele>35.918292</ele>
        <time>2020-08-10T12:05:41.740Z</time>
      </trkpt>
      <trkpt lat="64.3028" lon="11.21566">
        <ele>35.974271</ele>
        <time>2020-08-10T12:05:43.751Z</time>
      </trkpt>
      <trkpt lat="64.30289" lon="11.21578">
        <ele>36.03297</ele>
        <time>2020-08-10T12:05:45.728Z</time>
      </trkpt>
      <trkpt lat="64.30299" lon="11.2159">
        <ele>36.090708</ele>
        <time>2020-08-10T12:05:47.725Z</time>
      </trkpt>
      <trkpt lat="64.30308" lon="11.21601">
        <ele>36.14609</ele>
        <time>2020-08-10T12:05:49.741Z</time>
      </trkpt>
      <trkpt lat="64.30317" lon="11.21611">
        <ele>36.200883</ele>
        <time>2020-08-10T12:05:51.751Z</time>
      </trkpt>
      <trkpt lat="64.30326" lon="11.21621">
        <ele>36.256528</ele>
        <time>2020-08-10T12:05:53.741Z</time>
      </trkpt>
      <trkpt lat="64.30334" lon="11.21632">
        <ele>36.310385</ele>
        <time>2020-08-10T12:05:55.724Z</time>
      </trkpt>
      <trkpt lat="64.30343" lon="11.21642">
        <ele>36.362613</ele>
        <time>2020-08-10T12:05:57.750Z</time>
      </trkpt>
      <trkpt lat="64.30351" lon="11.21652">
        <ele>36.415387</ele>
        <time>2020-08-10T12:05:59.741Z</time>
      </trkpt>
      <trkpt lat="64.3036" lon="11.21663">
        <ele>36.468962</ele>
        <time>2020-08-10T12:06:01.739Z</time>
      </trkpt>
      <trkpt lat="64.30368" lon="11.21674">
        <ele>36.436886</ele>
        <time>2020-08-10T12:06:03.725Z</time>
      </trkpt>
      <trkpt lat="64.30377" lon="11.21685">
        <ele>36.383389</ele>
        <time>2020-08-10T12:06:05.731Z</time>
      </trkpt>
      <trkpt lat="64.30386" lon="11.21696">
        <ele>36.327922</ele>
        <time>2020-08-10T12:06:07.744Z</time>
      </trkpt>
      <trkpt lat="64.30395" lon="11.21707">
        <ele>36.271695</ele>
        <time>2020-08-10T12:06:09.738Z</time>
      </trkpt>
      <trkpt lat="64.30404" lon="11.21719">
        <ele>36.215081</ele>
        <time>2020-08-10T12:06:11.732Z</time>
      </trkpt>
      <trkpt lat="64.30413" lon="11.2173">
        <ele>36.157118</ele>
        <time>2020-08-10T12:06:13.747Z</time>
      </trkpt>
      <trkpt lat="64.30423" lon="11.21741">
        <ele>36.099568</ele>
        <time>2020-08-10T12:06:15.737Z</time>
      </trkpt>
      <trkpt lat="64.30432" lon="11.21753">
        <ele>36.041194</ele>
        <time>2020-08-10T12:06:17.777Z</time>
      </trkpt>
      <trkpt lat="64.30441" lon="11.21765">
        <ele>35.981374</ele>
        <time>2020-08-10T12:06:19.742Z</time>
      </trkpt>
      <trkpt lat="64.30451" lon="11.21776">
        <ele>35.923679</ele>
        <time>2020-08-10T12:06:21.724Z</time>
      </trkpt>
      <trkpt lat="64.3046" lon="11.21787">
        <ele>35.864351</ele>
        <time>2020-08-10T12:06:23.763Z</time>
      </trkpt>
      <trkpt lat="64.3047" lon="11.21799">
        <ele>35.803617</ele>
        <time>2020-08-10T12:06:25.740Z</time>
      </trkpt>
      <trkpt lat="64.3048" lon="11.2181">
        <ele>35.743302</ele>
        <time>2020-08-10T12:06:27.747Z</time>
      </trkpt>
      <trkpt lat="64.3049" lon="11.21821">
        <ele>35.682988</ele>
        <time>2020-08-10T12:06:29.730Z</time>
      </trkpt>
      <trkpt lat="64.30499" lon="11.21832">
        <ele>35.625513</ele>
        <time>2020-08-10T12:06:31.720Z</time>
      </trkpt>
      <trkpt lat="64.30509" lon="11.21843">
        <ele>35.567169</ele>
        <time>2020-08-10T12:06:33.744Z</time>
      </trkpt>
      <trkpt lat="64.30518" lon="11.21855">
        <ele>35.509024</ele>
        <time>2020-08-10T12:06:35.725Z</time>
      </trkpt>
      <trkpt lat="64.30528" lon="11.21865">
        <ele>35.367276</ele>
        <time>2020-08-10T12:06:37.743Z</time>
      </trkpt>
      <trkpt lat="64.30537" lon="11.21876">
        <ele>35.191605</ele>
        <time>2020-08-10T12:06:39.745Z</time>
      </trkpt>
      <trkpt lat="64.30547" lon="11.21886">
        <ele>35.014561</ele>
        <time>2020-08-10T12:06:41.725Z</time>
      </trkpt>
      <trkpt lat="64.30556" lon="11.21897">
        <ele>34.836629</ele>
        <time>2020-08-10T12:06:43.738Z</time>
      </trkpt>
      <trkpt lat="64.30566" lon="11.21908">
        <ele>34.657641</ele>
        <time>2020-08-10T12:06:45.723Z</time>
      </trkpt>
      <trkpt lat="64.30575" lon="11.21919">
        <ele>34.47765</ele>
        <time>2020-08-10T12:06:47.737Z</time>
      </trkpt>
      <trkpt lat="64.30584" lon="11.21932">
        <ele>34.30359</ele>
        <time>2020-08-10T12:06:49.732Z</time>
      </trkpt>
      <trkpt lat="64.30593" lon="11.21944">
        <ele>34.125194</ele>
        <time>2020-08-10T12:06:51.740Z</time>
      </trkpt>
      <trkpt lat="64.30603" lon="11.21956">
        <ele>33.943042</ele>
        <time>2020-08-10T12:06:53.755Z</time>
      </trkpt>
      <trkpt lat="64.30612" lon="11.21968">
        <ele>33.762802</ele>
        <time>2020-08-10T12:06:55.752Z</time>
      </trkpt>
      <trkpt lat="64.30621" lon="11.2198">
        <ele>33.585491</ele>
        <time>2020-08-10T12:06:57.766Z</time>
      </trkpt>
      <trkpt lat="64.30631" lon="11.21991">
        <ele>33.408808</ele>
        <time>2020-08-10T12:06:59.760Z</time>
      </trkpt>
      <trkpt lat="64.3064" lon="11.22003">
        <ele>33.228818</ele>
        <time>2020-08-10T12:07:01.726Z</time>
      </trkpt>
      <trkpt lat="64.30649" lon="11.22014">
        <ele>33.054972</ele>
        <time>2020-08-10T12:07:03.751Z</time>
      </trkpt>
      <trkpt lat="64.30658" lon="11.22025">
        <ele>32.889284</ele>
        <time>2020-08-10T12:07:05.734Z</time>
      </trkpt>
      <trkpt lat="64.30667" lon="11.22036">
        <ele>32.719891</ele>
        <time>2020-08-10T12:07:07.742Z</time>
      </trkpt>
      <trkpt lat="64.30676" lon="11.22047">
        <ele>32.549694</ele>
        <time>2020-08-10T12:07:09.738Z</time>
      </trkpt>
      <trkpt lat="64.30685" lon="11.22058">
        <ele>32.515023</ele>
        <time>2020-08-10T12:07:11.772Z</time>
      </trkpt>
      <trkpt lat="64.30693" lon="11.2207">
        <ele>32.586959</ele>
        <time>2020-08-10T12:07:13.751Z</time>
      </trkpt>
      <trkpt lat="64.30703" lon="11.22082">
        <ele>32.662718</ele>
        <time>2020-08-10T12:07:15.740Z</time>
      </trkpt>
      <trkpt lat="64.30712" lon="11.22094">
        <ele>32.737895</ele>
        <time>2020-08-10T12:07:17.745Z</time>
      </trkpt>
      <trkpt lat="64.30721" lon="11.22104">
        <ele>32.808036</ele>
        <time>2020-08-10T12:07:19.730Z</time>
      </trkpt>
      <trkpt lat="64.30729" lon="11.22115">
        <ele>32.876599</ele>
        <time>2020-08-10T12:07:21.759Z</time>
      </trkpt>
      <trkpt lat="64.30738" lon="11.22124">
        <ele>32.944989</ele>
        <time>2020-08-10T12:07:23.745Z</time>
      </trkpt>
      <trkpt lat="64.30747" lon="11.22135">
        <ele>33.015837</ele>
        <time>2020-08-10T12:07:25.737Z</time>
      </trkpt>
      <trkpt lat="64.30756" lon="11.22145">
        <ele>33.085146</ele>
        <time>2020-08-10T12:07:27.724Z</time>
      </trkpt>
      <trkpt lat="64.30765" lon="11.22155">
        <ele>33.153687</ele>
        <time>2020-08-10T12:07:29.747Z</time>
      </trkpt>
      <trkpt lat="64.30773" lon="11.22165">
        <ele>33.221241</ele>
        <time>2020-08-10T12:07:31.734Z</time>
      </trkpt>
      <trkpt lat="64.30782" lon="11.22175">
        <ele>33.291731</ele>
        <time>2020-08-10T12:07:33.781Z</time>
      </trkpt>
      <trkpt lat="64.30791" lon="11.22185">
        <ele>33.364752</ele>
        <time>2020-08-10T12:07:35.734Z</time>
      </trkpt>
      <trkpt lat="64.308" lon="11.22197">
        <ele>33.438198</ele>
        <time>2020-08-10T12:07:37.791Z</time>
      </trkpt>
      <trkpt lat="64.3081" lon="11.22208">
        <ele>33.510643</ele>
        <time>2020-08-10T12:07:39.741Z</time>
      </trkpt>
      <trkpt lat="64.30819" lon="11.22218">
        <ele>33.58186</ele>
        <time>2020-08-10T12:07:41.731Z</time>
      </trkpt>
      <trkpt lat="64.30828" lon="11.22229">
        <ele>33.652843</ele>
        <time>2020-08-10T12:07:43.726Z</time>
      </trkpt>
      <trkpt lat="64.30837" lon="11.22239">
        <ele>33.724326</ele>
        <time>2020-08-10T12:07:45.734Z</time>
      </trkpt>
      <trkpt lat="64.30846" lon="11.22249">
        <ele>33.842648</ele>
        <time>2020-08-10T12:07:47.778Z</time>
      </trkpt>
      <trkpt lat="64.30854" lon="11.2226">
        <ele>33.985582</ele>
        <time>2020-08-10T12:07:49.738Z</time>
      </trkpt>
      <trkpt lat="64.30863" lon="11.22272">
        <ele>34.128</ele>
        <time>2020-08-10T12:07:51.725Z</time>
      </trkpt>
      <trkpt lat="64.30871" lon="11.22283">
        <ele>34.266866</ele>
        <time>2020-08-10T12:07:53.750Z</time>
      </trkpt>
      <trkpt lat="64.3088" lon="11.22294">
        <ele>34.402718</ele>
        <time>2020-08-10T12:07:55.761Z</time>
      </trkpt>
      <trkpt lat="64.30888" lon="11.22304">
        <ele>34.534504</ele>
        <time>2020-08-10T12:07:57.741Z</time>
      </trkpt>
      <trkpt lat="64.30899" lon="11.22318">
        <ele>34.720411</ele>
        <time>2020-08-10T12:08:00.742Z</time>
      </trkpt>
      <trkpt lat="64.30911" lon="11.22333">
        <ele>34.910017</ele>
        <time>2020-08-10T12:08:03.736Z</time>
      </trkpt>
      <trkpt lat="64.30922" lon="11.22348">
        <ele>35.094674</ele>
        <time>2020-08-10T12:08:06.753Z</time>
      </trkpt>
      <trkpt lat="64.30933" lon="11.22361">
        <ele>35.266517</ele>
        <time>2020-08-10T12:08:09.740Z</time>
      </trkpt>
      <trkpt lat="64.30943" lon="11.22373">
        <ele>35.429617</ele>
        <time>2020-08-10T12:08:12.728Z</time>
      </trkpt>
      <trkpt lat="64.30953" lon="11.22388">
        <ele>35.60312</ele>
        <time>2020-08-10T12:08:15.801Z</time>
      </trkpt>
      <trkpt lat="64.30964" lon="11.22401">
        <ele>35.776938</ele>
        <time>2020-08-10T12:08:18.774Z</time>
      </trkpt>
      <trkpt lat="64.30974" lon="11.22415">
        <ele>35.94896</ele>
        <time>2020-08-10T12:08:21.736Z</time>
      </trkpt>
      <trkpt lat="64.30984" lon="11.22426">
        <ele>36.106974</ele>
        <time>2020-08-10T12:08:24.753Z</time>
      </trkpt>
      <trkpt lat="64.30994" lon="11.22438">
        <ele>36.263866</ele>
        <time>2020-08-10T12:08:27.759Z</time>
      </trkpt>
      <trkpt lat="64.31003" lon="11.2245">
        <ele>36.394559</ele>
        <time>2020-08-10T12:08:30.750Z</time>
      </trkpt>
      <trkpt lat="64.31013" lon="11.2246">
        <ele>36.514934</ele>
        <time>2020-08-10T12:08:33.769Z</time>
      </trkpt>
      <trkpt lat="64.31023" lon="11.22471">
        <ele>36.634035</ele>
        <time>2020-08-10T12:08:36.732Z</time>
      </trkpt>
      <trkpt lat="64.31032" lon="11.22482">
        <ele>36.752597</ele>
        <time>2020-08-10T12:08:39.776Z</time>
      </trkpt>
      <trkpt lat="64.31043" lon="11.22494">
        <ele>36.885332</ele>
        <time>2020-08-10T12:08:42.757Z</time>
      </trkpt>
      <trkpt lat="64.31053" lon="11.22506">
        <ele>37.014674</ele>
        <time>2020-08-10T12:08:45.726Z</time>
      </trkpt>
      <trkpt lat="64.31064" lon="11.2252">
        <ele>37.156757</ele>
        <time>2020-08-10T12:08:48.752Z</time>
      </trkpt>
      <trkpt lat="64.31072" lon="11.22531">
        <ele>37.263216</ele>
        <time>2020-08-10T12:08:50.741Z</time>
      </trkpt>
      <trkpt lat="64.31081" lon="11.2254">
        <ele>37.371973</ele>
        <time>2020-08-10T12:08:52.739Z</time>
      </trkpt>
      <trkpt lat="64.3109" lon="11.2255">
        <ele>37.484645</ele>
        <time>2020-08-10T12:08:54.744Z</time>
      </trkpt>
      <trkpt lat="64.31099" lon="11.22561">
        <ele>37.597651</ele>
        <time>2020-08-10T12:08:56.752Z</time>
      </trkpt>
      <trkpt lat="64.31108" lon="11.22572">
        <ele>37.706014</ele>
        <time>2020-08-10T12:08:58.757Z</time>
      </trkpt>
      <trkpt lat="64.31116" lon="11.22582">
        <ele>37.81491</ele>
        <time>2020-08-10T12:09:00.757Z</time>
      </trkpt>
      <trkpt lat="64.31124" lon="11.22591">
        <ele>37.918392</ele>
        <time>2020-08-10T12:09:02.742Z</time>
      </trkpt>
      <trkpt lat="64.31133" lon="11.22601">
        <ele>38.02052</ele>
        <time>2020-08-10T12:09:04.735Z</time>
      </trkpt>
      <trkpt lat="64.31144" lon="11.22616">
        <ele>38.1697</ele>
        <time>2020-08-10T12:09:07.740Z</time>
      </trkpt>
      <trkpt lat="64.31155" lon="11.22629">
        <ele>38.31097</ele>
        <time>2020-08-10T12:09:10.753Z</time>
      </trkpt>
      <trkpt lat="64.31166" lon="11.22642">
        <ele>38.505876</ele>
        <time>2020-08-10T12:09:13.715Z</time>
      </trkpt>
      <trkpt lat="64.31176" lon="11.22654">
        <ele>38.705302</ele>
        <time>2020-08-10T12:09:16.739Z</time>
      </trkpt>
      <trkpt lat="64.31187" lon="11.22665">
        <ele>38.911572</ele>
        <time>2020-08-10T12:09:19.725Z</time>
      </trkpt>
      <trkpt lat="64.31198" lon="11.22676">
        <ele>39.119495</ele>
        <time>2020-08-10T12:09:22.764Z</time>
      </trkpt>
      <trkpt lat="64.31209" lon="11.22689">
        <ele>39.321138</ele>
        <time>2020-08-10T12:09:25.736Z</time>
      </trkpt>
      <trkpt lat="64.31219" lon="11.22705">
        <ele>39.529473</ele>
        <time>2020-08-10T12:09:28.735Z</time>
      </trkpt>
      <trkpt lat="64.31229" lon="11.22723">
        <ele>39.749901</ele>
        <time>2020-08-10T12:09:31.734Z</time>
      </trkpt>
      <trkpt lat="64.31236" lon="11.22736">
        <ele>39.907063</ele>
        <time>2020-08-10T12:09:33.748Z</time>
      </trkpt>
      <trkpt lat="64.31243" lon="11.2275">
        <ele>40.070202</ele>
        <time>2020-08-10T12:09:35.725Z</time>
      </trkpt>
      <trkpt lat="64.3125" lon="11.22765">
        <ele>40.230079</ele>
        <time>2020-08-10T12:09:37.751Z</time>
      </trkpt>
      <trkpt lat="64.31257" lon="11.22781">
        <ele>40.399225</ele>
        <time>2020-08-10T12:09:39.734Z</time>
      </trkpt>
      <trkpt lat="64.31264" lon="11.22799">
        <ele>40.578227</ele>
        <time>2020-08-10T12:09:41.723Z</time>
      </trkpt>
      <trkpt lat="64.31271" lon="11.2282">
        <ele>40.77569</ele>
        <time>2020-08-10T12:09:43.727Z</time>
      </trkpt>
      <trkpt lat="64.31277" lon="11.22841">
        <ele>40.974526</ele>
        <time>2020-08-10T12:09:45.735Z</time>
      </trkpt>
      <trkpt lat="64.31284" lon="11.22864">
        <ele>41.17822</ele>
        <time>2020-08-10T12:09:47.757Z</time>
      </trkpt>
      <trkpt lat="64.31291" lon="11.22888">
        <ele>41.395902</ele>
        <time>2020-08-10T12:09:49.788Z</time>
      </trkpt>
      <trkpt lat="64.31298" lon="11.22914">
        <ele>41.377697</ele>
        <time>2020-08-10T12:09:51.751Z</time>
      </trkpt>
      <trkpt lat="64.31306" lon="11.2294">
        <ele>41.310924</ele>
        <time>2020-08-10T12:09:53.741Z</time>
      </trkpt>
      <trkpt lat="64.31314" lon="11.22967">
        <ele>41.242406</ele>
        <time>2020-08-10T12:09:55.728Z</time>
      </trkpt>
      <trkpt lat="64.31322" lon="11.22994">
        <ele>41.172918</ele>
        <time>2020-08-10T12:09:57.740Z</time>
      </trkpt>
      <trkpt lat="64.3133" lon="11.23022">
        <ele>41.103955</ele>
        <time>2020-08-10T12:09:59.748Z</time>
      </trkpt>
      <trkpt lat="64.31337" lon="11.2305">
        <ele>41.034112</ele>
        <time>2020-08-10T12:10:01.766Z</time>
      </trkpt>
      <trkpt lat="64.31345" lon="11.23076">
        <ele>40.966657</ele>
        <time>2020-08-10T12:10:03.765Z</time>
      </trkpt>
      <trkpt lat="64.31352" lon="11.23102">
        <ele>40.902012</ele>
        <time>2020-08-10T12:10:05.763Z</time>
      </trkpt>
      <trkpt lat="64.31359" lon="11.23126">
        <ele>40.841505</ele>
        <time>2020-08-10T12:10:07.747Z</time>
      </trkpt>
      <trkpt lat="64.31366" lon="11.23148">
        <ele>40.785277</ele>
        <time>2020-08-10T12:10:09.739Z</time>
      </trkpt>
      <trkpt lat="64.31372" lon="11.23168">
        <ele>40.732282</ele>
        <time>2020-08-10T12:10:11.730Z</time>
      </trkpt>
      <trkpt lat="64.31378" lon="11.2319">
        <ele>40.678687</ele>
        <time>2020-08-10T12:10:13.738Z</time>
      </trkpt>
      <trkpt lat="64.31384" lon="11.23211">
        <ele>40.625856</ele>
        <time>2020-08-10T12:10:15.743Z</time>
      </trkpt>
      <trkpt lat="64.3139" lon="11.23233">
        <ele>40.570574</ele>
        <time>2020-08-10T12:10:17.731Z</time>
      </trkpt>
      <trkpt lat="64.31397" lon="11.23252">
        <ele>40.293958</ele>
        <time>2020-08-10T12:10:19.772Z</time>
      </trkpt>
      <trkpt lat="64.31405" lon="11.23272">
        <ele>39.944098</ele>
        <time>2020-08-10T12:10:21.733Z</time>
      </trkpt>
      <trkpt lat="64.31412" lon="11.23292">
        <ele>39.589162</ele>
        <time>2020-08-10T12:10:23.737Z</time>
      </trkpt>
      <trkpt lat="64.3142" lon="11.23312">
        <ele>39.226036</ele>
        <time>2020-08-10T12:10:25.731Z</time>
      </trkpt>
      <trkpt lat="64.31427" lon="11.23331">
        <ele>38.883296</ele>
        <time>2020-08-10T12:10:27.732Z</time>
      </trkpt>
      <trkpt lat="64.31433" lon="11.23352">
        <ele>38.535747</ele>
        <time>2020-08-10T12:10:29.736Z</time>
      </trkpt>
      <trkpt lat="64.3144" lon="11.23372">
        <ele>38.19803</ele>
        <time>2020-08-10T12:10:31.727Z</time>
      </trkpt>
      <trkpt lat="64.31446" lon="11.23393">
        <ele>37.846438</ele>
        <time>2020-08-10T12:10:33.741Z</time>
      </trkpt>
      <trkpt lat="64.31454" lon="11.23413">
        <ele>37.488417</ele>
        <time>2020-08-10T12:10:35.728Z</time>
      </trkpt>
      <trkpt lat="64.31461" lon="11.23433">
        <ele>37.129332</ele>
        <time>2020-08-10T12:10:37.736Z</time>
      </trkpt>
      <trkpt lat="64.3147" lon="11.23452">
        <ele>36.766075</ele>
        <time>2020-08-10T12:10:39.730Z</time>
      </trkpt>
      <trkpt lat="64.31479" lon="11.23469">
        <ele>36.402357</ele>
        <time>2020-08-10T12:10:41.735Z</time>
      </trkpt>
      <trkpt lat="64.31487" lon="11.23486">
        <ele>36.045784</ele>
        <time>2020-08-10T12:10:43.744Z</time>
      </trkpt>
      <trkpt lat="64.31496" lon="11.23502">
        <ele>35.700753</ele>
        <time>2020-08-10T12:10:45.743Z</time>
      </trkpt>
      <trkpt lat="64.31505" lon="11.23517">
        <ele>35.358246</ele>
        <time>2020-08-10T12:10:47.766Z</time>
      </trkpt>
      <trkpt lat="64.31514" lon="11.23531">
        <ele>35.026978</ele>
        <time>2020-08-10T12:10:49.768Z</time>
      </trkpt>
      <trkpt lat="64.31522" lon="11.23544">
        <ele>34.996546</ele>
        <time>2020-08-10T12:10:51.736Z</time>
      </trkpt>
      <trkpt lat="64.3153" lon="11.23557">
        <ele>35.073538</ele>
        <time>2020-08-10T12:10:53.738Z</time>
      </trkpt>
      <trkpt lat="64.31538" lon="11.23568">
        <ele>35.146752</ele>
        <time>2020-08-10T12:10:55.737Z</time>
      </trkpt>
      <trkpt lat="64.31547" lon="11.23581">
        <ele>35.226438</ele>
        <time>2020-08-10T12:10:57.761Z</time>
      </trkpt>
      <trkpt lat="64.31555" lon="11.23594">
        <ele>35.306599</ele>
        <time>2020-08-10T12:10:59.742Z</time>
      </trkpt>
      <trkpt lat="64.31564" lon="11.23605">
        <ele>35.382481</ele>
        <time>2020-08-10T12:11:01.730Z</time>
      </trkpt>
      <trkpt lat="64.31572" lon="11.23617">
        <ele>35.459204</ele>
        <time>2020-08-10T12:11:03.755Z</time>
      </trkpt>
      <trkpt lat="64.31581" lon="11.23627">
        <ele>35.535653</ele>
        <time>2020-08-10T12:11:05.725Z</time>
      </trkpt>
      <trkpt lat="64.31589" lon="11.23637">
        <ele>35.610098</ele>
        <time>2020-08-10T12:11:07.763Z</time>
      </trkpt>
      <trkpt lat="64.31598" lon="11.23647">
        <ele>35.681849</ele>
        <time>2020-08-10T12:11:09.746Z</time>
      </trkpt>
      <trkpt lat="64.31606" lon="11.23656">
        <ele>35.752994</ele>
        <time>2020-08-10T12:11:11.764Z</time>
      </trkpt>
      <trkpt lat="64.31614" lon="11.23665">
        <ele>35.82341</ele>
        <time>2020-08-10T12:11:13.723Z</time>
      </trkpt>
      <trkpt lat="64.31622" lon="11.23674">
        <ele>35.89609</ele>
        <time>2020-08-10T12:11:15.769Z</time>
      </trkpt>
      <trkpt lat="64.31631" lon="11.23683">
        <ele>35.967073</ele>
        <time>2020-08-10T12:11:17.751Z</time>
      </trkpt>
      <trkpt lat="64.31643" lon="11.23693">
        <ele>36.071003</ele>
        <time>2020-08-10T12:11:20.754Z</time>
      </trkpt>
      <trkpt lat="64.31655" lon="11.23703">
        <ele>36.168767</ele>
        <time>2020-08-10T12:11:23.727Z</time>
      </trkpt>
      <trkpt lat="64.31666" lon="11.2371">
        <ele>36.260621</ele>
        <time>2020-08-10T12:11:26.737Z</time>
      </trkpt>
      <trkpt lat="64.31677" lon="11.23717">
        <ele>36.416347</ele>
        <time>2020-08-10T12:11:29.724Z</time>
      </trkpt>
      <trkpt lat="64.31687" lon="11.23723">
        <ele>37.457357</ele>
        <time>2020-08-10T12:11:32.731Z</time>
      </trkpt>
      <trkpt lat="64.31697" lon="11.23729">
        <ele>38.429587</ele>
        <time>2020-08-10T12:11:35.749Z</time>
      </trkpt>
      <trkpt lat="64.31706" lon="11.23735">
        <ele>39.362339</ele>
        <time>2020-08-10T12:11:38.741Z</time>
      </trkpt>
      <trkpt lat="64.31714" lon="11.23741">
        <ele>40.274734</ele>
        <time>2020-08-10T12:11:41.760Z</time>
      </trkpt>
      <trkpt lat="64.31723" lon="11.23749">
        <ele>41.232324</ele>
        <time>2020-08-10T12:11:44.738Z</time>
      </trkpt>
      <trkpt lat="64.31734" lon="11.23761">
        <ele>42.433816</ele>
        <time>2020-08-10T12:11:48.728Z</time>
      </trkpt>
      <trkpt lat="64.31743" lon="11.23772">
        <ele>43.411841</ele>
        <time>2020-08-10T12:11:51.765Z</time>
      </trkpt>
      <trkpt lat="64.31752" lon="11.23785">
        <ele>44.463428</ele>
        <time>2020-08-10T12:11:55.730Z</time>
      </trkpt>
      <trkpt lat="64.31761" lon="11.23792">
        <ele>45.405768</ele>
        <time>2020-08-10T12:11:59.741Z</time>
      </trkpt>
      <trkpt lat="64.3177" lon="11.23798">
        <ele>46.413816</ele>
        <time>2020-08-10T12:12:04.736Z</time>
      </trkpt>
      <trkpt lat="64.3178" lon="11.23806">
        <ele>47.433665</ele>
        <time>2020-08-10T12:12:09.753Z</time>
      </trkpt>
      <trkpt lat="64.3179" lon="11.23813">
        <ele>48.477809</ele>
        <time>2020-08-10T12:12:14.742Z</time>
      </trkpt>
      <trkpt lat="64.318" lon="11.23818">
        <ele>49.500176</ele>
        <time>2020-08-10T12:12:19.735Z</time>
      </trkpt>
      <trkpt lat="64.31809" lon="11.23825">
        <ele>50.47822</ele>
        <time>2020-08-10T12:12:24.763Z</time>
      </trkpt>
      <trkpt lat="64.31819" lon="11.23831">
        <ele>51.533261</ele>
        <time>2020-08-10T12:12:29.755Z</time>
      </trkpt>
      <trkpt lat="64.31829" lon="11.23838">
        <ele>52.563552</ele>
        <time>2020-08-10T12:12:35.740Z</time>
      </trkpt>
      <trkpt lat="64.31838" lon="11.23845">
        <ele>53.52492</ele>
        <time>2020-08-10T12:12:40.744Z</time>
      </trkpt>
      <trkpt lat="64.31848" lon="11.23851">
        <ele>54.340787</ele>
        <time>2020-08-10T12:12:45.736Z</time>
      </trkpt>
      <trkpt lat="64.31859" lon="11.23857">
        <ele>54.466122</ele>
        <time>2020-08-10T12:12:50.754Z</time>
      </trkpt>
      <trkpt lat="64.31869" lon="11.23866">
        <ele>54.577494</ele>
        <time>2020-08-10T12:12:54.734Z</time>
      </trkpt>
      <trkpt lat="64.31877" lon="11.2388">
        <ele>54.695785</ele>
        <time>2020-08-10T12:12:58.739Z</time>
      </trkpt>
      <trkpt lat="64.31886" lon="11.23891">
        <ele>54.80566</ele>
        <time>2020-08-10T12:13:02.746Z</time>
      </trkpt>
      <trkpt lat="64.31896" lon="11.239">
        <ele>54.925841</ele>
        <time>2020-08-10T12:13:07.739Z</time>
      </trkpt>
      <trkpt lat="64.31905" lon="11.23903">
        <ele>55.02819</ele>
        <time>2020-08-10T12:13:11.778Z</time>
      </trkpt>
      <trkpt lat="64.31914" lon="11.23905">
        <ele>55.128068</ele>
        <time>2020-08-10T12:13:15.744Z</time>
      </trkpt>
      <trkpt lat="64.31925" lon="11.23909">
        <ele>55.248245</ele>
        <time>2020-08-10T12:13:20.741Z</time>
      </trkpt>
      <trkpt lat="64.31936" lon="11.23912">
        <ele>55.372485</ele>
        <time>2020-08-10T12:13:25.775Z</time>
      </trkpt>
      <trkpt lat="64.31945" lon="11.23914">
        <ele>55.475258</ele>
        <time>2020-08-10T12:13:29.729Z</time>
      </trkpt>
      <trkpt lat="64.31955" lon="11.23919">
        <ele>55.591697</ele>
        <time>2020-08-10T12:13:34.758Z</time>
      </trkpt>
      <trkpt lat="64.31966" lon="11.23921">
        <ele>55.711359</ele>
        <time>2020-08-10T12:13:39.779Z</time>
      </trkpt>
      <trkpt lat="64.31977" lon="11.23921">
        <ele>55.829309</ele>
        <time>2020-08-10T12:13:44.816Z</time>
      </trkpt>
      <trkpt lat="64.31986" lon="11.2392">
        <ele>55.929564</ele>
        <time>2020-08-10T12:13:48.747Z</time>
      </trkpt>
      <trkpt lat="64.31996" lon="11.23919">
        <ele>56.039953</ele>
        <time>2020-08-10T12:13:52.749Z</time>
      </trkpt>
      <trkpt lat="64.32006" lon="11.23919">
        <ele>56.156786</ele>
        <time>2020-08-10T12:13:57.744Z</time>
      </trkpt>
      <trkpt lat="64.32017" lon="11.2392">
        <ele>56.277169</ele>
        <time>2020-08-10T12:14:02.735Z</time>
      </trkpt>
      <trkpt lat="64.32026" lon="11.2392">
        <ele>56.42219</ele>
        <time>2020-08-10T12:14:06.743Z</time>
      </trkpt>
      <trkpt lat="64.32036" lon="11.2392">
        <ele>56.586428</ele>
        <time>2020-08-10T12:14:10.743Z</time>
      </trkpt>
      <trkpt lat="64.32047" lon="11.23919">
        <ele>56.780355</ele>
        <time>2020-08-10T12:14:15.746Z</time>
      </trkpt>
      <trkpt lat="64.32057" lon="11.23919">
        <ele>56.958525</ele>
        <time>2020-08-10T12:14:19.739Z</time>
      </trkpt>
      <trkpt lat="64.32068" lon="11.23921">
        <ele>57.15096</ele>
        <time>2020-08-10T12:14:23.733Z</time>
      </trkpt>
      <trkpt lat="64.32078" lon="11.23925">
        <ele>57.335515</ele>
        <time>2020-08-10T12:14:26.733Z</time>
      </trkpt>
      <trkpt lat="64.3209" lon="11.23934">
        <ele>57.550233</ele>
        <time>2020-08-10T12:14:29.782Z</time>
      </trkpt>
      <trkpt lat="64.32099" lon="11.23941">
        <ele>57.711917</ele>
        <time>2020-08-10T12:14:31.758Z</time>
      </trkpt>
      <trkpt lat="64.32111" lon="11.23955">
        <ele>57.952352</ele>
        <time>2020-08-10T12:14:34.752Z</time>
      </trkpt>
      <trkpt lat="64.3212" lon="11.23966">
        <ele>58.121842</ele>
        <time>2020-08-10T12:14:36.736Z</time>
      </trkpt>
      <trkpt lat="64.32129" lon="11.23977">
        <ele>58.300758</ele>
        <time>2020-08-10T12:14:38.751Z</time>
      </trkpt>
      <trkpt lat="64.32137" lon="11.2399">
        <ele>58.479772</ele>
        <time>2020-08-10T12:14:40.748Z</time>
      </trkpt>
      <trkpt lat="64.32146" lon="11.24003">
        <ele>58.667519</ele>
        <time>2020-08-10T12:14:42.739Z</time>
      </trkpt>
      <trkpt lat="64.32156" lon="11.24017">
        <ele>58.859597</ele>
        <time>2020-08-10T12:14:44.735Z</time>
      </trkpt>
      <trkpt lat="64.32165" lon="11.24034">
        <ele>59.070987</ele>
        <time>2020-08-10T12:14:46.743Z</time>
      </trkpt>
      <trkpt lat="64.32175" lon="11.24052">
        <ele>59.296225</ele>
        <time>2020-08-10T12:14:48.746Z</time>
      </trkpt>
      <trkpt lat="64.32186" lon="11.24071">
        <ele>59.221231</ele>
        <time>2020-08-10T12:14:50.724Z</time>
      </trkpt>
      <trkpt lat="64.32197" lon="11.24092">
        <ele>58.447997</ele>
        <time>2020-08-10T12:14:52.764Z</time>
      </trkpt>
      <trkpt lat="64.32209" lon="11.24113">
        <ele>57.6122</ele>
        <time>2020-08-10T12:14:54.745Z</time>
      </trkpt>
      <trkpt lat="64.32222" lon="11.24136">
        <ele>56.679632</ele>
        <time>2020-08-10T12:14:56.737Z</time>
      </trkpt>
      <trkpt lat="64.3223" lon="11.24148">
        <ele>56.177716</ele>
        <time>2020-08-10T12:14:57.741Z</time>
      </trkpt>
      <trkpt lat="64.32237" lon="11.24161">
        <ele>55.652991</ele>
        <time>2020-08-10T12:14:58.742Z</time>
      </trkpt>
      <trkpt lat="64.32245" lon="11.24175">
        <ele>55.105136</ele>
        <time>2020-08-10T12:14:59.743Z</time>
      </trkpt>
      <trkpt lat="64.32253" lon="11.2419">
        <ele>54.546844</ele>
        <time>2020-08-10T12:15:00.739Z</time>
      </trkpt>
      <trkpt lat="64.3226" lon="11.24206">
        <ele>53.988509</ele>
        <time>2020-08-10T12:15:01.762Z</time>
      </trkpt>
      <trkpt lat="64.32268" lon="11.24221">
        <ele>53.444419</ele>
        <time>2020-08-10T12:15:02.727Z</time>
      </trkpt>
      <trkpt lat="64.32276" lon="11.24234">
        <ele>52.904289</ele>
        <time>2020-08-10T12:15:03.738Z</time>
      </trkpt>
      <trkpt lat="64.32284" lon="11.24245">
        <ele>52.351091</ele>
        <time>2020-08-10T12:15:04.748Z</time>
      </trkpt>
      <trkpt lat="64.32293" lon="11.24255">
        <ele>51.796669</ele>
        <time>2020-08-10T12:15:05.765Z</time>
      </trkpt>
      <trkpt lat="64.32303" lon="11.24265">
        <ele>51.234305</ele>
        <time>2020-08-10T12:15:06.745Z</time>
      </trkpt>
      <trkpt lat="64.32312" lon="11.24273">
        <ele>50.689831</ele>
        <time>2020-08-10T12:15:07.765Z</time>
      </trkpt>
      <trkpt lat="64.32321" lon="11.24279">
        <ele>50.141931</ele>
        <time>2020-08-10T12:15:08.764Z</time>
      </trkpt>
      <trkpt lat="64.32331" lon="11.24286">
        <ele>49.580671</ele>
        <time>2020-08-10T12:15:09.732Z</time>
      </trkpt>
      <trkpt lat="64.32341" lon="11.24292">
        <ele>49.456805</ele>
        <time>2020-08-10T12:15:10.746Z</time>
      </trkpt>
      <trkpt lat="64.3235" lon="11.24298">
        <ele>49.395852</ele>
        <time>2020-08-10T12:15:11.739Z</time>
      </trkpt>
      <trkpt lat="64.32359" lon="11.24305">
        <ele>49.335789</ele>
        <time>2020-08-10T12:15:12.736Z</time>
      </trkpt>
      <trkpt lat="64.32368" lon="11.24312">
        <ele>49.276815</ele>
        <time>2020-08-10T12:15:13.760Z</time>
      </trkpt>
      <trkpt lat="64.32376" lon="11.2432">
        <ele>49.219117</ele>
        <time>2020-08-10T12:15:14.727Z</time>
      </trkpt>
      <trkpt lat="64.32392" lon="11.24338">
        <ele>49.106066</ele>
        <time>2020-08-10T12:15:16.767Z</time>
      </trkpt>
      <trkpt lat="64.32406" lon="11.24358">
        <ele>49.002423</ele>
        <time>2020-08-10T12:15:18.746Z</time>
      </trkpt>
      <trkpt lat="64.32419" lon="11.24377">
        <ele>48.908553</ele>
        <time>2020-08-10T12:15:20.756Z</time>
      </trkpt>
      <trkpt lat="64.3243" lon="11.24396">
        <ele>48.823197</ele>
        <time>2020-08-10T12:15:22.735Z</time>
      </trkpt>
      <trkpt lat="64.3244" lon="11.24414">
        <ele>48.74068</ele>
        <time>2020-08-10T12:15:24.752Z</time>
      </trkpt>
      <trkpt lat="64.3245" lon="11.24432">
        <ele>48.660993</ele>
        <time>2020-08-10T12:15:26.743Z</time>
      </trkpt>
      <trkpt lat="64.3246" lon="11.24447">
        <ele>48.588251</ele>
        <time>2020-08-10T12:15:28.740Z</time>
      </trkpt>
      <trkpt lat="64.32468" lon="11.24462">
        <ele>48.52068</ele>
        <time>2020-08-10T12:15:30.745Z</time>
      </trkpt>
      <trkpt lat="64.32476" lon="11.24476">
        <ele>48.458789</ele>
        <time>2020-08-10T12:15:32.780Z</time>
      </trkpt>
      <trkpt lat="64.32483" lon="11.24489">
        <ele>48.401554</ele>
        <time>2020-08-10T12:15:34.725Z</time>
      </trkpt>
      <trkpt lat="64.32493" lon="11.24505">
        <ele>48.241059</ele>
        <time>2020-08-10T12:15:37.746Z</time>
      </trkpt>
      <trkpt lat="64.32502" lon="11.24522">
        <ele>48.049132</ele>
        <time>2020-08-10T12:15:40.756Z</time>
      </trkpt>
      <trkpt lat="64.32511" lon="11.24539">
        <ele>47.866001</ele>
        <time>2020-08-10T12:15:43.735Z</time>
      </trkpt>
      <trkpt lat="64.32519" lon="11.24558">
        <ele>47.685226</ele>
        <time>2020-08-10T12:15:46.740Z</time>
      </trkpt>
      <trkpt lat="64.32527" lon="11.24577">
        <ele>47.49806</ele>
        <time>2020-08-10T12:15:49.746Z</time>
      </trkpt>
      <trkpt lat="64.32535" lon="11.24595">
        <ele>47.311234</ele>
        <time>2020-08-10T12:15:52.727Z</time>
      </trkpt>
      <trkpt lat="64.32543" lon="11.24615">
        <ele>47.12163</ele>
        <time>2020-08-10T12:15:55.735Z</time>
      </trkpt>
      <trkpt lat="64.3255" lon="11.24639">
        <ele>46.920518</ele>
        <time>2020-08-10T12:15:58.750Z</time>
      </trkpt>
      <trkpt lat="64.32558" lon="11.2466">
        <ele>46.721378</ele>
        <time>2020-08-10T12:16:01.754Z</time>
      </trkpt>
      <trkpt lat="64.32567" lon="11.24679">
        <ele>46.533458</ele>
        <time>2020-08-10T12:16:04.752Z</time>
      </trkpt>
      <trkpt lat="64.32574" lon="11.247">
        <ele>46.343866</ele>
        <time>2020-08-10T12:16:07.735Z</time>
      </trkpt>
      <trkpt lat="64.32581" lon="11.24723">
        <ele>46.141611</ele>
        <time>2020-08-10T12:16:10.737Z</time>
      </trkpt>
      <trkpt lat="64.32589" lon="11.24746">
        <ele>45.938197</ele>
        <time>2020-08-10T12:16:13.741Z</time>
      </trkpt>
      <trkpt lat="64.32598" lon="11.24769">
        <ele>45.725842</ele>
        <time>2020-08-10T12:16:16.734Z</time>
      </trkpt>
      <trkpt lat="64.32607" lon="11.24789">
        <ele>45.518047</ele>
        <time>2020-08-10T12:16:19.734Z</time>
      </trkpt>
      <trkpt lat="64.32617" lon="11.24808">
        <ele>45.783712</ele>
        <time>2020-08-10T12:16:22.741Z</time>
      </trkpt>
      <trkpt lat="64.32627" lon="11.24825">
        <ele>46.192634</ele>
        <time>2020-08-10T12:16:25.775Z</time>
      </trkpt>
      <trkpt lat="64.32638" lon="11.24841">
        <ele>46.611193</ele>
        <time>2020-08-10T12:16:28.733Z</time>
      </trkpt>
      <trkpt lat="64.32649" lon="11.24854">
        <ele>47.001833</ele>
        <time>2020-08-10T12:16:31.755Z</time>
      </trkpt>
      <trkpt lat="64.3266" lon="11.24864">
        <ele>47.377767</ele>
        <time>2020-08-10T12:16:34.761Z</time>
      </trkpt>
      <trkpt lat="64.32671" lon="11.24872">
        <ele>47.757362</ele>
        <time>2020-08-10T12:16:37.737Z</time>
      </trkpt>
      <trkpt lat="64.32683" lon="11.24879">
        <ele>48.148548</ele>
        <time>2020-08-10T12:16:40.731Z</time>
      </trkpt>
      <trkpt lat="64.32695" lon="11.24886">
        <ele>48.539375</ele>
        <time>2020-08-10T12:16:43.739Z</time>
      </trkpt>
      <trkpt lat="64.32707" lon="11.24894">
        <ele>48.941378</ele>
        <time>2020-08-10T12:16:46.745Z</time>
      </trkpt>
      <trkpt lat="64.32719" lon="11.24901">
        <ele>49.346132</ele>
        <time>2020-08-10T12:16:49.766Z</time>
      </trkpt>
      <trkpt lat="64.32731" lon="11.24909">
        <ele>49.743921</ele>
        <time>2020-08-10T12:16:52.732Z</time>
      </trkpt>
      <trkpt lat="64.32743" lon="11.24915">
        <ele>50.148737</ele>
        <time>2020-08-10T12:16:55.740Z</time>
      </trkpt>
      <trkpt lat="64.32755" lon="11.24923">
        <ele>50.550371</ele>
        <time>2020-08-10T12:16:58.796Z</time>
      </trkpt>
      <trkpt lat="64.32767" lon="11.2493">
        <ele>50.945038</ele>
        <time>2020-08-10T12:17:01.725Z</time>
      </trkpt>
      <trkpt lat="64.32779" lon="11.24937">
        <ele>51.304372</ele>
        <time>2020-08-10T12:17:04.746Z</time>
      </trkpt>
      <trkpt lat="64.32791" lon="11.24943">
        <ele>51.451925</ele>
        <time>2020-08-10T12:17:07.768Z</time>
      </trkpt>
      <trkpt lat="64.32804" lon="11.24949">
        <ele>51.611018</ele>
        <time>2020-08-10T12:17:10.757Z</time>
      </trkpt>
      <trkpt lat="64.32813" lon="11.24955">
        <ele>51.720701</ele>
        <time>2020-08-10T12:17:12.760Z</time>
      </trkpt>
      <trkpt lat="64.32822" lon="11.24961">
        <ele>51.830794</ele>
        <time>2020-08-10T12:17:14.736Z</time>
      </trkpt>
      <trkpt lat="64.3283" lon="11.24967">
        <ele>51.939341</ele>
        <time>2020-08-10T12:17:16.779Z</time>
      </trkpt>
      <trkpt lat="64.32839" lon="11.24974">
        <ele>52.049816</ele>
        <time>2020-08-10T12:17:18.728Z</time>
      </trkpt>
      <trkpt lat="64.32851" lon="11.24981">
        <ele>52.199472</ele>
        <time>2020-08-10T12:17:21.745Z</time>
      </trkpt>
      <trkpt lat="64.32864" lon="11.24987">
        <ele>52.349921</ele>
        <time>2020-08-10T12:17:24.743Z</time>
      </trkpt>
      <trkpt lat="64.32875" lon="11.24995">
        <ele>52.492759</ele>
        <time>2020-08-10T12:17:27.741Z</time>
      </trkpt>
      <trkpt lat="64.32888" lon="11.25003">
        <ele>52.654347</ele>
        <time>2020-08-10T12:17:30.733Z</time>
      </trkpt>
      <trkpt lat="64.32897" lon="11.25009">
        <ele>52.766458</ele>
        <time>2020-08-10T12:17:32.744Z</time>
      </trkpt>
      <trkpt lat="64.32906" lon="11.25015">
        <ele>52.878417</ele>
        <time>2020-08-10T12:17:34.722Z</time>
      </trkpt>
      <trkpt lat="64.32915" lon="11.25022">
        <ele>52.988892</ele>
        <time>2020-08-10T12:17:36.755Z</time>
      </trkpt>
      <trkpt lat="64.32928" lon="11.25029">
        <ele>53.145609</ele>
        <time>2020-08-10T12:17:39.752Z</time>
      </trkpt>
      <trkpt lat="64.32937" lon="11.25032">
        <ele>53.258508</ele>
        <time>2020-08-10T12:17:41.748Z</time>
      </trkpt>
      <trkpt lat="64.32951" lon="11.25034">
        <ele>53.418364</ele>
        <time>2020-08-10T12:17:44.738Z</time>
      </trkpt>
      <trkpt lat="64.3296" lon="11.25034">
        <ele>53.344995</ele>
        <time>2020-08-10T12:17:46.750Z</time>
      </trkpt>
      <trkpt lat="64.32969" lon="11.25034">
        <ele>53.265406</ele>
        <time>2020-08-10T12:17:48.748Z</time>
      </trkpt>
      <trkpt lat="64.32979" lon="11.25033">
        <ele>53.186622</ele>
        <time>2020-08-10T12:17:50.750Z</time>
      </trkpt>
      <trkpt lat="64.32988" lon="11.25032">
        <ele>53.104455</ele>
        <time>2020-08-10T12:17:52.732Z</time>
      </trkpt>
      <trkpt lat="64.32998" lon="11.25033">
        <ele>53.023103</ele>
        <time>2020-08-10T12:17:54.748Z</time>
      </trkpt>
      <trkpt lat="64.33007" lon="11.25034">
        <ele>52.943507</ele>
        <time>2020-08-10T12:17:56.747Z</time>
      </trkpt>
      <trkpt lat="64.33017" lon="11.25035">
        <ele>52.862185</ele>
        <time>2020-08-10T12:17:58.730Z</time>
      </trkpt>
      <trkpt lat="64.33026" lon="11.25036">
        <ele>52.780649</ele>
        <time>2020-08-10T12:18:00.761Z</time>
      </trkpt>
      <trkpt lat="64.33036" lon="11.25039">
        <ele>52.697008</ele>
        <time>2020-08-10T12:18:02.737Z</time>
      </trkpt>
      <trkpt lat="64.33046" lon="11.25044">
        <ele>52.610543</ele>
        <time>2020-08-10T12:18:04.752Z</time>
      </trkpt>
      <trkpt lat="64.33056" lon="11.25048">
        <ele>52.526419</ele>
        <time>2020-08-10T12:18:06.742Z</time>
      </trkpt>
      <trkpt lat="64.33066" lon="11.25051">
        <ele>52.438486</ele>
        <time>2020-08-10T12:18:08.736Z</time>
      </trkpt>
      <trkpt lat="64.33075" lon="11.2505">
        <ele>52.361408</ele>
        <time>2020-08-10T12:18:10.746Z</time>
      </trkpt>
      <trkpt lat="64.33088" lon="11.25051">
        <ele>52.254727</ele>
        <time>2020-08-10T12:18:13.756Z</time>
      </trkpt>
      <trkpt lat="64.33101" lon="11.25052">
        <ele>52.14801</ele>
        <time>2020-08-10T12:18:16.737Z</time>
      </trkpt>
      <trkpt lat="64.33113" lon="11.25053">
        <ele>52.042029</ele>
        <time>2020-08-10T12:18:19.740Z</time>
      </trkpt>
      <trkpt lat="64.33125" lon="11.25057">
        <ele>51.938702</ele>
        <time>2020-08-10T12:18:22.760Z</time>
      </trkpt>
      <trkpt lat="64.33138" lon="11.2506">
        <ele>52.007374</ele>
        <time>2020-08-10T12:18:25.756Z</time>
      </trkpt>
      <trkpt lat="64.33149" lon="11.25063">
        <ele>52.168196</ele>
        <time>2020-08-10T12:18:28.752Z</time>
      </trkpt>
      <trkpt lat="64.33159" lon="11.25066">
        <ele>52.319877</ele>
        <time>2020-08-10T12:18:31.752Z</time>
      </trkpt>
      <trkpt lat="64.3317" lon="11.25065">
        <ele>52.473721</ele>
        <time>2020-08-10T12:18:34.733Z</time>
      </trkpt>
      <trkpt lat="64.3318" lon="11.25064">
        <ele>52.623389</ele>
        <time>2020-08-10T12:18:37.745Z</time>
      </trkpt>
      <trkpt lat="64.33189" lon="11.25063">
        <ele>52.758408</ele>
        <time>2020-08-10T12:18:40.738Z</time>
      </trkpt>
      <trkpt lat="64.33199" lon="11.25062">
        <ele>52.89938</ele>
        <time>2020-08-10T12:18:43.772Z</time>
      </trkpt>
      <trkpt lat="64.33209" lon="11.25062">
        <ele>53.050343</ele>
        <time>2020-08-10T12:18:46.763Z</time>
      </trkpt>
      <trkpt lat="64.3322" lon="11.25064">
        <ele>53.200349</ele>
        <time>2020-08-10T12:18:49.777Z</time>
      </trkpt>
      <trkpt lat="64.3323" lon="11.25067">
        <ele>53.35397</ele>
        <time>2020-08-10T12:18:52.735Z</time>
      </trkpt>
      <trkpt lat="64.33243" lon="11.25069">
        <ele>53.537501</ele>
        <time>2020-08-10T12:18:55.728Z</time>
      </trkpt>
      <trkpt lat="64.33255" lon="11.25072">
        <ele>53.715555</ele>
        <time>2020-08-10T12:18:58.777Z</time>
      </trkpt>
      <trkpt lat="64.33266" lon="11.25073">
        <ele>53.881073</ele>
        <time>2020-08-10T12:19:01.741Z</time>
      </trkpt>
      <trkpt lat="64.33277" lon="11.25074">
        <ele>54.030636</ele>
        <time>2020-08-10T12:19:04.729Z</time>
      </trkpt>
      <trkpt lat="64.33287" lon="11.25072">
        <ele>54.180495</ele>
        <time>2020-08-10T12:19:07.755Z</time>
      </trkpt>
      <trkpt lat="64.33297" lon="11.25072">
        <ele>54.325669</ele>
        <time>2020-08-10T12:19:10.745Z</time>
      </trkpt>
      <trkpt lat="64.33307" lon="11.25069">
        <ele>54.470068</ele>
        <time>2020-08-10T12:19:13.736Z</time>
      </trkpt>
      <trkpt lat="64.33316" lon="11.25067">
        <ele>54.890774</ele>
        <time>2020-08-10T12:19:16.757Z</time>
      </trkpt>
      <trkpt lat="64.33326" lon="11.25066">
        <ele>55.428348</ele>
        <time>2020-08-10T12:19:19.728Z</time>
      </trkpt>
      <trkpt lat="64.33337" lon="11.25066">
        <ele>55.981322</ele>
        <time>2020-08-10T12:19:22.724Z</time>
      </trkpt>
      <trkpt lat="64.33347" lon="11.25065">
        <ele>56.507619</ele>
        <time>2020-08-10T12:19:25.734Z</time>
      </trkpt>
      <trkpt lat="64.33357" lon="11.25065">
        <ele>57.05521</ele>
        <time>2020-08-10T12:19:28.731Z</time>
      </trkpt>
      <trkpt lat="64.33367" lon="11.25067">
        <ele>57.60518</ele>
        <time>2020-08-10T12:19:31.730Z</time>
      </trkpt>
      <trkpt lat="64.33376" lon="11.25069">
        <ele>58.111364</ele>
        <time>2020-08-10T12:19:34.743Z</time>
      </trkpt>
      <trkpt lat="64.33388" lon="11.25074">
        <ele>58.727361</ele>
        <time>2020-08-10T12:19:38.767Z</time>
      </trkpt>
      <trkpt lat="64.33396" lon="11.25079">
        <ele>59.216189</ele>
        <time>2020-08-10T12:19:41.745Z</time>
      </trkpt>
      <trkpt lat="64.33405" lon="11.25086">
        <ele>59.708901</ele>
        <time>2020-08-10T12:19:44.731Z</time>
      </trkpt>
      <trkpt lat="64.33413" lon="11.25095">
        <ele>60.194485</ele>
        <time>2020-08-10T12:19:47.761Z</time>
      </trkpt>
      <trkpt lat="64.33423" lon="11.25104">
        <ele>60.752493</ele>
        <time>2020-08-10T12:19:51.740Z</time>
      </trkpt>
      <trkpt lat="64.33432" lon="11.25115">
        <ele>61.281684</ele>
        <time>2020-08-10T12:19:55.749Z</time>
      </trkpt>
      <trkpt lat="64.3344" lon="11.25123">
        <ele>61.7956</ele>
        <time>2020-08-10T12:19:59.777Z</time>
      </trkpt>
      <trkpt lat="64.3345" lon="11.25133">
        <ele>62.345381</ele>
        <time>2020-08-10T12:20:03.733Z</time>
      </trkpt>
      <trkpt lat="64.33459" lon="11.25145">
        <ele>62.918677</ele>
        <time>2020-08-10T12:20:07.738Z</time>
      </trkpt>
      <trkpt lat="64.33468" lon="11.2516">
        <ele>63.510071</ele>
        <time>2020-08-10T12:20:11.736Z</time>
      </trkpt>
      <trkpt lat="64.33474" lon="11.25175">
        <ele>63.994711</ele>
        <time>2020-08-10T12:20:14.734Z</time>
      </trkpt>
      <trkpt lat="64.33482" lon="11.25194">
        <ele>64.162485</ele>
        <time>2020-08-10T12:20:18.733Z</time>
      </trkpt>
      <trkpt lat="64.33488" lon="11.25216">
        <ele>64.160136</ele>
        <time>2020-08-10T12:20:22.758Z</time>
      </trkpt>
      <trkpt lat="64.33493" lon="11.25233">
        <ele>64.158269</ele>
        <time>2020-08-10T12:20:25.748Z</time>
      </trkpt>
      <trkpt lat="64.33498" lon="11.25251">
        <ele>64.156369</ele>
        <time>2020-08-10T12:20:28.729Z</time>
      </trkpt>
      <trkpt lat="64.33503" lon="11.25275">
        <ele>64.153952</ele>
        <time>2020-08-10T12:20:32.734Z</time>
      </trkpt>
      <trkpt lat="64.33508" lon="11.25295">
        <ele>64.151908</ele>
        <time>2020-08-10T12:20:35.744Z</time>
      </trkpt>
      <trkpt lat="64.33514" lon="11.25317">
        <ele>64.149535</ele>
        <time>2020-08-10T12:20:39.754Z</time>
      </trkpt>
      <trkpt lat="64.3352" lon="11.25336">
        <ele>64.147379</ele>
        <time>2020-08-10T12:20:43.742Z</time>
      </trkpt>
      <trkpt lat="64.33525" lon="11.25357">
        <ele>64.145233</ele>
        <time>2020-08-10T12:20:47.743Z</time>
      </trkpt>
      <trkpt lat="64.3353" lon="11.25376">
        <ele>64.143242</ele>
        <time>2020-08-10T12:20:51.740Z</time>
      </trkpt>
      <trkpt lat="64.33536" lon="11.25398">
        <ele>64.14092</ele>
        <time>2020-08-10T12:20:56.756Z</time>
      </trkpt>
      <trkpt lat="64.33542" lon="11.25416">
        <ele>64.138921</ele>
        <time>2020-08-10T12:21:00.747Z</time>
      </trkpt>
      <trkpt lat="64.33547" lon="11.25433">
        <ele>64.137006</ele>
        <time>2020-08-10T12:21:04.760Z</time>
      </trkpt>
      <trkpt lat="64.33553" lon="11.25451">
        <ele>64.134993</ele>
        <time>2020-08-10T12:21:08.731Z</time>
      </trkpt>
      <trkpt lat="64.33558" lon="11.25471">
        <ele>64.132855</ele>
        <time>2020-08-10T12:21:12.749Z</time>
      </trkpt>
      <trkpt lat="64.33564" lon="11.25488">
        <ele>64.130948</ele>
        <time>2020-08-10T12:21:15.735Z</time>
      </trkpt>
      <trkpt lat="64.33571" lon="11.25509">
        <ele>64.128616</ele>
        <time>2020-08-10T12:21:19.743Z</time>
      </trkpt>
      <trkpt lat="64.33577" lon="11.25529">
        <ele>64.233651</ele>
        <time>2020-08-10T12:21:23.734Z</time>
      </trkpt>
      <trkpt lat="64.33584" lon="11.25543">
        <ele>64.738502</ele>
        <time>2020-08-10T12:21:27.747Z</time>
      </trkpt>
      <trkpt lat="64.3359" lon="11.25564">
        <ele>65.323636</ele>
        <time>2020-08-10T12:21:31.778Z</time>
      </trkpt>
      <trkpt lat="64.33596" lon="11.25582">
        <ele>65.874749</ele>
        <time>2020-08-10T12:21:35.766Z</time>
      </trkpt>
      <trkpt lat="64.33603" lon="11.256">
        <ele>66.439941</ele>
        <time>2020-08-10T12:21:39.747Z</time>
      </trkpt>
      <trkpt lat="64.3361" lon="11.25619">
        <ele>67.030695</ele>
        <time>2020-08-10T12:21:43.754Z</time>
      </trkpt>
      <trkpt lat="64.33616" lon="11.25638">
        <ele>67.603217</ele>
        <time>2020-08-10T12:21:47.738Z</time>
      </trkpt>
      <trkpt lat="64.33623" lon="11.25657">
        <ele>68.184543</ele>
        <time>2020-08-10T12:21:51.789Z</time>
      </trkpt>
      <trkpt lat="64.33631" lon="11.25674">
        <ele>68.766714</ele>
        <time>2020-08-10T12:21:55.736Z</time>
      </trkpt>
      <trkpt lat="64.33639" lon="11.25689">
        <ele>69.341477</ele>
        <time>2020-08-10T12:21:59.755Z</time>
      </trkpt>
      <trkpt lat="64.33647" lon="11.25702">
        <ele>69.890301</ele>
        <time>2020-08-10T12:22:03.757Z</time>
      </trkpt>
      <trkpt lat="64.33656" lon="11.25714">
        <ele>70.447959</ele>
        <time>2020-08-10T12:22:07.732Z</time>
      </trkpt>
      <trkpt lat="64.33666" lon="11.25725">
        <ele>71.085781</ele>
        <time>2020-08-10T12:22:11.736Z</time>
      </trkpt>
      <trkpt lat="64.33677" lon="11.25737">
        <ele>71.73973</ele>
        <time>2020-08-10T12:22:15.743Z</time>
      </trkpt>
      <trkpt lat="64.33685" lon="11.25746">
        <ele>72.24122</ele>
        <time>2020-08-10T12:22:18.736Z</time>
      </trkpt>
      <trkpt lat="64.33696" lon="11.25756">
        <ele>72.861778</ele>
        <time>2020-08-10T12:22:22.736Z</time>
      </trkpt>
      <trkpt lat="64.33706" lon="11.25765">
        <ele>73.460156</ele>
        <time>2020-08-10T12:22:26.739Z</time>
      </trkpt>
      <trkpt lat="64.33716" lon="11.25776">
        <ele>73.955429</ele>
        <time>2020-08-10T12:22:30.733Z</time>
      </trkpt>
      <trkpt lat="64.33724" lon="11.25787">
        <ele>73.822653</ele>
        <time>2020-08-10T12:22:33.741Z</time>
      </trkpt>
      <trkpt lat="64.33734" lon="11.25803">
        <ele>73.645355</ele>
        <time>2020-08-10T12:22:37.726Z</time>
      </trkpt>
      <trkpt lat="64.33742" lon="11.25818">
        <ele>73.496228</ele>
        <time>2020-08-10T12:22:40.736Z</time>
      </trkpt>
      <trkpt lat="64.33749" lon="11.25837">
        <ele>73.330345</ele>
        <time>2020-08-10T12:22:43.735Z</time>
      </trkpt>
      <trkpt lat="64.33757" lon="11.25858">
        <ele>73.156785</ele>
        <time>2020-08-10T12:22:46.743Z</time>
      </trkpt>
      <trkpt lat="64.33761" lon="11.25877">
        <ele>73.019461</ele>
        <time>2020-08-10T12:22:48.736Z</time>
      </trkpt>
      <trkpt lat="64.33765" lon="11.25898">
        <ele>72.869332</ele>
        <time>2020-08-10T12:22:50.760Z</time>
      </trkpt>
      <trkpt lat="64.3377" lon="11.2592">
        <ele>72.71272</ele>
        <time>2020-08-10T12:22:52.729Z</time>
      </trkpt>
      <trkpt lat="64.33774" lon="11.25943">
        <ele>72.550944</ele>
        <time>2020-08-10T12:22:54.739Z</time>
      </trkpt>
      <trkpt lat="64.33779" lon="11.25966">
        <ele>72.389699</ele>
        <time>2020-08-10T12:22:56.746Z</time>
      </trkpt>
      <trkpt lat="64.33784" lon="11.25991">
        <ele>72.217314</ele>
        <time>2020-08-10T12:22:58.741Z</time>
      </trkpt>
      <trkpt lat="64.33789" lon="11.26018">
        <ele>72.026109</ele>
        <time>2020-08-10T12:23:00.755Z</time>
      </trkpt>
      <trkpt lat="64.33795" lon="11.26047">
        <ele>71.818122</ele>
        <time>2020-08-10T12:23:02.727Z</time>
      </trkpt>
      <trkpt lat="64.338" lon="11.26074">
        <ele>71.626934</ele>
        <time>2020-08-10T12:23:04.769Z</time>
      </trkpt>
      <trkpt lat="64.33805" lon="11.261">
        <ele>71.449716</ele>
        <time>2020-08-10T12:23:06.747Z</time>
      </trkpt>
      <trkpt lat="64.33809" lon="11.26125">
        <ele>71.231575</ele>
        <time>2020-08-10T12:23:08.739Z</time>
      </trkpt>
      <trkpt lat="64.33814" lon="11.26161">
        <ele>70.733002</ele>
        <time>2020-08-10T12:23:10.740Z</time>
      </trkpt>
      <trkpt lat="64.33816" lon="11.26184">
        <ele>70.41283</ele>
        <time>2020-08-10T12:23:11.727Z</time>
      </trkpt>
      <trkpt lat="64.33822" lon="11.26209">
        <ele>70.028392</ele>
        <time>2020-08-10T12:23:12.757Z</time>
      </trkpt>
      <trkpt lat="64.3383" lon="11.26231">
        <ele>69.661936</ele>
        <time>2020-08-10T12:23:13.753Z</time>
      </trkpt>
      <trkpt lat="64.33833" lon="11.26254">
        <ele>69.342254</ele>
        <time>2020-08-10T12:23:14.759Z</time>
      </trkpt>
      <trkpt lat="64.33837" lon="11.26293">
        <ele>68.804793</ele>
        <time>2020-08-10T12:23:16.778Z</time>
      </trkpt>
      <trkpt lat="64.3384" lon="11.26313">
        <ele>68.524798</ele>
        <time>2020-08-10T12:23:17.764Z</time>
      </trkpt>
      <trkpt lat="64.33843" lon="11.26333">
        <ele>68.245597</ele>
        <time>2020-08-10T12:23:18.762Z</time>
      </trkpt>
      <trkpt lat="64.33846" lon="11.26353">
        <ele>67.959341</ele>
        <time>2020-08-10T12:23:19.785Z</time>
      </trkpt>
      <trkpt lat="64.3385" lon="11.26373">
        <ele>67.665737</ele>
        <time>2020-08-10T12:23:20.743Z</time>
      </trkpt>
      <trkpt lat="64.33854" lon="11.26394">
        <ele>67.358764</ele>
        <time>2020-08-10T12:23:21.727Z</time>
      </trkpt>
      <trkpt lat="64.33858" lon="11.26416">
        <ele>67.039562</ele>
        <time>2020-08-10T12:23:22.730Z</time>
      </trkpt>
      <trkpt lat="64.33862" lon="11.26438">
        <ele>66.727607</ele>
        <time>2020-08-10T12:23:23.734Z</time>
      </trkpt>
      <trkpt lat="64.33866" lon="11.26459">
        <ele>66.419271</ele>
        <time>2020-08-10T12:23:24.725Z</time>
      </trkpt>
      <trkpt lat="64.33869" lon="11.26481">
        <ele>66.110659</ele>
        <time>2020-08-10T12:23:25.762Z</time>
      </trkpt>
      <trkpt lat="64.33873" lon="11.26501">
        <ele>65.818096</ele>
        <time>2020-08-10T12:23:26.735Z</time>
      </trkpt>
      <trkpt lat="64.33876" lon="11.26521">
        <ele>65.435771</ele>
        <time>2020-08-10T12:23:27.739Z</time>
      </trkpt>
      <trkpt lat="64.3388" lon="11.26541">
        <ele>65.044582</ele>
        <time>2020-08-10T12:23:28.753Z</time>
      </trkpt>
      <trkpt lat="64.33883" lon="11.26561">
        <ele>64.655077</ele>
        <time>2020-08-10T12:23:29.743Z</time>
      </trkpt>
      <trkpt lat="64.33891" lon="11.26596">
        <ele>63.934445</ele>
        <time>2020-08-10T12:23:31.756Z</time>
      </trkpt>
      <trkpt lat="64.33897" lon="11.26628">
        <ele>63.284343</ele>
        <time>2020-08-10T12:23:33.739Z</time>
      </trkpt>
      <trkpt lat="64.33903" lon="11.26656">
        <ele>62.723087</ele>
        <time>2020-08-10T12:23:35.779Z</time>
      </trkpt>
      <trkpt lat="64.33908" lon="11.26681">
        <ele>62.214384</ele>
        <time>2020-08-10T12:23:37.734Z</time>
      </trkpt>
      <trkpt lat="64.33912" lon="11.26704">
        <ele>61.75772</ele>
        <time>2020-08-10T12:23:39.739Z</time>
      </trkpt>
      <trkpt lat="64.33914" lon="11.26734">
        <ele>61.215484</ele>
        <time>2020-08-10T12:23:42.733Z</time>
      </trkpt>
      <trkpt lat="64.33916" lon="11.26761">
        <ele>60.705276</ele>
        <time>2020-08-10T12:23:45.728Z</time>
      </trkpt>
      <trkpt lat="64.33917" lon="11.26787">
        <ele>60.232373</ele>
        <time>2020-08-10T12:23:48.742Z</time>
      </trkpt>
      <trkpt lat="64.33918" lon="11.26812">
        <ele>59.770632</ele>
        <time>2020-08-10T12:23:51.747Z</time>
      </trkpt>
      <trkpt lat="64.3392" lon="11.26835">
        <ele>59.342649</ele>
        <time>2020-08-10T12:23:54.755Z</time>
      </trkpt>
      <trkpt lat="64.33922" lon="11.26857">
        <ele>58.93633</ele>
        <time>2020-08-10T12:23:57.748Z</time>
      </trkpt>
      <trkpt lat="64.33923" lon="11.26878">
        <ele>58.543366</ele>
        <time>2020-08-10T12:24:00.736Z</time>
      </trkpt>
      <trkpt lat="64.33924" lon="11.26899">
        <ele>58.20823</ele>
        <time>2020-08-10T12:24:03.727Z</time>
      </trkpt>
      <trkpt lat="64.33926" lon="11.26924">
        <ele>58.632378</ele>
        <time>2020-08-10T12:24:07.738Z</time>
      </trkpt>
      <trkpt lat="64.33928" lon="11.26948">
        <ele>59.020214</ele>
        <time>2020-08-10T12:24:11.806Z</time>
      </trkpt>
      <trkpt lat="64.3393" lon="11.26971">
        <ele>59.41129</ele>
        <time>2020-08-10T12:24:15.737Z</time>
      </trkpt>
      <trkpt lat="64.33932" lon="11.26995">
        <ele>59.814191</ele>
        <time>2020-08-10T12:24:19.761Z</time>
      </trkpt>
      <trkpt lat="64.33935" lon="11.27019">
        <ele>60.231563</ele>
        <time>2020-08-10T12:24:23.746Z</time>
      </trkpt>
      <trkpt lat="64.33936" lon="11.27044">
        <ele>60.639853</ele>
        <time>2020-08-10T12:24:27.746Z</time>
      </trkpt>
      <trkpt lat="64.33939" lon="11.27068">
        <ele>61.040357</ele>
        <time>2020-08-10T12:24:31.773Z</time>
      </trkpt>
      <trkpt lat="64.33942" lon="11.2709">
        <ele>61.418767</ele>
        <time>2020-08-10T12:24:35.747Z</time>
      </trkpt>
      <trkpt lat="64.33944" lon="11.27114">
        <ele>61.822437</ele>
        <time>2020-08-10T12:24:39.740Z</time>
      </trkpt>
      <trkpt lat="64.33946" lon="11.27136">
        <ele>62.199886</ele>
        <time>2020-08-10T12:24:43.742Z</time>
      </trkpt>
      <trkpt lat="64.3395" lon="11.27155">
        <ele>62.547457</ele>
        <time>2020-08-10T12:24:47.782Z</time>
      </trkpt>
      <trkpt lat="64.33952" lon="11.27176">
        <ele>62.90583</ele>
        <time>2020-08-10T12:24:51.743Z</time>
      </trkpt>
      <trkpt lat="64.33955" lon="11.27198">
        <ele>63.28652</ele>
        <time>2020-08-10T12:24:55.741Z</time>
      </trkpt>
      <trkpt lat="64.33958" lon="11.2722">
        <ele>63.66226</ele>
        <time>2020-08-10T12:24:59.749Z</time>
      </trkpt>
      <trkpt lat="64.33961" lon="11.27243">
        <ele>64.060955</ele>
        <time>2020-08-10T12:25:03.768Z</time>
      </trkpt>
      <trkpt lat="64.33965" lon="11.27265">
        <ele>64.439132</ele>
        <time>2020-08-10T12:25:07.744Z</time>
      </trkpt>
      <trkpt lat="64.33968" lon="11.27285">
        <ele>64.792837</ele>
        <time>2020-08-10T12:25:11.740Z</time>
      </trkpt>
      <trkpt lat="64.33971" lon="11.27307">
        <ele>65.250739</ele>
        <time>2020-08-10T12:25:15.730Z</time>
      </trkpt>
      <trkpt lat="64.33974" lon="11.27328">
        <ele>65.803867</ele>
        <time>2020-08-10T12:25:19.741Z</time>
      </trkpt>
      <trkpt lat="64.33977" lon="11.2735">
        <ele>66.371404</ele>
        <time>2020-08-10T12:25:23.738Z</time>
      </trkpt>
      <trkpt lat="64.3398" lon="11.27371">
        <ele>66.902067</ele>
        <time>2020-08-10T12:25:27.738Z</time>
      </trkpt>
      <trkpt lat="64.33983" lon="11.27391">
        <ele>67.43471</ele>
        <time>2020-08-10T12:25:31.744Z</time>
      </trkpt>
      <trkpt lat="64.33986" lon="11.27412">
        <ele>67.971756</ele>
        <time>2020-08-10T12:25:35.775Z</time>
      </trkpt>
      <trkpt lat="64.33989" lon="11.27433">
        <ele>68.522973</ele>
        <time>2020-08-10T12:25:39.737Z</time>
      </trkpt>
      <trkpt lat="64.33992" lon="11.27454">
        <ele>69.07467</ele>
        <time>2020-08-10T12:25:43.741Z</time>
      </trkpt>
      <trkpt lat="64.33996" lon="11.27475">
        <ele>69.630113</ele>
        <time>2020-08-10T12:25:47.747Z</time>
      </trkpt>
      <trkpt lat="64.33999" lon="11.27498">
        <ele>70.206487</ele>
        <time>2020-08-10T12:25:51.739Z</time>
      </trkpt>
      <trkpt lat="64.34002" lon="11.27518">
        <ele>70.742902</ele>
        <time>2020-08-10T12:25:55.749Z</time>
      </trkpt>
      <trkpt lat="64.34004" lon="11.27541">
        <ele>71.314682</ele>
        <time>2020-08-10T12:25:59.754Z</time>
      </trkpt>
      <trkpt lat="64.34007" lon="11.27566">
        <ele>71.9462</ele>
        <time>2020-08-10T12:26:03.739Z</time>
      </trkpt>
      <trkpt lat="64.34009" lon="11.27589">
        <ele>72.543363</ele>
        <time>2020-08-10T12:26:07.738Z</time>
      </trkpt>
      <trkpt lat="64.3401" lon="11.27611">
        <ele>73.08204</ele>
        <time>2020-08-10T12:26:11.743Z</time>
      </trkpt>
      <trkpt lat="64.3401" lon="11.27634">
        <ele>73.647109</ele>
        <time>2020-08-10T12:26:15.756Z</time>
      </trkpt>
      <trkpt lat="64.3401" lon="11.27658">
        <ele>74.242287</ele>
        <time>2020-08-10T12:26:19.724Z</time>
      </trkpt>
      <trkpt lat="64.34008" lon="11.27681">
        <ele>74.806121</ele>
        <time>2020-08-10T12:26:23.762Z</time>
      </trkpt>
      <trkpt lat="64.34007" lon="11.27704">
        <ele>75.340122</ele>
        <time>2020-08-10T12:26:27.801Z</time>
      </trkpt>
      <trkpt lat="64.34006" lon="11.27725">
        <ele>75.711011</ele>
        <time>2020-08-10T12:26:31.731Z</time>
      </trkpt>
      <trkpt lat="64.34004" lon="11.27749">
        <ele>76.135531</ele>
        <time>2020-08-10T12:26:36.725Z</time>
      </trkpt>
      <trkpt lat="64.34002" lon="11.27771">
        <ele>76.515885</ele>
        <time>2020-08-10T12:26:40.739Z</time>
      </trkpt>
      <trkpt lat="64.34001" lon="11.27793">
        <ele>76.889568</ele>
        <time>2020-08-10T12:26:44.753Z</time>
      </trkpt>
      <trkpt lat="64.34" lon="11.27816">
        <ele>77.293081</ele>
        <time>2020-08-10T12:26:48.792Z</time>
      </trkpt>
      <trkpt lat="64.33998" lon="11.2784">
        <ele>77.711913</ele>
        <time>2020-08-10T12:26:52.767Z</time>
      </trkpt>
      <trkpt lat="64.33997" lon="11.27865">
        <ele>78.136946</ele>
        <time>2020-08-10T12:26:56.745Z</time>
      </trkpt>
      <trkpt lat="64.33997" lon="11.27886">
        <ele>78.499587</ele>
        <time>2020-08-10T12:27:00.766Z</time>
      </trkpt>
      <trkpt lat="64.33995" lon="11.27909">
        <ele>78.914947</ele>
        <time>2020-08-10T12:27:04.734Z</time>
      </trkpt>
      <trkpt lat="64.33993" lon="11.27934">
        <ele>79.337765</ele>
        <time>2020-08-10T12:27:08.772Z</time>
      </trkpt>
      <trkpt lat="64.33992" lon="11.27958">
        <ele>79.765324</ele>
        <time>2020-08-10T12:27:12.746Z</time>
      </trkpt>
      <trkpt lat="64.33991" lon="11.27983">
        <ele>80.197993</ele>
        <time>2020-08-10T12:27:16.738Z</time>
      </trkpt>
      <trkpt lat="64.33991" lon="11.28008">
        <ele>80.619447</ele>
        <time>2020-08-10T12:27:20.759Z</time>
      </trkpt>
      <trkpt lat="64.3399" lon="11.28035">
        <ele>81.08302</ele>
        <time>2020-08-10T12:27:24.744Z</time>
      </trkpt>
      <trkpt lat="64.33989" lon="11.28062">
        <ele>81.558112</ele>
        <time>2020-08-10T12:27:28.743Z</time>
      </trkpt>
      <trkpt lat="64.33988" lon="11.28085">
        <ele>81.946159</ele>
        <time>2020-08-10T12:27:31.745Z</time>
      </trkpt>
      <trkpt lat="64.33987" lon="11.28108">
        <ele>82.354779</ele>
        <time>2020-08-10T12:27:34.759Z</time>
      </trkpt>
      <trkpt lat="64.33985" lon="11.28129">
        <ele>82.336916</ele>
        <time>2020-08-10T12:27:37.734Z</time>
      </trkpt>
      <trkpt lat="64.33985" lon="11.28156">
        <ele>82.236134</ele>
        <time>2020-08-10T12:27:41.762Z</time>
      </trkpt>
      <trkpt lat="64.33984" lon="11.28183">
        <ele>82.133067</ele>
        <time>2020-08-10T12:27:45.765Z</time>
      </trkpt>
      <trkpt lat="64.33985" lon="11.28208">
        <ele>82.037081</ele>
        <time>2020-08-10T12:27:49.762Z</time>
      </trkpt>
      <trkpt lat="64.33986" lon="11.28232">
        <ele>81.947005</ele>
        <time>2020-08-10T12:27:53.736Z</time>
      </trkpt>
      <trkpt lat="64.33987" lon="11.28256">
        <ele>81.851756</ele>
        <time>2020-08-10T12:27:57.745Z</time>
      </trkpt>
      <trkpt lat="64.3399" lon="11.2828">
        <ele>81.759836</ele>
        <time>2020-08-10T12:28:01.738Z</time>
      </trkpt>
      <trkpt lat="64.33992" lon="11.28307">
        <ele>81.655264</ele>
        <time>2020-08-10T12:28:05.744Z</time>
      </trkpt>
      <trkpt lat="64.33996" lon="11.28327">
        <ele>81.57264</ele>
        <time>2020-08-10T12:28:08.731Z</time>
      </trkpt>
      <trkpt lat="64.33999" lon="11.28352">
        <ele>81.47062</ele>
        <time>2020-08-10T12:28:12.747Z</time>
      </trkpt>
      <trkpt lat="64.34003" lon="11.28374">
        <ele>81.379237</ele>
        <time>2020-08-10T12:28:16.743Z</time>
      </trkpt>
      <trkpt lat="64.34009" lon="11.28396">
        <ele>81.283888</ele>
        <time>2020-08-10T12:28:20.742Z</time>
      </trkpt>
      <trkpt lat="64.34014" lon="11.28418">
        <ele>81.185018</ele>
        <time>2020-08-10T12:28:24.746Z</time>
      </trkpt>
      <trkpt lat="64.34021" lon="11.28439">
        <ele>81.0844</ele>
        <time>2020-08-10T12:28:28.732Z</time>
      </trkpt>
      <trkpt lat="64.34029" lon="11.2846">
        <ele>80.982921</ele>
        <time>2020-08-10T12:28:32.732Z</time>
      </trkpt>
      <trkpt lat="64.34035" lon="11.28475">
        <ele>80.900409</ele>
        <time>2020-08-10T12:28:35.722Z</time>
      </trkpt>
      <trkpt lat="64.34041" lon="11.2849">
        <ele>80.818174</ele>
        <time>2020-08-10T12:28:38.758Z</time>
      </trkpt>
      <trkpt lat="64.3405" lon="11.28509">
        <ele>80.681289</ele>
        <time>2020-08-10T12:28:42.752Z</time>
      </trkpt>
      <trkpt lat="64.34057" lon="11.28527">
        <ele>80.554534</ele>
        <time>2020-08-10T12:28:46.777Z</time>
      </trkpt>
      <trkpt lat="64.34065" lon="11.28544">
        <ele>80.423267</ele>
        <time>2020-08-10T12:28:50.757Z</time>
      </trkpt>
      <trkpt lat="64.34073" lon="11.28561">
        <ele>80.296526</ele>
        <time>2020-08-10T12:28:54.731Z</time>
      </trkpt>
      <trkpt lat="64.3408" lon="11.28579">
        <ele>80.168943</ele>
        <time>2020-08-10T12:28:58.758Z</time>
      </trkpt>
      <trkpt lat="64.34088" lon="11.28595">
        <ele>80.044631</ele>
        <time>2020-08-10T12:29:02.725Z</time>
      </trkpt>
      <trkpt lat="64.34095" lon="11.28613">
        <ele>79.923879</ele>
        <time>2020-08-10T12:29:06.757Z</time>
      </trkpt>
      <trkpt lat="64.34102" lon="11.28631">
        <ele>79.796921</ele>
        <time>2020-08-10T12:29:10.741Z</time>
      </trkpt>
      <trkpt lat="64.34109" lon="11.28651">
        <ele>79.662938</ele>
        <time>2020-08-10T12:29:14.749Z</time>
      </trkpt>
      <trkpt lat="64.34116" lon="11.28666">
        <ele>79.553714</ele>
        <time>2020-08-10T12:29:17.767Z</time>
      </trkpt>
      <trkpt lat="64.34123" lon="11.28681">
        <ele>79.4408</ele>
        <time>2020-08-10T12:29:20.746Z</time>
      </trkpt>
      <trkpt lat="64.3413" lon="11.28699">
        <ele>79.31105</ele>
        <time>2020-08-10T12:29:23.753Z</time>
      </trkpt>
      <trkpt lat="64.34139" lon="11.28717">
        <ele>79.17131</ele>
        <time>2020-08-10T12:29:26.739Z</time>
      </trkpt>
      <trkpt lat="64.34148" lon="11.28739">
        <ele>79.011063</ele>
        <time>2020-08-10T12:29:29.741Z</time>
      </trkpt>
      <trkpt lat="64.34155" lon="11.28756">
        <ele>78.893629</ele>
        <time>2020-08-10T12:29:31.751Z</time>
      </trkpt>
      <trkpt lat="64.34163" lon="11.28771">
        <ele>78.772205</ele>
        <time>2020-08-10T12:29:33.741Z</time>
      </trkpt>
      <trkpt lat="64.34171" lon="11.28786">
        <ele>78.588604</ele>
        <time>2020-08-10T12:29:35.745Z</time>
      </trkpt>
      <trkpt lat="64.34179" lon="11.28802">
        <ele>78.246427</ele>
        <time>2020-08-10T12:29:37.735Z</time>
      </trkpt>
      <trkpt lat="64.34187" lon="11.28817">
        <ele>77.899654</ele>
        <time>2020-08-10T12:29:39.743Z</time>
      </trkpt>
      <trkpt lat="64.34196" lon="11.28831">
        <ele>77.533894</ele>
        <time>2020-08-10T12:29:41.724Z</time>
      </trkpt>
      <trkpt lat="64.34205" lon="11.28846">
        <ele>77.147111</ele>
        <time>2020-08-10T12:29:43.738Z</time>
      </trkpt>
      <trkpt lat="64.34215" lon="11.28859">
        <ele>76.768032</ele>
        <time>2020-08-10T12:29:45.760Z</time>
      </trkpt>
      <trkpt lat="64.34225" lon="11.28871">
        <ele>76.388217</ele>
        <time>2020-08-10T12:29:47.763Z</time>
      </trkpt>
      <trkpt lat="64.34236" lon="11.28881">
        <ele>76.01397</ele>
        <time>2020-08-10T12:29:49.758Z</time>
      </trkpt>
      <trkpt lat="64.34246" lon="11.28892">
        <ele>75.618315</ele>
        <time>2020-08-10T12:29:51.760Z</time>
      </trkpt>
      <trkpt lat="64.34258" lon="11.28902">
        <ele>75.215088</ele>
        <time>2020-08-10T12:29:53.759Z</time>
      </trkpt>
      <trkpt lat="64.3427" lon="11.28908">
        <ele>74.809838</ele>
        <time>2020-08-10T12:29:55.759Z</time>
      </trkpt>
      <trkpt lat="64.34281" lon="11.28914">
        <ele>74.404136</ele>
        <time>2020-08-10T12:29:57.740Z</time>
      </trkpt>
      <trkpt lat="64.34293" lon="11.28919">
        <ele>74.000585</ele>
        <time>2020-08-10T12:29:59.767Z</time>
      </trkpt>
      <trkpt lat="64.34305" lon="11.28923">
        <ele>73.605887</ele>
        <time>2020-08-10T12:30:01.741Z</time>
      </trkpt>
      <trkpt lat="64.34317" lon="11.28925">
        <ele>73.210293</ele>
        <time>2020-08-10T12:30:03.746Z</time>
      </trkpt>
      <trkpt lat="64.3433" lon="11.28927">
        <ele>72.778568</ele>
        <time>2020-08-10T12:30:05.756Z</time>
      </trkpt>
      <trkpt lat="64.34342" lon="11.28927">
        <ele>72.15017</ele>
        <time>2020-08-10T12:30:07.769Z</time>
      </trkpt>
      <trkpt lat="64.34355" lon="11.28925">
        <ele>71.469275</ele>
        <time>2020-08-10T12:30:09.772Z</time>
      </trkpt>
      <trkpt lat="64.34367" lon="11.28924">
        <ele>70.799788</ele>
        <time>2020-08-10T12:30:11.732Z</time>
      </trkpt>
      <trkpt lat="64.34378" lon="11.28921">
        <ele>70.16616</ele>
        <time>2020-08-10T12:30:13.738Z</time>
      </trkpt>
      <trkpt lat="64.34389" lon="11.28919">
        <ele>69.589916</ele>
        <time>2020-08-10T12:30:15.740Z</time>
      </trkpt>
      <trkpt lat="64.34399" lon="11.28917">
        <ele>69.018209</ele>
        <time>2020-08-10T12:30:17.745Z</time>
      </trkpt>
      <trkpt lat="64.34409" lon="11.28916">
        <ele>68.4697</ele>
        <time>2020-08-10T12:30:19.746Z</time>
      </trkpt>
      <trkpt lat="64.34419" lon="11.28914">
        <ele>67.926152</ele>
        <time>2020-08-10T12:30:21.743Z</time>
      </trkpt>
      <trkpt lat="64.34429" lon="11.28912">
        <ele>67.366923</ele>
        <time>2020-08-10T12:30:23.733Z</time>
      </trkpt>
      <trkpt lat="64.34438" lon="11.28911">
        <ele>66.823928</ele>
        <time>2020-08-10T12:30:25.761Z</time>
      </trkpt>
      <trkpt lat="64.34448" lon="11.28909">
        <ele>66.29808</ele>
        <time>2020-08-10T12:30:27.754Z</time>
      </trkpt>
      <trkpt lat="64.34457" lon="11.28907">
        <ele>65.770618</ele>
        <time>2020-08-10T12:30:29.737Z</time>
      </trkpt>
      <trkpt lat="64.34471" lon="11.28904">
        <ele>65.030218</ele>
        <time>2020-08-10T12:30:32.735Z</time>
      </trkpt>
      <trkpt lat="64.3448" lon="11.28901">
        <ele>64.529206</ele>
        <time>2020-08-10T12:30:34.761Z</time>
      </trkpt>
      <trkpt lat="64.34493" lon="11.28899">
        <ele>63.796997</ele>
        <time>2020-08-10T12:30:37.734Z</time>
      </trkpt>
      <trkpt lat="64.34505" lon="11.28897">
        <ele>63.137878</ele>
        <time>2020-08-10T12:30:40.751Z</time>
      </trkpt>
      <trkpt lat="64.34516" lon="11.28896">
        <ele>62.771177</ele>
        <time>2020-08-10T12:30:43.747Z</time>
      </trkpt>
      <trkpt lat="64.34526" lon="11.28895">
        <ele>62.8833</ele>
        <time>2020-08-10T12:30:46.747Z</time>
      </trkpt>
      <trkpt lat="64.34537" lon="11.28892">
        <ele>62.997913</ele>
        <time>2020-08-10T12:30:49.720Z</time>
      </trkpt>
      <trkpt lat="64.34547" lon="11.28891">
        <ele>63.107913</ele>
        <time>2020-08-10T12:30:52.741Z</time>
      </trkpt>
      <trkpt lat="64.34559" lon="11.2889">
        <ele>63.233921</ele>
        <time>2020-08-10T12:30:55.782Z</time>
      </trkpt>
      <trkpt lat="64.34571" lon="11.28889">
        <ele>63.364234</ele>
        <time>2020-08-10T12:30:58.760Z</time>
      </trkpt>
      <trkpt lat="64.34583" lon="11.28888">
        <ele>63.499956</ele>
        <time>2020-08-10T12:31:01.756Z</time>
      </trkpt>
      <trkpt lat="64.34597" lon="11.28887">
        <ele>63.644379</ele>
        <time>2020-08-10T12:31:04.746Z</time>
      </trkpt>
      <trkpt lat="64.34606" lon="11.28887">
        <ele>63.749879</ele>
        <time>2020-08-10T12:31:06.740Z</time>
      </trkpt>
      <trkpt lat="64.34617" lon="11.28887">
        <ele>63.863999</ele>
        <time>2020-08-10T12:31:08.754Z</time>
      </trkpt>
      <trkpt lat="64.34628" lon="11.28888">
        <ele>63.980398</ele>
        <time>2020-08-10T12:31:10.748Z</time>
      </trkpt>
      <trkpt lat="64.34638" lon="11.28891">
        <ele>64.095012</ele>
        <time>2020-08-10T12:31:12.736Z</time>
      </trkpt>
      <trkpt lat="64.3465" lon="11.28894">
        <ele>64.215268</ele>
        <time>2020-08-10T12:31:14.762Z</time>
      </trkpt>
      <trkpt lat="64.34661" lon="11.28898">
        <ele>64.342879</ele>
        <time>2020-08-10T12:31:16.737Z</time>
      </trkpt>
      <trkpt lat="64.34673" lon="11.28904">
        <ele>64.47055</ele>
        <time>2020-08-10T12:31:18.749Z</time>
      </trkpt>
      <trkpt lat="64.34684" lon="11.28911">
        <ele>64.596258</ele>
        <time>2020-08-10T12:31:20.730Z</time>
      </trkpt>
      <trkpt lat="64.34694" lon="11.28919">
        <ele>64.722452</ele>
        <time>2020-08-10T12:31:22.757Z</time>
      </trkpt>
      <trkpt lat="64.34704" lon="11.28927">
        <ele>64.861855</ele>
        <time>2020-08-10T12:31:24.742Z</time>
      </trkpt>
      <trkpt lat="64.34714" lon="11.28935">
        <ele>65.003403</ele>
        <time>2020-08-10T12:31:26.740Z</time>
      </trkpt>
      <trkpt lat="64.34724" lon="11.28945">
        <ele>65.147887</ele>
        <time>2020-08-10T12:31:28.742Z</time>
      </trkpt>
      <trkpt lat="64.34734" lon="11.28954">
        <ele>65.29351</ele>
        <time>2020-08-10T12:31:30.751Z</time>
      </trkpt>
      <trkpt lat="64.34744" lon="11.28964">
        <ele>65.441245</ele>
        <time>2020-08-10T12:31:32.776Z</time>
      </trkpt>
      <trkpt lat="64.34754" lon="11.28974">
        <ele>65.579891</ele>
        <time>2020-08-10T12:31:34.727Z</time>
      </trkpt>
      <trkpt lat="64.34763" lon="11.28983">
        <ele>65.716621</ele>
        <time>2020-08-10T12:31:36.734Z</time>
      </trkpt>
      <trkpt lat="64.34772" lon="11.28992">
        <ele>65.843823</ele>
        <time>2020-08-10T12:31:38.780Z</time>
      </trkpt>
      <trkpt lat="64.34781" lon="11.29">
        <ele>65.971797</ele>
        <time>2020-08-10T12:31:40.747Z</time>
      </trkpt>
      <trkpt lat="64.34789" lon="11.29008">
        <ele>66.094946</ele>
        <time>2020-08-10T12:31:42.734Z</time>
      </trkpt>
      <trkpt lat="64.34801" lon="11.29019">
        <ele>66.270774</ele>
        <time>2020-08-10T12:31:45.757Z</time>
      </trkpt>
      <trkpt lat="64.34814" lon="11.2903">
        <ele>66.446176</ele>
        <time>2020-08-10T12:31:48.735Z</time>
      </trkpt>
      <trkpt lat="64.34826" lon="11.29042">
        <ele>66.622653</ele>
        <time>2020-08-10T12:31:51.749Z</time>
      </trkpt>
      <trkpt lat="64.34834" lon="11.2905">
        <ele>66.747642</ele>
        <time>2020-08-10T12:31:53.745Z</time>
      </trkpt>
      <trkpt lat="64.34843" lon="11.29057">
        <ele>66.868679</ele>
        <time>2020-08-10T12:31:55.739Z</time>
      </trkpt>
      <trkpt lat="64.34855" lon="11.29072">
        <ele>67.048067</ele>
        <time>2020-08-10T12:31:58.765Z</time>
      </trkpt>
      <trkpt lat="64.34863" lon="11.29082">
        <ele>67.117473</ele>
        <time>2020-08-10T12:32:00.742Z</time>
      </trkpt>
      <trkpt lat="64.34871" lon="11.29093">
        <ele>67.169927</ele>
        <time>2020-08-10T12:32:02.739Z</time>
      </trkpt>
      <trkpt lat="64.34879" lon="11.29105">
        <ele>67.224488</ele>
        <time>2020-08-10T12:32:04.730Z</time>
      </trkpt>
      <trkpt lat="64.34887" lon="11.29117">
        <ele>67.281526</ele>
        <time>2020-08-10T12:32:06.735Z</time>
      </trkpt>
      <trkpt lat="64.34896" lon="11.2913">
        <ele>67.339779</ele>
        <time>2020-08-10T12:32:08.736Z</time>
      </trkpt>
      <trkpt lat="64.34904" lon="11.29143">
        <ele>67.395204</ele>
        <time>2020-08-10T12:32:10.751Z</time>
      </trkpt>
      <trkpt lat="64.34912" lon="11.29155">
        <ele>67.448872</ele>
        <time>2020-08-10T12:32:12.727Z</time>
      </trkpt>
      <trkpt lat="64.3492" lon="11.29167">
        <ele>67.501466</ele>
        <time>2020-08-10T12:32:14.781Z</time>
      </trkpt>
      <trkpt lat="64.34927" lon="11.29179">
        <ele>67.552668</ele>
        <time>2020-08-10T12:32:16.771Z</time>
      </trkpt>
      <trkpt lat="64.34938" lon="11.29198">
        <ele>67.627844</ele>
        <time>2020-08-10T12:32:19.750Z</time>
      </trkpt>
      <trkpt lat="64.34948" lon="11.29216">
        <ele>67.701688</ele>
        <time>2020-08-10T12:32:22.731Z</time>
      </trkpt>
      <trkpt lat="64.34959" lon="11.29234">
        <ele>67.775678</ele>
        <time>2020-08-10T12:32:25.725Z</time>
      </trkpt>
      <trkpt lat="64.34969" lon="11.29253">
        <ele>67.851459</ele>
        <time>2020-08-10T12:32:28.746Z</time>
      </trkpt>
      <trkpt lat="64.34977" lon="11.29266">
        <ele>67.905012</ele>
        <time>2020-08-10T12:32:30.737Z</time>
      </trkpt>
      <trkpt lat="64.34985" lon="11.29279">
        <ele>67.958565</ele>
        <time>2020-08-10T12:32:32.739Z</time>
      </trkpt>
      <trkpt lat="64.34992" lon="11.29292">
        <ele>68.011666</ele>
        <time>2020-08-10T12:32:34.738Z</time>
      </trkpt>
      <trkpt lat="64.35002" lon="11.2931">
        <ele>68.081026</ele>
        <time>2020-08-10T12:32:37.766Z</time>
      </trkpt>
      <trkpt lat="64.35011" lon="11.29326">
        <ele>68.931524</ele>
        <time>2020-08-10T12:32:40.738Z</time>
      </trkpt>
      <trkpt lat="64.3502" lon="11.29341">
        <ele>69.926787</ele>
        <time>2020-08-10T12:32:43.826Z</time>
      </trkpt>
      <trkpt lat="64.35028" lon="11.29355">
        <ele>70.820926</ele>
        <time>2020-08-10T12:32:46.738Z</time>
      </trkpt>
      <trkpt lat="64.35036" lon="11.29369">
        <ele>71.681911</ele>
        <time>2020-08-10T12:32:49.728Z</time>
      </trkpt>
      <trkpt lat="64.35046" lon="11.29383">
        <ele>72.717788</ele>
        <time>2020-08-10T12:32:53.727Z</time>
      </trkpt>
      <trkpt lat="64.35056" lon="11.29396">
        <ele>73.761001</ele>
        <time>2020-08-10T12:32:57.735Z</time>
      </trkpt>
      <trkpt lat="64.35067" lon="11.29406">
        <ele>74.779355</ele>
        <time>2020-08-10T12:33:01.731Z</time>
      </trkpt>
      <trkpt lat="64.35077" lon="11.29415">
        <ele>75.74354</ele>
        <time>2020-08-10T12:33:05.736Z</time>
      </trkpt>
      <trkpt lat="64.35086" lon="11.29422">
        <ele>76.626816</ele>
        <time>2020-08-10T12:33:09.742Z</time>
      </trkpt>
      <trkpt lat="64.35097" lon="11.29429">
        <ele>77.577827</ele>
        <time>2020-08-10T12:33:14.749Z</time>
      </trkpt>
      <trkpt lat="64.35106" lon="11.29434">
        <ele>78.482101</ele>
        <time>2020-08-10T12:33:19.734Z</time>
      </trkpt>
      <trkpt lat="64.35117" lon="11.29438">
        <ele>79.456317</ele>
        <time>2020-08-10T12:33:24.737Z</time>
      </trkpt>
      <trkpt lat="64.35128" lon="11.29442">
        <ele>80.412948</ele>
        <time>2020-08-10T12:33:29.746Z</time>
      </trkpt>
      <trkpt lat="64.35138" lon="11.29446">
        <ele>81.325012</ele>
        <time>2020-08-10T12:33:34.733Z</time>
      </trkpt>
      <trkpt lat="64.35148" lon="11.29449">
        <ele>82.253434</ele>
        <time>2020-08-10T12:33:39.743Z</time>
      </trkpt>
      <trkpt lat="64.35158" lon="11.29455">
        <ele>83.121021</ele>
        <time>2020-08-10T12:33:44.745Z</time>
      </trkpt>
      <trkpt lat="64.35167" lon="11.29459">
        <ele>83.96027</ele>
        <time>2020-08-10T12:33:49.740Z</time>
      </trkpt>
      <trkpt lat="64.35176" lon="11.29465">
        <ele>84.618693</ele>
        <time>2020-08-10T12:33:54.729Z</time>
      </trkpt>
      <trkpt lat="64.35185" lon="11.29468">
        <ele>85.274507</ele>
        <time>2020-08-10T12:34:00.727Z</time>
      </trkpt>
      <trkpt lat="64.35195" lon="11.29474">
        <ele>85.938146</ele>
        <time>2020-08-10T12:34:05.761Z</time>
      </trkpt>
      <trkpt lat="64.35204" lon="11.29476">
        <ele>86.562941</ele>
        <time>2020-08-10T12:34:10.780Z</time>
      </trkpt>
      <trkpt lat="64.35214" lon="11.2948">
        <ele>87.236861</ele>
        <time>2020-08-10T12:34:16.727Z</time>
      </trkpt>
      <trkpt lat="64.35224" lon="11.29485">
        <ele>87.939539</ele>
        <time>2020-08-10T12:34:22.738Z</time>
      </trkpt>
      <trkpt lat="64.35234" lon="11.29489">
        <ele>88.592981</ele>
        <time>2020-08-10T12:34:27.740Z</time>
      </trkpt>
      <trkpt lat="64.35244" lon="11.29492">
        <ele>89.329959</ele>
        <time>2020-08-10T12:34:33.745Z</time>
      </trkpt>
      <trkpt lat="64.35254" lon="11.29494">
        <ele>89.975223</ele>
        <time>2020-08-10T12:34:38.735Z</time>
      </trkpt>
      <trkpt lat="64.35263" lon="11.29498">
        <ele>90.624774</ele>
        <time>2020-08-10T12:34:43.782Z</time>
      </trkpt>
      <trkpt lat="64.35273" lon="11.29503">
        <ele>91.302976</ele>
        <time>2020-08-10T12:34:48.728Z</time>
      </trkpt>
      <trkpt lat="64.35282" lon="11.29516">
        <ele>92.027527</ele>
        <time>2020-08-10T12:34:52.735Z</time>
      </trkpt>
      <trkpt lat="64.35292" lon="11.29524">
        <ele>92.707931</ele>
        <time>2020-08-10T12:34:57.725Z</time>
      </trkpt>
      <trkpt lat="64.35301" lon="11.29526">
        <ele>93.352923</ele>
        <time>2020-08-10T12:35:03.779Z</time>
      </trkpt>
      <trkpt lat="64.35311" lon="11.29531">
        <ele>94.05387</ele>
        <time>2020-08-10T12:35:09.760Z</time>
      </trkpt>
      <trkpt lat="64.35321" lon="11.29536">
        <ele>94.702352</ele>
        <time>2020-08-10T12:35:15.798Z</time>
      </trkpt>
      <trkpt lat="64.3533" lon="11.2954">
        <ele>95.324963</ele>
        <time>2020-08-10T12:35:20.775Z</time>
      </trkpt>
      <trkpt lat="64.3534" lon="11.29546">
        <ele>96.020679</ele>
        <time>2020-08-10T12:35:26.748Z</time>
      </trkpt>
      <trkpt lat="64.35349" lon="11.29555">
        <ele>96.492528</ele>
        <time>2020-08-10T12:35:31.766Z</time>
      </trkpt>
      <trkpt lat="64.35358" lon="11.29559">
        <ele>96.825669</ele>
        <time>2020-08-10T12:35:36.769Z</time>
      </trkpt>
      <trkpt lat="64.35367" lon="11.29565">
        <ele>97.163078</ele>
        <time>2020-08-10T12:35:41.774Z</time>
      </trkpt>
      <trkpt lat="64.35376" lon="11.29569">
        <ele>97.490824</ele>
        <time>2020-08-10T12:35:46.747Z</time>
      </trkpt>
      <trkpt lat="64.35386" lon="11.29573">
        <ele>97.825247</ele>
        <time>2020-08-10T12:35:51.742Z</time>
      </trkpt>
      <trkpt lat="64.35394" lon="11.29578">
        <ele>98.143586</ele>
        <time>2020-08-10T12:35:56.740Z</time>
      </trkpt>
      <trkpt lat="64.35404" lon="11.29583">
        <ele>98.494893</ele>
        <time>2020-08-10T12:36:01.738Z</time>
      </trkpt>
      <trkpt lat="64.35414" lon="11.29591">
        <ele>98.873665</ele>
        <time>2020-08-10T12:36:06.735Z</time>
      </trkpt>
      <trkpt lat="64.35423" lon="11.29592">
        <ele>99.196251</ele>
        <time>2020-08-10T12:36:11.776Z</time>
      </trkpt>
      <trkpt lat="64.35433" lon="11.29595">
        <ele>99.535499</ele>
        <time>2020-08-10T12:36:16.740Z</time>
      </trkpt>
      <trkpt lat="64.35442" lon="11.29599">
        <ele>99.856007</ele>
        <time>2020-08-10T12:36:21.743Z</time>
      </trkpt>
      <trkpt lat="64.35452" lon="11.29603">
        <ele>100.218066</ele>
        <time>2020-08-10T12:36:27.741Z</time>
      </trkpt>
      <trkpt lat="64.35461" lon="11.29607">
        <ele>100.547012</ele>
        <time>2020-08-10T12:36:33.743Z</time>
      </trkpt>
      <trkpt lat="64.35471" lon="11.29613">
        <ele>100.930736</ele>
        <time>2020-08-10T12:36:39.731Z</time>
      </trkpt>
      <trkpt lat="64.35481" lon="11.29619">
        <ele>101.27746</ele>
        <time>2020-08-10T12:36:44.744Z</time>
      </trkpt>
      <trkpt lat="64.35491" lon="11.29623">
        <ele>101.644308</ele>
        <time>2020-08-10T12:36:49.735Z</time>
      </trkpt>
      <trkpt lat="64.355" lon="11.29629">
        <ele>101.964683</ele>
        <time>2020-08-10T12:36:53.746Z</time>
      </trkpt>
      <trkpt lat="64.3551" lon="11.29637">
        <ele>102.329467</ele>
        <time>2020-08-10T12:36:57.736Z</time>
      </trkpt>
      <trkpt lat="64.35519" lon="11.29642">
        <ele>102.577071</ele>
        <time>2020-08-10T12:37:01.735Z</time>
      </trkpt>
      <trkpt lat="64.35529" lon="11.29649">
        <ele>101.928403</ele>
        <time>2020-08-10T12:37:05.752Z</time>
      </trkpt>
      <trkpt lat="64.35539" lon="11.29654">
        <ele>101.318479</ele>
        <time>2020-08-10T12:37:08.758Z</time>
      </trkpt>
      <trkpt lat="64.35548" lon="11.29663">
        <ele>100.690563</ele>
        <time>2020-08-10T12:37:11.754Z</time>
      </trkpt>
      <trkpt lat="64.35558" lon="11.2967">
        <ele>100.03402</ele>
        <time>2020-08-10T12:37:14.740Z</time>
      </trkpt>
      <trkpt lat="64.35569" lon="11.29677">
        <ele>99.340422</ele>
        <time>2020-08-10T12:37:17.769Z</time>
      </trkpt>
      <trkpt lat="64.35581" lon="11.29684">
        <ele>98.600565</ele>
        <time>2020-08-10T12:37:20.774Z</time>
      </trkpt>
      <trkpt lat="64.35589" lon="11.29692">
        <ele>98.030098</ele>
        <time>2020-08-10T12:37:22.777Z</time>
      </trkpt>
      <trkpt lat="64.35599" lon="11.29699">
        <ele>97.415331</ele>
        <time>2020-08-10T12:37:24.759Z</time>
      </trkpt>
      <trkpt lat="64.35609" lon="11.29708">
        <ele>96.758497</ele>
        <time>2020-08-10T12:37:26.730Z</time>
      </trkpt>
      <trkpt lat="64.35619" lon="11.29717">
        <ele>96.07585</ele>
        <time>2020-08-10T12:37:28.756Z</time>
      </trkpt>
      <trkpt lat="64.3563" lon="11.29729">
        <ele>95.314874</ele>
        <time>2020-08-10T12:37:30.731Z</time>
      </trkpt>
      <trkpt lat="64.35642" lon="11.29742">
        <ele>94.507893</ele>
        <time>2020-08-10T12:37:32.768Z</time>
      </trkpt>
      <trkpt lat="64.35655" lon="11.29758">
        <ele>93.633763</ele>
        <time>2020-08-10T12:37:34.725Z</time>
      </trkpt>
      <trkpt lat="64.35667" lon="11.29775">
        <ele>92.708985</ele>
        <time>2020-08-10T12:37:36.752Z</time>
      </trkpt>
      <trkpt lat="64.3568" lon="11.29796">
        <ele>91.77482</ele>
        <time>2020-08-10T12:37:38.761Z</time>
      </trkpt>
      <trkpt lat="64.35692" lon="11.29819">
        <ele>90.955169</ele>
        <time>2020-08-10T12:37:40.781Z</time>
      </trkpt>
      <trkpt lat="64.35704" lon="11.29843">
        <ele>90.143439</ele>
        <time>2020-08-10T12:37:42.732Z</time>
      </trkpt>
      <trkpt lat="64.35716" lon="11.29868">
        <ele>89.318117</ele>
        <time>2020-08-10T12:37:44.739Z</time>
      </trkpt>
      <trkpt lat="64.35728" lon="11.29895">
        <ele>88.482197</ele>
        <time>2020-08-10T12:37:46.735Z</time>
      </trkpt>
      <trkpt lat="64.3574" lon="11.29925">
        <ele>87.617406</ele>
        <time>2020-08-10T12:37:48.763Z</time>
      </trkpt>
      <trkpt lat="64.35751" lon="11.29956">
        <ele>86.733297</ele>
        <time>2020-08-10T12:37:50.747Z</time>
      </trkpt>
      <trkpt lat="64.35757" lon="11.29972">
        <ele>86.278918</ele>
        <time>2020-08-10T12:37:51.773Z</time>
      </trkpt>
      <trkpt lat="64.35762" lon="11.2999">
        <ele>85.812389</ele>
        <time>2020-08-10T12:37:52.742Z</time>
      </trkpt>
      <trkpt lat="64.35768" lon="11.30008">
        <ele>85.321799</ele>
        <time>2020-08-10T12:37:53.782Z</time>
      </trkpt>
      <trkpt lat="64.35773" lon="11.30027">
        <ele>84.832367</ele>
        <time>2020-08-10T12:37:54.746Z</time>
      </trkpt>
      <trkpt lat="64.35779" lon="11.30047">
        <ele>84.333838</ele>
        <time>2020-08-10T12:37:55.779Z</time>
      </trkpt>
      <trkpt lat="64.35784" lon="11.30066">
        <ele>83.829881</ele>
        <time>2020-08-10T12:37:56.745Z</time>
      </trkpt>
      <trkpt lat="64.3579" lon="11.30086">
        <ele>83.32137</ele>
        <time>2020-08-10T12:37:57.738Z</time>
      </trkpt>
      <trkpt lat="64.35795" lon="11.30105">
        <ele>82.811052</ele>
        <time>2020-08-10T12:37:58.744Z</time>
      </trkpt>
      <trkpt lat="64.35801" lon="11.30125">
        <ele>82.353272</ele>
        <time>2020-08-10T12:37:59.736Z</time>
      </trkpt>
      <trkpt lat="64.35807" lon="11.30145">
        <ele>81.960846</ele>
        <time>2020-08-10T12:38:00.761Z</time>
      </trkpt>
      <trkpt lat="64.35813" lon="11.30164">
        <ele>81.577341</ele>
        <time>2020-08-10T12:38:01.731Z</time>
      </trkpt>
      <trkpt lat="64.35818" lon="11.30184">
        <ele>81.19596</ele>
        <time>2020-08-10T12:38:02.761Z</time>
      </trkpt>
      <trkpt lat="64.35824" lon="11.30203">
        <ele>80.809111</ele>
        <time>2020-08-10T12:38:03.739Z</time>
      </trkpt>
      <trkpt lat="64.35829" lon="11.30223">
        <ele>80.429831</ele>
        <time>2020-08-10T12:38:04.804Z</time>
      </trkpt>
      <trkpt lat="64.35835" lon="11.30242">
        <ele>80.057437</ele>
        <time>2020-08-10T12:38:05.735Z</time>
      </trkpt>
      <trkpt lat="64.3584" lon="11.30261">
        <ele>79.690479</ele>
        <time>2020-08-10T12:38:06.746Z</time>
      </trkpt>
      <trkpt lat="64.35845" lon="11.3028">
        <ele>79.32566</ele>
        <time>2020-08-10T12:38:07.746Z</time>
      </trkpt>
      <trkpt lat="64.3585" lon="11.30298">
        <ele>78.967673</ele>
        <time>2020-08-10T12:38:08.764Z</time>
      </trkpt>
      <trkpt lat="64.35855" lon="11.30316">
        <ele>78.619379</ele>
        <time>2020-08-10T12:38:09.750Z</time>
      </trkpt>
      <trkpt lat="64.3586" lon="11.30334">
        <ele>78.271749</ele>
        <time>2020-08-10T12:38:10.738Z</time>
      </trkpt>
      <trkpt lat="64.35865" lon="11.30351">
        <ele>77.92689</ele>
        <time>2020-08-10T12:38:11.748Z</time>
      </trkpt>
      <trkpt lat="64.35874" lon="11.30386">
        <ele>77.265166</ele>
        <time>2020-08-10T12:38:13.739Z</time>
      </trkpt>
      <trkpt lat="64.35883" lon="11.30418">
        <ele>76.632543</ele>
        <time>2020-08-10T12:38:15.739Z</time>
      </trkpt>
      <trkpt lat="64.35891" lon="11.3045">
        <ele>76.015074</ele>
        <time>2020-08-10T12:38:17.759Z</time>
      </trkpt>
      <trkpt lat="64.359" lon="11.30481">
        <ele>75.43554</ele>
        <time>2020-08-10T12:38:19.746Z</time>
      </trkpt>
      <trkpt lat="64.35909" lon="11.30511">
        <ele>74.89053</ele>
        <time>2020-08-10T12:38:21.735Z</time>
      </trkpt>
      <trkpt lat="64.35917" lon="11.3054">
        <ele>74.355696</ele>
        <time>2020-08-10T12:38:23.748Z</time>
      </trkpt>
      <trkpt lat="64.35926" lon="11.3057">
        <ele>73.822129</ele>
        <time>2020-08-10T12:38:25.744Z</time>
      </trkpt>
      <trkpt lat="64.35934" lon="11.30599">
        <ele>73.289838</ele>
        <time>2020-08-10T12:38:27.775Z</time>
      </trkpt>
      <trkpt lat="64.35942" lon="11.30629">
        <ele>72.757549</ele>
        <time>2020-08-10T12:38:29.754Z</time>
      </trkpt>
      <trkpt lat="64.3595" lon="11.30659">
        <ele>72.214438</ele>
        <time>2020-08-10T12:38:31.759Z</time>
      </trkpt>
      <trkpt lat="64.35959" lon="11.30688">
        <ele>71.688435</ele>
        <time>2020-08-10T12:38:33.780Z</time>
      </trkpt>
      <trkpt lat="64.35967" lon="11.30717">
        <ele>71.16884</ele>
        <time>2020-08-10T12:38:35.734Z</time>
      </trkpt>
      <trkpt lat="64.35975" lon="11.30745">
        <ele>70.653027</ele>
        <time>2020-08-10T12:38:37.741Z</time>
      </trkpt>
      <trkpt lat="64.35983" lon="11.30773">
        <ele>70.143594</ele>
        <time>2020-08-10T12:38:39.747Z</time>
      </trkpt>
      <trkpt lat="64.35991" lon="11.30801">
        <ele>69.640487</ele>
        <time>2020-08-10T12:38:41.782Z</time>
      </trkpt>
      <trkpt lat="64.35998" lon="11.30829">
        <ele>69.013111</ele>
        <time>2020-08-10T12:38:43.732Z</time>
      </trkpt>
      <trkpt lat="64.36006" lon="11.30855">
        <ele>68.289078</ele>
        <time>2020-08-10T12:38:45.743Z</time>
      </trkpt>
      <trkpt lat="64.36013" lon="11.30882">
        <ele>67.584888</ele>
        <time>2020-08-10T12:38:47.746Z</time>
      </trkpt>
      <trkpt lat="64.36021" lon="11.30908">
        <ele>66.885401</ele>
        <time>2020-08-10T12:38:49.747Z</time>
      </trkpt>
      <trkpt lat="64.36028" lon="11.30936">
        <ele>66.156382</ele>
        <time>2020-08-10T12:38:51.732Z</time>
      </trkpt>
      <trkpt lat="64.36036" lon="11.30964">
        <ele>65.391476</ele>
        <time>2020-08-10T12:38:53.793Z</time>
      </trkpt>
      <trkpt lat="64.36045" lon="11.30994">
        <ele>64.559108</ele>
        <time>2020-08-10T12:38:55.743Z</time>
      </trkpt>
      <trkpt lat="64.36055" lon="11.31025">
        <ele>63.682767</ele>
        <time>2020-08-10T12:38:57.751Z</time>
      </trkpt>
      <trkpt lat="64.36066" lon="11.31056">
        <ele>62.787008</ele>
        <time>2020-08-10T12:38:59.748Z</time>
      </trkpt>
      <trkpt lat="64.36078" lon="11.31087">
        <ele>61.852803</ele>
        <time>2020-08-10T12:39:01.743Z</time>
      </trkpt>
      <trkpt lat="64.36085" lon="11.31102">
        <ele>61.365918</ele>
        <time>2020-08-10T12:39:02.734Z</time>
      </trkpt>
      <trkpt lat="64.36092" lon="11.31118">
        <ele>60.862098</ele>
        <time>2020-08-10T12:39:03.737Z</time>
      </trkpt>
      <trkpt lat="64.36099" lon="11.31134">
        <ele>60.337675</ele>
        <time>2020-08-10T12:39:04.816Z</time>
      </trkpt>
      <trkpt lat="64.36106" lon="11.31153">
        <ele>59.726082</ele>
        <time>2020-08-10T12:39:05.763Z</time>
      </trkpt>
      <trkpt lat="64.36113" lon="11.31173">
        <ele>59.003032</ele>
        <time>2020-08-10T12:39:06.746Z</time>
      </trkpt>
      <trkpt lat="64.36122" lon="11.31194">
        <ele>58.261182</ele>
        <time>2020-08-10T12:39:07.753Z</time>
      </trkpt>
      <trkpt lat="64.3613" lon="11.31213">
        <ele>57.543456</ele>
        <time>2020-08-10T12:39:08.781Z</time>
      </trkpt>
      <trkpt lat="64.36138" lon="11.3123">
        <ele>56.846179</ele>
        <time>2020-08-10T12:39:09.758Z</time>
      </trkpt>
      <trkpt lat="64.36146" lon="11.31247">
        <ele>56.148543</ele>
        <time>2020-08-10T12:39:10.742Z</time>
      </trkpt>
      <trkpt lat="64.36155" lon="11.31263">
        <ele>55.473236</ele>
        <time>2020-08-10T12:39:11.750Z</time>
      </trkpt>
      <trkpt lat="64.36163" lon="11.31278">
        <ele>54.819319</ele>
        <time>2020-08-10T12:39:12.774Z</time>
      </trkpt>
      <trkpt lat="64.36171" lon="11.31292">
        <ele>54.181783</ele>
        <time>2020-08-10T12:39:13.758Z</time>
      </trkpt>
      <trkpt lat="64.3618" lon="11.31306">
        <ele>53.554047</ele>
        <time>2020-08-10T12:39:14.766Z</time>
      </trkpt>
      <trkpt lat="64.36188" lon="11.31319">
        <ele>52.927227</ele>
        <time>2020-08-10T12:39:15.738Z</time>
      </trkpt>
      <trkpt lat="64.36196" lon="11.31333">
        <ele>52.302396</ele>
        <time>2020-08-10T12:39:16.784Z</time>
      </trkpt>
      <trkpt lat="64.36204" lon="11.31346">
        <ele>51.688832</ele>
        <time>2020-08-10T12:39:17.730Z</time>
      </trkpt>
      <trkpt lat="64.36212" lon="11.31359">
        <ele>51.088005</ele>
        <time>2020-08-10T12:39:18.763Z</time>
      </trkpt>
      <trkpt lat="64.3622" lon="11.31371">
        <ele>50.492742</ele>
        <time>2020-08-10T12:39:19.764Z</time>
      </trkpt>
      <trkpt lat="64.36228" lon="11.31384">
        <ele>49.904089</ele>
        <time>2020-08-10T12:39:20.754Z</time>
      </trkpt>
      <trkpt lat="64.36235" lon="11.31397">
        <ele>49.331782</ele>
        <time>2020-08-10T12:39:21.770Z</time>
      </trkpt>
      <trkpt lat="64.36243" lon="11.31409">
        <ele>48.853854</ele>
        <time>2020-08-10T12:39:22.729Z</time>
      </trkpt>
      <trkpt lat="64.3625" lon="11.31421">
        <ele>48.693696</ele>
        <time>2020-08-10T12:39:23.759Z</time>
      </trkpt>
      <trkpt lat="64.36265" lon="11.31443">
        <ele>48.382246</ele>
        <time>2020-08-10T12:39:25.735Z</time>
      </trkpt>
      <trkpt lat="64.36278" lon="11.31466">
        <ele>48.087101</ele>
        <time>2020-08-10T12:39:27.752Z</time>
      </trkpt>
      <trkpt lat="64.36291" lon="11.31486">
        <ele>47.815683</ele>
        <time>2020-08-10T12:39:29.767Z</time>
      </trkpt>
      <trkpt lat="64.36303" lon="11.31505">
        <ele>47.558929</ele>
        <time>2020-08-10T12:39:31.764Z</time>
      </trkpt>
      <trkpt lat="64.36314" lon="11.31524">
        <ele>47.307148</ele>
        <time>2020-08-10T12:39:33.726Z</time>
      </trkpt>
      <trkpt lat="64.36326" lon="11.31543">
        <ele>47.064027</ele>
        <time>2020-08-10T12:39:35.755Z</time>
      </trkpt>
      <trkpt lat="64.36336" lon="11.31561">
        <ele>46.834537</ele>
        <time>2020-08-10T12:39:37.731Z</time>
      </trkpt>
      <trkpt lat="64.36346" lon="11.3158">
        <ele>46.59848</ele>
        <time>2020-08-10T12:39:39.751Z</time>
      </trkpt>
      <trkpt lat="64.36357" lon="11.31599">
        <ele>46.357781</ele>
        <time>2020-08-10T12:39:41.740Z</time>
      </trkpt>
      <trkpt lat="64.36368" lon="11.31616">
        <ele>46.119092</ele>
        <time>2020-08-10T12:39:43.766Z</time>
      </trkpt>
      <trkpt lat="64.36379" lon="11.31635">
        <ele>45.875573</ele>
        <time>2020-08-10T12:39:45.777Z</time>
      </trkpt>
      <trkpt lat="64.3639" lon="11.31653">
        <ele>45.650464</ele>
        <time>2020-08-10T12:39:47.740Z</time>
      </trkpt>
      <trkpt lat="64.36399" lon="11.3167">
        <ele>45.44981</ele>
        <time>2020-08-10T12:39:49.737Z</time>
      </trkpt>
      <trkpt lat="64.36409" lon="11.31686">
        <ele>45.262162</ele>
        <time>2020-08-10T12:39:51.727Z</time>
      </trkpt>
      <trkpt lat="64.36418" lon="11.31701">
        <ele>45.078026</ele>
        <time>2020-08-10T12:39:53.767Z</time>
      </trkpt>
      <trkpt lat="64.36426" lon="11.31715">
        <ele>44.904353</ele>
        <time>2020-08-10T12:39:55.754Z</time>
      </trkpt>
      <trkpt lat="64.36434" lon="11.31728">
        <ele>44.747254</ele>
        <time>2020-08-10T12:39:57.745Z</time>
      </trkpt>
      <trkpt lat="64.36441" lon="11.3174">
        <ele>44.598022</ele>
        <time>2020-08-10T12:39:59.789Z</time>
      </trkpt>
      <trkpt lat="64.36452" lon="11.31758">
        <ele>44.378561</ele>
        <time>2020-08-10T12:40:02.745Z</time>
      </trkpt>
      <trkpt lat="64.36462" lon="11.31775">
        <ele>44.165431</ele>
        <time>2020-08-10T12:40:05.738Z</time>
      </trkpt>
      <trkpt lat="64.36473" lon="11.31792">
        <ele>43.950381</ele>
        <time>2020-08-10T12:40:08.756Z</time>
      </trkpt>
      <trkpt lat="64.36481" lon="11.31805">
        <ele>43.790685</ele>
        <time>2020-08-10T12:40:10.765Z</time>
      </trkpt>
      <trkpt lat="64.3649" lon="11.31819">
        <ele>43.618681</ele>
        <time>2020-08-10T12:40:12.755Z</time>
      </trkpt>
      <trkpt lat="64.36499" lon="11.31834">
        <ele>43.435386</ele>
        <time>2020-08-10T12:40:14.764Z</time>
      </trkpt>
      <trkpt lat="64.36507" lon="11.31852">
        <ele>43.242978</ele>
        <time>2020-08-10T12:40:16.758Z</time>
      </trkpt>
      <trkpt lat="64.36516" lon="11.31873">
        <ele>43.034662</ele>
        <time>2020-08-10T12:40:18.747Z</time>
      </trkpt>
      <trkpt lat="64.36526" lon="11.31899">
        <ele>42.785334</ele>
        <time>2020-08-10T12:40:20.749Z</time>
      </trkpt>
      <trkpt lat="64.36537" lon="11.3193">
        <ele>42.654787</ele>
        <time>2020-08-10T12:40:22.768Z</time>
      </trkpt>
      <trkpt lat="64.36543" lon="11.31946">
        <ele>42.601986</ele>
        <time>2020-08-10T12:40:23.755Z</time>
      </trkpt>
      <trkpt lat="64.36548" lon="11.31964">
        <ele>42.547756</ele>
        <time>2020-08-10T12:40:24.739Z</time>
      </trkpt>
      <trkpt lat="64.36554" lon="11.31983">
        <ele>42.492852</ele>
        <time>2020-08-10T12:40:25.769Z</time>
      </trkpt>
      <trkpt lat="64.36559" lon="11.32002">
        <ele>42.436829</ele>
        <time>2020-08-10T12:40:26.743Z</time>
      </trkpt>
      <trkpt lat="64.36564" lon="11.32022">
        <ele>42.381764</ele>
        <time>2020-08-10T12:40:27.736Z</time>
      </trkpt>
      <trkpt lat="64.36568" lon="11.32042">
        <ele>42.325874</ele>
        <time>2020-08-10T12:40:28.746Z</time>
      </trkpt>
      <trkpt lat="64.36571" lon="11.32063">
        <ele>42.271572</ele>
        <time>2020-08-10T12:40:29.726Z</time>
      </trkpt>
      <trkpt lat="64.36574" lon="11.32083">
        <ele>42.217782</ele>
        <time>2020-08-10T12:40:30.748Z</time>
      </trkpt>
      <trkpt lat="64.36577" lon="11.32104">
        <ele>42.16474</ele>
        <time>2020-08-10T12:40:31.735Z</time>
      </trkpt>
      <trkpt lat="64.36579" lon="11.32125">
        <ele>42.111603</ele>
        <time>2020-08-10T12:40:32.759Z</time>
      </trkpt>
      <trkpt lat="64.36581" lon="11.32146">
        <ele>42.057936</ele>
        <time>2020-08-10T12:40:33.774Z</time>
      </trkpt>
      <trkpt lat="64.36583" lon="11.32167">
        <ele>42.006279</ele>
        <time>2020-08-10T12:40:34.741Z</time>
      </trkpt>
      <trkpt lat="64.36587" lon="11.32206">
        <ele>41.907651</ele>
        <time>2020-08-10T12:40:36.740Z</time>
      </trkpt>
      <trkpt lat="64.36591" lon="11.32241">
        <ele>41.819024</ele>
        <time>2020-08-10T12:40:38.741Z</time>
      </trkpt>
      <trkpt lat="64.36594" lon="11.32273">
        <ele>41.737356</ele>
        <time>2020-08-10T12:40:40.727Z</time>
      </trkpt>
      <trkpt lat="64.36597" lon="11.32303">
        <ele>41.820122</ele>
        <time>2020-08-10T12:40:42.773Z</time>
      </trkpt>
      <trkpt lat="64.366" lon="11.3233">
        <ele>41.972375</ele>
        <time>2020-08-10T12:40:44.757Z</time>
      </trkpt>
      <trkpt lat="64.36603" lon="11.32357">
        <ele>42.117701</ele>
        <time>2020-08-10T12:40:46.753Z</time>
      </trkpt>
      <trkpt lat="64.36604" lon="11.32381">
        <ele>42.252562</ele>
        <time>2020-08-10T12:40:48.776Z</time>
      </trkpt>
      <trkpt lat="64.36606" lon="11.32405">
        <ele>42.384552</ele>
        <time>2020-08-10T12:40:50.737Z</time>
      </trkpt>
      <trkpt lat="64.36608" lon="11.3243">
        <ele>42.519538</ele>
        <time>2020-08-10T12:40:52.743Z</time>
      </trkpt>
      <trkpt lat="64.3661" lon="11.32454">
        <ele>42.651953</ele>
        <time>2020-08-10T12:40:54.759Z</time>
      </trkpt>
      <trkpt lat="64.36612" lon="11.32478">
        <ele>42.786451</ele>
        <time>2020-08-10T12:40:56.730Z</time>
      </trkpt>
      <trkpt lat="64.36613" lon="11.32505">
        <ele>42.928083</ele>
        <time>2020-08-10T12:40:58.737Z</time>
      </trkpt>
      <trkpt lat="64.36614" lon="11.32533">
        <ele>43.082864</ele>
        <time>2020-08-10T12:41:00.745Z</time>
      </trkpt>
      <trkpt lat="64.36615" lon="11.32562">
        <ele>43.241017</ele>
        <time>2020-08-10T12:41:02.736Z</time>
      </trkpt>
      <trkpt lat="64.36615" lon="11.32592">
        <ele>43.401016</ele>
        <time>2020-08-10T12:41:04.750Z</time>
      </trkpt>
      <trkpt lat="64.36614" lon="11.32622">
        <ele>43.56443</ele>
        <time>2020-08-10T12:41:06.765Z</time>
      </trkpt>
      <trkpt lat="64.36613" lon="11.32651">
        <ele>43.719211</ele>
        <time>2020-08-10T12:41:08.729Z</time>
      </trkpt>
      <trkpt lat="64.36611" lon="11.32676">
        <ele>43.858317</ele>
        <time>2020-08-10T12:41:10.765Z</time>
      </trkpt>
      <trkpt lat="64.3661" lon="11.32698">
        <ele>44.030012</ele>
        <time>2020-08-10T12:41:12.742Z</time>
      </trkpt>
      <trkpt lat="64.36608" lon="11.32719">
        <ele>44.406912</ele>
        <time>2020-08-10T12:41:14.733Z</time>
      </trkpt>
      <trkpt lat="64.36605" lon="11.32747">
        <ele>44.928831</ele>
        <time>2020-08-10T12:41:17.737Z</time>
      </trkpt>
      <trkpt lat="64.36603" lon="11.32771">
        <ele>45.38252</ele>
        <time>2020-08-10T12:41:20.740Z</time>
      </trkpt>
      <trkpt lat="64.366" lon="11.32793">
        <ele>45.794596</ele>
        <time>2020-08-10T12:41:23.746Z</time>
      </trkpt>
      <trkpt lat="64.36598" lon="11.32814">
        <ele>46.175767</ele>
        <time>2020-08-10T12:41:26.767Z</time>
      </trkpt>
      <trkpt lat="64.36595" lon="11.3284">
        <ele>46.661382</ele>
        <time>2020-08-10T12:41:30.742Z</time>
      </trkpt>
      <trkpt lat="64.36592" lon="11.32862">
        <ele>47.092079</ele>
        <time>2020-08-10T12:41:34.738Z</time>
      </trkpt>
      <trkpt lat="64.36588" lon="11.32886">
        <ele>47.539735</ele>
        <time>2020-08-10T12:41:38.761Z</time>
      </trkpt>
      <trkpt lat="64.36584" lon="11.32908">
        <ele>47.986484</ele>
        <time>2020-08-10T12:41:42.742Z</time>
      </trkpt>
      <trkpt lat="64.36581" lon="11.32928">
        <ele>48.368505</ele>
        <time>2020-08-10T12:41:45.746Z</time>
      </trkpt>
      <trkpt lat="64.36576" lon="11.32946">
        <ele>48.761926</ele>
        <time>2020-08-10T12:41:48.755Z</time>
      </trkpt>
      <trkpt lat="64.36571" lon="11.32971">
        <ele>49.255691</ele>
        <time>2020-08-10T12:41:52.753Z</time>
      </trkpt>
      <trkpt lat="64.36565" lon="11.32995">
        <ele>49.747833</ele>
        <time>2020-08-10T12:41:56.756Z</time>
      </trkpt>
      <trkpt lat="64.36561" lon="11.3302">
        <ele>50.234408</ele>
        <time>2020-08-10T12:42:00.730Z</time>
      </trkpt>
      <trkpt lat="64.36556" lon="11.33043">
        <ele>50.696286</ele>
        <time>2020-08-10T12:42:04.740Z</time>
      </trkpt>
      <trkpt lat="64.36551" lon="11.33061">
        <ele>51.075577</ele>
        <time>2020-08-10T12:42:07.764Z</time>
      </trkpt>
      <trkpt lat="64.36546" lon="11.33078">
        <ele>51.46257</ele>
        <time>2020-08-10T12:42:10.783Z</time>
      </trkpt>
      <trkpt lat="64.36541" lon="11.33096">
        <ele>51.928403</ele>
        <time>2020-08-10T12:42:13.775Z</time>
      </trkpt>
      <trkpt lat="64.36533" lon="11.33117">
        <ele>52.537459</ele>
        <time>2020-08-10T12:42:17.749Z</time>
      </trkpt>
      <trkpt lat="64.36527" lon="11.33138">
        <ele>53.099681</ele>
        <time>2020-08-10T12:42:21.769Z</time>
      </trkpt>
      <trkpt lat="64.36522" lon="11.33158">
        <ele>53.617928</ele>
        <time>2020-08-10T12:42:25.750Z</time>
      </trkpt>
      <trkpt lat="64.36518" lon="11.33177">
        <ele>54.096173</ele>
        <time>2020-08-10T12:42:29.759Z</time>
      </trkpt>
      <trkpt lat="64.36511" lon="11.33199">
        <ele>54.668974</ele>
        <time>2020-08-10T12:42:34.732Z</time>
      </trkpt>
      <trkpt lat="64.36506" lon="11.33216">
        <ele>55.133064</ele>
        <time>2020-08-10T12:42:38.761Z</time>
      </trkpt>
      <trkpt lat="64.36501" lon="11.33234">
        <ele>55.60778</ele>
        <time>2020-08-10T12:42:42.731Z</time>
      </trkpt>
      <trkpt lat="64.36495" lon="11.33254">
        <ele>56.170007</ele>
        <time>2020-08-10T12:42:47.761Z</time>
      </trkpt>
      <trkpt lat="64.36488" lon="11.33275">
        <ele>56.727074</ele>
        <time>2020-08-10T12:42:52.727Z</time>
      </trkpt>
      <trkpt lat="64.36483" lon="11.33293">
        <ele>57.217413</ele>
        <time>2020-08-10T12:42:57.739Z</time>
      </trkpt>
      <trkpt lat="64.36478" lon="11.33311">
        <ele>57.698269</ele>
        <time>2020-08-10T12:43:02.744Z</time>
      </trkpt>
      <trkpt lat="64.36472" lon="11.33329">
        <ele>58.184988</ele>
        <time>2020-08-10T12:43:07.791Z</time>
      </trkpt>
      <trkpt lat="64.36467" lon="11.33346">
        <ele>58.646216</ele>
        <time>2020-08-10T12:43:12.731Z</time>
      </trkpt>
      <trkpt lat="64.36461" lon="11.33362">
        <ele>59.115661</ele>
        <time>2020-08-10T12:43:17.729Z</time>
      </trkpt>
      <trkpt lat="64.36456" lon="11.33381">
        <ele>59.617356</ele>
        <time>2020-08-10T12:43:22.738Z</time>
      </trkpt>
      <trkpt lat="64.36451" lon="11.33401">
        <ele>60.119977</ele>
        <time>2020-08-10T12:43:27.748Z</time>
      </trkpt>
      <trkpt lat="64.36445" lon="11.33421">
        <ele>60.669732</ele>
        <time>2020-08-10T12:43:33.757Z</time>
      </trkpt>
      <trkpt lat="64.3644" lon="11.3344">
        <ele>60.898536</ele>
        <time>2020-08-10T12:43:38.745Z</time>
      </trkpt>
      <trkpt lat="64.36435" lon="11.33459">
        <ele>61.102704</ele>
        <time>2020-08-10T12:43:43.764Z</time>
      </trkpt>
      <trkpt lat="64.3643" lon="11.33477">
        <ele>61.303462</ele>
        <time>2020-08-10T12:43:48.753Z</time>
      </trkpt>
      <trkpt lat="64.36426" lon="11.33498">
        <ele>61.530855</ele>
        <time>2020-08-10T12:43:54.770Z</time>
      </trkpt>
      <trkpt lat="64.36423" lon="11.33519">
        <ele>61.734044</ele>
        <time>2020-08-10T12:43:59.752Z</time>
      </trkpt>
      <trkpt lat="64.3642" lon="11.33539">
        <ele>61.939528</ele>
        <time>2020-08-10T12:44:04.764Z</time>
      </trkpt>
      <trkpt lat="64.36418" lon="11.33562">
        <ele>62.167604</ele>
        <time>2020-08-10T12:44:09.738Z</time>
      </trkpt>
      <trkpt lat="64.36416" lon="11.33585">
        <ele>62.387316</ele>
        <time>2020-08-10T12:44:13.757Z</time>
      </trkpt>
      <trkpt lat="64.36414" lon="11.33608">
        <ele>62.609403</ele>
        <time>2020-08-10T12:44:17.739Z</time>
      </trkpt>
      <trkpt lat="64.36412" lon="11.33632">
        <ele>62.844137</ele>
        <time>2020-08-10T12:44:21.767Z</time>
      </trkpt>
      <trkpt lat="64.36412" lon="11.33656">
        <ele>63.072992</ele>
        <time>2020-08-10T12:44:25.768Z</time>
      </trkpt>
      <trkpt lat="64.36412" lon="11.33682">
        <ele>63.319678</ele>
        <time>2020-08-10T12:44:29.740Z</time>
      </trkpt>
      <trkpt lat="64.36412" lon="11.33709">
        <ele>63.5808</ele>
        <time>2020-08-10T12:44:33.740Z</time>
      </trkpt>
      <trkpt lat="64.36413" lon="11.3373">
        <ele>63.780168</ele>
        <time>2020-08-10T12:44:36.747Z</time>
      </trkpt>
      <trkpt lat="64.36413" lon="11.33757">
        <ele>64.03947</ele>
        <time>2020-08-10T12:44:40.737Z</time>
      </trkpt>
      <trkpt lat="64.36413" lon="11.33784">
        <ele>64.293786</ele>
        <time>2020-08-10T12:44:44.762Z</time>
      </trkpt>
      <trkpt lat="64.36413" lon="11.33811">
        <ele>64.547226</ele>
        <time>2020-08-10T12:44:48.754Z</time>
      </trkpt>
      <trkpt lat="64.36414" lon="11.33838">
        <ele>64.927271</ele>
        <time>2020-08-10T12:44:52.783Z</time>
      </trkpt>
      <trkpt lat="64.36414" lon="11.33859">
        <ele>65.283968</ele>
        <time>2020-08-10T12:44:55.786Z</time>
      </trkpt>
      <trkpt lat="64.36414" lon="11.33881">
        <ele>65.64398</ele>
        <time>2020-08-10T12:44:58.753Z</time>
      </trkpt>
      <trkpt lat="64.36414" lon="11.33908">
        <ele>66.10579</ele>
        <time>2020-08-10T12:45:02.747Z</time>
      </trkpt>
      <trkpt lat="64.36415" lon="11.33929">
        <ele>66.460796</ele>
        <time>2020-08-10T12:45:05.728Z</time>
      </trkpt>
      <trkpt lat="64.36415" lon="11.33956">
        <ele>66.918475</ele>
        <time>2020-08-10T12:45:09.736Z</time>
      </trkpt>
      <trkpt lat="64.36416" lon="11.33982">
        <ele>67.35158</ele>
        <time>2020-08-10T12:45:13.749Z</time>
      </trkpt>
      <trkpt lat="64.36417" lon="11.34004">
        <ele>67.730887</ele>
        <time>2020-08-10T12:45:17.741Z</time>
      </trkpt>
      <trkpt lat="64.36417" lon="11.34026">
        <ele>68.1011</ele>
        <time>2020-08-10T12:45:21.735Z</time>
      </trkpt>
      <trkpt lat="64.36417" lon="11.34048">
        <ele>68.470058</ele>
        <time>2020-08-10T12:45:25.775Z</time>
      </trkpt>
      <trkpt lat="64.36418" lon="11.34073">
        <ele>68.894919</ele>
        <time>2020-08-10T12:45:30.747Z</time>
      </trkpt>
      <trkpt lat="64.36418" lon="11.34095">
        <ele>69.275211</ele>
        <time>2020-08-10T12:45:35.810Z</time>
      </trkpt>
      <trkpt lat="64.36418" lon="11.34117">
        <ele>69.638582</ele>
        <time>2020-08-10T12:45:40.736Z</time>
      </trkpt>
      <trkpt lat="64.36419" lon="11.34141">
        <ele>70.051128</ele>
        <time>2020-08-10T12:45:45.735Z</time>
      </trkpt>
      <trkpt lat="64.36419" lon="11.34165">
        <ele>70.450469</ele>
        <time>2020-08-10T12:45:50.765Z</time>
      </trkpt>
      <trkpt lat="64.3642" lon="11.3419">
        <ele>70.882305</ele>
        <time>2020-08-10T12:45:55.740Z</time>
      </trkpt>
      <trkpt lat="64.36423" lon="11.34211">
        <ele>71.245838</ele>
        <time>2020-08-10T12:45:59.754Z</time>
      </trkpt>
      <trkpt lat="64.36425" lon="11.34232">
        <ele>71.606822</ele>
        <time>2020-08-10T12:46:03.754Z</time>
      </trkpt>
      <trkpt lat="64.36426" lon="11.34257">
        <ele>71.673091</ele>
        <time>2020-08-10T12:46:08.756Z</time>
      </trkpt>
      <trkpt lat="64.36429" lon="11.34279">
        <ele>71.662739</ele>
        <time>2020-08-10T12:46:12.754Z</time>
      </trkpt>
      <trkpt lat="64.36432" lon="11.34301">
        <ele>71.651909</ele>
        <time>2020-08-10T12:46:16.737Z</time>
      </trkpt>
      <trkpt lat="64.36435" lon="11.34324">
        <ele>71.640809</ele>
        <time>2020-08-10T12:46:20.756Z</time>
      </trkpt>
      <trkpt lat="64.3644" lon="11.34348">
        <ele>71.62875</ele>
        <time>2020-08-10T12:46:24.747Z</time>
      </trkpt>
      <trkpt lat="64.36444" lon="11.3437">
        <ele>71.617618</ele>
        <time>2020-08-10T12:46:27.765Z</time>
      </trkpt>
      <trkpt lat="64.36449" lon="11.34398">
        <ele>71.603427</ele>
        <time>2020-08-10T12:46:30.750Z</time>
      </trkpt>
      <trkpt lat="64.36454" lon="11.34419">
        <ele>71.592702</ele>
        <time>2020-08-10T12:46:32.737Z</time>
      </trkpt>
      <trkpt lat="64.36459" lon="11.34438">
        <ele>71.582136</ele>
        <time>2020-08-10T12:46:34.758Z</time>
      </trkpt>
      <trkpt lat="64.36464" lon="11.34456">
        <ele>71.572047</ele>
        <time>2020-08-10T12:46:36.743Z</time>
      </trkpt>
      <trkpt lat="64.3647" lon="11.34473">
        <ele>71.562291</ele>
        <time>2020-08-10T12:46:38.783Z</time>
      </trkpt>
      <trkpt lat="64.36475" lon="11.34491">
        <ele>71.552744</ele>
        <time>2020-08-10T12:46:40.741Z</time>
      </trkpt>
      <trkpt lat="64.36481" lon="11.34516">
        <ele>71.539038</ele>
        <time>2020-08-10T12:46:43.740Z</time>
      </trkpt>
      <trkpt lat="64.36489" lon="11.34542">
        <ele>71.524736</ele>
        <time>2020-08-10T12:46:46.740Z</time>
      </trkpt>
      <trkpt lat="64.36494" lon="11.34559">
        <ele>71.514943</ele>
        <time>2020-08-10T12:46:48.771Z</time>
      </trkpt>
      <trkpt lat="64.365" lon="11.34576">
        <ele>71.504847</ele>
        <time>2020-08-10T12:46:50.753Z</time>
      </trkpt>
      <trkpt lat="64.36505" lon="11.34594">
        <ele>71.494616</ele>
        <time>2020-08-10T12:46:52.754Z</time>
      </trkpt>
      <trkpt lat="64.36511" lon="11.34612">
        <ele>71.310429</ele>
        <time>2020-08-10T12:46:54.758Z</time>
      </trkpt>
      <trkpt lat="64.36516" lon="11.3463">
        <ele>71.034525</ele>
        <time>2020-08-10T12:46:56.760Z</time>
      </trkpt>
      <trkpt lat="64.36521" lon="11.34648">
        <ele>70.758754</ele>
        <time>2020-08-10T12:46:58.788Z</time>
      </trkpt>
      <trkpt lat="64.36526" lon="11.34666">
        <ele>70.481932</ele>
        <time>2020-08-10T12:47:00.738Z</time>
      </trkpt>
      <trkpt lat="64.36535" lon="11.34689">
        <ele>70.084414</ele>
        <time>2020-08-10T12:47:03.767Z</time>
      </trkpt>
      <trkpt lat="64.36544" lon="11.34712">
        <ele>69.680788</ele>
        <time>2020-08-10T12:47:06.744Z</time>
      </trkpt>
      <trkpt lat="64.36554" lon="11.34736">
        <ele>69.260646</ele>
        <time>2020-08-10T12:47:09.789Z</time>
      </trkpt>
      <trkpt lat="64.3656" lon="11.34756">
        <ele>68.93628</ele>
        <time>2020-08-10T12:47:11.729Z</time>
      </trkpt>
      <trkpt lat="64.36568" lon="11.34774">
        <ele>68.615909</ele>
        <time>2020-08-10T12:47:13.762Z</time>
      </trkpt>
      <trkpt lat="64.36575" lon="11.34793">
        <ele>68.276827</ele>
        <time>2020-08-10T12:47:15.751Z</time>
      </trkpt>
      <trkpt lat="64.36583" lon="11.34813">
        <ele>67.942783</ele>
        <time>2020-08-10T12:47:17.750Z</time>
      </trkpt>
      <trkpt lat="64.3659" lon="11.34832">
        <ele>67.605719</ele>
        <time>2020-08-10T12:47:19.750Z</time>
      </trkpt>
      <trkpt lat="64.36598" lon="11.34852">
        <ele>67.267784</ele>
        <time>2020-08-10T12:47:21.735Z</time>
      </trkpt>
      <trkpt lat="64.36605" lon="11.34872">
        <ele>66.930826</ele>
        <time>2020-08-10T12:47:23.752Z</time>
      </trkpt>
      <trkpt lat="64.36612" lon="11.34892">
        <ele>66.592676</ele>
        <time>2020-08-10T12:47:25.774Z</time>
      </trkpt>
      <trkpt lat="64.36619" lon="11.34912">
        <ele>66.257537</ele>
        <time>2020-08-10T12:47:27.734Z</time>
      </trkpt>
      <trkpt lat="64.36626" lon="11.34932">
        <ele>66.094967</ele>
        <time>2020-08-10T12:47:29.746Z</time>
      </trkpt>
      <trkpt lat="64.36633" lon="11.34951">
        <ele>66.050917</ele>
        <time>2020-08-10T12:47:31.739Z</time>
      </trkpt>
      <trkpt lat="64.36641" lon="11.3497">
        <ele>66.006586</ele>
        <time>2020-08-10T12:47:33.739Z</time>
      </trkpt>
      <trkpt lat="64.36648" lon="11.3499">
        <ele>65.96068</ele>
        <time>2020-08-10T12:47:35.738Z</time>
      </trkpt>
      <trkpt lat="64.36656" lon="11.35009">
        <ele>65.915158</ele>
        <time>2020-08-10T12:47:37.746Z</time>
      </trkpt>
      <trkpt lat="64.36663" lon="11.35029">
        <ele>65.868713</ele>
        <time>2020-08-10T12:47:39.742Z</time>
      </trkpt>
      <trkpt lat="64.36671" lon="11.35049">
        <ele>65.822803</ele>
        <time>2020-08-10T12:47:41.772Z</time>
      </trkpt>
      <trkpt lat="64.36678" lon="11.35069">
        <ele>65.777424</ele>
        <time>2020-08-10T12:47:43.741Z</time>
      </trkpt>
      <trkpt lat="64.36685" lon="11.35088">
        <ele>65.733236</ele>
        <time>2020-08-10T12:47:45.743Z</time>
      </trkpt>
      <trkpt lat="64.36692" lon="11.35107">
        <ele>65.690642</ele>
        <time>2020-08-10T12:47:47.787Z</time>
      </trkpt>
      <trkpt lat="64.36699" lon="11.35124">
        <ele>65.649867</ele>
        <time>2020-08-10T12:47:49.754Z</time>
      </trkpt>
      <trkpt lat="64.36705" lon="11.35142">
        <ele>65.607802</ele>
        <time>2020-08-10T12:47:51.759Z</time>
      </trkpt>
      <trkpt lat="64.36712" lon="11.3516">
        <ele>65.565737</ele>
        <time>2020-08-10T12:47:53.735Z</time>
      </trkpt>
      <trkpt lat="64.36719" lon="11.35178">
        <ele>65.523407</ele>
        <time>2020-08-10T12:47:55.742Z</time>
      </trkpt>
      <trkpt lat="64.36725" lon="11.35196">
        <ele>65.482929</ele>
        <time>2020-08-10T12:47:57.759Z</time>
      </trkpt>
      <trkpt lat="64.36732" lon="11.35216">
        <ele>65.440033</ele>
        <time>2020-08-10T12:47:59.731Z</time>
      </trkpt>
      <trkpt lat="64.36738" lon="11.35235">
        <ele>65.398073</ele>
        <time>2020-08-10T12:48:01.752Z</time>
      </trkpt>
      <trkpt lat="64.36745" lon="11.35254">
        <ele>65.326593</ele>
        <time>2020-08-10T12:48:03.742Z</time>
      </trkpt>
      <trkpt lat="64.36752" lon="11.35274">
        <ele>65.247789</ele>
        <time>2020-08-10T12:48:05.754Z</time>
      </trkpt>
      <trkpt lat="64.3676" lon="11.35295">
        <ele>65.16695</ele>
        <time>2020-08-10T12:48:07.750Z</time>
      </trkpt>
      <trkpt lat="64.36768" lon="11.35316">
        <ele>65.084288</ele>
        <time>2020-08-10T12:48:09.761Z</time>
      </trkpt>
      <trkpt lat="64.36776" lon="11.35337">
        <ele>64.997575</ele>
        <time>2020-08-10T12:48:11.733Z</time>
      </trkpt>
      <trkpt lat="64.36785" lon="11.35359">
        <ele>64.908839</ele>
        <time>2020-08-10T12:48:13.738Z</time>
      </trkpt>
      <trkpt lat="64.36793" lon="11.35383">
        <ele>64.816901</ele>
        <time>2020-08-10T12:48:15.736Z</time>
      </trkpt>
      <trkpt lat="64.36802" lon="11.35408">
        <ele>64.722027</ele>
        <time>2020-08-10T12:48:17.737Z</time>
      </trkpt>
      <trkpt lat="64.3681" lon="11.35432">
        <ele>64.626713</ele>
        <time>2020-08-10T12:48:19.771Z</time>
      </trkpt>
      <trkpt lat="64.36819" lon="11.35456">
        <ele>64.531419</ele>
        <time>2020-08-10T12:48:21.748Z</time>
      </trkpt>
      <trkpt lat="64.36828" lon="11.35479">
        <ele>64.44042</ele>
        <time>2020-08-10T12:48:23.742Z</time>
      </trkpt>
      <trkpt lat="64.36837" lon="11.35503">
        <ele>64.344888</ele>
        <time>2020-08-10T12:48:25.756Z</time>
      </trkpt>
      <trkpt lat="64.36846" lon="11.35527">
        <ele>64.249817</ele>
        <time>2020-08-10T12:48:27.754Z</time>
      </trkpt>
      <trkpt lat="64.36855" lon="11.35552">
        <ele>64.155193</ele>
        <time>2020-08-10T12:48:29.744Z</time>
      </trkpt>
      <trkpt lat="64.36864" lon="11.35575">
        <ele>63.997392</ele>
        <time>2020-08-10T12:48:31.769Z</time>
      </trkpt>
      <trkpt lat="64.36873" lon="11.356">
        <ele>63.834986</ele>
        <time>2020-08-10T12:48:33.760Z</time>
      </trkpt>
      <trkpt lat="64.36881" lon="11.35623">
        <ele>63.678411</ele>
        <time>2020-08-10T12:48:35.773Z</time>
      </trkpt>
      <trkpt lat="64.36889" lon="11.35646">
        <ele>63.524544</ele>
        <time>2020-08-10T12:48:37.735Z</time>
      </trkpt>
      <trkpt lat="64.36897" lon="11.35668">
        <ele>63.377968</ele>
        <time>2020-08-10T12:48:39.766Z</time>
      </trkpt>
      <trkpt lat="64.36905" lon="11.35689">
        <ele>63.236158</ele>
        <time>2020-08-10T12:48:41.761Z</time>
      </trkpt>
      <trkpt lat="64.36913" lon="11.35711">
        <ele>63.090863</ele>
        <time>2020-08-10T12:48:43.737Z</time>
      </trkpt>
      <trkpt lat="64.36921" lon="11.35732">
        <ele>62.945536</ele>
        <time>2020-08-10T12:48:45.726Z</time>
      </trkpt>
      <trkpt lat="64.36929" lon="11.35753">
        <ele>62.802568</ele>
        <time>2020-08-10T12:48:47.736Z</time>
      </trkpt>
      <trkpt lat="64.36936" lon="11.35774">
        <ele>62.66231</ele>
        <time>2020-08-10T12:48:49.738Z</time>
      </trkpt>
      <trkpt lat="64.36944" lon="11.35794">
        <ele>62.526702</ele>
        <time>2020-08-10T12:48:51.739Z</time>
      </trkpt>
      <trkpt lat="64.3695" lon="11.35813">
        <ele>62.401925</ele>
        <time>2020-08-10T12:48:53.757Z</time>
      </trkpt>
      <trkpt lat="64.36957" lon="11.35833">
        <ele>62.276488</ele>
        <time>2020-08-10T12:48:55.733Z</time>
      </trkpt>
      <trkpt lat="64.36963" lon="11.35852">
        <ele>62.152695</ele>
        <time>2020-08-10T12:48:57.783Z</time>
      </trkpt>
      <trkpt lat="64.36969" lon="11.35871">
        <ele>62.027118</ele>
        <time>2020-08-10T12:48:59.746Z</time>
      </trkpt>
      <trkpt lat="64.36977" lon="11.3589">
        <ele>62.123669</ele>
        <time>2020-08-10T12:49:01.740Z</time>
      </trkpt>
      <trkpt lat="64.36983" lon="11.35909">
        <ele>62.246155</ele>
        <time>2020-08-10T12:49:03.726Z</time>
      </trkpt>
      <trkpt lat="64.3699" lon="11.35928">
        <ele>62.369849</ele>
        <time>2020-08-10T12:49:05.761Z</time>
      </trkpt>
      <trkpt lat="64.36997" lon="11.35948">
        <ele>62.496131</ele>
        <time>2020-08-10T12:49:07.736Z</time>
      </trkpt>
      <trkpt lat="64.37004" lon="11.35968">
        <ele>62.624226</ele>
        <time>2020-08-10T12:49:09.749Z</time>
      </trkpt>
      <trkpt lat="64.37011" lon="11.35987">
        <ele>62.750121</ele>
        <time>2020-08-10T12:49:11.744Z</time>
      </trkpt>
      <trkpt lat="64.37019" lon="11.36009">
        <ele>62.885778</ele>
        <time>2020-08-10T12:49:13.741Z</time>
      </trkpt>
      <trkpt lat="64.37027" lon="11.36031">
        <ele>63.025859</ele>
        <time>2020-08-10T12:49:15.757Z</time>
      </trkpt>
      <trkpt lat="64.37035" lon="11.36055">
        <ele>63.177758</ele>
        <time>2020-08-10T12:49:17.750Z</time>
      </trkpt>
      <trkpt lat="64.37044" lon="11.36081">
        <ele>63.344129</ele>
        <time>2020-08-10T12:49:19.748Z</time>
      </trkpt>
      <trkpt lat="64.37054" lon="11.36106">
        <ele>63.514186</ele>
        <time>2020-08-10T12:49:21.740Z</time>
      </trkpt>
      <trkpt lat="64.37064" lon="11.36131">
        <ele>63.683797</ele>
        <time>2020-08-10T12:49:23.746Z</time>
      </trkpt>
      <trkpt lat="64.37074" lon="11.36156">
        <ele>63.854386</ele>
        <time>2020-08-10T12:49:25.739Z</time>
      </trkpt>
      <trkpt lat="64.37084" lon="11.36181">
        <ele>64.025176</ele>
        <time>2020-08-10T12:49:27.766Z</time>
      </trkpt>
      <trkpt lat="64.37093" lon="11.36206">
        <ele>63.80298</ele>
        <time>2020-08-10T12:49:29.741Z</time>
      </trkpt>
      <trkpt lat="64.37101" lon="11.36227">
        <ele>63.467716</ele>
        <time>2020-08-10T12:49:31.745Z</time>
      </trkpt>
      <trkpt lat="64.37108" lon="11.36248">
        <ele>63.152231</ele>
        <time>2020-08-10T12:49:33.764Z</time>
      </trkpt>
      <trkpt lat="64.37115" lon="11.36267">
        <ele>62.850577</ele>
        <time>2020-08-10T12:49:35.761Z</time>
      </trkpt>
      <trkpt lat="64.37122" lon="11.36284">
        <ele>62.564091</ele>
        <time>2020-08-10T12:49:37.742Z</time>
      </trkpt>
      <trkpt lat="64.37129" lon="11.363">
        <ele>62.292675</ele>
        <time>2020-08-10T12:49:39.780Z</time>
      </trkpt>
      <trkpt lat="64.37136" lon="11.36315">
        <ele>62.035905</ele>
        <time>2020-08-10T12:49:41.750Z</time>
      </trkpt>
      <trkpt lat="64.37145" lon="11.36337">
        <ele>61.676817</ele>
        <time>2020-08-10T12:49:44.765Z</time>
      </trkpt>
      <trkpt lat="64.37154" lon="11.36359">
        <ele>61.313925</ele>
        <time>2020-08-10T12:49:47.789Z</time>
      </trkpt>
      <trkpt lat="64.37162" lon="11.36381">
        <ele>60.951187</ele>
        <time>2020-08-10T12:49:50.751Z</time>
      </trkpt>
      <trkpt lat="64.37169" lon="11.36397">
        <ele>60.690436</ele>
        <time>2020-08-10T12:49:52.786Z</time>
      </trkpt>
      <trkpt lat="64.37175" lon="11.36415">
        <ele>60.414228</ele>
        <time>2020-08-10T12:49:54.749Z</time>
      </trkpt>
      <trkpt lat="64.37182" lon="11.36433">
        <ele>60.126042</ele>
        <time>2020-08-10T12:49:56.762Z</time>
      </trkpt>
      <trkpt lat="64.37188" lon="11.36452">
        <ele>59.830628</ele>
        <time>2020-08-10T12:49:58.775Z</time>
      </trkpt>
      <trkpt lat="64.37196" lon="11.36472">
        <ele>59.525352</ele>
        <time>2020-08-10T12:50:00.756Z</time>
      </trkpt>
      <trkpt lat="64.37203" lon="11.36493">
        <ele>59.19913</ele>
        <time>2020-08-10T12:50:02.728Z</time>
      </trkpt>
      <trkpt lat="64.37211" lon="11.36514">
        <ele>58.818663</ele>
        <time>2020-08-10T12:50:04.759Z</time>
      </trkpt>
      <trkpt lat="64.37219" lon="11.36536">
        <ele>58.409433</ele>
        <time>2020-08-10T12:50:06.738Z</time>
      </trkpt>
      <trkpt lat="64.37227" lon="11.36559">
        <ele>57.987151</ele>
        <time>2020-08-10T12:50:08.764Z</time>
      </trkpt>
      <trkpt lat="64.37236" lon="11.36583">
        <ele>57.548575</ele>
        <time>2020-08-10T12:50:10.747Z</time>
      </trkpt>
      <trkpt lat="64.37245" lon="11.36607">
        <ele>57.091068</ele>
        <time>2020-08-10T12:50:12.729Z</time>
      </trkpt>
      <trkpt lat="64.37254" lon="11.36631">
        <ele>56.627904</ele>
        <time>2020-08-10T12:50:14.761Z</time>
      </trkpt>
      <trkpt lat="64.37264" lon="11.36655">
        <ele>56.174636</ele>
        <time>2020-08-10T12:50:16.738Z</time>
      </trkpt>
      <trkpt lat="64.37274" lon="11.36679">
        <ele>55.707784</ele>
        <time>2020-08-10T12:50:18.743Z</time>
      </trkpt>
      <trkpt lat="64.37283" lon="11.36703">
        <ele>55.253499</ele>
        <time>2020-08-10T12:50:20.791Z</time>
      </trkpt>
      <trkpt lat="64.37293" lon="11.36726">
        <ele>54.784067</ele>
        <time>2020-08-10T12:50:22.750Z</time>
      </trkpt>
      <trkpt lat="64.37301" lon="11.36751">
        <ele>54.335655</ele>
        <time>2020-08-10T12:50:24.746Z</time>
      </trkpt>
      <trkpt lat="64.3731" lon="11.36778">
        <ele>53.855176</ele>
        <time>2020-08-10T12:50:26.764Z</time>
      </trkpt>
      <trkpt lat="64.3732" lon="11.36804">
        <ele>53.36838</ele>
        <time>2020-08-10T12:50:28.757Z</time>
      </trkpt>
      <trkpt lat="64.37329" lon="11.36831">
        <ele>52.988943</ele>
        <time>2020-08-10T12:50:30.738Z</time>
      </trkpt>
      <trkpt lat="64.37338" lon="11.36857">
        <ele>52.699245</ele>
        <time>2020-08-10T12:50:32.750Z</time>
      </trkpt>
      <trkpt lat="64.37347" lon="11.36882">
        <ele>52.408519</ele>
        <time>2020-08-10T12:50:34.746Z</time>
      </trkpt>
      <trkpt lat="64.37356" lon="11.36907">
        <ele>52.111781</ele>
        <time>2020-08-10T12:50:36.745Z</time>
      </trkpt>
      <trkpt lat="64.37366" lon="11.3693">
        <ele>51.830757</ele>
        <time>2020-08-10T12:50:38.733Z</time>
      </trkpt>
      <trkpt lat="64.37375" lon="11.36953">
        <ele>51.554121</ele>
        <time>2020-08-10T12:50:40.747Z</time>
      </trkpt>
      <trkpt lat="64.37383" lon="11.36977">
        <ele>51.280886</ele>
        <time>2020-08-10T12:50:42.779Z</time>
      </trkpt>
      <trkpt lat="64.37392" lon="11.36998">
        <ele>51.022324</ele>
        <time>2020-08-10T12:50:44.733Z</time>
      </trkpt>
      <trkpt lat="64.37401" lon="11.37019">
        <ele>50.755628</ele>
        <time>2020-08-10T12:50:46.733Z</time>
      </trkpt>
      <trkpt lat="64.37412" lon="11.3704">
        <ele>50.47202</ele>
        <time>2020-08-10T12:50:48.765Z</time>
      </trkpt>
      <trkpt lat="64.37422" lon="11.37062">
        <ele>50.180314</ele>
        <time>2020-08-10T12:50:50.761Z</time>
      </trkpt>
      <trkpt lat="64.37433" lon="11.37087">
        <ele>49.860579</ele>
        <time>2020-08-10T12:50:52.767Z</time>
      </trkpt>
      <trkpt lat="64.37447" lon="11.37112">
        <ele>49.507757</ele>
        <time>2020-08-10T12:50:54.739Z</time>
      </trkpt>
      <trkpt lat="64.37454" lon="11.37124">
        <ele>49.269273</ele>
        <time>2020-08-10T12:50:55.762Z</time>
      </trkpt>
      <trkpt lat="64.37462" lon="11.37137">
        <ele>49.017722</ele>
        <time>2020-08-10T12:50:56.733Z</time>
      </trkpt>
      <trkpt lat="64.37469" lon="11.37149">
        <ele>48.765728</ele>
        <time>2020-08-10T12:50:57.769Z</time>
      </trkpt>
      <trkpt lat="64.37477" lon="11.37162">
        <ele>48.517522</ele>
        <time>2020-08-10T12:50:58.743Z</time>
      </trkpt>
      <trkpt lat="64.37484" lon="11.37174">
        <ele>48.268425</ele>
        <time>2020-08-10T12:50:59.777Z</time>
      </trkpt>
      <trkpt lat="64.37492" lon="11.37186">
        <ele>48.013096</ele>
        <time>2020-08-10T12:51:00.754Z</time>
      </trkpt>
      <trkpt lat="64.375" lon="11.372">
        <ele>47.75655</ele>
        <time>2020-08-10T12:51:01.779Z</time>
      </trkpt>
      <trkpt lat="64.37507" lon="11.37214">
        <ele>47.497751</ele>
        <time>2020-08-10T12:51:02.757Z</time>
      </trkpt>
      <trkpt lat="64.37514" lon="11.37228">
        <ele>47.239314</ele>
        <time>2020-08-10T12:51:03.740Z</time>
      </trkpt>
      <trkpt lat="64.37521" lon="11.37244">
        <ele>46.978926</ele>
        <time>2020-08-10T12:51:04.792Z</time>
      </trkpt>
      <trkpt lat="64.37528" lon="11.37259">
        <ele>46.717996</ele>
        <time>2020-08-10T12:51:05.749Z</time>
      </trkpt>
      <trkpt lat="64.37534" lon="11.37275">
        <ele>46.468827</ele>
        <time>2020-08-10T12:51:06.742Z</time>
      </trkpt>
      <trkpt lat="64.37546" lon="11.37305">
        <ele>45.989486</ele>
        <time>2020-08-10T12:51:08.748Z</time>
      </trkpt>
      <trkpt lat="64.37557" lon="11.37334">
        <ele>45.545907</ele>
        <time>2020-08-10T12:51:10.757Z</time>
      </trkpt>
      <trkpt lat="64.37567" lon="11.3736">
        <ele>45.141253</ele>
        <time>2020-08-10T12:51:12.781Z</time>
      </trkpt>
      <trkpt lat="64.37575" lon="11.37381">
        <ele>44.813662</ele>
        <time>2020-08-10T12:51:14.734Z</time>
      </trkpt>
      <trkpt lat="64.37581" lon="11.37397">
        <ele>44.739196</ele>
        <time>2020-08-10T12:51:16.741Z</time>
      </trkpt>
      <trkpt lat="64.3759" lon="11.37418">
        <ele>45.43792</ele>
        <time>2020-08-10T12:51:19.733Z</time>
      </trkpt>
      <trkpt lat="64.37596" lon="11.37435">
        <ele>45.980713</ele>
        <time>2020-08-10T12:51:22.735Z</time>
      </trkpt>
      <trkpt lat="64.37604" lon="11.37453">
        <ele>46.587986</ele>
        <time>2020-08-10T12:51:26.726Z</time>
      </trkpt>
      <trkpt lat="64.3761" lon="11.37472">
        <ele>47.167923</ele>
        <time>2020-08-10T12:51:30.729Z</time>
      </trkpt>
      <trkpt lat="64.37617" lon="11.37489">
        <ele>47.7271</ele>
        <time>2020-08-10T12:51:34.751Z</time>
      </trkpt>
      <trkpt lat="64.37624" lon="11.37508">
        <ele>48.335921</ele>
        <time>2020-08-10T12:51:38.747Z</time>
      </trkpt>
      <trkpt lat="64.37631" lon="11.37524">
        <ele>48.891585</ele>
        <time>2020-08-10T12:51:41.742Z</time>
      </trkpt>
      <trkpt lat="64.3764" lon="11.37538">
        <ele>49.477905</ele>
        <time>2020-08-10T12:51:44.794Z</time>
      </trkpt>
      <trkpt lat="64.37647" lon="11.37551">
        <ele>49.996078</ele>
        <time>2020-08-10T12:51:47.756Z</time>
      </trkpt>
      <trkpt lat="64.37657" lon="11.37566">
        <ele>50.644955</ele>
        <time>2020-08-10T12:51:51.737Z</time>
      </trkpt>
      <trkpt lat="64.37665" lon="11.37576">
        <ele>51.174492</ele>
        <time>2020-08-10T12:51:54.736Z</time>
      </trkpt>
      <trkpt lat="64.37673" lon="11.37586">
        <ele>51.680781</ele>
        <time>2020-08-10T12:51:57.759Z</time>
      </trkpt>
      <trkpt lat="64.37683" lon="11.37596">
        <ele>52.314657</ele>
        <time>2020-08-10T12:52:01.743Z</time>
      </trkpt>
      <trkpt lat="64.37693" lon="11.37607">
        <ele>52.936321</ele>
        <time>2020-08-10T12:52:05.753Z</time>
      </trkpt>
      <trkpt lat="64.37703" lon="11.37619">
        <ele>53.572304</ele>
        <time>2020-08-10T12:52:09.768Z</time>
      </trkpt>
      <trkpt lat="64.37712" lon="11.37631">
        <ele>54.120948</ele>
        <time>2020-08-10T12:52:13.778Z</time>
      </trkpt>
      <trkpt lat="64.37719" lon="11.37647">
        <ele>54.686815</ele>
        <time>2020-08-10T12:52:17.756Z</time>
      </trkpt>
      <trkpt lat="64.37727" lon="11.37661">
        <ele>54.369238</ele>
        <time>2020-08-10T12:52:20.756Z</time>
      </trkpt>
      <trkpt lat="64.37738" lon="11.37673">
        <ele>53.988909</ele>
        <time>2020-08-10T12:52:23.738Z</time>
      </trkpt>
      <trkpt lat="64.37747" lon="11.37681">
        <ele>53.659064</ele>
        <time>2020-08-10T12:52:26.756Z</time>
      </trkpt>
      <trkpt lat="64.37757" lon="11.37692">
        <ele>53.312441</ele>
        <time>2020-08-10T12:52:29.758Z</time>
      </trkpt>
      <trkpt lat="64.37767" lon="11.377">
        <ele>52.963332</ele>
        <time>2020-08-10T12:52:32.745Z</time>
      </trkpt>
      <trkpt lat="64.37777" lon="11.37708">
        <ele>52.612103</ele>
        <time>2020-08-10T12:52:35.750Z</time>
      </trkpt>
      <trkpt lat="64.37786" lon="11.37714">
        <ele>52.301195</ele>
        <time>2020-08-10T12:52:38.756Z</time>
      </trkpt>
      <trkpt lat="64.37796" lon="11.37719">
        <ele>51.978257</ele>
        <time>2020-08-10T12:52:41.753Z</time>
      </trkpt>
      <trkpt lat="64.37806" lon="11.37724">
        <ele>51.63565</ele>
        <time>2020-08-10T12:52:44.762Z</time>
      </trkpt>
      <trkpt lat="64.37817" lon="11.37729">
        <ele>51.281404</ele>
        <time>2020-08-10T12:52:47.774Z</time>
      </trkpt>
      <trkpt lat="64.37829" lon="11.37729">
        <ele>50.904065</ele>
        <time>2020-08-10T12:52:50.760Z</time>
      </trkpt>
      <trkpt lat="64.3784" lon="11.37728">
        <ele>50.52664</ele>
        <time>2020-08-10T12:52:53.751Z</time>
      </trkpt>
      <trkpt lat="64.37853" lon="11.37727">
        <ele>50.119282</ele>
        <time>2020-08-10T12:52:56.744Z</time>
      </trkpt>
      <trkpt lat="64.37862" lon="11.37724">
        <ele>49.830166</ele>
        <time>2020-08-10T12:52:58.796Z</time>
      </trkpt>
      <trkpt lat="64.37875" lon="11.37719">
        <ele>49.388908</ele>
        <time>2020-08-10T12:53:01.748Z</time>
      </trkpt>
      <trkpt lat="64.37884" lon="11.37716">
        <ele>49.096371</ele>
        <time>2020-08-10T12:53:03.745Z</time>
      </trkpt>
      <trkpt lat="64.37897" lon="11.37714">
        <ele>48.712542</ele>
        <time>2020-08-10T12:53:06.759Z</time>
      </trkpt>
      <trkpt lat="64.37908" lon="11.37719">
        <ele>48.410742</ele>
        <time>2020-08-10T12:53:10.754Z</time>
      </trkpt>
      <trkpt lat="64.37916" lon="11.37731">
        <ele>48.168759</ele>
        <time>2020-08-10T12:53:12.751Z</time>
      </trkpt>
      <trkpt lat="64.37924" lon="11.37741">
        <ele>47.932985</ele>
        <time>2020-08-10T12:53:14.741Z</time>
      </trkpt>
      <trkpt lat="64.37934" lon="11.37757">
        <ele>47.611921</ele>
        <time>2020-08-10T12:53:17.749Z</time>
      </trkpt>
      <trkpt lat="64.37943" lon="11.37772">
        <ele>47.321455</ele>
        <time>2020-08-10T12:53:20.808Z</time>
      </trkpt>
      <trkpt lat="64.37952" lon="11.37788">
        <ele>47.033864</ele>
        <time>2020-08-10T12:53:23.741Z</time>
      </trkpt>
      <trkpt lat="64.3796" lon="11.37805">
        <ele>46.751571</ele>
        <time>2020-08-10T12:53:26.748Z</time>
      </trkpt>
      <trkpt lat="64.37967" lon="11.37829">
        <ele>46.428725</ele>
        <time>2020-08-10T12:53:29.746Z</time>
      </trkpt>
      <trkpt lat="64.37972" lon="11.37848">
        <ele>46.185976</ele>
        <time>2020-08-10T12:53:31.764Z</time>
      </trkpt>
      <trkpt lat="64.37976" lon="11.37869">
        <ele>45.930208</ele>
        <time>2020-08-10T12:53:33.732Z</time>
      </trkpt>
      <trkpt lat="64.3798" lon="11.3789">
        <ele>45.677562</ele>
        <time>2020-08-10T12:53:35.744Z</time>
      </trkpt>
      <trkpt lat="64.37983" lon="11.3791">
        <ele>45.436859</ele>
        <time>2020-08-10T12:53:37.746Z</time>
      </trkpt>
      <trkpt lat="64.37984" lon="11.37932">
        <ele>45.193961</ele>
        <time>2020-08-10T12:53:39.743Z</time>
      </trkpt>
      <trkpt lat="64.37984" lon="11.37961">
        <ele>44.864757</ele>
        <time>2020-08-10T12:53:42.739Z</time>
      </trkpt>
      <trkpt lat="64.3798" lon="11.37989">
        <ele>44.533266</ele>
        <time>2020-08-10T12:53:45.748Z</time>
      </trkpt>
      <trkpt lat="64.37973" lon="11.38014">
        <ele>44.193736</ele>
        <time>2020-08-10T12:53:48.767Z</time>
      </trkpt>
      <trkpt lat="64.37965" lon="11.38031">
        <ele>44.317645</ele>
        <time>2020-08-10T12:53:50.743Z</time>
      </trkpt>
      <trkpt lat="64.37957" lon="11.38045">
        <ele>44.445204</ele>
        <time>2020-08-10T12:53:52.735Z</time>
      </trkpt>
      <trkpt lat="64.37949" lon="11.3806">
        <ele>44.571089</ele>
        <time>2020-08-10T12:53:54.738Z</time>
      </trkpt>
      <trkpt lat="64.37942" lon="11.38075">
        <ele>44.689692</ele>
        <time>2020-08-10T12:53:56.742Z</time>
      </trkpt>
      <trkpt lat="64.37934" lon="11.38097">
        <ele>44.848187</ele>
        <time>2020-08-10T12:53:59.730Z</time>
      </trkpt>
      <trkpt lat="64.37926" lon="11.38119">
        <ele>45.00057</ele>
        <time>2020-08-10T12:54:02.755Z</time>
      </trkpt>
      <trkpt lat="64.37921" lon="11.38145">
        <ele>45.156608</ele>
        <time>2020-08-10T12:54:05.753Z</time>
      </trkpt>
      <trkpt lat="64.37919" lon="11.38173">
        <ele>45.309453</ele>
        <time>2020-08-10T12:54:08.739Z</time>
      </trkpt>
      <trkpt lat="64.37922" lon="11.382">
        <ele>45.456846</ele>
        <time>2020-08-10T12:54:11.758Z</time>
      </trkpt>
      <trkpt lat="64.37927" lon="11.38227">
        <ele>45.620965</ele>
        <time>2020-08-10T12:54:14.758Z</time>
      </trkpt>
      <trkpt lat="64.37933" lon="11.38247">
        <ele>45.749492</ele>
        <time>2020-08-10T12:54:16.733Z</time>
      </trkpt>
      <trkpt lat="64.37939" lon="11.3827">
        <ele>45.892481</ele>
        <time>2020-08-10T12:54:18.743Z</time>
      </trkpt>
      <trkpt lat="64.37944" lon="11.38293">
        <ele>46.03438</ele>
        <time>2020-08-10T12:54:20.754Z</time>
      </trkpt>
      <trkpt lat="64.37945" lon="11.38318">
        <ele>46.174272</ele>
        <time>2020-08-10T12:54:22.740Z</time>
      </trkpt>
      <trkpt lat="64.37942" lon="11.38342">
        <ele>46.308083</ele>
        <time>2020-08-10T12:54:24.744Z</time>
      </trkpt>
      <trkpt lat="64.37938" lon="11.38362">
        <ele>46.425975</ele>
        <time>2020-08-10T12:54:26.751Z</time>
      </trkpt>
      <trkpt lat="64.37932" lon="11.38387">
        <ele>47.065729</ele>
        <time>2020-08-10T12:54:29.735Z</time>
      </trkpt>
      <trkpt lat="64.37929" lon="11.38409">
        <ele>47.614628</ele>
        <time>2020-08-10T12:54:32.769Z</time>
      </trkpt>
      <trkpt lat="64.37926" lon="11.38435">
        <ele>48.255672</ele>
        <time>2020-08-10T12:54:36.733Z</time>
      </trkpt>
      <trkpt lat="64.37922" lon="11.3846">
        <ele>48.887475</ele>
        <time>2020-08-10T12:54:40.748Z</time>
      </trkpt>
      <trkpt lat="64.3792" lon="11.3848">
        <ele>49.391998</ele>
        <time>2020-08-10T12:54:43.741Z</time>
      </trkpt>
      <trkpt lat="64.37917" lon="11.38501">
        <ele>49.907561</ele>
        <time>2020-08-10T12:54:46.737Z</time>
      </trkpt>
      <trkpt lat="64.37914" lon="11.38525">
        <ele>50.507551</ele>
        <time>2020-08-10T12:54:50.746Z</time>
      </trkpt>
      <trkpt lat="64.37913" lon="11.38551">
        <ele>51.126094</ele>
        <time>2020-08-10T12:54:54.741Z</time>
      </trkpt>
      <trkpt lat="64.3791" lon="11.38574">
        <ele>51.696108</ele>
        <time>2020-08-10T12:54:58.766Z</time>
      </trkpt>
      <trkpt lat="64.37908" lon="11.38597">
        <ele>52.244703</ele>
        <time>2020-08-10T12:55:02.741Z</time>
      </trkpt>
      <trkpt lat="64.37899" lon="11.38687">
        <ele>54.46454</ele>
        <time>2020-08-10T12:55:18.830Z</time>
      </trkpt>
      <trkpt lat="64.37896" lon="11.3872">
        <ele>55.250584</ele>
        <time>2020-08-10T12:55:19.776Z</time>
      </trkpt>
      <trkpt lat="64.37901" lon="11.38753">
        <ele>56.085632</ele>
        <time>2020-08-10T12:55:21.737Z</time>
      </trkpt>
      <trkpt lat="64.37908" lon="11.38768">
        <ele>56.06926</ele>
        <time>2020-08-10T12:55:23.764Z</time>
      </trkpt>
      <trkpt lat="64.3792" lon="11.38774">
        <ele>55.34425</ele>
        <time>2020-08-10T12:55:26.763Z</time>
      </trkpt>
      <trkpt lat="64.37929" lon="11.38772">
        <ele>54.811035</ele>
        <time>2020-08-10T12:55:28.739Z</time>
      </trkpt>
      <trkpt lat="64.37942" lon="11.3877">
        <ele>54.068411</ele>
        <time>2020-08-10T12:55:31.768Z</time>
      </trkpt>
      <trkpt lat="64.37951" lon="11.38766">
        <ele>53.547466</ele>
        <time>2020-08-10T12:55:33.742Z</time>
      </trkpt>
      <trkpt lat="64.3796" lon="11.38762">
        <ele>52.988471</ele>
        <time>2020-08-10T12:55:35.783Z</time>
      </trkpt>
      <trkpt lat="64.3797" lon="11.3876">
        <ele>52.418075</ele>
        <time>2020-08-10T12:55:37.752Z</time>
      </trkpt>
      <trkpt lat="64.3798" lon="11.38758">
        <ele>51.850445</ele>
        <time>2020-08-10T12:55:39.755Z</time>
      </trkpt>
      <trkpt lat="64.3799" lon="11.38757">
        <ele>51.265514</ele>
        <time>2020-08-10T12:55:41.742Z</time>
      </trkpt>
      <trkpt lat="64.38003" lon="11.38756">
        <ele>50.502358</ele>
        <time>2020-08-10T12:55:44.761Z</time>
      </trkpt>
      <trkpt lat="64.38013" lon="11.38758">
        <ele>49.94528</ele>
        <time>2020-08-10T12:55:46.763Z</time>
      </trkpt>
      <trkpt lat="64.38023" lon="11.38762">
        <ele>49.356008</ele>
        <time>2020-08-10T12:55:48.756Z</time>
      </trkpt>
      <trkpt lat="64.38032" lon="11.38769">
        <ele>48.801475</ele>
        <time>2020-08-10T12:55:50.760Z</time>
      </trkpt>
      <trkpt lat="64.38041" lon="11.38778">
        <ele>48.225464</ele>
        <time>2020-08-10T12:55:52.760Z</time>
      </trkpt>
      <trkpt lat="64.38049" lon="11.38794">
        <ele>47.64248</ele>
        <time>2020-08-10T12:55:54.725Z</time>
      </trkpt>
      <trkpt lat="64.38055" lon="11.38813">
        <ele>47.033577</ele>
        <time>2020-08-10T12:55:56.734Z</time>
      </trkpt>
      <trkpt lat="64.3806" lon="11.38836">
        <ele>46.400426</ele>
        <time>2020-08-10T12:55:58.730Z</time>
      </trkpt>
      <trkpt lat="64.38064" lon="11.38858">
        <ele>46.080785</ele>
        <time>2020-08-10T12:56:00.741Z</time>
      </trkpt>
      <trkpt lat="64.38068" lon="11.38878">
        <ele>46.508627</ele>
        <time>2020-08-10T12:56:02.759Z</time>
      </trkpt>
      <trkpt lat="64.38073" lon="11.38905">
        <ele>47.076141</ele>
        <time>2020-08-10T12:56:05.752Z</time>
      </trkpt>
      <trkpt lat="64.38076" lon="11.38927">
        <ele>47.517865</ele>
        <time>2020-08-10T12:56:08.764Z</time>
      </trkpt>
      <trkpt lat="64.38079" lon="11.38952">
        <ele>48.006618</ele>
        <time>2020-08-10T12:56:13.740Z</time>
      </trkpt>
      <trkpt lat="64.38078" lon="11.38978">
        <ele>48.519832</ele>
        <time>2020-08-10T12:56:18.752Z</time>
      </trkpt>
      <trkpt lat="64.38075" lon="11.38999">
        <ele>48.945823</ele>
        <time>2020-08-10T12:56:22.754Z</time>
      </trkpt>
      <trkpt lat="64.38071" lon="11.3902">
        <ele>49.377204</ele>
        <time>2020-08-10T12:56:26.752Z</time>
      </trkpt>
      <trkpt lat="64.38068" lon="11.39042">
        <ele>49.839925</ele>
        <time>2020-08-10T12:56:30.730Z</time>
      </trkpt>
      <trkpt lat="64.38065" lon="11.39064">
        <ele>50.270983</ele>
        <time>2020-08-10T12:56:34.746Z</time>
      </trkpt>
      <trkpt lat="64.3806" lon="11.39081">
        <ele>50.675875</ele>
        <time>2020-08-10T12:56:37.756Z</time>
      </trkpt>
      <trkpt lat="64.38057" lon="11.39101">
        <ele>51.076353</ele>
        <time>2020-08-10T12:56:41.747Z</time>
      </trkpt>
      <trkpt lat="64.38053" lon="11.39121">
        <ele>51.503108</ele>
        <time>2020-08-10T12:56:45.738Z</time>
      </trkpt>
      <trkpt lat="64.38052" lon="11.39144">
        <ele>51.939262</ele>
        <time>2020-08-10T12:56:49.737Z</time>
      </trkpt>
      <trkpt lat="64.38051" lon="11.39167">
        <ele>52.394092</ele>
        <time>2020-08-10T12:56:53.729Z</time>
      </trkpt>
      <trkpt lat="64.38051" lon="11.39188">
        <ele>52.794754</ele>
        <time>2020-08-10T12:56:57.757Z</time>
      </trkpt>
      <trkpt lat="64.38053" lon="11.39209">
        <ele>53.203298</ele>
        <time>2020-08-10T12:57:01.740Z</time>
      </trkpt>
      <trkpt lat="64.38054" lon="11.39231">
        <ele>53.643051</ele>
        <time>2020-08-10T12:57:05.749Z</time>
      </trkpt>
      <trkpt lat="64.38059" lon="11.3925">
        <ele>53.945598</ele>
        <time>2020-08-10T12:57:09.739Z</time>
      </trkpt>
      <trkpt lat="64.38066" lon="11.39268">
        <ele>53.833706</ele>
        <time>2020-08-10T12:57:13.742Z</time>
      </trkpt>
      <trkpt lat="64.38075" lon="11.39285">
        <ele>53.71438</ele>
        <time>2020-08-10T12:57:17.756Z</time>
      </trkpt>
      <trkpt lat="64.38085" lon="11.39297">
        <ele>53.601212</ele>
        <time>2020-08-10T12:57:21.728Z</time>
      </trkpt>
      <trkpt lat="64.38095" lon="11.39305">
        <ele>53.488529</ele>
        <time>2020-08-10T12:57:25.759Z</time>
      </trkpt>
      <trkpt lat="64.38106" lon="11.39314">
        <ele>53.365111</ele>
        <time>2020-08-10T12:57:29.748Z</time>
      </trkpt>
      <trkpt lat="64.38116" lon="11.39323">
        <ele>53.26125</ele>
        <time>2020-08-10T12:57:33.741Z</time>
      </trkpt>
      <trkpt lat="64.38134" lon="11.39352">
        <ele>53.031762</ele>
        <time>2020-08-10T13:08:04.764Z</time>
      </trkpt>
      <trkpt lat="64.38145" lon="11.39365">
        <ele>52.906073</ele>
        <time>2020-08-10T13:08:07.735Z</time>
      </trkpt>
      <trkpt lat="64.38156" lon="11.39375">
        <ele>52.781683</ele>
        <time>2020-08-10T13:08:10.727Z</time>
      </trkpt>
      <trkpt lat="64.38167" lon="11.39386">
        <ele>52.663426</ele>
        <time>2020-08-10T13:08:13.741Z</time>
      </trkpt>
      <trkpt lat="64.38176" lon="11.39401">
        <ele>52.546726</ele>
        <time>2020-08-10T13:08:16.740Z</time>
      </trkpt>
      <trkpt lat="64.38185" lon="11.39418">
        <ele>52.426963</ele>
        <time>2020-08-10T13:08:19.776Z</time>
      </trkpt>
      <trkpt lat="64.38193" lon="11.39433">
        <ele>52.316734</ele>
        <time>2020-08-10T13:08:22.747Z</time>
      </trkpt>
      <trkpt lat="64.38202" lon="11.39449">
        <ele>52.205175</ele>
        <time>2020-08-10T13:08:25.780Z</time>
      </trkpt>
      <trkpt lat="64.38211" lon="11.39463">
        <ele>52.064928</ele>
        <time>2020-08-10T13:08:28.750Z</time>
      </trkpt>
      <trkpt lat="64.38218" lon="11.39479">
        <ele>51.772146</ele>
        <time>2020-08-10T13:08:31.760Z</time>
      </trkpt>
      <trkpt lat="64.38226" lon="11.39497">
        <ele>51.429189</ele>
        <time>2020-08-10T13:08:34.739Z</time>
      </trkpt>
      <trkpt lat="64.38235" lon="11.39518">
        <ele>51.053765</ele>
        <time>2020-08-10T13:08:37.753Z</time>
      </trkpt>
      <trkpt lat="64.38244" lon="11.39542">
        <ele>50.654284</ele>
        <time>2020-08-10T13:08:40.755Z</time>
      </trkpt>
      <trkpt lat="64.38251" lon="11.39555">
        <ele>50.381758</ele>
        <time>2020-08-10T13:08:42.736Z</time>
      </trkpt>
      <trkpt lat="64.38258" lon="11.39567">
        <ele>50.10653</ele>
        <time>2020-08-10T13:08:44.761Z</time>
      </trkpt>
      <trkpt lat="64.38265" lon="11.39581">
        <ele>49.833173</ele>
        <time>2020-08-10T13:08:46.761Z</time>
      </trkpt>
      <trkpt lat="64.38272" lon="11.39599">
        <ele>49.527891</ele>
        <time>2020-08-10T13:08:48.755Z</time>
      </trkpt>
      <trkpt lat="64.38281" lon="11.39619">
        <ele>49.16635</ele>
        <time>2020-08-10T13:08:50.757Z</time>
      </trkpt>
      <trkpt lat="64.38291" lon="11.39642">
        <ele>48.738165</ele>
        <time>2020-08-10T13:08:52.765Z</time>
      </trkpt>
      <trkpt lat="64.38303" lon="11.39669">
        <ele>48.248622</ele>
        <time>2020-08-10T13:08:54.765Z</time>
      </trkpt>
      <trkpt lat="64.38314" lon="11.39695">
        <ele>47.77653</ele>
        <time>2020-08-10T13:08:56.747Z</time>
      </trkpt>
      <trkpt lat="64.38324" lon="11.39716">
        <ele>47.371171</ele>
        <time>2020-08-10T13:08:58.747Z</time>
      </trkpt>
      <trkpt lat="64.38331" lon="11.39735">
        <ele>47.049209</ele>
        <time>2020-08-10T13:09:00.742Z</time>
      </trkpt>
      <trkpt lat="64.3834" lon="11.39756">
        <ele>46.727973</ele>
        <time>2020-08-10T13:09:03.758Z</time>
      </trkpt>
      <trkpt lat="64.38348" lon="11.39773">
        <ele>46.597949</ele>
        <time>2020-08-10T13:09:06.739Z</time>
      </trkpt>
      <trkpt lat="64.38355" lon="11.3979">
        <ele>46.470185</ele>
        <time>2020-08-10T13:09:09.740Z</time>
      </trkpt>
      <trkpt lat="64.38363" lon="11.39807">
        <ele>46.334918</ele>
        <time>2020-08-10T13:09:12.741Z</time>
      </trkpt>
      <trkpt lat="64.3837" lon="11.39826">
        <ele>46.196841</ele>
        <time>2020-08-10T13:09:15.739Z</time>
      </trkpt>
      <trkpt lat="64.38377" lon="11.39846">
        <ele>46.059148</ele>
        <time>2020-08-10T13:09:18.756Z</time>
      </trkpt>
      <trkpt lat="64.38385" lon="11.39864">
        <ele>45.92214</ele>
        <time>2020-08-10T13:09:21.773Z</time>
      </trkpt>
      <trkpt lat="64.38394" lon="11.39877">
        <ele>45.792282</ele>
        <time>2020-08-10T13:09:24.757Z</time>
      </trkpt>
      <trkpt lat="64.38404" lon="11.39886">
        <ele>45.658448</ele>
        <time>2020-08-10T13:09:27.745Z</time>
      </trkpt>
      <trkpt lat="64.38414" lon="11.39894">
        <ele>45.518973</ele>
        <time>2020-08-10T13:09:30.780Z</time>
      </trkpt>
      <trkpt lat="64.38426" lon="11.39898">
        <ele>45.371862</ele>
        <time>2020-08-10T13:09:33.763Z</time>
      </trkpt>
      <trkpt lat="64.38439" lon="11.39899">
        <ele>45.217822</ele>
        <time>2020-08-10T13:09:36.763Z</time>
      </trkpt>
      <trkpt lat="64.38451" lon="11.399">
        <ele>45.057504</ele>
        <time>2020-08-10T13:09:39.742Z</time>
      </trkpt>
      <trkpt lat="64.38465" lon="11.39904">
        <ele>44.89122</ele>
        <time>2020-08-10T13:09:42.798Z</time>
      </trkpt>
      <trkpt lat="64.38474" lon="11.39905">
        <ele>44.77673</ele>
        <time>2020-08-10T13:09:44.737Z</time>
      </trkpt>
      <trkpt lat="64.38483" lon="11.39906">
        <ele>44.661065</ele>
        <time>2020-08-10T13:09:46.760Z</time>
      </trkpt>
      <trkpt lat="64.38493" lon="11.39907">
        <ele>44.545455</ele>
        <time>2020-08-10T13:09:48.767Z</time>
      </trkpt>
      <trkpt lat="64.38502" lon="11.39907">
        <ele>44.434679</ele>
        <time>2020-08-10T13:09:50.727Z</time>
      </trkpt>
      <trkpt lat="64.38512" lon="11.39905">
        <ele>44.323276</ele>
        <time>2020-08-10T13:09:52.747Z</time>
      </trkpt>
      <trkpt lat="64.38522" lon="11.39902">
        <ele>44.206882</ele>
        <time>2020-08-10T13:09:54.729Z</time>
      </trkpt>
      <trkpt lat="64.38532" lon="11.39903">
        <ele>44.088797</ele>
        <time>2020-08-10T13:09:56.774Z</time>
      </trkpt>
      <trkpt lat="64.38541" lon="11.39907">
        <ele>43.97711</ele>
        <time>2020-08-10T13:09:58.744Z</time>
      </trkpt>
      <trkpt lat="64.38551" lon="11.3991">
        <ele>43.868568</ele>
        <time>2020-08-10T13:10:00.749Z</time>
      </trkpt>
      <trkpt lat="64.3856" lon="11.39912">
        <ele>43.757309</ele>
        <time>2020-08-10T13:10:02.730Z</time>
      </trkpt>
      <trkpt lat="64.38573" lon="11.39914">
        <ele>43.606504</ele>
        <time>2020-08-10T13:10:05.756Z</time>
      </trkpt>
      <trkpt lat="64.38586" lon="11.39916">
        <ele>43.460423</ele>
        <time>2020-08-10T13:10:08.773Z</time>
      </trkpt>
      <trkpt lat="64.38598" lon="11.39918">
        <ele>43.324828</ele>
        <time>2020-08-10T13:10:11.735Z</time>
      </trkpt>
      <trkpt lat="64.38609" lon="11.39919">
        <ele>43.192727</ele>
        <time>2020-08-10T13:10:14.787Z</time>
      </trkpt>
      <trkpt lat="64.3862" lon="11.39925">
        <ele>43.065028</ele>
        <time>2020-08-10T13:10:17.754Z</time>
      </trkpt>
      <trkpt lat="64.38632" lon="11.39928">
        <ele>42.920821</ele>
        <time>2020-08-10T13:10:20.767Z</time>
      </trkpt>
      <trkpt lat="64.38641" lon="11.3993">
        <ele>42.817122</ele>
        <time>2020-08-10T13:10:22.733Z</time>
      </trkpt>
      <trkpt lat="64.38654" lon="11.39936">
        <ele>42.663891</ele>
        <time>2020-08-10T13:10:25.755Z</time>
      </trkpt>
      <trkpt lat="64.38666" lon="11.3994">
        <ele>42.519078</ele>
        <time>2020-08-10T13:10:28.741Z</time>
      </trkpt>
      <trkpt lat="64.38678" lon="11.39944">
        <ele>42.370348</ele>
        <time>2020-08-10T13:10:31.737Z</time>
      </trkpt>
      <trkpt lat="64.3869" lon="11.39948">
        <ele>42.215536</ele>
        <time>2020-08-10T13:10:34.741Z</time>
      </trkpt>
      <trkpt lat="64.38702" lon="11.39952">
        <ele>42.056913</ele>
        <time>2020-08-10T13:10:37.751Z</time>
      </trkpt>
      <trkpt lat="64.38714" lon="11.39953">
        <ele>41.899631</ele>
        <time>2020-08-10T13:10:40.751Z</time>
      </trkpt>
      <trkpt lat="64.38727" lon="11.39953">
        <ele>41.730683</ele>
        <time>2020-08-10T13:10:43.762Z</time>
      </trkpt>
      <trkpt lat="64.38736" lon="11.39953">
        <ele>41.611439</ele>
        <time>2020-08-10T13:10:45.764Z</time>
      </trkpt>
      <trkpt lat="64.38749" lon="11.39956">
        <ele>41.438032</ele>
        <time>2020-08-10T13:10:48.737Z</time>
      </trkpt>
      <trkpt lat="64.38758" lon="11.39959">
        <ele>41.319176</ele>
        <time>2020-08-10T13:10:50.760Z</time>
      </trkpt>
      <trkpt lat="64.38767" lon="11.39961">
        <ele>41.202013</ele>
        <time>2020-08-10T13:10:52.754Z</time>
      </trkpt>
      <trkpt lat="64.38776" lon="11.39962">
        <ele>41.082532</ele>
        <time>2020-08-10T13:10:54.800Z</time>
      </trkpt>
      <trkpt lat="64.38785" lon="11.39964">
        <ele>40.962919</ele>
        <time>2020-08-10T13:10:56.757Z</time>
      </trkpt>
      <trkpt lat="64.38794" lon="11.39967">
        <ele>40.84521</ele>
        <time>2020-08-10T13:10:58.775Z</time>
      </trkpt>
      <trkpt lat="64.38804" lon="11.39969">
        <ele>40.721583</ele>
        <time>2020-08-10T13:11:00.740Z</time>
      </trkpt>
      <trkpt lat="64.38817" lon="11.39973">
        <ele>40.548676</ele>
        <time>2020-08-10T13:11:03.763Z</time>
      </trkpt>
      <trkpt lat="64.38829" lon="11.39975">
        <ele>40.39072</ele>
        <time>2020-08-10T13:11:06.735Z</time>
      </trkpt>
      <trkpt lat="64.38841" lon="11.39979">
        <ele>40.233235</ele>
        <time>2020-08-10T13:11:09.772Z</time>
      </trkpt>
      <trkpt lat="64.38854" lon="11.39983">
        <ele>40.244582</ele>
        <time>2020-08-10T13:11:12.743Z</time>
      </trkpt>
      <trkpt lat="64.38866" lon="11.39987">
        <ele>40.952068</ele>
        <time>2020-08-10T13:11:15.747Z</time>
      </trkpt>
      <trkpt lat="64.38879" lon="11.3999">
        <ele>41.666952</ele>
        <time>2020-08-10T13:11:18.737Z</time>
      </trkpt>
      <trkpt lat="64.38892" lon="11.39993">
        <ele>42.392908</ele>
        <time>2020-08-10T13:11:21.762Z</time>
      </trkpt>
      <trkpt lat="64.38905" lon="11.39995">
        <ele>43.113328</ele>
        <time>2020-08-10T13:11:24.745Z</time>
      </trkpt>
      <trkpt lat="64.38917" lon="11.39997">
        <ele>43.809702</ele>
        <time>2020-08-10T13:11:27.738Z</time>
      </trkpt>
      <trkpt lat="64.38929" lon="11.39998">
        <ele>44.438174</ele>
        <time>2020-08-10T13:11:30.766Z</time>
      </trkpt>
      <trkpt lat="64.38939" lon="11.39999">
        <ele>44.989161</ele>
        <time>2020-08-10T13:11:33.754Z</time>
      </trkpt>
      <trkpt lat="64.38948" lon="11.4">
        <ele>45.534827</ele>
        <time>2020-08-10T13:11:36.773Z</time>
      </trkpt>
      <trkpt lat="64.3896" lon="11.40002">
        <ele>46.176638</ele>
        <time>2020-08-10T13:11:40.753Z</time>
      </trkpt>
      <trkpt lat="64.3897" lon="11.40005">
        <ele>46.72598</ele>
        <time>2020-08-10T13:11:44.738Z</time>
      </trkpt>
      <trkpt lat="64.3898" lon="11.40009">
        <ele>47.294942</ele>
        <time>2020-08-10T13:11:48.746Z</time>
      </trkpt>
      <trkpt lat="64.3899" lon="11.40013">
        <ele>47.851795</ele>
        <time>2020-08-10T13:11:52.757Z</time>
      </trkpt>
      <trkpt lat="64.39001" lon="11.40015">
        <ele>48.472136</ele>
        <time>2020-08-10T13:11:56.741Z</time>
      </trkpt>
      <trkpt lat="64.3901" lon="11.40016">
        <ele>48.978579</ele>
        <time>2020-08-10T13:11:59.755Z</time>
      </trkpt>
      <trkpt lat="64.39021" lon="11.40019">
        <ele>49.582843</ele>
        <time>2020-08-10T13:12:03.733Z</time>
      </trkpt>
      <trkpt lat="64.39032" lon="11.40023">
        <ele>50.176217</ele>
        <time>2020-08-10T13:12:07.739Z</time>
      </trkpt>
      <trkpt lat="64.39043" lon="11.40025">
        <ele>50.664759</ele>
        <time>2020-08-10T13:12:11.776Z</time>
      </trkpt>
      <trkpt lat="64.39054" lon="11.40027">
        <ele>51.135841</ele>
        <time>2020-08-10T13:12:15.729Z</time>
      </trkpt>
      <trkpt lat="64.39065" lon="11.40028">
        <ele>51.598221</ele>
        <time>2020-08-10T13:12:19.757Z</time>
      </trkpt>
      <trkpt lat="64.39075" lon="11.40032">
        <ele>52.019089</ele>
        <time>2020-08-10T13:12:23.737Z</time>
      </trkpt>
      <trkpt lat="64.39085" lon="11.40035">
        <ele>52.43748</ele>
        <time>2020-08-10T13:12:27.734Z</time>
      </trkpt>
      <trkpt lat="64.39095" lon="11.40038">
        <ele>52.875811</ele>
        <time>2020-08-10T13:12:31.759Z</time>
      </trkpt>
      <trkpt lat="64.39105" lon="11.40041">
        <ele>53.307029</ele>
        <time>2020-08-10T13:12:35.766Z</time>
      </trkpt>
      <trkpt lat="64.39117" lon="11.40042">
        <ele>53.802387</ele>
        <time>2020-08-10T13:12:39.761Z</time>
      </trkpt>
      <trkpt lat="64.39127" lon="11.40043">
        <ele>54.239188</ele>
        <time>2020-08-10T13:12:43.739Z</time>
      </trkpt>
      <trkpt lat="64.39137" lon="11.40051">
        <ele>54.65543</ele>
        <time>2020-08-10T13:12:47.734Z</time>
      </trkpt>
      <trkpt lat="64.39144" lon="11.40069">
        <ele>55.121703</ele>
        <time>2020-08-10T13:12:51.734Z</time>
      </trkpt>
      <trkpt lat="64.39154" lon="11.40073">
        <ele>55.545297</ele>
        <time>2020-08-10T13:12:55.745Z</time>
      </trkpt>
      <trkpt lat="64.39163" lon="11.40075">
        <ele>55.936227</ele>
        <time>2020-08-10T13:12:59.738Z</time>
      </trkpt>
      <trkpt lat="64.39173" lon="11.40074">
        <ele>56.34697</ele>
        <time>2020-08-10T13:13:03.743Z</time>
      </trkpt>
      <trkpt lat="64.39182" lon="11.40077">
        <ele>56.73182</ele>
        <time>2020-08-10T13:13:07.725Z</time>
      </trkpt>
      <trkpt lat="64.39192" lon="11.40079">
        <ele>57.134498</ele>
        <time>2020-08-10T13:13:11.761Z</time>
      </trkpt>
      <trkpt lat="64.39202" lon="11.40083">
        <ele>57.564333</ele>
        <time>2020-08-10T13:13:15.779Z</time>
      </trkpt>
      <trkpt lat="64.3921" lon="11.40087">
        <ele>57.737178</ele>
        <time>2020-08-10T13:13:19.791Z</time>
      </trkpt>
      <trkpt lat="64.39219" lon="11.40092">
        <ele>57.782058</ele>
        <time>2020-08-10T13:13:23.762Z</time>
      </trkpt>
      <trkpt lat="64.39228" lon="11.40102">
        <ele>57.829812</ele>
        <time>2020-08-10T13:13:27.738Z</time>
      </trkpt>
      <trkpt lat="64.39238" lon="11.40111">
        <ele>57.878506</ele>
        <time>2020-08-10T13:13:31.757Z</time>
      </trkpt>
      <trkpt lat="64.39248" lon="11.40119">
        <ele>57.931626</ele>
        <time>2020-08-10T13:13:35.747Z</time>
      </trkpt>
      <trkpt lat="64.39259" lon="11.40129">
        <ele>57.987871</ele>
        <time>2020-08-10T13:13:39.734Z</time>
      </trkpt>
      <trkpt lat="64.39268" lon="11.4014">
        <ele>58.038108</ele>
        <time>2020-08-10T13:13:42.735Z</time>
      </trkpt>
      <trkpt lat="64.39279" lon="11.40148">
        <ele>58.090503</ele>
        <time>2020-08-10T13:13:45.726Z</time>
      </trkpt>
      <trkpt lat="64.39291" lon="11.40159">
        <ele>58.154752</ele>
        <time>2020-08-10T13:13:48.736Z</time>
      </trkpt>
      <trkpt lat="64.39301" lon="11.40166">
        <ele>58.202509</ele>
        <time>2020-08-10T13:13:50.746Z</time>
      </trkpt>
      <trkpt lat="64.3931" lon="11.40173">
        <ele>58.251258</ele>
        <time>2020-08-10T13:13:52.738Z</time>
      </trkpt>
      <trkpt lat="64.39321" lon="11.4018">
        <ele>58.303653</ele>
        <time>2020-08-10T13:13:54.731Z</time>
      </trkpt>
      <trkpt lat="64.39332" lon="11.40188">
        <ele>58.357887</ele>
        <time>2020-08-10T13:13:56.733Z</time>
      </trkpt>
      <trkpt lat="64.39343" lon="11.40194">
        <ele>58.413942</ele>
        <time>2020-08-10T13:13:58.731Z</time>
      </trkpt>
      <trkpt lat="64.39355" lon="11.40202">
        <ele>58.471929</ele>
        <time>2020-08-10T13:14:00.741Z</time>
      </trkpt>
      <trkpt lat="64.39366" lon="11.40209">
        <ele>58.529384</ele>
        <time>2020-08-10T13:14:02.738Z</time>
      </trkpt>
      <trkpt lat="64.39378" lon="11.40213">
        <ele>58.505105</ele>
        <time>2020-08-10T13:14:04.733Z</time>
      </trkpt>
      <trkpt lat="64.3939" lon="11.40218">
        <ele>58.198013</ele>
        <time>2020-08-10T13:14:06.743Z</time>
      </trkpt>
      <trkpt lat="64.39401" lon="11.40221">
        <ele>57.881816</ele>
        <time>2020-08-10T13:14:08.764Z</time>
      </trkpt>
      <trkpt lat="64.39413" lon="11.40225">
        <ele>57.567351</ele>
        <time>2020-08-10T13:14:10.740Z</time>
      </trkpt>
      <trkpt lat="64.39424" lon="11.4023">
        <ele>57.266947</ele>
        <time>2020-08-10T13:14:12.743Z</time>
      </trkpt>
      <trkpt lat="64.39434" lon="11.40233">
        <ele>56.989294</ele>
        <time>2020-08-10T13:14:14.742Z</time>
      </trkpt>
      <trkpt lat="64.39445" lon="11.40238">
        <ele>56.700768</ele>
        <time>2020-08-10T13:14:16.737Z</time>
      </trkpt>
      <trkpt lat="64.39456" lon="11.40241">
        <ele>56.415588</ele>
        <time>2020-08-10T13:14:18.735Z</time>
      </trkpt>
      <trkpt lat="64.39467" lon="11.40245">
        <ele>56.124621</ele>
        <time>2020-08-10T13:14:20.778Z</time>
      </trkpt>
      <trkpt lat="64.39477" lon="11.40251">
        <ele>55.849796</ele>
        <time>2020-08-10T13:14:22.736Z</time>
      </trkpt>
      <trkpt lat="64.39486" lon="11.40257">
        <ele>55.590082</ele>
        <time>2020-08-10T13:14:24.734Z</time>
      </trkpt>
      <trkpt lat="64.39495" lon="11.40263">
        <ele>55.338673</ele>
        <time>2020-08-10T13:14:26.765Z</time>
      </trkpt>
      <trkpt lat="64.39504" lon="11.4027">
        <ele>55.077787</ele>
        <time>2020-08-10T13:14:28.753Z</time>
      </trkpt>
      <trkpt lat="64.39513" lon="11.40278">
        <ele>54.824609</ele>
        <time>2020-08-10T13:14:30.755Z</time>
      </trkpt>
      <trkpt lat="64.39522" lon="11.40286">
        <ele>54.581354</ele>
        <time>2020-08-10T13:14:32.750Z</time>
      </trkpt>
      <trkpt lat="64.3953" lon="11.40295">
        <ele>54.335098</ele>
        <time>2020-08-10T13:14:34.741Z</time>
      </trkpt>
      <trkpt lat="64.39539" lon="11.40306">
        <ele>54.072003</ele>
        <time>2020-08-10T13:14:36.724Z</time>
      </trkpt>
      <trkpt lat="64.39548" lon="11.40317">
        <ele>53.807277</ele>
        <time>2020-08-10T13:14:38.745Z</time>
      </trkpt>
      <trkpt lat="64.39557" lon="11.40327">
        <ele>53.809426</ele>
        <time>2020-08-10T13:14:40.735Z</time>
      </trkpt>
      <trkpt lat="64.39566" lon="11.40336">
        <ele>53.829115</ele>
        <time>2020-08-10T13:14:42.742Z</time>
      </trkpt>
      <trkpt lat="64.39575" lon="11.40345">
        <ele>53.848597</ele>
        <time>2020-08-10T13:14:44.755Z</time>
      </trkpt>
      <trkpt lat="64.39584" lon="11.40353">
        <ele>53.868038</ele>
        <time>2020-08-10T13:14:46.724Z</time>
      </trkpt>
      <trkpt lat="64.39593" lon="11.40363">
        <ele>53.887545</ele>
        <time>2020-08-10T13:14:48.738Z</time>
      </trkpt>
      <trkpt lat="64.39601" lon="11.40373">
        <ele>53.906758</ele>
        <time>2020-08-10T13:14:50.744Z</time>
      </trkpt>
      <trkpt lat="64.3961" lon="11.40384">
        <ele>53.926579</ele>
        <time>2020-08-10T13:14:52.750Z</time>
      </trkpt>
      <trkpt lat="64.39619" lon="11.40394">
        <ele>53.945593</ele>
        <time>2020-08-10T13:14:54.739Z</time>
      </trkpt>
      <trkpt lat="64.39627" lon="11.40404">
        <ele>53.96398</ele>
        <time>2020-08-10T13:14:56.722Z</time>
      </trkpt>
      <trkpt lat="64.39635" lon="11.40414">
        <ele>53.982451</ele>
        <time>2020-08-10T13:14:58.735Z</time>
      </trkpt>
      <trkpt lat="64.39643" lon="11.40424">
        <ele>54.000991</ele>
        <time>2020-08-10T13:15:00.757Z</time>
      </trkpt>
      <trkpt lat="64.39651" lon="11.40433">
        <ele>54.019379</ele>
        <time>2020-08-10T13:15:02.753Z</time>
      </trkpt>
      <trkpt lat="64.3966" lon="11.40443">
        <ele>54.037588</ele>
        <time>2020-08-10T13:15:04.733Z</time>
      </trkpt>
      <trkpt lat="64.39668" lon="11.40452">
        <ele>54.056345</ele>
        <time>2020-08-10T13:15:06.751Z</time>
      </trkpt>
      <trkpt lat="64.39676" lon="11.40462">
        <ele>54.074669</ele>
        <time>2020-08-10T13:15:08.738Z</time>
      </trkpt>
      <trkpt lat="64.39688" lon="11.40476">
        <ele>54.101288</ele>
        <time>2020-08-10T13:15:11.746Z</time>
      </trkpt>
      <trkpt lat="64.397" lon="11.40491">
        <ele>54.127526</ele>
        <time>2020-08-10T13:15:14.742Z</time>
      </trkpt>
      <trkpt lat="64.3971" lon="11.40503">
        <ele>54.206579</ele>
        <time>2020-08-10T13:15:17.735Z</time>
      </trkpt>
      <trkpt lat="64.39721" lon="11.40515">
        <ele>54.784734</ele>
        <time>2020-08-10T13:15:20.753Z</time>
      </trkpt>
      <trkpt lat="64.3973" lon="11.40528">
        <ele>55.321269</ele>
        <time>2020-08-10T13:15:23.757Z</time>
      </trkpt>
      <trkpt lat="64.39738" lon="11.4054">
        <ele>55.7727</ele>
        <time>2020-08-10T13:15:26.737Z</time>
      </trkpt>
      <trkpt lat="64.39747" lon="11.40554">
        <ele>56.332354</ele>
        <time>2020-08-10T13:15:30.738Z</time>
      </trkpt>
      <trkpt lat="64.39756" lon="11.40569">
        <ele>56.857449</ele>
        <time>2020-08-10T13:15:34.754Z</time>
      </trkpt>
      <trkpt lat="64.39764" lon="11.40582">
        <ele>57.371529</ele>
        <time>2020-08-10T13:15:38.751Z</time>
      </trkpt>
      <trkpt lat="64.39773" lon="11.40594">
        <ele>57.867278</ele>
        <time>2020-08-10T13:15:42.738Z</time>
      </trkpt>
      <trkpt lat="64.39782" lon="11.40606">
        <ele>58.382391</ele>
        <time>2020-08-10T13:15:46.753Z</time>
      </trkpt>
      <trkpt lat="64.3979" lon="11.40619">
        <ele>58.875246</ele>
        <time>2020-08-10T13:15:50.737Z</time>
      </trkpt>
      <trkpt lat="64.39798" lon="11.40633">
        <ele>59.379916</ele>
        <time>2020-08-10T13:15:54.725Z</time>
      </trkpt>
      <trkpt lat="64.39807" lon="11.40645">
        <ele>59.901387</ele>
        <time>2020-08-10T13:15:58.737Z</time>
      </trkpt>
      <trkpt lat="64.39817" lon="11.40656">
        <ele>60.432005</ele>
        <time>2020-08-10T13:16:02.733Z</time>
      </trkpt>
      <trkpt lat="64.39826" lon="11.40665">
        <ele>60.910811</ele>
        <time>2020-08-10T13:16:06.747Z</time>
      </trkpt>
      <trkpt lat="64.39834" lon="11.40679">
        <ele>61.43551</ele>
        <time>2020-08-10T13:16:10.733Z</time>
      </trkpt>
      <trkpt lat="64.39844" lon="11.40692">
        <ele>61.978724</ele>
        <time>2020-08-10T13:16:14.792Z</time>
      </trkpt>
      <trkpt lat="64.39853" lon="11.40706">
        <ele>62.505204</ele>
        <time>2020-08-10T13:16:18.754Z</time>
      </trkpt>
      <trkpt lat="64.39861" lon="11.4072">
        <ele>63.015737</ele>
        <time>2020-08-10T13:16:22.759Z</time>
      </trkpt>
      <trkpt lat="64.3987" lon="11.40735">
        <ele>63.51564</ele>
        <time>2020-08-10T13:16:26.754Z</time>
      </trkpt>
      <trkpt lat="64.39878" lon="11.40748">
        <ele>63.99465</ele>
        <time>2020-08-10T13:16:30.734Z</time>
      </trkpt>
      <trkpt lat="64.39886" lon="11.40761">
        <ele>64.437381</ele>
        <time>2020-08-10T13:16:34.743Z</time>
      </trkpt>
      <trkpt lat="64.39894" lon="11.40773">
        <ele>64.909302</ele>
        <time>2020-08-10T13:16:38.743Z</time>
      </trkpt>
      <trkpt lat="64.39902" lon="11.40785">
        <ele>65.359417</ele>
        <time>2020-08-10T13:16:42.724Z</time>
      </trkpt>
      <trkpt lat="64.39911" lon="11.40797">
        <ele>65.803909</ele>
        <time>2020-08-10T13:16:46.814Z</time>
      </trkpt>
      <trkpt lat="64.39918" lon="11.4081">
        <ele>66.25135</ele>
        <time>2020-08-10T13:16:50.734Z</time>
      </trkpt>
      <trkpt lat="64.39926" lon="11.40826">
        <ele>66.743804</ele>
        <time>2020-08-10T13:16:55.732Z</time>
      </trkpt>
      <trkpt lat="64.39933" lon="11.4084">
        <ele>67.165924</ele>
        <time>2020-08-10T13:16:59.767Z</time>
      </trkpt>
      <trkpt lat="64.39941" lon="11.40858">
        <ele>67.686157</ele>
        <time>2020-08-10T13:17:03.774Z</time>
      </trkpt>
      <trkpt lat="64.39949" lon="11.40875">
        <ele>68.175098</ele>
        <time>2020-08-10T13:17:07.735Z</time>
      </trkpt>
      <trkpt lat="64.39956" lon="11.40893">
        <ele>68.682267</ele>
        <time>2020-08-10T13:17:11.753Z</time>
      </trkpt>
      <trkpt lat="64.39963" lon="11.40912">
        <ele>69.177214</ele>
        <time>2020-08-10T13:17:15.755Z</time>
      </trkpt>
      <trkpt lat="64.39969" lon="11.40934">
        <ele>69.704692</ele>
        <time>2020-08-10T13:17:19.738Z</time>
      </trkpt>
      <trkpt lat="64.39975" lon="11.40957">
        <ele>70.242977</ele>
        <time>2020-08-10T13:17:23.758Z</time>
      </trkpt>
      <trkpt lat="64.39982" lon="11.40978">
        <ele>70.777555</ele>
        <time>2020-08-10T13:17:27.755Z</time>
      </trkpt>
      <trkpt lat="64.39988" lon="11.40999">
        <ele>71.278337</ele>
        <time>2020-08-10T13:17:31.746Z</time>
      </trkpt>
      <trkpt lat="64.39992" lon="11.41019">
        <ele>71.689553</ele>
        <time>2020-08-10T13:17:35.749Z</time>
      </trkpt>
      <trkpt lat="64.39997" lon="11.41038">
        <ele>72.077339</ele>
        <time>2020-08-10T13:17:39.729Z</time>
      </trkpt>
      <trkpt lat="64.40001" lon="11.41056">
        <ele>72.448802</ele>
        <time>2020-08-10T13:17:43.736Z</time>
      </trkpt>
      <trkpt lat="64.40005" lon="11.41079">
        <ele>72.886737</ele>
        <time>2020-08-10T13:17:48.757Z</time>
      </trkpt>
      <trkpt lat="64.40009" lon="11.41104">
        <ele>73.357233</ele>
        <time>2020-08-10T13:17:53.737Z</time>
      </trkpt>
      <trkpt lat="64.40012" lon="11.41125">
        <ele>73.733215</ele>
        <time>2020-08-10T13:17:57.733Z</time>
      </trkpt>
      <trkpt lat="64.40014" lon="11.4115">
        <ele>74.194471</ele>
        <time>2020-08-10T13:18:02.743Z</time>
      </trkpt>
      <trkpt lat="64.40017" lon="11.41172">
        <ele>74.597371</ele>
        <time>2020-08-10T13:18:06.773Z</time>
      </trkpt>
      <trkpt lat="64.4002" lon="11.41197">
        <ele>75.043979</ele>
        <time>2020-08-10T13:18:11.763Z</time>
      </trkpt>
      <trkpt lat="64.40021" lon="11.41221">
        <ele>75.474664</ele>
        <time>2020-08-10T13:18:16.743Z</time>
      </trkpt>
      <trkpt lat="64.40022" lon="11.41246">
        <ele>75.928342</ele>
        <time>2020-08-10T13:18:21.764Z</time>
      </trkpt>
      <trkpt lat="64.40022" lon="11.41268">
        <ele>76.313426</ele>
        <time>2020-08-10T13:18:25.739Z</time>
      </trkpt>
      <trkpt lat="64.40022" lon="11.4129">
        <ele>76.707342</ele>
        <time>2020-08-10T13:18:29.745Z</time>
      </trkpt>
      <trkpt lat="64.40022" lon="11.41311">
        <ele>77.077073</ele>
        <time>2020-08-10T13:18:33.746Z</time>
      </trkpt>
      <trkpt lat="64.40021" lon="11.41336">
        <ele>77.514584</ele>
        <time>2020-08-10T13:18:38.741Z</time>
      </trkpt>
      <trkpt lat="64.4002" lon="11.41362">
        <ele>77.976487</ele>
        <time>2020-08-10T13:18:43.731Z</time>
      </trkpt>
      <trkpt lat="64.4002" lon="11.41387">
        <ele>78.421774</ele>
        <time>2020-08-10T13:18:48.740Z</time>
      </trkpt>
      <trkpt lat="64.4002" lon="11.41409">
        <ele>78.797492</ele>
        <time>2020-08-10T13:18:52.754Z</time>
      </trkpt>
      <trkpt lat="64.40019" lon="11.41435">
        <ele>78.801498</ele>
        <time>2020-08-10T13:18:57.765Z</time>
      </trkpt>
      <trkpt lat="64.40018" lon="11.41455">
        <ele>78.804771</ele>
        <time>2020-08-10T13:19:01.773Z</time>
      </trkpt>
      <trkpt lat="64.40018" lon="11.4148">
        <ele>78.808636</ele>
        <time>2020-08-10T13:19:06.763Z</time>
      </trkpt>
      <trkpt lat="64.40017" lon="11.41502">
        <ele>78.811993</ele>
        <time>2020-08-10T13:19:10.753Z</time>
      </trkpt>
      <trkpt lat="64.40016" lon="11.41526">
        <ele>78.8158</ele>
        <time>2020-08-10T13:19:15.729Z</time>
      </trkpt>
      <trkpt lat="64.40017" lon="11.41547">
        <ele>78.819112</ele>
        <time>2020-08-10T13:19:19.762Z</time>
      </trkpt>
      <trkpt lat="64.40016" lon="11.41571">
        <ele>78.822903</ele>
        <time>2020-08-10T13:19:23.755Z</time>
      </trkpt>
      <trkpt lat="64.40016" lon="11.41596">
        <ele>78.826801</ele>
        <time>2020-08-10T13:19:27.749Z</time>
      </trkpt>
      <trkpt lat="64.40016" lon="11.4162">
        <ele>78.83054</ele>
        <time>2020-08-10T13:19:31.783Z</time>
      </trkpt>
      <trkpt lat="64.40017" lon="11.41644">
        <ele>78.834238</ele>
        <time>2020-08-10T13:19:35.732Z</time>
      </trkpt>
      <trkpt lat="64.40019" lon="11.41667">
        <ele>78.837897</ele>
        <time>2020-08-10T13:19:39.762Z</time>
      </trkpt>
      <trkpt lat="64.4002" lon="11.41692">
        <ele>78.841784</ele>
        <time>2020-08-10T13:19:43.736Z</time>
      </trkpt>
      <trkpt lat="64.40023" lon="11.41717">
        <ele>78.845743</ele>
        <time>2020-08-10T13:19:47.766Z</time>
      </trkpt>
      <trkpt lat="64.40025" lon="11.4174">
        <ele>78.849481</ele>
        <time>2020-08-10T13:19:51.726Z</time>
      </trkpt>
      <trkpt lat="64.40027" lon="11.41764">
        <ele>78.853356</ele>
        <time>2020-08-10T13:19:55.742Z</time>
      </trkpt>
      <trkpt lat="64.4003" lon="11.4179">
        <ele>78.857499</ele>
        <time>2020-08-10T13:19:59.756Z</time>
      </trkpt>
      <trkpt lat="64.40033" lon="11.4181">
        <ele>78.860804</ele>
        <time>2020-08-10T13:20:02.746Z</time>
      </trkpt>
      <trkpt lat="64.40036" lon="11.41832">
        <ele>78.7679</ele>
        <time>2020-08-10T13:20:05.732Z</time>
      </trkpt>
      <trkpt lat="64.4004" lon="11.41855">
        <ele>78.590087</ele>
        <time>2020-08-10T13:20:08.754Z</time>
      </trkpt>
      <trkpt lat="64.40045" lon="11.4188">
        <ele>78.39599</ele>
        <time>2020-08-10T13:20:11.747Z</time>
      </trkpt>
      <trkpt lat="64.4005" lon="11.41907">
        <ele>78.18496</ele>
        <time>2020-08-10T13:20:14.727Z</time>
      </trkpt>
      <trkpt lat="64.40054" lon="11.41927">
        <ele>78.032515</ele>
        <time>2020-08-10T13:20:16.734Z</time>
      </trkpt>
      <trkpt lat="64.40058" lon="11.41948">
        <ele>77.872936</ele>
        <time>2020-08-10T13:20:18.757Z</time>
      </trkpt>
      <trkpt lat="64.40061" lon="11.41971">
        <ele>77.700268</ele>
        <time>2020-08-10T13:20:20.825Z</time>
      </trkpt>
      <trkpt lat="64.40065" lon="11.41993">
        <ele>77.530031</ele>
        <time>2020-08-10T13:20:22.738Z</time>
      </trkpt>
      <trkpt lat="64.40068" lon="11.42015">
        <ele>77.362246</ele>
        <time>2020-08-10T13:20:24.735Z</time>
      </trkpt>
      <trkpt lat="64.40072" lon="11.42036">
        <ele>77.199414</ele>
        <time>2020-08-10T13:20:26.767Z</time>
      </trkpt>
      <trkpt lat="64.40076" lon="11.42057">
        <ele>77.041785</ele>
        <time>2020-08-10T13:20:28.745Z</time>
      </trkpt>
      <trkpt lat="64.4008" lon="11.42077">
        <ele>76.884165</ele>
        <time>2020-08-10T13:20:30.759Z</time>
      </trkpt>
      <trkpt lat="64.40084" lon="11.42097">
        <ele>76.732402</ele>
        <time>2020-08-10T13:20:32.744Z</time>
      </trkpt>
      <trkpt lat="64.40087" lon="11.42116">
        <ele>76.585133</ele>
        <time>2020-08-10T13:20:34.754Z</time>
      </trkpt>
      <trkpt lat="64.40092" lon="11.42144">
        <ele>76.371498</ele>
        <time>2020-08-10T13:20:37.755Z</time>
      </trkpt>
      <trkpt lat="64.40095" lon="11.42163">
        <ele>76.2235</ele>
        <time>2020-08-10T13:20:39.743Z</time>
      </trkpt>
      <trkpt lat="64.40098" lon="11.42183">
        <ele>76.075967</ele>
        <time>2020-08-10T13:20:41.735Z</time>
      </trkpt>
      <trkpt lat="64.40103" lon="11.42212">
        <ele>75.993421</ele>
        <time>2020-08-10T13:20:44.734Z</time>
      </trkpt>
      <trkpt lat="64.40108" lon="11.4224">
        <ele>76.339201</ele>
        <time>2020-08-10T13:20:47.752Z</time>
      </trkpt>
      <trkpt lat="64.40111" lon="11.4226">
        <ele>76.576987</ele>
        <time>2020-08-10T13:20:49.787Z</time>
      </trkpt>
      <trkpt lat="64.40116" lon="11.42288">
        <ele>76.924754</ele>
        <time>2020-08-10T13:20:52.776Z</time>
      </trkpt>
      <trkpt lat="64.40121" lon="11.42316">
        <ele>77.259326</ele>
        <time>2020-08-10T13:20:55.745Z</time>
      </trkpt>
      <trkpt lat="64.40126" lon="11.4234">
        <ele>77.566493</ele>
        <time>2020-08-10T13:20:58.758Z</time>
      </trkpt>
      <trkpt lat="64.4013" lon="11.42364">
        <ele>77.866437</ele>
        <time>2020-08-10T13:21:01.748Z</time>
      </trkpt>
      <trkpt lat="64.40135" lon="11.42386">
        <ele>78.136166</ele>
        <time>2020-08-10T13:21:04.737Z</time>
      </trkpt>
      <trkpt lat="64.40139" lon="11.42406">
        <ele>78.38509</ele>
        <time>2020-08-10T13:21:07.740Z</time>
      </trkpt>
      <trkpt lat="64.40143" lon="11.42425">
        <ele>78.628737</ele>
        <time>2020-08-10T13:21:10.726Z</time>
      </trkpt>
      <trkpt lat="64.40147" lon="11.4245">
        <ele>78.931712</ele>
        <time>2020-08-10T13:21:14.778Z</time>
      </trkpt>
      <trkpt lat="64.40151" lon="11.42474">
        <ele>79.224267</ele>
        <time>2020-08-10T13:21:18.735Z</time>
      </trkpt>
      <trkpt lat="64.40155" lon="11.42497">
        <ele>79.505661</ele>
        <time>2020-08-10T13:21:22.754Z</time>
      </trkpt>
      <trkpt lat="64.40159" lon="11.42519">
        <ele>79.775144</ele>
        <time>2020-08-10T13:21:26.743Z</time>
      </trkpt>
      <trkpt lat="64.40163" lon="11.42541">
        <ele>80.050621</ele>
        <time>2020-08-10T13:21:30.744Z</time>
      </trkpt>
      <trkpt lat="64.40167" lon="11.42561">
        <ele>80.297414</ele>
        <time>2020-08-10T13:21:34.782Z</time>
      </trkpt>
      <trkpt lat="64.40171" lon="11.42581">
        <ele>80.546243</ele>
        <time>2020-08-10T13:21:38.757Z</time>
      </trkpt>
      <trkpt lat="64.40176" lon="11.42602">
        <ele>80.819946</ele>
        <time>2020-08-10T13:21:42.733Z</time>
      </trkpt>
      <trkpt lat="64.40179" lon="11.42624">
        <ele>81.093877</ele>
        <time>2020-08-10T13:21:46.742Z</time>
      </trkpt>
      <trkpt lat="64.40183" lon="11.42646">
        <ele>81.376566</ele>
        <time>2020-08-10T13:21:50.739Z</time>
      </trkpt>
      <trkpt lat="64.40188" lon="11.42668">
        <ele>81.668968</ele>
        <time>2020-08-10T13:21:54.735Z</time>
      </trkpt>
      <trkpt lat="64.40193" lon="11.42693">
        <ele>81.986186</ele>
        <time>2020-08-10T13:21:58.787Z</time>
      </trkpt>
      <trkpt lat="64.40197" lon="11.42716">
        <ele>82.285889</ele>
        <time>2020-08-10T13:22:02.754Z</time>
      </trkpt>
      <trkpt lat="64.40201" lon="11.4274">
        <ele>82.58138</ele>
        <time>2020-08-10T13:22:06.760Z</time>
      </trkpt>
      <trkpt lat="64.40206" lon="11.42764">
        <ele>82.893978</ele>
        <time>2020-08-10T13:22:10.740Z</time>
      </trkpt>
      <trkpt lat="64.4021" lon="11.42788">
        <ele>83.194726</ele>
        <time>2020-08-10T13:22:14.763Z</time>
      </trkpt>
      <trkpt lat="64.40214" lon="11.42813">
        <ele>83.505424</ele>
        <time>2020-08-10T13:22:18.744Z</time>
      </trkpt>
      <trkpt lat="64.40217" lon="11.42838">
        <ele>83.818781</ele>
        <time>2020-08-10T13:22:22.740Z</time>
      </trkpt>
      <trkpt lat="64.40221" lon="11.42858">
        <ele>84.069965</ele>
        <time>2020-08-10T13:22:25.754Z</time>
      </trkpt>
      <trkpt lat="64.40226" lon="11.42876">
        <ele>84.322056</ele>
        <time>2020-08-10T13:22:28.738Z</time>
      </trkpt>
      <trkpt lat="64.40231" lon="11.42901">
        <ele>84.643332</ele>
        <time>2020-08-10T13:22:32.741Z</time>
      </trkpt>
      <trkpt lat="64.40234" lon="11.42921">
        <ele>84.897777</ele>
        <time>2020-08-10T13:22:35.741Z</time>
      </trkpt>
      <trkpt lat="64.40238" lon="11.42942">
        <ele>85.170486</ele>
        <time>2020-08-10T13:22:38.738Z</time>
      </trkpt>
      <trkpt lat="64.40242" lon="11.42964">
        <ele>85.442118</ele>
        <time>2020-08-10T13:22:41.756Z</time>
      </trkpt>
      <trkpt lat="64.40246" lon="11.42986">
        <ele>85.469475</ele>
        <time>2020-08-10T13:22:44.749Z</time>
      </trkpt>
      <trkpt lat="64.40251" lon="11.4301">
        <ele>85.396482</ele>
        <time>2020-08-10T13:22:47.770Z</time>
      </trkpt>
      <trkpt lat="64.40256" lon="11.43035">
        <ele>85.32036</ele>
        <time>2020-08-10T13:22:50.733Z</time>
      </trkpt>
      <trkpt lat="64.40261" lon="11.43059">
        <ele>85.243671</ele>
        <time>2020-08-10T13:22:53.757Z</time>
      </trkpt>
      <trkpt lat="64.40266" lon="11.43082">
        <ele>85.172379</ele>
        <time>2020-08-10T13:22:56.740Z</time>
      </trkpt>
      <trkpt lat="64.40271" lon="11.43107">
        <ele>85.094763</ele>
        <time>2020-08-10T13:22:59.754Z</time>
      </trkpt>
      <trkpt lat="64.40276" lon="11.43133">
        <ele>85.014834</ele>
        <time>2020-08-10T13:23:02.741Z</time>
      </trkpt>
      <trkpt lat="64.40283" lon="11.43159">
        <ele>84.931234</ele>
        <time>2020-08-10T13:23:05.745Z</time>
      </trkpt>
      <trkpt lat="64.40288" lon="11.43178">
        <ele>84.867554</ele>
        <time>2020-08-10T13:23:07.725Z</time>
      </trkpt>
      <trkpt lat="64.40294" lon="11.43197">
        <ele>84.800995</ele>
        <time>2020-08-10T13:23:09.759Z</time>
      </trkpt>
      <trkpt lat="64.40301" lon="11.43217">
        <ele>84.732064</ele>
        <time>2020-08-10T13:23:11.739Z</time>
      </trkpt>
      <trkpt lat="64.40307" lon="11.43237">
        <ele>84.663301</ele>
        <time>2020-08-10T13:23:13.737Z</time>
      </trkpt>
      <trkpt lat="64.40313" lon="11.43256">
        <ele>84.595307</ele>
        <time>2020-08-10T13:23:15.743Z</time>
      </trkpt>
      <trkpt lat="64.40319" lon="11.43276">
        <ele>84.52935</ele>
        <time>2020-08-10T13:23:17.753Z</time>
      </trkpt>
      <trkpt lat="64.40325" lon="11.43294">
        <ele>84.466104</ele>
        <time>2020-08-10T13:23:19.771Z</time>
      </trkpt>
      <trkpt lat="64.40331" lon="11.43315">
        <ele>84.398094</ele>
        <time>2020-08-10T13:23:21.753Z</time>
      </trkpt>
      <trkpt lat="64.40336" lon="11.43335">
        <ele>84.352764</ele>
        <time>2020-08-10T13:23:23.737Z</time>
      </trkpt>
      <trkpt lat="64.40343" lon="11.43354">
        <ele>84.341723</ele>
        <time>2020-08-10T13:23:25.726Z</time>
      </trkpt>
      <trkpt lat="64.40349" lon="11.43372">
        <ele>84.331379</ele>
        <time>2020-08-10T13:23:27.753Z</time>
      </trkpt>
      <trkpt lat="64.40354" lon="11.4339">
        <ele>84.32146</ele>
        <time>2020-08-10T13:23:29.741Z</time>
      </trkpt>
      <trkpt lat="64.40361" lon="11.43415">
        <ele>84.308069</ele>
        <time>2020-08-10T13:23:32.741Z</time>
      </trkpt>
      <trkpt lat="64.40366" lon="11.4344">
        <ele>84.295359</ele>
        <time>2020-08-10T13:23:35.767Z</time>
      </trkpt>
      <trkpt lat="64.40372" lon="11.43463">
        <ele>84.282928</ele>
        <time>2020-08-10T13:23:38.746Z</time>
      </trkpt>
      <trkpt lat="64.40377" lon="11.43488">
        <ele>84.270481</ele>
        <time>2020-08-10T13:23:41.773Z</time>
      </trkpt>
      <trkpt lat="64.40382" lon="11.43514">
        <ele>84.257701</ele>
        <time>2020-08-10T13:23:44.739Z</time>
      </trkpt>
      <trkpt lat="64.40386" lon="11.43542">
        <ele>84.244285</ele>
        <time>2020-08-10T13:23:47.779Z</time>
      </trkpt>
      <trkpt lat="64.4039" lon="11.4357">
        <ele>84.231082</ele>
        <time>2020-08-10T13:23:50.766Z</time>
      </trkpt>
      <trkpt lat="64.40393" lon="11.43596">
        <ele>84.218689</ele>
        <time>2020-08-10T13:23:53.726Z</time>
      </trkpt>
      <trkpt lat="64.40397" lon="11.43621">
        <ele>84.206439</ele>
        <time>2020-08-10T13:23:56.726Z</time>
      </trkpt>
      <trkpt lat="64.40401" lon="11.43647">
        <ele>84.19382</ele>
        <time>2020-08-10T13:23:59.737Z</time>
      </trkpt>
      <trkpt lat="64.40406" lon="11.43673">
        <ele>84.18124</ele>
        <time>2020-08-10T13:24:02.732Z</time>
      </trkpt>
      <trkpt lat="64.4041" lon="11.43698">
        <ele>84.168786</ele>
        <time>2020-08-10T13:24:05.762Z</time>
      </trkpt>
      <trkpt lat="64.40414" lon="11.43725">
        <ele>84.332882</ele>
        <time>2020-08-10T13:24:08.726Z</time>
      </trkpt>
      <trkpt lat="64.40417" lon="11.43753">
        <ele>84.519726</ele>
        <time>2020-08-10T13:24:11.731Z</time>
      </trkpt>
      <trkpt lat="64.40421" lon="11.43781">
        <ele>84.709865</ele>
        <time>2020-08-10T13:24:14.771Z</time>
      </trkpt>
      <trkpt lat="64.40426" lon="11.43808">
        <ele>84.902477</ele>
        <time>2020-08-10T13:24:17.741Z</time>
      </trkpt>
      <trkpt lat="64.4043" lon="11.43834">
        <ele>85.081246</ele>
        <time>2020-08-10T13:24:20.785Z</time>
      </trkpt>
      <trkpt lat="64.40433" lon="11.43859">
        <ele>85.250328</ele>
        <time>2020-08-10T13:24:23.741Z</time>
      </trkpt>
      <trkpt lat="64.40436" lon="11.43884">
        <ele>85.423582</ele>
        <time>2020-08-10T13:24:26.766Z</time>
      </trkpt>
      <trkpt lat="64.4044" lon="11.43908">
        <ele>85.589063</ele>
        <time>2020-08-10T13:24:29.762Z</time>
      </trkpt>
      <trkpt lat="64.40444" lon="11.43933">
        <ele>85.760326</ele>
        <time>2020-08-10T13:24:32.729Z</time>
      </trkpt>
      <trkpt lat="64.40448" lon="11.43958">
        <ele>85.933321</ele>
        <time>2020-08-10T13:24:35.728Z</time>
      </trkpt>
      <trkpt lat="64.40451" lon="11.43984">
        <ele>86.107307</ele>
        <time>2020-08-10T13:24:38.759Z</time>
      </trkpt>
      <trkpt lat="64.40455" lon="11.44008">
        <ele>86.277456</ele>
        <time>2020-08-10T13:24:41.766Z</time>
      </trkpt>
      <trkpt lat="64.40458" lon="11.44031">
        <ele>86.434228</ele>
        <time>2020-08-10T13:24:44.764Z</time>
      </trkpt>
      <trkpt lat="64.40462" lon="11.44054">
        <ele>86.595713</ele>
        <time>2020-08-10T13:24:47.741Z</time>
      </trkpt>
      <trkpt lat="64.40466" lon="11.44077">
        <ele>86.757892</ele>
        <time>2020-08-10T13:24:50.736Z</time>
      </trkpt>
      <trkpt lat="64.40469" lon="11.441">
        <ele>86.983361</ele>
        <time>2020-08-10T13:24:53.794Z</time>
      </trkpt>
      <trkpt lat="64.40473" lon="11.44122">
        <ele>87.434327</ele>
        <time>2020-08-10T13:24:56.735Z</time>
      </trkpt>
      <trkpt lat="64.40476" lon="11.44143">
        <ele>87.870039</ele>
        <time>2020-08-10T13:24:59.758Z</time>
      </trkpt>
      <trkpt lat="64.40479" lon="11.44163">
        <ele>88.286313</ele>
        <time>2020-08-10T13:25:02.775Z</time>
      </trkpt>
      <trkpt lat="64.40482" lon="11.44183">
        <ele>88.692859</ele>
        <time>2020-08-10T13:25:05.758Z</time>
      </trkpt>
      <trkpt lat="64.40485" lon="11.44209">
        <ele>89.21289</ele>
        <time>2020-08-10T13:25:09.763Z</time>
      </trkpt>
      <trkpt lat="64.40489" lon="11.44235">
        <ele>89.738472</ele>
        <time>2020-08-10T13:25:13.731Z</time>
      </trkpt>
      <trkpt lat="64.40491" lon="11.44255">
        <ele>90.141142</ele>
        <time>2020-08-10T13:25:16.735Z</time>
      </trkpt>
      <trkpt lat="64.40494" lon="11.44275">
        <ele>90.561742</ele>
        <time>2020-08-10T13:25:19.741Z</time>
      </trkpt>
      <trkpt lat="64.40497" lon="11.44295">
        <ele>90.965302</ele>
        <time>2020-08-10T13:25:22.731Z</time>
      </trkpt>
      <trkpt lat="64.40501" lon="11.44319">
        <ele>91.459241</ele>
        <time>2020-08-10T13:25:26.781Z</time>
      </trkpt>
      <trkpt lat="64.40505" lon="11.44343">
        <ele>91.963824</ele>
        <time>2020-08-10T13:25:30.764Z</time>
      </trkpt>
      <trkpt lat="64.4051" lon="11.44367">
        <ele>92.464818</ele>
        <time>2020-08-10T13:25:34.740Z</time>
      </trkpt>
      <trkpt lat="64.40514" lon="11.44391">
        <ele>92.967605</ele>
        <time>2020-08-10T13:25:38.751Z</time>
      </trkpt>
      <trkpt lat="64.40516" lon="11.44417">
        <ele>93.46876</ele>
        <time>2020-08-10T13:25:42.758Z</time>
      </trkpt>
      <trkpt lat="64.40519" lon="11.44441">
        <ele>93.958379</ele>
        <time>2020-08-10T13:25:46.792Z</time>
      </trkpt>
      <trkpt lat="64.40523" lon="11.44467">
        <ele>94.494183</ele>
        <time>2020-08-10T13:25:50.730Z</time>
      </trkpt>
      <trkpt lat="64.40526" lon="11.44493">
        <ele>94.986415</ele>
        <time>2020-08-10T13:25:54.778Z</time>
      </trkpt>
      <trkpt lat="64.40529" lon="11.44517">
        <ele>95.309435</ele>
        <time>2020-08-10T13:25:58.764Z</time>
      </trkpt>
      <trkpt lat="64.4053" lon="11.44542">
        <ele>95.633542</ele>
        <time>2020-08-10T13:26:02.727Z</time>
      </trkpt>
      <trkpt lat="64.40531" lon="11.44567">
        <ele>95.951722</ele>
        <time>2020-08-10T13:26:06.754Z</time>
      </trkpt>
      <trkpt lat="64.40532" lon="11.44591">
        <ele>96.275378</ele>
        <time>2020-08-10T13:26:10.762Z</time>
      </trkpt>
      <trkpt lat="64.40534" lon="11.44616">
        <ele>96.602054</ele>
        <time>2020-08-10T13:26:14.755Z</time>
      </trkpt>
      <trkpt lat="64.40535" lon="11.44642">
        <ele>96.935431</ele>
        <time>2020-08-10T13:26:18.756Z</time>
      </trkpt>
      <trkpt lat="64.40536" lon="11.44665">
        <ele>97.240903</ele>
        <time>2020-08-10T13:26:22.730Z</time>
      </trkpt>
      <trkpt lat="64.40536" lon="11.4469">
        <ele>97.558743</ele>
        <time>2020-08-10T13:26:26.763Z</time>
      </trkpt>
      <trkpt lat="64.40537" lon="11.44716">
        <ele>97.89243</ele>
        <time>2020-08-10T13:26:30.753Z</time>
      </trkpt>
      <trkpt lat="64.40537" lon="11.44738">
        <ele>98.189197</ele>
        <time>2020-08-10T13:26:34.754Z</time>
      </trkpt>
      <trkpt lat="64.40537" lon="11.4476">
        <ele>98.474286</ele>
        <time>2020-08-10T13:26:38.762Z</time>
      </trkpt>
      <trkpt lat="64.40538" lon="11.44782">
        <ele>98.753155</ele>
        <time>2020-08-10T13:26:42.750Z</time>
      </trkpt>
      <trkpt lat="64.40538" lon="11.44805">
        <ele>99.051338</ele>
        <time>2020-08-10T13:26:46.737Z</time>
      </trkpt>
      <trkpt lat="64.40539" lon="11.44829">
        <ele>99.363494</ele>
        <time>2020-08-10T13:26:50.742Z</time>
      </trkpt>
      <trkpt lat="64.4054" lon="11.44854">
        <ele>99.692018</ele>
        <time>2020-08-10T13:26:54.736Z</time>
      </trkpt>
      <trkpt lat="64.40541" lon="11.44879">
        <ele>100.015814</ele>
        <time>2020-08-10T13:26:58.746Z</time>
      </trkpt>
      <trkpt lat="64.40541" lon="11.44902">
        <ele>100.312944</ele>
        <time>2020-08-10T13:27:02.766Z</time>
      </trkpt>
      <trkpt lat="64.40542" lon="11.44925">
        <ele>100.237902</ele>
        <time>2020-08-10T13:27:06.753Z</time>
      </trkpt>
      <trkpt lat="64.40542" lon="11.44947">
        <ele>100.144454</ele>
        <time>2020-08-10T13:27:10.735Z</time>
      </trkpt>
      <trkpt lat="64.40542" lon="11.44973">
        <ele>100.036358</ele>
        <time>2020-08-10T13:27:15.763Z</time>
      </trkpt>
      <trkpt lat="64.40543" lon="11.44995">
        <ele>99.943517</ele>
        <time>2020-08-10T13:27:19.750Z</time>
      </trkpt>
      <trkpt lat="64.40544" lon="11.45019">
        <ele>99.843603</ele>
        <time>2020-08-10T13:27:23.770Z</time>
      </trkpt>
      <trkpt lat="64.40545" lon="11.45044">
        <ele>99.738192</ele>
        <time>2020-08-10T13:27:27.732Z</time>
      </trkpt>
      <trkpt lat="64.40546" lon="11.45067">
        <ele>99.639907</ele>
        <time>2020-08-10T13:27:31.767Z</time>
      </trkpt>
      <trkpt lat="64.40547" lon="11.45091">
        <ele>99.541848</ele>
        <time>2020-08-10T13:27:35.738Z</time>
      </trkpt>
      <trkpt lat="64.40548" lon="11.45115">
        <ele>99.439292</ele>
        <time>2020-08-10T13:27:39.736Z</time>
      </trkpt>
      <trkpt lat="64.40549" lon="11.45141">
        <ele>99.331367</ele>
        <time>2020-08-10T13:27:43.744Z</time>
      </trkpt>
      <trkpt lat="64.40549" lon="11.45165">
        <ele>99.229899</ele>
        <time>2020-08-10T13:27:46.744Z</time>
      </trkpt>
      <trkpt lat="64.4055" lon="11.45192">
        <ele>99.119029</ele>
        <time>2020-08-10T13:27:49.740Z</time>
      </trkpt>
      <trkpt lat="64.40551" lon="11.45221">
        <ele>98.996097</ele>
        <time>2020-08-10T13:27:52.732Z</time>
      </trkpt>
      <trkpt lat="64.40552" lon="11.45243">
        <ele>98.904627</ele>
        <time>2020-08-10T13:27:54.752Z</time>
      </trkpt>
      <trkpt lat="64.40552" lon="11.45267">
        <ele>98.803525</ele>
        <time>2020-08-10T13:27:56.730Z</time>
      </trkpt>
      <trkpt lat="64.40553" lon="11.45292">
        <ele>98.700214</ele>
        <time>2020-08-10T13:27:58.734Z</time>
      </trkpt>
      <trkpt lat="64.40554" lon="11.45318">
        <ele>98.591702</ele>
        <time>2020-08-10T13:28:00.742Z</time>
      </trkpt>
      <trkpt lat="64.40554" lon="11.45346">
        <ele>98.426624</ele>
        <time>2020-08-10T13:28:02.747Z</time>
      </trkpt>
      <trkpt lat="64.40555" lon="11.45374">
        <ele>98.257665</ele>
        <time>2020-08-10T13:28:04.816Z</time>
      </trkpt>
      <trkpt lat="64.40556" lon="11.45404">
        <ele>98.079122</ele>
        <time>2020-08-10T13:28:06.744Z</time>
      </trkpt>
      <trkpt lat="64.40556" lon="11.45435">
        <ele>97.895988</ele>
        <time>2020-08-10T13:28:08.775Z</time>
      </trkpt>
      <trkpt lat="64.40557" lon="11.45465">
        <ele>97.715659</ele>
        <time>2020-08-10T13:28:10.748Z</time>
      </trkpt>
      <trkpt lat="64.40558" lon="11.45495">
        <ele>97.537116</ele>
        <time>2020-08-10T13:28:12.758Z</time>
      </trkpt>
      <trkpt lat="64.40558" lon="11.45524">
        <ele>97.362659</ele>
        <time>2020-08-10T13:28:14.743Z</time>
      </trkpt>
      <trkpt lat="64.4056" lon="11.45552">
        <ele>97.197393</ele>
        <time>2020-08-10T13:28:16.734Z</time>
      </trkpt>
      <trkpt lat="64.4056" lon="11.45579">
        <ele>97.034329</ele>
        <time>2020-08-10T13:28:18.761Z</time>
      </trkpt>
      <trkpt lat="64.40561" lon="11.45607">
        <ele>96.866502</ele>
        <time>2020-08-10T13:28:20.764Z</time>
      </trkpt>
      <trkpt lat="64.40562" lon="11.45635">
        <ele>96.700367</ele>
        <time>2020-08-10T13:28:22.800Z</time>
      </trkpt>
      <trkpt lat="64.40563" lon="11.45661">
        <ele>96.543273</ele>
        <time>2020-08-10T13:28:24.743Z</time>
      </trkpt>
      <trkpt lat="64.40564" lon="11.45688">
        <ele>96.38121</ele>
        <time>2020-08-10T13:28:26.740Z</time>
      </trkpt>
      <trkpt lat="64.40565" lon="11.45715">
        <ele>96.218146</ele>
        <time>2020-08-10T13:28:28.729Z</time>
      </trkpt>
      <trkpt lat="64.40566" lon="11.45743">
        <ele>96.077101</ele>
        <time>2020-08-10T13:28:30.751Z</time>
      </trkpt>
      <trkpt lat="64.40567" lon="11.4577">
        <ele>95.984741</ele>
        <time>2020-08-10T13:28:32.757Z</time>
      </trkpt>
      <trkpt lat="64.40567" lon="11.45798">
        <ele>95.891628</ele>
        <time>2020-08-10T13:28:34.726Z</time>
      </trkpt>
      <trkpt lat="64.40567" lon="11.45825">
        <ele>95.802532</ele>
        <time>2020-08-10T13:28:36.772Z</time>
      </trkpt>
      <trkpt lat="64.40568" lon="11.45851">
        <ele>95.71567</ele>
        <time>2020-08-10T13:28:38.766Z</time>
      </trkpt>
      <trkpt lat="64.40569" lon="11.45877">
        <ele>95.626707</ele>
        <time>2020-08-10T13:28:40.742Z</time>
      </trkpt>
      <trkpt lat="64.4057" lon="11.45905">
        <ele>95.534809</ele>
        <time>2020-08-10T13:28:42.751Z</time>
      </trkpt>
      <trkpt lat="64.40571" lon="11.45931">
        <ele>95.445606</ele>
        <time>2020-08-10T13:28:44.755Z</time>
      </trkpt>
      <trkpt lat="64.40571" lon="11.45958">
        <ele>95.35482</ele>
        <time>2020-08-10T13:28:46.746Z</time>
      </trkpt>
      <trkpt lat="64.40572" lon="11.45986">
        <ele>95.263233</ele>
        <time>2020-08-10T13:28:48.762Z</time>
      </trkpt>
      <trkpt lat="64.40572" lon="11.4601">
        <ele>95.180424</ele>
        <time>2020-08-10T13:28:50.733Z</time>
      </trkpt>
      <trkpt lat="64.40573" lon="11.46036">
        <ele>95.093799</ele>
        <time>2020-08-10T13:28:52.754Z</time>
      </trkpt>
      <trkpt lat="64.40573" lon="11.46063">
        <ele>95.004596</ele>
        <time>2020-08-10T13:28:54.732Z</time>
      </trkpt>
      <trkpt lat="64.40574" lon="11.46091">
        <ele>94.91108</ele>
        <time>2020-08-10T13:28:56.780Z</time>
      </trkpt>
      <trkpt lat="64.40574" lon="11.46118">
        <ele>94.818621</ele>
        <time>2020-08-10T13:28:58.750Z</time>
      </trkpt>
      <trkpt lat="64.40574" lon="11.46146">
        <ele>94.724799</ele>
        <time>2020-08-10T13:29:00.744Z</time>
      </trkpt>
      <trkpt lat="64.40573" lon="11.46174">
        <ele>94.686902</ele>
        <time>2020-08-10T13:29:02.731Z</time>
      </trkpt>
      <trkpt lat="64.40573" lon="11.46203">
        <ele>94.65569</ele>
        <time>2020-08-10T13:29:04.755Z</time>
      </trkpt>
      <trkpt lat="64.40573" lon="11.46232">
        <ele>94.623823</ele>
        <time>2020-08-10T13:29:06.790Z</time>
      </trkpt>
      <trkpt lat="64.40573" lon="11.4626">
        <ele>94.592944</ele>
        <time>2020-08-10T13:29:08.736Z</time>
      </trkpt>
      <trkpt lat="64.40572" lon="11.46287">
        <ele>94.562783</ele>
        <time>2020-08-10T13:29:10.718Z</time>
      </trkpt>
      <trkpt lat="64.40572" lon="11.46313">
        <ele>94.533901</ele>
        <time>2020-08-10T13:29:12.738Z</time>
      </trkpt>
      <trkpt lat="64.40571" lon="11.4634">
        <ele>94.504522</ele>
        <time>2020-08-10T13:29:14.731Z</time>
      </trkpt>
      <trkpt lat="64.4057" lon="11.46367">
        <ele>94.474783</ele>
        <time>2020-08-10T13:29:16.761Z</time>
      </trkpt>
      <trkpt lat="64.40569" lon="11.46395">
        <ele>94.444216</ele>
        <time>2020-08-10T13:29:18.770Z</time>
      </trkpt>
      <trkpt lat="64.40568" lon="11.46423">
        <ele>94.412859</ele>
        <time>2020-08-10T13:29:20.765Z</time>
      </trkpt>
      <trkpt lat="64.40566" lon="11.46452">
        <ele>94.380179</ele>
        <time>2020-08-10T13:29:22.741Z</time>
      </trkpt>
      <trkpt lat="64.40563" lon="11.46482">
        <ele>94.346914</ele>
        <time>2020-08-10T13:29:24.744Z</time>
      </trkpt>
      <trkpt lat="64.40562" lon="11.46512">
        <ele>94.31421</ele>
        <time>2020-08-10T13:29:26.734Z</time>
      </trkpt>
      <trkpt lat="64.4056" lon="11.46542">
        <ele>94.280446</ele>
        <time>2020-08-10T13:29:28.739Z</time>
      </trkpt>
      <trkpt lat="64.4056" lon="11.46574">
        <ele>94.167442</ele>
        <time>2020-08-10T13:29:30.764Z</time>
      </trkpt>
      <trkpt lat="64.4056" lon="11.46604">
        <ele>93.890024</ele>
        <time>2020-08-10T13:29:32.738Z</time>
      </trkpt>
      <trkpt lat="64.40562" lon="11.46635">
        <ele>93.608615</ele>
        <time>2020-08-10T13:29:34.775Z</time>
      </trkpt>
      <trkpt lat="64.40565" lon="11.46665">
        <ele>93.335704</ele>
        <time>2020-08-10T13:29:36.734Z</time>
      </trkpt>
      <trkpt lat="64.40568" lon="11.46692">
        <ele>93.075726</ele>
        <time>2020-08-10T13:29:38.753Z</time>
      </trkpt>
      <trkpt lat="64.40573" lon="11.46719">
        <ele>92.812795</ele>
        <time>2020-08-10T13:29:40.766Z</time>
      </trkpt>
      <trkpt lat="64.40578" lon="11.46745">
        <ele>92.559012</ele>
        <time>2020-08-10T13:29:42.763Z</time>
      </trkpt>
      <trkpt lat="64.40584" lon="11.46769">
        <ele>92.306028</ele>
        <time>2020-08-10T13:29:44.774Z</time>
      </trkpt>
      <trkpt lat="64.40591" lon="11.46793">
        <ele>92.048586</ele>
        <time>2020-08-10T13:29:46.749Z</time>
      </trkpt>
      <trkpt lat="64.40598" lon="11.46817">
        <ele>91.784409</ele>
        <time>2020-08-10T13:29:48.752Z</time>
      </trkpt>
      <trkpt lat="64.40605" lon="11.46841">
        <ele>91.51702</ele>
        <time>2020-08-10T13:29:50.740Z</time>
      </trkpt>
      <trkpt lat="64.40612" lon="11.46865">
        <ele>91.253915</ele>
        <time>2020-08-10T13:29:52.747Z</time>
      </trkpt>
      <trkpt lat="64.4062" lon="11.46889">
        <ele>90.991694</ele>
        <time>2020-08-10T13:29:54.743Z</time>
      </trkpt>
      <trkpt lat="64.40627" lon="11.46911">
        <ele>90.737487</ele>
        <time>2020-08-10T13:29:56.749Z</time>
      </trkpt>
      <trkpt lat="64.40634" lon="11.46934">
        <ele>90.499239</ele>
        <time>2020-08-10T13:29:58.730Z</time>
      </trkpt>
      <trkpt lat="64.40641" lon="11.46956">
        <ele>90.585543</ele>
        <time>2020-08-10T13:30:00.754Z</time>
      </trkpt>
      <trkpt lat="64.40648" lon="11.46977">
        <ele>90.672737</ele>
        <time>2020-08-10T13:30:02.725Z</time>
      </trkpt>
      <trkpt lat="64.40655" lon="11.47">
        <ele>90.761354</ele>
        <time>2020-08-10T13:30:04.794Z</time>
      </trkpt>
      <trkpt lat="64.40662" lon="11.47021">
        <ele>90.844627</ele>
        <time>2020-08-10T13:30:06.747Z</time>
      </trkpt>
      <trkpt lat="64.40668" lon="11.47041">
        <ele>90.92196</ele>
        <time>2020-08-10T13:30:08.738Z</time>
      </trkpt>
      <trkpt lat="64.40674" lon="11.47059">
        <ele>90.993264</ele>
        <time>2020-08-10T13:30:10.735Z</time>
      </trkpt>
      <trkpt lat="64.40679" lon="11.47076">
        <ele>91.061279</ele>
        <time>2020-08-10T13:30:12.747Z</time>
      </trkpt>
      <trkpt lat="64.40687" lon="11.47099">
        <ele>91.151087</ele>
        <time>2020-08-10T13:30:15.761Z</time>
      </trkpt>
      <trkpt lat="64.40694" lon="11.47119">
        <ele>91.23432</ele>
        <time>2020-08-10T13:30:18.757Z</time>
      </trkpt>
      <trkpt lat="64.407" lon="11.47138">
        <ele>91.310141</ele>
        <time>2020-08-10T13:30:21.724Z</time>
      </trkpt>
      <trkpt lat="64.40706" lon="11.47155">
        <ele>91.380682</ele>
        <time>2020-08-10T13:30:24.760Z</time>
      </trkpt>
      <trkpt lat="64.40711" lon="11.47172">
        <ele>91.447156</ele>
        <time>2020-08-10T13:30:27.766Z</time>
      </trkpt>
      <trkpt lat="64.40717" lon="11.47192">
        <ele>91.52648</ele>
        <time>2020-08-10T13:30:31.730Z</time>
      </trkpt>
      <trkpt lat="64.40724" lon="11.47211">
        <ele>91.601547</ele>
        <time>2020-08-10T13:30:35.763Z</time>
      </trkpt>
      <trkpt lat="64.40729" lon="11.47229">
        <ele>91.669877</ele>
        <time>2020-08-10T13:30:39.757Z</time>
      </trkpt>
      <trkpt lat="64.40734" lon="11.47246">
        <ele>91.737699</ele>
        <time>2020-08-10T13:30:43.739Z</time>
      </trkpt>
      <trkpt lat="64.4074" lon="11.47263">
        <ele>91.807869</ele>
        <time>2020-08-10T13:30:47.742Z</time>
      </trkpt>
      <trkpt lat="64.40746" lon="11.47282">
        <ele>92.179552</ele>
        <time>2020-08-10T13:30:51.748Z</time>
      </trkpt>
      <trkpt lat="64.40752" lon="11.47303">
        <ele>92.672115</ele>
        <time>2020-08-10T13:30:56.747Z</time>
      </trkpt>
      <trkpt lat="64.40757" lon="11.4732">
        <ele>93.09447</ele>
        <time>2020-08-10T13:31:01.788Z</time>
      </trkpt>
      <trkpt lat="64.40763" lon="11.47337">
        <ele>93.51327</ele>
        <time>2020-08-10T13:31:06.751Z</time>
      </trkpt>
      <trkpt lat="64.40769" lon="11.47357">
        <ele>93.994351</ele>
        <time>2020-08-10T13:31:12.755Z</time>
      </trkpt>
      <trkpt lat="64.40774" lon="11.47374">
        <ele>94.403624</ele>
        <time>2020-08-10T13:31:17.743Z</time>
      </trkpt>
      <trkpt lat="64.40779" lon="11.47391">
        <ele>94.823661</ele>
        <time>2020-08-10T13:31:22.745Z</time>
      </trkpt>
      <trkpt lat="64.40785" lon="11.47411">
        <ele>95.295462</ele>
        <time>2020-08-10T13:31:28.747Z</time>
      </trkpt>
      <trkpt lat="64.40791" lon="11.47432">
        <ele>95.776654</ele>
        <time>2020-08-10T13:31:34.742Z</time>
      </trkpt>
      <trkpt lat="64.40797" lon="11.47449">
        <ele>96.217126</ele>
        <time>2020-08-10T13:31:39.732Z</time>
      </trkpt>
      <trkpt lat="64.40803" lon="11.47467">
        <ele>96.6614</ele>
        <time>2020-08-10T13:31:44.772Z</time>
      </trkpt>
      <trkpt lat="64.40809" lon="11.47485">
        <ele>97.130499</ele>
        <time>2020-08-10T13:31:49.755Z</time>
      </trkpt>
      <trkpt lat="64.40815" lon="11.47504">
        <ele>97.572071</ele>
        <time>2020-08-10T13:31:54.761Z</time>
      </trkpt>
      <trkpt lat="64.40821" lon="11.47527">
        <ele>98.093649</ele>
        <time>2020-08-10T13:31:59.753Z</time>
      </trkpt>
      <trkpt lat="64.40827" lon="11.47547">
        <ele>98.571466</ele>
        <time>2020-08-10T13:32:03.748Z</time>
      </trkpt>
      <trkpt lat="64.40834" lon="11.47567">
        <ele>99.081228</ele>
        <time>2020-08-10T13:32:07.783Z</time>
      </trkpt>
      <trkpt lat="64.4084" lon="11.47589">
        <ele>99.616326</ele>
        <time>2020-08-10T13:32:11.736Z</time>
      </trkpt>
      <trkpt lat="64.40847" lon="11.47607">
        <ele>99.999776</ele>
        <time>2020-08-10T13:32:14.725Z</time>
      </trkpt>
      <trkpt lat="64.40853" lon="11.47626">
        <ele>99.915849</ele>
        <time>2020-08-10T13:32:17.766Z</time>
      </trkpt>
      <trkpt lat="64.40859" lon="11.47644">
        <ele>99.834883</ele>
        <time>2020-08-10T13:32:20.774Z</time>
      </trkpt>
      <trkpt lat="64.40866" lon="11.4766">
        <ele>99.751958</ele>
        <time>2020-08-10T13:32:23.751Z</time>
      </trkpt>
      <trkpt lat="64.40872" lon="11.47679">
        <ele>99.672591</ele>
        <time>2020-08-10T13:32:26.747Z</time>
      </trkpt>
      <trkpt lat="64.40877" lon="11.47695">
        <ele>99.598766</ele>
        <time>2020-08-10T13:32:29.764Z</time>
      </trkpt>
      <trkpt lat="64.40884" lon="11.47717">
        <ele>99.502211</ele>
        <time>2020-08-10T13:32:33.730Z</time>
      </trkpt>
      <trkpt lat="64.40891" lon="11.47733">
        <ele>99.425083</ele>
        <time>2020-08-10T13:32:36.754Z</time>
      </trkpt>
      <trkpt lat="64.40897" lon="11.47749">
        <ele>99.348171</ele>
        <time>2020-08-10T13:32:39.749Z</time>
      </trkpt>
      <trkpt lat="64.40904" lon="11.47765">
        <ele>99.266649</ele>
        <time>2020-08-10T13:32:42.766Z</time>
      </trkpt>
      <trkpt lat="64.40913" lon="11.47779">
        <ele>99.182056</ele>
        <time>2020-08-10T13:32:45.732Z</time>
      </trkpt>
      <trkpt lat="64.40923" lon="11.47793">
        <ele>99.086959</ele>
        <time>2020-08-10T13:32:48.742Z</time>
      </trkpt>
      <trkpt lat="64.40933" lon="11.4781">
        <ele>98.982309</ele>
        <time>2020-08-10T13:32:51.749Z</time>
      </trkpt>
      <trkpt lat="64.40941" lon="11.4782">
        <ele>98.907323</ele>
        <time>2020-08-10T13:32:53.725Z</time>
      </trkpt>
      <trkpt lat="64.4095" lon="11.47831">
        <ele>98.82433</ele>
        <time>2020-08-10T13:32:55.758Z</time>
      </trkpt>
      <trkpt lat="64.40959" lon="11.47843">
        <ele>98.737613</ele>
        <time>2020-08-10T13:32:57.730Z</time>
      </trkpt>
      <trkpt lat="64.40968" lon="11.47858">
        <ele>98.649161</ele>
        <time>2020-08-10T13:32:59.778Z</time>
      </trkpt>
      <trkpt lat="64.40976" lon="11.47873">
        <ele>98.561167</ele>
        <time>2020-08-10T13:33:01.734Z</time>
      </trkpt>
      <trkpt lat="64.40984" lon="11.47889">
        <ele>98.425395</ele>
        <time>2020-08-10T13:33:03.738Z</time>
      </trkpt>
      <trkpt lat="64.40992" lon="11.47905">
        <ele>98.275974</ele>
        <time>2020-08-10T13:33:05.743Z</time>
      </trkpt>
      <trkpt lat="64.41" lon="11.47921">
        <ele>98.121134</ele>
        <time>2020-08-10T13:33:07.739Z</time>
      </trkpt>
      <trkpt lat="64.41008" lon="11.47935">
        <ele>97.961658</ele>
        <time>2020-08-10T13:33:09.728Z</time>
      </trkpt>
      <trkpt lat="64.41017" lon="11.47951">
        <ele>97.801796</ele>
        <time>2020-08-10T13:33:11.758Z</time>
      </trkpt>
      <trkpt lat="64.41025" lon="11.47967">
        <ele>97.641878</ele>
        <time>2020-08-10T13:33:13.763Z</time>
      </trkpt>
      <trkpt lat="64.41033" lon="11.47982">
        <ele>97.482818</ele>
        <time>2020-08-10T13:33:15.778Z</time>
      </trkpt>
      <trkpt lat="64.41042" lon="11.47996">
        <ele>97.324535</ele>
        <time>2020-08-10T13:33:17.739Z</time>
      </trkpt>
      <trkpt lat="64.41051" lon="11.48012">
        <ele>97.162713</ele>
        <time>2020-08-10T13:33:19.737Z</time>
      </trkpt>
      <trkpt lat="64.41059" lon="11.48027">
        <ele>97.000887</ele>
        <time>2020-08-10T13:33:21.764Z</time>
      </trkpt>
      <trkpt lat="64.41068" lon="11.48043">
        <ele>96.839817</ele>
        <time>2020-08-10T13:33:23.741Z</time>
      </trkpt>
      <trkpt lat="64.41076" lon="11.48059">
        <ele>96.67369</ele>
        <time>2020-08-10T13:33:25.741Z</time>
      </trkpt>
      <trkpt lat="64.41086" lon="11.48075">
        <ele>96.499608</ele>
        <time>2020-08-10T13:33:27.733Z</time>
      </trkpt>
      <trkpt lat="64.41095" lon="11.48091">
        <ele>96.326787</ele>
        <time>2020-08-10T13:33:29.750Z</time>
      </trkpt>
      <trkpt lat="64.41104" lon="11.48107">
        <ele>96.157521</ele>
        <time>2020-08-10T13:33:31.730Z</time>
      </trkpt>
      <trkpt lat="64.41113" lon="11.48125">
        <ele>95.983328</ele>
        <time>2020-08-10T13:33:33.759Z</time>
      </trkpt>
      <trkpt lat="64.41122" lon="11.48142">
        <ele>95.918676</ele>
        <time>2020-08-10T13:33:35.735Z</time>
      </trkpt>
      <trkpt lat="64.41131" lon="11.48159">
        <ele>96.126916</ele>
        <time>2020-08-10T13:33:37.754Z</time>
      </trkpt>
      <trkpt lat="64.4114" lon="11.48175">
        <ele>96.325769</ele>
        <time>2020-08-10T13:33:39.733Z</time>
      </trkpt>
      <trkpt lat="64.41148" lon="11.48191">
        <ele>96.516202</ele>
        <time>2020-08-10T13:33:41.755Z</time>
      </trkpt>
      <trkpt lat="64.41155" lon="11.48204">
        <ele>96.68082</ele>
        <time>2020-08-10T13:33:43.783Z</time>
      </trkpt>
      <trkpt lat="64.41164" lon="11.48222">
        <ele>96.893138</ele>
        <time>2020-08-10T13:33:46.744Z</time>
      </trkpt>
      <trkpt lat="64.41172" lon="11.48236">
        <ele>97.06617</ele>
        <time>2020-08-10T13:33:49.761Z</time>
      </trkpt>
      <trkpt lat="64.41182" lon="11.48252">
        <ele>97.274348</ele>
        <time>2020-08-10T13:33:53.732Z</time>
      </trkpt>
      <trkpt lat="64.4119" lon="11.48267">
        <ele>97.461486</ele>
        <time>2020-08-10T13:33:57.746Z</time>
      </trkpt>
      <trkpt lat="64.41198" lon="11.4828">
        <ele>97.633693</ele>
        <time>2020-08-10T13:34:01.736Z</time>
      </trkpt>
      <trkpt lat="64.41206" lon="11.48294">
        <ele>97.806704</ele>
        <time>2020-08-10T13:34:05.756Z</time>
      </trkpt>
      <trkpt lat="64.41213" lon="11.48307">
        <ele>97.973152</ele>
        <time>2020-08-10T13:34:09.755Z</time>
      </trkpt>
      <trkpt lat="64.41221" lon="11.48321">
        <ele>98.145694</ele>
        <time>2020-08-10T13:34:13.770Z</time>
      </trkpt>
      <trkpt lat="64.41229" lon="11.48333">
        <ele>98.316748</ele>
        <time>2020-08-10T13:34:17.740Z</time>
      </trkpt>
      <trkpt lat="64.41237" lon="11.48343">
        <ele>98.484571</ele>
        <time>2020-08-10T13:34:21.778Z</time>
      </trkpt>
      <trkpt lat="64.41246" lon="11.48355">
        <ele>98.667952</ele>
        <time>2020-08-10T13:34:25.774Z</time>
      </trkpt>
      <trkpt lat="64.41254" lon="11.48367">
        <ele>98.844136</ele>
        <time>2020-08-10T13:34:29.745Z</time>
      </trkpt>
      <trkpt lat="64.41263" lon="11.48381">
        <ele>99.035933</ele>
        <time>2020-08-10T13:34:33.773Z</time>
      </trkpt>
      <trkpt lat="64.41273" lon="11.48395">
        <ele>99.257197</ele>
        <time>2020-08-10T13:34:37.784Z</time>
      </trkpt>
      <trkpt lat="64.41283" lon="11.48412">
        <ele>99.492325</ele>
        <time>2020-08-10T13:34:41.762Z</time>
      </trkpt>
      <trkpt lat="64.4129" lon="11.48424">
        <ele>99.680428</ele>
        <time>2020-08-10T13:34:44.755Z</time>
      </trkpt>
      <trkpt lat="64.41299" lon="11.48436">
        <ele>99.880889</ele>
        <time>2020-08-10T13:34:47.741Z</time>
      </trkpt>
      <trkpt lat="64.41308" lon="11.48448">
        <ele>100.079626</ele>
        <time>2020-08-10T13:34:50.757Z</time>
      </trkpt>
      <trkpt lat="64.41317" lon="11.48458">
        <ele>100.275345</ele>
        <time>2020-08-10T13:34:53.786Z</time>
      </trkpt>
      <trkpt lat="64.41326" lon="11.4847">
        <ele>100.475341</ele>
        <time>2020-08-10T13:34:56.758Z</time>
      </trkpt>
      <trkpt lat="64.41334" lon="11.48481">
        <ele>100.670705</ele>
        <time>2020-08-10T13:34:59.744Z</time>
      </trkpt>
      <trkpt lat="64.41343" lon="11.48492">
        <ele>100.865663</ele>
        <time>2020-08-10T13:35:02.745Z</time>
      </trkpt>
      <trkpt lat="64.41351" lon="11.48503">
        <ele>101.05215</ele>
        <time>2020-08-10T13:35:05.756Z</time>
      </trkpt>
      <trkpt lat="64.41361" lon="11.48518">
        <ele>101.282571</ele>
        <time>2020-08-10T13:35:09.757Z</time>
      </trkpt>
      <trkpt lat="64.41369" lon="11.48531">
        <ele>101.485717</ele>
        <time>2020-08-10T13:35:13.744Z</time>
      </trkpt>
      <trkpt lat="64.41378" lon="11.48543">
        <ele>101.675103</ele>
        <time>2020-08-10T13:35:17.756Z</time>
      </trkpt>
      <trkpt lat="64.41386" lon="11.48556">
        <ele>101.87729</ele>
        <time>2020-08-10T13:35:21.741Z</time>
      </trkpt>
      <trkpt lat="64.41394" lon="11.48571">
        <ele>102.07752</ele>
        <time>2020-08-10T13:35:25.739Z</time>
      </trkpt>
      <trkpt lat="64.41401" lon="11.48585">
        <ele>102.263919</ele>
        <time>2020-08-10T13:35:29.780Z</time>
      </trkpt>
      <trkpt lat="64.4141" lon="11.48598">
        <ele>102.463338</ele>
        <time>2020-08-10T13:35:33.746Z</time>
      </trkpt>
      <trkpt lat="64.41418" lon="11.48609">
        <ele>102.635352</ele>
        <time>2020-08-10T13:35:37.747Z</time>
      </trkpt>
      <trkpt lat="64.41427" lon="11.48622">
        <ele>102.758268</ele>
        <time>2020-08-10T13:35:41.734Z</time>
      </trkpt>
      <trkpt lat="64.41436" lon="11.48633">
        <ele>102.88348</ele>
        <time>2020-08-10T13:35:45.748Z</time>
      </trkpt>
      <trkpt lat="64.41446" lon="11.48644">
        <ele>103.016559</ele>
        <time>2020-08-10T13:35:49.738Z</time>
      </trkpt>
      <trkpt lat="64.41455" lon="11.48657">
        <ele>103.148004</ele>
        <time>2020-08-10T13:35:53.742Z</time>
      </trkpt>
      <trkpt lat="64.41464" lon="11.48673">
        <ele>103.287278</ele>
        <time>2020-08-10T13:35:57.723Z</time>
      </trkpt>
      <trkpt lat="64.41474" lon="11.48685">
        <ele>103.421443</ele>
        <time>2020-08-10T13:36:01.738Z</time>
      </trkpt>
      <trkpt lat="64.41484" lon="11.48698">
        <ele>103.558646</ele>
        <time>2020-08-10T13:36:05.779Z</time>
      </trkpt>
      <trkpt lat="64.41495" lon="11.4871">
        <ele>103.697066</ele>
        <time>2020-08-10T13:36:09.736Z</time>
      </trkpt>
      <trkpt lat="64.41505" lon="11.48721">
        <ele>103.831459</ele>
        <time>2020-08-10T13:36:13.745Z</time>
      </trkpt>
      <trkpt lat="64.41514" lon="11.48736">
        <ele>103.966758</ele>
        <time>2020-08-10T13:36:17.741Z</time>
      </trkpt>
      <trkpt lat="64.41523" lon="11.48749">
        <ele>104.100569</ele>
        <time>2020-08-10T13:36:21.735Z</time>
      </trkpt>
      <trkpt lat="64.41532" lon="11.48763">
        <ele>104.232398</ele>
        <time>2020-08-10T13:36:25.752Z</time>
      </trkpt>
      <trkpt lat="64.41541" lon="11.48775">
        <ele>104.35736</ele>
        <time>2020-08-10T13:36:29.790Z</time>
      </trkpt>
      <trkpt lat="64.4155" lon="11.48788">
        <ele>104.48631</ele>
        <time>2020-08-10T13:36:33.788Z</time>
      </trkpt>
      <trkpt lat="64.4156" lon="11.48802">
        <ele>104.618817</ele>
        <time>2020-08-10T13:36:37.761Z</time>
      </trkpt>
      <trkpt lat="64.41569" lon="11.48816">
        <ele>104.754657</ele>
        <time>2020-08-10T13:36:41.724Z</time>
      </trkpt>
      <trkpt lat="64.41579" lon="11.48831">
        <ele>104.805707</ele>
        <time>2020-08-10T13:36:45.752Z</time>
      </trkpt>
      <trkpt lat="64.41588" lon="11.48845">
        <ele>104.84314</ele>
        <time>2020-08-10T13:36:49.741Z</time>
      </trkpt>
      <trkpt lat="64.41597" lon="11.48859">
        <ele>104.880977</ele>
        <time>2020-08-10T13:36:53.745Z</time>
      </trkpt>
      <trkpt lat="64.41606" lon="11.48872">
        <ele>104.916093</ele>
        <time>2020-08-10T13:36:57.755Z</time>
      </trkpt>
      <trkpt lat="64.41616" lon="11.48882">
        <ele>104.951644</ele>
        <time>2020-08-10T13:37:01.763Z</time>
      </trkpt>
      <trkpt lat="64.41624" lon="11.48893">
        <ele>104.982197</ele>
        <time>2020-08-10T13:37:04.735Z</time>
      </trkpt>
      <trkpt lat="64.41632" lon="11.48904">
        <ele>105.014132</ele>
        <time>2020-08-10T13:37:07.835Z</time>
      </trkpt>
      <trkpt lat="64.41641" lon="11.48915">
        <ele>105.048028</ele>
        <time>2020-08-10T13:37:10.759Z</time>
      </trkpt>
      <trkpt lat="64.4165" lon="11.48925">
        <ele>105.082715</ele>
        <time>2020-08-10T13:37:13.744Z</time>
      </trkpt>
      <trkpt lat="64.41661" lon="11.48935">
        <ele>105.12104</ele>
        <time>2020-08-10T13:37:16.754Z</time>
      </trkpt>
      <trkpt lat="64.41672" lon="11.48944">
        <ele>105.159115</ele>
        <time>2020-08-10T13:37:19.731Z</time>
      </trkpt>
      <trkpt lat="64.41683" lon="11.48951">
        <ele>105.198518</ele>
        <time>2020-08-10T13:37:22.749Z</time>
      </trkpt>
      <trkpt lat="64.41695" lon="11.48956">
        <ele>105.239208</ele>
        <time>2020-08-10T13:37:25.746Z</time>
      </trkpt>
      <trkpt lat="64.41707" lon="11.4896">
        <ele>105.278785</ele>
        <time>2020-08-10T13:37:28.739Z</time>
      </trkpt>
      <trkpt lat="64.41719" lon="11.48962">
        <ele>105.319853</ele>
        <time>2020-08-10T13:37:31.744Z</time>
      </trkpt>
      <trkpt lat="64.41731" lon="11.48962">
        <ele>105.359421</ele>
        <time>2020-08-10T13:37:34.722Z</time>
      </trkpt>
      <trkpt lat="64.41743" lon="11.4896">
        <ele>105.472524</ele>
        <time>2020-08-10T13:37:37.735Z</time>
      </trkpt>
      <trkpt lat="64.41756" lon="11.48959">
        <ele>105.636534</ele>
        <time>2020-08-10T13:37:40.753Z</time>
      </trkpt>
      <trkpt lat="64.41768" lon="11.48959">
        <ele>105.776943</ele>
        <time>2020-08-10T13:37:43.764Z</time>
      </trkpt>
      <trkpt lat="64.41778" lon="11.48957">
        <ele>105.906506</ele>
        <time>2020-08-10T13:37:46.741Z</time>
      </trkpt>
      <trkpt lat="64.41788" lon="11.48958">
        <ele>106.030934</ele>
        <time>2020-08-10T13:37:49.734Z</time>
      </trkpt>
      <trkpt lat="64.41798" lon="11.4896">
        <ele>106.150344</ele>
        <time>2020-08-10T13:37:52.734Z</time>
      </trkpt>
      <trkpt lat="64.41807" lon="11.48958">
        <ele>106.265046</ele>
        <time>2020-08-10T13:37:55.746Z</time>
      </trkpt>
      <trkpt lat="64.41817" lon="11.48957">
        <ele>106.394303</ele>
        <time>2020-08-10T13:37:59.741Z</time>
      </trkpt>
      <trkpt lat="64.41827" lon="11.48957">
        <ele>106.521031</ele>
        <time>2020-08-10T13:38:03.757Z</time>
      </trkpt>
      <trkpt lat="64.41837" lon="11.48956">
        <ele>106.640393</ele>
        <time>2020-08-10T13:38:07.772Z</time>
      </trkpt>
      <trkpt lat="64.41848" lon="11.48957">
        <ele>106.77334</ele>
        <time>2020-08-10T13:38:11.742Z</time>
      </trkpt>
      <trkpt lat="64.41859" lon="11.48957">
        <ele>106.91</ele>
        <time>2020-08-10T13:38:15.737Z</time>
      </trkpt>
      <trkpt lat="64.41869" lon="11.48958">
        <ele>107.036855</ele>
        <time>2020-08-10T13:38:19.766Z</time>
      </trkpt>
      <trkpt lat="64.41879" lon="11.48958">
        <ele>107.157405</ele>
        <time>2020-08-10T13:38:23.795Z</time>
      </trkpt>
      <trkpt lat="64.41889" lon="11.48959">
        <ele>107.281754</ele>
        <time>2020-08-10T13:38:27.728Z</time>
      </trkpt>
      <trkpt lat="64.41899" lon="11.48959">
        <ele>107.40723</ele>
        <time>2020-08-10T13:38:31.777Z</time>
      </trkpt>
      <trkpt lat="64.41908" lon="11.48957">
        <ele>107.527938</ele>
        <time>2020-08-10T13:38:35.766Z</time>
      </trkpt>
      <trkpt lat="64.4192" lon="11.48957">
        <ele>107.61746</ele>
        <time>2020-08-10T13:38:39.800Z</time>
      </trkpt>
      <trkpt lat="64.4193" lon="11.48957">
        <ele>107.632782</ele>
        <time>2020-08-10T13:38:42.738Z</time>
      </trkpt>
      <trkpt lat="64.4194" lon="11.48956">
        <ele>107.64795</ele>
        <time>2020-08-10T13:38:45.782Z</time>
      </trkpt>
      <trkpt lat="64.41951" lon="11.48956">
        <ele>107.663728</ele>
        <time>2020-08-10T13:38:48.777Z</time>
      </trkpt>
      <trkpt lat="64.41962" lon="11.48954">
        <ele>107.681039</ele>
        <time>2020-08-10T13:38:51.777Z</time>
      </trkpt>
      <trkpt lat="64.41974" lon="11.48952">
        <ele>107.699615</ele>
        <time>2020-08-10T13:38:54.746Z</time>
      </trkpt>
      <trkpt lat="64.41987" lon="11.48951">
        <ele>107.718596</ele>
        <time>2020-08-10T13:38:57.761Z</time>
      </trkpt>
      <trkpt lat="64.41996" lon="11.48951">
        <ele>107.7324</ele>
        <time>2020-08-10T13:38:59.739Z</time>
      </trkpt>
      <trkpt lat="64.42009" lon="11.48953">
        <ele>107.752316</ele>
        <time>2020-08-10T13:39:02.744Z</time>
      </trkpt>
      <trkpt lat="64.42022" lon="11.48954">
        <ele>107.772499</ele>
        <time>2020-08-10T13:39:05.776Z</time>
      </trkpt>
      <trkpt lat="64.42032" lon="11.48955">
        <ele>107.787824</ele>
        <time>2020-08-10T13:39:07.729Z</time>
      </trkpt>
      <trkpt lat="64.42043" lon="11.48956">
        <ele>107.803469</ele>
        <time>2020-08-10T13:39:09.740Z</time>
      </trkpt>
      <trkpt lat="64.42053" lon="11.48958">
        <ele>107.818861</ele>
        <time>2020-08-10T13:39:11.740Z</time>
      </trkpt>
      <trkpt lat="64.42063" lon="11.48962">
        <ele>107.834552</ele>
        <time>2020-08-10T13:39:13.751Z</time>
      </trkpt>
      <trkpt lat="64.42072" lon="11.48968">
        <ele>107.849013</ele>
        <time>2020-08-10T13:39:15.744Z</time>
      </trkpt>
      <trkpt lat="64.42081" lon="11.48974">
        <ele>107.862907</ele>
        <time>2020-08-10T13:39:17.738Z</time>
      </trkpt>
      <trkpt lat="64.42093" lon="11.48984">
        <ele>107.882306</ele>
        <time>2020-08-10T13:39:20.757Z</time>
      </trkpt>
      <trkpt lat="64.42105" lon="11.48993">
        <ele>108.243228</ele>
        <time>2020-08-10T13:39:23.745Z</time>
      </trkpt>
      <trkpt lat="64.42117" lon="11.48997">
        <ele>108.598074</ele>
        <time>2020-08-10T13:39:26.735Z</time>
      </trkpt>
      <trkpt lat="64.42127" lon="11.49001">
        <ele>108.907585</ele>
        <time>2020-08-10T13:39:29.747Z</time>
      </trkpt>
      <trkpt lat="64.42136" lon="11.49007">
        <ele>109.182458</ele>
        <time>2020-08-10T13:39:32.758Z</time>
      </trkpt>
      <trkpt lat="64.42147" lon="11.49014">
        <ele>109.509373</ele>
        <time>2020-08-10T13:39:36.775Z</time>
      </trkpt>
      <trkpt lat="64.42156" lon="11.49022">
        <ele>109.788506</ele>
        <time>2020-08-10T13:39:40.754Z</time>
      </trkpt>
      <trkpt lat="64.42165" lon="11.4903">
        <ele>110.080656</ele>
        <time>2020-08-10T13:39:44.746Z</time>
      </trkpt>
      <trkpt lat="64.42174" lon="11.49037">
        <ele>110.372957</ele>
        <time>2020-08-10T13:39:48.761Z</time>
      </trkpt>
      <trkpt lat="64.42184" lon="11.49045">
        <ele>110.665679</ele>
        <time>2020-08-10T13:39:52.761Z</time>
      </trkpt>
      <trkpt lat="64.42195" lon="11.49051">
        <ele>111.003463</ele>
        <time>2020-08-10T13:39:56.739Z</time>
      </trkpt>
      <trkpt lat="64.42206" lon="11.49058">
        <ele>111.335208</ele>
        <time>2020-08-10T13:40:00.734Z</time>
      </trkpt>
      <trkpt lat="64.42215" lon="11.49063">
        <ele>111.599786</ele>
        <time>2020-08-10T13:40:03.736Z</time>
      </trkpt>
      <trkpt lat="64.42224" lon="11.49067">
        <ele>111.866195</ele>
        <time>2020-08-10T13:40:06.738Z</time>
      </trkpt>
      <trkpt lat="64.42235" lon="11.49072">
        <ele>112.220341</ele>
        <time>2020-08-10T13:40:10.756Z</time>
      </trkpt>
      <trkpt lat="64.42245" lon="11.49076">
        <ele>112.51108</ele>
        <time>2020-08-10T13:40:13.746Z</time>
      </trkpt>
      <trkpt lat="64.42255" lon="11.49081">
        <ele>112.798567</ele>
        <time>2020-08-10T13:40:16.739Z</time>
      </trkpt>
      <trkpt lat="64.42265" lon="11.49085">
        <ele>113.10111</ele>
        <time>2020-08-10T13:40:19.736Z</time>
      </trkpt>
      <trkpt lat="64.42276" lon="11.49086">
        <ele>112.703335</ele>
        <time>2020-08-10T13:40:22.742Z</time>
      </trkpt>
      <trkpt lat="64.42286" lon="11.49083">
        <ele>112.248944</ele>
        <time>2020-08-10T13:40:24.766Z</time>
      </trkpt>
      <trkpt lat="64.42295" lon="11.49078">
        <ele>111.759047</ele>
        <time>2020-08-10T13:40:26.742Z</time>
      </trkpt>
      <trkpt lat="64.42306" lon="11.49073">
        <ele>111.239129</ele>
        <time>2020-08-10T13:40:28.797Z</time>
      </trkpt>
      <trkpt lat="64.42316" lon="11.49068">
        <ele>110.713543</ele>
        <time>2020-08-10T13:40:30.727Z</time>
      </trkpt>
      <trkpt lat="64.42328" lon="11.49062">
        <ele>110.137469</ele>
        <time>2020-08-10T13:40:32.727Z</time>
      </trkpt>
      <trkpt lat="64.42339" lon="11.49057">
        <ele>109.563247</ele>
        <time>2020-08-10T13:40:34.800Z</time>
      </trkpt>
      <trkpt lat="64.42352" lon="11.49051">
        <ele>108.957606</ele>
        <time>2020-08-10T13:40:36.735Z</time>
      </trkpt>
      <trkpt lat="64.42363" lon="11.49045">
        <ele>108.360118</ele>
        <time>2020-08-10T13:40:38.762Z</time>
      </trkpt>
      <trkpt lat="64.42375" lon="11.49039">
        <ele>107.763105</ele>
        <time>2020-08-10T13:40:40.742Z</time>
      </trkpt>
      <trkpt lat="64.42388" lon="11.49033">
        <ele>107.143555</ele>
        <time>2020-08-10T13:40:42.756Z</time>
      </trkpt>
      <trkpt lat="64.42401" lon="11.49027">
        <ele>106.497232</ele>
        <time>2020-08-10T13:40:44.775Z</time>
      </trkpt>
      <trkpt lat="64.42414" lon="11.49019">
        <ele>105.844099</ele>
        <time>2020-08-10T13:40:46.756Z</time>
      </trkpt>
      <trkpt lat="64.42426" lon="11.49006">
        <ele>105.171339</ele>
        <time>2020-08-10T13:40:48.726Z</time>
      </trkpt>
      <trkpt lat="64.42439" lon="11.48998">
        <ele>104.5356</ele>
        <time>2020-08-10T13:40:50.733Z</time>
      </trkpt>
      <trkpt lat="64.42452" lon="11.49002">
        <ele>103.971452</ele>
        <time>2020-08-10T13:40:52.740Z</time>
      </trkpt>
      <trkpt lat="64.42465" lon="11.49005">
        <ele>103.481941</ele>
        <time>2020-08-10T13:40:54.738Z</time>
      </trkpt>
      <trkpt lat="64.42477" lon="11.49003">
        <ele>102.988835</ele>
        <time>2020-08-10T13:40:56.758Z</time>
      </trkpt>
      <trkpt lat="64.4249" lon="11.48997">
        <ele>102.465745</ele>
        <time>2020-08-10T13:40:58.736Z</time>
      </trkpt>
      <trkpt lat="64.42503" lon="11.48991">
        <ele>101.952968</ele>
        <time>2020-08-10T13:41:00.739Z</time>
      </trkpt>
      <trkpt lat="64.42515" lon="11.48986">
        <ele>101.452737</ele>
        <time>2020-08-10T13:41:02.772Z</time>
      </trkpt>
      <trkpt lat="64.42528" lon="11.48981">
        <ele>100.96813</ele>
        <time>2020-08-10T13:41:04.793Z</time>
      </trkpt>
      <trkpt lat="64.4254" lon="11.48976">
        <ele>100.488152</ele>
        <time>2020-08-10T13:41:06.756Z</time>
      </trkpt>
      <trkpt lat="64.42552" lon="11.48971">
        <ele>100.012032</ele>
        <time>2020-08-10T13:41:08.735Z</time>
      </trkpt>
      <trkpt lat="64.42564" lon="11.48967">
        <ele>99.536163</ele>
        <time>2020-08-10T13:41:10.747Z</time>
      </trkpt>
      <trkpt lat="64.42576" lon="11.48963">
        <ele>99.059327</ele>
        <time>2020-08-10T13:41:12.758Z</time>
      </trkpt>
      <trkpt lat="64.42587" lon="11.48959">
        <ele>98.594649</ele>
        <time>2020-08-10T13:41:14.739Z</time>
      </trkpt>
      <trkpt lat="64.42598" lon="11.48955">
        <ele>98.161306</ele>
        <time>2020-08-10T13:41:16.748Z</time>
      </trkpt>
      <trkpt lat="64.42609" lon="11.48952">
        <ele>97.741083</ele>
        <time>2020-08-10T13:41:18.738Z</time>
      </trkpt>
      <trkpt lat="64.4262" lon="11.48947">
        <ele>97.299216</ele>
        <time>2020-08-10T13:41:20.755Z</time>
      </trkpt>
      <trkpt lat="64.42631" lon="11.48944">
        <ele>96.986234</ele>
        <time>2020-08-10T13:41:22.753Z</time>
      </trkpt>
      <trkpt lat="64.42642" lon="11.4894">
        <ele>96.661501</ele>
        <time>2020-08-10T13:41:24.782Z</time>
      </trkpt>
      <trkpt lat="64.42655" lon="11.48933">
        <ele>96.311573</ele>
        <time>2020-08-10T13:41:26.738Z</time>
      </trkpt>
      <trkpt lat="64.42667" lon="11.48929">
        <ele>95.967343</ele>
        <time>2020-08-10T13:41:28.754Z</time>
      </trkpt>
      <trkpt lat="64.4268" lon="11.48925">
        <ele>95.607031</ele>
        <time>2020-08-10T13:41:30.747Z</time>
      </trkpt>
      <trkpt lat="64.42693" lon="11.48919">
        <ele>95.232285</ele>
        <time>2020-08-10T13:41:32.732Z</time>
      </trkpt>
      <trkpt lat="64.42706" lon="11.48912">
        <ele>94.843466</ele>
        <time>2020-08-10T13:41:34.761Z</time>
      </trkpt>
      <trkpt lat="64.4272" lon="11.48907">
        <ele>94.467982</ele>
        <time>2020-08-10T13:41:36.745Z</time>
      </trkpt>
      <trkpt lat="64.42733" lon="11.48905">
        <ele>94.109268</ele>
        <time>2020-08-10T13:41:38.735Z</time>
      </trkpt>
      <trkpt lat="64.42745" lon="11.48903">
        <ele>93.762182</ele>
        <time>2020-08-10T13:41:40.773Z</time>
      </trkpt>
      <trkpt lat="64.42757" lon="11.48902">
        <ele>93.421518</ele>
        <time>2020-08-10T13:41:42.762Z</time>
      </trkpt>
      <trkpt lat="64.42769" lon="11.489">
        <ele>93.091396</ele>
        <time>2020-08-10T13:41:44.749Z</time>
      </trkpt>
      <trkpt lat="64.4278" lon="11.48892">
        <ele>92.763992</ele>
        <time>2020-08-10T13:41:46.730Z</time>
      </trkpt>
      <trkpt lat="64.42791" lon="11.48889">
        <ele>92.4521</ele>
        <time>2020-08-10T13:41:48.739Z</time>
      </trkpt>
      <trkpt lat="64.42803" lon="11.48897">
        <ele>92.074777</ele>
        <time>2020-08-10T13:41:50.775Z</time>
      </trkpt>
      <trkpt lat="64.42815" lon="11.48906">
        <ele>91.643024</ele>
        <time>2020-08-10T13:41:52.736Z</time>
      </trkpt>
      <trkpt lat="64.42828" lon="11.48913">
        <ele>91.215222</ele>
        <time>2020-08-10T13:41:54.750Z</time>
      </trkpt>
      <trkpt lat="64.4284" lon="11.48922">
        <ele>90.777503</ele>
        <time>2020-08-10T13:41:56.731Z</time>
      </trkpt>
      <trkpt lat="64.42852" lon="11.48934">
        <ele>90.322874</ele>
        <time>2020-08-10T13:41:58.760Z</time>
      </trkpt>
      <trkpt lat="64.42865" lon="11.48948">
        <ele>89.848314</ele>
        <time>2020-08-10T13:42:00.760Z</time>
      </trkpt>
      <trkpt lat="64.42879" lon="11.48965">
        <ele>89.324593</ele>
        <time>2020-08-10T13:42:02.757Z</time>
      </trkpt>
      <trkpt lat="64.42893" lon="11.48982">
        <ele>88.770065</ele>
        <time>2020-08-10T13:42:04.756Z</time>
      </trkpt>
      <trkpt lat="64.42908" lon="11.48999">
        <ele>88.201236</ele>
        <time>2020-08-10T13:42:06.738Z</time>
      </trkpt>
      <trkpt lat="64.42923" lon="11.49018">
        <ele>87.632478</ele>
        <time>2020-08-10T13:42:08.727Z</time>
      </trkpt>
      <trkpt lat="64.42938" lon="11.49036">
        <ele>87.072281</ele>
        <time>2020-08-10T13:42:10.740Z</time>
      </trkpt>
      <trkpt lat="64.42952" lon="11.49054">
        <ele>86.534983</ele>
        <time>2020-08-10T13:42:12.747Z</time>
      </trkpt>
      <trkpt lat="64.42965" lon="11.49073">
        <ele>85.955547</ele>
        <time>2020-08-10T13:42:14.739Z</time>
      </trkpt>
      <trkpt lat="64.42977" lon="11.49092">
        <ele>85.304327</ele>
        <time>2020-08-10T13:42:16.731Z</time>
      </trkpt>
      <trkpt lat="64.42989" lon="11.49112">
        <ele>84.667188</ele>
        <time>2020-08-10T13:42:18.775Z</time>
      </trkpt>
      <trkpt lat="64.43" lon="11.49133">
        <ele>84.033737</ele>
        <time>2020-08-10T13:42:20.733Z</time>
      </trkpt>
      <trkpt lat="64.43011" lon="11.49155">
        <ele>83.39999</ele>
        <time>2020-08-10T13:42:22.751Z</time>
      </trkpt>
      <trkpt lat="64.43021" lon="11.49178">
        <ele>82.762941</ele>
        <time>2020-08-10T13:42:24.747Z</time>
      </trkpt>
      <trkpt lat="64.43031" lon="11.49202">
        <ele>82.12853</ele>
        <time>2020-08-10T13:42:26.762Z</time>
      </trkpt>
      <trkpt lat="64.43042" lon="11.49227">
        <ele>81.466143</ele>
        <time>2020-08-10T13:42:28.756Z</time>
      </trkpt>
      <trkpt lat="64.43052" lon="11.49254">
        <ele>80.786957</ele>
        <time>2020-08-10T13:42:30.755Z</time>
      </trkpt>
      <trkpt lat="64.43063" lon="11.49277">
        <ele>80.127405</ele>
        <time>2020-08-10T13:42:32.760Z</time>
      </trkpt>
      <trkpt lat="64.43076" lon="11.49293">
        <ele>79.487171</ele>
        <time>2020-08-10T13:42:34.760Z</time>
      </trkpt>
      <trkpt lat="64.43088" lon="11.49315">
        <ele>78.817973</ele>
        <time>2020-08-10T13:42:36.734Z</time>
      </trkpt>
      <trkpt lat="64.43093" lon="11.4935">
        <ele>78.098871</ele>
        <time>2020-08-10T13:42:38.766Z</time>
      </trkpt>
      <trkpt lat="64.43102" lon="11.49384">
        <ele>77.215657</ele>
        <time>2020-08-10T13:42:40.755Z</time>
      </trkpt>
      <trkpt lat="64.43108" lon="11.49399">
        <ele>76.731274</ele>
        <time>2020-08-10T13:42:41.771Z</time>
      </trkpt>
      <trkpt lat="64.43116" lon="11.49414">
        <ele>76.221312</ele>
        <time>2020-08-10T13:42:42.747Z</time>
      </trkpt>
      <trkpt lat="64.43124" lon="11.4943">
        <ele>75.694874</ele>
        <time>2020-08-10T13:42:43.749Z</time>
      </trkpt>
      <trkpt lat="64.43131" lon="11.49447">
        <ele>75.160995</ele>
        <time>2020-08-10T13:42:44.752Z</time>
      </trkpt>
      <trkpt lat="64.43139" lon="11.49464">
        <ele>74.627116</ele>
        <time>2020-08-10T13:42:45.775Z</time>
      </trkpt>
      <trkpt lat="64.43146" lon="11.49481">
        <ele>74.084932</ele>
        <time>2020-08-10T13:42:46.744Z</time>
      </trkpt>
      <trkpt lat="64.43154" lon="11.49498">
        <ele>73.529792</ele>
        <time>2020-08-10T13:42:47.725Z</time>
      </trkpt>
      <trkpt lat="64.43162" lon="11.49516">
        <ele>72.966331</ele>
        <time>2020-08-10T13:42:48.735Z</time>
      </trkpt>
      <trkpt lat="64.4317" lon="11.49534">
        <ele>72.400759</ele>
        <time>2020-08-10T13:42:49.779Z</time>
      </trkpt>
      <trkpt lat="64.43177" lon="11.49552">
        <ele>71.836209</ele>
        <time>2020-08-10T13:42:50.743Z</time>
      </trkpt>
      <trkpt lat="64.43185" lon="11.4957">
        <ele>71.284211</ele>
        <time>2020-08-10T13:42:51.759Z</time>
      </trkpt>
      <trkpt lat="64.43191" lon="11.49588">
        <ele>70.754228</ele>
        <time>2020-08-10T13:42:52.758Z</time>
      </trkpt>
      <trkpt lat="64.43199" lon="11.49605">
        <ele>70.23811</ele>
        <time>2020-08-10T13:42:53.732Z</time>
      </trkpt>
      <trkpt lat="64.43206" lon="11.49619">
        <ele>69.720841</ele>
        <time>2020-08-10T13:42:54.753Z</time>
      </trkpt>
      <trkpt lat="64.43215" lon="11.49631">
        <ele>69.214354</ele>
        <time>2020-08-10T13:42:55.727Z</time>
      </trkpt>
      <trkpt lat="64.43224" lon="11.49641">
        <ele>69.197443</ele>
        <time>2020-08-10T13:42:56.751Z</time>
      </trkpt>
      <trkpt lat="64.43234" lon="11.49651">
        <ele>69.442907</ele>
        <time>2020-08-10T13:42:57.770Z</time>
      </trkpt>
      <trkpt lat="64.43244" lon="11.49662">
        <ele>69.697571</ele>
        <time>2020-08-10T13:42:58.733Z</time>
      </trkpt>
      <trkpt lat="64.43253" lon="11.49674">
        <ele>69.952747</ele>
        <time>2020-08-10T13:42:59.748Z</time>
      </trkpt>
      <trkpt lat="64.43262" lon="11.49688">
        <ele>70.197076</ele>
        <time>2020-08-10T13:43:00.763Z</time>
      </trkpt>
      <trkpt lat="64.43269" lon="11.49704">
        <ele>70.428106</ele>
        <time>2020-08-10T13:43:01.750Z</time>
      </trkpt>
      <trkpt lat="64.43275" lon="11.49719">
        <ele>70.638102</ele>
        <time>2020-08-10T13:43:02.735Z</time>
      </trkpt>
      <trkpt lat="64.43283" lon="11.49752">
        <ele>71.011128</ele>
        <time>2020-08-10T13:43:04.739Z</time>
      </trkpt>
      <trkpt lat="64.43285" lon="11.4978">
        <ele>71.287425</ele>
        <time>2020-08-10T13:43:06.744Z</time>
      </trkpt>
      <trkpt lat="64.43287" lon="11.49805">
        <ele>71.547844</ele>
        <time>2020-08-10T13:43:09.766Z</time>
      </trkpt>
      <trkpt lat="64.43292" lon="11.49827">
        <ele>71.785144</ele>
        <time>2020-08-10T13:43:14.759Z</time>
      </trkpt>
      <trkpt lat="64.43297" lon="11.49845">
        <ele>72.00552</ele>
        <time>2020-08-10T13:43:21.760Z</time>
      </trkpt>
      <trkpt lat="64.43304" lon="11.49861">
        <ele>72.23686</ele>
        <time>2020-08-10T13:43:28.746Z</time>
      </trkpt>
      <trkpt lat="64.43311" lon="11.49876">
        <ele>72.458068</ele>
        <time>2020-08-10T13:43:34.756Z</time>
      </trkpt>
      <trkpt lat="64.43319" lon="11.49891">
        <ele>72.69475</ele>
        <time>2020-08-10T13:43:41.733Z</time>
      </trkpt>
      <trkpt lat="64.43326" lon="11.49905">
        <ele>72.90854</ele>
        <time>2020-08-10T13:43:47.738Z</time>
      </trkpt>
      <trkpt lat="64.43334" lon="11.49917">
        <ele>73.120979</ele>
        <time>2020-08-10T13:43:53.751Z</time>
      </trkpt>
      <trkpt lat="64.43341" lon="11.49933">
        <ele>73.527757</ele>
        <time>2020-08-10T13:43:59.739Z</time>
      </trkpt>
      <trkpt lat="64.43349" lon="11.49946">
        <ele>74.012441</ele>
        <time>2020-08-10T13:44:05.736Z</time>
      </trkpt>
      <trkpt lat="64.43356" lon="11.49961">
        <ele>74.520094</ele>
        <time>2020-08-10T13:44:11.741Z</time>
      </trkpt>
      <trkpt lat="64.43364" lon="11.49973">
        <ele>74.995765</ele>
        <time>2020-08-10T13:44:17.730Z</time>
      </trkpt>
      <trkpt lat="64.43372" lon="11.49986">
        <ele>75.496618</ele>
        <time>2020-08-10T13:44:23.757Z</time>
      </trkpt>
      <trkpt lat="64.43381" lon="11.49998">
        <ele>76.005261</ele>
        <time>2020-08-10T13:44:29.738Z</time>
      </trkpt>
      <trkpt lat="64.43389" lon="11.50011">
        <ele>76.499643</ele>
        <time>2020-08-10T13:44:35.737Z</time>
      </trkpt>
      <trkpt lat="64.43398" lon="11.50024">
        <ele>77.046009</ele>
        <time>2020-08-10T13:44:41.731Z</time>
      </trkpt>
      <trkpt lat="64.43406" lon="11.50036">
        <ele>77.533398</ele>
        <time>2020-08-10T13:44:46.770Z</time>
      </trkpt>
      <trkpt lat="64.43413" lon="11.50047">
        <ele>77.995817</ele>
        <time>2020-08-10T13:44:51.777Z</time>
      </trkpt>
      <trkpt lat="64.43421" lon="11.50059">
        <ele>78.458003</ele>
        <time>2020-08-10T13:44:55.755Z</time>
      </trkpt>
      <trkpt lat="64.43429" lon="11.50071">
        <ele>78.938272</ele>
        <time>2020-08-10T13:44:59.745Z</time>
      </trkpt>
      <trkpt lat="64.43438" lon="11.50083">
        <ele>79.47114</ele>
        <time>2020-08-10T13:45:03.758Z</time>
      </trkpt>
      <trkpt lat="64.43448" lon="11.50097">
        <ele>80.072231</ele>
        <time>2020-08-10T13:45:07.778Z</time>
      </trkpt>
      <trkpt lat="64.43456" lon="11.50108">
        <ele>80.562138</ele>
        <time>2020-08-10T13:45:10.742Z</time>
      </trkpt>
      <trkpt lat="64.43466" lon="11.50121">
        <ele>81.111517</ele>
        <time>2020-08-10T13:45:13.785Z</time>
      </trkpt>
      <trkpt lat="64.43476" lon="11.50134">
        <ele>81.698297</ele>
        <time>2020-08-10T13:45:16.747Z</time>
      </trkpt>
      <trkpt lat="64.43486" lon="11.50149">
        <ele>82.334726</ele>
        <time>2020-08-10T13:45:19.762Z</time>
      </trkpt>
      <trkpt lat="64.43495" lon="11.5016">
        <ele>82.171556</ele>
        <time>2020-08-10T13:45:21.742Z</time>
      </trkpt>
      <trkpt lat="64.43503" lon="11.50171">
        <ele>81.969563</ele>
        <time>2020-08-10T13:45:23.742Z</time>
      </trkpt>
      <trkpt lat="64.43512" lon="11.50185">
        <ele>81.753339</ele>
        <time>2020-08-10T13:45:25.738Z</time>
      </trkpt>
      <trkpt lat="64.43523" lon="11.50198">
        <ele>81.517825</ele>
        <time>2020-08-10T13:45:27.755Z</time>
      </trkpt>
      <trkpt lat="64.43533" lon="11.50212">
        <ele>81.270544</ele>
        <time>2020-08-10T13:45:29.723Z</time>
      </trkpt>
      <trkpt lat="64.43545" lon="11.50226">
        <ele>81.009928</ele>
        <time>2020-08-10T13:45:31.775Z</time>
      </trkpt>
      <trkpt lat="64.43557" lon="11.5024">
        <ele>80.737106</ele>
        <time>2020-08-10T13:45:33.771Z</time>
      </trkpt>
      <trkpt lat="64.43569" lon="11.50255">
        <ele>80.460951</ele>
        <time>2020-08-10T13:45:35.744Z</time>
      </trkpt>
      <trkpt lat="64.43581" lon="11.5027">
        <ele>80.188842</ele>
        <time>2020-08-10T13:45:37.734Z</time>
      </trkpt>
      <trkpt lat="64.43592" lon="11.50284">
        <ele>79.942833</ele>
        <time>2020-08-10T13:45:39.742Z</time>
      </trkpt>
      <trkpt lat="64.43601" lon="11.50296">
        <ele>79.725923</ele>
        <time>2020-08-10T13:45:41.740Z</time>
      </trkpt>
      <trkpt lat="64.43609" lon="11.50307">
        <ele>79.535251</ele>
        <time>2020-08-10T13:45:43.743Z</time>
      </trkpt>
      <trkpt lat="64.43617" lon="11.50318">
        <ele>79.352115</ele>
        <time>2020-08-10T13:45:45.759Z</time>
      </trkpt>
      <trkpt lat="64.43628" lon="11.50333">
        <ele>79.100497</ele>
        <time>2020-08-10T13:45:48.751Z</time>
      </trkpt>
      <trkpt lat="64.43638" lon="11.50349">
        <ele>78.8524</ele>
        <time>2020-08-10T13:45:51.798Z</time>
      </trkpt>
      <trkpt lat="64.43647" lon="11.50363">
        <ele>79.017617</ele>
        <time>2020-08-10T13:45:54.746Z</time>
      </trkpt>
      <trkpt lat="64.43654" lon="11.50377">
        <ele>79.571294</ele>
        <time>2020-08-10T13:45:57.757Z</time>
      </trkpt>
      <trkpt lat="64.43662" lon="11.50389">
        <ele>80.103259</ele>
        <time>2020-08-10T13:46:00.739Z</time>
      </trkpt>
      <trkpt lat="64.4367" lon="11.50403">
        <ele>80.680953</ele>
        <time>2020-08-10T13:46:04.764Z</time>
      </trkpt>
      <trkpt lat="64.43677" lon="11.50417">
        <ele>81.20647</ele>
        <time>2020-08-10T13:46:08.765Z</time>
      </trkpt>
      <trkpt lat="64.43685" lon="11.5043">
        <ele>81.760447</ele>
        <time>2020-08-10T13:46:13.745Z</time>
      </trkpt>
      <trkpt lat="64.43694" lon="11.50443">
        <ele>82.322157</ele>
        <time>2020-08-10T13:46:18.761Z</time>
      </trkpt>
      <trkpt lat="64.43701" lon="11.50457">
        <ele>82.863706</ele>
        <time>2020-08-10T13:46:23.739Z</time>
      </trkpt>
      <trkpt lat="64.43708" lon="11.50474">
        <ele>83.470321</ele>
        <time>2020-08-10T13:46:29.754Z</time>
      </trkpt>
      <trkpt lat="64.43715" lon="11.50488">
        <ele>83.986072</ele>
        <time>2020-08-10T13:46:34.756Z</time>
      </trkpt>
      <trkpt lat="64.43723" lon="11.50504">
        <ele>84.560065</ele>
        <time>2020-08-10T13:46:40.731Z</time>
      </trkpt>
      <trkpt lat="64.43728" lon="11.50524">
        <ele>85.147439</ele>
        <time>2020-08-10T13:46:46.754Z</time>
      </trkpt>
      <trkpt lat="64.43735" lon="11.50542">
        <ele>85.72369</ele>
        <time>2020-08-10T13:46:52.793Z</time>
      </trkpt>
      <trkpt lat="64.43739" lon="11.50561">
        <ele>86.253503</ele>
        <time>2020-08-10T13:46:57.743Z</time>
      </trkpt>
      <trkpt lat="64.43743" lon="11.50581">
        <ele>86.783438</ele>
        <time>2020-08-10T13:47:02.744Z</time>
      </trkpt>
      <trkpt lat="64.43748" lon="11.50601">
        <ele>87.35574</ele>
        <time>2020-08-10T13:47:07.774Z</time>
      </trkpt>
      <trkpt lat="64.43753" lon="11.5062">
        <ele>87.915396</ele>
        <time>2020-08-10T13:47:12.768Z</time>
      </trkpt>
      <trkpt lat="64.43757" lon="11.5064">
        <ele>88.456249</ele>
        <time>2020-08-10T13:47:17.742Z</time>
      </trkpt>
      <trkpt lat="64.43761" lon="11.5066">
        <ele>88.990448</ele>
        <time>2020-08-10T13:47:22.762Z</time>
      </trkpt>
      <trkpt lat="64.43765" lon="11.50682">
        <ele>89.572337</ele>
        <time>2020-08-10T13:47:28.738Z</time>
      </trkpt>
      <trkpt lat="64.4377" lon="11.50704">
        <ele>90.163386</ele>
        <time>2020-08-10T13:47:34.757Z</time>
      </trkpt>
      <trkpt lat="64.43775" lon="11.50725">
        <ele>90.770173</ele>
        <time>2020-08-10T13:47:40.775Z</time>
      </trkpt>
      <trkpt lat="64.4378" lon="11.50744">
        <ele>91.282937</ele>
        <time>2020-08-10T13:47:45.747Z</time>
      </trkpt>
      <trkpt lat="64.43785" lon="11.50763">
        <ele>91.851818</ele>
        <time>2020-08-10T13:47:51.756Z</time>
      </trkpt>
      <trkpt lat="64.43791" lon="11.50784">
        <ele>92.432238</ele>
        <time>2020-08-10T13:47:58.786Z</time>
      </trkpt>
      <trkpt lat="64.43798" lon="11.50801">
        <ele>93.023785</ele>
        <time>2020-08-10T13:48:04.755Z</time>
      </trkpt>
      <trkpt lat="64.43804" lon="11.5082">
        <ele>93.618628</ele>
        <time>2020-08-10T13:48:10.739Z</time>
      </trkpt>
      <trkpt lat="64.4381" lon="11.50838">
        <ele>94.139074</ele>
        <time>2020-08-10T13:48:15.727Z</time>
      </trkpt>
      <trkpt lat="64.43817" lon="11.50853">
        <ele>94.69511</ele>
        <time>2020-08-10T13:48:20.808Z</time>
      </trkpt>
      <trkpt lat="64.43824" lon="11.5087">
        <ele>95.256928</ele>
        <time>2020-08-10T13:48:25.742Z</time>
      </trkpt>
      <trkpt lat="64.43831" lon="11.50888">
        <ele>95.849286</ele>
        <time>2020-08-10T13:48:30.733Z</time>
      </trkpt>
      <trkpt lat="64.43837" lon="11.50907">
        <ele>96.412934</ele>
        <time>2020-08-10T13:48:35.741Z</time>
      </trkpt>
      <trkpt lat="64.43843" lon="11.50925">
        <ele>96.981436</ele>
        <time>2020-08-10T13:48:40.752Z</time>
      </trkpt>
      <trkpt lat="64.4385" lon="11.5094">
        <ele>97.507044</ele>
        <time>2020-08-10T13:48:45.726Z</time>
      </trkpt>
      <trkpt lat="64.43856" lon="11.50958">
        <ele>98.066309</ele>
        <time>2020-08-10T13:48:50.734Z</time>
      </trkpt>
      <trkpt lat="64.43862" lon="11.50974">
        <ele>98.616308</ele>
        <time>2020-08-10T13:48:54.731Z</time>
      </trkpt>
      <trkpt lat="64.43869" lon="11.50992">
        <ele>99.082479</ele>
        <time>2020-08-10T13:48:58.746Z</time>
      </trkpt>
      <trkpt lat="64.43875" lon="11.51009">
        <ele>98.570054</ele>
        <time>2020-08-10T13:49:02.762Z</time>
      </trkpt>
      <trkpt lat="64.43883" lon="11.51028">
        <ele>97.983493</ele>
        <time>2020-08-10T13:49:06.772Z</time>
      </trkpt>
      <trkpt lat="64.43889" lon="11.51045">
        <ele>97.481135</ele>
        <time>2020-08-10T13:49:09.754Z</time>
      </trkpt>
      <trkpt lat="64.43895" lon="11.51066">
        <ele>96.898376</ele>
        <time>2020-08-10T13:49:12.763Z</time>
      </trkpt>
      <trkpt lat="64.43901" lon="11.51094">
        <ele>96.199759</ele>
        <time>2020-08-10T13:49:15.738Z</time>
      </trkpt>
      <trkpt lat="64.43905" lon="11.51117">
        <ele>95.63669</ele>
        <time>2020-08-10T13:49:17.733Z</time>
      </trkpt>
      <trkpt lat="64.43911" lon="11.51142">
        <ele>94.990462</ele>
        <time>2020-08-10T13:49:19.736Z</time>
      </trkpt>
      <trkpt lat="64.43917" lon="11.51169">
        <ele>94.274514</ele>
        <time>2020-08-10T13:49:21.744Z</time>
      </trkpt>
      <trkpt lat="64.43924" lon="11.51195">
        <ele>93.590067</ele>
        <time>2020-08-10T13:49:23.754Z</time>
      </trkpt>
      <trkpt lat="64.43931" lon="11.51219">
        <ele>92.943639</ele>
        <time>2020-08-10T13:49:25.756Z</time>
      </trkpt>
      <trkpt lat="64.43939" lon="11.51239">
        <ele>92.324435</ele>
        <time>2020-08-10T13:49:27.787Z</time>
      </trkpt>
      <trkpt lat="64.43946" lon="11.51256">
        <ele>91.759926</ele>
        <time>2020-08-10T13:49:29.798Z</time>
      </trkpt>
      <trkpt lat="64.43951" lon="11.51277">
        <ele>91.233794</ele>
        <time>2020-08-10T13:49:31.783Z</time>
      </trkpt>
      <trkpt lat="64.43952" lon="11.51302">
        <ele>90.655289</ele>
        <time>2020-08-10T13:49:33.741Z</time>
      </trkpt>
      <trkpt lat="64.43956" lon="11.5133">
        <ele>89.996073</ele>
        <time>2020-08-10T13:49:35.751Z</time>
      </trkpt>
      <trkpt lat="64.43962" lon="11.51359">
        <ele>89.309949</ele>
        <time>2020-08-10T13:49:37.750Z</time>
      </trkpt>
      <trkpt lat="64.43968" lon="11.51388">
        <ele>88.650664</ele>
        <time>2020-08-10T13:49:39.779Z</time>
      </trkpt>
      <trkpt lat="64.43974" lon="11.51417">
        <ele>87.989107</ele>
        <time>2020-08-10T13:49:41.744Z</time>
      </trkpt>
      <trkpt lat="64.4398" lon="11.51446">
        <ele>87.330159</ele>
        <time>2020-08-10T13:49:43.755Z</time>
      </trkpt>
      <trkpt lat="64.43986" lon="11.51473">
        <ele>86.683096</ele>
        <time>2020-08-10T13:49:45.739Z</time>
      </trkpt>
      <trkpt lat="64.43993" lon="11.515">
        <ele>86.058079</ele>
        <time>2020-08-10T13:49:47.743Z</time>
      </trkpt>
      <trkpt lat="64.43999" lon="11.51526">
        <ele>85.44816</ele>
        <time>2020-08-10T13:49:49.736Z</time>
      </trkpt>
      <trkpt lat="64.44004" lon="11.51553">
        <ele>84.824897</ele>
        <time>2020-08-10T13:49:51.765Z</time>
      </trkpt>
      <trkpt lat="64.44011" lon="11.51581">
        <ele>84.185013</ele>
        <time>2020-08-10T13:49:53.786Z</time>
      </trkpt>
      <trkpt lat="64.44017" lon="11.51608">
        <ele>83.547004</ele>
        <time>2020-08-10T13:49:55.738Z</time>
      </trkpt>
      <trkpt lat="64.44023" lon="11.51636">
        <ele>82.894373</ele>
        <time>2020-08-10T13:49:57.740Z</time>
      </trkpt>
      <trkpt lat="64.4403" lon="11.51665">
        <ele>82.219307</ele>
        <time>2020-08-10T13:49:59.748Z</time>
      </trkpt>
      <trkpt lat="64.44038" lon="11.51694">
        <ele>81.511538</ele>
        <time>2020-08-10T13:50:01.746Z</time>
      </trkpt>
      <trkpt lat="64.44047" lon="11.51722">
        <ele>80.757499</ele>
        <time>2020-08-10T13:50:03.731Z</time>
      </trkpt>
      <trkpt lat="64.44058" lon="11.51748">
        <ele>79.925227</ele>
        <time>2020-08-10T13:50:05.738Z</time>
      </trkpt>
      <trkpt lat="64.4407" lon="11.51773">
        <ele>79.070543</ele>
        <time>2020-08-10T13:50:07.739Z</time>
      </trkpt>
      <trkpt lat="64.44084" lon="11.51796">
        <ele>78.179092</ele>
        <time>2020-08-10T13:50:09.762Z</time>
      </trkpt>
      <trkpt lat="64.44098" lon="11.51818">
        <ele>77.263568</ele>
        <time>2020-08-10T13:50:11.731Z</time>
      </trkpt>
      <trkpt lat="64.44113" lon="11.5184">
        <ele>76.357494</ele>
        <time>2020-08-10T13:50:13.759Z</time>
      </trkpt>
      <trkpt lat="64.44127" lon="11.51862">
        <ele>75.479084</ele>
        <time>2020-08-10T13:50:15.758Z</time>
      </trkpt>
      <trkpt lat="64.44141" lon="11.51883">
        <ele>74.601926</ele>
        <time>2020-08-10T13:50:17.745Z</time>
      </trkpt>
      <trkpt lat="64.44154" lon="11.51905">
        <ele>73.713373</ele>
        <time>2020-08-10T13:50:19.761Z</time>
      </trkpt>
      <trkpt lat="64.44168" lon="11.51927">
        <ele>72.823005</ele>
        <time>2020-08-10T13:50:21.746Z</time>
      </trkpt>
      <trkpt lat="64.44183" lon="11.51949">
        <ele>71.901095</ele>
        <time>2020-08-10T13:50:23.761Z</time>
      </trkpt>
      <trkpt lat="64.4419" lon="11.51961">
        <ele>71.427042</ele>
        <time>2020-08-10T13:50:24.748Z</time>
      </trkpt>
      <trkpt lat="64.44198" lon="11.51972">
        <ele>70.954252</ele>
        <time>2020-08-10T13:50:25.781Z</time>
      </trkpt>
      <trkpt lat="64.44212" lon="11.51995">
        <ele>70.044993</ele>
        <time>2020-08-10T13:50:27.742Z</time>
      </trkpt>
      <trkpt lat="64.44227" lon="11.52016">
        <ele>69.145658</ele>
        <time>2020-08-10T13:50:29.746Z</time>
      </trkpt>
      <trkpt lat="64.44242" lon="11.52038">
        <ele>68.213616</ele>
        <time>2020-08-10T13:50:31.743Z</time>
      </trkpt>
      <trkpt lat="64.44256" lon="11.52061">
        <ele>67.312736</ele>
        <time>2020-08-10T13:50:33.743Z</time>
      </trkpt>
      <trkpt lat="64.4427" lon="11.52084">
        <ele>66.397635</ele>
        <time>2020-08-10T13:50:35.738Z</time>
      </trkpt>
      <trkpt lat="64.44285" lon="11.52107">
        <ele>65.472074</ele>
        <time>2020-08-10T13:50:37.741Z</time>
      </trkpt>
      <trkpt lat="64.443" lon="11.52126">
        <ele>64.527749</ele>
        <time>2020-08-10T13:50:39.771Z</time>
      </trkpt>
      <trkpt lat="64.44309" lon="11.52134">
        <ele>64.038131</ele>
        <time>2020-08-10T13:50:40.753Z</time>
      </trkpt>
      <trkpt lat="64.44318" lon="11.5214">
        <ele>63.553273</ele>
        <time>2020-08-10T13:50:41.746Z</time>
      </trkpt>
      <trkpt lat="64.44327" lon="11.52144">
        <ele>63.07575</ele>
        <time>2020-08-10T13:50:42.761Z</time>
      </trkpt>
      <trkpt lat="64.44336" lon="11.52146">
        <ele>62.58448</ele>
        <time>2020-08-10T13:50:43.772Z</time>
      </trkpt>
      <trkpt lat="64.44345" lon="11.52146">
        <ele>62.10244</ele>
        <time>2020-08-10T13:50:44.746Z</time>
      </trkpt>
      <trkpt lat="64.44355" lon="11.52145">
        <ele>61.699027</ele>
        <time>2020-08-10T13:50:45.746Z</time>
      </trkpt>
      <trkpt lat="64.44364" lon="11.52142">
        <ele>61.289051</ele>
        <time>2020-08-10T13:50:46.764Z</time>
      </trkpt>
      <trkpt lat="64.44373" lon="11.52138">
        <ele>60.879879</ele>
        <time>2020-08-10T13:50:47.743Z</time>
      </trkpt>
      <trkpt lat="64.4439" lon="11.52128">
        <ele>60.14397</ele>
        <time>2020-08-10T13:50:49.738Z</time>
      </trkpt>
      <trkpt lat="64.44406" lon="11.52119">
        <ele>59.436918</ele>
        <time>2020-08-10T13:50:51.780Z</time>
      </trkpt>
      <trkpt lat="64.44422" lon="11.52109">
        <ele>58.707045</ele>
        <time>2020-08-10T13:50:53.748Z</time>
      </trkpt>
      <trkpt lat="64.44438" lon="11.521">
        <ele>57.987269</ele>
        <time>2020-08-10T13:50:55.751Z</time>
      </trkpt>
      <trkpt lat="64.44455" lon="11.52095">
        <ele>57.260406</ele>
        <time>2020-08-10T13:50:57.737Z</time>
      </trkpt>
      <trkpt lat="64.44472" lon="11.52094">
        <ele>56.532795</ele>
        <time>2020-08-10T13:50:59.738Z</time>
      </trkpt>
      <trkpt lat="64.44487" lon="11.5209">
        <ele>55.854623</ele>
        <time>2020-08-10T13:51:01.753Z</time>
      </trkpt>
      <trkpt lat="64.44499" lon="11.52077">
        <ele>55.275333</ele>
        <time>2020-08-10T13:51:03.772Z</time>
      </trkpt>
      <trkpt lat="64.44506" lon="11.52056">
        <ele>54.800564</ele>
        <time>2020-08-10T13:51:05.758Z</time>
      </trkpt>
      <trkpt lat="64.4451" lon="11.52032">
        <ele>54.325115</ele>
        <time>2020-08-10T13:51:08.781Z</time>
      </trkpt>
      <trkpt lat="64.44513" lon="11.52012">
        <ele>53.908654</ele>
        <time>2020-08-10T13:51:11.737Z</time>
      </trkpt>
      <trkpt lat="64.44522" lon="11.52001">
        <ele>53.48589</ele>
        <time>2020-08-10T13:51:15.762Z</time>
      </trkpt>
      <trkpt lat="64.44531" lon="11.5201">
        <ele>53.058778</ele>
        <time>2020-08-10T13:51:17.728Z</time>
      </trkpt>
      <trkpt lat="64.44541" lon="11.52021">
        <ele>52.581126</ele>
        <time>2020-08-10T13:51:19.750Z</time>
      </trkpt>
      <trkpt lat="64.44552" lon="11.52036">
        <ele>52.016443</ele>
        <time>2020-08-10T13:51:21.738Z</time>
      </trkpt>
      <trkpt lat="64.44561" lon="11.5206">
        <ele>51.411277</ele>
        <time>2020-08-10T13:51:23.748Z</time>
      </trkpt>
      <trkpt lat="64.44567" lon="11.52095">
        <ele>50.706682</ele>
        <time>2020-08-10T13:51:25.739Z</time>
      </trkpt>
      <trkpt lat="64.44569" lon="11.52133">
        <ele>49.964817</ele>
        <time>2020-08-10T13:51:27.737Z</time>
      </trkpt>
      <trkpt lat="64.44571" lon="11.52173">
        <ele>49.216639</ele>
        <time>2020-08-10T13:51:29.732Z</time>
      </trkpt>
      <trkpt lat="64.44579" lon="11.5221">
        <ele>48.43125</ele>
        <time>2020-08-10T13:51:31.723Z</time>
      </trkpt>
      <trkpt lat="64.44591" lon="11.52232">
        <ele>47.767804</ele>
        <time>2020-08-10T13:51:33.723Z</time>
      </trkpt>
      <trkpt lat="64.44602" lon="11.52233">
        <ele>47.280891</ele>
        <time>2020-08-10T13:51:35.726Z</time>
      </trkpt>
      <trkpt lat="64.44613" lon="11.52222">
        <ele>46.735259</ele>
        <time>2020-08-10T13:51:38.727Z</time>
      </trkpt>
      <trkpt lat="64.44623" lon="11.52219">
        <ele>46.411858</ele>
        <time>2020-08-10T13:51:41.760Z</time>
      </trkpt>
      <trkpt lat="64.44633" lon="11.52229">
        <ele>46.200346</ele>
        <time>2020-08-10T13:51:44.720Z</time>
      </trkpt>
      <trkpt lat="64.44645" lon="11.52243">
        <ele>45.948039</ele>
        <time>2020-08-10T13:51:47.738Z</time>
      </trkpt>
      <trkpt lat="64.44655" lon="11.52253">
        <ele>45.756595</ele>
        <time>2020-08-10T13:51:49.765Z</time>
      </trkpt>
      <trkpt lat="64.44665" lon="11.52263">
        <ele>45.556122</ele>
        <time>2020-08-10T13:51:51.745Z</time>
      </trkpt>
      <trkpt lat="64.44676" lon="11.52274">
        <ele>45.330987</ele>
        <time>2020-08-10T13:51:53.731Z</time>
      </trkpt>
      <trkpt lat="64.44688" lon="11.52284">
        <ele>45.094128</ele>
        <time>2020-08-10T13:51:55.745Z</time>
      </trkpt>
      <trkpt lat="64.447" lon="11.52295">
        <ele>44.846601</ele>
        <time>2020-08-10T13:51:57.725Z</time>
      </trkpt>
      <trkpt lat="64.44713" lon="11.52307">
        <ele>44.592455</ele>
        <time>2020-08-10T13:51:59.736Z</time>
      </trkpt>
      <trkpt lat="64.44726" lon="11.52318">
        <ele>44.336005</ele>
        <time>2020-08-10T13:52:01.751Z</time>
      </trkpt>
      <trkpt lat="64.44739" lon="11.52329">
        <ele>44.084083</ele>
        <time>2020-08-10T13:52:03.730Z</time>
      </trkpt>
      <trkpt lat="64.44752" lon="11.52337">
        <ele>43.835737</ele>
        <time>2020-08-10T13:52:05.723Z</time>
      </trkpt>
      <trkpt lat="64.44765" lon="11.52346">
        <ele>43.587606</ele>
        <time>2020-08-10T13:52:07.745Z</time>
      </trkpt>
      <trkpt lat="64.44778" lon="11.52352">
        <ele>43.340601</ele>
        <time>2020-08-10T13:52:09.736Z</time>
      </trkpt>
      <trkpt lat="64.44791" lon="11.52359">
        <ele>43.068905</ele>
        <time>2020-08-10T13:52:11.736Z</time>
      </trkpt>
      <trkpt lat="64.44804" lon="11.52364">
        <ele>42.723081</ele>
        <time>2020-08-10T13:52:13.768Z</time>
      </trkpt>
      <trkpt lat="64.44818" lon="11.52368">
        <ele>42.364259</ele>
        <time>2020-08-10T13:52:15.733Z</time>
      </trkpt>
      <trkpt lat="64.44831" lon="11.5237">
        <ele>42.021822</ele>
        <time>2020-08-10T13:52:17.740Z</time>
      </trkpt>
      <trkpt lat="64.44844" lon="11.52371">
        <ele>41.690773</ele>
        <time>2020-08-10T13:52:19.734Z</time>
      </trkpt>
      <trkpt lat="64.44857" lon="11.52371">
        <ele>41.346887</ele>
        <time>2020-08-10T13:52:21.729Z</time>
      </trkpt>
      <trkpt lat="64.4487" lon="11.5237">
        <ele>41.005405</ele>
        <time>2020-08-10T13:52:23.734Z</time>
      </trkpt>
      <trkpt lat="64.44884" lon="11.52368">
        <ele>40.660565</ele>
        <time>2020-08-10T13:52:25.733Z</time>
      </trkpt>
      <trkpt lat="64.44897" lon="11.52364">
        <ele>40.316913</ele>
        <time>2020-08-10T13:52:27.735Z</time>
      </trkpt>
      <trkpt lat="64.4491" lon="11.5236">
        <ele>39.96729</ele>
        <time>2020-08-10T13:52:29.731Z</time>
      </trkpt>
      <trkpt lat="64.44924" lon="11.52355">
        <ele>39.610339</ele>
        <time>2020-08-10T13:52:31.734Z</time>
      </trkpt>
      <trkpt lat="64.44937" lon="11.52348">
        <ele>39.255183</ele>
        <time>2020-08-10T13:52:33.758Z</time>
      </trkpt>
      <trkpt lat="64.44951" lon="11.52339">
        <ele>38.894629</ele>
        <time>2020-08-10T13:52:35.734Z</time>
      </trkpt>
      <trkpt lat="64.44964" lon="11.5233">
        <ele>38.543191</ele>
        <time>2020-08-10T13:52:37.746Z</time>
      </trkpt>
      <trkpt lat="64.44977" lon="11.52321">
        <ele>38.320118</ele>
        <time>2020-08-10T13:52:39.738Z</time>
      </trkpt>
      <trkpt lat="64.44988" lon="11.52312">
        <ele>38.137977</ele>
        <time>2020-08-10T13:52:41.725Z</time>
      </trkpt>
      <trkpt lat="64.44999" lon="11.52305">
        <ele>37.96885</ele>
        <time>2020-08-10T13:52:43.736Z</time>
      </trkpt>
      <trkpt lat="64.4501" lon="11.52297">
        <ele>37.801455</ele>
        <time>2020-08-10T13:52:45.719Z</time>
      </trkpt>
      <trkpt lat="64.45021" lon="11.52289">
        <ele>37.634823</ele>
        <time>2020-08-10T13:52:47.745Z</time>
      </trkpt>
      <trkpt lat="64.45031" lon="11.52282">
        <ele>37.468738</ele>
        <time>2020-08-10T13:52:49.735Z</time>
      </trkpt>
      <trkpt lat="64.45042" lon="11.52275">
        <ele>37.305696</ele>
        <time>2020-08-10T13:52:51.723Z</time>
      </trkpt>
      <trkpt lat="64.45053" lon="11.52267">
        <ele>37.138106</ele>
        <time>2020-08-10T13:52:53.743Z</time>
      </trkpt>
      <trkpt lat="64.45063" lon="11.52259">
        <ele>36.976383</ele>
        <time>2020-08-10T13:52:55.725Z</time>
      </trkpt>
      <trkpt lat="64.45073" lon="11.52253">
        <ele>36.819031</ele>
        <time>2020-08-10T13:52:57.726Z</time>
      </trkpt>
      <trkpt lat="64.45084" lon="11.52248">
        <ele>36.65725</ele>
        <time>2020-08-10T13:52:59.735Z</time>
      </trkpt>
      <trkpt lat="64.45094" lon="11.52241">
        <ele>36.50226</ele>
        <time>2020-08-10T13:53:01.738Z</time>
      </trkpt>
      <trkpt lat="64.45103" lon="11.52236">
        <ele>36.352252</ele>
        <time>2020-08-10T13:53:03.734Z</time>
      </trkpt>
      <trkpt lat="64.45113" lon="11.52232">
        <ele>36.208434</ele>
        <time>2020-08-10T13:53:05.721Z</time>
      </trkpt>
      <trkpt lat="64.45122" lon="11.52227">
        <ele>36.064022</ele>
        <time>2020-08-10T13:53:07.736Z</time>
      </trkpt>
      <trkpt lat="64.45132" lon="11.52224">
        <ele>35.914927</ele>
        <time>2020-08-10T13:53:09.733Z</time>
      </trkpt>
      <trkpt lat="64.45142" lon="11.52225">
        <ele>35.831759</ele>
        <time>2020-08-10T13:53:11.727Z</time>
      </trkpt>
      <trkpt lat="64.45151" lon="11.5223">
        <ele>35.916892</ele>
        <time>2020-08-10T13:53:13.724Z</time>
      </trkpt>
      <trkpt lat="64.4516" lon="11.52229">
        <ele>35.998329</ele>
        <time>2020-08-10T13:53:15.735Z</time>
      </trkpt>
      <trkpt lat="64.45169" lon="11.52223">
        <ele>36.081981</ele>
        <time>2020-08-10T13:53:17.744Z</time>
      </trkpt>
      <trkpt lat="64.45178" lon="11.52219">
        <ele>36.166724</ele>
        <time>2020-08-10T13:53:19.730Z</time>
      </trkpt>
      <trkpt lat="64.45188" lon="11.52217">
        <ele>36.252043</ele>
        <time>2020-08-10T13:53:21.737Z</time>
      </trkpt>
      <trkpt lat="64.45198" lon="11.52213">
        <ele>36.339643</ele>
        <time>2020-08-10T13:53:23.765Z</time>
      </trkpt>
      <trkpt lat="64.45208" lon="11.52208">
        <ele>36.431631</ele>
        <time>2020-08-10T13:53:25.750Z</time>
      </trkpt>
      <trkpt lat="64.45218" lon="11.52205">
        <ele>36.522144</ele>
        <time>2020-08-10T13:53:27.785Z</time>
      </trkpt>
      <trkpt lat="64.45227" lon="11.52197">
        <ele>36.609626</ele>
        <time>2020-08-10T13:53:29.732Z</time>
      </trkpt>
      <trkpt lat="64.45236" lon="11.52186">
        <ele>36.699005</ele>
        <time>2020-08-10T13:53:31.745Z</time>
      </trkpt>
      <trkpt lat="64.45244" lon="11.52175">
        <ele>36.789028</ele>
        <time>2020-08-10T13:53:33.741Z</time>
      </trkpt>
      <trkpt lat="64.45254" lon="11.52168">
        <ele>36.875686</ele>
        <time>2020-08-10T13:53:35.725Z</time>
      </trkpt>
      <trkpt lat="64.45263" lon="11.52166">
        <ele>36.957442</ele>
        <time>2020-08-10T13:53:37.757Z</time>
      </trkpt>
      <trkpt lat="64.45272" lon="11.52165">
        <ele>37.039988</ele>
        <time>2020-08-10T13:53:39.746Z</time>
      </trkpt>
      <trkpt lat="64.45282" lon="11.52165">
        <ele>37.128536</ele>
        <time>2020-08-10T13:53:41.773Z</time>
      </trkpt>
      <trkpt lat="64.45293" lon="11.5217">
        <ele>37.227916</ele>
        <time>2020-08-10T13:53:43.725Z</time>
      </trkpt>
      <trkpt lat="64.45304" lon="11.52178">
        <ele>37.329204</ele>
        <time>2020-08-10T13:53:45.753Z</time>
      </trkpt>
      <trkpt lat="64.45314" lon="11.52184">
        <ele>37.419833</ele>
        <time>2020-08-10T13:53:47.754Z</time>
      </trkpt>
      <trkpt lat="64.45325" lon="11.52188">
        <ele>37.427719</ele>
        <time>2020-08-10T13:53:49.738Z</time>
      </trkpt>
      <trkpt lat="64.45336" lon="11.52191">
        <ele>37.435624</ele>
        <time>2020-08-10T13:53:51.737Z</time>
      </trkpt>
      <trkpt lat="64.45347" lon="11.52197">
        <ele>37.443583</ele>
        <time>2020-08-10T13:53:53.777Z</time>
      </trkpt>
      <trkpt lat="64.45357" lon="11.52204">
        <ele>37.451191</ele>
        <time>2020-08-10T13:53:55.746Z</time>
      </trkpt>
      <trkpt lat="64.45367" lon="11.52212">
        <ele>37.458856</ele>
        <time>2020-08-10T13:53:57.726Z</time>
      </trkpt>
      <trkpt lat="64.45377" lon="11.52221">
        <ele>37.466347</ele>
        <time>2020-08-10T13:53:59.737Z</time>
      </trkpt>
      <trkpt lat="64.45386" lon="11.52231">
        <ele>37.473888</ele>
        <time>2020-08-10T13:54:01.747Z</time>
      </trkpt>
      <trkpt lat="64.45396" lon="11.52243">
        <ele>37.481375</ele>
        <time>2020-08-10T13:54:03.776Z</time>
      </trkpt>
      <trkpt lat="64.45405" lon="11.52254">
        <ele>37.488826</ele>
        <time>2020-08-10T13:54:05.744Z</time>
      </trkpt>
      <trkpt lat="64.45413" lon="11.52268">
        <ele>37.496225</ele>
        <time>2020-08-10T13:54:07.727Z</time>
      </trkpt>
      <trkpt lat="64.45421" lon="11.52282">
        <ele>37.503509</ele>
        <time>2020-08-10T13:54:09.730Z</time>
      </trkpt>
      <trkpt lat="64.45429" lon="11.52296">
        <ele>37.510641</ele>
        <time>2020-08-10T13:54:11.751Z</time>
      </trkpt>
      <trkpt lat="64.45436" lon="11.5231">
        <ele>37.517489</ele>
        <time>2020-08-10T13:54:13.726Z</time>
      </trkpt>
      <trkpt lat="64.45444" lon="11.52325">
        <ele>37.524375</ele>
        <time>2020-08-10T13:54:15.726Z</time>
      </trkpt>
      <trkpt lat="64.4545" lon="11.52341">
        <ele>37.53114</ele>
        <time>2020-08-10T13:54:17.801Z</time>
      </trkpt>
      <trkpt lat="64.45456" lon="11.52358">
        <ele>37.537905</ele>
        <time>2020-08-10T13:54:19.750Z</time>
      </trkpt>
      <trkpt lat="64.45462" lon="11.52376">
        <ele>37.545138</ele>
        <time>2020-08-10T13:54:21.726Z</time>
      </trkpt>
      <trkpt lat="64.45468" lon="11.52395">
        <ele>37.637983</ele>
        <time>2020-08-10T13:54:23.723Z</time>
      </trkpt>
      <trkpt lat="64.45474" lon="11.52413">
        <ele>37.796714</ele>
        <time>2020-08-10T13:54:25.736Z</time>
      </trkpt>
      <trkpt lat="64.4548" lon="11.52432">
        <ele>37.954898</ele>
        <time>2020-08-10T13:54:27.726Z</time>
      </trkpt>
      <trkpt lat="64.45487" lon="11.5245">
        <ele>38.117059</ele>
        <time>2020-08-10T13:54:29.740Z</time>
      </trkpt>
      <trkpt lat="64.45493" lon="11.52469">
        <ele>38.283249</ele>
        <time>2020-08-10T13:54:31.731Z</time>
      </trkpt>
      <trkpt lat="64.455" lon="11.52488">
        <ele>38.445855</ele>
        <time>2020-08-10T13:54:33.732Z</time>
      </trkpt>
      <trkpt lat="64.45506" lon="11.52505">
        <ele>38.600067</ele>
        <time>2020-08-10T13:54:35.726Z</time>
      </trkpt>
      <trkpt lat="64.45513" lon="11.52522">
        <ele>38.756941</ele>
        <time>2020-08-10T13:54:37.730Z</time>
      </trkpt>
      <trkpt lat="64.4552" lon="11.52539">
        <ele>38.915977</ele>
        <time>2020-08-10T13:54:39.722Z</time>
      </trkpt>
      <trkpt lat="64.45527" lon="11.52555">
        <ele>39.073818</ele>
        <time>2020-08-10T13:54:41.727Z</time>
      </trkpt>
      <trkpt lat="64.45534" lon="11.5257">
        <ele>39.232234</ele>
        <time>2020-08-10T13:54:43.722Z</time>
      </trkpt>
      <trkpt lat="64.45543" lon="11.52584">
        <ele>39.394819</ele>
        <time>2020-08-10T13:54:45.742Z</time>
      </trkpt>
      <trkpt lat="64.4555" lon="11.52601">
        <ele>39.554455</ele>
        <time>2020-08-10T13:54:47.738Z</time>
      </trkpt>
      <trkpt lat="64.45556" lon="11.52618">
        <ele>39.70971</ele>
        <time>2020-08-10T13:54:49.742Z</time>
      </trkpt>
      <trkpt lat="64.45562" lon="11.52635">
        <ele>39.860834</ele>
        <time>2020-08-10T13:54:51.724Z</time>
      </trkpt>
      <trkpt lat="64.45568" lon="11.52652">
        <ele>40.007894</ele>
        <time>2020-08-10T13:54:53.730Z</time>
      </trkpt>
      <trkpt lat="64.45574" lon="11.52669">
        <ele>40.158477</ele>
        <time>2020-08-10T13:54:55.727Z</time>
      </trkpt>
      <trkpt lat="64.4558" lon="11.52685">
        <ele>40.307513</ele>
        <time>2020-08-10T13:54:57.746Z</time>
      </trkpt>
      <trkpt lat="64.45586" lon="11.52701">
        <ele>40.363189</ele>
        <time>2020-08-10T13:54:59.755Z</time>
      </trkpt>
      <trkpt lat="64.45592" lon="11.52718">
        <ele>40.265096</ele>
        <time>2020-08-10T13:55:01.758Z</time>
      </trkpt>
      <trkpt lat="64.45598" lon="11.52733">
        <ele>40.166269</ele>
        <time>2020-08-10T13:55:03.726Z</time>
      </trkpt>
      <trkpt lat="64.45607" lon="11.52756">
        <ele>40.024674</ele>
        <time>2020-08-10T13:55:06.743Z</time>
      </trkpt>
      <trkpt lat="64.45615" lon="11.52778">
        <ele>39.889754</ele>
        <time>2020-08-10T13:55:09.753Z</time>
      </trkpt>
      <trkpt lat="64.45623" lon="11.5279">
        <ele>39.784084</ele>
        <time>2020-08-10T13:55:12.726Z</time>
      </trkpt>
      <trkpt lat="64.45631" lon="11.52778">
        <ele>39.681062</ele>
        <time>2020-08-10T13:55:16.719Z</time>
      </trkpt>
      <trkpt lat="64.45641" lon="11.52766">
        <ele>39.564588</ele>
        <time>2020-08-10T13:55:20.726Z</time>
      </trkpt>
      <trkpt lat="64.4565" lon="11.52769">
        <ele>39.46569</ele>
        <time>2020-08-10T13:55:23.737Z</time>
      </trkpt>
      <trkpt lat="64.4566" lon="11.52774">
        <ele>39.356865</ele>
        <time>2020-08-10T13:55:27.726Z</time>
      </trkpt>
      <trkpt lat="64.45667" lon="11.52791">
        <ele>39.249281</ele>
        <time>2020-08-10T13:55:33.730Z</time>
      </trkpt>
      <trkpt lat="64.45677" lon="11.52795">
        <ele>39.13479</ele>
        <time>2020-08-10T13:55:37.725Z</time>
      </trkpt>
      <trkpt lat="64.45684" lon="11.52781">
        <ele>39.03713</ele>
        <time>2020-08-10T13:55:40.732Z</time>
      </trkpt>
      <trkpt lat="64.45691" lon="11.5276">
        <ele>38.911347</ele>
        <time>2020-08-10T13:55:43.723Z</time>
      </trkpt>
      <trkpt lat="64.45699" lon="11.52741">
        <ele>38.786805</ele>
        <time>2020-08-10T13:55:46.738Z</time>
      </trkpt>
      <trkpt lat="64.45709" lon="11.52721">
        <ele>38.652227</ele>
        <time>2020-08-10T13:55:49.730Z</time>
      </trkpt>
      <trkpt lat="64.45717" lon="11.52702">
        <ele>38.521908</ele>
        <time>2020-08-10T13:55:52.750Z</time>
      </trkpt>
      <trkpt lat="64.45726" lon="11.52682">
        <ele>38.4565</ele>
        <time>2020-08-10T13:55:55.732Z</time>
      </trkpt>
      <trkpt lat="64.45735" lon="11.52664">
        <ele>38.444552</ele>
        <time>2020-08-10T13:55:58.744Z</time>
      </trkpt>
      <trkpt lat="64.45743" lon="11.52646">
        <ele>38.432633</ele>
        <time>2020-08-10T13:56:01.722Z</time>
      </trkpt>
      <trkpt lat="64.45752" lon="11.52627">
        <ele>38.420446</ele>
        <time>2020-08-10T13:56:04.736Z</time>
      </trkpt>
      <trkpt lat="64.45761" lon="11.52608">
        <ele>38.408588</ele>
        <time>2020-08-10T13:56:07.721Z</time>
      </trkpt>
      <trkpt lat="64.4577" lon="11.5259">
        <ele>38.3964</ele>
        <time>2020-08-10T13:56:10.732Z</time>
      </trkpt>
      <trkpt lat="64.45779" lon="11.52572">
        <ele>38.384052</ele>
        <time>2020-08-10T13:56:13.723Z</time>
      </trkpt>
      <trkpt lat="64.45788" lon="11.52554">
        <ele>38.371593</ele>
        <time>2020-08-10T13:56:16.724Z</time>
      </trkpt>
      <trkpt lat="64.45797" lon="11.52536">
        <ele>38.359989</ele>
        <time>2020-08-10T13:56:19.754Z</time>
      </trkpt>
      <trkpt lat="64.45805" lon="11.52519">
        <ele>38.348302</ele>
        <time>2020-08-10T13:56:22.766Z</time>
      </trkpt>
      <trkpt lat="64.45814" lon="11.52502">
        <ele>38.336913</ele>
        <time>2020-08-10T13:56:25.772Z</time>
      </trkpt>
      <trkpt lat="64.45823" lon="11.52487">
        <ele>38.325667</ele>
        <time>2020-08-10T13:56:28.744Z</time>
      </trkpt>
      <trkpt lat="64.45832" lon="11.52471">
        <ele>38.314014</ele>
        <time>2020-08-10T13:56:31.762Z</time>
      </trkpt>
      <trkpt lat="64.45843" lon="11.52457">
        <ele>38.301419</ele>
        <time>2020-08-10T13:56:34.758Z</time>
      </trkpt>
      <trkpt lat="64.45853" lon="11.52442">
        <ele>38.288819</ele>
        <time>2020-08-10T13:56:37.754Z</time>
      </trkpt>
      <trkpt lat="64.45863" lon="11.52429">
        <ele>38.349385</ele>
        <time>2020-08-10T13:56:40.751Z</time>
      </trkpt>
      <trkpt lat="64.45872" lon="11.52418">
        <ele>38.667679</ele>
        <time>2020-08-10T13:56:43.755Z</time>
      </trkpt>
      <trkpt lat="64.45882" lon="11.52407">
        <ele>38.98152</ele>
        <time>2020-08-10T13:56:46.736Z</time>
      </trkpt>
      <trkpt lat="64.45891" lon="11.52395">
        <ele>39.318591</ele>
        <time>2020-08-10T13:56:49.755Z</time>
      </trkpt>
      <trkpt lat="64.45901" lon="11.52384">
        <ele>39.635132</ele>
        <time>2020-08-10T13:56:52.746Z</time>
      </trkpt>
      <trkpt lat="64.45911" lon="11.52373">
        <ele>39.972385</ele>
        <time>2020-08-10T13:56:55.746Z</time>
      </trkpt>
      <trkpt lat="64.45923" lon="11.52363">
        <ele>40.357041</ele>
        <time>2020-08-10T13:56:58.740Z</time>
      </trkpt>
      <trkpt lat="64.45933" lon="11.52353">
        <ele>40.690565</ele>
        <time>2020-08-10T13:57:01.765Z</time>
      </trkpt>
      <trkpt lat="64.45943" lon="11.52344">
        <ele>41.012084</ele>
        <time>2020-08-10T13:57:04.739Z</time>
      </trkpt>
      <trkpt lat="64.45953" lon="11.52333">
        <ele>41.350425</ele>
        <time>2020-08-10T13:57:07.743Z</time>
      </trkpt>
      <trkpt lat="64.45962" lon="11.5232">
        <ele>41.665955</ele>
        <time>2020-08-10T13:57:10.760Z</time>
      </trkpt>
      <trkpt lat="64.4597" lon="11.52308">
        <ele>41.949277</ele>
        <time>2020-08-10T13:57:13.743Z</time>
      </trkpt>
      <trkpt lat="64.4598" lon="11.52297">
        <ele>42.294783</ele>
        <time>2020-08-10T13:57:17.743Z</time>
      </trkpt>
      <trkpt lat="64.45991" lon="11.52286">
        <ele>42.639815</ele>
        <time>2020-08-10T13:57:21.770Z</time>
      </trkpt>
      <trkpt lat="64.46001" lon="11.52278">
        <ele>42.97905</ele>
        <time>2020-08-10T13:57:25.732Z</time>
      </trkpt>
      <trkpt lat="64.46011" lon="11.5227">
        <ele>43.293864</ele>
        <time>2020-08-10T13:57:29.763Z</time>
      </trkpt>
      <trkpt lat="64.4602" lon="11.52262">
        <ele>43.585169</ele>
        <time>2020-08-10T13:57:33.736Z</time>
      </trkpt>
      <trkpt lat="64.46029" lon="11.52255">
        <ele>43.901528</ele>
        <time>2020-08-10T13:57:37.760Z</time>
      </trkpt>
      <trkpt lat="64.46039" lon="11.52246">
        <ele>44.327058</ele>
        <time>2020-08-10T13:57:42.743Z</time>
      </trkpt>
      <trkpt lat="64.46048" lon="11.5224">
        <ele>44.688152</ele>
        <time>2020-08-10T13:57:46.743Z</time>
      </trkpt>
      <trkpt lat="64.46057" lon="11.52232">
        <ele>45.053532</ele>
        <time>2020-08-10T13:57:50.787Z</time>
      </trkpt>
      <trkpt lat="64.46066" lon="11.52224">
        <ele>45.412912</ele>
        <time>2020-08-10T13:57:54.753Z</time>
      </trkpt>
      <trkpt lat="64.46075" lon="11.52215">
        <ele>45.800203</ele>
        <time>2020-08-10T13:57:58.755Z</time>
      </trkpt>
      <trkpt lat="64.46085" lon="11.52208">
        <ele>46.223946</ele>
        <time>2020-08-10T13:58:03.751Z</time>
      </trkpt>
      <trkpt lat="64.46094" lon="11.52202">
        <ele>46.592495</ele>
        <time>2020-08-10T13:58:07.757Z</time>
      </trkpt>
      <trkpt lat="64.46104" lon="11.52195">
        <ele>46.976828</ele>
        <time>2020-08-10T13:58:11.762Z</time>
      </trkpt>
      <trkpt lat="64.46113" lon="11.52188">
        <ele>47.354796</ele>
        <time>2020-08-10T13:58:15.739Z</time>
      </trkpt>
      <trkpt lat="64.46122" lon="11.52181">
        <ele>47.713591</ele>
        <time>2020-08-10T13:58:19.737Z</time>
      </trkpt>
      <trkpt lat="64.46131" lon="11.52172">
        <ele>48.098201</ele>
        <time>2020-08-10T13:58:23.801Z</time>
      </trkpt>
      <trkpt lat="64.46141" lon="11.52163">
        <ele>48.505045</ele>
        <time>2020-08-10T13:58:27.737Z</time>
      </trkpt>
      <trkpt lat="64.46152" lon="11.52155">
        <ele>48.934409</ele>
        <time>2020-08-10T13:58:31.769Z</time>
      </trkpt>
      <trkpt lat="64.46162" lon="11.52146">
        <ele>49.375824</ele>
        <time>2020-08-10T13:58:35.749Z</time>
      </trkpt>
      <trkpt lat="64.46171" lon="11.52139">
        <ele>49.731801</ele>
        <time>2020-08-10T13:58:38.794Z</time>
      </trkpt>
      <trkpt lat="64.46181" lon="11.52131">
        <ele>50.132056</ele>
        <time>2020-08-10T13:58:41.752Z</time>
      </trkpt>
      <trkpt lat="64.46192" lon="11.52121">
        <ele>50.588312</ele>
        <time>2020-08-10T13:58:44.744Z</time>
      </trkpt>
      <trkpt lat="64.46203" lon="11.5211">
        <ele>50.290393</ele>
        <time>2020-08-10T13:58:47.766Z</time>
      </trkpt>
      <trkpt lat="64.46216" lon="11.52101">
        <ele>49.840948</ele>
        <time>2020-08-10T13:58:50.739Z</time>
      </trkpt>
      <trkpt lat="64.46225" lon="11.52094">
        <ele>49.491635</ele>
        <time>2020-08-10T13:58:52.736Z</time>
      </trkpt>
      <trkpt lat="64.46235" lon="11.52087">
        <ele>49.141851</ele>
        <time>2020-08-10T13:58:54.746Z</time>
      </trkpt>
      <trkpt lat="64.46244" lon="11.5208">
        <ele>48.795239</ele>
        <time>2020-08-10T13:58:56.753Z</time>
      </trkpt>
      <trkpt lat="64.46254" lon="11.52072">
        <ele>48.420731</ele>
        <time>2020-08-10T13:58:58.735Z</time>
      </trkpt>
      <trkpt lat="64.46265" lon="11.52063">
        <ele>48.032764</ele>
        <time>2020-08-10T13:59:00.745Z</time>
      </trkpt>
      <trkpt lat="64.46275" lon="11.52055">
        <ele>47.659252</ele>
        <time>2020-08-10T13:59:02.744Z</time>
      </trkpt>
      <trkpt lat="64.46284" lon="11.52047">
        <ele>47.316893</ele>
        <time>2020-08-10T13:59:04.735Z</time>
      </trkpt>
      <trkpt lat="64.46294" lon="11.52038">
        <ele>46.930583</ele>
        <time>2020-08-10T13:59:07.743Z</time>
      </trkpt>
      <trkpt lat="64.46304" lon="11.52029">
        <ele>46.559368</ele>
        <time>2020-08-10T13:59:12.766Z</time>
      </trkpt>
      <trkpt lat="64.46313" lon="11.52023">
        <ele>46.228539</ele>
        <time>2020-08-10T13:59:15.734Z</time>
      </trkpt>
      <trkpt lat="64.46325" lon="11.52012">
        <ele>45.768869</ele>
        <time>2020-08-10T13:59:18.767Z</time>
      </trkpt>
      <trkpt lat="64.46336" lon="11.52009">
        <ele>45.391793</ele>
        <time>2020-08-10T13:59:20.734Z</time>
      </trkpt>
      <trkpt lat="64.46347" lon="11.52009">
        <ele>45.00029</ele>
        <time>2020-08-10T13:59:22.734Z</time>
      </trkpt>
      <trkpt lat="64.46358" lon="11.52008">
        <ele>44.611908</ele>
        <time>2020-08-10T13:59:24.740Z</time>
      </trkpt>
      <trkpt lat="64.46369" lon="11.52002">
        <ele>44.237761</ele>
        <time>2020-08-10T13:59:26.732Z</time>
      </trkpt>
      <trkpt lat="64.46379" lon="11.51993">
        <ele>43.88261</ele>
        <time>2020-08-10T13:59:28.751Z</time>
      </trkpt>
      <trkpt lat="64.46389" lon="11.51982">
        <ele>43.519753</ele>
        <time>2020-08-10T13:59:30.747Z</time>
      </trkpt>
      <trkpt lat="64.46399" lon="11.51972">
        <ele>43.143056</ele>
        <time>2020-08-10T13:59:32.743Z</time>
      </trkpt>
      <trkpt lat="64.4641" lon="11.5196">
        <ele>42.766677</ele>
        <time>2020-08-10T13:59:34.747Z</time>
      </trkpt>
      <trkpt lat="64.4642" lon="11.51947">
        <ele>42.372961</ele>
        <time>2020-08-10T13:59:36.757Z</time>
      </trkpt>
      <trkpt lat="64.46431" lon="11.51933">
        <ele>41.971253</ele>
        <time>2020-08-10T13:59:38.755Z</time>
      </trkpt>
      <trkpt lat="64.4644" lon="11.51919">
        <ele>41.603687</ele>
        <time>2020-08-10T13:59:40.754Z</time>
      </trkpt>
      <trkpt lat="64.46449" lon="11.51905">
        <ele>41.250379</ele>
        <time>2020-08-10T13:59:42.789Z</time>
      </trkpt>
      <trkpt lat="64.46458" lon="11.51891">
        <ele>40.895135</ele>
        <time>2020-08-10T13:59:44.755Z</time>
      </trkpt>
      <trkpt lat="64.46466" lon="11.51877">
        <ele>40.550798</ele>
        <time>2020-08-10T13:59:46.726Z</time>
      </trkpt>
      <trkpt lat="64.46474" lon="11.51863">
        <ele>40.216349</ele>
        <time>2020-08-10T13:59:48.773Z</time>
      </trkpt>
      <trkpt lat="64.46483" lon="11.5185">
        <ele>39.882591</ele>
        <time>2020-08-10T13:59:50.732Z</time>
      </trkpt>
      <trkpt lat="64.4649" lon="11.51835">
        <ele>39.546375</ele>
        <time>2020-08-10T13:59:52.759Z</time>
      </trkpt>
      <trkpt lat="64.46498" lon="11.51818">
        <ele>39.19977</ele>
        <time>2020-08-10T13:59:54.754Z</time>
      </trkpt>
      <trkpt lat="64.46505" lon="11.51802">
        <ele>38.859304</ele>
        <time>2020-08-10T13:59:56.765Z</time>
      </trkpt>
      <trkpt lat="64.46513" lon="11.51785">
        <ele>38.519843</ele>
        <time>2020-08-10T13:59:58.728Z</time>
      </trkpt>
      <trkpt lat="64.4652" lon="11.51766">
        <ele>38.372055</ele>
        <time>2020-08-10T14:00:00.730Z</time>
      </trkpt>
      <trkpt lat="64.46527" lon="11.51748">
        <ele>38.306717</ele>
        <time>2020-08-10T14:00:02.743Z</time>
      </trkpt>
      <trkpt lat="64.46534" lon="11.51731">
        <ele>38.242715</ele>
        <time>2020-08-10T14:00:04.745Z</time>
      </trkpt>
      <trkpt lat="64.46541" lon="11.51714">
        <ele>38.182248</ele>
        <time>2020-08-10T14:00:06.757Z</time>
      </trkpt>
      <trkpt lat="64.46547" lon="11.51697">
        <ele>38.124345</ele>
        <time>2020-08-10T14:00:08.747Z</time>
      </trkpt>
      <trkpt lat="64.46552" lon="11.51679">
        <ele>38.06576</ele>
        <time>2020-08-10T14:00:10.736Z</time>
      </trkpt>
      <trkpt lat="64.46559" lon="11.51653">
        <ele>37.9856</ele>
        <time>2020-08-10T14:00:13.741Z</time>
      </trkpt>
      <trkpt lat="64.46564" lon="11.51635">
        <ele>37.927483</ele>
        <time>2020-08-10T14:00:15.737Z</time>
      </trkpt>
      <trkpt lat="64.46569" lon="11.51616">
        <ele>37.867095</ele>
        <time>2020-08-10T14:00:17.757Z</time>
      </trkpt>
      <trkpt lat="64.46574" lon="11.51595">
        <ele>37.804565</ele>
        <time>2020-08-10T14:00:19.746Z</time>
      </trkpt>
      <trkpt lat="64.46579" lon="11.51575">
        <ele>37.7437</ele>
        <time>2020-08-10T14:00:21.735Z</time>
      </trkpt>
      <trkpt lat="64.46583" lon="11.51555">
        <ele>37.684635</ele>
        <time>2020-08-10T14:00:23.751Z</time>
      </trkpt>
      <trkpt lat="64.46587" lon="11.51535">
        <ele>37.626187</ele>
        <time>2020-08-10T14:00:25.755Z</time>
      </trkpt>
      <trkpt lat="64.4659" lon="11.51514">
        <ele>37.567668</ele>
        <time>2020-08-10T14:00:27.738Z</time>
      </trkpt>
      <trkpt lat="64.46594" lon="11.51493">
        <ele>37.506286</ele>
        <time>2020-08-10T14:00:29.731Z</time>
      </trkpt>
      <trkpt lat="64.46598" lon="11.51469">
        <ele>37.440259</ele>
        <time>2020-08-10T14:00:31.765Z</time>
      </trkpt>
      <trkpt lat="64.46601" lon="11.51447">
        <ele>37.37788</ele>
        <time>2020-08-10T14:00:33.726Z</time>
      </trkpt>
      <trkpt lat="64.46604" lon="11.51425">
        <ele>37.316316</ele>
        <time>2020-08-10T14:00:35.766Z</time>
      </trkpt>
      <trkpt lat="64.46607" lon="11.51403">
        <ele>37.385657</ele>
        <time>2020-08-10T14:00:37.735Z</time>
      </trkpt>
      <trkpt lat="64.4661" lon="11.51383">
        <ele>37.460375</ele>
        <time>2020-08-10T14:00:39.769Z</time>
      </trkpt>
      <trkpt lat="64.46612" lon="11.51361">
        <ele>37.536901</ele>
        <time>2020-08-10T14:00:41.746Z</time>
      </trkpt>
      <trkpt lat="64.46614" lon="11.5134">
        <ele>37.613565</ele>
        <time>2020-08-10T14:00:43.745Z</time>
      </trkpt>
      <trkpt lat="64.46616" lon="11.51319">
        <ele>37.689506</ele>
        <time>2020-08-10T14:00:45.745Z</time>
      </trkpt>
      <trkpt lat="64.46618" lon="11.51297">
        <ele>37.767745</ele>
        <time>2020-08-10T14:00:47.724Z</time>
      </trkpt>
      <trkpt lat="64.46617" lon="11.51274">
        <ele>37.846338</ele>
        <time>2020-08-10T14:00:49.733Z</time>
      </trkpt>
      <trkpt lat="64.46616" lon="11.5125">
        <ele>37.930096</ele>
        <time>2020-08-10T14:00:51.749Z</time>
      </trkpt>
      <trkpt lat="64.46616" lon="11.51227">
        <ele>38.011131</ele>
        <time>2020-08-10T14:00:53.759Z</time>
      </trkpt>
      <trkpt lat="64.46617" lon="11.51204">
        <ele>38.091427</ele>
        <time>2020-08-10T14:00:55.742Z</time>
      </trkpt>
      <trkpt lat="64.46619" lon="11.51183">
        <ele>38.167894</ele>
        <time>2020-08-10T14:00:57.781Z</time>
      </trkpt>
      <trkpt lat="64.46621" lon="11.51161">
        <ele>38.246074</ele>
        <time>2020-08-10T14:00:59.730Z</time>
      </trkpt>
      <trkpt lat="64.46622" lon="11.51139">
        <ele>38.322803</ele>
        <time>2020-08-10T14:01:01.737Z</time>
      </trkpt>
      <trkpt lat="64.46624" lon="11.51116">
        <ele>38.405739</ele>
        <time>2020-08-10T14:01:03.750Z</time>
      </trkpt>
      <trkpt lat="64.46627" lon="11.51093">
        <ele>38.489517</ele>
        <time>2020-08-10T14:01:05.757Z</time>
      </trkpt>
      <trkpt lat="64.4663" lon="11.51072">
        <ele>38.564844</ele>
        <time>2020-08-10T14:01:07.755Z</time>
      </trkpt>
      <trkpt lat="64.46634" lon="11.51048">
        <ele>38.658785</ele>
        <time>2020-08-10T14:01:10.737Z</time>
      </trkpt>
      <trkpt lat="64.4664" lon="11.51028">
        <ele>38.738716</ele>
        <time>2020-08-10T14:01:13.735Z</time>
      </trkpt>
      <trkpt lat="64.46636" lon="11.51009">
        <ele>38.728281</ele>
        <time>2020-08-10T14:01:17.758Z</time>
      </trkpt>
      <trkpt lat="64.4663" lon="11.50991">
        <ele>38.654882</ele>
        <time>2020-08-10T14:01:21.742Z</time>
      </trkpt>
      <trkpt lat="64.46636" lon="11.50971">
        <ele>38.574919</ele>
        <time>2020-08-10T14:01:24.746Z</time>
      </trkpt>
      <trkpt lat="64.46642" lon="11.5095">
        <ele>38.492664</ele>
        <time>2020-08-10T14:01:27.749Z</time>
      </trkpt>
      <trkpt lat="64.46646" lon="11.50926">
        <ele>38.412263</ele>
        <time>2020-08-10T14:01:30.774Z</time>
      </trkpt>
      <trkpt lat="64.46648" lon="11.50902">
        <ele>38.331422</ele>
        <time>2020-08-10T14:01:33.760Z</time>
      </trkpt>
      <trkpt lat="64.46653" lon="11.50882">
        <ele>38.257227</ele>
        <time>2020-08-10T14:01:36.755Z</time>
      </trkpt>
      <trkpt lat="64.4666" lon="11.50866">
        <ele>38.183047</ele>
        <time>2020-08-10T14:01:40.737Z</time>
      </trkpt>
      <trkpt lat="64.46657" lon="11.5084">
        <ele>38.09669</ele>
        <time>2020-08-10T14:01:43.748Z</time>
      </trkpt>
      <trkpt lat="64.46654" lon="11.50812">
        <ele>38.004873</ele>
        <time>2020-08-10T14:01:46.735Z</time>
      </trkpt>
      <trkpt lat="64.46654" lon="11.50784">
        <ele>37.915893</ele>
        <time>2020-08-10T14:01:49.734Z</time>
      </trkpt>
      <trkpt lat="64.46653" lon="11.50756">
        <ele>37.823146</ele>
        <time>2020-08-10T14:01:52.758Z</time>
      </trkpt>
      <trkpt lat="64.46652" lon="11.50725">
        <ele>37.725542</ele>
        <time>2020-08-10T14:01:55.733Z</time>
      </trkpt>
      <trkpt lat="64.46652" lon="11.50694">
        <ele>37.626332</ele>
        <time>2020-08-10T14:01:58.753Z</time>
      </trkpt>
      <trkpt lat="64.46652" lon="11.50674">
        <ele>37.559426</ele>
        <time>2020-08-10T14:02:00.731Z</time>
      </trkpt>
      <trkpt lat="64.4665" lon="11.50644">
        <ele>37.463153</ele>
        <time>2020-08-10T14:02:03.757Z</time>
      </trkpt>
      <trkpt lat="64.4665" lon="11.50623">
        <ele>37.536386</ele>
        <time>2020-08-10T14:02:05.756Z</time>
      </trkpt>
      <trkpt lat="64.4665" lon="11.50601">
        <ele>37.789629</ele>
        <time>2020-08-10T14:02:07.736Z</time>
      </trkpt>
      <trkpt lat="64.46649" lon="11.50579">
        <ele>38.044522</ele>
        <time>2020-08-10T14:02:09.745Z</time>
      </trkpt>
      <trkpt lat="64.46648" lon="11.50557">
        <ele>38.304655</ele>
        <time>2020-08-10T14:02:11.773Z</time>
      </trkpt>
      <trkpt lat="64.46648" lon="11.50536">
        <ele>38.54632</ele>
        <time>2020-08-10T14:02:13.738Z</time>
      </trkpt>
      <trkpt lat="64.46648" lon="11.50507">
        <ele>38.874708</ele>
        <time>2020-08-10T14:02:16.753Z</time>
      </trkpt>
      <trkpt lat="64.46648" lon="11.50481">
        <ele>39.185855</ele>
        <time>2020-08-10T14:02:19.747Z</time>
      </trkpt>
      <trkpt lat="64.46647" lon="11.50459">
        <ele>39.439351</ele>
        <time>2020-08-10T14:02:22.809Z</time>
      </trkpt>
      <trkpt lat="64.46637" lon="11.50448">
        <ele>39.740691</ele>
        <time>2020-08-10T14:02:26.756Z</time>
      </trkpt>
      <trkpt lat="64.46626" lon="11.50448">
        <ele>40.033128</ele>
        <time>2020-08-10T14:02:29.756Z</time>
      </trkpt>
      <trkpt lat="64.46614" lon="11.50447">
        <ele>40.352407</ele>
        <time>2020-08-10T14:02:32.751Z</time>
      </trkpt>
      <trkpt lat="64.46601" lon="11.50447">
        <ele>40.698467</ele>
        <time>2020-08-10T14:02:35.766Z</time>
      </trkpt>
      <trkpt lat="64.46589" lon="11.50446">
        <ele>41.031349</ele>
        <time>2020-08-10T14:02:38.751Z</time>
      </trkpt>
      <trkpt lat="64.46577" lon="11.50446">
        <ele>41.350609</ele>
        <time>2020-08-10T14:02:41.776Z</time>
      </trkpt>
      <trkpt lat="64.46565" lon="11.50445">
        <ele>41.675234</ele>
        <time>2020-08-10T14:02:44.776Z</time>
      </trkpt>
      <trkpt lat="64.46552" lon="11.50443">
        <ele>42.011352</ele>
        <time>2020-08-10T14:02:47.738Z</time>
      </trkpt>
      <trkpt lat="64.4654" lon="11.50441">
        <ele>42.323306</ele>
        <time>2020-08-10T14:02:50.757Z</time>
      </trkpt>
      <trkpt lat="64.46527" lon="11.50437">
        <ele>42.591889</ele>
        <time>2020-08-10T14:02:53.757Z</time>
      </trkpt>
      <trkpt lat="64.46516" lon="11.5043">
        <ele>42.841716</ele>
        <time>2020-08-10T14:02:56.755Z</time>
      </trkpt>
      <trkpt lat="64.46505" lon="11.5042">
        <ele>43.095345</ele>
        <time>2020-08-10T14:02:59.743Z</time>
      </trkpt>
      <trkpt lat="64.46494" lon="11.50409">
        <ele>43.343234</ele>
        <time>2020-08-10T14:03:02.760Z</time>
      </trkpt>
      <trkpt lat="64.46483" lon="11.50399">
        <ele>43.599855</ele>
        <time>2020-08-10T14:03:05.758Z</time>
      </trkpt>
      <trkpt lat="64.46472" lon="11.50389">
        <ele>43.85546</ele>
        <time>2020-08-10T14:03:08.748Z</time>
      </trkpt>
      <trkpt lat="64.46466" lon="11.5037">
        <ele>44.068496</ele>
        <time>2020-08-10T14:03:12.733Z</time>
      </trkpt>
      <trkpt lat="64.46472" lon="11.50349">
        <ele>44.309747</ele>
        <time>2020-08-10T14:03:16.774Z</time>
      </trkpt>
      <trkpt lat="64.4648" lon="11.50339">
        <ele>44.500865</ele>
        <time>2020-08-10T14:03:19.731Z</time>
      </trkpt>
      <trkpt lat="64.46489" lon="11.50331">
        <ele>44.701986</ele>
        <time>2020-08-10T14:03:22.787Z</time>
      </trkpt>
      <trkpt lat="64.46498" lon="11.50324">
        <ele>44.899319</ele>
        <time>2020-08-10T14:03:25.737Z</time>
      </trkpt>
      <trkpt lat="64.46508" lon="11.50317">
        <ele>45.124029</ele>
        <time>2020-08-10T14:03:29.734Z</time>
      </trkpt>
      <trkpt lat="64.46515" lon="11.50304">
        <ele>45.320695</ele>
        <time>2020-08-10T14:03:33.746Z</time>
      </trkpt>
      <trkpt lat="64.46522" lon="11.5029">
        <ele>45.517033</ele>
        <time>2020-08-10T14:03:38.741Z</time>
      </trkpt>
      <trkpt lat="64.46532" lon="11.50278">
        <ele>45.743648</ele>
        <time>2020-08-10T14:03:42.740Z</time>
      </trkpt>
      <trkpt lat="64.46541" lon="11.50268">
        <ele>45.972305</ele>
        <time>2020-08-10T14:03:46.744Z</time>
      </trkpt>
      <trkpt lat="64.46551" lon="11.50263">
        <ele>46.092363</ele>
        <time>2020-08-10T14:03:50.747Z</time>
      </trkpt>
      <trkpt lat="64.46561" lon="11.50247">
        <ele>46.143588</ele>
        <time>2020-08-10T14:04:10.760Z</time>
      </trkpt>
      <trkpt lat="64.46554" lon="11.50232">
        <ele>46.182209</ele>
        <time>2020-08-10T14:04:13.766Z</time>
      </trkpt>
      <trkpt lat="64.46545" lon="11.50219">
        <ele>46.227464</ele>
        <time>2020-08-10T14:04:16.737Z</time>
      </trkpt>
      <trkpt lat="64.46539" lon="11.50202">
        <ele>46.268215</ele>
        <time>2020-08-10T14:04:19.752Z</time>
      </trkpt>
      <trkpt lat="64.46533" lon="11.50185">
        <ele>46.305941</ele>
        <time>2020-08-10T14:04:22.771Z</time>
      </trkpt>
      <trkpt lat="64.46527" lon="11.50166">
        <ele>46.350402</ele>
        <time>2020-08-10T14:04:26.745Z</time>
      </trkpt>
      <trkpt lat="64.46519" lon="11.50154">
        <ele>46.389842</ele>
        <time>2020-08-10T14:04:30.776Z</time>
      </trkpt>
      <trkpt lat="64.4653" lon="11.50158">
        <ele>46.439622</ele>
        <time>2020-08-10T14:16:09.753Z</time>
      </trkpt>
      <trkpt lat="64.4652" lon="11.5015">
        <ele>46.483236</ele>
        <time>2020-08-10T14:16:15.748Z</time>
      </trkpt>
      <trkpt lat="64.46533" lon="11.50151">
        <ele>46.536086</ele>
        <time>2020-08-10T14:19:03.736Z</time>
      </trkpt>
      <trkpt lat="64.4654" lon="11.50132">
        <ele>46.580927</ele>
        <time>2020-08-10T14:19:08.739Z</time>
      </trkpt>
      <trkpt lat="64.46547" lon="11.50116">
        <ele>46.622646</ele>
        <time>2020-08-10T14:19:12.744Z</time>
      </trkpt>
      <trkpt lat="64.46557" lon="11.50098">
        <ele>46.675523</ele>
        <time>2020-08-10T14:19:16.735Z</time>
      </trkpt>
      <trkpt lat="64.46566" lon="11.50082">
        <ele>46.722372</ele>
        <time>2020-08-10T14:19:19.727Z</time>
      </trkpt>
      <trkpt lat="64.46574" lon="11.50069">
        <ele>46.762097</ele>
        <time>2020-08-10T14:19:22.737Z</time>
      </trkpt>
      <trkpt lat="64.46584" lon="11.50054">
        <ele>46.812949</ele>
        <time>2020-08-10T14:19:24.747Z</time>
      </trkpt>
      <trkpt lat="64.46592" lon="11.50043">
        <ele>46.667663</ele>
        <time>2020-08-10T14:19:27.735Z</time>
      </trkpt>
      <trkpt lat="64.466" lon="11.50032">
        <ele>46.47381</ele>
        <time>2020-08-10T14:19:30.721Z</time>
      </trkpt>
      <trkpt lat="64.46608" lon="11.50022">
        <ele>46.277133</ele>
        <time>2020-08-10T14:19:33.742Z</time>
      </trkpt>
      <trkpt lat="64.46619" lon="11.50014">
        <ele>46.033958</ele>
        <time>2020-08-10T14:19:37.731Z</time>
      </trkpt>
      <trkpt lat="64.46628" lon="11.50025">
        <ele>45.825894</ele>
        <time>2020-08-10T14:19:40.744Z</time>
      </trkpt>
      <trkpt lat="64.46634" lon="11.50046">
        <ele>45.592894</ele>
        <time>2020-08-10T14:19:43.735Z</time>
      </trkpt>
      <trkpt lat="64.46635" lon="11.50073">
        <ele>45.346583</ele>
        <time>2020-08-10T14:19:46.742Z</time>
      </trkpt>
      <trkpt lat="64.46636" lon="11.50101">
        <ele>45.089083</ele>
        <time>2020-08-10T14:19:49.736Z</time>
      </trkpt>
      <trkpt lat="64.46637" lon="11.50129">
        <ele>44.834159</ele>
        <time>2020-08-10T14:19:52.734Z</time>
      </trkpt>
      <trkpt lat="64.46639" lon="11.50158">
        <ele>44.563804</ele>
        <time>2020-08-10T14:19:55.741Z</time>
      </trkpt>
      <trkpt lat="64.46641" lon="11.50188">
        <ele>44.285383</ele>
        <time>2020-08-10T14:19:58.740Z</time>
      </trkpt>
      <trkpt lat="64.46643" lon="11.50217">
        <ele>44.010023</ele>
        <time>2020-08-10T14:20:01.759Z</time>
      </trkpt>
      <trkpt lat="64.46644" lon="11.50247">
        <ele>43.734626</ele>
        <time>2020-08-10T14:20:04.743Z</time>
      </trkpt>
      <trkpt lat="64.46644" lon="11.50277">
        <ele>43.463134</ele>
        <time>2020-08-10T14:20:07.736Z</time>
      </trkpt>
      <trkpt lat="64.46645" lon="11.50305">
        <ele>43.20317</ele>
        <time>2020-08-10T14:20:10.735Z</time>
      </trkpt>
      <trkpt lat="64.46646" lon="11.50332">
        <ele>43.12498</ele>
        <time>2020-08-10T14:20:13.743Z</time>
      </trkpt>
      <trkpt lat="64.46647" lon="11.50359">
        <ele>43.951172</ele>
        <time>2020-08-10T14:20:16.734Z</time>
      </trkpt>
      <trkpt lat="64.46649" lon="11.50388">
        <ele>44.826132</ele>
        <time>2020-08-10T14:20:19.737Z</time>
      </trkpt>
      <trkpt lat="64.4665" lon="11.50417">
        <ele>45.711528</ele>
        <time>2020-08-10T14:20:22.738Z</time>
      </trkpt>
      <trkpt lat="64.4665" lon="11.50444">
        <ele>46.523612</ele>
        <time>2020-08-10T14:20:25.744Z</time>
      </trkpt>
      <trkpt lat="64.46651" lon="11.50472">
        <ele>47.381055</ele>
        <time>2020-08-10T14:20:28.753Z</time>
      </trkpt>
      <trkpt lat="64.46652" lon="11.50499">
        <ele>48.224928</ele>
        <time>2020-08-10T14:20:31.738Z</time>
      </trkpt>
      <trkpt lat="64.46653" lon="11.50526">
        <ele>49.056602</ele>
        <time>2020-08-10T14:20:34.732Z</time>
      </trkpt>
      <trkpt lat="64.46654" lon="11.50553">
        <ele>49.855882</ele>
        <time>2020-08-10T14:20:37.734Z</time>
      </trkpt>
      <trkpt lat="64.46654" lon="11.5058">
        <ele>50.674411</ele>
        <time>2020-08-10T14:20:40.737Z</time>
      </trkpt>
      <trkpt lat="64.46654" lon="11.50609">
        <ele>51.562845</ele>
        <time>2020-08-10T14:20:43.741Z</time>
      </trkpt>
      <trkpt lat="64.46655" lon="11.50639">
        <ele>52.485605</ele>
        <time>2020-08-10T14:20:46.770Z</time>
      </trkpt>
      <trkpt lat="64.46656" lon="11.50669">
        <ele>53.406715</ele>
        <time>2020-08-10T14:20:49.742Z</time>
      </trkpt>
      <trkpt lat="64.46657" lon="11.50697">
        <ele>54.243032</ele>
        <time>2020-08-10T14:20:52.734Z</time>
      </trkpt>
      <trkpt lat="64.46658" lon="11.50724">
        <ele>55.068467</ele>
        <time>2020-08-10T14:20:55.730Z</time>
      </trkpt>
      <trkpt lat="64.4666" lon="11.5075">
        <ele>55.508649</ele>
        <time>2020-08-10T14:20:58.736Z</time>
      </trkpt>
      <trkpt lat="64.46661" lon="11.50773">
        <ele>54.823634</ele>
        <time>2020-08-10T14:21:01.755Z</time>
      </trkpt>
      <trkpt lat="64.46663" lon="11.50797">
        <ele>54.121221</ele>
        <time>2020-08-10T14:21:04.754Z</time>
      </trkpt>
      <trkpt lat="64.46665" lon="11.50823">
        <ele>53.385383</ele>
        <time>2020-08-10T14:21:07.736Z</time>
      </trkpt>
      <trkpt lat="64.46666" lon="11.50846">
        <ele>52.704945</ele>
        <time>2020-08-10T14:21:10.735Z</time>
      </trkpt>
      <trkpt lat="64.4667" lon="11.50865">
        <ele>52.109591</ele>
        <time>2020-08-10T14:21:13.742Z</time>
      </trkpt>
      <trkpt lat="64.46677" lon="11.5088">
        <ele>51.465456</ele>
        <time>2020-08-10T14:21:20.732Z</time>
      </trkpt>
      <trkpt lat="64.46688" lon="11.50888">
        <ele>50.749418</ele>
        <time>2020-08-10T14:21:25.740Z</time>
      </trkpt>
      <trkpt lat="64.46698" lon="11.50878">
        <ele>49.999631</ele>
        <time>2020-08-10T14:21:29.741Z</time>
      </trkpt>
      <trkpt lat="64.46708" lon="11.50869">
        <ele>49.308209</ele>
        <time>2020-08-10T14:21:32.734Z</time>
      </trkpt>
      <trkpt lat="64.46717" lon="11.50858">
        <ele>48.641489</ele>
        <time>2020-08-10T14:21:35.742Z</time>
      </trkpt>
      <trkpt lat="64.46723" lon="11.50842">
        <ele>48.02444</ele>
        <time>2020-08-10T14:21:38.750Z</time>
      </trkpt>
      <trkpt lat="64.46725" lon="11.50821">
        <ele>47.401957</ele>
        <time>2020-08-10T14:21:41.740Z</time>
      </trkpt>
      <trkpt lat="64.46724" lon="11.50796">
        <ele>46.695342</ele>
        <time>2020-08-10T14:21:44.774Z</time>
      </trkpt>
      <trkpt lat="64.46722" lon="11.50774">
        <ele>46.062145</ele>
        <time>2020-08-10T14:21:47.736Z</time>
      </trkpt>
      <trkpt lat="64.4672" lon="11.5075">
        <ele>45.360904</ele>
        <time>2020-08-10T14:21:50.743Z</time>
      </trkpt>
      <trkpt lat="64.4672" lon="11.50726">
        <ele>44.665883</ele>
        <time>2020-08-10T14:21:53.743Z</time>
      </trkpt>
      <trkpt lat="64.46719" lon="11.507">
        <ele>43.917663</ele>
        <time>2020-08-10T14:21:56.735Z</time>
      </trkpt>
      <trkpt lat="64.46718" lon="11.50675">
        <ele>43.582264</ele>
        <time>2020-08-10T14:21:59.746Z</time>
      </trkpt>
      <trkpt lat="64.46718" lon="11.50649">
        <ele>43.340984</ele>
        <time>2020-08-10T14:22:02.739Z</time>
      </trkpt>
      <trkpt lat="64.46719" lon="11.50624">
        <ele>43.10356</ele>
        <time>2020-08-10T14:22:05.748Z</time>
      </trkpt>
      <trkpt lat="64.46721" lon="11.50599">
        <ele>42.864649</ele>
        <time>2020-08-10T14:22:08.746Z</time>
      </trkpt>
      <trkpt lat="64.46721" lon="11.50575">
        <ele>42.633134</ele>
        <time>2020-08-10T14:22:11.735Z</time>
      </trkpt>
      <trkpt lat="64.46722" lon="11.50551">
        <ele>42.407411</ele>
        <time>2020-08-10T14:22:14.738Z</time>
      </trkpt>
      <trkpt lat="64.46723" lon="11.5053">
        <ele>42.203522</ele>
        <time>2020-08-10T14:22:17.741Z</time>
      </trkpt>
      <trkpt lat="64.46724" lon="11.50508">
        <ele>41.995886</ele>
        <time>2020-08-10T14:22:20.753Z</time>
      </trkpt>
      <trkpt lat="64.46723" lon="11.50487">
        <ele>41.79757</ele>
        <time>2020-08-10T14:22:23.727Z</time>
      </trkpt>
      <trkpt lat="64.46722" lon="11.50465">
        <ele>41.5859</ele>
        <time>2020-08-10T14:22:27.733Z</time>
      </trkpt>
      <trkpt lat="64.4672" lon="11.50488">
        <ele>41.365046</ele>
        <time>2020-08-10T14:28:08.742Z</time>
      </trkpt>
      <trkpt lat="64.46722" lon="11.50509">
        <ele>41.165452</ele>
        <time>2020-08-10T14:28:13.741Z</time>
      </trkpt>
      <trkpt lat="64.46722" lon="11.50535">
        <ele>40.914929</ele>
        <time>2020-08-10T14:28:18.733Z</time>
      </trkpt>
      <trkpt lat="64.46724" lon="11.50561">
        <ele>40.671124</ele>
        <time>2020-08-10T14:28:23.747Z</time>
      </trkpt>
      <trkpt lat="64.46725" lon="11.50581">
        <ele>40.472035</ele>
        <time>2020-08-10T14:28:26.736Z</time>
      </trkpt>
      <trkpt lat="64.46728" lon="11.50604">
        <ele>40.251292</ele>
        <time>2020-08-10T14:28:27.775Z</time>
      </trkpt>
      <trkpt lat="64.46735" lon="11.50622">
        <ele>40.022039</ele>
        <time>2020-08-10T14:28:30.731Z</time>
      </trkpt>
      <trkpt lat="64.46747" lon="11.50632">
        <ele>39.903394</ele>
        <time>2020-08-10T14:28:33.766Z</time>
      </trkpt>
      <trkpt lat="64.46754" lon="11.50649">
        <ele>40.126124</ele>
        <time>2020-08-10T14:28:36.743Z</time>
      </trkpt>
      <trkpt lat="64.46757" lon="11.50669">
        <ele>40.331666</ele>
        <time>2020-08-10T14:28:39.747Z</time>
      </trkpt>
      <trkpt lat="64.46761" lon="11.50693">
        <ele>40.57012</ele>
        <time>2020-08-10T14:28:43.732Z</time>
      </trkpt>
      <trkpt lat="64.46763" lon="11.50715">
        <ele>40.788785</ele>
        <time>2020-08-10T14:28:47.729Z</time>
      </trkpt>
      <trkpt lat="64.46765" lon="11.50739">
        <ele>41.011457</ele>
        <time>2020-08-10T14:28:52.734Z</time>
      </trkpt>
      <trkpt lat="64.46768" lon="11.50762">
        <ele>41.247724</ele>
        <time>2020-08-10T14:28:57.736Z</time>
      </trkpt>
      <trkpt lat="64.46772" lon="11.50782">
        <ele>41.452278</ele>
        <time>2020-08-10T14:29:02.735Z</time>
      </trkpt>
      <trkpt lat="64.4676" lon="11.50802">
        <ele>41.773934</ele>
        <time>2020-08-10T14:45:13.746Z</time>
      </trkpt>
      <trkpt lat="64.46772" lon="11.50841">
        <ele>42.219446</ele>
        <time>2020-08-10T14:51:22.746Z</time>
      </trkpt>
      <trkpt lat="64.46775" lon="11.50862">
        <ele>42.425087</ele>
        <time>2020-08-10T14:51:27.742Z</time>
      </trkpt>
      <trkpt lat="64.4679" lon="11.50885">
        <ele>42.823742</ele>
        <time>2020-08-10T14:51:32.746Z</time>
      </trkpt>
      <trkpt lat="64.46799" lon="11.50885">
        <ele>43.023141</ele>
        <time>2020-08-10T14:51:35.751Z</time>
      </trkpt>
      <trkpt lat="64.46809" lon="11.50884">
        <ele>43.228974</ele>
        <time>2020-08-10T14:51:38.753Z</time>
      </trkpt>
      <trkpt lat="64.46819" lon="11.50885">
        <ele>43.452514</ele>
        <time>2020-08-10T14:51:41.781Z</time>
      </trkpt>
      <trkpt lat="64.4683" lon="11.50884">
        <ele>43.685105</ele>
        <time>2020-08-10T14:51:44.754Z</time>
      </trkpt>
      <trkpt lat="64.4684" lon="11.50884">
        <ele>43.804609</ele>
        <time>2020-08-10T14:51:47.774Z</time>
      </trkpt>
      <trkpt lat="64.46849" lon="11.5089">
        <ele>43.866511</ele>
        <time>2020-08-10T14:51:50.739Z</time>
      </trkpt>
      <trkpt lat="64.46856" lon="11.50909">
        <ele>43.934701</ele>
        <time>2020-08-10T14:51:53.775Z</time>
      </trkpt>
      <trkpt lat="64.4686" lon="11.50932">
        <ele>44.0008</ele>
        <time>2020-08-10T14:51:56.767Z</time>
      </trkpt>
      <trkpt lat="64.46859" lon="11.50955">
        <ele>44.06483</ele>
        <time>2020-08-10T14:51:59.750Z</time>
      </trkpt>
      <trkpt lat="64.46857" lon="11.50978">
        <ele>44.128594</ele>
        <time>2020-08-10T14:52:02.757Z</time>
      </trkpt>
      <trkpt lat="64.46855" lon="11.50999">
        <ele>44.186568</ele>
        <time>2020-08-10T14:52:05.752Z</time>
      </trkpt>
      <trkpt lat="64.46853" lon="11.5102">
        <ele>44.244424</ele>
        <time>2020-08-10T14:52:08.764Z</time>
      </trkpt>
      <trkpt lat="64.46852" lon="11.51045">
        <ele>44.31264</ele>
        <time>2020-08-10T14:52:11.756Z</time>
      </trkpt>
      <trkpt lat="64.46851" lon="11.51069">
        <ele>44.37636</ele>
        <time>2020-08-10T14:52:14.752Z</time>
      </trkpt>
      <trkpt lat="64.4685" lon="11.51092">
        <ele>44.437354</ele>
        <time>2020-08-10T14:52:17.760Z</time>
      </trkpt>
      <trkpt lat="64.46851" lon="11.51113">
        <ele>44.495064</ele>
        <time>2020-08-10T14:52:20.759Z</time>
      </trkpt>
      <trkpt lat="64.46853" lon="11.51137">
        <ele>44.561876</ele>
        <time>2020-08-10T14:52:24.790Z</time>
      </trkpt>
      <trkpt lat="64.46858" lon="11.51161">
        <ele>44.634185</ele>
        <time>2020-08-10T14:52:28.775Z</time>
      </trkpt>
      <trkpt lat="64.46863" lon="11.51183">
        <ele>44.698491</ele>
        <time>2020-08-10T14:52:31.775Z</time>
      </trkpt>
      <trkpt lat="64.46869" lon="11.51204">
        <ele>44.765279</ele>
        <time>2020-08-10T14:52:34.739Z</time>
      </trkpt>
      <trkpt lat="64.46873" lon="11.51223">
        <ele>44.825338</ele>
        <time>2020-08-10T14:52:37.752Z</time>
      </trkpt>
      <trkpt lat="64.46877" lon="11.51242">
        <ele>44.881533</ele>
        <time>2020-08-10T14:52:40.782Z</time>
      </trkpt>
      <trkpt lat="64.46882" lon="11.51266">
        <ele>45.638474</ele>
        <time>2020-08-10T14:52:44.750Z</time>
      </trkpt>
      <trkpt lat="64.46884" lon="11.51289">
        <ele>46.381314</ele>
        <time>2020-08-10T14:52:49.753Z</time>
      </trkpt>
      <trkpt lat="64.46887" lon="11.51313">
        <ele>47.146145</ele>
        <time>2020-08-10T14:52:55.735Z</time>
      </trkpt>
      <trkpt lat="64.46888" lon="11.51338">
        <ele>47.931627</ele>
        <time>2020-08-10T14:53:01.762Z</time>
      </trkpt>
      <trkpt lat="64.4689" lon="11.5136">
        <ele>48.633604</ele>
        <time>2020-08-10T14:53:07.750Z</time>
      </trkpt>
      <trkpt lat="64.46891" lon="11.5138">
        <ele>49.286185</ele>
        <time>2020-08-10T14:53:13.746Z</time>
      </trkpt>
      <trkpt lat="64.46893" lon="11.51402">
        <ele>49.972006</ele>
        <time>2020-08-10T14:53:20.737Z</time>
      </trkpt>
      <trkpt lat="64.46896" lon="11.51424">
        <ele>50.696971</ele>
        <time>2020-08-10T14:53:26.740Z</time>
      </trkpt>
      <trkpt lat="64.46899" lon="11.51445">
        <ele>51.38467</ele>
        <time>2020-08-10T14:53:32.774Z</time>
      </trkpt>
      <trkpt lat="64.46902" lon="11.51466">
        <ele>52.084041</ele>
        <time>2020-08-10T14:53:38.761Z</time>
      </trkpt>
      <trkpt lat="64.46904" lon="11.51489">
        <ele>52.818179</ele>
        <time>2020-08-10T14:53:45.778Z</time>
      </trkpt>
      <trkpt lat="64.46908" lon="11.51508">
        <ele>53.486866</ele>
        <time>2020-08-10T14:53:51.769Z</time>
      </trkpt>
      <trkpt lat="64.46912" lon="11.51529">
        <ele>54.183297</ele>
        <time>2020-08-10T14:53:56.768Z</time>
      </trkpt>
      <trkpt lat="64.46915" lon="11.5155">
        <ele>54.874866</ele>
        <time>2020-08-10T14:54:02.761Z</time>
      </trkpt>
      <trkpt lat="64.46918" lon="11.51569">
        <ele>55.541564</ele>
        <time>2020-08-10T14:54:09.739Z</time>
      </trkpt>
      <trkpt lat="64.46921" lon="11.51592">
        <ele>56.28289</ele>
        <time>2020-08-10T14:54:16.746Z</time>
      </trkpt>
      <trkpt lat="64.46924" lon="11.51613">
        <ele>56.985629</ele>
        <time>2020-08-10T14:54:22.763Z</time>
      </trkpt>
      <trkpt lat="64.46927" lon="11.51635">
        <ele>57.705418</ele>
        <time>2020-08-10T14:54:27.740Z</time>
      </trkpt>
      <trkpt lat="64.4693" lon="11.51655">
        <ele>58.091046</ele>
        <time>2020-08-10T14:54:32.754Z</time>
      </trkpt>
      <trkpt lat="64.46934" lon="11.51678">
        <ele>58.352277</ele>
        <time>2020-08-10T14:54:38.760Z</time>
      </trkpt>
      <trkpt lat="64.46936" lon="11.517">
        <ele>58.591849</ele>
        <time>2020-08-10T14:54:44.797Z</time>
      </trkpt>
      <trkpt lat="64.46938" lon="11.51721">
        <ele>58.828036</ele>
        <time>2020-08-10T14:54:49.758Z</time>
      </trkpt>
      <trkpt lat="64.4694" lon="11.51743">
        <ele>59.079168</ele>
        <time>2020-08-10T14:54:54.742Z</time>
      </trkpt>
      <trkpt lat="64.46942" lon="11.51766">
        <ele>59.325604</ele>
        <time>2020-08-10T14:54:59.737Z</time>
      </trkpt>
      <trkpt lat="64.46946" lon="11.51787">
        <ele>59.575681</ele>
        <time>2020-08-10T14:55:04.747Z</time>
      </trkpt>
      <trkpt lat="64.4695" lon="11.5181">
        <ele>59.846295</ele>
        <time>2020-08-10T14:55:09.757Z</time>
      </trkpt>
      <trkpt lat="64.46954" lon="11.5183">
        <ele>60.074417</ele>
        <time>2020-08-10T14:55:13.757Z</time>
      </trkpt>
      <trkpt lat="64.46956" lon="11.51852">
        <ele>60.323757</ele>
        <time>2020-08-10T14:55:17.754Z</time>
      </trkpt>
      <trkpt lat="64.46959" lon="11.51874">
        <ele>60.567669</ele>
        <time>2020-08-10T14:55:21.747Z</time>
      </trkpt>
      <trkpt lat="64.46962" lon="11.51896">
        <ele>60.817009</ele>
        <time>2020-08-10T14:55:25.733Z</time>
      </trkpt>
      <trkpt lat="64.46964" lon="11.51919">
        <ele>61.069886</ele>
        <time>2020-08-10T14:55:29.794Z</time>
      </trkpt>
      <trkpt lat="64.46967" lon="11.5194">
        <ele>61.308981</ele>
        <time>2020-08-10T14:55:33.739Z</time>
      </trkpt>
      <trkpt lat="64.46964" lon="11.51963">
        <ele>61.566278</ele>
        <time>2020-08-10T14:55:38.779Z</time>
      </trkpt>
      <trkpt lat="64.46961" lon="11.51986">
        <ele>61.816863</ele>
        <time>2020-08-10T14:55:44.736Z</time>
      </trkpt>
      <trkpt lat="64.46969" lon="11.52001">
        <ele>62.075806</ele>
        <time>2020-08-10T14:55:49.766Z</time>
      </trkpt>
      <trkpt lat="64.46975" lon="11.52017">
        <ele>62.302282</ele>
        <time>2020-08-10T14:55:53.773Z</time>
      </trkpt>
      <trkpt lat="64.46979" lon="11.52038">
        <ele>62.33466</ele>
        <time>2020-08-10T14:55:57.752Z</time>
      </trkpt>
      <trkpt lat="64.46981" lon="11.52058">
        <ele>62.059346</ele>
        <time>2020-08-10T14:56:01.787Z</time>
      </trkpt>
      <trkpt lat="64.46984" lon="11.52081">
        <ele>61.75448</ele>
        <time>2020-08-10T14:56:05.775Z</time>
      </trkpt>
      <trkpt lat="64.46985" lon="11.52091">
        <ele>61.619354</ele>
        <time>2020-08-10T14:56:07.805Z</time>
      </trkpt>
      <trkpt lat="64.4699" lon="11.52115">
        <ele>61.270185</ele>
        <time>2020-08-10T14:56:13.752Z</time>
      </trkpt>
      <trkpt lat="64.46993" lon="11.52136">
        <ele>60.977152</ele>
        <time>2020-08-10T14:56:17.782Z</time>
      </trkpt>
      <trkpt lat="64.46998" lon="11.52162">
        <ele>60.61591</ele>
        <time>2020-08-10T14:56:21.769Z</time>
      </trkpt>
      <trkpt lat="64.47003" lon="11.52184">
        <ele>60.291383</ele>
        <time>2020-08-10T14:56:24.775Z</time>
      </trkpt>
      <trkpt lat="64.47008" lon="11.52209">
        <ele>59.926146</ele>
        <time>2020-08-10T14:56:27.766Z</time>
      </trkpt>
      <trkpt lat="64.47012" lon="11.52236">
        <ele>59.55895</ele>
        <time>2020-08-10T14:56:30.769Z</time>
      </trkpt>
      <trkpt lat="64.47016" lon="11.5226">
        <ele>59.228324</ele>
        <time>2020-08-10T14:56:33.810Z</time>
      </trkpt>
      <trkpt lat="64.47025" lon="11.52272">
        <ele>58.925457</ele>
        <time>2020-08-10T14:56:38.779Z</time>
      </trkpt>
      <trkpt lat="64.47034" lon="11.52282">
        <ele>58.61902</ele>
        <time>2020-08-10T14:56:41.778Z</time>
      </trkpt>
      <trkpt lat="64.47041" lon="11.52299">
        <ele>58.295572</ele>
        <time>2020-08-10T14:56:43.765Z</time>
      </trkpt>
      <trkpt lat="64.4705" lon="11.52316">
        <ele>57.958534</ele>
        <time>2020-08-10T14:56:45.772Z</time>
      </trkpt>
      <trkpt lat="64.47059" lon="11.52335">
        <ele>57.584713</ele>
        <time>2020-08-10T14:56:47.755Z</time>
      </trkpt>
      <trkpt lat="64.4707" lon="11.52355">
        <ele>57.152975</ele>
        <time>2020-08-10T14:56:49.793Z</time>
      </trkpt>
      <trkpt lat="64.47083" lon="11.52379">
        <ele>56.267059</ele>
        <time>2020-08-10T14:56:51.759Z</time>
      </trkpt>
      <trkpt lat="64.47097" lon="11.52405">
        <ele>55.163967</ele>
        <time>2020-08-10T14:56:53.777Z</time>
      </trkpt>
      <trkpt lat="64.47103" lon="11.5242">
        <ele>54.605226</ele>
        <time>2020-08-10T14:56:54.755Z</time>
      </trkpt>
      <trkpt lat="64.4711" lon="11.52436">
        <ele>54.010581</ele>
        <time>2020-08-10T14:56:55.769Z</time>
      </trkpt>
      <trkpt lat="64.47116" lon="11.52453">
        <ele>53.414477</ele>
        <time>2020-08-10T14:56:56.780Z</time>
      </trkpt>
      <trkpt lat="64.47122" lon="11.5247">
        <ele>52.82208</ele>
        <time>2020-08-10T14:56:57.746Z</time>
      </trkpt>
      <trkpt lat="64.47127" lon="11.52487">
        <ele>52.253125</ele>
        <time>2020-08-10T14:56:58.763Z</time>
      </trkpt>
      <trkpt lat="64.47136" lon="11.52521">
        <ele>51.169794</ele>
        <time>2020-08-10T14:57:00.762Z</time>
      </trkpt>
      <trkpt lat="64.47143" lon="11.52556">
        <ele>50.124373</ele>
        <time>2020-08-10T14:57:02.762Z</time>
      </trkpt>
      <trkpt lat="64.4715" lon="11.52588">
        <ele>49.158049</ele>
        <time>2020-08-10T14:57:04.753Z</time>
      </trkpt>
      <trkpt lat="64.47155" lon="11.52619">
        <ele>48.269778</ele>
        <time>2020-08-10T14:57:06.767Z</time>
      </trkpt>
      <trkpt lat="64.47156" lon="11.5265">
        <ele>47.421436</ele>
        <time>2020-08-10T14:57:08.753Z</time>
      </trkpt>
      <trkpt lat="64.47154" lon="11.52677">
        <ele>46.691214</ele>
        <time>2020-08-10T14:57:10.759Z</time>
      </trkpt>
      <trkpt lat="64.47156" lon="11.52699">
        <ele>46.083165</ele>
        <time>2020-08-10T14:57:12.781Z</time>
      </trkpt>
      <trkpt lat="64.47162" lon="11.52717">
        <ele>45.686678</ele>
        <time>2020-08-10T14:57:14.752Z</time>
      </trkpt>
      <trkpt lat="64.47169" lon="11.5273">
        <ele>45.59424</ele>
        <time>2020-08-10T14:57:17.767Z</time>
      </trkpt>
      <trkpt lat="64.47173" lon="11.52751">
        <ele>45.495283</ele>
        <time>2020-08-10T14:57:23.773Z</time>
      </trkpt>
      <trkpt lat="64.47172" lon="11.5278">
        <ele>45.371001</ele>
        <time>2020-08-10T14:57:26.759Z</time>
      </trkpt>
      <trkpt lat="64.47172" lon="11.52808">
        <ele>45.24827</ele>
        <time>2020-08-10T14:57:29.787Z</time>
      </trkpt>
      <trkpt lat="64.47172" lon="11.52832">
        <ele>45.145755</ele>
        <time>2020-08-10T14:57:31.760Z</time>
      </trkpt>
      <trkpt lat="64.47172" lon="11.52856">
        <ele>45.043572</ele>
        <time>2020-08-10T14:57:33.740Z</time>
      </trkpt>
      <trkpt lat="64.47172" lon="11.52878">
        <ele>44.949313</ele>
        <time>2020-08-10T14:57:35.781Z</time>
      </trkpt>
      <trkpt lat="64.47172" lon="11.529">
        <ele>44.854618</ele>
        <time>2020-08-10T14:57:37.775Z</time>
      </trkpt>
      <trkpt lat="64.47173" lon="11.5292">
        <ele>44.764954</ele>
        <time>2020-08-10T14:57:39.787Z</time>
      </trkpt>
      <trkpt lat="64.47173" lon="11.52951">
        <ele>44.63362</ele>
        <time>2020-08-10T14:57:42.772Z</time>
      </trkpt>
      <trkpt lat="64.47174" lon="11.52972">
        <ele>44.543096</ele>
        <time>2020-08-10T14:57:44.783Z</time>
      </trkpt>
      <trkpt lat="64.47174" lon="11.52994">
        <ele>44.449246</ele>
        <time>2020-08-10T14:57:46.781Z</time>
      </trkpt>
      <trkpt lat="64.47174" lon="11.53015">
        <ele>44.355333</ele>
        <time>2020-08-10T14:57:48.790Z</time>
      </trkpt>
      <trkpt lat="64.47175" lon="11.53037">
        <ele>44.261052</ele>
        <time>2020-08-10T14:57:50.757Z</time>
      </trkpt>
      <trkpt lat="64.47174" lon="11.53058">
        <ele>44.170231</ele>
        <time>2020-08-10T14:57:52.806Z</time>
      </trkpt>
      <trkpt lat="64.47174" lon="11.5308">
        <ele>44.078467</ele>
        <time>2020-08-10T14:57:54.807Z</time>
      </trkpt>
      <trkpt lat="64.47173" lon="11.53102">
        <ele>43.980944</ele>
        <time>2020-08-10T14:57:56.769Z</time>
      </trkpt>
      <trkpt lat="64.47173" lon="11.53125">
        <ele>43.895311</ele>
        <time>2020-08-10T14:57:58.788Z</time>
      </trkpt>
      <trkpt lat="64.47171" lon="11.53146">
        <ele>43.823912</ele>
        <time>2020-08-10T14:58:00.759Z</time>
      </trkpt>
      <trkpt lat="64.4717" lon="11.53176">
        <ele>43.720748</ele>
        <time>2020-08-10T14:58:03.777Z</time>
      </trkpt>
      <trkpt lat="64.47168" lon="11.53205">
        <ele>43.624922</ele>
        <time>2020-08-10T14:58:06.756Z</time>
      </trkpt>
      <trkpt lat="64.47167" lon="11.53232">
        <ele>43.531497</ele>
        <time>2020-08-10T14:58:09.794Z</time>
      </trkpt>
      <trkpt lat="64.47165" lon="11.53261">
        <ele>43.434745</ele>
        <time>2020-08-10T14:58:12.764Z</time>
      </trkpt>
      <trkpt lat="64.47164" lon="11.53282">
        <ele>43.36434</ele>
        <time>2020-08-10T14:58:14.756Z</time>
      </trkpt>
      <trkpt lat="64.47163" lon="11.53303">
        <ele>43.294314</ele>
        <time>2020-08-10T14:58:16.767Z</time>
      </trkpt>
      <trkpt lat="64.47162" lon="11.53323">
        <ele>43.224539</ele>
        <time>2020-08-10T14:58:18.771Z</time>
      </trkpt>
      <trkpt lat="64.4716" lon="11.53352">
        <ele>43.12661</ele>
        <time>2020-08-10T14:58:21.774Z</time>
      </trkpt>
      <trkpt lat="64.47159" lon="11.5338">
        <ele>43.03189</ele>
        <time>2020-08-10T14:58:24.767Z</time>
      </trkpt>
      <trkpt lat="64.47156" lon="11.53406">
        <ele>42.943937</ele>
        <time>2020-08-10T14:58:27.761Z</time>
      </trkpt>
      <trkpt lat="64.47154" lon="11.53434">
        <ele>42.848151</ele>
        <time>2020-08-10T14:58:30.768Z</time>
      </trkpt>
      <trkpt lat="64.47152" lon="11.53462">
        <ele>42.753738</ele>
        <time>2020-08-10T14:58:33.773Z</time>
      </trkpt>
      <trkpt lat="64.4715" lon="11.53489">
        <ele>42.6622</ele>
        <time>2020-08-10T14:58:36.771Z</time>
      </trkpt>
      <trkpt lat="64.47147" lon="11.53515">
        <ele>42.572637</ele>
        <time>2020-08-10T14:58:39.779Z</time>
      </trkpt>
      <trkpt lat="64.47145" lon="11.53541">
        <ele>42.9165</ele>
        <time>2020-08-10T14:58:42.754Z</time>
      </trkpt>
      <trkpt lat="64.47143" lon="11.53566">
        <ele>43.558203</ele>
        <time>2020-08-10T14:58:45.778Z</time>
      </trkpt>
      <trkpt lat="64.47141" lon="11.53589">
        <ele>44.161121</ele>
        <time>2020-08-10T14:58:48.773Z</time>
      </trkpt>
      <trkpt lat="64.4714" lon="11.53614">
        <ele>44.795392</ele>
        <time>2020-08-10T14:58:51.758Z</time>
      </trkpt>
      <trkpt lat="64.47138" lon="11.53637">
        <ele>45.367609</ele>
        <time>2020-08-10T14:58:54.788Z</time>
      </trkpt>
      <trkpt lat="64.47136" lon="11.53661">
        <ele>45.982069</ele>
        <time>2020-08-10T14:58:57.753Z</time>
      </trkpt>
      <trkpt lat="64.47133" lon="11.53684">
        <ele>46.592972</ele>
        <time>2020-08-10T14:59:00.787Z</time>
      </trkpt>
      <trkpt lat="64.47129" lon="11.53707">
        <ele>47.194324</ele>
        <time>2020-08-10T14:59:03.761Z</time>
      </trkpt>
      <trkpt lat="64.47126" lon="11.53727">
        <ele>47.736357</ele>
        <time>2020-08-10T14:59:06.760Z</time>
      </trkpt>
      <trkpt lat="64.47122" lon="11.53751">
        <ele>48.398611</ele>
        <time>2020-08-10T14:59:10.779Z</time>
      </trkpt>
      <trkpt lat="64.47116" lon="11.53768">
        <ele>48.924632</ele>
        <time>2020-08-10T14:59:13.760Z</time>
      </trkpt>
      <trkpt lat="64.47109" lon="11.53786">
        <ele>49.54899</ele>
        <time>2020-08-10T14:59:17.783Z</time>
      </trkpt>
      <trkpt lat="64.47103" lon="11.53806">
        <ele>50.157867</ele>
        <time>2020-08-10T14:59:21.753Z</time>
      </trkpt>
      <trkpt lat="64.47099" lon="11.53827">
        <ele>50.737415</ele>
        <time>2020-08-10T14:59:25.768Z</time>
      </trkpt>
      <trkpt lat="64.47093" lon="11.53848">
        <ele>51.373511</ele>
        <time>2020-08-10T14:59:29.787Z</time>
      </trkpt>
      <trkpt lat="64.47086" lon="11.53868">
        <ele>52.009146</ele>
        <time>2020-08-10T14:59:33.771Z</time>
      </trkpt>
      <trkpt lat="64.47081" lon="11.53889">
        <ele>52.62486</ele>
        <time>2020-08-10T14:59:37.807Z</time>
      </trkpt>
      <trkpt lat="64.47077" lon="11.53913">
        <ele>53.178125</ele>
        <time>2020-08-10T14:59:41.809Z</time>
      </trkpt>
      <trkpt lat="64.47071" lon="11.53934">
        <ele>53.569099</ele>
        <time>2020-08-10T14:59:45.761Z</time>
      </trkpt>
      <trkpt lat="64.47065" lon="11.53953">
        <ele>53.937929</ele>
        <time>2020-08-10T14:59:49.794Z</time>
      </trkpt>
      <trkpt lat="64.4706" lon="11.53972">
        <ele>54.301001</ele>
        <time>2020-08-10T14:59:54.779Z</time>
      </trkpt>
      <trkpt lat="64.47055" lon="11.53991">
        <ele>54.668771</ele>
        <time>2020-08-10T14:59:59.761Z</time>
      </trkpt>
      <trkpt lat="64.4705" lon="11.5401">
        <ele>55.01273</ele>
        <time>2020-08-10T15:00:03.762Z</time>
      </trkpt>
      <trkpt lat="64.47047" lon="11.54031">
        <ele>55.379364</ele>
        <time>2020-08-10T15:00:07.752Z</time>
      </trkpt>
      <trkpt lat="64.47043" lon="11.54058">
        <ele>55.834823</ele>
        <time>2020-08-10T15:00:10.788Z</time>
      </trkpt>
      <trkpt lat="64.47037" lon="11.54081">
        <ele>56.255826</ele>
        <time>2020-08-10T15:00:12.760Z</time>
      </trkpt>
      <trkpt lat="64.47032" lon="11.54102">
        <ele>56.631181</ele>
        <time>2020-08-10T15:00:14.789Z</time>
      </trkpt>
      <trkpt lat="64.47028" lon="11.54124">
        <ele>57.004841</ele>
        <time>2020-08-10T15:00:18.770Z</time>
      </trkpt>
      <trkpt lat="64.47028" lon="11.54146">
        <ele>57.364997</ele>
        <time>2020-08-10T15:00:25.759Z</time>
      </trkpt>
      <trkpt lat="64.47028" lon="11.54169">
        <ele>57.732824</ele>
        <time>2020-08-10T15:00:30.760Z</time>
      </trkpt>
      <trkpt lat="64.47029" lon="11.54192">
        <ele>58.103594</ele>
        <time>2020-08-10T15:00:36.753Z</time>
      </trkpt>
      <trkpt lat="64.47033" lon="11.54214">
        <ele>58.488905</ele>
        <time>2020-08-10T15:00:43.757Z</time>
      </trkpt>
      <trkpt lat="64.47036" lon="11.54238">
        <ele>58.883192</ele>
        <time>2020-08-10T15:00:49.783Z</time>
      </trkpt>
      <trkpt lat="64.47035" lon="11.54259">
        <ele>59.215089</ele>
        <time>2020-08-10T15:00:53.761Z</time>
      </trkpt>
      <trkpt lat="64.47036" lon="11.5428">
        <ele>59.56463</ele>
        <time>2020-08-10T15:00:58.762Z</time>
      </trkpt>
      <trkpt lat="64.47038" lon="11.54301">
        <ele>59.714212</ele>
        <time>2020-08-10T15:01:03.731Z</time>
      </trkpt>
      <trkpt lat="64.47039" lon="11.54324">
        <ele>59.775249</ele>
        <time>2020-08-10T15:01:08.744Z</time>
      </trkpt>
      <trkpt lat="64.47039" lon="11.54347">
        <ele>59.83448</ele>
        <time>2020-08-10T15:01:13.740Z</time>
      </trkpt>
      <trkpt lat="64.4704" lon="11.5437">
        <ele>59.893144</ele>
        <time>2020-08-10T15:01:18.749Z</time>
      </trkpt>
      <trkpt lat="64.47041" lon="11.54395">
        <ele>59.959376</ele>
        <time>2020-08-10T15:01:22.742Z</time>
      </trkpt>
      <trkpt lat="64.47043" lon="11.54417">
        <ele>60.017729</ele>
        <time>2020-08-10T15:01:27.738Z</time>
      </trkpt>
      <trkpt lat="64.47046" lon="11.5444">
        <ele>60.080869</ele>
        <time>2020-08-10T15:01:31.733Z</time>
      </trkpt>
      <trkpt lat="64.47049" lon="11.54462">
        <ele>60.139391</ele>
        <time>2020-08-10T15:01:35.744Z</time>
      </trkpt>
      <trkpt lat="64.47051" lon="11.54485">
        <ele>60.20224</ele>
        <time>2020-08-10T15:01:39.723Z</time>
      </trkpt>
      <trkpt lat="64.47053" lon="11.54506">
        <ele>60.257314</ele>
        <time>2020-08-10T15:01:43.738Z</time>
      </trkpt>
      <trkpt lat="64.47056" lon="11.54532">
        <ele>60.325945</ele>
        <time>2020-08-10T15:01:47.740Z</time>
      </trkpt>
      <trkpt lat="64.47062" lon="11.54554">
        <ele>60.392856</ele>
        <time>2020-08-10T15:01:50.737Z</time>
      </trkpt>
      <trkpt lat="64.47067" lon="11.54575">
        <ele>60.456834</ele>
        <time>2020-08-10T15:01:53.734Z</time>
      </trkpt>
      <trkpt lat="64.47073" lon="11.54597">
        <ele>60.523083</ele>
        <time>2020-08-10T15:01:56.740Z</time>
      </trkpt>
      <trkpt lat="64.47077" lon="11.5462">
        <ele>60.588853</ele>
        <time>2020-08-10T15:01:59.748Z</time>
      </trkpt>
      <trkpt lat="64.47082" lon="11.54646">
        <ele>60.662993</ele>
        <time>2020-08-10T15:02:02.740Z</time>
      </trkpt>
      <trkpt lat="64.4709" lon="11.5467">
        <ele>60.740659</ele>
        <time>2020-08-10T15:02:05.733Z</time>
      </trkpt>
      <trkpt lat="64.47096" lon="11.54689">
        <ele>60.502964</ele>
        <time>2020-08-10T15:02:08.744Z</time>
      </trkpt>
      <trkpt lat="64.47098" lon="11.5471">
        <ele>60.150866</ele>
        <time>2020-08-10T15:02:12.739Z</time>
      </trkpt>
      <trkpt lat="64.471" lon="11.54738">
        <ele>59.703042</ele>
        <time>2020-08-10T15:02:16.752Z</time>
      </trkpt>
      <trkpt lat="64.47102" lon="11.54764">
        <ele>59.281155</ele>
        <time>2020-08-10T15:02:19.732Z</time>
      </trkpt>
      <trkpt lat="64.47102" lon="11.54792">
        <ele>58.824566</ele>
        <time>2020-08-10T15:02:22.745Z</time>
      </trkpt>
      <trkpt lat="64.47102" lon="11.54821">
        <ele>58.355879</ele>
        <time>2020-08-10T15:02:25.733Z</time>
      </trkpt>
      <trkpt lat="64.471" lon="11.54849">
        <ele>57.900123</ele>
        <time>2020-08-10T15:02:28.739Z</time>
      </trkpt>
      <trkpt lat="64.47098" lon="11.54876">
        <ele>57.465702</ele>
        <time>2020-08-10T15:02:31.742Z</time>
      </trkpt>
      <trkpt lat="64.47095" lon="11.54903">
        <ele>57.025797</ele>
        <time>2020-08-10T15:02:34.733Z</time>
      </trkpt>
      <trkpt lat="64.47092" lon="11.54929">
        <ele>56.597089</ele>
        <time>2020-08-10T15:02:37.741Z</time>
      </trkpt>
      <trkpt lat="64.47089" lon="11.54951">
        <ele>56.223839</ele>
        <time>2020-08-10T15:02:40.751Z</time>
      </trkpt>
      <trkpt lat="64.47087" lon="11.54975">
        <ele>55.820762</ele>
        <time>2020-08-10T15:02:43.750Z</time>
      </trkpt>
      <trkpt lat="64.47085" lon="11.55">
        <ele>55.408269</ele>
        <time>2020-08-10T15:02:46.750Z</time>
      </trkpt>
      <trkpt lat="64.47082" lon="11.55025">
        <ele>55.00435</ele>
        <time>2020-08-10T15:02:49.737Z</time>
      </trkpt>
      <trkpt lat="64.4708" lon="11.55051">
        <ele>54.584821</ele>
        <time>2020-08-10T15:02:52.732Z</time>
      </trkpt>
      <trkpt lat="64.47077" lon="11.55077">
        <ele>54.14865</ele>
        <time>2020-08-10T15:02:55.730Z</time>
      </trkpt>
      <trkpt lat="64.47074" lon="11.55105">
        <ele>53.8772</ele>
        <time>2020-08-10T15:02:58.745Z</time>
      </trkpt>
      <trkpt lat="64.47072" lon="11.55136">
        <ele>53.631435</ele>
        <time>2020-08-10T15:03:01.731Z</time>
      </trkpt>
      <trkpt lat="64.47071" lon="11.55159">
        <ele>53.448479</ele>
        <time>2020-08-10T15:03:03.731Z</time>
      </trkpt>
      <trkpt lat="64.47071" lon="11.55184">
        <ele>53.249636</ele>
        <time>2020-08-10T15:03:05.746Z</time>
      </trkpt>
      <trkpt lat="64.47072" lon="11.55213">
        <ele>53.015582</ele>
        <time>2020-08-10T15:03:07.739Z</time>
      </trkpt>
      <trkpt lat="64.47074" lon="11.55245">
        <ele>52.759047</ele>
        <time>2020-08-10T15:03:09.734Z</time>
      </trkpt>
      <trkpt lat="64.47078" lon="11.55276">
        <ele>52.501437</ele>
        <time>2020-08-10T15:03:11.729Z</time>
      </trkpt>
      <trkpt lat="64.47084" lon="11.5531">
        <ele>52.208969</ele>
        <time>2020-08-10T15:03:13.736Z</time>
      </trkpt>
      <trkpt lat="64.47093" lon="11.55347">
        <ele>51.881333</ele>
        <time>2020-08-10T15:03:15.738Z</time>
      </trkpt>
      <trkpt lat="64.47097" lon="11.55366">
        <ele>51.710278</ele>
        <time>2020-08-10T15:03:16.725Z</time>
      </trkpt>
      <trkpt lat="64.47102" lon="11.55385">
        <ele>51.534348</ele>
        <time>2020-08-10T15:03:17.730Z</time>
      </trkpt>
      <trkpt lat="64.47106" lon="11.55405">
        <ele>51.355753</ele>
        <time>2020-08-10T15:03:18.736Z</time>
      </trkpt>
      <trkpt lat="64.4711" lon="11.55426">
        <ele>51.177984</ele>
        <time>2020-08-10T15:03:19.730Z</time>
      </trkpt>
      <trkpt lat="64.47115" lon="11.55445">
        <ele>50.998216</ele>
        <time>2020-08-10T15:03:20.747Z</time>
      </trkpt>
      <trkpt lat="64.4712" lon="11.55466">
        <ele>50.815123</ele>
        <time>2020-08-10T15:03:21.732Z</time>
      </trkpt>
      <trkpt lat="64.47124" lon="11.55486">
        <ele>50.525609</ele>
        <time>2020-08-10T15:03:22.732Z</time>
      </trkpt>
      <trkpt lat="64.47129" lon="11.55506">
        <ele>50.188208</ele>
        <time>2020-08-10T15:03:23.729Z</time>
      </trkpt>
      <trkpt lat="64.47134" lon="11.55525">
        <ele>49.85895</ele>
        <time>2020-08-10T15:03:24.744Z</time>
      </trkpt>
      <trkpt lat="64.47139" lon="11.55544">
        <ele>49.531407</ele>
        <time>2020-08-10T15:03:25.756Z</time>
      </trkpt>
      <trkpt lat="64.47144" lon="11.55562">
        <ele>49.212359</ele>
        <time>2020-08-10T15:03:26.741Z</time>
      </trkpt>
      <trkpt lat="64.47149" lon="11.5558">
        <ele>48.894058</ele>
        <time>2020-08-10T15:03:27.751Z</time>
      </trkpt>
      <trkpt lat="64.47154" lon="11.55598">
        <ele>48.569459</ele>
        <time>2020-08-10T15:03:28.741Z</time>
      </trkpt>
      <trkpt lat="64.4716" lon="11.55615">
        <ele>48.250153</ele>
        <time>2020-08-10T15:03:29.732Z</time>
      </trkpt>
      <trkpt lat="64.4717" lon="11.55648">
        <ele>47.660077</ele>
        <time>2020-08-10T15:03:31.731Z</time>
      </trkpt>
      <trkpt lat="64.47176" lon="11.55681">
        <ele>47.128696</ele>
        <time>2020-08-10T15:03:33.738Z</time>
      </trkpt>
      <trkpt lat="64.47181" lon="11.55709">
        <ele>46.681585</ele>
        <time>2020-08-10T15:03:35.752Z</time>
      </trkpt>
      <trkpt lat="64.47186" lon="11.55733">
        <ele>46.275152</ele>
        <time>2020-08-10T15:03:37.739Z</time>
      </trkpt>
      <trkpt lat="64.47191" lon="11.55756">
        <ele>45.891474</ele>
        <time>2020-08-10T15:03:39.735Z</time>
      </trkpt>
      <trkpt lat="64.47197" lon="11.5578">
        <ele>45.485812</ele>
        <time>2020-08-10T15:03:41.732Z</time>
      </trkpt>
      <trkpt lat="64.47203" lon="11.55803">
        <ele>45.076545</ele>
        <time>2020-08-10T15:03:43.737Z</time>
      </trkpt>
      <trkpt lat="64.47208" lon="11.55827">
        <ele>44.679933</ele>
        <time>2020-08-10T15:03:45.755Z</time>
      </trkpt>
      <trkpt lat="64.47213" lon="11.55852">
        <ele>44.45799</ele>
        <time>2020-08-10T15:03:47.739Z</time>
      </trkpt>
      <trkpt lat="64.47218" lon="11.55876">
        <ele>44.305215</ele>
        <time>2020-08-10T15:03:49.737Z</time>
      </trkpt>
      <trkpt lat="64.47223" lon="11.55899">
        <ele>44.16018</ele>
        <time>2020-08-10T15:03:51.738Z</time>
      </trkpt>
      <trkpt lat="64.47227" lon="11.55922">
        <ele>44.019518</ele>
        <time>2020-08-10T15:03:53.734Z</time>
      </trkpt>
      <trkpt lat="64.4723" lon="11.55944">
        <ele>43.884552</ele>
        <time>2020-08-10T15:03:55.737Z</time>
      </trkpt>
      <trkpt lat="64.47235" lon="11.55966">
        <ele>43.746014</ele>
        <time>2020-08-10T15:03:57.738Z</time>
      </trkpt>
      <trkpt lat="64.47239" lon="11.5599">
        <ele>43.601722</ele>
        <time>2020-08-10T15:03:59.747Z</time>
      </trkpt>
      <trkpt lat="64.47243" lon="11.56012">
        <ele>43.460002</ele>
        <time>2020-08-10T15:04:01.736Z</time>
      </trkpt>
      <trkpt lat="64.47248" lon="11.56035">
        <ele>43.316641</ele>
        <time>2020-08-10T15:04:03.740Z</time>
      </trkpt>
      <trkpt lat="64.47253" lon="11.56058">
        <ele>43.171266</ele>
        <time>2020-08-10T15:04:05.735Z</time>
      </trkpt>
      <trkpt lat="64.47258" lon="11.5608">
        <ele>43.031692</ele>
        <time>2020-08-10T15:04:07.755Z</time>
      </trkpt>
      <trkpt lat="64.47263" lon="11.561">
        <ele>42.898237</ele>
        <time>2020-08-10T15:04:09.742Z</time>
      </trkpt>
      <trkpt lat="64.47268" lon="11.56119">
        <ele>42.767903</ele>
        <time>2020-08-10T15:04:11.741Z</time>
      </trkpt>
      <trkpt lat="64.47273" lon="11.56139">
        <ele>42.637081</ele>
        <time>2020-08-10T15:04:13.735Z</time>
      </trkpt>
      <trkpt lat="64.47278" lon="11.56159">
        <ele>42.506767</ele>
        <time>2020-08-10T15:04:15.741Z</time>
      </trkpt>
      <trkpt lat="64.47283" lon="11.56178">
        <ele>42.381394</ele>
        <time>2020-08-10T15:04:17.738Z</time>
      </trkpt>
      <trkpt lat="64.47288" lon="11.56197">
        <ele>42.257298</ele>
        <time>2020-08-10T15:04:19.730Z</time>
      </trkpt>
      <trkpt lat="64.47293" lon="11.56214">
        <ele>42.262958</ele>
        <time>2020-08-10T15:04:21.733Z</time>
      </trkpt>
      <trkpt lat="64.47299" lon="11.5624">
        <ele>42.486485</ele>
        <time>2020-08-10T15:04:24.750Z</time>
      </trkpt>
      <trkpt lat="64.47306" lon="11.56267">
        <ele>42.713677</ele>
        <time>2020-08-10T15:04:27.736Z</time>
      </trkpt>
      <trkpt lat="64.47313" lon="11.56293">
        <ele>42.942042</ele>
        <time>2020-08-10T15:04:30.733Z</time>
      </trkpt>
      <trkpt lat="64.4732" lon="11.5632">
        <ele>43.170243</ele>
        <time>2020-08-10T15:04:33.728Z</time>
      </trkpt>
      <trkpt lat="64.47324" lon="11.56338">
        <ele>43.323579</ele>
        <time>2020-08-10T15:04:35.738Z</time>
      </trkpt>
      <trkpt lat="64.47329" lon="11.56356">
        <ele>43.480049</ele>
        <time>2020-08-10T15:04:37.738Z</time>
      </trkpt>
      <trkpt lat="64.47334" lon="11.56374">
        <ele>43.637767</ele>
        <time>2020-08-10T15:04:39.735Z</time>
      </trkpt>
      <trkpt lat="64.47339" lon="11.56391">
        <ele>43.793615</ele>
        <time>2020-08-10T15:04:41.737Z</time>
      </trkpt>
      <trkpt lat="64.47346" lon="11.56418">
        <ele>44.02511</ele>
        <time>2020-08-10T15:04:44.731Z</time>
      </trkpt>
      <trkpt lat="64.47352" lon="11.56445">
        <ele>44.251658</ele>
        <time>2020-08-10T15:04:47.746Z</time>
      </trkpt>
      <trkpt lat="64.47359" lon="11.56471">
        <ele>44.470266</ele>
        <time>2020-08-10T15:04:50.733Z</time>
      </trkpt>
      <trkpt lat="64.47364" lon="11.56497">
        <ele>44.684733</ele>
        <time>2020-08-10T15:04:53.737Z</time>
      </trkpt>
      <trkpt lat="64.47371" lon="11.56522">
        <ele>44.899923</ele>
        <time>2020-08-10T15:04:56.745Z</time>
      </trkpt>
      <trkpt lat="64.47375" lon="11.5654">
        <ele>45.058625</ele>
        <time>2020-08-10T15:04:58.745Z</time>
      </trkpt>
      <trkpt lat="64.4738" lon="11.5656">
        <ele>45.22348</ele>
        <time>2020-08-10T15:05:00.742Z</time>
      </trkpt>
      <trkpt lat="64.47384" lon="11.56579">
        <ele>45.205548</ele>
        <time>2020-08-10T15:05:02.735Z</time>
      </trkpt>
      <trkpt lat="64.47388" lon="11.56599">
        <ele>45.107638</ele>
        <time>2020-08-10T15:05:04.753Z</time>
      </trkpt>
      <trkpt lat="64.47392" lon="11.5662">
        <ele>45.005148</ele>
        <time>2020-08-10T15:05:06.741Z</time>
      </trkpt>
      <trkpt lat="64.47395" lon="11.5664">
        <ele>44.905978</ele>
        <time>2020-08-10T15:05:08.727Z</time>
      </trkpt>
      <trkpt lat="64.474" lon="11.56668">
        <ele>44.767804</ele>
        <time>2020-08-10T15:05:11.740Z</time>
      </trkpt>
      <trkpt lat="64.47406" lon="11.56696">
        <ele>44.62995</ele>
        <time>2020-08-10T15:05:14.728Z</time>
      </trkpt>
      <trkpt lat="64.47411" lon="11.56724">
        <ele>44.490968</ele>
        <time>2020-08-10T15:05:17.738Z</time>
      </trkpt>
      <trkpt lat="64.47413" lon="11.56751">
        <ele>44.369779</ele>
        <time>2020-08-10T15:05:20.749Z</time>
      </trkpt>
      <trkpt lat="64.47405" lon="11.56772">
        <ele>44.247231</ele>
        <time>2020-08-10T15:05:23.740Z</time>
      </trkpt>
      <trkpt lat="64.47397" lon="11.56782">
        <ele>44.149697</ele>
        <time>2020-08-10T15:05:25.743Z</time>
      </trkpt>
      <trkpt lat="64.47388" lon="11.5679">
        <ele>44.047842</ele>
        <time>2020-08-10T15:05:27.731Z</time>
      </trkpt>
      <trkpt lat="64.4738" lon="11.568">
        <ele>43.949593</ele>
        <time>2020-08-10T15:05:29.729Z</time>
      </trkpt>
      <trkpt lat="64.47372" lon="11.56812">
        <ele>43.852228</ele>
        <time>2020-08-10T15:05:31.732Z</time>
      </trkpt>
      <trkpt lat="64.47364" lon="11.56823">
        <ele>43.750887</ele>
        <time>2020-08-10T15:05:33.737Z</time>
      </trkpt>
      <trkpt lat="64.47355" lon="11.56835">
        <ele>43.647646</ele>
        <time>2020-08-10T15:05:35.734Z</time>
      </trkpt>
      <trkpt lat="64.47347" lon="11.56847">
        <ele>43.544238</ele>
        <time>2020-08-10T15:05:37.734Z</time>
      </trkpt>
      <trkpt lat="64.47338" lon="11.5686">
        <ele>43.434231</ele>
        <time>2020-08-10T15:05:39.735Z</time>
      </trkpt>
      <trkpt lat="64.47328" lon="11.56876">
        <ele>43.345288</ele>
        <time>2020-08-10T15:05:41.731Z</time>
      </trkpt>
      <trkpt lat="64.47319" lon="11.56898">
        <ele>43.272053</ele>
        <time>2020-08-10T15:05:43.731Z</time>
      </trkpt>
      <trkpt lat="64.47316" lon="11.56928">
        <ele>43.196828</ele>
        <time>2020-08-10T15:05:45.745Z</time>
      </trkpt>
      <trkpt lat="64.47317" lon="11.56959">
        <ele>43.12173</ele>
        <time>2020-08-10T15:05:47.754Z</time>
      </trkpt>
      <trkpt lat="64.47318" lon="11.56988">
        <ele>43.050997</ele>
        <time>2020-08-10T15:05:49.731Z</time>
      </trkpt>
      <trkpt lat="64.4732" lon="11.57015">
        <ele>42.983223</ele>
        <time>2020-08-10T15:05:51.732Z</time>
      </trkpt>
      <trkpt lat="64.47322" lon="11.57041">
        <ele>42.918521</ele>
        <time>2020-08-10T15:05:53.729Z</time>
      </trkpt>
      <trkpt lat="64.47325" lon="11.57065">
        <ele>42.859015</ele>
        <time>2020-08-10T15:05:55.731Z</time>
      </trkpt>
      <trkpt lat="64.47327" lon="11.57088">
        <ele>42.800286</ele>
        <time>2020-08-10T15:05:57.739Z</time>
      </trkpt>
      <trkpt lat="64.4733" lon="11.57112">
        <ele>42.74081</ele>
        <time>2020-08-10T15:05:59.734Z</time>
      </trkpt>
      <trkpt lat="64.47333" lon="11.57134">
        <ele>42.683976</ele>
        <time>2020-08-10T15:06:01.734Z</time>
      </trkpt>
      <trkpt lat="64.47336" lon="11.57157">
        <ele>42.627025</ele>
        <time>2020-08-10T15:06:03.742Z</time>
      </trkpt>
      <trkpt lat="64.47339" lon="11.57179">
        <ele>42.569904</ele>
        <time>2020-08-10T15:06:05.739Z</time>
      </trkpt>
      <trkpt lat="64.47342" lon="11.57202">
        <ele>42.512811</ele>
        <time>2020-08-10T15:06:07.743Z</time>
      </trkpt>
      <trkpt lat="64.47345" lon="11.57226">
        <ele>42.452392</ele>
        <time>2020-08-10T15:06:09.744Z</time>
      </trkpt>
      <trkpt lat="64.47346" lon="11.57249">
        <ele>42.39601</ele>
        <time>2020-08-10T15:06:11.732Z</time>
      </trkpt>
      <trkpt lat="64.47348" lon="11.57272">
        <ele>42.224322</ele>
        <time>2020-08-10T15:06:13.744Z</time>
      </trkpt>
      <trkpt lat="64.47348" lon="11.57296">
        <ele>41.965781</ele>
        <time>2020-08-10T15:06:15.746Z</time>
      </trkpt>
      <trkpt lat="64.47345" lon="11.57317">
        <ele>41.720327</ele>
        <time>2020-08-10T15:06:17.736Z</time>
      </trkpt>
      <trkpt lat="64.47339" lon="11.57336">
        <ele>41.479719</ele>
        <time>2020-08-10T15:06:19.742Z</time>
      </trkpt>
      <trkpt lat="64.47332" lon="11.57351">
        <ele>41.243759</ele>
        <time>2020-08-10T15:06:21.748Z</time>
      </trkpt>
      <trkpt lat="64.47323" lon="11.5736">
        <ele>40.998818</ele>
        <time>2020-08-10T15:06:23.733Z</time>
      </trkpt>
      <trkpt lat="64.47313" lon="11.57362">
        <ele>40.737806</ele>
        <time>2020-08-10T15:06:25.746Z</time>
      </trkpt>
      <trkpt lat="64.47304" lon="11.57366">
        <ele>40.49589</ele>
        <time>2020-08-10T15:06:27.736Z</time>
      </trkpt>
      <trkpt lat="64.47296" lon="11.5738">
        <ele>40.263253</ele>
        <time>2020-08-10T15:06:29.737Z</time>
      </trkpt>
      <trkpt lat="64.47292" lon="11.57399">
        <ele>40.027585</ele>
        <time>2020-08-10T15:06:31.744Z</time>
      </trkpt>
      <trkpt lat="64.47292" lon="11.57429">
        <ele>39.696772</ele>
        <time>2020-08-10T15:06:34.744Z</time>
      </trkpt>
      <trkpt lat="64.47294" lon="11.57453">
        <ele>39.435869</ele>
        <time>2020-08-10T15:06:36.731Z</time>
      </trkpt>
      <trkpt lat="64.47296" lon="11.57479">
        <ele>39.153652</ele>
        <time>2020-08-10T15:06:38.741Z</time>
      </trkpt>
      <trkpt lat="64.473" lon="11.57504">
        <ele>38.867705</ele>
        <time>2020-08-10T15:06:40.736Z</time>
      </trkpt>
      <trkpt lat="64.47305" lon="11.57526">
        <ele>38.594352</ele>
        <time>2020-08-10T15:06:42.746Z</time>
      </trkpt>
      <trkpt lat="64.4731" lon="11.57547">
        <ele>38.334089</ele>
        <time>2020-08-10T15:06:44.736Z</time>
      </trkpt>
      <trkpt lat="64.47315" lon="11.57567">
        <ele>38.088212</ele>
        <time>2020-08-10T15:06:46.739Z</time>
      </trkpt>
      <trkpt lat="64.4732" lon="11.57587">
        <ele>37.877687</ele>
        <time>2020-08-10T15:06:48.754Z</time>
      </trkpt>
      <trkpt lat="64.47325" lon="11.57607">
        <ele>37.877687</ele>
        <time>2020-08-10T15:06:50.764Z</time>
      </trkpt>
      <trkpt lat="64.4733" lon="11.57626">
        <ele>37.877687</ele>
        <time>2020-08-10T15:06:52.739Z</time>
      </trkpt>
      <trkpt lat="64.47335" lon="11.57644">
        <ele>37.877687</ele>
        <time>2020-08-10T15:06:54.738Z</time>
      </trkpt>
      <trkpt lat="64.4734" lon="11.57662">
        <ele>37.877687</ele>
        <time>2020-08-10T15:06:56.737Z</time>
      </trkpt>
      <trkpt lat="64.47345" lon="11.57681">
        <ele>37.877687</ele>
        <time>2020-08-10T15:06:58.745Z</time>
      </trkpt>
      <trkpt lat="64.4735" lon="11.577">
        <ele>37.877687</ele>
        <time>2020-08-10T15:07:00.734Z</time>
      </trkpt>
      <trkpt lat="64.47354" lon="11.57719">
        <ele>37.877687</ele>
        <time>2020-08-10T15:07:02.741Z</time>
      </trkpt>
      <trkpt lat="64.47359" lon="11.57737">
        <ele>37.877687</ele>
        <time>2020-08-10T15:07:04.742Z</time>
      </trkpt>
      <trkpt lat="64.47367" lon="11.5776">
        <ele>37.877687</ele>
        <time>2020-08-10T15:07:07.730Z</time>
      </trkpt>
      <trkpt lat="64.47375" lon="11.57776">
        <ele>37.877687</ele>
        <time>2020-08-10T15:07:10.745Z</time>
      </trkpt>
      <trkpt lat="64.47383" lon="11.57791">
        <ele>37.877687</ele>
        <time>2020-08-10T15:07:13.746Z</time>
      </trkpt>
      <trkpt lat="64.47391" lon="11.57804">
        <ele>37.877687</ele>
        <time>2020-08-10T15:07:16.734Z</time>
      </trkpt>
      <trkpt lat="64.474" lon="11.57814">
        <ele>37.877687</ele>
        <time>2020-08-10T15:07:19.736Z</time>
      </trkpt>
      <trkpt lat="64.47407" lon="11.57828">
        <ele>37.877687</ele>
        <time>2020-08-10T15:07:22.733Z</time>
      </trkpt>
      <trkpt lat="64.47416" lon="11.57839">
        <ele>37.877687</ele>
        <time>2020-08-10T15:07:25.744Z</time>
      </trkpt>
      <trkpt lat="64.47426" lon="11.5785">
        <ele>37.877687</ele>
        <time>2020-08-10T15:07:28.729Z</time>
      </trkpt>
      <trkpt lat="64.47435" lon="11.57861">
        <ele>37.877687</ele>
        <time>2020-08-10T15:07:31.738Z</time>
      </trkpt>
      <trkpt lat="64.47444" lon="11.57869">
        <ele>37.877687</ele>
        <time>2020-08-10T15:07:34.729Z</time>
      </trkpt>
      <trkpt lat="64.47454" lon="11.57873">
        <ele>37.877687</ele>
        <time>2020-08-10T15:07:37.736Z</time>
      </trkpt>
      <trkpt lat="64.47465" lon="11.57871">
        <ele>37.877687</ele>
        <time>2020-08-10T15:07:42.735Z</time>
      </trkpt>
      <trkpt lat="64.47471" lon="11.57869">
        <ele>37.877687</ele>
        <time>2020-08-10T15:08:26.603Z</time>
      </trkpt>
    </trkseg>
  </trk>
</gpx>